<?xml version='1.0' encoding='UTF-8'?><gpx version="1.1" creator="JPX - https://github.com/jenetics/jpx" xmlns="http://www.topografix.com/GPX/1/1"><trk><trkseg><trkpt lat="45.0462921" lon="9.6726984"><ele>60.0</ele><time>2026-04-08T08:41:41.371Z</time></trkpt><trkpt lat="45.0463092" lon="9.672612"><ele>60.0</ele><time>2026-04-08T08:41:57.317Z</time></trkpt><trkpt lat="45.0463526" lon="9.6725309"><ele>60.0</ele><time>2026-04-08T08:42:00.291Z</time></trkpt><trkpt lat="45.0463098" lon="9.6726014"><ele>60.0</ele><time>2026-04-08T08:43:16.333Z</time></trkpt><trkpt lat="45.0462526" lon="9.6726459"><ele>60.0</ele><time>2026-04-08T08:43:23.355Z</time></trkpt><trkpt lat="45.046282" lon="9.6727416"><ele>60.0</ele><time>2026-04-08T08:43:46.323Z</time></trkpt><trkpt lat="45.046322" lon="9.6726677"><ele>60.0</ele><time>2026-04-08T08:43:50.369Z</time></trkpt><trkpt lat="45.0464463" lon="9.6728735"><ele>60.0</ele><time>2026-04-08T08:43:51.321Z</time></trkpt><trkpt lat="45.046506" lon="9.67291"><ele>60.0</ele><time>2026-04-08T08:43:55.4Z</time></trkpt><trkpt lat="45.046486" lon="9.6728042"><ele>60.0</ele><time>2026-04-08T08:43:56.319Z</time></trkpt><trkpt lat="45.0462519" lon="9.6726401"><ele>60.0</ele><time>2026-04-08T08:43:59.11Z</time></trkpt><trkpt lat="45.0461651" lon="9.6725534"><ele>60.0</ele><time>2026-04-08T08:44:00.11Z</time></trkpt><trkpt lat="45.0460907" lon="9.6724755"><ele>60.0</ele><time>2026-04-08T08:44:01.11Z</time></trkpt><trkpt lat="45.0460045" lon="9.6723607"><ele>60.0</ele><time>2026-04-08T08:44:02.11Z</time></trkpt><trkpt lat="45.0459389" lon="9.6722608"><ele>60.0</ele><time>2026-04-08T08:44:03.11Z</time></trkpt><trkpt lat="45.0458755" lon="9.6721645"><ele>60.0</ele><time>2026-04-08T08:44:04.109Z</time></trkpt><trkpt lat="45.0458141" lon="9.6720942"><ele>60.0</ele><time>2026-04-08T08:44:05.11Z</time></trkpt><trkpt lat="45.0457534" lon="9.6720329"><ele>60.0</ele><time>2026-04-08T08:44:06.11Z</time></trkpt><trkpt lat="45.0456971" lon="9.6719769"><ele>60.0</ele><time>2026-04-08T08:44:07.11Z</time></trkpt><trkpt lat="45.045646" lon="9.6719248"><ele>60.0</ele><time>2026-04-08T08:44:08.109Z</time></trkpt><trkpt lat="45.0455734" lon="9.6718282"><ele>60.0</ele><time>2026-04-08T08:44:10.11Z</time></trkpt><trkpt lat="45.0455052" lon="9.6717286"><ele>60.0</ele><time>2026-04-08T08:44:12.11Z</time></trkpt><trkpt lat="45.0454454" lon="9.6716344"><ele>60.0</ele><time>2026-04-08T08:44:14.11Z</time></trkpt><trkpt lat="45.0453853" lon="9.6716012"><ele>60.0</ele><time>2026-04-08T08:44:18.11Z</time></trkpt><trkpt lat="45.0453317" lon="9.6717102"><ele>60.0</ele><time>2026-04-08T08:44:20.11Z</time></trkpt><trkpt lat="45.0452977" lon="9.671804"><ele>60.0</ele><time>2026-04-08T08:44:21.11Z</time></trkpt><trkpt lat="45.0452585" lon="9.6719142"><ele>60.0</ele><time>2026-04-08T08:44:22.109Z</time></trkpt><trkpt lat="45.04521" lon="9.672055"><ele>60.0</ele><time>2026-04-08T08:44:23.11Z</time></trkpt><trkpt lat="45.0451667" lon="9.672195"><ele>60.0</ele><time>2026-04-08T08:44:24.11Z</time></trkpt><trkpt lat="45.0451217" lon="9.672325"><ele>60.0</ele><time>2026-04-08T08:44:25.109Z</time></trkpt><trkpt lat="45.0450783" lon="9.6724433"><ele>60.0</ele><time>2026-04-08T08:44:26.11Z</time></trkpt><trkpt lat="45.04504" lon="9.67255"><ele>60.0</ele><time>2026-04-08T08:44:27.109Z</time></trkpt><trkpt lat="45.0450033" lon="9.6726383"><ele>60.0</ele><time>2026-04-08T08:44:28.11Z</time></trkpt><trkpt lat="45.044935" lon="9.6727733"><ele>60.0</ele><time>2026-04-08T08:44:30.11Z</time></trkpt><trkpt lat="45.0448633" lon="9.672885"><ele>60.0</ele><time>2026-04-08T08:44:32.11Z</time></trkpt><trkpt lat="45.044795" lon="9.67297"><ele>60.0</ele><time>2026-04-08T08:44:34.11Z</time></trkpt><trkpt lat="45.0446417" lon="9.6729267"><ele>60.0</ele><time>2026-04-08T08:44:36.11Z</time></trkpt><trkpt lat="45.0445667" lon="9.67287"><ele>60.0</ele><time>2026-04-08T08:44:37.109Z</time></trkpt><trkpt lat="45.0444883" lon="9.6728167"><ele>60.0</ele><time>2026-04-08T08:44:38.11Z</time></trkpt><trkpt lat="45.0444083" lon="9.6727567"><ele>60.0</ele><time>2026-04-08T08:44:39.11Z</time></trkpt><trkpt lat="45.04433" lon="9.6726917"><ele>60.0</ele><time>2026-04-08T08:44:40.11Z</time></trkpt><trkpt lat="45.0442533" lon="9.6726283"><ele>60.0</ele><time>2026-04-08T08:44:41.109Z</time></trkpt><trkpt lat="45.044175" lon="9.672555"><ele>60.0</ele><time>2026-04-08T08:44:42.11Z</time></trkpt><trkpt lat="45.044095" lon="9.67249"><ele>60.2</ele><time>2026-04-08T08:44:43.11Z</time></trkpt><trkpt lat="45.044015" lon="9.672425"><ele>60.4</ele><time>2026-04-08T08:44:44.11Z</time></trkpt><trkpt lat="45.0439367" lon="9.6723517"><ele>60.599999999999994</ele><time>2026-04-08T08:44:45.11Z</time></trkpt><trkpt lat="45.043855" lon="9.6722767"><ele>60.8</ele><time>2026-04-08T08:44:46.11Z</time></trkpt><trkpt lat="45.0437767" lon="9.6722033"><ele>61.0</ele><time>2026-04-08T08:44:47.109Z</time></trkpt><trkpt lat="45.0436967" lon="9.6721383"><ele>61.0</ele><time>2026-04-08T08:44:48.11Z</time></trkpt><trkpt lat="45.0436167" lon="9.6720767"><ele>60.99999999999999</ele><time>2026-04-08T08:44:49.11Z</time></trkpt><trkpt lat="45.0435333" lon="9.6720117"><ele>60.99999999999999</ele><time>2026-04-08T08:44:50.11Z</time></trkpt><trkpt lat="45.0434317" lon="9.671935"><ele>61.0</ele><time>2026-04-08T08:44:51.11Z</time></trkpt><trkpt lat="45.0433267" lon="9.67182"><ele>61.0</ele><time>2026-04-08T08:44:52.11Z</time></trkpt><trkpt lat="45.0432367" lon="9.6717367"><ele>60.8</ele><time>2026-04-08T08:44:53.11Z</time></trkpt><trkpt lat="45.0431467" lon="9.6716583"><ele>60.599999999999994</ele><time>2026-04-08T08:44:54.11Z</time></trkpt><trkpt lat="45.0430633" lon="9.67158"><ele>60.4</ele><time>2026-04-08T08:44:55.109Z</time></trkpt><trkpt lat="45.042985" lon="9.6715"><ele>60.2</ele><time>2026-04-08T08:44:56.109Z</time></trkpt><trkpt lat="45.0429183" lon="9.671425"><ele>60.0</ele><time>2026-04-08T08:44:57.11Z</time></trkpt><trkpt lat="45.0428617" lon="9.6713517"><ele>60.0</ele><time>2026-04-08T08:44:58.11Z</time></trkpt><trkpt lat="45.04279" lon="9.6712517"><ele>60.0</ele><time>2026-04-08T08:45:00.11Z</time></trkpt><trkpt lat="45.0427317" lon="9.6711967"><ele>60.0</ele><time>2026-04-08T08:45:02.11Z</time></trkpt><trkpt lat="45.04265" lon="9.67121"><ele>60.0</ele><time>2026-04-08T08:45:04.11Z</time></trkpt><trkpt lat="45.0425417" lon="9.6712533"><ele>60.0</ele><time>2026-04-08T08:45:06.11Z</time></trkpt><trkpt lat="45.0424417" lon="9.6713617"><ele>60.166666666666664</ele><time>2026-04-08T08:45:08.11Z</time></trkpt><trkpt lat="45.042375" lon="9.671435"><ele>60.33333333333333</ele><time>2026-04-08T08:45:09.11Z</time></trkpt><trkpt lat="45.0423" lon="9.67152"><ele>60.5</ele><time>2026-04-08T08:45:10.109Z</time></trkpt><trkpt lat="45.04223" lon="9.671605"><ele>60.666666666666664</ele><time>2026-04-08T08:45:11.109Z</time></trkpt><trkpt lat="45.0421683" lon="9.6716767"><ele>60.83333333333333</ele><time>2026-04-08T08:45:12.109Z</time></trkpt><trkpt lat="45.0421167" lon="9.67174"><ele>61.0</ele><time>2026-04-08T08:45:13.109Z</time></trkpt><trkpt lat="45.0420667" lon="9.6718017"><ele>61.0</ele><time>2026-04-08T08:45:14.109Z</time></trkpt><trkpt lat="45.0419767" lon="9.6719233"><ele>60.99999999999999</ele><time>2026-04-08T08:45:16.108Z</time></trkpt><trkpt lat="45.0419283" lon="9.6719883"><ele>60.99999999999999</ele><time>2026-04-08T08:45:17.109Z</time></trkpt><trkpt lat="45.0418433" lon="9.6721167"><ele>61.0</ele><time>2026-04-08T08:45:19.109Z</time></trkpt><trkpt lat="45.041785" lon="9.6721983"><ele>61.0</ele><time>2026-04-08T08:45:20.108Z</time></trkpt><trkpt lat="45.04172" lon="9.6722833"><ele>60.83333333333333</ele><time>2026-04-08T08:45:21.108Z</time></trkpt><trkpt lat="45.0416567" lon="9.6723683"><ele>60.666666666666664</ele><time>2026-04-08T08:45:22.109Z</time></trkpt><trkpt lat="45.0415967" lon="9.6724483"><ele>60.5</ele><time>2026-04-08T08:45:23.109Z</time></trkpt><trkpt lat="45.0415333" lon="9.6725217"><ele>60.33333333333333</ele><time>2026-04-08T08:45:24.109Z</time></trkpt><trkpt lat="45.04147" lon="9.6725933"><ele>60.166666666666664</ele><time>2026-04-08T08:45:25.109Z</time></trkpt><trkpt lat="45.0414217" lon="9.6726567"><ele>60.0</ele><time>2026-04-08T08:45:26.109Z</time></trkpt><trkpt lat="45.0413483" lon="9.6727483"><ele>60.6</ele><time>2026-04-08T08:45:28.109Z</time></trkpt><trkpt lat="45.0412867" lon="9.6728183"><ele>61.2</ele><time>2026-04-08T08:45:30.108Z</time></trkpt><trkpt lat="45.041195" lon="9.6729533"><ele>61.8</ele><time>2026-04-08T08:45:32.109Z</time></trkpt><trkpt lat="45.04114" lon="9.6730367"><ele>62.4</ele><time>2026-04-08T08:45:33.108Z</time></trkpt><trkpt lat="45.0410833" lon="9.67312"><ele>63.0</ele><time>2026-04-08T08:45:34.109Z</time></trkpt><trkpt lat="45.04102" lon="9.6732067"><ele>63.0</ele><time>2026-04-08T08:45:35.109Z</time></trkpt><trkpt lat="45.0409583" lon="9.673295"><ele>63.0</ele><time>2026-04-08T08:45:36.109Z</time></trkpt><trkpt lat="45.0408933" lon="9.6733817"><ele>63.0</ele><time>2026-04-08T08:45:37.109Z</time></trkpt><trkpt lat="45.040825" lon="9.6734717"><ele>63.0</ele><time>2026-04-08T08:45:38.108Z</time></trkpt><trkpt lat="45.0407517" lon="9.6735717"><ele>63.0</ele><time>2026-04-08T08:45:39.109Z</time></trkpt><trkpt lat="45.0406783" lon="9.6736733"><ele>62.0</ele><time>2026-04-08T08:45:40.109Z</time></trkpt><trkpt lat="45.0406033" lon="9.673775"><ele>61.0</ele><time>2026-04-08T08:45:41.109Z</time></trkpt><trkpt lat="45.0405283" lon="9.67388"><ele>60.0</ele><time>2026-04-08T08:45:42.109Z</time></trkpt><trkpt lat="45.04045" lon="9.6739833"><ele>59.0</ele><time>2026-04-08T08:45:43.109Z</time></trkpt><trkpt lat="45.040375" lon="9.6740867"><ele>58.0</ele><time>2026-04-08T08:45:44.109Z</time></trkpt><trkpt lat="45.0402967" lon="9.67419"><ele>58.0</ele><time>2026-04-08T08:45:45.109Z</time></trkpt><trkpt lat="45.04022" lon="9.6742967"><ele>58.0</ele><time>2026-04-08T08:45:46.109Z</time></trkpt><trkpt lat="45.0401417" lon="9.6744067"><ele>58.0</ele><time>2026-04-08T08:45:47.109Z</time></trkpt><trkpt lat="45.0400633" lon="9.6745083"><ele>58.0</ele><time>2026-04-08T08:45:48.109Z</time></trkpt><trkpt lat="45.0399917" lon="9.6746"><ele>58.0</ele><time>2026-04-08T08:45:49.109Z</time></trkpt><trkpt lat="45.0399283" lon="9.674685"><ele>58.49999999999999</ele><time>2026-04-08T08:45:50.108Z</time></trkpt><trkpt lat="45.03987" lon="9.67476"><ele>59.0</ele><time>2026-04-08T08:45:51.109Z</time></trkpt><trkpt lat="45.03982" lon="9.6748317"><ele>59.5</ele><time>2026-04-08T08:45:52.109Z</time></trkpt><trkpt lat="45.0397717" lon="9.6748917"><ele>60.0</ele><time>2026-04-08T08:45:53.109Z</time></trkpt><trkpt lat="45.03968" lon="9.674995"><ele>60.49999999999999</ele><time>2026-04-08T08:45:55.109Z</time></trkpt><trkpt lat="45.0396083" lon="9.6750783"><ele>61.0</ele><time>2026-04-08T08:45:57.109Z</time></trkpt><trkpt lat="45.0395517" lon="9.6751383"><ele>60.99999999999999</ele><time>2026-04-08T08:46:00.109Z</time></trkpt><trkpt lat="45.03949" lon="9.6751933"><ele>61.0</ele><time>2026-04-08T08:46:04.109Z</time></trkpt><trkpt lat="45.0394167" lon="9.6751317"><ele>61.0</ele><time>2026-04-08T08:46:07.109Z</time></trkpt><trkpt lat="45.0393317" lon="9.6750133"><ele>61.0</ele><time>2026-04-08T08:46:09.108Z</time></trkpt><trkpt lat="45.03928" lon="9.6749417"><ele>60.99999999999999</ele><time>2026-04-08T08:46:10.109Z</time></trkpt><trkpt lat="45.0392233" lon="9.6748617"><ele>61.0</ele><time>2026-04-08T08:46:11.108Z</time></trkpt><trkpt lat="45.039165" lon="9.67478"><ele>60.85714285714285</ele><time>2026-04-08T08:46:12.109Z</time></trkpt><trkpt lat="45.0391083" lon="9.6747017"><ele>60.71428571428571</ele><time>2026-04-08T08:46:13.109Z</time></trkpt><trkpt lat="45.0390567" lon="9.67463"><ele>60.57142857142857</ele><time>2026-04-08T08:46:14.109Z</time></trkpt><trkpt lat="45.0390067" lon="9.674565"><ele>60.42857142857142</ele><time>2026-04-08T08:46:15.109Z</time></trkpt><trkpt lat="45.038955" lon="9.674495"><ele>60.28571428571428</ele><time>2026-04-08T08:46:16.109Z</time></trkpt><trkpt lat="45.0389033" lon="9.6744217"><ele>60.142857142857146</ele><time>2026-04-08T08:46:17.109Z</time></trkpt><trkpt lat="45.0388483" lon="9.674345"><ele>60.0</ele><time>2026-04-08T08:46:18.109Z</time></trkpt><trkpt lat="45.038795" lon="9.67427"><ele>60.0</ele><time>2026-04-08T08:46:19.109Z</time></trkpt><trkpt lat="45.038735" lon="9.6742"><ele>60.0</ele><time>2026-04-08T08:46:20.109Z</time></trkpt><trkpt lat="45.0386767" lon="9.674125"><ele>60.0</ele><time>2026-04-08T08:46:21.109Z</time></trkpt><trkpt lat="45.0386167" lon="9.674045"><ele>60.0</ele><time>2026-04-08T08:46:22.109Z</time></trkpt><trkpt lat="45.03855" lon="9.67396"><ele>60.0</ele><time>2026-04-08T08:46:23.108Z</time></trkpt><trkpt lat="45.0384767" lon="9.673865"><ele>60.0</ele><time>2026-04-08T08:46:24.109Z</time></trkpt><trkpt lat="45.0384" lon="9.6737567"><ele>60.0</ele><time>2026-04-08T08:46:25.109Z</time></trkpt><trkpt lat="45.038315" lon="9.67364"><ele>60.0</ele><time>2026-04-08T08:46:26.109Z</time></trkpt><trkpt lat="45.0382283" lon="9.6735183"><ele>60.0</ele><time>2026-04-08T08:46:27.108Z</time></trkpt><trkpt lat="45.0381417" lon="9.6733983"><ele>60.0</ele><time>2026-04-08T08:46:28.108Z</time></trkpt><trkpt lat="45.0380633" lon="9.6732883"><ele>60.0</ele><time>2026-04-08T08:46:29.109Z</time></trkpt><trkpt lat="45.0379983" lon="9.6731933"><ele>60.0</ele><time>2026-04-08T08:46:30.108Z</time></trkpt><trkpt lat="45.0379417" lon="9.6731133"><ele>60.0</ele><time>2026-04-08T08:46:31.108Z</time></trkpt><trkpt lat="45.0378917" lon="9.6730467"><ele>60.0</ele><time>2026-04-08T08:46:32.109Z</time></trkpt><trkpt lat="45.037815" lon="9.6729417"><ele>60.0</ele><time>2026-04-08T08:46:34.109Z</time></trkpt><trkpt lat="45.0377467" lon="9.672845"><ele>60.0</ele><time>2026-04-08T08:46:37.109Z</time></trkpt><trkpt lat="45.0376933" lon="9.6727117"><ele>60.0</ele><time>2026-04-08T08:46:39.109Z</time></trkpt><trkpt lat="45.0376183" lon="9.6725817"><ele>60.0</ele><time>2026-04-08T08:46:41.108Z</time></trkpt><trkpt lat="45.03756" lon="9.6725333"><ele>60.0</ele><time>2026-04-08T08:46:42.109Z</time></trkpt><trkpt lat="45.0375" lon="9.6724817"><ele>60.0</ele><time>2026-04-08T08:46:43.108Z</time></trkpt><trkpt lat="45.0374383" lon="9.672425"><ele>60.0</ele><time>2026-04-08T08:46:44.109Z</time></trkpt><trkpt lat="45.0373817" lon="9.6723533"><ele>60.0</ele><time>2026-04-08T08:46:45.108Z</time></trkpt><trkpt lat="45.0373217" lon="9.672275"><ele>60.2</ele><time>2026-04-08T08:46:46.109Z</time></trkpt><trkpt lat="45.0372567" lon="9.6721817"><ele>60.4</ele><time>2026-04-08T08:46:47.109Z</time></trkpt><trkpt lat="45.0371883" lon="9.6720833"><ele>60.599999999999994</ele><time>2026-04-08T08:46:48.109Z</time></trkpt><trkpt lat="45.0371167" lon="9.6719817"><ele>60.8</ele><time>2026-04-08T08:46:49.109Z</time></trkpt><trkpt lat="45.037045" lon="9.6718767"><ele>61.0</ele><time>2026-04-08T08:46:50.109Z</time></trkpt><trkpt lat="45.0369733" lon="9.6717717"><ele>61.0</ele><time>2026-04-08T08:46:51.109Z</time></trkpt><trkpt lat="45.0369017" lon="9.6716633"><ele>61.0</ele><time>2026-04-08T08:46:52.109Z</time></trkpt><trkpt lat="45.0368183" lon="9.6715467"><ele>61.0</ele><time>2026-04-08T08:46:53.109Z</time></trkpt><trkpt lat="45.0367233" lon="9.671415"><ele>61.0</ele><time>2026-04-08T08:46:54.109Z</time></trkpt><trkpt lat="45.0366167" lon="9.6712667"><ele>61.33333333333333</ele><time>2026-04-08T08:46:55.109Z</time></trkpt><trkpt lat="45.0364983" lon="9.6710983"><ele>61.66666666666667</ele><time>2026-04-08T08:46:56.109Z</time></trkpt><trkpt lat="45.0363733" lon="9.67092"><ele>62.0</ele><time>2026-04-08T08:46:57.109Z</time></trkpt><trkpt lat="45.03625" lon="9.6707467"><ele>62.0</ele><time>2026-04-08T08:46:58.109Z</time></trkpt><trkpt lat="45.0361367" lon="9.670585"><ele>62.0</ele><time>2026-04-08T08:46:59.109Z</time></trkpt><trkpt lat="45.0360317" lon="9.670425"><ele>62.0</ele><time>2026-04-08T08:47:00.109Z</time></trkpt><trkpt lat="45.035925" lon="9.6702867"><ele>62.0</ele><time>2026-04-08T08:47:01.109Z</time></trkpt><trkpt lat="45.0358333" lon="9.670155"><ele>62.0</ele><time>2026-04-08T08:47:02.108Z</time></trkpt><trkpt lat="45.0357467" lon="9.6700333"><ele>62.0</ele><time>2026-04-08T08:47:03.109Z</time></trkpt><trkpt lat="45.03567" lon="9.6699"><ele>62.0</ele><time>2026-04-08T08:47:04.109Z</time></trkpt><trkpt lat="45.0355867" lon="9.6697767"><ele>62.400000000000006</ele><time>2026-04-08T08:47:05.108Z</time></trkpt><trkpt lat="45.0355017" lon="9.66966"><ele>62.800000000000004</ele><time>2026-04-08T08:47:06.109Z</time></trkpt><trkpt lat="45.0354233" lon="9.6695483"><ele>63.2</ele><time>2026-04-08T08:47:07.109Z</time></trkpt><trkpt lat="45.0353517" lon="9.6694367"><ele>63.6</ele><time>2026-04-08T08:47:08.109Z</time></trkpt><trkpt lat="45.0352817" lon="9.6693317"><ele>64.0</ele><time>2026-04-08T08:47:09.109Z</time></trkpt><trkpt lat="45.035215" lon="9.669235"><ele>64.5</ele><time>2026-04-08T08:47:10.109Z</time></trkpt><trkpt lat="45.0351567" lon="9.6691383"><ele>65.0</ele><time>2026-04-08T08:47:11.109Z</time></trkpt><trkpt lat="45.0351" lon="9.669035"><ele>65.5</ele><time>2026-04-08T08:47:12.109Z</time></trkpt><trkpt lat="45.0350683" lon="9.66891"><ele>66.0</ele><time>2026-04-08T08:47:13.109Z</time></trkpt><trkpt lat="45.0350433" lon="9.668795"><ele>66.5</ele><time>2026-04-08T08:47:14.109Z</time></trkpt><trkpt lat="45.0350083" lon="9.668695"><ele>67.0</ele><time>2026-04-08T08:47:15.109Z</time></trkpt><trkpt lat="45.0349633" lon="9.66861"><ele>67.0</ele><time>2026-04-08T08:47:16.108Z</time></trkpt><trkpt lat="45.0349133" lon="9.6685367"><ele>67.0</ele><time>2026-04-08T08:47:17.109Z</time></trkpt><trkpt lat="45.0348317" lon="9.6685033"><ele>67.0</ele><time>2026-04-08T08:47:18.109Z</time></trkpt><trkpt lat="45.0347467" lon="9.66846"><ele>67.0</ele><time>2026-04-08T08:47:19.109Z</time></trkpt><trkpt lat="45.03466" lon="9.668395"><ele>67.0</ele><time>2026-04-08T08:47:20.109Z</time></trkpt><trkpt lat="45.0345817" lon="9.6683"><ele>67.0</ele><time>2026-04-08T08:47:21.109Z</time></trkpt><trkpt lat="45.0345017" lon="9.6681983"><ele>67.0</ele><time>2026-04-08T08:47:22.109Z</time></trkpt><trkpt lat="45.03442" lon="9.66809"><ele>67.0</ele><time>2026-04-08T08:47:23.109Z</time></trkpt><trkpt lat="45.034335" lon="9.6679783"><ele>67.0</ele><time>2026-04-08T08:47:24.109Z</time></trkpt><trkpt lat="45.0342567" lon="9.6678683"><ele>67.0</ele><time>2026-04-08T08:47:25.109Z</time></trkpt><trkpt lat="45.0341817" lon="9.6677633"><ele>67.0</ele><time>2026-04-08T08:47:26.109Z</time></trkpt><trkpt lat="45.0341067" lon="9.66766"><ele>67.5</ele><time>2026-04-08T08:47:27.109Z</time></trkpt><trkpt lat="45.0340283" lon="9.66755"><ele>68.0</ele><time>2026-04-08T08:47:28.108Z</time></trkpt><trkpt lat="45.0339383" lon="9.667435"><ele>68.5</ele><time>2026-04-08T08:47:29.109Z</time></trkpt><trkpt lat="45.0338433" lon="9.6673117"><ele>69.0</ele><time>2026-04-08T08:47:30.109Z</time></trkpt><trkpt lat="45.0337483" lon="9.6671883"><ele>69.0</ele><time>2026-04-08T08:47:31.109Z</time></trkpt><trkpt lat="45.0336517" lon="9.6670583"><ele>69.0</ele><time>2026-04-08T08:47:32.109Z</time></trkpt><trkpt lat="45.0335567" lon="9.6669233"><ele>69.0</ele><time>2026-04-08T08:47:33.109Z</time></trkpt><trkpt lat="45.03346" lon="9.66679"><ele>69.0</ele><time>2026-04-08T08:47:34.109Z</time></trkpt><trkpt lat="45.033365" lon="9.666655"><ele>68.75</ele><time>2026-04-08T08:47:35.109Z</time></trkpt><trkpt lat="45.0332717" lon="9.6665167"><ele>68.5</ele><time>2026-04-08T08:47:36.108Z</time></trkpt><trkpt lat="45.0331767" lon="9.6663767"><ele>68.25</ele><time>2026-04-08T08:47:37.109Z</time></trkpt><trkpt lat="45.0330767" lon="9.6662333"><ele>68.0</ele><time>2026-04-08T08:47:38.109Z</time></trkpt><trkpt lat="45.0329767" lon="9.6660933"><ele>68.0</ele><time>2026-04-08T08:47:39.109Z</time></trkpt><trkpt lat="45.0328767" lon="9.6659533"><ele>68.0</ele><time>2026-04-08T08:47:40.108Z</time></trkpt><trkpt lat="45.03277" lon="9.665815"><ele>68.0</ele><time>2026-04-08T08:47:41.109Z</time></trkpt><trkpt lat="45.032665" lon="9.6656717"><ele>68.0</ele><time>2026-04-08T08:47:42.108Z</time></trkpt><trkpt lat="45.0325583" lon="9.665525"><ele>66.66666666666667</ele><time>2026-04-08T08:47:43.108Z</time></trkpt><trkpt lat="45.03245" lon="9.6653767"><ele>65.33333333333333</ele><time>2026-04-08T08:47:44.109Z</time></trkpt><trkpt lat="45.0323433" lon="9.6652233"><ele>64.0</ele><time>2026-04-08T08:47:45.109Z</time></trkpt><trkpt lat="45.0322383" lon="9.665065"><ele>64.0</ele><time>2026-04-08T08:47:46.109Z</time></trkpt><trkpt lat="45.032125" lon="9.6649083"><ele>64.0</ele><time>2026-04-08T08:47:47.109Z</time></trkpt><trkpt lat="45.0320117" lon="9.664755"><ele>64.0</ele><time>2026-04-08T08:47:48.108Z</time></trkpt><trkpt lat="45.031895" lon="9.6646067"><ele>64.0</ele><time>2026-04-08T08:47:49.109Z</time></trkpt><trkpt lat="45.03178" lon="9.664455"><ele>64.0</ele><time>2026-04-08T08:47:50.109Z</time></trkpt><trkpt lat="45.03166" lon="9.6642967"><ele>64.0</ele><time>2026-04-08T08:47:51.109Z</time></trkpt><trkpt lat="45.0315383" lon="9.66413"><ele>66.33333333333333</ele><time>2026-04-08T08:47:52.109Z</time></trkpt><trkpt lat="45.0314117" lon="9.6639633"><ele>68.66666666666667</ele><time>2026-04-08T08:47:53.109Z</time></trkpt><trkpt lat="45.03129" lon="9.663795"><ele>71.0</ele><time>2026-04-08T08:47:54.109Z</time></trkpt><trkpt lat="45.0311667" lon="9.6636317"><ele>70.66666666666667</ele><time>2026-04-08T08:47:55.109Z</time></trkpt><trkpt lat="45.031045" lon="9.6634633"><ele>70.33333333333333</ele><time>2026-04-08T08:47:56.109Z</time></trkpt><trkpt lat="45.030925" lon="9.6632917"><ele>70.0</ele><time>2026-04-08T08:47:57.109Z</time></trkpt><trkpt lat="45.030805" lon="9.6631283"><ele>69.66666666666666</ele><time>2026-04-08T08:47:58.109Z</time></trkpt><trkpt lat="45.0306833" lon="9.6629633"><ele>69.33333333333333</ele><time>2026-04-08T08:47:59.109Z</time></trkpt><trkpt lat="45.03056" lon="9.6627933"><ele>69.0</ele><time>2026-04-08T08:48:00.109Z</time></trkpt><trkpt lat="45.03044" lon="9.66261"><ele>69.0</ele><time>2026-04-08T08:48:01.109Z</time></trkpt><trkpt lat="45.0303133" lon="9.6624283"><ele>69.0</ele><time>2026-04-08T08:48:02.109Z</time></trkpt><trkpt lat="45.0301833" lon="9.6622517"><ele>69.0</ele><time>2026-04-08T08:48:03.109Z</time></trkpt><trkpt lat="45.0300617" lon="9.6620667"><ele>69.33333333333333</ele><time>2026-04-08T08:48:04.109Z</time></trkpt><trkpt lat="45.029935" lon="9.6618817"><ele>69.66666666666666</ele><time>2026-04-08T08:48:05.109Z</time></trkpt><trkpt lat="45.0298083" lon="9.6616917"><ele>70.0</ele><time>2026-04-08T08:48:06.109Z</time></trkpt><trkpt lat="45.0296667" lon="9.6615067"><ele>70.0</ele><time>2026-04-08T08:48:07.109Z</time></trkpt><trkpt lat="45.0295233" lon="9.6612967"><ele>70.0</ele><time>2026-04-08T08:48:08.108Z</time></trkpt><trkpt lat="45.0293567" lon="9.661065"><ele>70.0</ele><time>2026-04-08T08:48:09.109Z</time></trkpt><trkpt lat="45.0291767" lon="9.6608233"><ele>69.0</ele><time>2026-04-08T08:48:10.109Z</time></trkpt><trkpt lat="45.0289983" lon="9.66058"><ele>68.0</ele><time>2026-04-08T08:48:11.109Z</time></trkpt><trkpt lat="45.0288333" lon="9.6603183"><ele>69.0</ele><time>2026-04-08T08:48:12.109Z</time></trkpt><trkpt lat="45.0286767" lon="9.660065"><ele>70.0</ele><time>2026-04-08T08:48:13.109Z</time></trkpt><trkpt lat="45.0285083" lon="9.6598283"><ele>70.0</ele><time>2026-04-08T08:48:14.109Z</time></trkpt><trkpt lat="45.02834" lon="9.659585"><ele>70.0</ele><time>2026-04-08T08:48:15.109Z</time></trkpt><trkpt lat="45.028175" lon="9.6593483"><ele>69.66666666666666</ele><time>2026-04-08T08:48:16.108Z</time></trkpt><trkpt lat="45.0280017" lon="9.65914"><ele>69.33333333333333</ele><time>2026-04-08T08:48:17.109Z</time></trkpt><trkpt lat="45.0278633" lon="9.65891"><ele>69.0</ele><time>2026-04-08T08:48:18.109Z</time></trkpt><trkpt lat="45.0277217" lon="9.658715"><ele>68.33333333333333</ele><time>2026-04-08T08:48:19.109Z</time></trkpt><trkpt lat="45.027595" lon="9.6585233"><ele>67.66666666666666</ele><time>2026-04-08T08:48:20.109Z</time></trkpt><trkpt lat="45.02746" lon="9.6583483"><ele>67.0</ele><time>2026-04-08T08:48:21.109Z</time></trkpt><trkpt lat="45.0273383" lon="9.6581733"><ele>67.0</ele><time>2026-04-08T08:48:22.109Z</time></trkpt><trkpt lat="45.0272117" lon="9.6580133"><ele>67.0</ele><time>2026-04-08T08:48:23.109Z</time></trkpt><trkpt lat="45.0270967" lon="9.657835"><ele>67.0</ele><time>2026-04-08T08:48:24.109Z</time></trkpt><trkpt lat="45.0269733" lon="9.6576617"><ele>67.0</ele><time>2026-04-08T08:48:25.109Z</time></trkpt><trkpt lat="45.0268533" lon="9.6574933"><ele>67.0</ele><time>2026-04-08T08:48:26.109Z</time></trkpt><trkpt lat="45.0267367" lon="9.6573267"><ele>67.0</ele><time>2026-04-08T08:48:27.109Z</time></trkpt><trkpt lat="45.0266217" lon="9.657165"><ele>67.33333333333333</ele><time>2026-04-08T08:48:28.109Z</time></trkpt><trkpt lat="45.02651" lon="9.6570017"><ele>67.66666666666667</ele><time>2026-04-08T08:48:29.109Z</time></trkpt><trkpt lat="45.0263983" lon="9.65684"><ele>68.0</ele><time>2026-04-08T08:48:30.109Z</time></trkpt><trkpt lat="45.0262867" lon="9.656685"><ele>69.0</ele><time>2026-04-08T08:48:31.109Z</time></trkpt><trkpt lat="45.02618" lon="9.65653"><ele>70.0</ele><time>2026-04-08T08:48:32.108Z</time></trkpt><trkpt lat="45.0260767" lon="9.6563783"><ele>71.0</ele><time>2026-04-08T08:48:33.109Z</time></trkpt><trkpt lat="45.025975" lon="9.656225"><ele>70.75</ele><time>2026-04-08T08:48:34.109Z</time></trkpt><trkpt lat="45.025875" lon="9.6560767"><ele>70.5</ele><time>2026-04-08T08:48:35.109Z</time></trkpt><trkpt lat="45.0257717" lon="9.6559317"><ele>70.25</ele><time>2026-04-08T08:48:36.108Z</time></trkpt><trkpt lat="45.0256633" lon="9.6557867"><ele>70.0</ele><time>2026-04-08T08:48:37.109Z</time></trkpt><trkpt lat="45.0255633" lon="9.6556217"><ele>70.0</ele><time>2026-04-08T08:48:38.109Z</time></trkpt><trkpt lat="45.0254467" lon="9.6554717"><ele>70.0</ele><time>2026-04-08T08:48:39.109Z</time></trkpt><trkpt lat="45.0253417" lon="9.655315"><ele>70.0</ele><time>2026-04-08T08:48:40.109Z</time></trkpt><trkpt lat="45.025235" lon="9.6551617"><ele>70.66666666666666</ele><time>2026-04-08T08:48:41.109Z</time></trkpt><trkpt lat="45.02513" lon="9.6550067"><ele>71.33333333333333</ele><time>2026-04-08T08:48:42.109Z</time></trkpt><trkpt lat="45.0250217" lon="9.6548583"><ele>72.0</ele><time>2026-04-08T08:48:43.109Z</time></trkpt><trkpt lat="45.0249117" lon="9.6547117"><ele>72.0</ele><time>2026-04-08T08:48:44.109Z</time></trkpt><trkpt lat="45.0248" lon="9.6545617"><ele>72.0</ele><time>2026-04-08T08:48:45.109Z</time></trkpt><trkpt lat="45.0246867" lon="9.6544067"><ele>72.0</ele><time>2026-04-08T08:48:46.109Z</time></trkpt><trkpt lat="45.0245683" lon="9.6542483"><ele>72.66666666666667</ele><time>2026-04-08T08:48:47.108Z</time></trkpt><trkpt lat="45.0244483" lon="9.6540783"><ele>73.33333333333334</ele><time>2026-04-08T08:48:48.109Z</time></trkpt><trkpt lat="45.0243317" lon="9.6539033"><ele>74.0</ele><time>2026-04-08T08:48:49.109Z</time></trkpt><trkpt lat="45.02421" lon="9.6537333"><ele>73.0</ele><time>2026-04-08T08:48:50.108Z</time></trkpt><trkpt lat="45.02409" lon="9.6535433"><ele>72.0</ele><time>2026-04-08T08:48:51.109Z</time></trkpt><trkpt lat="45.0239567" lon="9.6533417"><ele>71.0</ele><time>2026-04-08T08:48:52.108Z</time></trkpt><trkpt lat="45.023805" lon="9.653125"><ele>71.0</ele><time>2026-04-08T08:48:53.109Z</time></trkpt><trkpt lat="45.02365" lon="9.6528717"><ele>71.0</ele><time>2026-04-08T08:48:54.108Z</time></trkpt><trkpt lat="45.02346" lon="9.6526217"><ele>72.0</ele><time>2026-04-08T08:48:55.109Z</time></trkpt><trkpt lat="45.023275" lon="9.6523333"><ele>73.0</ele><time>2026-04-08T08:48:56.109Z</time></trkpt><trkpt lat="45.0230717" lon="9.6520217"><ele>73.5</ele><time>2026-04-08T08:48:57.109Z</time></trkpt><trkpt lat="45.0228283" lon="9.65174"><ele>74.0</ele><time>2026-04-08T08:48:58.109Z</time></trkpt><trkpt lat="45.02261" lon="9.65142"><ele>73.0</ele><time>2026-04-08T08:48:59.108Z</time></trkpt><trkpt lat="45.02238" lon="9.65109"><ele>72.0</ele><time>2026-04-08T08:49:00.108Z</time></trkpt><trkpt lat="45.0221433" lon="9.6507567"><ele>72.0</ele><time>2026-04-08T08:49:01.109Z</time></trkpt><trkpt lat="45.02189" lon="9.6504283"><ele>72.0</ele><time>2026-04-08T08:49:02.109Z</time></trkpt><trkpt lat="45.0216383" lon="9.6501017"><ele>73.0</ele><time>2026-04-08T08:49:03.109Z</time></trkpt><trkpt lat="45.0213883" lon="9.6497767"><ele>74.0</ele><time>2026-04-08T08:49:04.109Z</time></trkpt><trkpt lat="45.0211517" lon="9.6494233"><ele>74.0</ele><time>2026-04-08T08:49:05.109Z</time></trkpt><trkpt lat="45.0209033" lon="9.649085"><ele>74.0</ele><time>2026-04-08T08:49:06.108Z</time></trkpt><trkpt lat="45.0206583" lon="9.648745"><ele>75.0</ele><time>2026-04-08T08:49:07.109Z</time></trkpt><trkpt lat="45.020425" lon="9.6484117"><ele>76.0</ele><time>2026-04-08T08:49:08.109Z</time></trkpt><trkpt lat="45.020205" lon="9.6481"><ele>76.0</ele><time>2026-04-08T08:49:09.109Z</time></trkpt><trkpt lat="45.02" lon="9.6478117"><ele>76.0</ele><time>2026-04-08T08:49:10.108Z</time></trkpt><trkpt lat="45.019805" lon="9.647545"><ele>75.5</ele><time>2026-04-08T08:49:11.109Z</time></trkpt><trkpt lat="45.0196217" lon="9.647285"><ele>75.0</ele><time>2026-04-08T08:49:12.109Z</time></trkpt><trkpt lat="45.0194467" lon="9.6470333"><ele>74.5</ele><time>2026-04-08T08:49:13.108Z</time></trkpt><trkpt lat="45.0192733" lon="9.646795"><ele>74.0</ele><time>2026-04-08T08:49:14.109Z</time></trkpt><trkpt lat="45.01911" lon="9.6465567"><ele>74.0</ele><time>2026-04-08T08:49:15.109Z</time></trkpt><trkpt lat="45.0189467" lon="9.64633"><ele>74.0</ele><time>2026-04-08T08:49:16.109Z</time></trkpt><trkpt lat="45.0188" lon="9.6461"><ele>74.0</ele><time>2026-04-08T08:49:17.109Z</time></trkpt><trkpt lat="45.01866" lon="9.6458867"><ele>74.0</ele><time>2026-04-08T08:49:18.109Z</time></trkpt><trkpt lat="45.01852" lon="9.6456983"><ele>74.0</ele><time>2026-04-08T08:49:19.109Z</time></trkpt><trkpt lat="45.0183917" lon="9.6455183"><ele>74.0</ele><time>2026-04-08T08:49:20.109Z</time></trkpt><trkpt lat="45.0182717" lon="9.64535"><ele>73.33333333333334</ele><time>2026-04-08T08:49:21.109Z</time></trkpt><trkpt lat="45.01816" lon="9.6451933"><ele>72.66666666666667</ele><time>2026-04-08T08:49:22.108Z</time></trkpt><trkpt lat="45.0180517" lon="9.64505"><ele>72.0</ele><time>2026-04-08T08:49:23.109Z</time></trkpt><trkpt lat="45.0179433" lon="9.6449"><ele>72.0</ele><time>2026-04-08T08:49:24.109Z</time></trkpt><trkpt lat="45.01783" lon="9.6447433"><ele>72.0</ele><time>2026-04-08T08:49:25.109Z</time></trkpt><trkpt lat="45.0177033" lon="9.6445767"><ele>72.0</ele><time>2026-04-08T08:49:26.108Z</time></trkpt><trkpt lat="45.017575" lon="9.6444033"><ele>72.33333333333333</ele><time>2026-04-08T08:49:27.109Z</time></trkpt><trkpt lat="45.017455" lon="9.64423"><ele>72.66666666666666</ele><time>2026-04-08T08:49:28.109Z</time></trkpt><trkpt lat="45.0173417" lon="9.6440567"><ele>73.0</ele><time>2026-04-08T08:49:29.109Z</time></trkpt><trkpt lat="45.0172317" lon="9.643905"><ele>73.0</ele><time>2026-04-08T08:49:30.108Z</time></trkpt><trkpt lat="45.017125" lon="9.64376"><ele>73.0</ele><time>2026-04-08T08:49:31.108Z</time></trkpt><trkpt lat="45.017025" lon="9.6436133"><ele>73.0</ele><time>2026-04-08T08:49:32.109Z</time></trkpt><trkpt lat="45.0169217" lon="9.6434717"><ele>73.0</ele><time>2026-04-08T08:49:33.109Z</time></trkpt><trkpt lat="45.016825" lon="9.643325"><ele>74.0</ele><time>2026-04-08T08:49:34.108Z</time></trkpt><trkpt lat="45.016705" lon="9.64318"><ele>75.0</ele><time>2026-04-08T08:49:35.109Z</time></trkpt><trkpt lat="45.0165783" lon="9.642995"><ele>76.0</ele><time>2026-04-08T08:49:36.109Z</time></trkpt><trkpt lat="45.0164183" lon="9.64281"><ele>76.33333333333333</ele><time>2026-04-08T08:49:37.108Z</time></trkpt><trkpt lat="45.0162633" lon="9.64258"><ele>76.66666666666667</ele><time>2026-04-08T08:49:38.108Z</time></trkpt><trkpt lat="45.01611" lon="9.64235"><ele>77.0</ele><time>2026-04-08T08:49:39.108Z</time></trkpt><trkpt lat="45.0159583" lon="9.6421317"><ele>76.66666666666667</ele><time>2026-04-08T08:49:40.109Z</time></trkpt><trkpt lat="45.0158017" lon="9.641925"><ele>76.33333333333333</ele><time>2026-04-08T08:49:41.108Z</time></trkpt><trkpt lat="45.01565" lon="9.6417083"><ele>76.0</ele><time>2026-04-08T08:49:42.109Z</time></trkpt><trkpt lat="45.01548" lon="9.641485"><ele>76.0</ele><time>2026-04-08T08:49:43.109Z</time></trkpt><trkpt lat="45.01531" lon="9.6412383"><ele>76.0</ele><time>2026-04-08T08:49:44.108Z</time></trkpt><trkpt lat="45.01511" lon="9.6409883"><ele>77.5</ele><time>2026-04-08T08:49:45.109Z</time></trkpt><trkpt lat="45.0149217" lon="9.6406967"><ele>79.0</ele><time>2026-04-08T08:49:46.108Z</time></trkpt><trkpt lat="45.0147267" lon="9.640415"><ele>79.5</ele><time>2026-04-08T08:49:47.109Z</time></trkpt><trkpt lat="45.0145417" lon="9.6401533"><ele>80.0</ele><time>2026-04-08T08:49:48.109Z</time></trkpt><trkpt lat="45.0143717" lon="9.6399033"><ele>80.0</ele><time>2026-04-08T08:49:49.108Z</time></trkpt><trkpt lat="45.0142133" lon="9.6396633"><ele>80.0</ele><time>2026-04-08T08:49:50.109Z</time></trkpt><trkpt lat="45.0140583" lon="9.6394483"><ele>80.0</ele><time>2026-04-08T08:49:51.109Z</time></trkpt><trkpt lat="45.01391" lon="9.6392367"><ele>79.66666666666667</ele><time>2026-04-08T08:49:52.109Z</time></trkpt><trkpt lat="45.01376" lon="9.639035"><ele>79.33333333333333</ele><time>2026-04-08T08:49:53.109Z</time></trkpt><trkpt lat="45.01361" lon="9.6388333"><ele>79.0</ele><time>2026-04-08T08:49:54.109Z</time></trkpt><trkpt lat="45.01346" lon="9.6386217"><ele>80.0</ele><time>2026-04-08T08:49:55.109Z</time></trkpt><trkpt lat="45.0132983" lon="9.6383917"><ele>81.0</ele><time>2026-04-08T08:49:56.109Z</time></trkpt><trkpt lat="45.0131367" lon="9.6381333"><ele>81.0</ele><time>2026-04-08T08:49:57.109Z</time></trkpt><trkpt lat="45.012925" lon="9.6378967"><ele>81.0</ele><time>2026-04-08T08:49:58.109Z</time></trkpt><trkpt lat="45.0127533" lon="9.63757"><ele>81.0</ele><time>2026-04-08T08:49:59.109Z</time></trkpt><trkpt lat="45.0125383" lon="9.63726"><ele>81.0</ele><time>2026-04-08T08:50:00.109Z</time></trkpt><trkpt lat="45.0123167" lon="9.636935"><ele>81.0</ele><time>2026-04-08T08:50:01.109Z</time></trkpt><trkpt lat="45.012095" lon="9.6365967"><ele>81.0</ele><time>2026-04-08T08:50:02.109Z</time></trkpt><trkpt lat="45.011865" lon="9.6362533"><ele>81.5</ele><time>2026-04-08T08:50:03.109Z</time></trkpt><trkpt lat="45.0116217" lon="9.63592"><ele>82.0</ele><time>2026-04-08T08:50:04.109Z</time></trkpt><trkpt lat="45.011395" lon="9.6355883"><ele>82.0</ele><time>2026-04-08T08:50:05.108Z</time></trkpt><trkpt lat="45.0111733" lon="9.6352783"><ele>82.0</ele><time>2026-04-08T08:50:06.109Z</time></trkpt><trkpt lat="45.0109567" lon="9.6349717"><ele>81.5</ele><time>2026-04-08T08:50:07.109Z</time></trkpt><trkpt lat="45.0107483" lon="9.63467"><ele>81.0</ele><time>2026-04-08T08:50:08.109Z</time></trkpt><trkpt lat="45.01054" lon="9.6343767"><ele>81.0</ele><time>2026-04-08T08:50:09.109Z</time></trkpt><trkpt lat="45.0103317" lon="9.63409"><ele>81.0</ele><time>2026-04-08T08:50:10.109Z</time></trkpt><trkpt lat="45.0101333" lon="9.6338"><ele>82.0</ele><time>2026-04-08T08:50:11.108Z</time></trkpt><trkpt lat="45.0099317" lon="9.6335167"><ele>83.0</ele><time>2026-04-08T08:50:12.109Z</time></trkpt><trkpt lat="45.0097333" lon="9.6332367"><ele>83.0</ele><time>2026-04-08T08:50:13.109Z</time></trkpt><trkpt lat="45.0095367" lon="9.632965"><ele>83.0</ele><time>2026-04-08T08:50:14.109Z</time></trkpt><trkpt lat="45.009345" lon="9.632695"><ele>83.0</ele><time>2026-04-08T08:50:15.109Z</time></trkpt><trkpt lat="45.0091533" lon="9.6324333"><ele>83.0</ele><time>2026-04-08T08:50:16.109Z</time></trkpt><trkpt lat="45.0089683" lon="9.6321717"><ele>81.5</ele><time>2026-04-08T08:50:17.108Z</time></trkpt><trkpt lat="45.0087867" lon="9.6319117"><ele>80.0</ele><time>2026-04-08T08:50:18.109Z</time></trkpt><trkpt lat="45.0086083" lon="9.6316517"><ele>80.0</ele><time>2026-04-08T08:50:19.109Z</time></trkpt><trkpt lat="45.0084283" lon="9.63139"><ele>80.0</ele><time>2026-04-08T08:50:20.109Z</time></trkpt><trkpt lat="45.0080633" lon="9.6308767"><ele>80.5</ele><time>2026-04-08T08:50:22.109Z</time></trkpt><trkpt lat="45.007885" lon="9.630615"><ele>81.0</ele><time>2026-04-08T08:50:23.108Z</time></trkpt><trkpt lat="45.0076933" lon="9.63039"><ele>80.5</ele><time>2026-04-08T08:50:24.109Z</time></trkpt><trkpt lat="45.0075383" lon="9.6301467"><ele>80.0</ele><time>2026-04-08T08:50:25.109Z</time></trkpt><trkpt lat="45.0073817" lon="9.62992"><ele>81.0</ele><time>2026-04-08T08:50:26.109Z</time></trkpt><trkpt lat="45.00723" lon="9.6297167"><ele>82.0</ele><time>2026-04-08T08:50:27.109Z</time></trkpt><trkpt lat="45.0070917" lon="9.6295267"><ele>83.0</ele><time>2026-04-08T08:50:28.109Z</time></trkpt><trkpt lat="45.0069617" lon="9.6293517"><ele>83.0</ele><time>2026-04-08T08:50:29.109Z</time></trkpt><trkpt lat="45.0068383" lon="9.629195"><ele>83.0</ele><time>2026-04-08T08:50:30.109Z</time></trkpt><trkpt lat="45.0067183" lon="9.6290567"><ele>83.0</ele><time>2026-04-08T08:50:31.109Z</time></trkpt><trkpt lat="45.006605" lon="9.6289383"><ele>83.0</ele><time>2026-04-08T08:50:32.109Z</time></trkpt><trkpt lat="45.0065" lon="9.6288367"><ele>83.0</ele><time>2026-04-08T08:50:33.109Z</time></trkpt><trkpt lat="45.0064067" lon="9.6287467"><ele>83.0</ele><time>2026-04-08T08:50:34.109Z</time></trkpt><trkpt lat="45.0063283" lon="9.6286633"><ele>83.0</ele><time>2026-04-08T08:50:35.109Z</time></trkpt><trkpt lat="45.006265" lon="9.6285767"><ele>83.0</ele><time>2026-04-08T08:50:36.109Z</time></trkpt><trkpt lat="45.0062" lon="9.6285067"><ele>83.0</ele><time>2026-04-08T08:50:37.109Z</time></trkpt><trkpt lat="45.006125" lon="9.62847"><ele>83.0</ele><time>2026-04-08T08:50:38.109Z</time></trkpt><trkpt lat="45.0060417" lon="9.6284667"><ele>83.0</ele><time>2026-04-08T08:50:39.109Z</time></trkpt><trkpt lat="45.0059383" lon="9.628465"><ele>83.0</ele><time>2026-04-08T08:50:40.109Z</time></trkpt><trkpt lat="45.0058283" lon="9.6284317"><ele>83.0</ele><time>2026-04-08T08:50:41.109Z</time></trkpt><trkpt lat="45.005705" lon="9.6283767"><ele>82.25</ele><time>2026-04-08T08:50:42.109Z</time></trkpt><trkpt lat="45.0055783" lon="9.6283133"><ele>81.5</ele><time>2026-04-08T08:50:43.108Z</time></trkpt><trkpt lat="45.00544" lon="9.6282367"><ele>80.75</ele><time>2026-04-08T08:50:44.109Z</time></trkpt><trkpt lat="45.0052967" lon="9.6281533"><ele>80.0</ele><time>2026-04-08T08:50:45.108Z</time></trkpt><trkpt lat="45.0051433" lon="9.6280633"><ele>80.66666666666667</ele><time>2026-04-08T08:50:46.109Z</time></trkpt><trkpt lat="45.0049833" lon="9.6279633"><ele>81.33333333333333</ele><time>2026-04-08T08:50:47.109Z</time></trkpt><trkpt lat="45.0048217" lon="9.6278433"><ele>82.0</ele><time>2026-04-08T08:50:48.109Z</time></trkpt><trkpt lat="45.0046567" lon="9.6277167"><ele>82.66666666666666</ele><time>2026-04-08T08:50:49.109Z</time></trkpt><trkpt lat="45.0044917" lon="9.6275733"><ele>83.33333333333333</ele><time>2026-04-08T08:50:50.109Z</time></trkpt><trkpt lat="45.0043283" lon="9.62741"><ele>84.0</ele><time>2026-04-08T08:50:51.109Z</time></trkpt><trkpt lat="45.004165" lon="9.6272367"><ele>84.33333333333333</ele><time>2026-04-08T08:50:52.108Z</time></trkpt><trkpt lat="45.0040133" lon="9.62704"><ele>84.66666666666666</ele><time>2026-04-08T08:50:53.109Z</time></trkpt><trkpt lat="45.0038683" lon="9.6268317"><ele>85.0</ele><time>2026-04-08T08:50:54.109Z</time></trkpt><trkpt lat="45.0037217" lon="9.6266183"><ele>84.66666666666666</ele><time>2026-04-08T08:50:55.109Z</time></trkpt><trkpt lat="45.0035867" lon="9.6263883"><ele>84.33333333333333</ele><time>2026-04-08T08:50:56.109Z</time></trkpt><trkpt lat="45.003445" lon="9.626165"><ele>84.0</ele><time>2026-04-08T08:50:57.109Z</time></trkpt><trkpt lat="45.0033133" lon="9.62594"><ele>84.0</ele><time>2026-04-08T08:50:58.108Z</time></trkpt><trkpt lat="45.003185" lon="9.625725"><ele>84.0</ele><time>2026-04-08T08:50:59.108Z</time></trkpt><trkpt lat="45.0030633" lon="9.6255233"><ele>84.0</ele><time>2026-04-08T08:51:00.109Z</time></trkpt><trkpt lat="45.0029533" lon="9.6253483"><ele>84.5</ele><time>2026-04-08T08:51:01.109Z</time></trkpt><trkpt lat="45.00287" lon="9.6251867"><ele>85.0</ele><time>2026-04-08T08:51:02.109Z</time></trkpt><trkpt lat="45.0028" lon="9.6250367"><ele>85.5</ele><time>2026-04-08T08:51:03.109Z</time></trkpt><trkpt lat="45.002755" lon="9.6248933"><ele>86.0</ele><time>2026-04-08T08:51:04.108Z</time></trkpt><trkpt lat="45.00272" lon="9.6247483"><ele>86.0</ele><time>2026-04-08T08:51:05.108Z</time></trkpt><trkpt lat="45.0026633" lon="9.6246233"><ele>86.0</ele><time>2026-04-08T08:51:06.109Z</time></trkpt><trkpt lat="45.002575" lon="9.6245317"><ele>86.0</ele><time>2026-04-08T08:51:07.109Z</time></trkpt><trkpt lat="45.00247" lon="9.6244467"><ele>86.0</ele><time>2026-04-08T08:51:08.109Z</time></trkpt><trkpt lat="45.0023583" lon="9.6243333"><ele>85.66666666666667</ele><time>2026-04-08T08:51:09.109Z</time></trkpt><trkpt lat="45.0022317" lon="9.6241717"><ele>85.33333333333333</ele><time>2026-04-08T08:51:10.109Z</time></trkpt><trkpt lat="45.0021033" lon="9.6239517"><ele>85.0</ele><time>2026-04-08T08:51:11.109Z</time></trkpt><trkpt lat="45.0019533" lon="9.6237117"><ele>85.0</ele><time>2026-04-08T08:51:12.108Z</time></trkpt><trkpt lat="45.0017917" lon="9.62345"><ele>85.0</ele><time>2026-04-08T08:51:13.108Z</time></trkpt><trkpt lat="45.00162" lon="9.6231667"><ele>85.0</ele><time>2026-04-08T08:51:14.108Z</time></trkpt><trkpt lat="45.0014367" lon="9.622875"><ele>85.0</ele><time>2026-04-08T08:51:15.109Z</time></trkpt><trkpt lat="45.0012483" lon="9.6225667"><ele>85.5</ele><time>2026-04-08T08:51:16.109Z</time></trkpt><trkpt lat="45.0010583" lon="9.6222467"><ele>86.0</ele><time>2026-04-08T08:51:17.109Z</time></trkpt><trkpt lat="45.0008667" lon="9.621915"><ele>86.0</ele><time>2026-04-08T08:51:18.109Z</time></trkpt><trkpt lat="45.0006717" lon="9.6215783"><ele>86.0</ele><time>2026-04-08T08:51:19.108Z</time></trkpt><trkpt lat="45.000465" lon="9.6212517"><ele>86.0</ele><time>2026-04-08T08:51:20.108Z</time></trkpt><trkpt lat="45.0002667" lon="9.620915"><ele>86.0</ele><time>2026-04-08T08:51:21.109Z</time></trkpt><trkpt lat="45.0000683" lon="9.6205817"><ele>86.0</ele><time>2026-04-08T08:51:22.109Z</time></trkpt><trkpt lat="44.9998667" lon="9.6202483"><ele>86.0</ele><time>2026-04-08T08:51:23.109Z</time></trkpt><trkpt lat="44.999665" lon="9.6199167"><ele>86.0</ele><time>2026-04-08T08:51:24.109Z</time></trkpt><trkpt lat="44.9994483" lon="9.6196017"><ele>86.0</ele><time>2026-04-08T08:51:25.109Z</time></trkpt><trkpt lat="44.9992483" lon="9.6192717"><ele>86.0</ele><time>2026-04-08T08:51:26.109Z</time></trkpt><trkpt lat="44.9990117" lon="9.6189883"><ele>86.0</ele><time>2026-04-08T08:51:27.108Z</time></trkpt><trkpt lat="44.9987733" lon="9.6187067"><ele>86.0</ele><time>2026-04-08T08:51:28.109Z</time></trkpt><trkpt lat="44.99853" lon="9.618435"><ele>86.0</ele><time>2026-04-08T08:51:29.109Z</time></trkpt><trkpt lat="44.998285" lon="9.6181683"><ele>85.5</ele><time>2026-04-08T08:51:30.109Z</time></trkpt><trkpt lat="44.9980383" lon="9.61791"><ele>85.0</ele><time>2026-04-08T08:51:31.109Z</time></trkpt><trkpt lat="44.997795" lon="9.6176417"><ele>85.0</ele><time>2026-04-08T08:51:32.11Z</time></trkpt><trkpt lat="44.9975533" lon="9.6173783"><ele>85.0</ele><time>2026-04-08T08:51:33.109Z</time></trkpt><trkpt lat="44.9973133" lon="9.6171183"><ele>86.5</ele><time>2026-04-08T08:51:34.11Z</time></trkpt><trkpt lat="44.9970717" lon="9.6168617"><ele>88.0</ele><time>2026-04-08T08:51:35.109Z</time></trkpt><trkpt lat="44.9968283" lon="9.6166117"><ele>88.5</ele><time>2026-04-08T08:51:36.11Z</time></trkpt><trkpt lat="44.9965867" lon="9.61636"><ele>89.0</ele><time>2026-04-08T08:51:37.11Z</time></trkpt><trkpt lat="44.9963467" lon="9.616105"><ele>89.0</ele><time>2026-04-08T08:51:38.11Z</time></trkpt><trkpt lat="44.996105" lon="9.6158483"><ele>89.0</ele><time>2026-04-08T08:51:39.11Z</time></trkpt><trkpt lat="44.995865" lon="9.615595"><ele>88.5</ele><time>2026-04-08T08:51:40.11Z</time></trkpt><trkpt lat="44.9956233" lon="9.6153467"><ele>88.0</ele><time>2026-04-08T08:51:41.11Z</time></trkpt><trkpt lat="44.9953817" lon="9.6151"><ele>88.0</ele><time>2026-04-08T08:51:42.11Z</time></trkpt><trkpt lat="44.99515" lon="9.61485"><ele>88.0</ele><time>2026-04-08T08:51:43.11Z</time></trkpt><trkpt lat="44.9949167" lon="9.6146083"><ele>87.5</ele><time>2026-04-08T08:51:44.11Z</time></trkpt><trkpt lat="44.9946867" lon="9.6143733"><ele>87.0</ele><time>2026-04-08T08:51:45.11Z</time></trkpt><trkpt lat="44.9944617" lon="9.614135"><ele>87.0</ele><time>2026-04-08T08:51:46.109Z</time></trkpt><trkpt lat="44.9942333" lon="9.613905"><ele>87.0</ele><time>2026-04-08T08:51:47.109Z</time></trkpt><trkpt lat="44.99401" lon="9.6136733"><ele>87.5</ele><time>2026-04-08T08:51:48.11Z</time></trkpt><trkpt lat="44.9937833" lon="9.6134533"><ele>88.0</ele><time>2026-04-08T08:51:49.109Z</time></trkpt><trkpt lat="44.9935567" lon="9.61324"><ele>89.5</ele><time>2026-04-08T08:51:50.11Z</time></trkpt><trkpt lat="44.9933233" lon="9.6130317"><ele>91.0</ele><time>2026-04-08T08:51:51.11Z</time></trkpt><trkpt lat="44.99309" lon="9.6128183"><ele>91.0</ele><time>2026-04-08T08:51:52.11Z</time></trkpt><trkpt lat="44.99285" lon="9.6126083"><ele>91.0</ele><time>2026-04-08T08:51:53.11Z</time></trkpt><trkpt lat="44.9926067" lon="9.6123983"><ele>90.5</ele><time>2026-04-08T08:51:54.11Z</time></trkpt><trkpt lat="44.992365" lon="9.612185"><ele>90.0</ele><time>2026-04-08T08:51:55.11Z</time></trkpt><trkpt lat="44.992125" lon="9.61197"><ele>90.0</ele><time>2026-04-08T08:51:56.11Z</time></trkpt><trkpt lat="44.99188" lon="9.6117583"><ele>90.0</ele><time>2026-04-08T08:51:57.11Z</time></trkpt><trkpt lat="44.991635" lon="9.6115567"><ele>91.5</ele><time>2026-04-08T08:51:58.11Z</time></trkpt><trkpt lat="44.9913967" lon="9.6113667"><ele>93.0</ele><time>2026-04-08T08:51:59.11Z</time></trkpt><trkpt lat="44.9911667" lon="9.6111717"><ele>92.5</ele><time>2026-04-08T08:52:00.11Z</time></trkpt><trkpt lat="44.9909383" lon="9.6109817"><ele>92.0</ele><time>2026-04-08T08:52:01.11Z</time></trkpt><trkpt lat="44.990705" lon="9.6107883"><ele>92.0</ele><time>2026-04-08T08:52:02.11Z</time></trkpt><trkpt lat="44.9904667" lon="9.6105817"><ele>92.0</ele><time>2026-04-08T08:52:03.11Z</time></trkpt><trkpt lat="44.99022" lon="9.61037"><ele>91.5</ele><time>2026-04-08T08:52:04.11Z</time></trkpt><trkpt lat="44.989965" lon="9.6101433"><ele>91.0</ele><time>2026-04-08T08:52:05.109Z</time></trkpt><trkpt lat="44.989705" lon="9.6099167"><ele>91.0</ele><time>2026-04-08T08:52:06.11Z</time></trkpt><trkpt lat="44.9894417" lon="9.60969"><ele>91.0</ele><time>2026-04-08T08:52:07.11Z</time></trkpt><trkpt lat="44.9891933" lon="9.609445"><ele>91.0</ele><time>2026-04-08T08:52:08.11Z</time></trkpt><trkpt lat="44.98895" lon="9.6092067"><ele>91.0</ele><time>2026-04-08T08:52:09.11Z</time></trkpt><trkpt lat="44.9886983" lon="9.6089817"><ele>91.0</ele><time>2026-04-08T08:52:10.11Z</time></trkpt><trkpt lat="44.9884533" lon="9.6087617"><ele>91.0</ele><time>2026-04-08T08:52:11.11Z</time></trkpt><trkpt lat="44.9882133" lon="9.6085467"><ele>92.5</ele><time>2026-04-08T08:52:12.11Z</time></trkpt><trkpt lat="44.9879783" lon="9.6083333"><ele>94.0</ele><time>2026-04-08T08:52:13.11Z</time></trkpt><trkpt lat="44.9877417" lon="9.6081383"><ele>93.5</ele><time>2026-04-08T08:52:14.11Z</time></trkpt><trkpt lat="44.98751" lon="9.6079417"><ele>93.0</ele><time>2026-04-08T08:52:15.11Z</time></trkpt><trkpt lat="44.987275" lon="9.60777"><ele>93.0</ele><time>2026-04-08T08:52:16.11Z</time></trkpt><trkpt lat="44.9870467" lon="9.60761"><ele>93.0</ele><time>2026-04-08T08:52:17.11Z</time></trkpt><trkpt lat="44.9868267" lon="9.6074767"><ele>93.5</ele><time>2026-04-08T08:52:18.109Z</time></trkpt><trkpt lat="44.9866067" lon="9.6073633"><ele>94.0</ele><time>2026-04-08T08:52:19.11Z</time></trkpt><trkpt lat="44.986385" lon="9.6072633"><ele>94.0</ele><time>2026-04-08T08:52:20.11Z</time></trkpt><trkpt lat="44.986165" lon="9.6071783"><ele>94.0</ele><time>2026-04-08T08:52:21.11Z</time></trkpt><trkpt lat="44.98594" lon="9.607105"><ele>93.5</ele><time>2026-04-08T08:52:22.109Z</time></trkpt><trkpt lat="44.9857033" lon="9.6070333"><ele>93.0</ele><time>2026-04-08T08:52:23.11Z</time></trkpt><trkpt lat="44.9854533" lon="9.6069633"><ele>93.0</ele><time>2026-04-08T08:52:24.11Z</time></trkpt><trkpt lat="44.9851983" lon="9.606915"><ele>93.0</ele><time>2026-04-08T08:52:25.109Z</time></trkpt><trkpt lat="44.9849517" lon="9.606875"><ele>93.5</ele><time>2026-04-08T08:52:26.11Z</time></trkpt><trkpt lat="44.98471" lon="9.6068333"><ele>94.0</ele><time>2026-04-08T08:52:27.11Z</time></trkpt><trkpt lat="44.9844733" lon="9.6068483"><ele>94.0</ele><time>2026-04-08T08:52:28.109Z</time></trkpt><trkpt lat="44.9842417" lon="9.6068233"><ele>94.0</ele><time>2026-04-08T08:52:29.11Z</time></trkpt><trkpt lat="44.98402" lon="9.6068317"><ele>94.33333333333333</ele><time>2026-04-08T08:52:30.11Z</time></trkpt><trkpt lat="44.9838067" lon="9.6068483"><ele>94.66666666666667</ele><time>2026-04-08T08:52:31.11Z</time></trkpt><trkpt lat="44.983595" lon="9.606855"><ele>95.0</ele><time>2026-04-08T08:52:32.11Z</time></trkpt><trkpt lat="44.9833817" lon="9.6068583"><ele>95.0</ele><time>2026-04-08T08:52:33.109Z</time></trkpt><trkpt lat="44.98317" lon="9.60686"><ele>95.0</ele><time>2026-04-08T08:52:34.11Z</time></trkpt><trkpt lat="44.9829683" lon="9.6068633"><ele>95.0</ele><time>2026-04-08T08:52:35.109Z</time></trkpt><trkpt lat="44.9827767" lon="9.6068717"><ele>95.0</ele><time>2026-04-08T08:52:36.11Z</time></trkpt><trkpt lat="44.9825883" lon="9.6068683"><ele>95.0</ele><time>2026-04-08T08:52:37.11Z</time></trkpt><trkpt lat="44.9824067" lon="9.6068733"><ele>95.0</ele><time>2026-04-08T08:52:38.109Z</time></trkpt><trkpt lat="44.9822333" lon="9.6068817"><ele>95.0</ele><time>2026-04-08T08:52:39.11Z</time></trkpt><trkpt lat="44.9820583" lon="9.6068967"><ele>95.0</ele><time>2026-04-08T08:52:40.109Z</time></trkpt><trkpt lat="44.9818717" lon="9.606915"><ele>95.0</ele><time>2026-04-08T08:52:41.11Z</time></trkpt><trkpt lat="44.9816733" lon="9.6069283"><ele>94.33333333333334</ele><time>2026-04-08T08:52:42.11Z</time></trkpt><trkpt lat="44.981465" lon="9.6069333"><ele>93.66666666666667</ele><time>2026-04-08T08:52:43.109Z</time></trkpt><trkpt lat="44.98124" lon="9.60694"><ele>93.0</ele><time>2026-04-08T08:52:44.11Z</time></trkpt><trkpt lat="44.9809967" lon="9.60695"><ele>94.5</ele><time>2026-04-08T08:52:45.11Z</time></trkpt><trkpt lat="44.9807333" lon="9.606965"><ele>96.0</ele><time>2026-04-08T08:52:46.11Z</time></trkpt><trkpt lat="44.9804633" lon="9.6069567"><ele>96.0</ele><time>2026-04-08T08:52:47.11Z</time></trkpt><trkpt lat="44.9801883" lon="9.6069317"><ele>96.0</ele><time>2026-04-08T08:52:48.109Z</time></trkpt><trkpt lat="44.9799017" lon="9.606885"><ele>96.5</ele><time>2026-04-08T08:52:49.11Z</time></trkpt><trkpt lat="44.9795967" lon="9.606835"><ele>97.0</ele><time>2026-04-08T08:52:50.11Z</time></trkpt><trkpt lat="44.9792833" lon="9.6067733"><ele>96.0</ele><time>2026-04-08T08:52:51.11Z</time></trkpt><trkpt lat="44.9789733" lon="9.6067"><ele>95.0</ele><time>2026-04-08T08:52:52.11Z</time></trkpt><trkpt lat="44.9786533" lon="9.6066283"><ele>97.0</ele><time>2026-04-08T08:52:53.11Z</time></trkpt><trkpt lat="44.9783283" lon="9.6065583"><ele>99.0</ele><time>2026-04-08T08:52:54.11Z</time></trkpt><trkpt lat="44.978" lon="9.6064883"><ele>99.0</ele><time>2026-04-08T08:52:55.11Z</time></trkpt><trkpt lat="44.977675" lon="9.6064083"><ele>99.0</ele><time>2026-04-08T08:52:56.109Z</time></trkpt><trkpt lat="44.9773483" lon="9.60633"><ele>98.5</ele><time>2026-04-08T08:52:57.109Z</time></trkpt><trkpt lat="44.9770217" lon="9.6062533"><ele>98.0</ele><time>2026-04-08T08:52:58.11Z</time></trkpt><trkpt lat="44.97669" lon="9.6062017"><ele>98.0</ele><time>2026-04-08T08:52:59.11Z</time></trkpt><trkpt lat="44.97637" lon="9.606085"><ele>98.0</ele><time>2026-04-08T08:53:00.11Z</time></trkpt><trkpt lat="44.9760433" lon="9.6060033"><ele>97.5</ele><time>2026-04-08T08:53:01.109Z</time></trkpt><trkpt lat="44.9757183" lon="9.6059183"><ele>97.0</ele><time>2026-04-08T08:53:02.11Z</time></trkpt><trkpt lat="44.97539" lon="9.605845"><ele>97.0</ele><time>2026-04-08T08:53:03.11Z</time></trkpt><trkpt lat="44.9750633" lon="9.6057733"><ele>97.0</ele><time>2026-04-08T08:53:04.11Z</time></trkpt><trkpt lat="44.9747367" lon="9.60572"><ele>99.0</ele><time>2026-04-08T08:53:05.11Z</time></trkpt><trkpt lat="44.9744117" lon="9.6056817"><ele>101.0</ele><time>2026-04-08T08:53:06.11Z</time></trkpt><trkpt lat="44.9740883" lon="9.6056683"><ele>101.0</ele><time>2026-04-08T08:53:07.11Z</time></trkpt><trkpt lat="44.9737667" lon="9.6056517"><ele>101.0</ele><time>2026-04-08T08:53:08.11Z</time></trkpt><trkpt lat="44.97345" lon="9.605625"><ele>100.5</ele><time>2026-04-08T08:53:09.11Z</time></trkpt><trkpt lat="44.97313" lon="9.6056017"><ele>100.0</ele><time>2026-04-08T08:53:10.11Z</time></trkpt><trkpt lat="44.97281" lon="9.6055883"><ele>99.5</ele><time>2026-04-08T08:53:11.11Z</time></trkpt><trkpt lat="44.972495" lon="9.605545"><ele>99.0</ele><time>2026-04-08T08:53:12.11Z</time></trkpt><trkpt lat="44.9721817" lon="9.605535"><ele>99.0</ele><time>2026-04-08T08:53:13.11Z</time></trkpt><trkpt lat="44.971885" lon="9.605445"><ele>99.0</ele><time>2026-04-08T08:53:14.11Z</time></trkpt><trkpt lat="44.971595" lon="9.6053783"><ele>100.5</ele><time>2026-04-08T08:53:15.11Z</time></trkpt><trkpt lat="44.9713217" lon="9.6053483"><ele>102.0</ele><time>2026-04-08T08:53:16.109Z</time></trkpt><trkpt lat="44.97107" lon="9.6053367"><ele>101.66666666666666</ele><time>2026-04-08T08:53:17.11Z</time></trkpt><trkpt lat="44.9708467" lon="9.6053567"><ele>101.33333333333333</ele><time>2026-04-08T08:53:18.11Z</time></trkpt><trkpt lat="44.9706583" lon="9.60541"><ele>101.0</ele><time>2026-04-08T08:53:19.11Z</time></trkpt><trkpt lat="44.970515" lon="9.6054883"><ele>101.0</ele><time>2026-04-08T08:53:20.11Z</time></trkpt><trkpt lat="44.9704167" lon="9.6055683"><ele>101.0</ele><time>2026-04-08T08:53:21.11Z</time></trkpt><trkpt lat="44.97032" lon="9.6056017"><ele>101.0</ele><time>2026-04-08T08:53:22.11Z</time></trkpt><trkpt lat="44.9702133" lon="9.605585"><ele>101.0</ele><time>2026-04-08T08:53:23.11Z</time></trkpt><trkpt lat="44.9701" lon="9.60551"><ele>101.0</ele><time>2026-04-08T08:53:24.109Z</time></trkpt><trkpt lat="44.96997" lon="9.605375"><ele>102.0</ele><time>2026-04-08T08:53:25.11Z</time></trkpt><trkpt lat="44.9698367" lon="9.6052017"><ele>103.0</ele><time>2026-04-08T08:53:26.11Z</time></trkpt><trkpt lat="44.9697067" lon="9.604985"><ele>104.0</ele><time>2026-04-08T08:53:27.109Z</time></trkpt><trkpt lat="44.9695533" lon="9.6047717"><ele>104.0</ele><time>2026-04-08T08:53:28.109Z</time></trkpt><trkpt lat="44.9693767" lon="9.60457"><ele>104.0</ele><time>2026-04-08T08:53:29.11Z</time></trkpt><trkpt lat="44.969175" lon="9.60438"><ele>105.0</ele><time>2026-04-08T08:53:30.11Z</time></trkpt><trkpt lat="44.9689483" lon="9.6042"><ele>106.0</ele><time>2026-04-08T08:53:31.11Z</time></trkpt><trkpt lat="44.9687133" lon="9.6040217"><ele>106.0</ele><time>2026-04-08T08:53:32.11Z</time></trkpt><trkpt lat="44.9684617" lon="9.603865"><ele>106.0</ele><time>2026-04-08T08:53:33.11Z</time></trkpt><trkpt lat="44.9681967" lon="9.6037283"><ele>104.5</ele><time>2026-04-08T08:53:34.11Z</time></trkpt><trkpt lat="44.9679167" lon="9.6036183"><ele>103.0</ele><time>2026-04-08T08:53:35.109Z</time></trkpt><trkpt lat="44.9676433" lon="9.603545"><ele>104.0</ele><time>2026-04-08T08:53:36.109Z</time></trkpt><trkpt lat="44.9673817" lon="9.6035067"><ele>105.0</ele><time>2026-04-08T08:53:37.109Z</time></trkpt><trkpt lat="44.9671333" lon="9.60349"><ele>105.0</ele><time>2026-04-08T08:53:38.11Z</time></trkpt><trkpt lat="44.9668983" lon="9.6034967"><ele>105.0</ele><time>2026-04-08T08:53:39.109Z</time></trkpt><trkpt lat="44.9666733" lon="9.6035017"><ele>105.5</ele><time>2026-04-08T08:53:40.11Z</time></trkpt><trkpt lat="44.966445" lon="9.6035283"><ele>106.0</ele><time>2026-04-08T08:53:41.11Z</time></trkpt><trkpt lat="44.966215" lon="9.6035583"><ele>106.0</ele><time>2026-04-08T08:53:42.109Z</time></trkpt><trkpt lat="44.9659867" lon="9.6036017"><ele>106.0</ele><time>2026-04-08T08:53:43.11Z</time></trkpt><trkpt lat="44.96576" lon="9.603625"><ele>106.5</ele><time>2026-04-08T08:53:44.11Z</time></trkpt><trkpt lat="44.9655317" lon="9.6036333"><ele>107.0</ele><time>2026-04-08T08:53:45.11Z</time></trkpt><trkpt lat="44.965305" lon="9.60362"><ele>107.0</ele><time>2026-04-08T08:53:46.11Z</time></trkpt><trkpt lat="44.9650767" lon="9.603595"><ele>107.0</ele><time>2026-04-08T08:53:47.11Z</time></trkpt><trkpt lat="44.9648567" lon="9.603535"><ele>106.33333333333333</ele><time>2026-04-08T08:53:48.11Z</time></trkpt><trkpt lat="44.9646417" lon="9.60344"><ele>105.66666666666666</ele><time>2026-04-08T08:53:49.11Z</time></trkpt><trkpt lat="44.96444" lon="9.6033283"><ele>105.0</ele><time>2026-04-08T08:53:50.11Z</time></trkpt><trkpt lat="44.9642617" lon="9.6031767"><ele>105.0</ele><time>2026-04-08T08:53:51.109Z</time></trkpt><trkpt lat="44.9641067" lon="9.6029967"><ele>105.0</ele><time>2026-04-08T08:53:52.109Z</time></trkpt><trkpt lat="44.9639683" lon="9.6027917"><ele>105.0</ele><time>2026-04-08T08:53:53.109Z</time></trkpt><trkpt lat="44.9638467" lon="9.6025567"><ele>105.0</ele><time>2026-04-08T08:53:54.109Z</time></trkpt><trkpt lat="44.9637483" lon="9.6022933"><ele>105.0</ele><time>2026-04-08T08:53:55.109Z</time></trkpt><trkpt lat="44.9636717" lon="9.6020117"><ele>105.0</ele><time>2026-04-08T08:53:56.11Z</time></trkpt><trkpt lat="44.96362" lon="9.6017133"><ele>104.66666666666666</ele><time>2026-04-08T08:53:57.11Z</time></trkpt><trkpt lat="44.963585" lon="9.6014117"><ele>104.33333333333333</ele><time>2026-04-08T08:53:58.11Z</time></trkpt><trkpt lat="44.9635667" lon="9.6011167"><ele>104.0</ele><time>2026-04-08T08:53:59.109Z</time></trkpt><trkpt lat="44.9635617" lon="9.60082"><ele>104.0</ele><time>2026-04-08T08:54:00.11Z</time></trkpt><trkpt lat="44.9635667" lon="9.600525"><ele>104.0</ele><time>2026-04-08T08:54:01.11Z</time></trkpt><trkpt lat="44.96358" lon="9.6002333"><ele>104.0</ele><time>2026-04-08T08:54:02.11Z</time></trkpt><trkpt lat="44.96358" lon="9.5999383"><ele>104.0</ele><time>2026-04-08T08:54:03.11Z</time></trkpt><trkpt lat="44.9635883" lon="9.5996433"><ele>104.0</ele><time>2026-04-08T08:54:04.11Z</time></trkpt><trkpt lat="44.9636017" lon="9.5993333"><ele>104.0</ele><time>2026-04-08T08:54:05.11Z</time></trkpt><trkpt lat="44.9636217" lon="9.5990067"><ele>103.5</ele><time>2026-04-08T08:54:06.11Z</time></trkpt><trkpt lat="44.96365" lon="9.5986433"><ele>103.0</ele><time>2026-04-08T08:54:07.11Z</time></trkpt><trkpt lat="44.9636733" lon="9.59825"><ele>102.0</ele><time>2026-04-08T08:54:08.11Z</time></trkpt><trkpt lat="44.963715" lon="9.5978183"><ele>101.0</ele><time>2026-04-08T08:54:09.11Z</time></trkpt><trkpt lat="44.9637667" lon="9.597355"><ele>101.0</ele><time>2026-04-08T08:54:10.11Z</time></trkpt><trkpt lat="44.9637933" lon="9.5968617"><ele>101.0</ele><time>2026-04-08T08:54:11.11Z</time></trkpt><trkpt lat="44.9638267" lon="9.5963467"><ele>100.5</ele><time>2026-04-08T08:54:12.109Z</time></trkpt><trkpt lat="44.9638817" lon="9.5958317"><ele>100.0</ele><time>2026-04-08T08:54:13.11Z</time></trkpt><trkpt lat="44.9638983" lon="9.5953183"><ele>100.0</ele><time>2026-04-08T08:54:14.11Z</time></trkpt><trkpt lat="44.963935" lon="9.5948383"><ele>100.0</ele><time>2026-04-08T08:54:15.11Z</time></trkpt><trkpt lat="44.9639583" lon="9.5943767"><ele>100.0</ele><time>2026-04-08T08:54:16.11Z</time></trkpt><trkpt lat="44.9639883" lon="9.5939267"><ele>100.0</ele><time>2026-04-08T08:54:17.109Z</time></trkpt><trkpt lat="44.9640233" lon="9.5934783"><ele>100.0</ele><time>2026-04-08T08:54:18.11Z</time></trkpt><trkpt lat="44.96405" lon="9.5930383"><ele>100.0</ele><time>2026-04-08T08:54:19.11Z</time></trkpt><trkpt lat="44.96408" lon="9.5926117"><ele>100.0</ele><time>2026-04-08T08:54:20.11Z</time></trkpt><trkpt lat="44.9641117" lon="9.5921833"><ele>100.0</ele><time>2026-04-08T08:54:21.11Z</time></trkpt><trkpt lat="44.96413" lon="9.59176"><ele>100.5</ele><time>2026-04-08T08:54:22.11Z</time></trkpt><trkpt lat="44.96416" lon="9.5913417"><ele>101.0</ele><time>2026-04-08T08:54:23.11Z</time></trkpt><trkpt lat="44.964185" lon="9.590935"><ele>101.5</ele><time>2026-04-08T08:54:24.11Z</time></trkpt><trkpt lat="44.96421" lon="9.5905283"><ele>102.0</ele><time>2026-04-08T08:54:25.11Z</time></trkpt><trkpt lat="44.9642367" lon="9.59012"><ele>102.0</ele><time>2026-04-08T08:54:26.11Z</time></trkpt><trkpt lat="44.9642633" lon="9.58971"><ele>102.0</ele><time>2026-04-08T08:54:27.11Z</time></trkpt><trkpt lat="44.96429" lon="9.5892983"><ele>103.0</ele><time>2026-04-08T08:54:28.11Z</time></trkpt><trkpt lat="44.9643217" lon="9.5888867"><ele>104.0</ele><time>2026-04-08T08:54:29.109Z</time></trkpt><trkpt lat="44.96435" lon="9.5884817"><ele>105.0</ele><time>2026-04-08T08:54:30.109Z</time></trkpt><trkpt lat="44.9643817" lon="9.5880783"><ele>106.0</ele><time>2026-04-08T08:54:31.11Z</time></trkpt><trkpt lat="44.9644083" lon="9.5876917"><ele>107.0</ele><time>2026-04-08T08:54:32.11Z</time></trkpt><trkpt lat="44.9644283" lon="9.58733"><ele>108.0</ele><time>2026-04-08T08:54:33.11Z</time></trkpt><trkpt lat="44.9644517" lon="9.5869933"><ele>109.33333333333334</ele><time>2026-04-08T08:54:34.11Z</time></trkpt><trkpt lat="44.964475" lon="9.586695"><ele>110.66666666666667</ele><time>2026-04-08T08:54:35.11Z</time></trkpt><trkpt lat="44.9644933" lon="9.5864283"><ele>112.0</ele><time>2026-04-08T08:54:36.11Z</time></trkpt><trkpt lat="44.9645133" lon="9.5862017"><ele>112.0</ele><time>2026-04-08T08:54:37.11Z</time></trkpt><trkpt lat="44.964535" lon="9.5860167"><ele>111.99999999999999</ele><time>2026-04-08T08:54:38.11Z</time></trkpt><trkpt lat="44.9645467" lon="9.585885"><ele>111.99999999999999</ele><time>2026-04-08T08:54:39.11Z</time></trkpt><trkpt lat="44.9645583" lon="9.5857833"><ele>112.0</ele><time>2026-04-08T08:54:40.11Z</time></trkpt><trkpt lat="44.9645217" lon="9.5856317"><ele>112.0</ele><time>2026-04-08T08:54:42.109Z</time></trkpt><trkpt lat="44.9644583" lon="9.5856217"><ele>112.0</ele><time>2026-04-08T08:54:43.11Z</time></trkpt><trkpt lat="44.9643733" lon="9.58564"><ele>112.0</ele><time>2026-04-08T08:54:44.11Z</time></trkpt><trkpt lat="44.964265" lon="9.5856683"><ele>112.0</ele><time>2026-04-08T08:54:45.11Z</time></trkpt><trkpt lat="44.964105" lon="9.585725"><ele>112.0</ele><time>2026-04-08T08:54:46.11Z</time></trkpt><trkpt lat="44.9639333" lon="9.585775"><ele>113.0</ele><time>2026-04-08T08:54:47.109Z</time></trkpt><trkpt lat="44.96375" lon="9.5858383"><ele>114.0</ele><time>2026-04-08T08:54:48.11Z</time></trkpt><trkpt lat="44.9635583" lon="9.58591"><ele>115.0</ele><time>2026-04-08T08:54:49.11Z</time></trkpt><trkpt lat="44.96335" lon="9.58598"><ele>116.5</ele><time>2026-04-08T08:54:50.11Z</time></trkpt><trkpt lat="44.9631317" lon="9.5860517"><ele>118.0</ele><time>2026-04-08T08:54:51.11Z</time></trkpt><trkpt lat="44.96291" lon="9.5861233"><ele>117.0</ele><time>2026-04-08T08:54:52.11Z</time></trkpt><trkpt lat="44.9626767" lon="9.5861817"><ele>116.0</ele><time>2026-04-08T08:54:53.11Z</time></trkpt><trkpt lat="44.962435" lon="9.5862567"><ele>118.0</ele><time>2026-04-08T08:54:54.11Z</time></trkpt><trkpt lat="44.9621867" lon="9.58633"><ele>120.0</ele><time>2026-04-08T08:54:55.109Z</time></trkpt><trkpt lat="44.9619317" lon="9.5863983"><ele>121.0</ele><time>2026-04-08T08:54:56.11Z</time></trkpt><trkpt lat="44.9616767" lon="9.5864783"><ele>122.0</ele><time>2026-04-08T08:54:57.11Z</time></trkpt><trkpt lat="44.9614217" lon="9.5865667"><ele>122.0</ele><time>2026-04-08T08:54:58.11Z</time></trkpt><trkpt lat="44.9611683" lon="9.5866417"><ele>122.0</ele><time>2026-04-08T08:54:59.11Z</time></trkpt><trkpt lat="44.9609233" lon="9.5867217"><ele>121.5</ele><time>2026-04-08T08:55:00.11Z</time></trkpt><trkpt lat="44.96068" lon="9.586795"><ele>121.0</ele><time>2026-04-08T08:55:01.11Z</time></trkpt><trkpt lat="44.9604417" lon="9.5868633"><ele>121.0</ele><time>2026-04-08T08:55:02.11Z</time></trkpt><trkpt lat="44.9602017" lon="9.586935"><ele>121.0</ele><time>2026-04-08T08:55:03.11Z</time></trkpt><trkpt lat="44.9599633" lon="9.5870133"><ele>122.0</ele><time>2026-04-08T08:55:04.11Z</time></trkpt><trkpt lat="44.9597233" lon="9.5870967"><ele>123.0</ele><time>2026-04-08T08:55:05.11Z</time></trkpt><trkpt lat="44.95948" lon="9.5871833"><ele>123.0</ele><time>2026-04-08T08:55:06.11Z</time></trkpt><trkpt lat="44.95924" lon="9.58729"><ele>123.0</ele><time>2026-04-08T08:55:07.11Z</time></trkpt><trkpt lat="44.9590083" lon="9.5873883"><ele>123.33333333333334</ele><time>2026-04-08T08:55:08.11Z</time></trkpt><trkpt lat="44.9587883" lon="9.58748"><ele>123.66666666666667</ele><time>2026-04-08T08:55:09.11Z</time></trkpt><trkpt lat="44.95858" lon="9.5875667"><ele>124.0</ele><time>2026-04-08T08:55:10.11Z</time></trkpt><trkpt lat="44.95837" lon="9.5876383"><ele>124.66666666666667</ele><time>2026-04-08T08:55:11.11Z</time></trkpt><trkpt lat="44.9581567" lon="9.58768"><ele>125.33333333333334</ele><time>2026-04-08T08:55:12.109Z</time></trkpt><trkpt lat="44.95794" lon="9.587705"><ele>126.0</ele><time>2026-04-08T08:55:13.109Z</time></trkpt><trkpt lat="44.9577183" lon="9.58767"><ele>126.0</ele><time>2026-04-08T08:55:14.109Z</time></trkpt><trkpt lat="44.9574867" lon="9.5876183"><ele>126.0</ele><time>2026-04-08T08:55:15.11Z</time></trkpt><trkpt lat="44.9572467" lon="9.5875567"><ele>126.0</ele><time>2026-04-08T08:55:16.109Z</time></trkpt><trkpt lat="44.9570017" lon="9.5875"><ele>126.0</ele><time>2026-04-08T08:55:17.11Z</time></trkpt><trkpt lat="44.956745" lon="9.5874683"><ele>127.0</ele><time>2026-04-08T08:55:18.109Z</time></trkpt><trkpt lat="44.956485" lon="9.58749"><ele>128.0</ele><time>2026-04-08T08:55:19.11Z</time></trkpt><trkpt lat="44.9562183" lon="9.5875567"><ele>128.0</ele><time>2026-04-08T08:55:20.11Z</time></trkpt><trkpt lat="44.9559533" lon="9.5876217"><ele>128.0</ele><time>2026-04-08T08:55:21.11Z</time></trkpt><trkpt lat="44.9557067" lon="9.5876817"><ele>128.0</ele><time>2026-04-08T08:55:22.11Z</time></trkpt><trkpt lat="44.9554633" lon="9.5877233"><ele>128.0</ele><time>2026-04-08T08:55:23.11Z</time></trkpt><trkpt lat="44.95522" lon="9.58772"><ele>129.0</ele><time>2026-04-08T08:55:24.11Z</time></trkpt><trkpt lat="44.9549767" lon="9.5876667"><ele>130.0</ele><time>2026-04-08T08:55:25.109Z</time></trkpt><trkpt lat="44.9547433" lon="9.58756"><ele>130.0</ele><time>2026-04-08T08:55:26.11Z</time></trkpt><trkpt lat="44.9545067" lon="9.5874717"><ele>130.0</ele><time>2026-04-08T08:55:27.11Z</time></trkpt><trkpt lat="44.9542717" lon="9.587375"><ele>130.0</ele><time>2026-04-08T08:55:28.11Z</time></trkpt><trkpt lat="44.9540467" lon="9.5872817"><ele>130.0</ele><time>2026-04-08T08:55:29.11Z</time></trkpt><trkpt lat="44.9538367" lon="9.5871917"><ele>130.0</ele><time>2026-04-08T08:55:30.11Z</time></trkpt><trkpt lat="44.9536383" lon="9.5871133"><ele>130.0</ele><time>2026-04-08T08:55:31.11Z</time></trkpt><trkpt lat="44.9534467" lon="9.58704"><ele>130.0</ele><time>2026-04-08T08:55:32.109Z</time></trkpt><trkpt lat="44.953255" lon="9.5869867"><ele>130.0</ele><time>2026-04-08T08:55:33.11Z</time></trkpt><trkpt lat="44.9530617" lon="9.586975"><ele>130.0</ele><time>2026-04-08T08:55:34.109Z</time></trkpt><trkpt lat="44.9528683" lon="9.587015"><ele>130.0</ele><time>2026-04-08T08:55:35.11Z</time></trkpt><trkpt lat="44.9526867" lon="9.587095"><ele>131.33333333333334</ele><time>2026-04-08T08:55:36.109Z</time></trkpt><trkpt lat="44.95251" lon="9.5871917"><ele>132.66666666666666</ele><time>2026-04-08T08:55:37.11Z</time></trkpt><trkpt lat="44.95233" lon="9.587305"><ele>134.0</ele><time>2026-04-08T08:55:38.11Z</time></trkpt><trkpt lat="44.952155" lon="9.5874167"><ele>134.0</ele><time>2026-04-08T08:55:39.11Z</time></trkpt><trkpt lat="44.951985" lon="9.5875233"><ele>134.0</ele><time>2026-04-08T08:55:40.11Z</time></trkpt><trkpt lat="44.951815" lon="9.5876367"><ele>134.0</ele><time>2026-04-08T08:55:41.109Z</time></trkpt><trkpt lat="44.9516433" lon="9.587755"><ele>133.66666666666666</ele><time>2026-04-08T08:55:42.11Z</time></trkpt><trkpt lat="44.95148" lon="9.5879217"><ele>133.33333333333334</ele><time>2026-04-08T08:55:43.109Z</time></trkpt><trkpt lat="44.9513217" lon="9.5880967"><ele>133.0</ele><time>2026-04-08T08:55:44.11Z</time></trkpt><trkpt lat="44.9511683" lon="9.5882733"><ele>133.0</ele><time>2026-04-08T08:55:45.11Z</time></trkpt><trkpt lat="44.9510133" lon="9.5884517"><ele>133.0</ele><time>2026-04-08T08:55:46.11Z</time></trkpt><trkpt lat="44.9508517" lon="9.58861"><ele>133.0</ele><time>2026-04-08T08:55:47.11Z</time></trkpt><trkpt lat="44.9506933" lon="9.5887767"><ele>132.33333333333334</ele><time>2026-04-08T08:55:48.11Z</time></trkpt><trkpt lat="44.9505417" lon="9.58892"><ele>131.66666666666666</ele><time>2026-04-08T08:55:49.109Z</time></trkpt><trkpt lat="44.9503933" lon="9.58904"><ele>131.0</ele><time>2026-04-08T08:55:50.11Z</time></trkpt><trkpt lat="44.950245" lon="9.5891617"><ele>131.0</ele><time>2026-04-08T08:55:51.109Z</time></trkpt><trkpt lat="44.9500917" lon="9.58929"><ele>131.0</ele><time>2026-04-08T08:55:52.11Z</time></trkpt><trkpt lat="44.949935" lon="9.5894167"><ele>131.0</ele><time>2026-04-08T08:55:53.11Z</time></trkpt><trkpt lat="44.9497767" lon="9.5895367"><ele>132.0</ele><time>2026-04-08T08:55:54.11Z</time></trkpt><trkpt lat="44.9496133" lon="9.58965"><ele>133.0</ele><time>2026-04-08T08:55:55.11Z</time></trkpt><trkpt lat="44.94945" lon="9.5897567"><ele>134.0</ele><time>2026-04-08T08:55:56.11Z</time></trkpt><trkpt lat="44.9492783" lon="9.5898733"><ele>133.66666666666666</ele><time>2026-04-08T08:55:57.11Z</time></trkpt><trkpt lat="44.9491017" lon="9.58996"><ele>133.33333333333334</ele><time>2026-04-08T08:55:58.109Z</time></trkpt><trkpt lat="44.9489083" lon="9.59002"><ele>133.0</ele><time>2026-04-08T08:55:59.109Z</time></trkpt><trkpt lat="44.9487" lon="9.5900217"><ele>133.0</ele><time>2026-04-08T08:56:00.11Z</time></trkpt><trkpt lat="44.9484817" lon="9.5899867"><ele>133.0</ele><time>2026-04-08T08:56:01.11Z</time></trkpt><trkpt lat="44.9482417" lon="9.589905"><ele>131.0</ele><time>2026-04-08T08:56:02.11Z</time></trkpt><trkpt lat="44.9479917" lon="9.589795"><ele>129.0</ele><time>2026-04-08T08:56:03.11Z</time></trkpt><trkpt lat="44.9477317" lon="9.5896783"><ele>130.5</ele><time>2026-04-08T08:56:04.11Z</time></trkpt><trkpt lat="44.947465" lon="9.5895583"><ele>132.0</ele><time>2026-04-08T08:56:05.11Z</time></trkpt><trkpt lat="44.947205" lon="9.5894383"><ele>132.0</ele><time>2026-04-08T08:56:06.11Z</time></trkpt><trkpt lat="44.9469517" lon="9.5893267"><ele>132.0</ele><time>2026-04-08T08:56:07.11Z</time></trkpt><trkpt lat="44.94671" lon="9.5892367"><ele>133.0</ele><time>2026-04-08T08:56:08.11Z</time></trkpt><trkpt lat="44.9464783" lon="9.589145"><ele>134.0</ele><time>2026-04-08T08:56:09.109Z</time></trkpt><trkpt lat="44.94624" lon="9.58909"><ele>134.0</ele><time>2026-04-08T08:56:10.109Z</time></trkpt><trkpt lat="44.946005" lon="9.58908"><ele>134.0</ele><time>2026-04-08T08:56:11.11Z</time></trkpt><trkpt lat="44.9457517" lon="9.58908"><ele>134.5</ele><time>2026-04-08T08:56:12.11Z</time></trkpt><trkpt lat="44.9455" lon="9.5890867"><ele>135.0</ele><time>2026-04-08T08:56:13.11Z</time></trkpt><trkpt lat="44.94524" lon="9.5890967"><ele>135.0</ele><time>2026-04-08T08:56:14.11Z</time></trkpt><trkpt lat="44.94498" lon="9.5891083"><ele>135.0</ele><time>2026-04-08T08:56:15.11Z</time></trkpt><trkpt lat="44.944725" lon="9.589125"><ele>135.0</ele><time>2026-04-08T08:56:16.11Z</time></trkpt><trkpt lat="44.9444683" lon="9.5891517"><ele>135.0</ele><time>2026-04-08T08:56:17.11Z</time></trkpt><trkpt lat="44.9442117" lon="9.5891767"><ele>136.0</ele><time>2026-04-08T08:56:18.11Z</time></trkpt><trkpt lat="44.9439583" lon="9.5892017"><ele>137.0</ele><time>2026-04-08T08:56:19.11Z</time></trkpt><trkpt lat="44.9437167" lon="9.5892317"><ele>137.0</ele><time>2026-04-08T08:56:20.11Z</time></trkpt><trkpt lat="44.9434833" lon="9.5892833"><ele>137.0</ele><time>2026-04-08T08:56:21.11Z</time></trkpt><trkpt lat="44.9432517" lon="9.5893617"><ele>138.5</ele><time>2026-04-08T08:56:22.11Z</time></trkpt><trkpt lat="44.9430183" lon="9.5894717"><ele>140.0</ele><time>2026-04-08T08:56:23.11Z</time></trkpt><trkpt lat="44.9427817" lon="9.58959"><ele>135.0</ele><time>2026-04-08T08:56:24.11Z</time></trkpt><trkpt lat="44.9425433" lon="9.5897167"><ele>130.0</ele><time>2026-04-08T08:56:25.11Z</time></trkpt><trkpt lat="44.9423" lon="9.58984"><ele>130.0</ele><time>2026-04-08T08:56:26.11Z</time></trkpt><trkpt lat="44.9420567" lon="9.58996"><ele>130.0</ele><time>2026-04-08T08:56:27.11Z</time></trkpt><trkpt lat="44.9418133" lon="9.59008"><ele>133.0</ele><time>2026-04-08T08:56:28.11Z</time></trkpt><trkpt lat="44.94157" lon="9.590195"><ele>136.0</ele><time>2026-04-08T08:56:29.11Z</time></trkpt><trkpt lat="44.941325" lon="9.590315"><ele>130.5</ele><time>2026-04-08T08:56:30.109Z</time></trkpt><trkpt lat="44.9410717" lon="9.5904033"><ele>125.0</ele><time>2026-04-08T08:56:31.11Z</time></trkpt><trkpt lat="44.9408267" lon="9.5905333"><ele>125.0</ele><time>2026-04-08T08:56:32.11Z</time></trkpt><trkpt lat="44.940575" lon="9.59058"><ele>125.0</ele><time>2026-04-08T08:56:33.109Z</time></trkpt><trkpt lat="44.940315" lon="9.59065"><ele>125.0</ele><time>2026-04-08T08:56:34.11Z</time></trkpt><trkpt lat="44.9400567" lon="9.590715"><ele>125.0</ele><time>2026-04-08T08:56:35.11Z</time></trkpt><trkpt lat="44.9398067" lon="9.5907483"><ele>125.0</ele><time>2026-04-08T08:56:36.11Z</time></trkpt><trkpt lat="44.939555" lon="9.5907917"><ele>125.0</ele><time>2026-04-08T08:56:37.11Z</time></trkpt><trkpt lat="44.939295" lon="9.5908183"><ele>125.0</ele><time>2026-04-08T08:56:38.11Z</time></trkpt><trkpt lat="44.9390383" lon="9.5908483"><ele>125.0</ele><time>2026-04-08T08:56:39.109Z</time></trkpt><trkpt lat="44.9387867" lon="9.5908767"><ele>125.0</ele><time>2026-04-08T08:56:40.109Z</time></trkpt><trkpt lat="44.93854" lon="9.59091"><ele>125.0</ele><time>2026-04-08T08:56:41.109Z</time></trkpt><trkpt lat="44.9382933" lon="9.590935"><ele>127.0</ele><time>2026-04-08T08:56:42.11Z</time></trkpt><trkpt lat="44.9380483" lon="9.5909583"><ele>129.0</ele><time>2026-04-08T08:56:43.109Z</time></trkpt><trkpt lat="44.93781" lon="9.5909867"><ele>129.0</ele><time>2026-04-08T08:56:44.11Z</time></trkpt><trkpt lat="44.9375783" lon="9.5910167"><ele>129.0</ele><time>2026-04-08T08:56:45.109Z</time></trkpt><trkpt lat="44.9373517" lon="9.5910467"><ele>133.0</ele><time>2026-04-08T08:56:46.109Z</time></trkpt><trkpt lat="44.9371333" lon="9.59109"><ele>137.0</ele><time>2026-04-08T08:56:47.109Z</time></trkpt><trkpt lat="44.9369217" lon="9.591085"><ele>141.0</ele><time>2026-04-08T08:56:48.109Z</time></trkpt><trkpt lat="44.9367183" lon="9.5910867"><ele>141.33333333333334</ele><time>2026-04-08T08:56:49.11Z</time></trkpt><trkpt lat="44.936515" lon="9.59106"><ele>141.66666666666669</ele><time>2026-04-08T08:56:50.109Z</time></trkpt><trkpt lat="44.93632" lon="9.5909817"><ele>142.0</ele><time>2026-04-08T08:56:51.11Z</time></trkpt><trkpt lat="44.9361283" lon="9.5908733"><ele>142.0</ele><time>2026-04-08T08:56:52.11Z</time></trkpt><trkpt lat="44.935935" lon="9.5907467"><ele>142.0</ele><time>2026-04-08T08:56:53.11Z</time></trkpt><trkpt lat="44.9357467" lon="9.590615"><ele>142.0</ele><time>2026-04-08T08:56:54.109Z</time></trkpt><trkpt lat="44.9355583" lon="9.5904783"><ele>143.33333333333334</ele><time>2026-04-08T08:56:55.109Z</time></trkpt><trkpt lat="44.9353667" lon="9.5903433"><ele>144.66666666666666</ele><time>2026-04-08T08:56:56.11Z</time></trkpt><trkpt lat="44.9351717" lon="9.5902133"><ele>146.0</ele><time>2026-04-08T08:56:57.109Z</time></trkpt><trkpt lat="44.9349767" lon="9.59008"><ele>143.0</ele><time>2026-04-08T08:56:58.109Z</time></trkpt><trkpt lat="44.934775" lon="9.5899533"><ele>140.0</ele><time>2026-04-08T08:56:59.109Z</time></trkpt><trkpt lat="44.93457" lon="9.58981"><ele>137.0</ele><time>2026-04-08T08:57:00.11Z</time></trkpt><trkpt lat="44.9343617" lon="9.5896617"><ele>134.5</ele><time>2026-04-08T08:57:01.11Z</time></trkpt><trkpt lat="44.934145" lon="9.589525"><ele>132.0</ele><time>2026-04-08T08:57:02.109Z</time></trkpt><trkpt lat="44.9339283" lon="9.589365"><ele>140.5</ele><time>2026-04-08T08:57:03.11Z</time></trkpt><trkpt lat="44.9337" lon="9.589225"><ele>149.0</ele><time>2026-04-08T08:57:04.109Z</time></trkpt><trkpt lat="44.93348" lon="9.58907"><ele>143.5</ele><time>2026-04-08T08:57:05.11Z</time></trkpt><trkpt lat="44.933255" lon="9.5889333"><ele>138.0</ele><time>2026-04-08T08:57:06.11Z</time></trkpt><trkpt lat="44.93303" lon="9.5887917"><ele>147.0</ele><time>2026-04-08T08:57:07.11Z</time></trkpt><trkpt lat="44.9328033" lon="9.5886433"><ele>156.0</ele><time>2026-04-08T08:57:08.11Z</time></trkpt><trkpt lat="44.9325733" lon="9.58849"><ele>150.0</ele><time>2026-04-08T08:57:09.11Z</time></trkpt><trkpt lat="44.9323433" lon="9.588335"><ele>144.0</ele><time>2026-04-08T08:57:10.11Z</time></trkpt><trkpt lat="44.9321133" lon="9.5881867"><ele>144.0</ele><time>2026-04-08T08:57:11.11Z</time></trkpt><trkpt lat="44.931885" lon="9.5880483"><ele>144.0</ele><time>2026-04-08T08:57:12.11Z</time></trkpt><trkpt lat="44.93166" lon="9.5879067"><ele>146.0</ele><time>2026-04-08T08:57:13.11Z</time></trkpt><trkpt lat="44.9314333" lon="9.58776"><ele>148.0</ele><time>2026-04-08T08:57:14.109Z</time></trkpt><trkpt lat="44.9312067" lon="9.58762"><ele>148.0</ele><time>2026-04-08T08:57:15.11Z</time></trkpt><trkpt lat="44.930985" lon="9.5874783"><ele>148.0</ele><time>2026-04-08T08:57:16.109Z</time></trkpt><trkpt lat="44.9307667" lon="9.5873433"><ele>143.0</ele><time>2026-04-08T08:57:17.109Z</time></trkpt><trkpt lat="44.9305483" lon="9.5872117"><ele>138.0</ele><time>2026-04-08T08:57:18.11Z</time></trkpt><trkpt lat="44.9303367" lon="9.5870617"><ele>136.5</ele><time>2026-04-08T08:57:19.11Z</time></trkpt><trkpt lat="44.930125" lon="9.5869233"><ele>135.0</ele><time>2026-04-08T08:57:20.11Z</time></trkpt><trkpt lat="44.929915" lon="9.58679"><ele>135.0</ele><time>2026-04-08T08:57:21.11Z</time></trkpt><trkpt lat="44.9297" lon="9.5866683"><ele>135.0</ele><time>2026-04-08T08:57:22.11Z</time></trkpt><trkpt lat="44.9294967" lon="9.5865317"><ele>135.0</ele><time>2026-04-08T08:57:23.109Z</time></trkpt><trkpt lat="44.9292967" lon="9.5864133"><ele>135.0</ele><time>2026-04-08T08:57:24.11Z</time></trkpt><trkpt lat="44.9291" lon="9.5862983"><ele>135.0</ele><time>2026-04-08T08:57:25.109Z</time></trkpt><trkpt lat="44.9289067" lon="9.586185"><ele>135.0</ele><time>2026-04-08T08:57:26.11Z</time></trkpt><trkpt lat="44.92872" lon="9.5860717"><ele>135.0</ele><time>2026-04-08T08:57:27.11Z</time></trkpt><trkpt lat="44.928535" lon="9.5859617"><ele>135.0</ele><time>2026-04-08T08:57:28.11Z</time></trkpt><trkpt lat="44.9283517" lon="9.5858533"><ele>135.0</ele><time>2026-04-08T08:57:29.11Z</time></trkpt><trkpt lat="44.9281733" lon="9.585745"><ele>135.0</ele><time>2026-04-08T08:57:30.11Z</time></trkpt><trkpt lat="44.9279983" lon="9.5856333"><ele>135.0</ele><time>2026-04-08T08:57:31.109Z</time></trkpt><trkpt lat="44.927825" lon="9.5855283"><ele>135.0</ele><time>2026-04-08T08:57:32.11Z</time></trkpt><trkpt lat="44.9276517" lon="9.5854283"><ele>135.0</ele><time>2026-04-08T08:57:33.11Z</time></trkpt><trkpt lat="44.92748" lon="9.5853283"><ele>135.0</ele><time>2026-04-08T08:57:34.109Z</time></trkpt><trkpt lat="44.9273067" lon="9.58523"><ele>134.66666666666666</ele><time>2026-04-08T08:57:35.11Z</time></trkpt><trkpt lat="44.927135" lon="9.58513"><ele>134.33333333333331</ele><time>2026-04-08T08:57:36.11Z</time></trkpt><trkpt lat="44.9269683" lon="9.5850217"><ele>134.0</ele><time>2026-04-08T08:57:37.109Z</time></trkpt><trkpt lat="44.9267983" lon="9.584915"><ele>134.0</ele><time>2026-04-08T08:57:38.11Z</time></trkpt><trkpt lat="44.9266283" lon="9.5848083"><ele>134.0</ele><time>2026-04-08T08:57:39.109Z</time></trkpt><trkpt lat="44.9264583" lon="9.584695"><ele>134.0</ele><time>2026-04-08T08:57:40.11Z</time></trkpt><trkpt lat="44.926285" lon="9.5845883"><ele>134.66666666666666</ele><time>2026-04-08T08:57:41.109Z</time></trkpt><trkpt lat="44.9261117" lon="9.584475"><ele>135.33333333333334</ele><time>2026-04-08T08:57:42.11Z</time></trkpt><trkpt lat="44.92594" lon="9.5843733"><ele>136.0</ele><time>2026-04-08T08:57:43.11Z</time></trkpt><trkpt lat="44.9257683" lon="9.5842667"><ele>136.33333333333334</ele><time>2026-04-08T08:57:44.109Z</time></trkpt><trkpt lat="44.9255933" lon="9.584165"><ele>136.66666666666666</ele><time>2026-04-08T08:57:45.11Z</time></trkpt><trkpt lat="44.9254183" lon="9.58406"><ele>137.0</ele><time>2026-04-08T08:57:46.109Z</time></trkpt><trkpt lat="44.9252417" lon="9.583955"><ele>137.0</ele><time>2026-04-08T08:57:47.109Z</time></trkpt><trkpt lat="44.9250667" lon="9.5838383"><ele>137.0</ele><time>2026-04-08T08:57:48.11Z</time></trkpt><trkpt lat="44.9248933" lon="9.5837317"><ele>137.0</ele><time>2026-04-08T08:57:49.11Z</time></trkpt><trkpt lat="44.9247317" lon="9.58362"><ele>138.33333333333331</ele><time>2026-04-08T08:57:50.109Z</time></trkpt><trkpt lat="44.9245767" lon="9.5835233"><ele>139.66666666666666</ele><time>2026-04-08T08:57:51.109Z</time></trkpt><trkpt lat="44.9244317" lon="9.5834283"><ele>141.0</ele><time>2026-04-08T08:57:52.11Z</time></trkpt><trkpt lat="44.9242917" lon="9.58334"><ele>142.5</ele><time>2026-04-08T08:57:53.11Z</time></trkpt><trkpt lat="44.9241633" lon="9.583265"><ele>144.0</ele><time>2026-04-08T08:57:54.11Z</time></trkpt><trkpt lat="44.9240467" lon="9.5831983"><ele>145.5</ele><time>2026-04-08T08:57:55.11Z</time></trkpt><trkpt lat="44.9239417" lon="9.58315"><ele>147.0</ele><time>2026-04-08T08:57:56.11Z</time></trkpt><trkpt lat="44.9238667" lon="9.583105"><ele>147.0</ele><time>2026-04-08T08:57:57.109Z</time></trkpt><trkpt lat="44.9238033" lon="9.5830617"><ele>147.0</ele><time>2026-04-08T08:57:58.11Z</time></trkpt><trkpt lat="44.9237367" lon="9.5830417"><ele>147.0</ele><time>2026-04-08T08:57:59.11Z</time></trkpt><trkpt lat="44.9236833" lon="9.5829883"><ele>147.0</ele><time>2026-04-08T08:58:01.109Z</time></trkpt><trkpt lat="44.9235683" lon="9.582945"><ele>147.0</ele><time>2026-04-08T08:58:47.109Z</time></trkpt><trkpt lat="44.9234833" lon="9.582935"><ele>147.0</ele><time>2026-04-08T08:58:48.109Z</time></trkpt><trkpt lat="44.9233667" lon="9.5829217"><ele>146.66666666666666</ele><time>2026-04-08T08:58:49.109Z</time></trkpt><trkpt lat="44.9231917" lon="9.5828833"><ele>146.33333333333331</ele><time>2026-04-08T08:58:50.109Z</time></trkpt><trkpt lat="44.9230133" lon="9.58284"><ele>146.0</ele><time>2026-04-08T08:58:51.109Z</time></trkpt><trkpt lat="44.9228217" lon="9.5827783"><ele>148.66666666666666</ele><time>2026-04-08T08:58:52.109Z</time></trkpt><trkpt lat="44.922615" lon="9.5827217"><ele>151.33333333333334</ele><time>2026-04-08T08:58:53.108Z</time></trkpt><trkpt lat="44.922405" lon="9.5826783"><ele>154.0</ele><time>2026-04-08T08:58:54.109Z</time></trkpt><trkpt lat="44.9222067" lon="9.5826333"><ele>154.33333333333334</ele><time>2026-04-08T08:58:55.109Z</time></trkpt><trkpt lat="44.922015" lon="9.582585"><ele>154.66666666666666</ele><time>2026-04-08T08:58:56.109Z</time></trkpt><trkpt lat="44.92181" lon="9.5826033"><ele>155.0</ele><time>2026-04-08T08:58:57.108Z</time></trkpt><trkpt lat="44.9215933" lon="9.5826467"><ele>154.0</ele><time>2026-04-08T08:58:58.109Z</time></trkpt><trkpt lat="44.9213667" lon="9.5827067"><ele>153.0</ele><time>2026-04-08T08:58:59.108Z</time></trkpt><trkpt lat="44.921115" lon="9.582785"><ele>150.5</ele><time>2026-04-08T08:59:00.109Z</time></trkpt><trkpt lat="44.9208433" lon="9.5828683"><ele>148.0</ele><time>2026-04-08T08:59:01.109Z</time></trkpt><trkpt lat="44.92055" lon="9.5829683"><ele>148.0</ele><time>2026-04-08T08:59:02.108Z</time></trkpt><trkpt lat="44.92028" lon="9.5830383"><ele>148.0</ele><time>2026-04-08T08:59:03.108Z</time></trkpt><trkpt lat="44.9200267" lon="9.58313"><ele>149.5</ele><time>2026-04-08T08:59:04.109Z</time></trkpt><trkpt lat="44.9197917" lon="9.5831933"><ele>151.0</ele><time>2026-04-08T08:59:05.109Z</time></trkpt><trkpt lat="44.9195617" lon="9.5832517"><ele>151.0</ele><time>2026-04-08T08:59:06.109Z</time></trkpt><trkpt lat="44.9193417" lon="9.5832983"><ele>151.0</ele><time>2026-04-08T08:59:07.108Z</time></trkpt><trkpt lat="44.9191233" lon="9.5832433"><ele>151.0</ele><time>2026-04-08T08:59:08.109Z</time></trkpt><trkpt lat="44.9188983" lon="9.5831867"><ele>151.66666666666669</ele><time>2026-04-08T08:59:09.109Z</time></trkpt><trkpt lat="44.9186767" lon="9.5831167"><ele>152.33333333333334</ele><time>2026-04-08T08:59:10.108Z</time></trkpt><trkpt lat="44.9184667" lon="9.5830383"><ele>153.0</ele><time>2026-04-08T08:59:11.109Z</time></trkpt><trkpt lat="44.9182683" lon="9.5829583"><ele>153.0</ele><time>2026-04-08T08:59:12.109Z</time></trkpt><trkpt lat="44.91809" lon="9.5828667"><ele>153.0</ele><time>2026-04-08T08:59:13.109Z</time></trkpt><trkpt lat="44.91791" lon="9.5828067"><ele>153.0</ele><time>2026-04-08T08:59:14.109Z</time></trkpt><trkpt lat="44.91774" lon="9.58272"><ele>153.0</ele><time>2026-04-08T08:59:15.108Z</time></trkpt><trkpt lat="44.9175717" lon="9.5826467"><ele>153.0</ele><time>2026-04-08T08:59:16.109Z</time></trkpt><trkpt lat="44.9174" lon="9.58259"><ele>153.0</ele><time>2026-04-08T08:59:17.109Z</time></trkpt><trkpt lat="44.9172383" lon="9.5825333"><ele>152.33333333333334</ele><time>2026-04-08T08:59:18.109Z</time></trkpt><trkpt lat="44.917085" lon="9.582485"><ele>151.66666666666669</ele><time>2026-04-08T08:59:19.108Z</time></trkpt><trkpt lat="44.9169417" lon="9.582445"><ele>151.0</ele><time>2026-04-08T08:59:20.108Z</time></trkpt><trkpt lat="44.9167917" lon="9.5824667"><ele>151.0</ele><time>2026-04-08T08:59:21.109Z</time></trkpt><trkpt lat="44.9166317" lon="9.582555"><ele>151.0</ele><time>2026-04-08T08:59:22.109Z</time></trkpt><trkpt lat="44.916455" lon="9.5827033"><ele>151.0</ele><time>2026-04-08T08:59:23.108Z</time></trkpt><trkpt lat="44.916245" lon="9.58288"><ele>148.5</ele><time>2026-04-08T08:59:24.109Z</time></trkpt><trkpt lat="44.9160083" lon="9.58302"><ele>146.0</ele><time>2026-04-08T08:59:25.109Z</time></trkpt><trkpt lat="44.915755" lon="9.58315"><ele>146.0</ele><time>2026-04-08T08:59:26.109Z</time></trkpt><trkpt lat="44.9155033" lon="9.58326"><ele>146.0</ele><time>2026-04-08T08:59:27.109Z</time></trkpt><trkpt lat="44.9152683" lon="9.5833683"><ele>148.33333333333331</ele><time>2026-04-08T08:59:28.109Z</time></trkpt><trkpt lat="44.9150433" lon="9.5834333"><ele>150.66666666666666</ele><time>2026-04-08T08:59:29.109Z</time></trkpt><trkpt lat="44.91484" lon="9.583525"><ele>153.0</ele><time>2026-04-08T08:59:30.109Z</time></trkpt><trkpt lat="44.914655" lon="9.5835917"><ele>153.0</ele><time>2026-04-08T08:59:31.109Z</time></trkpt><trkpt lat="44.9144933" lon="9.5836317"><ele>153.0</ele><time>2026-04-08T08:59:32.108Z</time></trkpt><trkpt lat="44.9143517" lon="9.5836233"><ele>153.0</ele><time>2026-04-08T08:59:33.108Z</time></trkpt><trkpt lat="44.9142217" lon="9.5835683"><ele>153.0</ele><time>2026-04-08T08:59:34.109Z</time></trkpt><trkpt lat="44.914095" lon="9.5834783"><ele>154.25</ele><time>2026-04-08T08:59:35.108Z</time></trkpt><trkpt lat="44.9139617" lon="9.58339"><ele>155.5</ele><time>2026-04-08T08:59:36.109Z</time></trkpt><trkpt lat="44.913825" lon="9.583345"><ele>156.75</ele><time>2026-04-08T08:59:37.109Z</time></trkpt><trkpt lat="44.9136733" lon="9.58335"><ele>158.0</ele><time>2026-04-08T08:59:38.109Z</time></trkpt><trkpt lat="44.913485" lon="9.5834233"><ele>159.0</ele><time>2026-04-08T08:59:39.109Z</time></trkpt><trkpt lat="44.91327" lon="9.5835517"><ele>160.0</ele><time>2026-04-08T08:59:40.108Z</time></trkpt><trkpt lat="44.9130633" lon="9.58372"><ele>156.0</ele><time>2026-04-08T08:59:41.109Z</time></trkpt><trkpt lat="44.9128533" lon="9.583905"><ele>152.0</ele><time>2026-04-08T08:59:42.109Z</time></trkpt><trkpt lat="44.9126517" lon="9.5840517"><ele>155.33333333333331</ele><time>2026-04-08T08:59:43.109Z</time></trkpt><trkpt lat="44.9124517" lon="9.584135"><ele>158.66666666666666</ele><time>2026-04-08T08:59:44.108Z</time></trkpt><trkpt lat="44.91226" lon="9.5841767"><ele>162.0</ele><time>2026-04-08T08:59:45.109Z</time></trkpt><trkpt lat="44.9120783" lon="9.5841883"><ele>162.0</ele><time>2026-04-08T08:59:46.109Z</time></trkpt><trkpt lat="44.9119017" lon="9.5841333"><ele>162.0</ele><time>2026-04-08T08:59:47.109Z</time></trkpt><trkpt lat="44.911725" lon="9.5840167"><ele>162.0</ele><time>2026-04-08T08:59:48.108Z</time></trkpt><trkpt lat="44.9115483" lon="9.5838683"><ele>162.66666666666666</ele><time>2026-04-08T08:59:49.108Z</time></trkpt><trkpt lat="44.9113633" lon="9.5837417"><ele>163.33333333333331</ele><time>2026-04-08T08:59:50.109Z</time></trkpt><trkpt lat="44.9111633" lon="9.58365"><ele>164.0</ele><time>2026-04-08T08:59:51.109Z</time></trkpt><trkpt lat="44.91092" lon="9.5836033"><ele>166.5</ele><time>2026-04-08T08:59:52.109Z</time></trkpt><trkpt lat="44.9106467" lon="9.58357"><ele>169.0</ele><time>2026-04-08T08:59:53.109Z</time></trkpt><trkpt lat="44.9103533" lon="9.5835433"><ele>171.5</ele><time>2026-04-08T08:59:54.109Z</time></trkpt><trkpt lat="44.9100583" lon="9.5835233"><ele>174.0</ele><time>2026-04-08T08:59:55.109Z</time></trkpt><trkpt lat="44.909785" lon="9.5834983"><ele>174.0</ele><time>2026-04-08T08:59:56.109Z</time></trkpt><trkpt lat="44.9095333" lon="9.5834483"><ele>174.0</ele><time>2026-04-08T08:59:57.109Z</time></trkpt><trkpt lat="44.9093183" lon="9.58338"><ele>175.33333333333334</ele><time>2026-04-08T08:59:58.109Z</time></trkpt><trkpt lat="44.9091333" lon="9.5833067"><ele>176.66666666666669</ele><time>2026-04-08T08:59:59.109Z</time></trkpt><trkpt lat="44.908985" lon="9.5832267"><ele>178.0</ele><time>2026-04-08T09:00:00.109Z</time></trkpt><trkpt lat="44.9088617" lon="9.58312"><ele>178.0</ele><time>2026-04-08T09:00:01.109Z</time></trkpt><trkpt lat="44.9087583" lon="9.582975"><ele>178.0</ele><time>2026-04-08T09:00:02.109Z</time></trkpt><trkpt lat="44.90868" lon="9.582785"><ele>178.0</ele><time>2026-04-08T09:00:03.108Z</time></trkpt><trkpt lat="44.9086183" lon="9.5825383"><ele>180.0</ele><time>2026-04-08T09:00:04.109Z</time></trkpt><trkpt lat="44.9085417" lon="9.5822767"><ele>182.0</ele><time>2026-04-08T09:00:05.109Z</time></trkpt><trkpt lat="44.9084667" lon="9.58201"><ele>184.0</ele><time>2026-04-08T09:00:06.109Z</time></trkpt><trkpt lat="44.9083883" lon="9.5817767"><ele>184.0</ele><time>2026-04-08T09:00:07.109Z</time></trkpt><trkpt lat="44.90829" lon="9.581555"><ele>184.0</ele><time>2026-04-08T09:00:08.108Z</time></trkpt><trkpt lat="44.908165" lon="9.5813517"><ele>184.0</ele><time>2026-04-08T09:00:09.109Z</time></trkpt><trkpt lat="44.90803" lon="9.5811517"><ele>184.66666666666669</ele><time>2026-04-08T09:00:10.108Z</time></trkpt><trkpt lat="44.907895" lon="9.5809733"><ele>185.33333333333334</ele><time>2026-04-08T09:00:11.109Z</time></trkpt><trkpt lat="44.9077533" lon="9.5808183"><ele>186.0</ele><time>2026-04-08T09:00:12.108Z</time></trkpt><trkpt lat="44.9076183" lon="9.5806967"><ele>184.0</ele><time>2026-04-08T09:00:13.108Z</time></trkpt><trkpt lat="44.9074767" lon="9.5806183"><ele>182.0</ele><time>2026-04-08T09:00:14.109Z</time></trkpt><trkpt lat="44.9072967" lon="9.5805867"><ele>180.0</ele><time>2026-04-08T09:00:15.109Z</time></trkpt><trkpt lat="44.9071" lon="9.58054"><ele>180.0</ele><time>2026-04-08T09:00:16.109Z</time></trkpt><trkpt lat="44.9068883" lon="9.580445"><ele>180.0</ele><time>2026-04-08T09:00:17.109Z</time></trkpt><trkpt lat="44.9066633" lon="9.58033"><ele>180.5</ele><time>2026-04-08T09:00:18.109Z</time></trkpt><trkpt lat="44.906435" lon="9.5802383"><ele>181.0</ele><time>2026-04-08T09:00:19.109Z</time></trkpt><trkpt lat="44.9062167" lon="9.58016"><ele>181.0</ele><time>2026-04-08T09:00:20.109Z</time></trkpt><trkpt lat="44.9059867" lon="9.5800717"><ele>181.0</ele><time>2026-04-08T09:00:21.109Z</time></trkpt><trkpt lat="44.9057333" lon="9.5800117"><ele>178.0</ele><time>2026-04-08T09:00:22.109Z</time></trkpt><trkpt lat="44.9054783" lon="9.57991"><ele>175.0</ele><time>2026-04-08T09:00:23.108Z</time></trkpt><trkpt lat="44.9052233" lon="9.5798267"><ele>173.0</ele><time>2026-04-08T09:00:24.108Z</time></trkpt><trkpt lat="44.9049817" lon="9.579765"><ele>171.0</ele><time>2026-04-08T09:00:25.109Z</time></trkpt><trkpt lat="44.90475" lon="9.57969"><ele>171.0</ele><time>2026-04-08T09:00:26.109Z</time></trkpt><trkpt lat="44.9045283" lon="9.5796083"><ele>171.0</ele><time>2026-04-08T09:00:27.109Z</time></trkpt><trkpt lat="44.90431" lon="9.5795233"><ele>172.5</ele><time>2026-04-08T09:00:28.109Z</time></trkpt><trkpt lat="44.9041067" lon="9.57934"><ele>174.0</ele><time>2026-04-08T09:00:29.109Z</time></trkpt><trkpt lat="44.9038883" lon="9.5791833"><ele>174.0</ele><time>2026-04-08T09:00:30.109Z</time></trkpt><trkpt lat="44.9036617" lon="9.5790233"><ele>174.0</ele><time>2026-04-08T09:00:31.109Z</time></trkpt><trkpt lat="44.903425" lon="9.578875"><ele>173.5</ele><time>2026-04-08T09:00:32.109Z</time></trkpt><trkpt lat="44.9031933" lon="9.578735"><ele>173.0</ele><time>2026-04-08T09:00:33.109Z</time></trkpt><trkpt lat="44.9029617" lon="9.5786233"><ele>173.0</ele><time>2026-04-08T09:00:34.109Z</time></trkpt><trkpt lat="44.902745" lon="9.578495"><ele>173.0</ele><time>2026-04-08T09:00:35.109Z</time></trkpt><trkpt lat="44.9025317" lon="9.5783783"><ele>172.66666666666666</ele><time>2026-04-08T09:00:36.109Z</time></trkpt><trkpt lat="44.9023267" lon="9.5782767"><ele>172.33333333333334</ele><time>2026-04-08T09:00:37.109Z</time></trkpt><trkpt lat="44.9021333" lon="9.57822"><ele>172.0</ele><time>2026-04-08T09:00:38.109Z</time></trkpt><trkpt lat="44.9019533" lon="9.57819"><ele>172.0</ele><time>2026-04-08T09:00:39.109Z</time></trkpt><trkpt lat="44.9017817" lon="9.5781717"><ele>172.0</ele><time>2026-04-08T09:00:40.109Z</time></trkpt><trkpt lat="44.9016067" lon="9.5781967"><ele>172.0</ele><time>2026-04-08T09:00:41.109Z</time></trkpt><trkpt lat="44.90144" lon="9.5782617"><ele>172.33333333333334</ele><time>2026-04-08T09:00:42.109Z</time></trkpt><trkpt lat="44.90128" lon="9.5783733"><ele>172.66666666666666</ele><time>2026-04-08T09:00:43.108Z</time></trkpt><trkpt lat="44.9011333" lon="9.57852"><ele>173.0</ele><time>2026-04-08T09:00:44.108Z</time></trkpt><trkpt lat="44.9009983" lon="9.5786733"><ele>171.5</ele><time>2026-04-08T09:00:45.109Z</time></trkpt><trkpt lat="44.90088" lon="9.578815"><ele>170.0</ele><time>2026-04-08T09:00:46.109Z</time></trkpt><trkpt lat="44.90077" lon="9.5789283"><ele>168.5</ele><time>2026-04-08T09:00:47.108Z</time></trkpt><trkpt lat="44.9006567" lon="9.5789967"><ele>167.0</ele><time>2026-04-08T09:00:48.109Z</time></trkpt><trkpt lat="44.900545" lon="9.5790283"><ele>167.0</ele><time>2026-04-08T09:00:49.109Z</time></trkpt><trkpt lat="44.900425" lon="9.5790083"><ele>167.0</ele><time>2026-04-08T09:00:50.108Z</time></trkpt><trkpt lat="44.900285" lon="9.5789317"><ele>167.0</ele><time>2026-04-08T09:00:51.109Z</time></trkpt><trkpt lat="44.900125" lon="9.5788467"><ele>167.0</ele><time>2026-04-08T09:00:52.109Z</time></trkpt><trkpt lat="44.89995" lon="9.578795"><ele>166.66666666666666</ele><time>2026-04-08T09:00:53.109Z</time></trkpt><trkpt lat="44.899765" lon="9.578775"><ele>166.33333333333334</ele><time>2026-04-08T09:00:54.108Z</time></trkpt><trkpt lat="44.8995717" lon="9.57875"><ele>166.0</ele><time>2026-04-08T09:00:55.109Z</time></trkpt><trkpt lat="44.8993617" lon="9.5786817"><ele>167.5</ele><time>2026-04-08T09:00:56.108Z</time></trkpt><trkpt lat="44.89913" lon="9.5785833"><ele>169.0</ele><time>2026-04-08T09:00:57.109Z</time></trkpt><trkpt lat="44.8988967" lon="9.5784767"><ele>169.0</ele><time>2026-04-08T09:00:58.108Z</time></trkpt><trkpt lat="44.8986783" lon="9.5783533"><ele>169.0</ele><time>2026-04-08T09:00:59.109Z</time></trkpt><trkpt lat="44.898475" lon="9.578205"><ele>170.33333333333334</ele><time>2026-04-08T09:01:00.109Z</time></trkpt><trkpt lat="44.8983017" lon="9.5780183"><ele>171.66666666666666</ele><time>2026-04-08T09:01:01.109Z</time></trkpt><trkpt lat="44.8981533" lon="9.5778133"><ele>173.0</ele><time>2026-04-08T09:01:02.109Z</time></trkpt><trkpt lat="44.897995" lon="9.5776583"><ele>173.0</ele><time>2026-04-08T09:01:03.109Z</time></trkpt><trkpt lat="44.8978417" lon="9.5775433"><ele>173.0</ele><time>2026-04-08T09:01:04.109Z</time></trkpt><trkpt lat="44.8977017" lon="9.5774567"><ele>173.0</ele><time>2026-04-08T09:01:05.108Z</time></trkpt><trkpt lat="44.8975667" lon="9.5773967"><ele>171.60000000000002</ele><time>2026-04-08T09:01:06.109Z</time></trkpt><trkpt lat="44.89745" lon="9.5773517"><ele>170.20000000000002</ele><time>2026-04-08T09:01:07.109Z</time></trkpt><trkpt lat="44.8973533" lon="9.5773133"><ele>168.8</ele><time>2026-04-08T09:01:08.109Z</time></trkpt><trkpt lat="44.897285" lon="9.5772983"><ele>167.4</ele><time>2026-04-08T09:01:09.108Z</time></trkpt><trkpt lat="44.8971867" lon="9.5773433"><ele>166.0</ele><time>2026-04-08T09:01:11.108Z</time></trkpt><trkpt lat="44.8972233" lon="9.5774417"><ele>166.0</ele><time>2026-04-08T09:01:12.109Z</time></trkpt><trkpt lat="44.8972617" lon="9.577535"><ele>166.0</ele><time>2026-04-08T09:01:13.109Z</time></trkpt><trkpt lat="44.897365" lon="9.5776633"><ele>166.0</ele><time>2026-04-08T09:01:14.109Z</time></trkpt><trkpt lat="44.897485" lon="9.5778183"><ele>166.0</ele><time>2026-04-08T09:01:15.109Z</time></trkpt><trkpt lat="44.8976167" lon="9.5779967"><ele>165.0</ele><time>2026-04-08T09:01:16.109Z</time></trkpt><trkpt lat="44.8977567" lon="9.5781933"><ele>164.0</ele><time>2026-04-08T09:01:17.108Z</time></trkpt><trkpt lat="44.8978983" lon="9.5784"><ele>163.0</ele><time>2026-04-08T09:01:18.109Z</time></trkpt><trkpt lat="44.8980383" lon="9.578605"><ele>162.33333333333334</ele><time>2026-04-08T09:01:19.108Z</time></trkpt><trkpt lat="44.898175" lon="9.5787917"><ele>161.66666666666666</ele><time>2026-04-08T09:01:20.108Z</time></trkpt><trkpt lat="44.8983067" lon="9.5789767"><ele>161.0</ele><time>2026-04-08T09:01:21.109Z</time></trkpt><trkpt lat="44.898445" lon="9.5791483"><ele>161.0</ele><time>2026-04-08T09:01:22.109Z</time></trkpt><trkpt lat="44.898595" lon="9.579295"><ele>161.0</ele><time>2026-04-08T09:01:23.109Z</time></trkpt><trkpt lat="44.89875" lon="9.5794283"><ele>161.0</ele><time>2026-04-08T09:01:24.108Z</time></trkpt><trkpt lat="44.8989117" lon="9.5795533"><ele>159.0</ele><time>2026-04-08T09:01:25.109Z</time></trkpt><trkpt lat="44.8990767" lon="9.5796733"><ele>157.0</ele><time>2026-04-08T09:01:26.108Z</time></trkpt><trkpt lat="44.899245" lon="9.5797883"><ele>155.0</ele><time>2026-04-08T09:01:27.108Z</time></trkpt><trkpt lat="44.899405" lon="9.5799083"><ele>155.0</ele><time>2026-04-08T09:01:28.108Z</time></trkpt><trkpt lat="44.8995667" lon="9.5800233"><ele>155.0</ele><time>2026-04-08T09:01:29.108Z</time></trkpt><trkpt lat="44.89972" lon="9.5801333"><ele>155.0</ele><time>2026-04-08T09:01:30.109Z</time></trkpt><trkpt lat="44.899875" lon="9.5802183"><ele>155.0</ele><time>2026-04-08T09:01:31.109Z</time></trkpt><trkpt lat="44.900025" lon="9.58029"><ele>155.0</ele><time>2026-04-08T09:01:32.109Z</time></trkpt><trkpt lat="44.9001667" lon="9.58035"><ele>155.0</ele><time>2026-04-08T09:01:33.109Z</time></trkpt><trkpt lat="44.9002917" lon="9.5803983"><ele>155.0</ele><time>2026-04-08T09:01:34.109Z</time></trkpt><trkpt lat="44.9003983" lon="9.580455"><ele>152.0</ele><time>2026-04-08T09:01:35.109Z</time></trkpt><trkpt lat="44.9004783" lon="9.580525"><ele>149.0</ele><time>2026-04-08T09:01:36.109Z</time></trkpt><trkpt lat="44.90052" lon="9.5806633"><ele>146.0</ele><time>2026-04-08T09:01:37.108Z</time></trkpt><trkpt lat="44.9005167" lon="9.58087"><ele>143.0</ele><time>2026-04-08T09:01:38.108Z</time></trkpt><trkpt lat="44.9004817" lon="9.5811283"><ele>140.33333333333331</ele><time>2026-04-08T09:01:39.109Z</time></trkpt><trkpt lat="44.90044" lon="9.5814183"><ele>137.66666666666666</ele><time>2026-04-08T09:01:40.109Z</time></trkpt><trkpt lat="44.900395" lon="9.5817383"><ele>135.0</ele><time>2026-04-08T09:01:41.108Z</time></trkpt><trkpt lat="44.900355" lon="9.58209"><ele>135.0</ele><time>2026-04-08T09:01:42.109Z</time></trkpt><trkpt lat="44.9003183" lon="9.5824483"><ele>135.0</ele><time>2026-04-08T09:01:43.109Z</time></trkpt><trkpt lat="44.9002917" lon="9.5827733"><ele>137.33333333333334</ele><time>2026-04-08T09:01:44.109Z</time></trkpt><trkpt lat="44.9002617" lon="9.5830817"><ele>139.66666666666669</ele><time>2026-04-08T09:01:45.108Z</time></trkpt><trkpt lat="44.9002517" lon="9.5833767"><ele>142.0</ele><time>2026-04-08T09:01:46.109Z</time></trkpt><trkpt lat="44.9002717" lon="9.5836683"><ele>143.33333333333334</ele><time>2026-04-08T09:01:47.109Z</time></trkpt><trkpt lat="44.9003383" lon="9.5839683"><ele>144.66666666666666</ele><time>2026-04-08T09:01:48.108Z</time></trkpt><trkpt lat="44.900395" lon="9.5842783"><ele>146.0</ele><time>2026-04-08T09:01:49.109Z</time></trkpt><trkpt lat="44.9004783" lon="9.5845917"><ele>147.0</ele><time>2026-04-08T09:01:50.109Z</time></trkpt><trkpt lat="44.9006033" lon="9.5849083"><ele>148.0</ele><time>2026-04-08T09:01:51.109Z</time></trkpt><trkpt lat="44.90076" lon="9.5852217"><ele>146.5</ele><time>2026-04-08T09:01:52.109Z</time></trkpt><trkpt lat="44.9009183" lon="9.5855317"><ele>145.0</ele><time>2026-04-08T09:01:53.109Z</time></trkpt><trkpt lat="44.9010633" lon="9.5858217"><ele>145.0</ele><time>2026-04-08T09:01:54.109Z</time></trkpt><trkpt lat="44.9012083" lon="9.5860867"><ele>145.0</ele><time>2026-04-08T09:01:55.11Z</time></trkpt><trkpt lat="44.901365" lon="9.58634"><ele>152.0</ele><time>2026-04-08T09:01:56.11Z</time></trkpt><trkpt lat="44.9015517" lon="9.5865467"><ele>159.0</ele><time>2026-04-08T09:01:57.109Z</time></trkpt><trkpt lat="44.901745" lon="9.5867417"><ele>159.0</ele><time>2026-04-08T09:01:58.109Z</time></trkpt><trkpt lat="44.9019267" lon="9.5869167"><ele>159.0</ele><time>2026-04-08T09:01:59.109Z</time></trkpt><trkpt lat="44.9020917" lon="9.58707"><ele>159.0</ele><time>2026-04-08T09:02:00.11Z</time></trkpt><trkpt lat="44.9022133" lon="9.587205"><ele>159.0</ele><time>2026-04-08T09:02:01.11Z</time></trkpt><trkpt lat="44.9023017" lon="9.5873033"><ele>159.0</ele><time>2026-04-08T09:02:02.11Z</time></trkpt><trkpt lat="44.9023733" lon="9.587385"><ele>159.0</ele><time>2026-04-08T09:02:03.11Z</time></trkpt><trkpt lat="44.9024433" lon="9.5874533"><ele>159.0</ele><time>2026-04-08T09:02:04.11Z</time></trkpt><trkpt lat="44.902485" lon="9.58753"><ele>159.0</ele><time>2026-04-08T09:02:05.109Z</time></trkpt><trkpt lat="44.9024417" lon="9.587605"><ele>159.0</ele><time>2026-04-08T09:02:08.11Z</time></trkpt><trkpt lat="44.9023367" lon="9.5875983"><ele>159.0</ele><time>2026-04-08T09:02:10.11Z</time></trkpt><trkpt lat="44.902255" lon="9.5875433"><ele>159.0</ele><time>2026-04-08T09:02:11.11Z</time></trkpt><trkpt lat="44.9021567" lon="9.5874617"><ele>159.0</ele><time>2026-04-08T09:02:12.11Z</time></trkpt><trkpt lat="44.9020267" lon="9.5873533"><ele>159.0</ele><time>2026-04-08T09:02:13.11Z</time></trkpt><trkpt lat="44.90188" lon="9.587225"><ele>159.0</ele><time>2026-04-08T09:02:14.11Z</time></trkpt><trkpt lat="44.901715" lon="9.5870933"><ele>159.0</ele><time>2026-04-08T09:02:15.11Z</time></trkpt><trkpt lat="44.9015317" lon="9.5869483"><ele>159.0</ele><time>2026-04-08T09:02:16.11Z</time></trkpt><trkpt lat="44.9013233" lon="9.58679"><ele>159.0</ele><time>2026-04-08T09:02:17.11Z</time></trkpt><trkpt lat="44.9011017" lon="9.5866333"><ele>159.0</ele><time>2026-04-08T09:02:18.11Z</time></trkpt><trkpt lat="44.9008633" lon="9.5864683"><ele>162.5</ele><time>2026-04-08T09:02:19.11Z</time></trkpt><trkpt lat="44.9006" lon="9.5863283"><ele>166.0</ele><time>2026-04-08T09:02:20.11Z</time></trkpt><trkpt lat="44.9003433" lon="9.58618"><ele>164.5</ele><time>2026-04-08T09:02:21.109Z</time></trkpt><trkpt lat="44.9001217" lon="9.585985"><ele>163.0</ele><time>2026-04-08T09:02:22.11Z</time></trkpt><trkpt lat="44.89986" lon="9.585925"><ele>163.0</ele><time>2026-04-08T09:02:23.11Z</time></trkpt><trkpt lat="44.899605" lon="9.5858683"><ele>163.0</ele><time>2026-04-08T09:02:24.109Z</time></trkpt><trkpt lat="44.899355" lon="9.585805"><ele>166.0</ele><time>2026-04-08T09:02:25.11Z</time></trkpt><trkpt lat="44.89912" lon="9.5857433"><ele>169.0</ele><time>2026-04-08T09:02:26.11Z</time></trkpt><trkpt lat="44.89891" lon="9.5856833"><ele>169.0</ele><time>2026-04-08T09:02:27.11Z</time></trkpt><trkpt lat="44.8987417" lon="9.5856233"><ele>169.0</ele><time>2026-04-08T09:02:28.11Z</time></trkpt><trkpt lat="44.898595" lon="9.5855817"><ele>169.0</ele><time>2026-04-08T09:02:29.11Z</time></trkpt><trkpt lat="44.8984383" lon="9.5855833"><ele>170.66666666666669</ele><time>2026-04-08T09:02:30.11Z</time></trkpt><trkpt lat="44.8982683" lon="9.5856267"><ele>172.33333333333334</ele><time>2026-04-08T09:02:31.11Z</time></trkpt><trkpt lat="44.89808" lon="9.585725"><ele>174.0</ele><time>2026-04-08T09:02:32.11Z</time></trkpt><trkpt lat="44.89789" lon="9.5858033"><ele>174.0</ele><time>2026-04-08T09:02:33.11Z</time></trkpt><trkpt lat="44.8977083" lon="9.58582"><ele>174.0</ele><time>2026-04-08T09:02:34.109Z</time></trkpt><trkpt lat="44.8975183" lon="9.58578"><ele>174.0</ele><time>2026-04-08T09:02:35.109Z</time></trkpt><trkpt lat="44.8973183" lon="9.585685"><ele>176.5</ele><time>2026-04-08T09:02:36.11Z</time></trkpt><trkpt lat="44.897105" lon="9.5855583"><ele>179.0</ele><time>2026-04-08T09:02:37.11Z</time></trkpt><trkpt lat="44.896885" lon="9.58542"><ele>176.0</ele><time>2026-04-08T09:02:38.11Z</time></trkpt><trkpt lat="44.8966683" lon="9.585285"><ele>173.0</ele><time>2026-04-08T09:02:39.11Z</time></trkpt><trkpt lat="44.8964533" lon="9.585175"><ele>173.0</ele><time>2026-04-08T09:02:40.11Z</time></trkpt><trkpt lat="44.8962317" lon="9.585095"><ele>173.0</ele><time>2026-04-08T09:02:41.11Z</time></trkpt><trkpt lat="44.896015" lon="9.58505"><ele>173.0</ele><time>2026-04-08T09:02:42.109Z</time></trkpt><trkpt lat="44.8958033" lon="9.5850117"><ele>175.33333333333331</ele><time>2026-04-08T09:02:43.11Z</time></trkpt><trkpt lat="44.8955883" lon="9.5850283"><ele>177.66666666666666</ele><time>2026-04-08T09:02:44.11Z</time></trkpt><trkpt lat="44.8953733" lon="9.58507"><ele>180.0</ele><time>2026-04-08T09:02:45.11Z</time></trkpt><trkpt lat="44.89515" lon="9.5851317"><ele>181.5</ele><time>2026-04-08T09:02:46.11Z</time></trkpt><trkpt lat="44.894915" lon="9.58519"><ele>183.0</ele><time>2026-04-08T09:02:47.11Z</time></trkpt><trkpt lat="44.8946617" lon="9.58524"><ele>183.0</ele><time>2026-04-08T09:02:48.11Z</time></trkpt><trkpt lat="44.894405" lon="9.585265"><ele>183.0</ele><time>2026-04-08T09:02:49.11Z</time></trkpt><trkpt lat="44.894135" lon="9.585255"><ele>183.0</ele><time>2026-04-08T09:02:50.11Z</time></trkpt><trkpt lat="44.89386" lon="9.5852683"><ele>183.0</ele><time>2026-04-08T09:02:51.11Z</time></trkpt><trkpt lat="44.8935983" lon="9.5852733"><ele>184.0</ele><time>2026-04-08T09:02:52.11Z</time></trkpt><trkpt lat="44.8933633" lon="9.5852717"><ele>185.0</ele><time>2026-04-08T09:02:53.11Z</time></trkpt><trkpt lat="44.8931483" lon="9.58529"><ele>185.0</ele><time>2026-04-08T09:02:54.109Z</time></trkpt><trkpt lat="44.8929517" lon="9.5852867"><ele>185.0</ele><time>2026-04-08T09:02:55.11Z</time></trkpt><trkpt lat="44.892765" lon="9.585305"><ele>185.0</ele><time>2026-04-08T09:02:56.109Z</time></trkpt><trkpt lat="44.8925833" lon="9.5853233"><ele>187.0</ele><time>2026-04-08T09:02:57.11Z</time></trkpt><trkpt lat="44.8924217" lon="9.5853433"><ele>189.0</ele><time>2026-04-08T09:02:58.11Z</time></trkpt><trkpt lat="44.8922583" lon="9.5853683"><ele>191.0</ele><time>2026-04-08T09:02:59.11Z</time></trkpt><trkpt lat="44.8920717" lon="9.58538"><ele>191.5</ele><time>2026-04-08T09:03:00.109Z</time></trkpt><trkpt lat="44.89185" lon="9.5854083"><ele>192.0</ele><time>2026-04-08T09:03:01.11Z</time></trkpt><trkpt lat="44.8916033" lon="9.585395"><ele>192.0</ele><time>2026-04-08T09:03:02.11Z</time></trkpt><trkpt lat="44.8913317" lon="9.585385"><ele>192.0</ele><time>2026-04-08T09:03:03.11Z</time></trkpt><trkpt lat="44.8910483" lon="9.5854033"><ele>191.5</ele><time>2026-04-08T09:03:04.109Z</time></trkpt><trkpt lat="44.8907717" lon="9.5854133"><ele>191.0</ele><time>2026-04-08T09:03:05.11Z</time></trkpt><trkpt lat="44.890515" lon="9.58544"><ele>191.0</ele><time>2026-04-08T09:03:06.11Z</time></trkpt><trkpt lat="44.89028" lon="9.5854617"><ele>191.0</ele><time>2026-04-08T09:03:07.11Z</time></trkpt><trkpt lat="44.8900583" lon="9.5855183"><ele>191.66666666666666</ele><time>2026-04-08T09:03:08.11Z</time></trkpt><trkpt lat="44.889865" lon="9.585555"><ele>192.33333333333331</ele><time>2026-04-08T09:03:09.11Z</time></trkpt><trkpt lat="44.889685" lon="9.585575"><ele>193.0</ele><time>2026-04-08T09:03:10.11Z</time></trkpt><trkpt lat="44.8895067" lon="9.5855483"><ele>193.0</ele><time>2026-04-08T09:03:11.11Z</time></trkpt><trkpt lat="44.889335" lon="9.5854483"><ele>193.0</ele><time>2026-04-08T09:03:12.11Z</time></trkpt><trkpt lat="44.889165" lon="9.5852967"><ele>193.0</ele><time>2026-04-08T09:03:13.109Z</time></trkpt><trkpt lat="44.8890017" lon="9.5850767"><ele>191.66666666666666</ele><time>2026-04-08T09:03:14.109Z</time></trkpt><trkpt lat="44.8888867" lon="9.5848283"><ele>190.33333333333331</ele><time>2026-04-08T09:03:15.109Z</time></trkpt><trkpt lat="44.8887683" lon="9.5846133"><ele>189.0</ele><time>2026-04-08T09:03:16.11Z</time></trkpt><trkpt lat="44.8886567" lon="9.5844067"><ele>187.33333333333334</ele><time>2026-04-08T09:03:17.11Z</time></trkpt><trkpt lat="44.888515" lon="9.58426"><ele>185.66666666666669</ele><time>2026-04-08T09:03:18.109Z</time></trkpt><trkpt lat="44.8883567" lon="9.5841683"><ele>184.0</ele><time>2026-04-08T09:03:19.11Z</time></trkpt><trkpt lat="44.8881833" lon="9.5841533"><ele>184.0</ele><time>2026-04-08T09:03:20.11Z</time></trkpt><trkpt lat="44.8880133" lon="9.5841633"><ele>184.0</ele><time>2026-04-08T09:03:21.11Z</time></trkpt><trkpt lat="44.8878533" lon="9.5841417"><ele>184.0</ele><time>2026-04-08T09:03:22.11Z</time></trkpt><trkpt lat="44.8876967" lon="9.584075"><ele>184.0</ele><time>2026-04-08T09:03:23.109Z</time></trkpt><trkpt lat="44.887545" lon="9.583945"><ele>184.0</ele><time>2026-04-08T09:03:24.11Z</time></trkpt><trkpt lat="44.887415" lon="9.5837683"><ele>184.0</ele><time>2026-04-08T09:03:25.11Z</time></trkpt><trkpt lat="44.88729" lon="9.5835767"><ele>182.66666666666669</ele><time>2026-04-08T09:03:26.11Z</time></trkpt><trkpt lat="44.8871483" lon="9.58342"><ele>181.33333333333334</ele><time>2026-04-08T09:03:27.11Z</time></trkpt><trkpt lat="44.8869833" lon="9.58333"><ele>180.0</ele><time>2026-04-08T09:03:28.11Z</time></trkpt><trkpt lat="44.88681" lon="9.5832967"><ele>179.66666666666666</ele><time>2026-04-08T09:03:29.11Z</time></trkpt><trkpt lat="44.8866433" lon="9.5833183"><ele>179.33333333333331</ele><time>2026-04-08T09:03:30.11Z</time></trkpt><trkpt lat="44.886475" lon="9.5833217"><ele>179.0</ele><time>2026-04-08T09:03:31.109Z</time></trkpt><trkpt lat="44.88631" lon="9.5832633"><ele>179.0</ele><time>2026-04-08T09:03:32.11Z</time></trkpt><trkpt lat="44.8861483" lon="9.5831383"><ele>179.0</ele><time>2026-04-08T09:03:33.11Z</time></trkpt><trkpt lat="44.8859883" lon="9.5829583"><ele>179.0</ele><time>2026-04-08T09:03:34.11Z</time></trkpt><trkpt lat="44.8858467" lon="9.5826933"><ele>179.5</ele><time>2026-04-08T09:03:35.11Z</time></trkpt><trkpt lat="44.8857167" lon="9.5824183"><ele>180.0</ele><time>2026-04-08T09:03:36.11Z</time></trkpt><trkpt lat="44.8856067" lon="9.5821417"><ele>177.0</ele><time>2026-04-08T09:03:37.109Z</time></trkpt><trkpt lat="44.885515" lon="9.5818533"><ele>174.0</ele><time>2026-04-08T09:03:38.11Z</time></trkpt><trkpt lat="44.8854683" lon="9.5815333"><ele>174.0</ele><time>2026-04-08T09:03:39.11Z</time></trkpt><trkpt lat="44.8854417" lon="9.5812133"><ele>174.0</ele><time>2026-04-08T09:03:40.11Z</time></trkpt><trkpt lat="44.8853917" lon="9.5809033"><ele>173.0</ele><time>2026-04-08T09:03:41.11Z</time></trkpt><trkpt lat="44.8853033" lon="9.5805933"><ele>172.0</ele><time>2026-04-08T09:03:42.11Z</time></trkpt><trkpt lat="44.8851817" lon="9.5802817"><ele>177.5</ele><time>2026-04-08T09:03:43.109Z</time></trkpt><trkpt lat="44.88507" lon="9.5799483"><ele>183.0</ele><time>2026-04-08T09:03:44.11Z</time></trkpt><trkpt lat="44.8849817" lon="9.5795833"><ele>181.0</ele><time>2026-04-08T09:03:45.11Z</time></trkpt><trkpt lat="44.8849133" lon="9.579195"><ele>179.0</ele><time>2026-04-08T09:03:46.11Z</time></trkpt><trkpt lat="44.8848433" lon="9.5787933"><ele>178.0</ele><time>2026-04-08T09:03:47.109Z</time></trkpt><trkpt lat="44.8847767" lon="9.5783917"><ele>177.0</ele><time>2026-04-08T09:03:48.11Z</time></trkpt><trkpt lat="44.8847183" lon="9.5780133"><ele>173.5</ele><time>2026-04-08T09:03:49.11Z</time></trkpt><trkpt lat="44.884665" lon="9.5776533"><ele>170.0</ele><time>2026-04-08T09:03:50.11Z</time></trkpt><trkpt lat="44.88464" lon="9.5773183"><ele>168.33333333333331</ele><time>2026-04-08T09:03:51.11Z</time></trkpt><trkpt lat="44.8846233" lon="9.5770083"><ele>166.66666666666666</ele><time>2026-04-08T09:03:52.11Z</time></trkpt><trkpt lat="44.884615" lon="9.5767367"><ele>165.0</ele><time>2026-04-08T09:03:53.11Z</time></trkpt><trkpt lat="44.8845917" lon="9.576495"><ele>165.0</ele><time>2026-04-08T09:03:54.109Z</time></trkpt><trkpt lat="44.8845317" lon="9.5763117"><ele>165.0</ele><time>2026-04-08T09:03:55.11Z</time></trkpt><trkpt lat="44.8844283" lon="9.5761183"><ele>165.0</ele><time>2026-04-08T09:03:56.11Z</time></trkpt><trkpt lat="44.884275" lon="9.57596"><ele>167.66666666666666</ele><time>2026-04-08T09:03:57.109Z</time></trkpt><trkpt lat="44.884115" lon="9.5758117"><ele>170.33333333333331</ele><time>2026-04-08T09:03:58.11Z</time></trkpt><trkpt lat="44.8839667" lon="9.5756517"><ele>173.0</ele><time>2026-04-08T09:03:59.11Z</time></trkpt><trkpt lat="44.883835" lon="9.5754633"><ele>171.0</ele><time>2026-04-08T09:04:00.109Z</time></trkpt><trkpt lat="44.88376" lon="9.5752417"><ele>169.0</ele><time>2026-04-08T09:04:01.11Z</time></trkpt><trkpt lat="44.8837483" lon="9.5749633"><ele>167.0</ele><time>2026-04-08T09:04:02.109Z</time></trkpt><trkpt lat="44.88379" lon="9.57464"><ele>167.33333333333331</ele><time>2026-04-08T09:04:03.11Z</time></trkpt><trkpt lat="44.883835" lon="9.5743417"><ele>167.66666666666666</ele><time>2026-04-08T09:04:04.109Z</time></trkpt><trkpt lat="44.88388" lon="9.57406"><ele>168.0</ele><time>2026-04-08T09:04:05.11Z</time></trkpt><trkpt lat="44.8838917" lon="9.5737767"><ele>168.0</ele><time>2026-04-08T09:04:06.11Z</time></trkpt><trkpt lat="44.8838483" lon="9.5734817"><ele>168.0</ele><time>2026-04-08T09:04:07.11Z</time></trkpt><trkpt lat="44.8837567" lon="9.5731783"><ele>168.0</ele><time>2026-04-08T09:04:08.11Z</time></trkpt><trkpt lat="44.8836483" lon="9.57286"><ele>166.5</ele><time>2026-04-08T09:04:09.11Z</time></trkpt><trkpt lat="44.883535" lon="9.5725333"><ele>165.0</ele><time>2026-04-08T09:04:10.11Z</time></trkpt><trkpt lat="44.883405" lon="9.5721883"><ele>167.0</ele><time>2026-04-08T09:04:11.109Z</time></trkpt><trkpt lat="44.8832717" lon="9.5718317"><ele>169.0</ele><time>2026-04-08T09:04:12.11Z</time></trkpt><trkpt lat="44.88314" lon="9.5714617"><ele>167.0</ele><time>2026-04-08T09:04:13.11Z</time></trkpt><trkpt lat="44.8830033" lon="9.5710833"><ele>165.0</ele><time>2026-04-08T09:04:14.11Z</time></trkpt><trkpt lat="44.882865" lon="9.5707017"><ele>164.0</ele><time>2026-04-08T09:04:15.11Z</time></trkpt><trkpt lat="44.882725" lon="9.57031"><ele>163.0</ele><time>2026-04-08T09:04:16.11Z</time></trkpt><trkpt lat="44.88259" lon="9.569905"><ele>167.0</ele><time>2026-04-08T09:04:17.11Z</time></trkpt><trkpt lat="44.88245" lon="9.5695033"><ele>171.0</ele><time>2026-04-08T09:04:18.11Z</time></trkpt><trkpt lat="44.8823033" lon="9.569105"><ele>171.0</ele><time>2026-04-08T09:04:19.11Z</time></trkpt><trkpt lat="44.8821667" lon="9.5687"><ele>171.0</ele><time>2026-04-08T09:04:20.11Z</time></trkpt><trkpt lat="44.8820333" lon="9.5683117"><ele>169.0</ele><time>2026-04-08T09:04:21.109Z</time></trkpt><trkpt lat="44.8819067" lon="9.5679433"><ele>167.0</ele><time>2026-04-08T09:04:22.11Z</time></trkpt><trkpt lat="44.8817783" lon="9.56759"><ele>168.0</ele><time>2026-04-08T09:04:23.109Z</time></trkpt><trkpt lat="44.88163" lon="9.5672567"><ele>169.0</ele><time>2026-04-08T09:04:24.11Z</time></trkpt><trkpt lat="44.8814533" lon="9.566945"><ele>169.0</ele><time>2026-04-08T09:04:25.109Z</time></trkpt><trkpt lat="44.881245" lon="9.5666583"><ele>169.0</ele><time>2026-04-08T09:04:26.109Z</time></trkpt><trkpt lat="44.88104" lon="9.5663583"><ele>169.0</ele><time>2026-04-08T09:04:27.11Z</time></trkpt><trkpt lat="44.88081" lon="9.56607"><ele>169.0</ele><time>2026-04-08T09:04:28.11Z</time></trkpt><trkpt lat="44.8805817" lon="9.5657717"><ele>169.0</ele><time>2026-04-08T09:04:29.11Z</time></trkpt><trkpt lat="44.8803517" lon="9.5654633"><ele>169.0</ele><time>2026-04-08T09:04:30.11Z</time></trkpt><trkpt lat="44.8801233" lon="9.5651467"><ele>171.5</ele><time>2026-04-08T09:04:31.109Z</time></trkpt><trkpt lat="44.879885" lon="9.56484"><ele>174.0</ele><time>2026-04-08T09:04:32.11Z</time></trkpt><trkpt lat="44.8796417" lon="9.5645267"><ele>177.5</ele><time>2026-04-08T09:04:33.11Z</time></trkpt><trkpt lat="44.8793933" lon="9.56421"><ele>181.0</ele><time>2026-04-08T09:04:34.11Z</time></trkpt><trkpt lat="44.8791467" lon="9.5638883"><ele>173.5</ele><time>2026-04-08T09:04:35.109Z</time></trkpt><trkpt lat="44.8789017" lon="9.5635867"><ele>166.0</ele><time>2026-04-08T09:04:36.109Z</time></trkpt><trkpt lat="44.87868" lon="9.5632783"><ele>166.0</ele><time>2026-04-08T09:04:37.109Z</time></trkpt><trkpt lat="44.878455" lon="9.5629883"><ele>166.0</ele><time>2026-04-08T09:04:38.11Z</time></trkpt><trkpt lat="44.8782283" lon="9.5627167"><ele>170.0</ele><time>2026-04-08T09:04:39.11Z</time></trkpt><trkpt lat="44.8779967" lon="9.5624583"><ele>174.0</ele><time>2026-04-08T09:04:40.109Z</time></trkpt><trkpt lat="44.8777617" lon="9.5622183"><ele>174.5</ele><time>2026-04-08T09:04:41.11Z</time></trkpt><trkpt lat="44.877545" lon="9.5619817"><ele>175.0</ele><time>2026-04-08T09:04:42.11Z</time></trkpt><trkpt lat="44.877335" lon="9.561755"><ele>175.0</ele><time>2026-04-08T09:04:43.11Z</time></trkpt><trkpt lat="44.8771217" lon="9.5615583"><ele>175.0</ele><time>2026-04-08T09:04:44.11Z</time></trkpt><trkpt lat="44.8769217" lon="9.561365"><ele>175.0</ele><time>2026-04-08T09:04:45.11Z</time></trkpt><trkpt lat="44.876725" lon="9.561185"><ele>175.0</ele><time>2026-04-08T09:04:46.11Z</time></trkpt><trkpt lat="44.8765217" lon="9.5610283"><ele>175.0</ele><time>2026-04-08T09:04:47.109Z</time></trkpt><trkpt lat="44.8763033" lon="9.560905"><ele>175.0</ele><time>2026-04-08T09:04:48.11Z</time></trkpt><trkpt lat="44.8760717" lon="9.560825"><ele>175.5</ele><time>2026-04-08T09:04:49.11Z</time></trkpt><trkpt lat="44.8758317" lon="9.5607917"><ele>176.0</ele><time>2026-04-08T09:04:50.109Z</time></trkpt><trkpt lat="44.8755883" lon="9.5608367"><ele>176.0</ele><time>2026-04-08T09:04:51.11Z</time></trkpt><trkpt lat="44.87535" lon="9.5608967"><ele>176.0</ele><time>2026-04-08T09:04:52.11Z</time></trkpt><trkpt lat="44.875125" lon="9.5609483"><ele>176.33333333333331</ele><time>2026-04-08T09:04:53.109Z</time></trkpt><trkpt lat="44.8749133" lon="9.5609867"><ele>176.66666666666666</ele><time>2026-04-08T09:04:54.11Z</time></trkpt><trkpt lat="44.8747083" lon="9.560985"><ele>177.0</ele><time>2026-04-08T09:04:55.11Z</time></trkpt><trkpt lat="44.8744967" lon="9.5609467"><ele>177.0</ele><time>2026-04-08T09:04:56.11Z</time></trkpt><trkpt lat="44.874305" lon="9.560795"><ele>177.0</ele><time>2026-04-08T09:04:57.11Z</time></trkpt><trkpt lat="44.8740917" lon="9.5606267"><ele>178.0</ele><time>2026-04-08T09:04:58.109Z</time></trkpt><trkpt lat="44.873865" lon="9.5604517"><ele>179.0</ele><time>2026-04-08T09:04:59.11Z</time></trkpt><trkpt lat="44.8736267" lon="9.560275"><ele>180.0</ele><time>2026-04-08T09:05:00.11Z</time></trkpt><trkpt lat="44.8733867" lon="9.5600967"><ele>181.0</ele><time>2026-04-08T09:05:01.11Z</time></trkpt><trkpt lat="44.873145" lon="9.559925"><ele>181.0</ele><time>2026-04-08T09:05:02.11Z</time></trkpt><trkpt lat="44.87292" lon="9.5597433"><ele>181.0</ele><time>2026-04-08T09:05:03.109Z</time></trkpt><trkpt lat="44.8727017" lon="9.55959"><ele>180.0</ele><time>2026-04-08T09:05:04.11Z</time></trkpt><trkpt lat="44.8724983" lon="9.5594333"><ele>179.0</ele><time>2026-04-08T09:05:05.11Z</time></trkpt><trkpt lat="44.872315" lon="9.5592867"><ele>178.0</ele><time>2026-04-08T09:05:06.11Z</time></trkpt><trkpt lat="44.87216" lon="9.5590883"><ele>178.0</ele><time>2026-04-08T09:05:07.11Z</time></trkpt><trkpt lat="44.8720217" lon="9.5588783"><ele>178.0</ele><time>2026-04-08T09:05:08.11Z</time></trkpt><trkpt lat="44.8719217" lon="9.5586217"><ele>178.0</ele><time>2026-04-08T09:05:09.109Z</time></trkpt><trkpt lat="44.8718367" lon="9.558365"><ele>178.0</ele><time>2026-04-08T09:05:10.11Z</time></trkpt><trkpt lat="44.87173" lon="9.5581183"><ele>178.0</ele><time>2026-04-08T09:05:11.11Z</time></trkpt><trkpt lat="44.871605" lon="9.557895"><ele>178.0</ele><time>2026-04-08T09:05:12.11Z</time></trkpt><trkpt lat="44.8714467" lon="9.557715"><ele>178.0</ele><time>2026-04-08T09:05:13.11Z</time></trkpt><trkpt lat="44.8712667" lon="9.5575917"><ele>178.0</ele><time>2026-04-08T09:05:14.11Z</time></trkpt><trkpt lat="44.8710633" lon="9.557535"><ele>178.0</ele><time>2026-04-08T09:05:15.11Z</time></trkpt><trkpt lat="44.8708333" lon="9.5575533"><ele>182.0</ele><time>2026-04-08T09:05:16.11Z</time></trkpt><trkpt lat="44.8705583" lon="9.557625"><ele>186.0</ele><time>2026-04-08T09:05:17.11Z</time></trkpt><trkpt lat="44.8702867" lon="9.5577083"><ele>185.0</ele><time>2026-04-08T09:05:18.11Z</time></trkpt><trkpt lat="44.8700283" lon="9.55779"><ele>184.0</ele><time>2026-04-08T09:05:19.11Z</time></trkpt><trkpt lat="44.86979" lon="9.55786"><ele>184.0</ele><time>2026-04-08T09:05:20.11Z</time></trkpt><trkpt lat="44.869555" lon="9.55788"><ele>184.0</ele><time>2026-04-08T09:05:21.109Z</time></trkpt><trkpt lat="44.86933" lon="9.557835"><ele>184.33333333333334</ele><time>2026-04-08T09:05:22.11Z</time></trkpt><trkpt lat="44.8691283" lon="9.557775"><ele>184.66666666666666</ele><time>2026-04-08T09:05:23.11Z</time></trkpt><trkpt lat="44.8689417" lon="9.5576717"><ele>185.0</ele><time>2026-04-08T09:05:24.11Z</time></trkpt><trkpt lat="44.8687667" lon="9.55751"><ele>185.0</ele><time>2026-04-08T09:05:25.11Z</time></trkpt><trkpt lat="44.8686067" lon="9.5572867"><ele>185.0</ele><time>2026-04-08T09:05:26.11Z</time></trkpt><trkpt lat="44.868475" lon="9.5570083"><ele>186.0</ele><time>2026-04-08T09:05:27.11Z</time></trkpt><trkpt lat="44.8683533" lon="9.5567317"><ele>187.0</ele><time>2026-04-08T09:05:28.11Z</time></trkpt><trkpt lat="44.868235" lon="9.5564883"><ele>188.0</ele><time>2026-04-08T09:05:29.11Z</time></trkpt><trkpt lat="44.868065" lon="9.5563167"><ele>184.0</ele><time>2026-04-08T09:05:30.11Z</time></trkpt><trkpt lat="44.8678617" lon="9.5561983"><ele>180.0</ele><time>2026-04-08T09:05:31.109Z</time></trkpt><trkpt lat="44.8676183" lon="9.5561217"><ele>183.0</ele><time>2026-04-08T09:05:32.109Z</time></trkpt><trkpt lat="44.8673783" lon="9.5560567"><ele>186.0</ele><time>2026-04-08T09:05:33.11Z</time></trkpt><trkpt lat="44.8671617" lon="9.55595"><ele>186.0</ele><time>2026-04-08T09:05:34.11Z</time></trkpt><trkpt lat="44.86696" lon="9.5557817"><ele>186.0</ele><time>2026-04-08T09:05:35.11Z</time></trkpt><trkpt lat="44.866765" lon="9.55556"><ele>186.0</ele><time>2026-04-08T09:05:36.11Z</time></trkpt><trkpt lat="44.86658" lon="9.5553233"><ele>186.0</ele><time>2026-04-08T09:05:37.11Z</time></trkpt><trkpt lat="44.866415" lon="9.5550967"><ele>186.0</ele><time>2026-04-08T09:05:38.11Z</time></trkpt><trkpt lat="44.866265" lon="9.5548867"><ele>186.0</ele><time>2026-04-08T09:05:39.109Z</time></trkpt><trkpt lat="44.8661117" lon="9.5547283"><ele>186.0</ele><time>2026-04-08T09:05:40.109Z</time></trkpt><trkpt lat="44.8659583" lon="9.554615"><ele>189.0</ele><time>2026-04-08T09:05:41.109Z</time></trkpt><trkpt lat="44.86578" lon="9.5545633"><ele>192.0</ele><time>2026-04-08T09:05:42.11Z</time></trkpt><trkpt lat="44.8655733" lon="9.55457"><ele>195.0</ele><time>2026-04-08T09:05:43.11Z</time></trkpt><trkpt lat="44.86533" lon="9.554645"><ele>194.0</ele><time>2026-04-08T09:05:44.11Z</time></trkpt><trkpt lat="44.8650767" lon="9.554735"><ele>193.0</ele><time>2026-04-08T09:05:45.109Z</time></trkpt><trkpt lat="44.8648283" lon="9.55482"><ele>193.0</ele><time>2026-04-08T09:05:46.109Z</time></trkpt><trkpt lat="44.8645867" lon="9.5549033"><ele>193.0</ele><time>2026-04-08T09:05:47.11Z</time></trkpt><trkpt lat="44.8643533" lon="9.5549833"><ele>191.33333333333331</ele><time>2026-04-08T09:05:48.11Z</time></trkpt><trkpt lat="44.8641333" lon="9.5550617"><ele>189.66666666666666</ele><time>2026-04-08T09:05:49.11Z</time></trkpt><trkpt lat="44.86392" lon="9.55513"><ele>188.0</ele><time>2026-04-08T09:05:50.11Z</time></trkpt><trkpt lat="44.86371" lon="9.5551783"><ele>188.0</ele><time>2026-04-08T09:05:51.11Z</time></trkpt><trkpt lat="44.86351" lon="9.5552017"><ele>188.0</ele><time>2026-04-08T09:05:52.11Z</time></trkpt><trkpt lat="44.8633133" lon="9.5551683"><ele>188.0</ele><time>2026-04-08T09:05:53.11Z</time></trkpt><trkpt lat="44.8631267" lon="9.555075"><ele>188.0</ele><time>2026-04-08T09:05:54.11Z</time></trkpt><trkpt lat="44.8629617" lon="9.55494"><ele>188.0</ele><time>2026-04-08T09:05:55.11Z</time></trkpt><trkpt lat="44.8628267" lon="9.5547267"><ele>188.0</ele><time>2026-04-08T09:05:56.11Z</time></trkpt><trkpt lat="44.8626933" lon="9.5544267"><ele>189.5</ele><time>2026-04-08T09:05:57.11Z</time></trkpt><trkpt lat="44.8625583" lon="9.55415"><ele>191.0</ele><time>2026-04-08T09:05:58.11Z</time></trkpt><trkpt lat="44.8624" lon="9.5539083"><ele>185.5</ele><time>2026-04-08T09:05:59.11Z</time></trkpt><trkpt lat="44.86222" lon="9.5537017"><ele>180.0</ele><time>2026-04-08T09:06:00.11Z</time></trkpt><trkpt lat="44.8620317" lon="9.553525"><ele>180.0</ele><time>2026-04-08T09:06:01.11Z</time></trkpt><trkpt lat="44.8618483" lon="9.5533467"><ele>180.0</ele><time>2026-04-08T09:06:02.11Z</time></trkpt><trkpt lat="44.8616867" lon="9.5531267"><ele>180.0</ele><time>2026-04-08T09:06:03.11Z</time></trkpt><trkpt lat="44.8615517" lon="9.552865"><ele>182.5</ele><time>2026-04-08T09:06:04.109Z</time></trkpt><trkpt lat="44.861425" lon="9.5525783"><ele>185.0</ele><time>2026-04-08T09:06:05.11Z</time></trkpt><trkpt lat="44.86129" lon="9.5522967"><ele>186.0</ele><time>2026-04-08T09:06:06.11Z</time></trkpt><trkpt lat="44.8611383" lon="9.552025"><ele>187.0</ele><time>2026-04-08T09:06:07.11Z</time></trkpt><trkpt lat="44.8609417" lon="9.5518"><ele>187.0</ele><time>2026-04-08T09:06:08.11Z</time></trkpt><trkpt lat="44.8607233" lon="9.5515767"><ele>187.0</ele><time>2026-04-08T09:06:09.11Z</time></trkpt><trkpt lat="44.8604917" lon="9.55134"><ele>190.5</ele><time>2026-04-08T09:06:10.11Z</time></trkpt><trkpt lat="44.860265" lon="9.551065"><ele>194.0</ele><time>2026-04-08T09:06:11.11Z</time></trkpt><trkpt lat="44.8600417" lon="9.5507683"><ele>194.0</ele><time>2026-04-08T09:06:12.109Z</time></trkpt><trkpt lat="44.85981" lon="9.5504817"><ele>194.0</ele><time>2026-04-08T09:06:13.109Z</time></trkpt><trkpt lat="44.859565" lon="9.55021"><ele>197.5</ele><time>2026-04-08T09:06:14.109Z</time></trkpt><trkpt lat="44.8593017" lon="9.5499633"><ele>201.0</ele><time>2026-04-08T09:06:15.11Z</time></trkpt><trkpt lat="44.8590417" lon="9.549705"><ele>186.5</ele><time>2026-04-08T09:06:16.11Z</time></trkpt><trkpt lat="44.858775" lon="9.549425"><ele>172.0</ele><time>2026-04-08T09:06:17.11Z</time></trkpt><trkpt lat="44.8585367" lon="9.5491617"><ele>174.0</ele><time>2026-04-08T09:06:18.11Z</time></trkpt><trkpt lat="44.85831" lon="9.5489233"><ele>176.0</ele><time>2026-04-08T09:06:19.109Z</time></trkpt><trkpt lat="44.858105" lon="9.5486967"><ele>176.0</ele><time>2026-04-08T09:06:20.11Z</time></trkpt><trkpt lat="44.8579233" lon="9.5484767"><ele>176.0</ele><time>2026-04-08T09:06:21.11Z</time></trkpt><trkpt lat="44.8577167" lon="9.5483233"><ele>179.0</ele><time>2026-04-08T09:06:22.109Z</time></trkpt><trkpt lat="44.85751" lon="9.5482133"><ele>182.0</ele><time>2026-04-08T09:06:23.11Z</time></trkpt><trkpt lat="44.8573083" lon="9.5481183"><ele>185.0</ele><time>2026-04-08T09:06:24.109Z</time></trkpt><trkpt lat="44.85709" lon="9.5480117"><ele>185.0</ele><time>2026-04-08T09:06:25.109Z</time></trkpt><trkpt lat="44.85687" lon="9.5479217"><ele>185.0</ele><time>2026-04-08T09:06:26.11Z</time></trkpt><trkpt lat="44.856655" lon="9.54783"><ele>183.0</ele><time>2026-04-08T09:06:27.11Z</time></trkpt><trkpt lat="44.8564467" lon="9.5477367"><ele>181.0</ele><time>2026-04-08T09:06:28.11Z</time></trkpt><trkpt lat="44.856245" lon="9.5476133"><ele>179.0</ele><time>2026-04-08T09:06:29.11Z</time></trkpt><trkpt lat="44.8560467" lon="9.5475083"><ele>180.33333333333331</ele><time>2026-04-08T09:06:30.11Z</time></trkpt><trkpt lat="44.8558617" lon="9.54735"><ele>181.66666666666666</ele><time>2026-04-08T09:06:31.11Z</time></trkpt><trkpt lat="44.85569" lon="9.5471483"><ele>183.0</ele><time>2026-04-08T09:06:32.11Z</time></trkpt><trkpt lat="44.8555067" lon="9.5469117"><ele>183.0</ele><time>2026-04-08T09:06:33.11Z</time></trkpt><trkpt lat="44.8553083" lon="9.546655"><ele>183.0</ele><time>2026-04-08T09:06:34.109Z</time></trkpt><trkpt lat="44.8551" lon="9.5463967"><ele>183.0</ele><time>2026-04-08T09:06:35.11Z</time></trkpt><trkpt lat="44.854895" lon="9.5461533"><ele>183.0</ele><time>2026-04-08T09:06:36.11Z</time></trkpt><trkpt lat="44.8547033" lon="9.5459067"><ele>183.0</ele><time>2026-04-08T09:06:37.11Z</time></trkpt><trkpt lat="44.854525" lon="9.545645"><ele>183.0</ele><time>2026-04-08T09:06:38.11Z</time></trkpt><trkpt lat="44.8543517" lon="9.5453717"><ele>186.0</ele><time>2026-04-08T09:06:39.11Z</time></trkpt><trkpt lat="44.8542067" lon="9.5450817"><ele>189.0</ele><time>2026-04-08T09:06:40.11Z</time></trkpt><trkpt lat="44.85406" lon="9.544815"><ele>185.5</ele><time>2026-04-08T09:06:41.11Z</time></trkpt><trkpt lat="44.8539317" lon="9.54454"><ele>182.0</ele><time>2026-04-08T09:06:42.11Z</time></trkpt><trkpt lat="44.853785" lon="9.5442717"><ele>182.0</ele><time>2026-04-08T09:06:43.11Z</time></trkpt><trkpt lat="44.8537217" lon="9.543945"><ele>182.0</ele><time>2026-04-08T09:06:44.109Z</time></trkpt><trkpt lat="44.8536783" lon="9.5436133"><ele>181.33333333333331</ele><time>2026-04-08T09:06:45.11Z</time></trkpt><trkpt lat="44.8536317" lon="9.54331"><ele>180.66666666666666</ele><time>2026-04-08T09:06:46.11Z</time></trkpt><trkpt lat="44.8535683" lon="9.5430183"><ele>180.0</ele><time>2026-04-08T09:06:47.11Z</time></trkpt><trkpt lat="44.853475" lon="9.5427367"><ele>183.66666666666666</ele><time>2026-04-08T09:06:48.11Z</time></trkpt><trkpt lat="44.8533517" lon="9.5424717"><ele>187.33333333333331</ele><time>2026-04-08T09:06:49.11Z</time></trkpt><trkpt lat="44.8532" lon="9.5422383"><ele>191.0</ele><time>2026-04-08T09:06:50.109Z</time></trkpt><trkpt lat="44.8529933" lon="9.5420483"><ele>192.0</ele><time>2026-04-08T09:06:51.109Z</time></trkpt><trkpt lat="44.852755" lon="9.5418783"><ele>193.0</ele><time>2026-04-08T09:06:52.11Z</time></trkpt><trkpt lat="44.8525133" lon="9.5417167"><ele>193.0</ele><time>2026-04-08T09:06:53.11Z</time></trkpt><trkpt lat="44.8522883" lon="9.5415717"><ele>193.0</ele><time>2026-04-08T09:06:54.11Z</time></trkpt><trkpt lat="44.8520767" lon="9.5414467"><ele>193.0</ele><time>2026-04-08T09:06:55.11Z</time></trkpt><trkpt lat="44.8518867" lon="9.5413333"><ele>193.0</ele><time>2026-04-08T09:06:56.109Z</time></trkpt><trkpt lat="44.851725" lon="9.541225"><ele>193.0</ele><time>2026-04-08T09:06:57.11Z</time></trkpt><trkpt lat="44.8515667" lon="9.541135"><ele>192.25</ele><time>2026-04-08T09:06:58.11Z</time></trkpt><trkpt lat="44.8514217" lon="9.5410533"><ele>191.5</ele><time>2026-04-08T09:06:59.11Z</time></trkpt><trkpt lat="44.8512883" lon="9.5409717"><ele>190.75</ele><time>2026-04-08T09:07:00.11Z</time></trkpt><trkpt lat="44.8511683" lon="9.5409117"><ele>190.0</ele><time>2026-04-08T09:07:01.11Z</time></trkpt><trkpt lat="44.8510417" lon="9.5408583"><ele>190.66666666666669</ele><time>2026-04-08T09:07:02.11Z</time></trkpt><trkpt lat="44.8508817" lon="9.54083"><ele>191.33333333333334</ele><time>2026-04-08T09:07:03.11Z</time></trkpt><trkpt lat="44.8507033" lon="9.5407967"><ele>192.0</ele><time>2026-04-08T09:07:04.11Z</time></trkpt><trkpt lat="44.8505217" lon="9.5407683"><ele>192.0</ele><time>2026-04-08T09:07:05.11Z</time></trkpt><trkpt lat="44.85035" lon="9.540755"><ele>192.0</ele><time>2026-04-08T09:07:06.11Z</time></trkpt><trkpt lat="44.850195" lon="9.5407417"><ele>192.0</ele><time>2026-04-08T09:07:07.11Z</time></trkpt><trkpt lat="44.8500633" lon="9.54073"><ele>191.6</ele><time>2026-04-08T09:07:08.11Z</time></trkpt><trkpt lat="44.84995" lon="9.5407267"><ele>191.2</ele><time>2026-04-08T09:07:09.11Z</time></trkpt><trkpt lat="44.8498567" lon="9.5407217"><ele>190.8</ele><time>2026-04-08T09:07:10.11Z</time></trkpt><trkpt lat="44.84977" lon="9.5407233"><ele>190.4</ele><time>2026-04-08T09:07:11.11Z</time></trkpt><trkpt lat="44.8496983" lon="9.540725"><ele>190.0</ele><time>2026-04-08T09:07:12.11Z</time></trkpt><trkpt lat="44.84961" lon="9.5407183"><ele>190.0</ele><time>2026-04-08T09:07:14.11Z</time></trkpt><trkpt lat="44.8495433" lon="9.5407233"><ele>190.0</ele><time>2026-04-08T09:07:18.11Z</time></trkpt><trkpt lat="44.849455" lon="9.5407233"><ele>190.0</ele><time>2026-04-08T09:07:21.11Z</time></trkpt><trkpt lat="44.84935" lon="9.54073"><ele>190.0</ele><time>2026-04-08T09:07:23.11Z</time></trkpt><trkpt lat="44.8492783" lon="9.5407217"><ele>190.0</ele><time>2026-04-08T09:07:24.11Z</time></trkpt><trkpt lat="44.8492" lon="9.54071"><ele>190.0</ele><time>2026-04-08T09:07:25.11Z</time></trkpt><trkpt lat="44.84912" lon="9.54071"><ele>190.6</ele><time>2026-04-08T09:07:26.11Z</time></trkpt><trkpt lat="44.849035" lon="9.54069"><ele>191.2</ele><time>2026-04-08T09:07:27.11Z</time></trkpt><trkpt lat="44.84893" lon="9.5406967"><ele>191.8</ele><time>2026-04-08T09:07:28.11Z</time></trkpt><trkpt lat="44.8488217" lon="9.54068"><ele>192.4</ele><time>2026-04-08T09:07:29.109Z</time></trkpt><trkpt lat="44.8487133" lon="9.54067"><ele>193.0</ele><time>2026-04-08T09:07:30.11Z</time></trkpt><trkpt lat="44.8486117" lon="9.5406583"><ele>193.0</ele><time>2026-04-08T09:07:31.11Z</time></trkpt><trkpt lat="44.8485033" lon="9.5406333"><ele>193.0</ele><time>2026-04-08T09:07:32.11Z</time></trkpt><trkpt lat="44.848395" lon="9.5405983"><ele>193.0</ele><time>2026-04-08T09:07:33.11Z</time></trkpt><trkpt lat="44.8482817" lon="9.540535"><ele>193.0</ele><time>2026-04-08T09:07:34.109Z</time></trkpt><trkpt lat="44.84816" lon="9.5404567"><ele>190.33333333333331</ele><time>2026-04-08T09:07:35.11Z</time></trkpt><trkpt lat="44.8480367" lon="9.54032"><ele>187.66666666666666</ele><time>2026-04-08T09:07:36.11Z</time></trkpt><trkpt lat="44.8479017" lon="9.5401317"><ele>185.0</ele><time>2026-04-08T09:07:37.11Z</time></trkpt><trkpt lat="44.8477417" lon="9.5398867"><ele>187.0</ele><time>2026-04-08T09:07:38.11Z</time></trkpt><trkpt lat="44.8475783" lon="9.5396117"><ele>189.0</ele><time>2026-04-08T09:07:39.11Z</time></trkpt><trkpt lat="44.8474217" lon="9.5393333"><ele>189.0</ele><time>2026-04-08T09:07:40.11Z</time></trkpt><trkpt lat="44.8472667" lon="9.5390767"><ele>189.0</ele><time>2026-04-08T09:07:41.11Z</time></trkpt><trkpt lat="44.8471" lon="9.538855"><ele>188.5</ele><time>2026-04-08T09:07:42.11Z</time></trkpt><trkpt lat="44.8469167" lon="9.538655"><ele>188.0</ele><time>2026-04-08T09:07:43.11Z</time></trkpt><trkpt lat="44.8467167" lon="9.53849"><ele>188.0</ele><time>2026-04-08T09:07:44.11Z</time></trkpt><trkpt lat="44.8465233" lon="9.5383267"><ele>188.0</ele><time>2026-04-08T09:07:45.11Z</time></trkpt><trkpt lat="44.846325" lon="9.5382067"><ele>188.0</ele><time>2026-04-08T09:07:46.11Z</time></trkpt><trkpt lat="44.8461383" lon="9.5380983"><ele>188.0</ele><time>2026-04-08T09:07:47.11Z</time></trkpt><trkpt lat="44.8459717" lon="9.537965"><ele>188.0</ele><time>2026-04-08T09:07:48.11Z</time></trkpt><trkpt lat="44.8458333" lon="9.537775"><ele>188.0</ele><time>2026-04-08T09:07:49.11Z</time></trkpt><trkpt lat="44.84572" lon="9.5375333"><ele>189.33333333333331</ele><time>2026-04-08T09:07:50.11Z</time></trkpt><trkpt lat="44.8456033" lon="9.5372933"><ele>190.66666666666666</ele><time>2026-04-08T09:07:51.11Z</time></trkpt><trkpt lat="44.8454817" lon="9.5370733"><ele>192.0</ele><time>2026-04-08T09:07:52.11Z</time></trkpt><trkpt lat="44.8453467" lon="9.5368933"><ele>193.66666666666669</ele><time>2026-04-08T09:07:53.11Z</time></trkpt><trkpt lat="44.8451717" lon="9.53676"><ele>195.33333333333334</ele><time>2026-04-08T09:07:54.11Z</time></trkpt><trkpt lat="44.8449883" lon="9.5366533"><ele>197.0</ele><time>2026-04-08T09:07:55.109Z</time></trkpt><trkpt lat="44.8448283" lon="9.5365217"><ele>197.0</ele><time>2026-04-08T09:07:56.11Z</time></trkpt><trkpt lat="44.8446917" lon="9.5363517"><ele>197.0</ele><time>2026-04-08T09:07:57.11Z</time></trkpt><trkpt lat="44.84459" lon="9.5361667"><ele>197.0</ele><time>2026-04-08T09:07:58.11Z</time></trkpt><trkpt lat="44.8444833" lon="9.536005"><ele>197.33333333333334</ele><time>2026-04-08T09:07:59.11Z</time></trkpt><trkpt lat="44.8443583" lon="9.5358733"><ele>197.66666666666669</ele><time>2026-04-08T09:08:00.11Z</time></trkpt><trkpt lat="44.8442183" lon="9.5357933"><ele>198.0</ele><time>2026-04-08T09:08:01.11Z</time></trkpt><trkpt lat="44.8440633" lon="9.5357783"><ele>198.0</ele><time>2026-04-08T09:08:02.11Z</time></trkpt><trkpt lat="44.84393" lon="9.5358067"><ele>198.0</ele><time>2026-04-08T09:08:03.11Z</time></trkpt><trkpt lat="44.8438033" lon="9.5358033"><ele>198.0</ele><time>2026-04-08T09:08:04.11Z</time></trkpt><trkpt lat="44.8436783" lon="9.5357833"><ele>198.0</ele><time>2026-04-08T09:08:05.11Z</time></trkpt><trkpt lat="44.8435617" lon="9.5357367"><ele>198.0</ele><time>2026-04-08T09:08:06.11Z</time></trkpt><trkpt lat="44.8434767" lon="9.5356567"><ele>198.0</ele><time>2026-04-08T09:08:07.109Z</time></trkpt><trkpt lat="44.8433883" lon="9.5355667"><ele>198.0</ele><time>2026-04-08T09:08:08.109Z</time></trkpt><trkpt lat="44.843325" lon="9.535425"><ele>198.0</ele><time>2026-04-08T09:08:09.108Z</time></trkpt><trkpt lat="44.8432783" lon="9.5352217"><ele>199.0</ele><time>2026-04-08T09:08:10.108Z</time></trkpt><trkpt lat="44.84325" lon="9.5349717"><ele>200.0</ele><time>2026-04-08T09:08:11.109Z</time></trkpt><trkpt lat="44.8432067" lon="9.53464"><ele>201.0</ele><time>2026-04-08T09:08:12.109Z</time></trkpt><trkpt lat="44.8431783" lon="9.53424"><ele>201.0</ele><time>2026-04-08T09:08:13.108Z</time></trkpt><trkpt lat="44.843135" lon="9.5338133"><ele>201.0</ele><time>2026-04-08T09:08:14.108Z</time></trkpt><trkpt lat="44.8430767" lon="9.53339"><ele>199.0</ele><time>2026-04-08T09:08:15.109Z</time></trkpt><trkpt lat="44.842995" lon="9.5329967"><ele>197.0</ele><time>2026-04-08T09:08:16.109Z</time></trkpt><trkpt lat="44.8429283" lon="9.53264"><ele>194.0</ele><time>2026-04-08T09:08:17.109Z</time></trkpt><trkpt lat="44.8428667" lon="9.53233"><ele>191.0</ele><time>2026-04-08T09:08:18.109Z</time></trkpt><trkpt lat="44.84281" lon="9.5320717"><ele>188.0</ele><time>2026-04-08T09:08:19.109Z</time></trkpt><trkpt lat="44.8427283" lon="9.53185"><ele>194.66666666666666</ele><time>2026-04-08T09:08:20.109Z</time></trkpt><trkpt lat="44.8425767" lon="9.53167"><ele>201.33333333333331</ele><time>2026-04-08T09:08:21.109Z</time></trkpt><trkpt lat="44.8423717" lon="9.531525"><ele>208.0</ele><time>2026-04-08T09:08:22.109Z</time></trkpt><trkpt lat="44.842145" lon="9.5313917"><ele>209.5</ele><time>2026-04-08T09:08:23.109Z</time></trkpt><trkpt lat="44.8419383" lon="9.5312133"><ele>211.0</ele><time>2026-04-08T09:08:24.109Z</time></trkpt><trkpt lat="44.841765" lon="9.5309683"><ele>211.0</ele><time>2026-04-08T09:08:25.109Z</time></trkpt><trkpt lat="44.8416083" lon="9.530655"><ele>211.0</ele><time>2026-04-08T09:08:26.109Z</time></trkpt><trkpt lat="44.8414633" lon="9.5302933"><ele>206.5</ele><time>2026-04-08T09:08:27.108Z</time></trkpt><trkpt lat="44.8413" lon="9.529915"><ele>202.0</ele><time>2026-04-08T09:08:28.109Z</time></trkpt><trkpt lat="44.8411017" lon="9.5295417"><ele>205.0</ele><time>2026-04-08T09:08:29.109Z</time></trkpt><trkpt lat="44.8408783" lon="9.5291733"><ele>208.0</ele><time>2026-04-08T09:08:30.109Z</time></trkpt><trkpt lat="44.84065" lon="9.5287933"><ele>205.5</ele><time>2026-04-08T09:08:31.109Z</time></trkpt><trkpt lat="44.8404283" lon="9.5283933"><ele>203.0</ele><time>2026-04-08T09:08:32.109Z</time></trkpt><trkpt lat="44.84022" lon="9.52797"><ele>209.0</ele><time>2026-04-08T09:08:33.108Z</time></trkpt><trkpt lat="44.8400317" lon="9.52753"><ele>215.0</ele><time>2026-04-08T09:08:34.108Z</time></trkpt><trkpt lat="44.83986" lon="9.5270733"><ele>210.5</ele><time>2026-04-08T09:08:35.108Z</time></trkpt><trkpt lat="44.8397" lon="9.52663"><ele>206.0</ele><time>2026-04-08T09:08:36.109Z</time></trkpt><trkpt lat="44.8395417" lon="9.5262183"><ele>202.0</ele><time>2026-04-08T09:08:37.108Z</time></trkpt><trkpt lat="44.839395" lon="9.52584"><ele>198.0</ele><time>2026-04-08T09:08:38.108Z</time></trkpt><trkpt lat="44.83926" lon="9.5254967"><ele>206.0</ele><time>2026-04-08T09:08:39.109Z</time></trkpt><trkpt lat="44.83914" lon="9.52517"><ele>214.0</ele><time>2026-04-08T09:08:40.109Z</time></trkpt><trkpt lat="44.8390183" lon="9.5248467"><ele>211.0</ele><time>2026-04-08T09:08:41.109Z</time></trkpt><trkpt lat="44.838915" lon="9.5245083"><ele>208.0</ele><time>2026-04-08T09:08:42.108Z</time></trkpt><trkpt lat="44.83884" lon="9.524155"><ele>208.0</ele><time>2026-04-08T09:08:43.109Z</time></trkpt><trkpt lat="44.8387367" lon="9.523805"><ele>208.0</ele><time>2026-04-08T09:08:44.109Z</time></trkpt><trkpt lat="44.8385967" lon="9.5234683"><ele>205.5</ele><time>2026-04-08T09:08:45.109Z</time></trkpt><trkpt lat="44.8384267" lon="9.5231633"><ele>203.0</ele><time>2026-04-08T09:08:46.108Z</time></trkpt><trkpt lat="44.8382167" lon="9.5228783"><ele>203.0</ele><time>2026-04-08T09:08:47.109Z</time></trkpt><trkpt lat="44.83796" lon="9.5226167"><ele>203.0</ele><time>2026-04-08T09:08:48.109Z</time></trkpt><trkpt lat="44.8376833" lon="9.5223433"><ele>203.0</ele><time>2026-04-08T09:08:49.108Z</time></trkpt><trkpt lat="44.83741" lon="9.5220533"><ele>203.0</ele><time>2026-04-08T09:08:50.109Z</time></trkpt><trkpt lat="44.83714" lon="9.5217533"><ele>203.0</ele><time>2026-04-08T09:08:51.109Z</time></trkpt><trkpt lat="44.8368867" lon="9.5214367"><ele>203.0</ele><time>2026-04-08T09:08:52.109Z</time></trkpt><trkpt lat="44.8366667" lon="9.5210933"><ele>205.5</ele><time>2026-04-08T09:08:53.109Z</time></trkpt><trkpt lat="44.8364517" lon="9.52078"><ele>208.0</ele><time>2026-04-08T09:08:54.109Z</time></trkpt><trkpt lat="44.8362533" lon="9.5204967"><ele>206.0</ele><time>2026-04-08T09:08:55.109Z</time></trkpt><trkpt lat="44.8360467" lon="9.5202583"><ele>204.0</ele><time>2026-04-08T09:08:56.109Z</time></trkpt><trkpt lat="44.8358383" lon="9.5200433"><ele>204.0</ele><time>2026-04-08T09:08:57.109Z</time></trkpt><trkpt lat="44.835625" lon="9.5198833"><ele>204.0</ele><time>2026-04-08T09:08:58.109Z</time></trkpt><trkpt lat="44.8354217" lon="9.5197667"><ele>204.0</ele><time>2026-04-08T09:08:59.109Z</time></trkpt><trkpt lat="44.8352317" lon="9.519695"><ele>204.0</ele><time>2026-04-08T09:09:00.109Z</time></trkpt><trkpt lat="44.8350517" lon="9.5196867"><ele>204.0</ele><time>2026-04-08T09:09:01.109Z</time></trkpt><trkpt lat="44.8348717" lon="9.5197983"><ele>206.66666666666669</ele><time>2026-04-08T09:09:02.109Z</time></trkpt><trkpt lat="44.8347283" lon="9.5199667"><ele>209.33333333333334</ele><time>2026-04-08T09:09:03.108Z</time></trkpt><trkpt lat="44.8346033" lon="9.52012"><ele>212.0</ele><time>2026-04-08T09:09:04.109Z</time></trkpt><trkpt lat="44.8344767" lon="9.5202267"><ele>212.0</ele><time>2026-04-08T09:09:05.108Z</time></trkpt><trkpt lat="44.8343467" lon="9.520245"><ele>212.0</ele><time>2026-04-08T09:09:06.109Z</time></trkpt><trkpt lat="44.8342067" lon="9.5201783"><ele>212.0</ele><time>2026-04-08T09:09:07.109Z</time></trkpt><trkpt lat="44.8340483" lon="9.5200133"><ele>209.5</ele><time>2026-04-08T09:09:08.109Z</time></trkpt><trkpt lat="44.833825" lon="9.5198317"><ele>207.0</ele><time>2026-04-08T09:09:09.108Z</time></trkpt><trkpt lat="44.833595" lon="9.5196967"><ele>208.66666666666669</ele><time>2026-04-08T09:09:10.109Z</time></trkpt><trkpt lat="44.8333783" lon="9.5196217"><ele>210.33333333333334</ele><time>2026-04-08T09:09:11.109Z</time></trkpt><trkpt lat="44.8331683" lon="9.5196017"><ele>212.0</ele><time>2026-04-08T09:09:12.109Z</time></trkpt><trkpt lat="44.8329467" lon="9.5196567"><ele>212.0</ele><time>2026-04-08T09:09:13.109Z</time></trkpt><trkpt lat="44.8327233" lon="9.5197517"><ele>212.0</ele><time>2026-04-08T09:09:14.109Z</time></trkpt><trkpt lat="44.8324833" lon="9.5198733"><ele>210.5</ele><time>2026-04-08T09:09:15.109Z</time></trkpt><trkpt lat="44.832245" lon="9.5199917"><ele>209.0</ele><time>2026-04-08T09:09:16.108Z</time></trkpt><trkpt lat="44.83202" lon="9.52009"><ele>209.0</ele><time>2026-04-08T09:09:17.109Z</time></trkpt><trkpt lat="44.8318083" lon="9.5201383"><ele>209.0</ele><time>2026-04-08T09:09:18.108Z</time></trkpt><trkpt lat="44.8316067" lon="9.5201133"><ele>209.0</ele><time>2026-04-08T09:09:19.109Z</time></trkpt><trkpt lat="44.8314133" lon="9.520005"><ele>207.0</ele><time>2026-04-08T09:09:20.109Z</time></trkpt><trkpt lat="44.831235" lon="9.519825"><ele>205.0</ele><time>2026-04-08T09:09:21.108Z</time></trkpt><trkpt lat="44.8310767" lon="9.51958"><ele>203.5</ele><time>2026-04-08T09:09:22.109Z</time></trkpt><trkpt lat="44.830915" lon="9.5193333"><ele>202.0</ele><time>2026-04-08T09:09:23.109Z</time></trkpt><trkpt lat="44.8307617" lon="9.519095"><ele>202.0</ele><time>2026-04-08T09:09:24.109Z</time></trkpt><trkpt lat="44.8306283" lon="9.5188867"><ele>202.0</ele><time>2026-04-08T09:09:25.109Z</time></trkpt><trkpt lat="44.8305367" lon="9.5186933"><ele>202.0</ele><time>2026-04-08T09:09:26.108Z</time></trkpt><trkpt lat="44.8304883" lon="9.518495"><ele>201.33333333333331</ele><time>2026-04-08T09:09:27.109Z</time></trkpt><trkpt lat="44.830495" lon="9.518275"><ele>200.66666666666669</ele><time>2026-04-08T09:09:28.109Z</time></trkpt><trkpt lat="44.83054" lon="9.51804"><ele>200.0</ele><time>2026-04-08T09:09:29.109Z</time></trkpt><trkpt lat="44.8306233" lon="9.517795"><ele>202.0</ele><time>2026-04-08T09:09:30.109Z</time></trkpt><trkpt lat="44.8307167" lon="9.5175567"><ele>204.0</ele><time>2026-04-08T09:09:31.108Z</time></trkpt><trkpt lat="44.8307867" lon="9.5173267"><ele>206.0</ele><time>2026-04-08T09:09:32.109Z</time></trkpt><trkpt lat="44.830825" lon="9.5170883"><ele>205.66666666666669</ele><time>2026-04-08T09:09:33.109Z</time></trkpt><trkpt lat="44.8308217" lon="9.5168433"><ele>205.33333333333331</ele><time>2026-04-08T09:09:34.109Z</time></trkpt><trkpt lat="44.8307883" lon="9.5166117"><ele>205.0</ele><time>2026-04-08T09:09:35.109Z</time></trkpt><trkpt lat="44.8307283" lon="9.5164"><ele>202.33333333333331</ele><time>2026-04-08T09:09:36.108Z</time></trkpt><trkpt lat="44.83063" lon="9.516205"><ele>199.66666666666669</ele><time>2026-04-08T09:09:37.109Z</time></trkpt><trkpt lat="44.8305017" lon="9.5160117"><ele>197.0</ele><time>2026-04-08T09:09:38.109Z</time></trkpt><trkpt lat="44.8303617" lon="9.5158033"><ele>197.0</ele><time>2026-04-08T09:09:39.109Z</time></trkpt><trkpt lat="44.830195" lon="9.515585"><ele>197.0</ele><time>2026-04-08T09:09:40.109Z</time></trkpt><trkpt lat="44.8300067" lon="9.5153617"><ele>195.5</ele><time>2026-04-08T09:09:41.109Z</time></trkpt><trkpt lat="44.82979" lon="9.5151517"><ele>194.0</ele><time>2026-04-08T09:09:42.108Z</time></trkpt><trkpt lat="44.829555" lon="9.5149433"><ele>194.5</ele><time>2026-04-08T09:09:43.109Z</time></trkpt><trkpt lat="44.829305" lon="9.514725"><ele>195.0</ele><time>2026-04-08T09:09:44.109Z</time></trkpt><trkpt lat="44.82905" lon="9.5144883"><ele>195.0</ele><time>2026-04-08T09:09:45.108Z</time></trkpt><trkpt lat="44.8287967" lon="9.5142117"><ele>195.0</ele><time>2026-04-08T09:09:46.109Z</time></trkpt><trkpt lat="44.8285467" lon="9.513945"><ele>198.5</ele><time>2026-04-08T09:09:47.108Z</time></trkpt><trkpt lat="44.8283167" lon="9.5136067"><ele>202.0</ele><time>2026-04-08T09:09:48.109Z</time></trkpt><trkpt lat="44.8280767" lon="9.51329"><ele>196.5</ele><time>2026-04-08T09:09:49.108Z</time></trkpt><trkpt lat="44.827925" lon="9.5128683"><ele>191.0</ele><time>2026-04-08T09:09:50.109Z</time></trkpt><trkpt lat="44.82778" lon="9.51243"><ele>196.0</ele><time>2026-04-08T09:09:51.109Z</time></trkpt><trkpt lat="44.827615" lon="9.5119983"><ele>201.0</ele><time>2026-04-08T09:09:52.109Z</time></trkpt><trkpt lat="44.8274233" lon="9.5115717"><ele>195.0</ele><time>2026-04-08T09:09:53.108Z</time></trkpt><trkpt lat="44.8272033" lon="9.5111783"><ele>189.0</ele><time>2026-04-08T09:09:54.109Z</time></trkpt><trkpt lat="44.8269767" lon="9.5108183"><ele>188.5</ele><time>2026-04-08T09:09:55.109Z</time></trkpt><trkpt lat="44.826765" lon="9.5104633"><ele>188.0</ele><time>2026-04-08T09:09:56.109Z</time></trkpt><trkpt lat="44.8265633" lon="9.51011"><ele>188.0</ele><time>2026-04-08T09:09:57.109Z</time></trkpt><trkpt lat="44.8263817" lon="9.5097367"><ele>188.0</ele><time>2026-04-08T09:09:58.108Z</time></trkpt><trkpt lat="44.82621" lon="9.50936"><ele>187.5</ele><time>2026-04-08T09:09:59.109Z</time></trkpt><trkpt lat="44.82604" lon="9.5089833"><ele>187.0</ele><time>2026-04-08T09:10:00.109Z</time></trkpt><trkpt lat="44.8258683" lon="9.5086083"><ele>187.5</ele><time>2026-04-08T09:10:01.109Z</time></trkpt><trkpt lat="44.8256967" lon="9.50825"><ele>188.0</ele><time>2026-04-08T09:10:02.108Z</time></trkpt><trkpt lat="44.8255333" lon="9.507905"><ele>188.0</ele><time>2026-04-08T09:10:03.109Z</time></trkpt><trkpt lat="44.8253717" lon="9.50758"><ele>188.0</ele><time>2026-04-08T09:10:04.108Z</time></trkpt><trkpt lat="44.8252167" lon="9.507265"><ele>188.5</ele><time>2026-04-08T09:10:05.109Z</time></trkpt><trkpt lat="44.82506" lon="9.5069417"><ele>189.0</ele><time>2026-04-08T09:10:06.108Z</time></trkpt><trkpt lat="44.824895" lon="9.5065967"><ele>188.5</ele><time>2026-04-08T09:10:07.109Z</time></trkpt><trkpt lat="44.82473" lon="9.5062283"><ele>188.0</ele><time>2026-04-08T09:10:08.109Z</time></trkpt><trkpt lat="44.824555" lon="9.5058617"><ele>188.0</ele><time>2026-04-08T09:10:09.109Z</time></trkpt><trkpt lat="44.8243767" lon="9.5054883"><ele>188.0</ele><time>2026-04-08T09:10:10.109Z</time></trkpt><trkpt lat="44.8242017" lon="9.505115"><ele>188.0</ele><time>2026-04-08T09:10:11.109Z</time></trkpt><trkpt lat="44.824025" lon="9.504745"><ele>188.0</ele><time>2026-04-08T09:10:12.109Z</time></trkpt><trkpt lat="44.823825" lon="9.504395"><ele>188.0</ele><time>2026-04-08T09:10:13.109Z</time></trkpt><trkpt lat="44.823615" lon="9.5040533"><ele>188.0</ele><time>2026-04-08T09:10:14.109Z</time></trkpt><trkpt lat="44.823385" lon="9.5037317"><ele>188.5</ele><time>2026-04-08T09:10:15.108Z</time></trkpt><trkpt lat="44.8231467" lon="9.503415"><ele>189.0</ele><time>2026-04-08T09:10:16.109Z</time></trkpt><trkpt lat="44.8229033" lon="9.50311"><ele>188.0</ele><time>2026-04-08T09:10:17.109Z</time></trkpt><trkpt lat="44.8226467" lon="9.5028233"><ele>187.0</ele><time>2026-04-08T09:10:18.109Z</time></trkpt><trkpt lat="44.82239" lon="9.5025317"><ele>187.0</ele><time>2026-04-08T09:10:19.109Z</time></trkpt><trkpt lat="44.8221317" lon="9.5022367"><ele>187.0</ele><time>2026-04-08T09:10:20.108Z</time></trkpt><trkpt lat="44.821875" lon="9.5019367"><ele>189.5</ele><time>2026-04-08T09:10:21.108Z</time></trkpt><trkpt lat="44.8216417" lon="9.5016067"><ele>192.0</ele><time>2026-04-08T09:10:22.108Z</time></trkpt><trkpt lat="44.82142" lon="9.5012667"><ele>190.5</ele><time>2026-04-08T09:10:23.109Z</time></trkpt><trkpt lat="44.8212233" lon="9.5008883"><ele>189.0</ele><time>2026-04-08T09:10:24.109Z</time></trkpt><trkpt lat="44.8210533" lon="9.5004933"><ele>191.0</ele><time>2026-04-08T09:10:25.109Z</time></trkpt><trkpt lat="44.8208933" lon="9.5000917"><ele>193.0</ele><time>2026-04-08T09:10:26.108Z</time></trkpt><trkpt lat="44.8207633" lon="9.499665"><ele>193.0</ele><time>2026-04-08T09:10:27.109Z</time></trkpt><trkpt lat="44.8206483" lon="9.49923"><ele>193.0</ele><time>2026-04-08T09:10:28.109Z</time></trkpt><trkpt lat="44.8205417" lon="9.49879"><ele>192.5</ele><time>2026-04-08T09:10:29.109Z</time></trkpt><trkpt lat="44.8204333" lon="9.49835"><ele>192.0</ele><time>2026-04-08T09:10:30.109Z</time></trkpt><trkpt lat="44.8203133" lon="9.4979133"><ele>191.5</ele><time>2026-04-08T09:10:31.109Z</time></trkpt><trkpt lat="44.8201583" lon="9.4974833"><ele>191.0</ele><time>2026-04-08T09:10:32.109Z</time></trkpt><trkpt lat="44.8200533" lon="9.4970217"><ele>192.0</ele><time>2026-04-08T09:10:33.108Z</time></trkpt><trkpt lat="44.8198783" lon="9.4966017"><ele>193.0</ele><time>2026-04-08T09:10:34.108Z</time></trkpt><trkpt lat="44.8197683" lon="9.4961433"><ele>193.0</ele><time>2026-04-08T09:10:35.109Z</time></trkpt><trkpt lat="44.8196333" lon="9.4956933"><ele>193.0</ele><time>2026-04-08T09:10:36.109Z</time></trkpt><trkpt lat="44.8194967" lon="9.4952383"><ele>191.5</ele><time>2026-04-08T09:10:37.109Z</time></trkpt><trkpt lat="44.8193583" lon="9.494785"><ele>190.0</ele><time>2026-04-08T09:10:38.109Z</time></trkpt><trkpt lat="44.8192267" lon="9.4943233"><ele>192.0</ele><time>2026-04-08T09:10:39.108Z</time></trkpt><trkpt lat="44.8191233" lon="9.4938467"><ele>194.0</ele><time>2026-04-08T09:10:40.109Z</time></trkpt><trkpt lat="44.8190333" lon="9.4933617"><ele>194.0</ele><time>2026-04-08T09:10:41.109Z</time></trkpt><trkpt lat="44.818965" lon="9.49287"><ele>194.0</ele><time>2026-04-08T09:10:42.109Z</time></trkpt><trkpt lat="44.8189" lon="9.4923733"><ele>194.0</ele><time>2026-04-08T09:10:43.109Z</time></trkpt><trkpt lat="44.8188817" lon="9.4918717"><ele>194.0</ele><time>2026-04-08T09:10:44.109Z</time></trkpt><trkpt lat="44.818875" lon="9.4913733"><ele>194.5</ele><time>2026-04-08T09:10:45.109Z</time></trkpt><trkpt lat="44.818865" lon="9.4908767"><ele>195.0</ele><time>2026-04-08T09:10:46.109Z</time></trkpt><trkpt lat="44.81885" lon="9.4903783"><ele>195.0</ele><time>2026-04-08T09:10:47.109Z</time></trkpt><trkpt lat="44.8188333" lon="9.48988"><ele>195.0</ele><time>2026-04-08T09:10:48.109Z</time></trkpt><trkpt lat="44.818805" lon="9.4893867"><ele>195.0</ele><time>2026-04-08T09:10:49.108Z</time></trkpt><trkpt lat="44.8187883" lon="9.4888917"><ele>195.0</ele><time>2026-04-08T09:10:50.109Z</time></trkpt><trkpt lat="44.81877" lon="9.4883967"><ele>195.5</ele><time>2026-04-08T09:10:51.109Z</time></trkpt><trkpt lat="44.8187683" lon="9.4879133"><ele>196.0</ele><time>2026-04-08T09:10:52.109Z</time></trkpt><trkpt lat="44.8187633" lon="9.487445"><ele>197.0</ele><time>2026-04-08T09:10:53.109Z</time></trkpt><trkpt lat="44.818765" lon="9.486985"><ele>198.0</ele><time>2026-04-08T09:10:54.109Z</time></trkpt><trkpt lat="44.8187283" lon="9.4865383"><ele>198.5</ele><time>2026-04-08T09:10:55.109Z</time></trkpt><trkpt lat="44.81867" lon="9.4861033"><ele>199.0</ele><time>2026-04-08T09:10:56.109Z</time></trkpt><trkpt lat="44.8185733" lon="9.48568"><ele>208.0</ele><time>2026-04-08T09:10:57.109Z</time></trkpt><trkpt lat="44.8184767" lon="9.4852567"><ele>217.0</ele><time>2026-04-08T09:10:58.109Z</time></trkpt><trkpt lat="44.818375" lon="9.4848183"><ele>219.5</ele><time>2026-04-08T09:10:59.108Z</time></trkpt><trkpt lat="44.818275" lon="9.4843667"><ele>222.0</ele><time>2026-04-08T09:11:00.109Z</time></trkpt><trkpt lat="44.8181833" lon="9.4839117"><ele>220.0</ele><time>2026-04-08T09:11:01.109Z</time></trkpt><trkpt lat="44.8180917" lon="9.4834517"><ele>218.0</ele><time>2026-04-08T09:11:02.109Z</time></trkpt><trkpt lat="44.8179467" lon="9.4830217"><ele>212.0</ele><time>2026-04-08T09:11:03.109Z</time></trkpt><trkpt lat="44.8178017" lon="9.4826117"><ele>206.0</ele><time>2026-04-08T09:11:04.109Z</time></trkpt><trkpt lat="44.81769" lon="9.4821667"><ele>205.0</ele><time>2026-04-08T09:11:05.109Z</time></trkpt><trkpt lat="44.8175567" lon="9.4817383"><ele>204.0</ele><time>2026-04-08T09:11:06.109Z</time></trkpt><trkpt lat="44.8174533" lon="9.481395"><ele>202.0</ele><time>2026-04-08T09:11:07.109Z</time></trkpt><trkpt lat="44.81729" lon="9.4811317"><ele>200.0</ele><time>2026-04-08T09:11:08.109Z</time></trkpt><trkpt lat="44.81711" lon="9.4809417"><ele>200.0</ele><time>2026-04-08T09:11:09.109Z</time></trkpt><trkpt lat="44.8169317" lon="9.480755"><ele>200.0</ele><time>2026-04-08T09:11:10.108Z</time></trkpt><trkpt lat="44.8168483" lon="9.4805417"><ele>200.0</ele><time>2026-04-08T09:11:11.109Z</time></trkpt><trkpt lat="44.8167483" lon="9.4802633"><ele>203.5</ele><time>2026-04-08T09:11:12.109Z</time></trkpt><trkpt lat="44.8166783" lon="9.4799583"><ele>207.0</ele><time>2026-04-08T09:11:13.109Z</time></trkpt><trkpt lat="44.8166233" lon="9.4796267"><ele>208.0</ele><time>2026-04-08T09:11:14.108Z</time></trkpt><trkpt lat="44.8165633" lon="9.4792567"><ele>209.0</ele><time>2026-04-08T09:11:15.109Z</time></trkpt><trkpt lat="44.8165567" lon="9.4788567"><ele>209.5</ele><time>2026-04-08T09:11:16.109Z</time></trkpt><trkpt lat="44.8165667" lon="9.4784467"><ele>210.0</ele><time>2026-04-08T09:11:17.109Z</time></trkpt><trkpt lat="44.816575" lon="9.4780183"><ele>210.5</ele><time>2026-04-08T09:11:18.109Z</time></trkpt><trkpt lat="44.8165783" lon="9.4775917"><ele>211.0</ele><time>2026-04-08T09:11:19.109Z</time></trkpt><trkpt lat="44.8165817" lon="9.4771517"><ele>213.5</ele><time>2026-04-08T09:11:20.109Z</time></trkpt><trkpt lat="44.8165683" lon="9.4767033"><ele>216.0</ele><time>2026-04-08T09:11:21.109Z</time></trkpt><trkpt lat="44.8165767" lon="9.4762583"><ele>218.5</ele><time>2026-04-08T09:11:22.109Z</time></trkpt><trkpt lat="44.8165917" lon="9.47581"><ele>221.0</ele><time>2026-04-08T09:11:23.109Z</time></trkpt><trkpt lat="44.8165733" lon="9.47536"><ele>223.0</ele><time>2026-04-08T09:11:24.109Z</time></trkpt><trkpt lat="44.8166167" lon="9.4749067"><ele>225.0</ele><time>2026-04-08T09:11:25.109Z</time></trkpt><trkpt lat="44.81661" lon="9.4744633"><ele>226.5</ele><time>2026-04-08T09:11:26.109Z</time></trkpt><trkpt lat="44.8166233" lon="9.4740633"><ele>228.0</ele><time>2026-04-08T09:11:27.108Z</time></trkpt><trkpt lat="44.8166367" lon="9.4737117"><ele>228.0</ele><time>2026-04-08T09:11:28.109Z</time></trkpt><trkpt lat="44.8166667" lon="9.4733917"><ele>228.0</ele><time>2026-04-08T09:11:29.109Z</time></trkpt><trkpt lat="44.8166967" lon="9.473085"><ele>228.0</ele><time>2026-04-08T09:11:30.109Z</time></trkpt><trkpt lat="44.816765" lon="9.4727883"><ele>225.5</ele><time>2026-04-08T09:11:31.109Z</time></trkpt><trkpt lat="44.8168783" lon="9.4725183"><ele>223.0</ele><time>2026-04-08T09:11:32.109Z</time></trkpt><trkpt lat="44.8170233" lon="9.4722517"><ele>227.0</ele><time>2026-04-08T09:11:33.109Z</time></trkpt><trkpt lat="44.8171867" lon="9.4720033"><ele>231.0</ele><time>2026-04-08T09:11:34.109Z</time></trkpt><trkpt lat="44.8173367" lon="9.4717567"><ele>231.0</ele><time>2026-04-08T09:11:35.11Z</time></trkpt><trkpt lat="44.81746" lon="9.47148"><ele>231.0</ele><time>2026-04-08T09:11:36.11Z</time></trkpt><trkpt lat="44.8175433" lon="9.4711667"><ele>232.5</ele><time>2026-04-08T09:11:37.11Z</time></trkpt><trkpt lat="44.8175767" lon="9.4708133"><ele>234.0</ele><time>2026-04-08T09:11:38.11Z</time></trkpt><trkpt lat="44.81757" lon="9.4704533"><ele>232.0</ele><time>2026-04-08T09:11:39.11Z</time></trkpt><trkpt lat="44.8174933" lon="9.4700483"><ele>230.0</ele><time>2026-04-08T09:11:40.11Z</time></trkpt><trkpt lat="44.81741" lon="9.4696233"><ele>225.0</ele><time>2026-04-08T09:11:41.11Z</time></trkpt><trkpt lat="44.8173317" lon="9.4692067"><ele>220.0</ele><time>2026-04-08T09:11:42.11Z</time></trkpt><trkpt lat="44.8172483" lon="9.4687983"><ele>219.0</ele><time>2026-04-08T09:11:43.11Z</time></trkpt><trkpt lat="44.8171733" lon="9.468415"><ele>218.0</ele><time>2026-04-08T09:11:44.11Z</time></trkpt><trkpt lat="44.8170967" lon="9.468045"><ele>217.5</ele><time>2026-04-08T09:11:45.11Z</time></trkpt><trkpt lat="44.8170133" lon="9.467675"><ele>217.0</ele><time>2026-04-08T09:11:46.109Z</time></trkpt><trkpt lat="44.8169233" lon="9.4673083"><ele>222.5</ele><time>2026-04-08T09:11:47.109Z</time></trkpt><trkpt lat="44.8168167" lon="9.4669517"><ele>228.0</ele><time>2026-04-08T09:11:48.11Z</time></trkpt><trkpt lat="44.8167017" lon="9.466595"><ele>223.5</ele><time>2026-04-08T09:11:49.109Z</time></trkpt><trkpt lat="44.8165533" lon="9.4662633"><ele>219.0</ele><time>2026-04-08T09:11:50.11Z</time></trkpt><trkpt lat="44.8164033" lon="9.4659267"><ele>219.0</ele><time>2026-04-08T09:11:51.11Z</time></trkpt><trkpt lat="44.8162583" lon="9.465585"><ele>219.0</ele><time>2026-04-08T09:11:52.11Z</time></trkpt><trkpt lat="44.8161233" lon="9.4652467"><ele>216.0</ele><time>2026-04-08T09:11:53.11Z</time></trkpt><trkpt lat="44.8160567" lon="9.464865"><ele>213.0</ele><time>2026-04-08T09:11:54.11Z</time></trkpt><trkpt lat="44.8160083" lon="9.464485"><ele>221.5</ele><time>2026-04-08T09:11:55.11Z</time></trkpt><trkpt lat="44.81596" lon="9.464105"><ele>230.0</ele><time>2026-04-08T09:11:56.11Z</time></trkpt><trkpt lat="44.8159183" lon="9.463715"><ele>231.0</ele><time>2026-04-08T09:11:57.109Z</time></trkpt><trkpt lat="44.8158667" lon="9.46333"><ele>232.0</ele><time>2026-04-08T09:11:58.11Z</time></trkpt><trkpt lat="44.81581" lon="9.46295"><ele>230.5</ele><time>2026-04-08T09:11:59.11Z</time></trkpt><trkpt lat="44.8157567" lon="9.462575"><ele>229.0</ele><time>2026-04-08T09:12:00.11Z</time></trkpt><trkpt lat="44.8157017" lon="9.462205"><ele>227.5</ele><time>2026-04-08T09:12:01.11Z</time></trkpt><trkpt lat="44.815645" lon="9.461835"><ele>226.0</ele><time>2026-04-08T09:12:02.109Z</time></trkpt><trkpt lat="44.8155933" lon="9.4614583"><ele>225.0</ele><time>2026-04-08T09:12:03.11Z</time></trkpt><trkpt lat="44.815555" lon="9.4610783"><ele>224.0</ele><time>2026-04-08T09:12:04.109Z</time></trkpt><trkpt lat="44.8155" lon="9.4606967"><ele>223.0</ele><time>2026-04-08T09:12:05.11Z</time></trkpt><trkpt lat="44.8155017" lon="9.4603067"><ele>222.0</ele><time>2026-04-08T09:12:06.11Z</time></trkpt><trkpt lat="44.8154717" lon="9.4599267"><ele>222.5</ele><time>2026-04-08T09:12:07.11Z</time></trkpt><trkpt lat="44.8154433" lon="9.4595717"><ele>223.0</ele><time>2026-04-08T09:12:08.109Z</time></trkpt><trkpt lat="44.8154083" lon="9.4592633"><ele>223.0</ele><time>2026-04-08T09:12:09.11Z</time></trkpt><trkpt lat="44.8153683" lon="9.4589833"><ele>223.0</ele><time>2026-04-08T09:12:10.109Z</time></trkpt><trkpt lat="44.8153267" lon="9.458745"><ele>223.0</ele><time>2026-04-08T09:12:11.109Z</time></trkpt><trkpt lat="44.815285" lon="9.45855"><ele>222.8</ele><time>2026-04-08T09:12:12.11Z</time></trkpt><trkpt lat="44.8152467" lon="9.458395"><ele>222.60000000000002</ele><time>2026-04-08T09:12:13.109Z</time></trkpt><trkpt lat="44.8152133" lon="9.458265"><ele>222.39999999999998</ele><time>2026-04-08T09:12:14.11Z</time></trkpt><trkpt lat="44.815185" lon="9.4581583"><ele>222.2</ele><time>2026-04-08T09:12:15.109Z</time></trkpt><trkpt lat="44.8151467" lon="9.45801"><ele>222.0</ele><time>2026-04-08T09:12:17.11Z</time></trkpt><trkpt lat="44.8151033" lon="9.457935"><ele>223.0</ele><time>2026-04-08T09:12:19.11Z</time></trkpt><trkpt lat="44.8150233" lon="9.4579767"><ele>224.0</ele><time>2026-04-08T09:13:09.11Z</time></trkpt><trkpt lat="44.814985" lon="9.457885"><ele>225.0</ele><time>2026-04-08T09:13:10.11Z</time></trkpt><trkpt lat="44.8149183" lon="9.45775"><ele>226.0</ele><time>2026-04-08T09:13:11.11Z</time></trkpt><trkpt lat="44.814805" lon="9.457565"><ele>226.0</ele><time>2026-04-08T09:13:12.11Z</time></trkpt><trkpt lat="44.8147317" lon="9.4573483"><ele>226.0</ele><time>2026-04-08T09:13:13.11Z</time></trkpt><trkpt lat="44.814635" lon="9.457105"><ele>226.0</ele><time>2026-04-08T09:13:14.11Z</time></trkpt><trkpt lat="44.8145283" lon="9.4568633"><ele>224.0</ele><time>2026-04-08T09:13:15.11Z</time></trkpt><trkpt lat="44.81443" lon="9.456615"><ele>222.0</ele><time>2026-04-08T09:13:16.11Z</time></trkpt><trkpt lat="44.81433" lon="9.45638"><ele>220.0</ele><time>2026-04-08T09:13:17.11Z</time></trkpt><trkpt lat="44.8142283" lon="9.4561467"><ele>220.0</ele><time>2026-04-08T09:13:18.11Z</time></trkpt><trkpt lat="44.81412" lon="9.4558933"><ele>220.0</ele><time>2026-04-08T09:13:19.11Z</time></trkpt><trkpt lat="44.8140017" lon="9.4556317"><ele>220.0</ele><time>2026-04-08T09:13:20.11Z</time></trkpt><trkpt lat="44.8138817" lon="9.4553633"><ele>217.5</ele><time>2026-04-08T09:13:21.11Z</time></trkpt><trkpt lat="44.81377" lon="9.45509"><ele>215.0</ele><time>2026-04-08T09:13:22.11Z</time></trkpt><trkpt lat="44.8136433" lon="9.4548233"><ele>213.0</ele><time>2026-04-08T09:13:23.11Z</time></trkpt><trkpt lat="44.8135283" lon="9.454545"><ele>211.0</ele><time>2026-04-08T09:13:24.11Z</time></trkpt><trkpt lat="44.8133783" lon="9.45429"><ele>212.5</ele><time>2026-04-08T09:13:25.11Z</time></trkpt><trkpt lat="44.8132783" lon="9.45399"><ele>214.0</ele><time>2026-04-08T09:13:26.109Z</time></trkpt><trkpt lat="44.8131333" lon="9.4537117"><ele>214.0</ele><time>2026-04-08T09:13:27.11Z</time></trkpt><trkpt lat="44.8130117" lon="9.4534117"><ele>214.0</ele><time>2026-04-08T09:13:28.11Z</time></trkpt><trkpt lat="44.8128883" lon="9.45311"><ele>213.0</ele><time>2026-04-08T09:13:29.109Z</time></trkpt><trkpt lat="44.81276" lon="9.45281"><ele>212.0</ele><time>2026-04-08T09:13:30.11Z</time></trkpt><trkpt lat="44.81264" lon="9.4524983"><ele>217.0</ele><time>2026-04-08T09:13:31.11Z</time></trkpt><trkpt lat="44.81254" lon="9.4521783"><ele>222.0</ele><time>2026-04-08T09:13:32.11Z</time></trkpt><trkpt lat="44.8124433" lon="9.4518467"><ele>222.0</ele><time>2026-04-08T09:13:33.109Z</time></trkpt><trkpt lat="44.8123833" lon="9.4514933"><ele>222.0</ele><time>2026-04-08T09:13:34.11Z</time></trkpt><trkpt lat="44.8123283" lon="9.4511467"><ele>220.5</ele><time>2026-04-08T09:13:35.11Z</time></trkpt><trkpt lat="44.8122817" lon="9.450795"><ele>219.0</ele><time>2026-04-08T09:13:36.11Z</time></trkpt><trkpt lat="44.8122367" lon="9.4504383"><ele>219.0</ele><time>2026-04-08T09:13:37.11Z</time></trkpt><trkpt lat="44.8121917" lon="9.4500783"><ele>219.0</ele><time>2026-04-08T09:13:38.109Z</time></trkpt><trkpt lat="44.812145" lon="9.449705"><ele>217.0</ele><time>2026-04-08T09:13:39.11Z</time></trkpt><trkpt lat="44.8120867" lon="9.4493267"><ele>215.0</ele><time>2026-04-08T09:13:40.11Z</time></trkpt><trkpt lat="44.8120367" lon="9.4489433"><ele>214.5</ele><time>2026-04-08T09:13:41.11Z</time></trkpt><trkpt lat="44.8119833" lon="9.4485517"><ele>214.0</ele><time>2026-04-08T09:13:42.11Z</time></trkpt><trkpt lat="44.811945" lon="9.4481567"><ele>213.5</ele><time>2026-04-08T09:13:43.11Z</time></trkpt><trkpt lat="44.8118833" lon="9.447765"><ele>213.0</ele><time>2026-04-08T09:13:44.11Z</time></trkpt><trkpt lat="44.81186" lon="9.44736"><ele>217.0</ele><time>2026-04-08T09:13:45.11Z</time></trkpt><trkpt lat="44.8117933" lon="9.4469667"><ele>221.0</ele><time>2026-04-08T09:13:46.11Z</time></trkpt><trkpt lat="44.81174" lon="9.4465683"><ele>220.5</ele><time>2026-04-08T09:13:47.11Z</time></trkpt><trkpt lat="44.81172" lon="9.4461617"><ele>220.0</ele><time>2026-04-08T09:13:48.109Z</time></trkpt><trkpt lat="44.8116667" lon="9.4457667"><ele>221.0</ele><time>2026-04-08T09:13:49.11Z</time></trkpt><trkpt lat="44.811615" lon="9.445375"><ele>222.0</ele><time>2026-04-08T09:13:50.11Z</time></trkpt><trkpt lat="44.81156" lon="9.4449783"><ele>222.0</ele><time>2026-04-08T09:13:51.109Z</time></trkpt><trkpt lat="44.8115167" lon="9.4445817"><ele>222.0</ele><time>2026-04-08T09:13:52.11Z</time></trkpt><trkpt lat="44.8114733" lon="9.4441867"><ele>221.5</ele><time>2026-04-08T09:13:53.11Z</time></trkpt><trkpt lat="44.8114167" lon="9.44379"><ele>221.0</ele><time>2026-04-08T09:13:54.11Z</time></trkpt><trkpt lat="44.81137" lon="9.44339"><ele>221.0</ele><time>2026-04-08T09:13:55.11Z</time></trkpt><trkpt lat="44.81132" lon="9.44299"><ele>221.0</ele><time>2026-04-08T09:13:56.11Z</time></trkpt><trkpt lat="44.8112767" lon="9.4425917"><ele>221.0</ele><time>2026-04-08T09:13:57.109Z</time></trkpt><trkpt lat="44.8112333" lon="9.4421917"><ele>221.0</ele><time>2026-04-08T09:13:58.11Z</time></trkpt><trkpt lat="44.8111967" lon="9.441795"><ele>220.0</ele><time>2026-04-08T09:13:59.11Z</time></trkpt><trkpt lat="44.81115" lon="9.4414017"><ele>219.0</ele><time>2026-04-08T09:14:00.11Z</time></trkpt><trkpt lat="44.8111" lon="9.4410117"><ele>218.0</ele><time>2026-04-08T09:14:01.11Z</time></trkpt><trkpt lat="44.8110333" lon="9.44062"><ele>217.0</ele><time>2026-04-08T09:14:02.11Z</time></trkpt><trkpt lat="44.810945" lon="9.4402333"><ele>219.0</ele><time>2026-04-08T09:14:03.11Z</time></trkpt><trkpt lat="44.8108167" lon="9.43987"><ele>221.0</ele><time>2026-04-08T09:14:04.109Z</time></trkpt><trkpt lat="44.810665" lon="9.4395217"><ele>221.0</ele><time>2026-04-08T09:14:05.11Z</time></trkpt><trkpt lat="44.8104833" lon="9.4392067"><ele>221.0</ele><time>2026-04-08T09:14:06.11Z</time></trkpt><trkpt lat="44.810285" lon="9.4389117"><ele>225.0</ele><time>2026-04-08T09:14:07.109Z</time></trkpt><trkpt lat="44.8100867" lon="9.4386267"><ele>229.0</ele><time>2026-04-08T09:14:08.109Z</time></trkpt><trkpt lat="44.8098883" lon="9.43834"><ele>229.0</ele><time>2026-04-08T09:14:09.109Z</time></trkpt><trkpt lat="44.8096883" lon="9.438055"><ele>229.0</ele><time>2026-04-08T09:14:10.11Z</time></trkpt><trkpt lat="44.8094983" lon="9.4377567"><ele>230.5</ele><time>2026-04-08T09:14:11.109Z</time></trkpt><trkpt lat="44.8093" lon="9.43747"><ele>232.0</ele><time>2026-04-08T09:14:12.11Z</time></trkpt><trkpt lat="44.8091133" lon="9.437165"><ele>227.0</ele><time>2026-04-08T09:14:13.11Z</time></trkpt><trkpt lat="44.8089217" lon="9.4368633"><ele>222.0</ele><time>2026-04-08T09:14:14.11Z</time></trkpt><trkpt lat="44.8087933" lon="9.4365033"><ele>219.5</ele><time>2026-04-08T09:14:15.109Z</time></trkpt><trkpt lat="44.8086567" lon="9.4361467"><ele>217.0</ele><time>2026-04-08T09:14:16.109Z</time></trkpt><trkpt lat="44.8085267" lon="9.43578"><ele>217.5</ele><time>2026-04-08T09:14:17.109Z</time></trkpt><trkpt lat="44.8083983" lon="9.435405"><ele>218.0</ele><time>2026-04-08T09:14:18.109Z</time></trkpt><trkpt lat="44.8082733" lon="9.4350317"><ele>218.0</ele><time>2026-04-08T09:14:19.11Z</time></trkpt><trkpt lat="44.8081417" lon="9.4346483"><ele>218.0</ele><time>2026-04-08T09:14:20.11Z</time></trkpt><trkpt lat="44.80801" lon="9.4342683"><ele>219.0</ele><time>2026-04-08T09:14:21.11Z</time></trkpt><trkpt lat="44.807865" lon="9.4338883"><ele>220.0</ele><time>2026-04-08T09:14:22.109Z</time></trkpt><trkpt lat="44.807725" lon="9.4335033"><ele>220.5</ele><time>2026-04-08T09:14:23.109Z</time></trkpt><trkpt lat="44.8075933" lon="9.4331117"><ele>221.0</ele><time>2026-04-08T09:14:24.109Z</time></trkpt><trkpt lat="44.807455" lon="9.4327267"><ele>223.0</ele><time>2026-04-08T09:14:25.11Z</time></trkpt><trkpt lat="44.8073033" lon="9.4323417"><ele>225.0</ele><time>2026-04-08T09:14:26.11Z</time></trkpt><trkpt lat="44.8071617" lon="9.431945"><ele>229.5</ele><time>2026-04-08T09:14:27.11Z</time></trkpt><trkpt lat="44.80701" lon="9.4315517"><ele>234.0</ele><time>2026-04-08T09:14:28.11Z</time></trkpt><trkpt lat="44.806845" lon="9.4311717"><ele>231.5</ele><time>2026-04-08T09:14:29.109Z</time></trkpt><trkpt lat="44.806665" lon="9.4307967"><ele>229.0</ele><time>2026-04-08T09:14:30.109Z</time></trkpt><trkpt lat="44.806475" lon="9.43043"><ele>229.0</ele><time>2026-04-08T09:14:31.109Z</time></trkpt><trkpt lat="44.8062683" lon="9.43009"><ele>229.0</ele><time>2026-04-08T09:14:32.11Z</time></trkpt><trkpt lat="44.806055" lon="9.4297567"><ele>227.5</ele><time>2026-04-08T09:14:33.109Z</time></trkpt><trkpt lat="44.805825" lon="9.4294417"><ele>226.0</ele><time>2026-04-08T09:14:34.11Z</time></trkpt><trkpt lat="44.8055867" lon="9.4291417"><ele>226.0</ele><time>2026-04-08T09:14:35.11Z</time></trkpt><trkpt lat="44.8053617" lon="9.42883"><ele>226.0</ele><time>2026-04-08T09:14:36.109Z</time></trkpt><trkpt lat="44.8051417" lon="9.42851"><ele>226.0</ele><time>2026-04-08T09:14:37.109Z</time></trkpt><trkpt lat="44.8049" lon="9.4282167"><ele>226.0</ele><time>2026-04-08T09:14:38.109Z</time></trkpt><trkpt lat="44.804675" lon="9.4279"><ele>226.0</ele><time>2026-04-08T09:14:39.109Z</time></trkpt><trkpt lat="44.8044433" lon="9.4275933"><ele>226.0</ele><time>2026-04-08T09:14:40.11Z</time></trkpt><trkpt lat="44.80421" lon="9.4273"><ele>228.0</ele><time>2026-04-08T09:14:41.11Z</time></trkpt><trkpt lat="44.80399" lon="9.427"><ele>230.0</ele><time>2026-04-08T09:14:42.11Z</time></trkpt><trkpt lat="44.8037667" lon="9.42671"><ele>230.0</ele><time>2026-04-08T09:14:43.11Z</time></trkpt><trkpt lat="44.8035433" lon="9.42642"><ele>230.0</ele><time>2026-04-08T09:14:44.109Z</time></trkpt><trkpt lat="44.8033183" lon="9.4261367"><ele>228.5</ele><time>2026-04-08T09:14:45.11Z</time></trkpt><trkpt lat="44.8030783" lon="9.42588"><ele>227.0</ele><time>2026-04-08T09:14:46.11Z</time></trkpt><trkpt lat="44.8028267" lon="9.4256483"><ele>229.0</ele><time>2026-04-08T09:14:47.109Z</time></trkpt><trkpt lat="44.80257" lon="9.4254267"><ele>231.0</ele><time>2026-04-08T09:14:48.11Z</time></trkpt><trkpt lat="44.8023067" lon="9.4252283"><ele>231.0</ele><time>2026-04-08T09:14:49.11Z</time></trkpt><trkpt lat="44.8020417" lon="9.42503"><ele>231.0</ele><time>2026-04-08T09:14:50.11Z</time></trkpt><trkpt lat="44.8017767" lon="9.4248383"><ele>229.0</ele><time>2026-04-08T09:14:51.11Z</time></trkpt><trkpt lat="44.8015117" lon="9.4246383"><ele>227.0</ele><time>2026-04-08T09:14:52.109Z</time></trkpt><trkpt lat="44.8012417" lon="9.42444"><ele>228.0</ele><time>2026-04-08T09:14:53.11Z</time></trkpt><trkpt lat="44.8009683" lon="9.42425"><ele>229.0</ele><time>2026-04-08T09:14:54.11Z</time></trkpt><trkpt lat="44.80069" lon="9.4240617"><ele>229.0</ele><time>2026-04-08T09:14:55.11Z</time></trkpt><trkpt lat="44.8004133" lon="9.4238717"><ele>229.0</ele><time>2026-04-08T09:14:56.109Z</time></trkpt><trkpt lat="44.8001333" lon="9.423695"><ele>231.5</ele><time>2026-04-08T09:14:57.11Z</time></trkpt><trkpt lat="44.79985" lon="9.4235283"><ele>234.0</ele><time>2026-04-08T09:14:58.11Z</time></trkpt><trkpt lat="44.799565" lon="9.4233967"><ele>235.0</ele><time>2026-04-08T09:14:59.11Z</time></trkpt><trkpt lat="44.7992717" lon="9.4232883"><ele>236.0</ele><time>2026-04-08T09:15:00.11Z</time></trkpt><trkpt lat="44.7989833" lon="9.42321"><ele>236.0</ele><time>2026-04-08T09:15:01.109Z</time></trkpt><trkpt lat="44.7986983" lon="9.4231717"><ele>236.0</ele><time>2026-04-08T09:15:02.109Z</time></trkpt><trkpt lat="44.7984183" lon="9.4231467"><ele>238.5</ele><time>2026-04-08T09:15:03.11Z</time></trkpt><trkpt lat="44.7981483" lon="9.4231083"><ele>241.0</ele><time>2026-04-08T09:15:04.109Z</time></trkpt><trkpt lat="44.7978867" lon="9.4230733"><ele>241.5</ele><time>2026-04-08T09:15:05.11Z</time></trkpt><trkpt lat="44.797625" lon="9.4230167"><ele>242.0</ele><time>2026-04-08T09:15:06.11Z</time></trkpt><trkpt lat="44.79737" lon="9.422945"><ele>237.0</ele><time>2026-04-08T09:15:07.11Z</time></trkpt><trkpt lat="44.7971183" lon="9.422875"><ele>232.0</ele><time>2026-04-08T09:15:08.11Z</time></trkpt><trkpt lat="44.79688" lon="9.4227667"><ele>236.0</ele><time>2026-04-08T09:15:09.11Z</time></trkpt><trkpt lat="44.7966567" lon="9.4226283"><ele>240.0</ele><time>2026-04-08T09:15:10.11Z</time></trkpt><trkpt lat="44.7964517" lon="9.4224833"><ele>240.0</ele><time>2026-04-08T09:15:11.109Z</time></trkpt><trkpt lat="44.7962717" lon="9.4223283"><ele>240.0</ele><time>2026-04-08T09:15:12.11Z</time></trkpt><trkpt lat="44.7961083" lon="9.4221633"><ele>240.0</ele><time>2026-04-08T09:15:13.11Z</time></trkpt><trkpt lat="44.795965" lon="9.4219933"><ele>242.33333333333331</ele><time>2026-04-08T09:15:14.11Z</time></trkpt><trkpt lat="44.7958333" lon="9.4218217"><ele>244.66666666666666</ele><time>2026-04-08T09:15:15.11Z</time></trkpt><trkpt lat="44.795715" lon="9.421665"><ele>247.0</ele><time>2026-04-08T09:15:16.11Z</time></trkpt><trkpt lat="44.7956" lon="9.4215183"><ele>247.0</ele><time>2026-04-08T09:15:17.109Z</time></trkpt><trkpt lat="44.7954867" lon="9.421385"><ele>247.0</ele><time>2026-04-08T09:15:18.11Z</time></trkpt><trkpt lat="44.79538" lon="9.4212333"><ele>247.0</ele><time>2026-04-08T09:15:19.11Z</time></trkpt><trkpt lat="44.795265" lon="9.4210767"><ele>257.0</ele><time>2026-04-08T09:15:20.11Z</time></trkpt><trkpt lat="44.79513" lon="9.4208967"><ele>267.0</ele><time>2026-04-08T09:15:21.11Z</time></trkpt><trkpt lat="44.7949917" lon="9.420715"><ele>277.0</ele><time>2026-04-08T09:15:22.11Z</time></trkpt><trkpt lat="44.794855" lon="9.4205417"><ele>278.3333333333333</ele><time>2026-04-08T09:15:23.11Z</time></trkpt><trkpt lat="44.794705" lon="9.42036"><ele>279.6666666666667</ele><time>2026-04-08T09:15:24.11Z</time></trkpt><trkpt lat="44.7945533" lon="9.420175"><ele>281.0</ele><time>2026-04-08T09:15:25.11Z</time></trkpt><trkpt lat="44.7944133" lon="9.4199983"><ele>295.33333333333337</ele><time>2026-04-08T09:15:26.109Z</time></trkpt><trkpt lat="44.79429" lon="9.4198033"><ele>309.6666666666667</ele><time>2026-04-08T09:15:27.11Z</time></trkpt><trkpt lat="44.7941833" lon="9.4195983"><ele>324.0</ele><time>2026-04-08T09:15:28.11Z</time></trkpt><trkpt lat="44.7940633" lon="9.41938"><ele>324.0</ele><time>2026-04-08T09:15:29.11Z</time></trkpt><trkpt lat="44.7939517" lon="9.4191717"><ele>324.0</ele><time>2026-04-08T09:15:30.11Z</time></trkpt><trkpt lat="44.79385" lon="9.4189617"><ele>324.0</ele><time>2026-04-08T09:15:31.11Z</time></trkpt><trkpt lat="44.79375" lon="9.4187617"><ele>240.0</ele><time>2026-04-08T09:15:32.11Z</time></trkpt><trkpt lat="44.78984" lon="9.4139"><ele>238.0</ele><time>2026-04-08T09:15:45.11Z</time></trkpt><trkpt lat="44.7896167" lon="9.413605"><ele>236.0</ele><time>2026-04-08T09:15:46.11Z</time></trkpt><trkpt lat="44.7893933" lon="9.4133167"><ele>236.5</ele><time>2026-04-08T09:15:47.11Z</time></trkpt><trkpt lat="44.7891733" lon="9.4130217"><ele>237.0</ele><time>2026-04-08T09:15:48.11Z</time></trkpt><trkpt lat="44.7889567" lon="9.4127417"><ele>237.0</ele><time>2026-04-08T09:15:49.11Z</time></trkpt><trkpt lat="44.7887433" lon="9.412455"><ele>237.0</ele><time>2026-04-08T09:15:50.109Z</time></trkpt><trkpt lat="44.7885183" lon="9.4121867"><ele>237.5</ele><time>2026-04-08T09:15:51.11Z</time></trkpt><trkpt lat="44.788295" lon="9.4119133"><ele>238.0</ele><time>2026-04-08T09:15:52.11Z</time></trkpt><trkpt lat="44.7880683" lon="9.4116433"><ele>238.0</ele><time>2026-04-08T09:15:53.109Z</time></trkpt><trkpt lat="44.7878467" lon="9.4113617"><ele>238.0</ele><time>2026-04-08T09:15:54.11Z</time></trkpt><trkpt lat="44.7876483" lon="9.4110583"><ele>239.0</ele><time>2026-04-08T09:15:55.11Z</time></trkpt><trkpt lat="44.7874167" lon="9.4108017"><ele>240.0</ele><time>2026-04-08T09:15:56.11Z</time></trkpt><trkpt lat="44.787215" lon="9.4105133"><ele>238.5</ele><time>2026-04-08T09:15:57.11Z</time></trkpt><trkpt lat="44.7870067" lon="9.4102333"><ele>237.0</ele><time>2026-04-08T09:15:58.109Z</time></trkpt><trkpt lat="44.7868017" lon="9.4099517"><ele>241.5</ele><time>2026-04-08T09:15:59.11Z</time></trkpt><trkpt lat="44.78659" lon="9.40967"><ele>246.0</ele><time>2026-04-08T09:16:00.11Z</time></trkpt><trkpt lat="44.7863767" lon="9.4093783"><ele>246.0</ele><time>2026-04-08T09:16:01.11Z</time></trkpt><trkpt lat="44.7861467" lon="9.4090967"><ele>246.0</ele><time>2026-04-08T09:16:02.11Z</time></trkpt><trkpt lat="44.785925" lon="9.4087967"><ele>246.0</ele><time>2026-04-08T09:16:03.11Z</time></trkpt><trkpt lat="44.7857033" lon="9.40849"><ele>246.0</ele><time>2026-04-08T09:16:04.11Z</time></trkpt><trkpt lat="44.7854533" lon="9.4082117"><ele>247.0</ele><time>2026-04-08T09:16:05.11Z</time></trkpt><trkpt lat="44.78523" lon="9.40789"><ele>248.0</ele><time>2026-04-08T09:16:06.11Z</time></trkpt><trkpt lat="44.78501" lon="9.4075583"><ele>248.0</ele><time>2026-04-08T09:16:07.11Z</time></trkpt><trkpt lat="44.7847633" lon="9.4072483"><ele>248.0</ele><time>2026-04-08T09:16:08.11Z</time></trkpt><trkpt lat="44.7845317" lon="9.406905"><ele>249.5</ele><time>2026-04-08T09:16:09.11Z</time></trkpt><trkpt lat="44.784295" lon="9.4065517"><ele>251.0</ele><time>2026-04-08T09:16:10.109Z</time></trkpt><trkpt lat="44.7840467" lon="9.4061917"><ele>247.5</ele><time>2026-04-08T09:16:11.11Z</time></trkpt><trkpt lat="44.7837867" lon="9.4058283"><ele>244.0</ele><time>2026-04-08T09:16:12.11Z</time></trkpt><trkpt lat="44.78352" lon="9.4054617"><ele>242.5</ele><time>2026-04-08T09:16:13.11Z</time></trkpt><trkpt lat="44.783255" lon="9.405075"><ele>241.0</ele><time>2026-04-08T09:16:14.109Z</time></trkpt><trkpt lat="44.7829933" lon="9.4046817"><ele>241.0</ele><time>2026-04-08T09:16:15.109Z</time></trkpt><trkpt lat="44.7827233" lon="9.404295"><ele>241.0</ele><time>2026-04-08T09:16:16.11Z</time></trkpt><trkpt lat="44.7824583" lon="9.4039033"><ele>242.5</ele><time>2026-04-08T09:16:17.109Z</time></trkpt><trkpt lat="44.7822" lon="9.40353"><ele>244.0</ele><time>2026-04-08T09:16:18.11Z</time></trkpt><trkpt lat="44.7819583" lon="9.403175"><ele>245.5</ele><time>2026-04-08T09:16:19.11Z</time></trkpt><trkpt lat="44.78173" lon="9.4028383"><ele>247.0</ele><time>2026-04-08T09:16:20.11Z</time></trkpt><trkpt lat="44.7815133" lon="9.4025133"><ele>247.0</ele><time>2026-04-08T09:16:21.109Z</time></trkpt><trkpt lat="44.7813017" lon="9.4022067"><ele>247.0</ele><time>2026-04-08T09:16:22.11Z</time></trkpt><trkpt lat="44.7810917" lon="9.40192"><ele>247.5</ele><time>2026-04-08T09:16:23.11Z</time></trkpt><trkpt lat="44.7808883" lon="9.4016317"><ele>248.0</ele><time>2026-04-08T09:16:24.109Z</time></trkpt><trkpt lat="44.7806917" lon="9.4013367"><ele>251.5</ele><time>2026-04-08T09:16:25.11Z</time></trkpt><trkpt lat="44.780515" lon="9.40102"><ele>255.0</ele><time>2026-04-08T09:16:26.11Z</time></trkpt><trkpt lat="44.780345" lon="9.4007"><ele>253.5</ele><time>2026-04-08T09:16:27.11Z</time></trkpt><trkpt lat="44.7802083" lon="9.4003483"><ele>252.0</ele><time>2026-04-08T09:16:28.11Z</time></trkpt><trkpt lat="44.7800817" lon="9.3999867"><ele>254.5</ele><time>2026-04-08T09:16:29.109Z</time></trkpt><trkpt lat="44.7799767" lon="9.399605"><ele>257.0</ele><time>2026-04-08T09:16:30.11Z</time></trkpt><trkpt lat="44.779895" lon="9.399205"><ele>258.5</ele><time>2026-04-08T09:16:31.11Z</time></trkpt><trkpt lat="44.7798317" lon="9.3987917"><ele>260.0</ele><time>2026-04-08T09:16:32.11Z</time></trkpt><trkpt lat="44.7797933" lon="9.3983733"><ele>260.5</ele><time>2026-04-08T09:16:33.11Z</time></trkpt><trkpt lat="44.779765" lon="9.397945"><ele>261.0</ele><time>2026-04-08T09:16:34.11Z</time></trkpt><trkpt lat="44.7797417" lon="9.3975217"><ele>264.0</ele><time>2026-04-08T09:16:35.11Z</time></trkpt><trkpt lat="44.7797083" lon="9.397095"><ele>267.0</ele><time>2026-04-08T09:16:36.11Z</time></trkpt><trkpt lat="44.7796633" lon="9.3966667"><ele>271.0</ele><time>2026-04-08T09:16:37.109Z</time></trkpt><trkpt lat="44.7796067" lon="9.3962417"><ele>275.0</ele><time>2026-04-08T09:16:38.11Z</time></trkpt><trkpt lat="44.779515" lon="9.3958267"><ele>277.5</ele><time>2026-04-08T09:16:39.11Z</time></trkpt><trkpt lat="44.7794233" lon="9.3954083"><ele>280.0</ele><time>2026-04-08T09:16:40.11Z</time></trkpt><trkpt lat="44.779325" lon="9.39499"><ele>266.5</ele><time>2026-04-08T09:16:41.11Z</time></trkpt><trkpt lat="44.77921" lon="9.394585"><ele>253.0</ele><time>2026-04-08T09:16:42.11Z</time></trkpt><trkpt lat="44.7790783" lon="9.39419"><ele>258.5</ele><time>2026-04-08T09:16:43.11Z</time></trkpt><trkpt lat="44.77893" lon="9.39381"><ele>264.0</ele><time>2026-04-08T09:16:44.11Z</time></trkpt><trkpt lat="44.7787717" lon="9.3934417"><ele>264.0</ele><time>2026-04-08T09:16:45.109Z</time></trkpt><trkpt lat="44.7786033" lon="9.3930867"><ele>264.0</ele><time>2026-04-08T09:16:46.11Z</time></trkpt><trkpt lat="44.778425" lon="9.3927433"><ele>259.5</ele><time>2026-04-08T09:16:47.11Z</time></trkpt><trkpt lat="44.7782367" lon="9.39241"><ele>255.0</ele><time>2026-04-08T09:16:48.11Z</time></trkpt><trkpt lat="44.7780367" lon="9.3920967"><ele>255.5</ele><time>2026-04-08T09:16:49.11Z</time></trkpt><trkpt lat="44.7778117" lon="9.3918167"><ele>256.0</ele><time>2026-04-08T09:16:50.11Z</time></trkpt><trkpt lat="44.7775783" lon="9.3915567"><ele>266.0</ele><time>2026-04-08T09:16:51.11Z</time></trkpt><trkpt lat="44.7773467" lon="9.3913083"><ele>276.0</ele><time>2026-04-08T09:16:52.11Z</time></trkpt><trkpt lat="44.7771117" lon="9.3910733"><ele>276.0</ele><time>2026-04-08T09:16:53.11Z</time></trkpt><trkpt lat="44.776875" lon="9.390845"><ele>276.0</ele><time>2026-04-08T09:16:54.11Z</time></trkpt><trkpt lat="44.7766367" lon="9.3906317"><ele>273.0</ele><time>2026-04-08T09:16:55.11Z</time></trkpt><trkpt lat="44.77641" lon="9.3904283"><ele>270.0</ele><time>2026-04-08T09:16:56.11Z</time></trkpt><trkpt lat="44.7761917" lon="9.3902233"><ele>262.0</ele><time>2026-04-08T09:16:57.11Z</time></trkpt><trkpt lat="44.77598" lon="9.3900267"><ele>254.0</ele><time>2026-04-08T09:16:58.11Z</time></trkpt><trkpt lat="44.7757617" lon="9.389845"><ele>254.0</ele><time>2026-04-08T09:16:59.109Z</time></trkpt><trkpt lat="44.775535" lon="9.389695"><ele>254.0</ele><time>2026-04-08T09:17:00.11Z</time></trkpt><trkpt lat="44.7753067" lon="9.3895667"><ele>254.5</ele><time>2026-04-08T09:17:01.11Z</time></trkpt><trkpt lat="44.7750717" lon="9.3894767"><ele>255.0</ele><time>2026-04-08T09:17:02.11Z</time></trkpt><trkpt lat="44.77483" lon="9.38942"><ele>255.0</ele><time>2026-04-08T09:17:03.11Z</time></trkpt><trkpt lat="44.7745833" lon="9.3893967"><ele>255.0</ele><time>2026-04-08T09:17:04.11Z</time></trkpt><trkpt lat="44.774335" lon="9.3893983"><ele>255.0</ele><time>2026-04-08T09:17:05.11Z</time></trkpt><trkpt lat="44.7740917" lon="9.3894133"><ele>255.0</ele><time>2026-04-08T09:17:06.109Z</time></trkpt><trkpt lat="44.77386" lon="9.38943"><ele>255.0</ele><time>2026-04-08T09:17:07.11Z</time></trkpt><trkpt lat="44.7736367" lon="9.3894467"><ele>255.0</ele><time>2026-04-08T09:17:08.11Z</time></trkpt><trkpt lat="44.7734283" lon="9.389435"><ele>255.0</ele><time>2026-04-08T09:17:09.11Z</time></trkpt><trkpt lat="44.7732433" lon="9.38944"><ele>256.0</ele><time>2026-04-08T09:17:10.109Z</time></trkpt><trkpt lat="44.7731033" lon="9.3894283"><ele>257.0</ele><time>2026-04-08T09:17:11.11Z</time></trkpt><trkpt lat="44.7730017" lon="9.38941"><ele>258.0</ele><time>2026-04-08T09:17:12.11Z</time></trkpt><trkpt lat="44.7729217" lon="9.3893333"><ele>259.0</ele><time>2026-04-08T09:17:13.11Z</time></trkpt><trkpt lat="44.7728683" lon="9.38921"><ele>260.0</ele><time>2026-04-08T09:17:14.11Z</time></trkpt><trkpt lat="44.77286" lon="9.38903"><ele>261.0</ele><time>2026-04-08T09:17:15.109Z</time></trkpt><trkpt lat="44.7728633" lon="9.38883"><ele>262.0</ele><time>2026-04-08T09:17:16.11Z</time></trkpt><trkpt lat="44.7728833" lon="9.388605"><ele>263.0</ele><time>2026-04-08T09:17:17.11Z</time></trkpt><trkpt lat="44.7729133" lon="9.3883717"><ele>263.0</ele><time>2026-04-08T09:17:18.11Z</time></trkpt><trkpt lat="44.7729383" lon="9.38815"><ele>263.0</ele><time>2026-04-08T09:17:19.11Z</time></trkpt><trkpt lat="44.77296" lon="9.387965"><ele>263.0</ele><time>2026-04-08T09:17:20.11Z</time></trkpt><trkpt lat="44.7729767" lon="9.3878217"><ele>263.0</ele><time>2026-04-08T09:17:21.11Z</time></trkpt><trkpt lat="44.7729967" lon="9.3877033"><ele>263.2</ele><time>2026-04-08T09:17:22.11Z</time></trkpt><trkpt lat="44.7730167" lon="9.3876133"><ele>263.4</ele><time>2026-04-08T09:17:23.11Z</time></trkpt><trkpt lat="44.77297" lon="9.3875033"><ele>263.59999999999997</ele><time>2026-04-08T09:17:25.109Z</time></trkpt><trkpt lat="44.772845" lon="9.3874367"><ele>263.8</ele><time>2026-04-08T09:17:27.11Z</time></trkpt><trkpt lat="44.7727567" lon="9.387425"><ele>264.0</ele><time>2026-04-08T09:17:28.11Z</time></trkpt><trkpt lat="44.7726433" lon="9.38741"><ele>265.0</ele><time>2026-04-08T09:17:29.11Z</time></trkpt><trkpt lat="44.7725183" lon="9.3873933"><ele>266.0</ele><time>2026-04-08T09:17:30.11Z</time></trkpt><trkpt lat="44.7723917" lon="9.387375"><ele>267.0</ele><time>2026-04-08T09:17:31.11Z</time></trkpt><trkpt lat="44.7722667" lon="9.3873617"><ele>268.0</ele><time>2026-04-08T09:17:32.109Z</time></trkpt><trkpt lat="44.7721367" lon="9.3873433"><ele>268.0</ele><time>2026-04-08T09:17:33.109Z</time></trkpt><trkpt lat="44.7719967" lon="9.3873183"><ele>268.0</ele><time>2026-04-08T09:17:34.11Z</time></trkpt><trkpt lat="44.7718583" lon="9.387295"><ele>268.0</ele><time>2026-04-08T09:17:35.109Z</time></trkpt><trkpt lat="44.7717283" lon="9.387265"><ele>268.0</ele><time>2026-04-08T09:17:36.11Z</time></trkpt><trkpt lat="44.7715967" lon="9.3872383"><ele>268.25</ele><time>2026-04-08T09:17:37.11Z</time></trkpt><trkpt lat="44.7714633" lon="9.3872067"><ele>268.5</ele><time>2026-04-08T09:17:38.11Z</time></trkpt><trkpt lat="44.7713283" lon="9.3871783"><ele>268.75</ele><time>2026-04-08T09:17:39.11Z</time></trkpt><trkpt lat="44.7711933" lon="9.38715"><ele>269.0</ele><time>2026-04-08T09:17:40.109Z</time></trkpt><trkpt lat="44.77106" lon="9.3871283"><ele>271.5</ele><time>2026-04-08T09:17:41.11Z</time></trkpt><trkpt lat="44.7709317" lon="9.3871017"><ele>274.0</ele><time>2026-04-08T09:17:42.11Z</time></trkpt><trkpt lat="44.770815" lon="9.38708"><ele>276.5</ele><time>2026-04-08T09:17:43.11Z</time></trkpt><trkpt lat="44.7707033" lon="9.3870683"><ele>279.0</ele><time>2026-04-08T09:17:44.11Z</time></trkpt><trkpt lat="44.7705967" lon="9.387005"><ele>279.0</ele><time>2026-04-08T09:17:45.11Z</time></trkpt><trkpt lat="44.7704667" lon="9.38697"><ele>279.0</ele><time>2026-04-08T09:17:46.109Z</time></trkpt><trkpt lat="44.770335" lon="9.3869067"><ele>279.0</ele><time>2026-04-08T09:17:47.11Z</time></trkpt><trkpt lat="44.7702133" lon="9.3868317"><ele>279.0</ele><time>2026-04-08T09:17:48.11Z</time></trkpt><trkpt lat="44.7700833" lon="9.3867517"><ele>279.0</ele><time>2026-04-08T09:17:49.11Z</time></trkpt><trkpt lat="44.769945" lon="9.3866767"><ele>279.0</ele><time>2026-04-08T09:17:50.11Z</time></trkpt><trkpt lat="44.7698067" lon="9.3866433"><ele>279.0</ele><time>2026-04-08T09:17:51.11Z</time></trkpt><trkpt lat="44.769695" lon="9.3865833"><ele>279.0</ele><time>2026-04-08T09:17:52.11Z</time></trkpt><trkpt lat="44.7696" lon="9.3865267"><ele>279.0</ele><time>2026-04-08T09:17:53.11Z</time></trkpt><trkpt lat="44.7695183" lon="9.3864817"><ele>279.0</ele><time>2026-04-08T09:17:54.11Z</time></trkpt><trkpt lat="44.7694467" lon="9.38645"><ele>279.0</ele><time>2026-04-08T09:17:55.11Z</time></trkpt><trkpt lat="44.7693567" lon="9.3864333"><ele>279.0</ele><time>2026-04-08T09:17:57.109Z</time></trkpt><trkpt lat="44.769285" lon="9.386445"><ele>279.0</ele><time>2026-04-08T09:18:01.108Z</time></trkpt><trkpt lat="44.7692283" lon="9.386535"><ele>279.0</ele><time>2026-04-08T09:18:04.109Z</time></trkpt><trkpt lat="44.7691667" lon="9.3867083"><ele>279.5</ele><time>2026-04-08T09:18:06.109Z</time></trkpt><trkpt lat="44.769115" lon="9.3868633"><ele>280.0</ele><time>2026-04-08T09:18:07.109Z</time></trkpt><trkpt lat="44.7690583" lon="9.3870317"><ele>280.5</ele><time>2026-04-08T09:18:08.108Z</time></trkpt><trkpt lat="44.7690133" lon="9.3871867"><ele>281.0</ele><time>2026-04-08T09:18:09.109Z</time></trkpt><trkpt lat="44.7689533" lon="9.38731"><ele>279.5</ele><time>2026-04-08T09:18:10.109Z</time></trkpt><trkpt lat="44.7688667" lon="9.387385"><ele>278.0</ele><time>2026-04-08T09:18:11.108Z</time></trkpt><trkpt lat="44.7687583" lon="9.3874183"><ele>276.5</ele><time>2026-04-08T09:18:12.109Z</time></trkpt><trkpt lat="44.7686283" lon="9.3874233"><ele>275.0</ele><time>2026-04-08T09:18:13.109Z</time></trkpt><trkpt lat="44.7684783" lon="9.38745"><ele>275.0</ele><time>2026-04-08T09:18:14.109Z</time></trkpt><trkpt lat="44.7683217" lon="9.387485"><ele>275.0</ele><time>2026-04-08T09:18:15.109Z</time></trkpt><trkpt lat="44.76817" lon="9.3875417"><ele>275.0</ele><time>2026-04-08T09:18:16.109Z</time></trkpt><trkpt lat="44.768035" lon="9.3876083"><ele>275.0</ele><time>2026-04-08T09:18:17.109Z</time></trkpt><trkpt lat="44.76791" lon="9.38768"><ele>275.0</ele><time>2026-04-08T09:18:18.109Z</time></trkpt><trkpt lat="44.7678033" lon="9.38775"><ele>275.0</ele><time>2026-04-08T09:18:19.108Z</time></trkpt><trkpt lat="44.7677167" lon="9.3878483"><ele>275.0</ele><time>2026-04-08T09:18:20.109Z</time></trkpt><trkpt lat="44.7676367" lon="9.38797"><ele>273.75</ele><time>2026-04-08T09:18:21.109Z</time></trkpt><trkpt lat="44.7675533" lon="9.3881033"><ele>272.5</ele><time>2026-04-08T09:18:22.109Z</time></trkpt><trkpt lat="44.767465" lon="9.3882517"><ele>271.25</ele><time>2026-04-08T09:18:23.109Z</time></trkpt><trkpt lat="44.7673767" lon="9.388395"><ele>270.0</ele><time>2026-04-08T09:18:24.109Z</time></trkpt><trkpt lat="44.7672917" lon="9.3885183"><ele>270.0</ele><time>2026-04-08T09:18:25.109Z</time></trkpt><trkpt lat="44.7672067" lon="9.3885983"><ele>270.0</ele><time>2026-04-08T09:18:26.109Z</time></trkpt><trkpt lat="44.7671017" lon="9.3886117"><ele>270.0</ele><time>2026-04-08T09:18:27.109Z</time></trkpt><trkpt lat="44.7669683" lon="9.3885817"><ele>270.0</ele><time>2026-04-08T09:18:28.109Z</time></trkpt><trkpt lat="44.766815" lon="9.3885117"><ele>270.3333333333333</ele><time>2026-04-08T09:18:29.109Z</time></trkpt><trkpt lat="44.7666583" lon="9.3884417"><ele>270.66666666666663</ele><time>2026-04-08T09:18:30.109Z</time></trkpt><trkpt lat="44.76651" lon="9.388385"><ele>271.0</ele><time>2026-04-08T09:18:31.109Z</time></trkpt><trkpt lat="44.7663767" lon="9.3883167"><ele>271.0</ele><time>2026-04-08T09:18:32.109Z</time></trkpt><trkpt lat="44.7662667" lon="9.3882183"><ele>271.0</ele><time>2026-04-08T09:18:33.109Z</time></trkpt><trkpt lat="44.766185" lon="9.3880833"><ele>271.0</ele><time>2026-04-08T09:18:34.109Z</time></trkpt><trkpt lat="44.7661417" lon="9.3879133"><ele>271.0</ele><time>2026-04-08T09:18:35.109Z</time></trkpt><trkpt lat="44.7661183" lon="9.387715"><ele>273.25</ele><time>2026-04-08T09:18:36.108Z</time></trkpt><trkpt lat="44.7661017" lon="9.3875067"><ele>275.5</ele><time>2026-04-08T09:18:37.109Z</time></trkpt><trkpt lat="44.7660917" lon="9.38729"><ele>277.75</ele><time>2026-04-08T09:18:38.108Z</time></trkpt><trkpt lat="44.7660817" lon="9.3870883"><ele>280.0</ele><time>2026-04-08T09:18:39.109Z</time></trkpt><trkpt lat="44.7660667" lon="9.3869067"><ele>277.5</ele><time>2026-04-08T09:18:40.109Z</time></trkpt><trkpt lat="44.766025" lon="9.38675"><ele>275.0</ele><time>2026-04-08T09:18:41.109Z</time></trkpt><trkpt lat="44.76595" lon="9.3866133"><ele>272.5</ele><time>2026-04-08T09:18:42.109Z</time></trkpt><trkpt lat="44.765835" lon="9.386525"><ele>270.0</ele><time>2026-04-08T09:18:43.108Z</time></trkpt><trkpt lat="44.7657033" lon="9.3864733"><ele>270.0</ele><time>2026-04-08T09:18:44.109Z</time></trkpt><trkpt lat="44.7656033" lon="9.3864417"><ele>270.0</ele><time>2026-04-08T09:18:45.109Z</time></trkpt><trkpt lat="44.7655217" lon="9.38642"><ele>270.0</ele><time>2026-04-08T09:18:46.108Z</time></trkpt><trkpt lat="44.7654517" lon="9.3863967"><ele>270.0</ele><time>2026-04-08T09:18:47.108Z</time></trkpt><trkpt lat="44.7653817" lon="9.3863717"><ele>270.0</ele><time>2026-04-08T09:18:48.109Z</time></trkpt><trkpt lat="44.765305" lon="9.3863417"><ele>270.0</ele><time>2026-04-08T09:18:49.109Z</time></trkpt><trkpt lat="44.76521" lon="9.38631"><ele>269.75</ele><time>2026-04-08T09:18:50.109Z</time></trkpt><trkpt lat="44.765095" lon="9.3862633"><ele>269.5</ele><time>2026-04-08T09:18:51.109Z</time></trkpt><trkpt lat="44.7649717" lon="9.3862133"><ele>269.25</ele><time>2026-04-08T09:18:52.108Z</time></trkpt><trkpt lat="44.7648467" lon="9.3861717"><ele>269.0</ele><time>2026-04-08T09:18:53.109Z</time></trkpt><trkpt lat="44.7647383" lon="9.3861383"><ele>269.0</ele><time>2026-04-08T09:18:54.109Z</time></trkpt><trkpt lat="44.7646517" lon="9.38611"><ele>269.0</ele><time>2026-04-08T09:18:55.109Z</time></trkpt><trkpt lat="44.76458" lon="9.3860833"><ele>269.0</ele><time>2026-04-08T09:18:56.109Z</time></trkpt><trkpt lat="44.7645117" lon="9.3860583"><ele>269.0</ele><time>2026-04-08T09:18:57.109Z</time></trkpt><trkpt lat="44.7644383" lon="9.3860283"><ele>269.0</ele><time>2026-04-08T09:18:58.108Z</time></trkpt><trkpt lat="44.7643583" lon="9.38599"><ele>269.0</ele><time>2026-04-08T09:18:59.109Z</time></trkpt><trkpt lat="44.7642817" lon="9.3859667"><ele>268.5</ele><time>2026-04-08T09:19:00.109Z</time></trkpt><trkpt lat="44.764215" lon="9.3859333"><ele>268.0</ele><time>2026-04-08T09:19:01.108Z</time></trkpt><trkpt lat="44.7641533" lon="9.3858783"><ele>267.5</ele><time>2026-04-08T09:19:02.108Z</time></trkpt><trkpt lat="44.764095" lon="9.38581"><ele>267.0</ele><time>2026-04-08T09:19:03.109Z</time></trkpt><trkpt lat="44.7640433" lon="9.3857367"><ele>266.5</ele><time>2026-04-08T09:19:04.109Z</time></trkpt><trkpt lat="44.76399" lon="9.38565"><ele>266.0</ele><time>2026-04-08T09:19:05.109Z</time></trkpt><trkpt lat="44.7639333" lon="9.3855483"><ele>271.0</ele><time>2026-04-08T09:19:06.109Z</time></trkpt><trkpt lat="44.7638683" lon="9.3854167"><ele>276.0</ele><time>2026-04-08T09:19:07.109Z</time></trkpt><trkpt lat="44.763785" lon="9.3852417"><ele>281.0</ele><time>2026-04-08T09:19:08.109Z</time></trkpt><trkpt lat="44.763685" lon="9.384985"><ele>274.5</ele><time>2026-04-08T09:19:09.109Z</time></trkpt><trkpt lat="44.7635283" lon="9.384675"><ele>268.0</ele><time>2026-04-08T09:19:10.109Z</time></trkpt><trkpt lat="44.763365" lon="9.3843617"><ele>268.0</ele><time>2026-04-08T09:19:11.109Z</time></trkpt><trkpt lat="44.763175" lon="9.384055"><ele>268.0</ele><time>2026-04-08T09:19:12.108Z</time></trkpt><trkpt lat="44.7629683" lon="9.3837567"><ele>265.5</ele><time>2026-04-08T09:19:13.109Z</time></trkpt><trkpt lat="44.7627283" lon="9.3834917"><ele>263.0</ele><time>2026-04-08T09:19:14.108Z</time></trkpt><trkpt lat="44.7624633" lon="9.3832517"><ele>263.0</ele><time>2026-04-08T09:19:15.109Z</time></trkpt><trkpt lat="44.7621817" lon="9.383055"><ele>263.0</ele><time>2026-04-08T09:19:16.108Z</time></trkpt><trkpt lat="44.7618917" lon="9.3828583"><ele>263.0</ele><time>2026-04-08T09:19:17.108Z</time></trkpt><trkpt lat="44.7615983" lon="9.38266"><ele>263.0</ele><time>2026-04-08T09:19:18.109Z</time></trkpt><trkpt lat="44.7613017" lon="9.3824583"><ele>261.5</ele><time>2026-04-08T09:19:19.108Z</time></trkpt><trkpt lat="44.7610083" lon="9.3822383"><ele>260.0</ele><time>2026-04-08T09:19:20.109Z</time></trkpt><trkpt lat="44.76072" lon="9.3820367"><ele>263.0</ele><time>2026-04-08T09:19:21.109Z</time></trkpt><trkpt lat="44.7604417" lon="9.381865"><ele>266.0</ele><time>2026-04-08T09:19:22.109Z</time></trkpt><trkpt lat="44.7601733" lon="9.3816983"><ele>266.0</ele><time>2026-04-08T09:19:23.108Z</time></trkpt><trkpt lat="44.75989" lon="9.3815967"><ele>266.0</ele><time>2026-04-08T09:19:24.109Z</time></trkpt><trkpt lat="44.7596033" lon="9.3815433"><ele>266.0</ele><time>2026-04-08T09:19:25.108Z</time></trkpt><trkpt lat="44.7593133" lon="9.3815533"><ele>266.0</ele><time>2026-04-08T09:19:26.109Z</time></trkpt><trkpt lat="44.7590067" lon="9.3816283"><ele>266.0</ele><time>2026-04-08T09:19:27.109Z</time></trkpt><trkpt lat="44.7586917" lon="9.3817033"><ele>266.0</ele><time>2026-04-08T09:19:28.109Z</time></trkpt><trkpt lat="44.75839" lon="9.3817667"><ele>266.5</ele><time>2026-04-08T09:19:29.109Z</time></trkpt><trkpt lat="44.7581083" lon="9.3818267"><ele>267.0</ele><time>2026-04-08T09:19:30.109Z</time></trkpt><trkpt lat="44.75785" lon="9.3818683"><ele>267.6666666666667</ele><time>2026-04-08T09:19:31.109Z</time></trkpt><trkpt lat="44.7576183" lon="9.381915"><ele>268.33333333333337</ele><time>2026-04-08T09:19:32.108Z</time></trkpt><trkpt lat="44.757405" lon="9.3819517"><ele>269.0</ele><time>2026-04-08T09:19:33.109Z</time></trkpt><trkpt lat="44.7572217" lon="9.3819817"><ele>269.0</ele><time>2026-04-08T09:19:34.109Z</time></trkpt><trkpt lat="44.7570567" lon="9.3820133"><ele>269.0</ele><time>2026-04-08T09:19:35.109Z</time></trkpt><trkpt lat="44.7569033" lon="9.3820433"><ele>269.0</ele><time>2026-04-08T09:19:36.109Z</time></trkpt><trkpt lat="44.7567567" lon="9.38206"><ele>269.5</ele><time>2026-04-08T09:19:37.109Z</time></trkpt><trkpt lat="44.756615" lon="9.3820633"><ele>270.0</ele><time>2026-04-08T09:19:38.109Z</time></trkpt><trkpt lat="44.75648" lon="9.3820467"><ele>270.5</ele><time>2026-04-08T09:19:39.109Z</time></trkpt><trkpt lat="44.7563517" lon="9.3820183"><ele>271.0</ele><time>2026-04-08T09:19:40.109Z</time></trkpt><trkpt lat="44.756225" lon="9.3819733"><ele>271.0</ele><time>2026-04-08T09:19:41.109Z</time></trkpt><trkpt lat="44.7561" lon="9.3819183"><ele>271.0</ele><time>2026-04-08T09:19:42.109Z</time></trkpt><trkpt lat="44.755975" lon="9.3818567"><ele>271.0</ele><time>2026-04-08T09:19:43.108Z</time></trkpt><trkpt lat="44.7558567" lon="9.3817733"><ele>271.0</ele><time>2026-04-08T09:19:44.109Z</time></trkpt><trkpt lat="44.7557133" lon="9.3816733"><ele>271.0</ele><time>2026-04-08T09:19:45.109Z</time></trkpt><trkpt lat="44.755555" lon="9.3815333"><ele>271.0</ele><time>2026-04-08T09:19:46.108Z</time></trkpt><trkpt lat="44.755385" lon="9.3813667"><ele>271.0</ele><time>2026-04-08T09:19:47.109Z</time></trkpt><trkpt lat="44.7552033" lon="9.3811817"><ele>271.0</ele><time>2026-04-08T09:19:48.109Z</time></trkpt><trkpt lat="44.7550083" lon="9.3809833"><ele>271.0</ele><time>2026-04-08T09:19:49.109Z</time></trkpt><trkpt lat="44.7547983" lon="9.3807917"><ele>271.0</ele><time>2026-04-08T09:19:50.109Z</time></trkpt><trkpt lat="44.7545917" lon="9.3805767"><ele>271.0</ele><time>2026-04-08T09:19:51.108Z</time></trkpt><trkpt lat="44.7543767" lon="9.38038"><ele>271.0</ele><time>2026-04-08T09:19:52.109Z</time></trkpt><trkpt lat="44.7541717" lon="9.3801933"><ele>271.0</ele><time>2026-04-08T09:19:53.109Z</time></trkpt><trkpt lat="44.7539533" lon="9.38004"><ele>271.0</ele><time>2026-04-08T09:19:54.109Z</time></trkpt><trkpt lat="44.75371" lon="9.37992"><ele>271.0</ele><time>2026-04-08T09:19:55.108Z</time></trkpt><trkpt lat="44.7534583" lon="9.37983"><ele>267.5</ele><time>2026-04-08T09:19:56.109Z</time></trkpt><trkpt lat="44.7531717" lon="9.37976"><ele>264.0</ele><time>2026-04-08T09:19:57.109Z</time></trkpt><trkpt lat="44.752845" lon="9.379745"><ele>263.0</ele><time>2026-04-08T09:19:58.109Z</time></trkpt><trkpt lat="44.75251" lon="9.379725"><ele>262.0</ele><time>2026-04-08T09:19:59.109Z</time></trkpt><trkpt lat="44.75216" lon="9.3797017"><ele>263.0</ele><time>2026-04-08T09:20:00.108Z</time></trkpt><trkpt lat="44.7518" lon="9.37969"><ele>264.0</ele><time>2026-04-08T09:20:01.109Z</time></trkpt><trkpt lat="44.75146" lon="9.3796767"><ele>264.0</ele><time>2026-04-08T09:20:02.109Z</time></trkpt><trkpt lat="44.7511383" lon="9.3796583"><ele>264.0</ele><time>2026-04-08T09:20:03.109Z</time></trkpt><trkpt lat="44.7508367" lon="9.3796333"><ele>265.5</ele><time>2026-04-08T09:20:04.109Z</time></trkpt><trkpt lat="44.7505517" lon="9.3796083"><ele>267.0</ele><time>2026-04-08T09:20:05.108Z</time></trkpt><trkpt lat="44.7502867" lon="9.3796167"><ele>267.0</ele><time>2026-04-08T09:20:06.109Z</time></trkpt><trkpt lat="44.7500383" lon="9.37966"><ele>267.0</ele><time>2026-04-08T09:20:07.109Z</time></trkpt><trkpt lat="44.7497967" lon="9.3797417"><ele>268.5</ele><time>2026-04-08T09:20:08.109Z</time></trkpt><trkpt lat="44.7495567" lon="9.3798833"><ele>270.0</ele><time>2026-04-08T09:20:09.108Z</time></trkpt><trkpt lat="44.7493183" lon="9.3800717"><ele>273.0</ele><time>2026-04-08T09:20:10.109Z</time></trkpt><trkpt lat="44.7491067" lon="9.3803217"><ele>276.0</ele><time>2026-04-08T09:20:11.109Z</time></trkpt><trkpt lat="44.7489367" lon="9.380635"><ele>280.5</ele><time>2026-04-08T09:20:12.109Z</time></trkpt><trkpt lat="44.7488033" lon="9.38098"><ele>285.0</ele><time>2026-04-08T09:20:13.109Z</time></trkpt><trkpt lat="44.7487083" lon="9.381335"><ele>292.0</ele><time>2026-04-08T09:20:14.109Z</time></trkpt><trkpt lat="44.7486517" lon="9.38171"><ele>299.0</ele><time>2026-04-08T09:20:15.109Z</time></trkpt><trkpt lat="44.7486367" lon="9.3821"><ele>302.5</ele><time>2026-04-08T09:20:16.109Z</time></trkpt><trkpt lat="44.7486833" lon="9.3825267"><ele>306.0</ele><time>2026-04-08T09:20:17.109Z</time></trkpt><trkpt lat="44.7487383" lon="9.38294"><ele>306.5</ele><time>2026-04-08T09:20:18.108Z</time></trkpt><trkpt lat="44.7487983" lon="9.3833567"><ele>307.0</ele><time>2026-04-08T09:20:19.109Z</time></trkpt><trkpt lat="44.74886" lon="9.38379"><ele>308.0</ele><time>2026-04-08T09:20:20.109Z</time></trkpt><trkpt lat="44.7489" lon="9.3842483"><ele>309.0</ele><time>2026-04-08T09:20:21.109Z</time></trkpt><trkpt lat="44.748925" lon="9.3847"><ele>309.0</ele><time>2026-04-08T09:20:22.108Z</time></trkpt><trkpt lat="44.7489383" lon="9.3851383"><ele>309.0</ele><time>2026-04-08T09:20:23.109Z</time></trkpt><trkpt lat="44.74894" lon="9.3855633"><ele>313.0</ele><time>2026-04-08T09:20:24.109Z</time></trkpt><trkpt lat="44.7489317" lon="9.3859833"><ele>317.0</ele><time>2026-04-08T09:20:25.109Z</time></trkpt><trkpt lat="44.748905" lon="9.386395"><ele>324.0</ele><time>2026-04-08T09:20:26.108Z</time></trkpt><trkpt lat="44.7488533" lon="9.3868"><ele>331.0</ele><time>2026-04-08T09:20:27.109Z</time></trkpt><trkpt lat="44.7487517" lon="9.3872033"><ele>339.0</ele><time>2026-04-08T09:20:28.108Z</time></trkpt><trkpt lat="44.748685" lon="9.3875967"><ele>347.0</ele><time>2026-04-08T09:20:29.109Z</time></trkpt><trkpt lat="44.7485667" lon="9.3879583"><ele>327.0</ele><time>2026-04-08T09:20:30.108Z</time></trkpt><trkpt lat="44.7484233" lon="9.388295"><ele>307.0</ele><time>2026-04-08T09:20:31.109Z</time></trkpt><trkpt lat="44.748285" lon="9.3886317"><ele>322.0</ele><time>2026-04-08T09:20:32.109Z</time></trkpt><trkpt lat="44.7481483" lon="9.388945"><ele>337.0</ele><time>2026-04-08T09:20:33.109Z</time></trkpt><trkpt lat="44.7480117" lon="9.38923"><ele>337.0</ele><time>2026-04-08T09:20:34.108Z</time></trkpt><trkpt lat="44.7478633" lon="9.3894833"><ele>337.0</ele><time>2026-04-08T09:20:35.109Z</time></trkpt><trkpt lat="44.7476817" lon="9.3897017"><ele>330.5</ele><time>2026-04-08T09:20:36.108Z</time></trkpt><trkpt lat="44.74748" lon="9.389895"><ele>324.0</ele><time>2026-04-08T09:20:37.109Z</time></trkpt><trkpt lat="44.747245" lon="9.390035"><ele>324.0</ele><time>2026-04-08T09:20:38.109Z</time></trkpt><trkpt lat="44.7469933" lon="9.39013"><ele>324.0</ele><time>2026-04-08T09:20:39.109Z</time></trkpt><trkpt lat="44.74673" lon="9.3901817"><ele>315.0</ele><time>2026-04-08T09:20:40.109Z</time></trkpt><trkpt lat="44.7464617" lon="9.3901783"><ele>306.0</ele><time>2026-04-08T09:20:41.109Z</time></trkpt><trkpt lat="44.74619" lon="9.3901167"><ele>314.0</ele><time>2026-04-08T09:20:42.109Z</time></trkpt><trkpt lat="44.7459233" lon="9.3900183"><ele>322.0</ele><time>2026-04-08T09:20:43.109Z</time></trkpt><trkpt lat="44.7456667" lon="9.3898883"><ele>322.0</ele><time>2026-04-08T09:20:44.108Z</time></trkpt><trkpt lat="44.7454233" lon="9.3897233"><ele>322.0</ele><time>2026-04-08T09:20:45.109Z</time></trkpt><trkpt lat="44.7451917" lon="9.389545"><ele>318.0</ele><time>2026-04-08T09:20:46.109Z</time></trkpt><trkpt lat="44.74496" lon="9.3893683"><ele>314.0</ele><time>2026-04-08T09:20:47.109Z</time></trkpt><trkpt lat="44.744725" lon="9.3892117"><ele>314.0</ele><time>2026-04-08T09:20:48.109Z</time></trkpt><trkpt lat="44.7444733" lon="9.3891"><ele>314.0</ele><time>2026-04-08T09:20:49.108Z</time></trkpt><trkpt lat="44.7442367" lon="9.3890267"><ele>319.33333333333337</ele><time>2026-04-08T09:20:50.109Z</time></trkpt><trkpt lat="44.7440183" lon="9.389025"><ele>324.6666666666667</ele><time>2026-04-08T09:20:51.109Z</time></trkpt><trkpt lat="44.74382" lon="9.3890217"><ele>330.0</ele><time>2026-04-08T09:20:52.109Z</time></trkpt><trkpt lat="44.7436417" lon="9.38903"><ele>334.25</ele><time>2026-04-08T09:20:53.109Z</time></trkpt><trkpt lat="44.7434883" lon="9.3890267"><ele>338.5</ele><time>2026-04-08T09:20:54.109Z</time></trkpt><trkpt lat="44.743355" lon="9.3890167"><ele>342.75</ele><time>2026-04-08T09:20:55.109Z</time></trkpt><trkpt lat="44.7432417" lon="9.3889917"><ele>347.0</ele><time>2026-04-08T09:20:56.109Z</time></trkpt><trkpt lat="44.743145" lon="9.388965"><ele>347.0</ele><time>2026-04-08T09:20:57.108Z</time></trkpt><trkpt lat="44.7430683" lon="9.3889267"><ele>347.0</ele><time>2026-04-08T09:20:58.109Z</time></trkpt><trkpt lat="44.742995" lon="9.3888917"><ele>347.0</ele><time>2026-04-08T09:20:59.109Z</time></trkpt><trkpt lat="44.7429283" lon="9.3888617"><ele>347.0</ele><time>2026-04-08T09:21:00.108Z</time></trkpt><trkpt lat="44.7428333" lon="9.3888133"><ele>347.0</ele><time>2026-04-08T09:21:02.109Z</time></trkpt><trkpt lat="44.74272" lon="9.3887683"><ele>347.0</ele><time>2026-04-08T09:22:10.11Z</time></trkpt><trkpt lat="44.7426117" lon="9.3887083"><ele>344.6666666666667</ele><time>2026-04-08T09:22:12.109Z</time></trkpt><trkpt lat="44.74255" lon="9.3886667"><ele>342.33333333333337</ele><time>2026-04-08T09:22:13.11Z</time></trkpt><trkpt lat="44.7424783" lon="9.3886183"><ele>340.0</ele><time>2026-04-08T09:22:14.109Z</time></trkpt><trkpt lat="44.7423933" lon="9.3885783"><ele>337.6666666666667</ele><time>2026-04-08T09:22:15.11Z</time></trkpt><trkpt lat="44.7423117" lon="9.38853"><ele>335.3333333333333</ele><time>2026-04-08T09:22:16.109Z</time></trkpt><trkpt lat="44.7422267" lon="9.3884883"><ele>333.0</ele><time>2026-04-08T09:22:17.11Z</time></trkpt><trkpt lat="44.742145" lon="9.3884367"><ele>333.0</ele><time>2026-04-08T09:22:18.11Z</time></trkpt><trkpt lat="44.7420667" lon="9.3883783"><ele>333.0</ele><time>2026-04-08T09:22:19.11Z</time></trkpt><trkpt lat="44.7419817" lon="9.3883217"><ele>333.0</ele><time>2026-04-08T09:22:20.11Z</time></trkpt><trkpt lat="44.7419017" lon="9.3882633"><ele>333.0</ele><time>2026-04-08T09:22:21.11Z</time></trkpt><trkpt lat="44.741825" lon="9.3882"><ele>333.0</ele><time>2026-04-08T09:22:22.109Z</time></trkpt><trkpt lat="44.7417433" lon="9.3881283"><ele>356.0</ele><time>2026-04-08T09:22:23.11Z</time></trkpt><trkpt lat="44.740565" lon="9.3875833"><ele>356.0</ele><time>2026-04-08T09:22:29.11Z</time></trkpt><trkpt lat="44.740355" lon="9.3873483"><ele>356.0</ele><time>2026-04-08T09:22:30.11Z</time></trkpt><trkpt lat="44.740185" lon="9.387265"><ele>356.0</ele><time>2026-04-08T09:22:31.11Z</time></trkpt><trkpt lat="44.7400133" lon="9.3872333"><ele>342.6666666666667</ele><time>2026-04-08T09:22:32.109Z</time></trkpt><trkpt lat="44.739835" lon="9.38723"><ele>329.3333333333333</ele><time>2026-04-08T09:22:33.11Z</time></trkpt><trkpt lat="44.7396483" lon="9.3872667"><ele>316.0</ele><time>2026-04-08T09:22:34.11Z</time></trkpt><trkpt lat="44.7394617" lon="9.387325"><ele>320.0</ele><time>2026-04-08T09:22:35.11Z</time></trkpt><trkpt lat="44.7392617" lon="9.3873967"><ele>324.0</ele><time>2026-04-08T09:22:36.11Z</time></trkpt><trkpt lat="44.7390717" lon="9.38749"><ele>328.0</ele><time>2026-04-08T09:22:37.11Z</time></trkpt><trkpt lat="44.738895" lon="9.3876217"><ele>328.0</ele><time>2026-04-08T09:22:38.109Z</time></trkpt><trkpt lat="44.7387283" lon="9.3878"><ele>328.0</ele><time>2026-04-08T09:22:39.11Z</time></trkpt><trkpt lat="44.7385483" lon="9.388005"><ele>328.0</ele><time>2026-04-08T09:22:40.109Z</time></trkpt><trkpt lat="44.7383433" lon="9.388245"><ele>327.0</ele><time>2026-04-08T09:22:41.11Z</time></trkpt><trkpt lat="44.73813" lon="9.3884967"><ele>326.0</ele><time>2026-04-08T09:22:42.109Z</time></trkpt><trkpt lat="44.7378917" lon="9.388745"><ele>329.5</ele><time>2026-04-08T09:22:43.11Z</time></trkpt><trkpt lat="44.7376633" lon="9.388975"><ele>333.0</ele><time>2026-04-08T09:22:44.11Z</time></trkpt><trkpt lat="44.7374183" lon="9.3892067"><ele>333.0</ele><time>2026-04-08T09:22:45.11Z</time></trkpt><trkpt lat="44.7371733" lon="9.3894233"><ele>333.0</ele><time>2026-04-08T09:22:46.11Z</time></trkpt><trkpt lat="44.7369267" lon="9.3895933"><ele>348.5</ele><time>2026-04-08T09:22:47.11Z</time></trkpt><trkpt lat="44.736665" lon="9.389705"><ele>364.0</ele><time>2026-04-08T09:22:48.11Z</time></trkpt><trkpt lat="44.7363967" lon="9.3897667"><ele>364.0</ele><time>2026-04-08T09:22:49.11Z</time></trkpt><trkpt lat="44.73613" lon="9.3897917"><ele>364.0</ele><time>2026-04-08T09:22:50.11Z</time></trkpt><trkpt lat="44.7358817" lon="9.3897983"><ele>362.0</ele><time>2026-04-08T09:22:51.109Z</time></trkpt><trkpt lat="44.7356467" lon="9.3897917"><ele>360.0</ele><time>2026-04-08T09:22:52.11Z</time></trkpt><trkpt lat="44.7354233" lon="9.38979"><ele>362.6666666666667</ele><time>2026-04-08T09:22:53.11Z</time></trkpt><trkpt lat="44.7352033" lon="9.38977"><ele>365.33333333333337</ele><time>2026-04-08T09:22:54.11Z</time></trkpt><trkpt lat="44.7349933" lon="9.3896717"><ele>368.0</ele><time>2026-04-08T09:22:55.11Z</time></trkpt><trkpt lat="44.7347783" lon="9.3895583"><ele>360.33333333333337</ele><time>2026-04-08T09:22:56.109Z</time></trkpt><trkpt lat="44.734585" lon="9.389435"><ele>352.6666666666667</ele><time>2026-04-08T09:22:57.11Z</time></trkpt><trkpt lat="44.7344083" lon="9.3893067"><ele>345.0</ele><time>2026-04-08T09:22:58.11Z</time></trkpt><trkpt lat="44.7342317" lon="9.3892167"><ele>345.0</ele><time>2026-04-08T09:22:59.109Z</time></trkpt><trkpt lat="44.7340467" lon="9.389175"><ele>345.0</ele><time>2026-04-08T09:23:00.11Z</time></trkpt><trkpt lat="44.7338583" lon="9.3891517"><ele>345.0</ele><time>2026-04-08T09:23:01.109Z</time></trkpt><trkpt lat="44.7336717" lon="9.389165"><ele>346.0</ele><time>2026-04-08T09:23:02.11Z</time></trkpt><trkpt lat="44.7334883" lon="9.3891917"><ele>347.0</ele><time>2026-04-08T09:23:03.11Z</time></trkpt><trkpt lat="44.7333033" lon="9.3891733"><ele>348.0</ele><time>2026-04-08T09:23:04.11Z</time></trkpt><trkpt lat="44.73312" lon="9.3891233"><ele>348.0</ele><time>2026-04-08T09:23:05.11Z</time></trkpt><trkpt lat="44.7329433" lon="9.3890733"><ele>348.0</ele><time>2026-04-08T09:23:06.11Z</time></trkpt><trkpt lat="44.7327767" lon="9.389055"><ele>348.0</ele><time>2026-04-08T09:23:07.11Z</time></trkpt><trkpt lat="44.732615" lon="9.3890383"><ele>353.25</ele><time>2026-04-08T09:23:08.11Z</time></trkpt><trkpt lat="44.73247" lon="9.3890067"><ele>358.5</ele><time>2026-04-08T09:23:09.11Z</time></trkpt><trkpt lat="44.7323433" lon="9.3889467"><ele>363.75</ele><time>2026-04-08T09:23:10.11Z</time></trkpt><trkpt lat="44.7322183" lon="9.3888617"><ele>369.0</ele><time>2026-04-08T09:23:11.109Z</time></trkpt><trkpt lat="44.7321167" lon="9.3887017"><ele>359.6666666666667</ele><time>2026-04-08T09:23:12.11Z</time></trkpt><trkpt lat="44.73199" lon="9.3885633"><ele>350.33333333333337</ele><time>2026-04-08T09:23:13.11Z</time></trkpt><trkpt lat="44.73184" lon="9.3884583"><ele>341.0</ele><time>2026-04-08T09:23:14.109Z</time></trkpt><trkpt lat="44.7316967" lon="9.38838"><ele>341.0</ele><time>2026-04-08T09:23:15.109Z</time></trkpt><trkpt lat="44.7315467" lon="9.3883583"><ele>341.0</ele><time>2026-04-08T09:23:16.11Z</time></trkpt><trkpt lat="44.7313933" lon="9.3883967"><ele>341.0</ele><time>2026-04-08T09:23:17.11Z</time></trkpt><trkpt lat="44.7312433" lon="9.3884433"><ele>341.0</ele><time>2026-04-08T09:23:18.11Z</time></trkpt><trkpt lat="44.731105" lon="9.38846"><ele>341.0</ele><time>2026-04-08T09:23:19.11Z</time></trkpt><trkpt lat="44.730985" lon="9.3884183"><ele>341.0</ele><time>2026-04-08T09:23:20.109Z</time></trkpt><trkpt lat="44.7309" lon="9.3883317"><ele>341.0</ele><time>2026-04-08T09:23:21.11Z</time></trkpt><trkpt lat="44.73084" lon="9.3882183"><ele>345.75</ele><time>2026-04-08T09:23:22.11Z</time></trkpt><trkpt lat="44.7307667" lon="9.388125"><ele>350.5</ele><time>2026-04-08T09:23:23.11Z</time></trkpt><trkpt lat="44.7306633" lon="9.38807"><ele>355.25</ele><time>2026-04-08T09:23:24.109Z</time></trkpt><trkpt lat="44.7305317" lon="9.3880483"><ele>360.0</ele><time>2026-04-08T09:23:25.109Z</time></trkpt><trkpt lat="44.730365" lon="9.3880117"><ele>352.0</ele><time>2026-04-08T09:23:26.11Z</time></trkpt><trkpt lat="44.7301817" lon="9.3879267"><ele>344.0</ele><time>2026-04-08T09:23:27.11Z</time></trkpt><trkpt lat="44.730005" lon="9.38782"><ele>336.0</ele><time>2026-04-08T09:23:28.109Z</time></trkpt><trkpt lat="44.72985" lon="9.387715"><ele>336.0</ele><time>2026-04-08T09:23:29.11Z</time></trkpt><trkpt lat="44.7297217" lon="9.3876033"><ele>336.0</ele><time>2026-04-08T09:23:30.11Z</time></trkpt><trkpt lat="44.7296167" lon="9.3874767"><ele>336.0</ele><time>2026-04-08T09:23:31.109Z</time></trkpt><trkpt lat="44.72951" lon="9.387385"><ele>336.0</ele><time>2026-04-08T09:23:32.11Z</time></trkpt><trkpt lat="44.729395" lon="9.387335"><ele>345.75</ele><time>2026-04-08T09:23:33.11Z</time></trkpt><trkpt lat="44.729255" lon="9.3873283"><ele>355.5</ele><time>2026-04-08T09:23:34.109Z</time></trkpt><trkpt lat="44.72911" lon="9.3873317"><ele>365.25</ele><time>2026-04-08T09:23:35.11Z</time></trkpt><trkpt lat="44.728975" lon="9.3873033"><ele>375.0</ele><time>2026-04-08T09:23:36.11Z</time></trkpt><trkpt lat="44.7288667" lon="9.38724"><ele>361.25</ele><time>2026-04-08T09:23:37.11Z</time></trkpt><trkpt lat="44.7287917" lon="9.387135"><ele>347.5</ele><time>2026-04-08T09:23:38.11Z</time></trkpt><trkpt lat="44.7287467" lon="9.38699"><ele>333.75</ele><time>2026-04-08T09:23:39.11Z</time></trkpt><trkpt lat="44.728695" lon="9.3868467"><ele>320.0</ele><time>2026-04-08T09:23:40.11Z</time></trkpt><trkpt lat="44.72862" lon="9.386715"><ele>333.33333333333337</ele><time>2026-04-08T09:23:41.11Z</time></trkpt><trkpt lat="44.7285117" lon="9.3866233"><ele>346.6666666666667</ele><time>2026-04-08T09:23:42.11Z</time></trkpt><trkpt lat="44.7283633" lon="9.3865833"><ele>360.0</ele><time>2026-04-08T09:23:43.109Z</time></trkpt><trkpt lat="44.7281633" lon="9.3865367"><ele>360.0</ele><time>2026-04-08T09:23:44.11Z</time></trkpt><trkpt lat="44.7279567" lon="9.386475"><ele>360.0</ele><time>2026-04-08T09:23:45.11Z</time></trkpt><trkpt lat="44.72777" lon="9.3863833"><ele>360.0</ele><time>2026-04-08T09:23:46.109Z</time></trkpt><trkpt lat="44.727595" lon="9.3862733"><ele>351.0</ele><time>2026-04-08T09:23:47.11Z</time></trkpt><trkpt lat="44.7274267" lon="9.3861417"><ele>342.0</ele><time>2026-04-08T09:23:48.11Z</time></trkpt><trkpt lat="44.7272683" lon="9.3860217"><ele>333.0</ele><time>2026-04-08T09:23:49.109Z</time></trkpt><trkpt lat="44.727115" lon="9.385915"><ele>333.0</ele><time>2026-04-08T09:23:50.11Z</time></trkpt><trkpt lat="44.72699" lon="9.3857983"><ele>333.0</ele><time>2026-04-08T09:23:51.11Z</time></trkpt><trkpt lat="44.7268767" lon="9.385675"><ele>333.0</ele><time>2026-04-08T09:23:52.11Z</time></trkpt><trkpt lat="44.7267917" lon="9.3855417"><ele>333.0</ele><time>2026-04-08T09:23:53.11Z</time></trkpt><trkpt lat="44.7266933" lon="9.3854467"><ele>329.79999999999995</ele><time>2026-04-08T09:23:54.11Z</time></trkpt><trkpt lat="44.72659" lon="9.3853767"><ele>326.59999999999997</ele><time>2026-04-08T09:23:55.109Z</time></trkpt><trkpt lat="44.7264867" lon="9.38531"><ele>323.4</ele><time>2026-04-08T09:23:56.11Z</time></trkpt><trkpt lat="44.7263933" lon="9.3852517"><ele>320.2</ele><time>2026-04-08T09:23:57.11Z</time></trkpt><trkpt lat="44.72631" lon="9.3852167"><ele>317.0</ele><time>2026-04-08T09:23:58.109Z</time></trkpt><trkpt lat="44.7262333" lon="9.3852433"><ele>317.0</ele><time>2026-04-08T09:23:59.11Z</time></trkpt><trkpt lat="44.7261667" lon="9.3853017"><ele>317.0</ele><time>2026-04-08T09:24:00.11Z</time></trkpt><trkpt lat="44.7261617" lon="9.38548"><ele>317.0</ele><time>2026-04-08T09:24:01.109Z</time></trkpt><trkpt lat="44.726195" lon="9.3856767"><ele>317.0</ele><time>2026-04-08T09:24:02.11Z</time></trkpt><trkpt lat="44.726265" lon="9.385925"><ele>330.33333333333337</ele><time>2026-04-08T09:24:03.11Z</time></trkpt><trkpt lat="44.7263183" lon="9.386175"><ele>343.6666666666667</ele><time>2026-04-08T09:24:04.11Z</time></trkpt><trkpt lat="44.72636" lon="9.386405"><ele>357.0</ele><time>2026-04-08T09:24:05.11Z</time></trkpt><trkpt lat="44.7263933" lon="9.3866117"><ele>361.75</ele><time>2026-04-08T09:24:06.11Z</time></trkpt><trkpt lat="44.726395" lon="9.386815"><ele>366.5</ele><time>2026-04-08T09:24:07.11Z</time></trkpt><trkpt lat="44.726365" lon="9.3870133"><ele>371.25</ele><time>2026-04-08T09:24:08.11Z</time></trkpt><trkpt lat="44.7263317" lon="9.3872083"><ele>376.0</ele><time>2026-04-08T09:24:09.11Z</time></trkpt><trkpt lat="44.726265" lon="9.3874117"><ele>373.66666666666663</ele><time>2026-04-08T09:24:10.11Z</time></trkpt><trkpt lat="44.7261683" lon="9.3876283"><ele>371.3333333333333</ele><time>2026-04-08T09:24:11.11Z</time></trkpt><trkpt lat="44.726055" lon="9.3878467"><ele>369.0</ele><time>2026-04-08T09:24:12.109Z</time></trkpt><trkpt lat="44.7259417" lon="9.3880617"><ele>369.0</ele><time>2026-04-08T09:24:13.109Z</time></trkpt><trkpt lat="44.7258183" lon="9.3882533"><ele>369.0</ele><time>2026-04-08T09:24:14.11Z</time></trkpt><trkpt lat="44.72568" lon="9.38842"><ele>369.0</ele><time>2026-04-08T09:24:15.109Z</time></trkpt><trkpt lat="44.725535" lon="9.3885767"><ele>369.0</ele><time>2026-04-08T09:24:16.109Z</time></trkpt><trkpt lat="44.725395" lon="9.3887217"><ele>369.0</ele><time>2026-04-08T09:24:17.11Z</time></trkpt><trkpt lat="44.7252583" lon="9.3888367"><ele>369.0</ele><time>2026-04-08T09:24:18.11Z</time></trkpt><trkpt lat="44.7251267" lon="9.3889317"><ele>365.0</ele><time>2026-04-08T09:24:19.11Z</time></trkpt><trkpt lat="44.72501" lon="9.3890467"><ele>361.0</ele><time>2026-04-08T09:24:20.11Z</time></trkpt><trkpt lat="44.7248917" lon="9.3891867"><ele>357.0</ele><time>2026-04-08T09:24:21.109Z</time></trkpt><trkpt lat="44.724805" lon="9.3893717"><ele>357.0</ele><time>2026-04-08T09:24:22.11Z</time></trkpt><trkpt lat="44.7247367" lon="9.3895733"><ele>357.0</ele><time>2026-04-08T09:24:23.11Z</time></trkpt><trkpt lat="44.7246883" lon="9.38977"><ele>357.0</ele><time>2026-04-08T09:24:24.11Z</time></trkpt><trkpt lat="44.7246767" lon="9.3899633"><ele>357.0</ele><time>2026-04-08T09:24:25.11Z</time></trkpt><trkpt lat="44.724715" lon="9.39015"><ele>357.5</ele><time>2026-04-08T09:24:26.109Z</time></trkpt><trkpt lat="44.724785" lon="9.3903083"><ele>358.0</ele><time>2026-04-08T09:24:27.109Z</time></trkpt><trkpt lat="44.724845" lon="9.3904583"><ele>358.5</ele><time>2026-04-08T09:24:28.109Z</time></trkpt><trkpt lat="44.7248667" lon="9.39064"><ele>359.0</ele><time>2026-04-08T09:24:29.109Z</time></trkpt><trkpt lat="44.724835" lon="9.3908517"><ele>360.0</ele><time>2026-04-08T09:24:30.109Z</time></trkpt><trkpt lat="44.7247833" lon="9.3910967"><ele>361.0</ele><time>2026-04-08T09:24:31.11Z</time></trkpt><trkpt lat="44.7247233" lon="9.3913783"><ele>362.0</ele><time>2026-04-08T09:24:32.109Z</time></trkpt><trkpt lat="44.7246683" lon="9.3916517"><ele>362.0</ele><time>2026-04-08T09:24:33.11Z</time></trkpt><trkpt lat="44.7246133" lon="9.3919"><ele>362.0</ele><time>2026-04-08T09:24:34.11Z</time></trkpt><trkpt lat="44.7245533" lon="9.3921183"><ele>362.0</ele><time>2026-04-08T09:24:35.11Z</time></trkpt><trkpt lat="44.724495" lon="9.39231"><ele>367.6666666666667</ele><time>2026-04-08T09:24:36.11Z</time></trkpt><trkpt lat="44.7244267" lon="9.3924933"><ele>373.3333333333333</ele><time>2026-04-08T09:24:37.11Z</time></trkpt><trkpt lat="44.7243617" lon="9.3926917"><ele>379.0</ele><time>2026-04-08T09:24:38.11Z</time></trkpt><trkpt lat="44.7242567" lon="9.3928633"><ele>375.75</ele><time>2026-04-08T09:24:39.11Z</time></trkpt><trkpt lat="44.7241533" lon="9.3930283"><ele>372.5</ele><time>2026-04-08T09:24:40.11Z</time></trkpt><trkpt lat="44.7240667" lon="9.3931833"><ele>369.25</ele><time>2026-04-08T09:24:41.11Z</time></trkpt><trkpt lat="44.723995" lon="9.3933317"><ele>366.0</ele><time>2026-04-08T09:24:42.11Z</time></trkpt><trkpt lat="44.7239167" lon="9.3934667"><ele>366.0</ele><time>2026-04-08T09:24:43.11Z</time></trkpt><trkpt lat="44.7238233" lon="9.39358"><ele>366.0</ele><time>2026-04-08T09:24:44.11Z</time></trkpt><trkpt lat="44.7237083" lon="9.393675"><ele>366.0</ele><time>2026-04-08T09:24:45.11Z</time></trkpt><trkpt lat="44.72357" lon="9.3937617"><ele>366.0</ele><time>2026-04-08T09:24:46.11Z</time></trkpt><trkpt lat="44.7233933" lon="9.3938433"><ele>366.6666666666667</ele><time>2026-04-08T09:24:47.11Z</time></trkpt><trkpt lat="44.7231983" lon="9.39392"><ele>367.33333333333337</ele><time>2026-04-08T09:24:48.11Z</time></trkpt><trkpt lat="44.7230117" lon="9.3939917"><ele>368.0</ele><time>2026-04-08T09:24:49.11Z</time></trkpt><trkpt lat="44.722855" lon="9.3940633"><ele>361.0</ele><time>2026-04-08T09:24:50.109Z</time></trkpt><trkpt lat="44.7227283" lon="9.3941533"><ele>354.0</ele><time>2026-04-08T09:24:51.109Z</time></trkpt><trkpt lat="44.722615" lon="9.3942517"><ele>347.0</ele><time>2026-04-08T09:24:52.109Z</time></trkpt><trkpt lat="44.7225583" lon="9.394385"><ele>340.0</ele><time>2026-04-08T09:24:53.11Z</time></trkpt><trkpt lat="44.7225" lon="9.3944917"><ele>340.0</ele><time>2026-04-08T09:24:54.11Z</time></trkpt><trkpt lat="44.722425" lon="9.3945433"><ele>340.0</ele><time>2026-04-08T09:24:55.11Z</time></trkpt><trkpt lat="44.722315" lon="9.3945067"><ele>340.0</ele><time>2026-04-08T09:24:56.11Z</time></trkpt><trkpt lat="44.7221933" lon="9.394325"><ele>340.0</ele><time>2026-04-08T09:24:57.109Z</time></trkpt><trkpt lat="44.7220767" lon="9.39414"><ele>340.0</ele><time>2026-04-08T09:24:58.11Z</time></trkpt><trkpt lat="44.72194" lon="9.39397"><ele>340.0</ele><time>2026-04-08T09:24:59.11Z</time></trkpt><trkpt lat="44.7217867" lon="9.3938433"><ele>340.0</ele><time>2026-04-08T09:25:00.11Z</time></trkpt><trkpt lat="44.7216433" lon="9.3937767"><ele>339.25</ele><time>2026-04-08T09:25:01.11Z</time></trkpt><trkpt lat="44.7215" lon="9.3938"><ele>338.5</ele><time>2026-04-08T09:25:02.11Z</time></trkpt><trkpt lat="44.72138" lon="9.3939017"><ele>337.75</ele><time>2026-04-08T09:25:03.11Z</time></trkpt><trkpt lat="44.721335" lon="9.3941117"><ele>337.0</ele><time>2026-04-08T09:25:04.11Z</time></trkpt><trkpt lat="44.7212717" lon="9.394335"><ele>337.0</ele><time>2026-04-08T09:25:05.109Z</time></trkpt><trkpt lat="44.721175" lon="9.3945517"><ele>337.0</ele><time>2026-04-08T09:25:06.11Z</time></trkpt><trkpt lat="44.7210433" lon="9.394735"><ele>337.0</ele><time>2026-04-08T09:25:07.109Z</time></trkpt><trkpt lat="44.720905" lon="9.3948783"><ele>340.0</ele><time>2026-04-08T09:25:08.109Z</time></trkpt><trkpt lat="44.7207683" lon="9.3949933"><ele>343.0</ele><time>2026-04-08T09:25:09.109Z</time></trkpt><trkpt lat="44.7206317" lon="9.3950517"><ele>346.0</ele><time>2026-04-08T09:25:10.11Z</time></trkpt><trkpt lat="44.72051" lon="9.3950467"><ele>349.0</ele><time>2026-04-08T09:25:11.11Z</time></trkpt><trkpt lat="44.72042" lon="9.3949617"><ele>349.0</ele><time>2026-04-08T09:25:12.109Z</time></trkpt><trkpt lat="44.7203633" lon="9.3948367"><ele>349.0</ele><time>2026-04-08T09:25:13.109Z</time></trkpt><trkpt lat="44.72034" lon="9.3946467"><ele>349.0</ele><time>2026-04-08T09:25:14.11Z</time></trkpt><trkpt lat="44.7203783" lon="9.3943783"><ele>349.0</ele><time>2026-04-08T09:25:15.11Z</time></trkpt><trkpt lat="44.7204433" lon="9.3941083"><ele>338.0</ele><time>2026-04-08T09:25:16.11Z</time></trkpt><trkpt lat="44.7206467" lon="9.3937317"><ele>327.0</ele><time>2026-04-08T09:25:17.11Z</time></trkpt><trkpt lat="44.7207183" lon="9.3935267"><ele>327.0</ele><time>2026-04-08T09:25:18.11Z</time></trkpt><trkpt lat="44.7207533" lon="9.393325"><ele>327.0</ele><time>2026-04-08T09:25:19.109Z</time></trkpt><trkpt lat="44.7207433" lon="9.3931317"><ele>327.0</ele><time>2026-04-08T09:25:20.11Z</time></trkpt><trkpt lat="44.720655" lon="9.392925"><ele>325.3333333333333</ele><time>2026-04-08T09:25:21.109Z</time></trkpt><trkpt lat="44.7205333" lon="9.39272"><ele>323.66666666666663</ele><time>2026-04-08T09:25:22.11Z</time></trkpt><trkpt lat="44.7204117" lon="9.3924533"><ele>322.0</ele><time>2026-04-08T09:25:23.11Z</time></trkpt><trkpt lat="44.72033" lon="9.3921717"><ele>315.5</ele><time>2026-04-08T09:25:24.11Z</time></trkpt><trkpt lat="44.7202733" lon="9.391865"><ele>309.0</ele><time>2026-04-08T09:25:25.11Z</time></trkpt><trkpt lat="44.720245" lon="9.3915183"><ele>327.0</ele><time>2026-04-08T09:25:26.11Z</time></trkpt><trkpt lat="44.72022" lon="9.39116"><ele>345.0</ele><time>2026-04-08T09:25:27.11Z</time></trkpt><trkpt lat="44.72019" lon="9.39083"><ele>345.0</ele><time>2026-04-08T09:25:28.109Z</time></trkpt><trkpt lat="44.72016" lon="9.3905583"><ele>345.0</ele><time>2026-04-08T09:25:29.11Z</time></trkpt><trkpt lat="44.72011" lon="9.3903333"><ele>345.0</ele><time>2026-04-08T09:25:30.109Z</time></trkpt><trkpt lat="44.7200117" lon="9.3901483"><ele>336.3333333333333</ele><time>2026-04-08T09:25:31.11Z</time></trkpt><trkpt lat="44.7198683" lon="9.390005"><ele>327.66666666666663</ele><time>2026-04-08T09:25:32.11Z</time></trkpt><trkpt lat="44.7196667" lon="9.3899083"><ele>319.0</ele><time>2026-04-08T09:25:33.11Z</time></trkpt><trkpt lat="44.7194417" lon="9.3898917"><ele>321.0</ele><time>2026-04-08T09:25:34.109Z</time></trkpt><trkpt lat="44.7192217" lon="9.3899267"><ele>323.0</ele><time>2026-04-08T09:25:35.11Z</time></trkpt><trkpt lat="44.7189983" lon="9.390035"><ele>323.0</ele><time>2026-04-08T09:25:36.109Z</time></trkpt><trkpt lat="44.7187783" lon="9.390135"><ele>323.0</ele><time>2026-04-08T09:25:37.11Z</time></trkpt><trkpt lat="44.7185317" lon="9.390185"><ele>324.0</ele><time>2026-04-08T09:25:38.11Z</time></trkpt><trkpt lat="44.7182633" lon="9.3901933"><ele>325.0</ele><time>2026-04-08T09:25:39.11Z</time></trkpt><trkpt lat="44.71798" lon="9.3901783"><ele>328.5</ele><time>2026-04-08T09:25:40.11Z</time></trkpt><trkpt lat="44.7177133" lon="9.3901533"><ele>332.0</ele><time>2026-04-08T09:25:41.109Z</time></trkpt><trkpt lat="44.71746" lon="9.39013"><ele>332.0</ele><time>2026-04-08T09:25:42.11Z</time></trkpt><trkpt lat="44.7172167" lon="9.390075"><ele>332.0</ele><time>2026-04-08T09:25:43.11Z</time></trkpt><trkpt lat="44.7169767" lon="9.389965"><ele>339.5</ele><time>2026-04-08T09:25:44.11Z</time></trkpt><trkpt lat="44.7167483" lon="9.389845"><ele>347.0</ele><time>2026-04-08T09:25:45.11Z</time></trkpt><trkpt lat="44.7165417" lon="9.3897017"><ele>347.6666666666667</ele><time>2026-04-08T09:25:46.109Z</time></trkpt><trkpt lat="44.7163483" lon="9.3895467"><ele>348.3333333333333</ele><time>2026-04-08T09:25:47.109Z</time></trkpt><trkpt lat="44.7161767" lon="9.3893883"><ele>349.0</ele><time>2026-04-08T09:25:48.11Z</time></trkpt><trkpt lat="44.7160317" lon="9.38923"><ele>349.0</ele><time>2026-04-08T09:25:49.11Z</time></trkpt><trkpt lat="44.715885" lon="9.3890567"><ele>349.0</ele><time>2026-04-08T09:25:50.11Z</time></trkpt><trkpt lat="44.71581" lon="9.388795"><ele>349.0</ele><time>2026-04-08T09:25:51.11Z</time></trkpt><trkpt lat="44.7157267" lon="9.3885183"><ele>340.66666666666663</ele><time>2026-04-08T09:25:52.11Z</time></trkpt><trkpt lat="44.71563" lon="9.3882533"><ele>332.3333333333333</ele><time>2026-04-08T09:25:53.11Z</time></trkpt><trkpt lat="44.7155167" lon="9.3880183"><ele>324.0</ele><time>2026-04-08T09:25:54.11Z</time></trkpt><trkpt lat="44.7153883" lon="9.3878183"><ele>319.6666666666667</ele><time>2026-04-08T09:25:55.11Z</time></trkpt><trkpt lat="44.7152783" lon="9.3876267"><ele>315.33333333333337</ele><time>2026-04-08T09:25:56.11Z</time></trkpt><trkpt lat="44.7152" lon="9.3874417"><ele>311.0</ele><time>2026-04-08T09:25:57.11Z</time></trkpt><trkpt lat="44.7151517" lon="9.3872483"><ele>316.0</ele><time>2026-04-08T09:25:58.109Z</time></trkpt><trkpt lat="44.71509" lon="9.3870567"><ele>321.0</ele><time>2026-04-08T09:25:59.11Z</time></trkpt><trkpt lat="44.7150033" lon="9.38685"><ele>326.0</ele><time>2026-04-08T09:26:00.11Z</time></trkpt><trkpt lat="44.7149083" lon="9.3865983"><ele>320.5</ele><time>2026-04-08T09:26:01.11Z</time></trkpt><trkpt lat="44.7148117" lon="9.3862883"><ele>315.0</ele><time>2026-04-08T09:26:02.11Z</time></trkpt><trkpt lat="44.714715" lon="9.3859717"><ele>315.0</ele><time>2026-04-08T09:26:03.11Z</time></trkpt><trkpt lat="44.7145967" lon="9.3856767"><ele>315.0</ele><time>2026-04-08T09:26:04.11Z</time></trkpt><trkpt lat="44.7145" lon="9.3854183"><ele>315.0</ele><time>2026-04-08T09:26:05.11Z</time></trkpt><trkpt lat="44.7144133" lon="9.385145"><ele>321.0</ele><time>2026-04-08T09:26:06.11Z</time></trkpt><trkpt lat="44.7143317" lon="9.3848933"><ele>327.0</ele><time>2026-04-08T09:26:07.11Z</time></trkpt><trkpt lat="44.7143033" lon="9.3846033"><ele>333.0</ele><time>2026-04-08T09:26:08.109Z</time></trkpt><trkpt lat="44.7143133" lon="9.3842883"><ele>333.0</ele><time>2026-04-08T09:26:09.11Z</time></trkpt><trkpt lat="44.714335" lon="9.3839933"><ele>333.0</ele><time>2026-04-08T09:26:10.11Z</time></trkpt><trkpt lat="44.7143583" lon="9.3837367"><ele>333.0</ele><time>2026-04-08T09:26:11.11Z</time></trkpt><trkpt lat="44.71435" lon="9.383495"><ele>329.6666666666667</ele><time>2026-04-08T09:26:12.109Z</time></trkpt><trkpt lat="44.7143067" lon="9.38323"><ele>326.33333333333337</ele><time>2026-04-08T09:26:13.11Z</time></trkpt><trkpt lat="44.7142167" lon="9.3830033"><ele>323.0</ele><time>2026-04-08T09:26:14.11Z</time></trkpt><trkpt lat="44.714105" lon="9.382815"><ele>321.0</ele><time>2026-04-08T09:26:15.109Z</time></trkpt><trkpt lat="44.7140017" lon="9.38263"><ele>319.0</ele><time>2026-04-08T09:26:16.11Z</time></trkpt><trkpt lat="44.7139233" lon="9.3824283"><ele>317.0</ele><time>2026-04-08T09:26:17.11Z</time></trkpt><trkpt lat="44.7138783" lon="9.3822067"><ele>316.0</ele><time>2026-04-08T09:26:18.11Z</time></trkpt><trkpt lat="44.713855" lon="9.3819833"><ele>315.0</ele><time>2026-04-08T09:26:19.109Z</time></trkpt><trkpt lat="44.7138417" lon="9.3817533"><ele>314.0</ele><time>2026-04-08T09:26:20.11Z</time></trkpt><trkpt lat="44.7138183" lon="9.3815267"><ele>314.0</ele><time>2026-04-08T09:26:21.11Z</time></trkpt><trkpt lat="44.71379" lon="9.3813"><ele>314.0</ele><time>2026-04-08T09:26:22.11Z</time></trkpt><trkpt lat="44.71374" lon="9.3810867"><ele>314.0</ele><time>2026-04-08T09:26:23.11Z</time></trkpt><trkpt lat="44.7136683" lon="9.3808883"><ele>315.25</ele><time>2026-04-08T09:26:24.11Z</time></trkpt><trkpt lat="44.7135667" lon="9.380725"><ele>316.5</ele><time>2026-04-08T09:26:25.109Z</time></trkpt><trkpt lat="44.7134683" lon="9.380575"><ele>317.75</ele><time>2026-04-08T09:26:26.11Z</time></trkpt><trkpt lat="44.71338" lon="9.3804367"><ele>319.0</ele><time>2026-04-08T09:26:27.109Z</time></trkpt><trkpt lat="44.713295" lon="9.38032"><ele>319.0</ele><time>2026-04-08T09:26:28.11Z</time></trkpt><trkpt lat="44.713205" lon="9.380235"><ele>319.0</ele><time>2026-04-08T09:26:29.11Z</time></trkpt><trkpt lat="44.713095" lon="9.3801883"><ele>319.0</ele><time>2026-04-08T09:26:30.11Z</time></trkpt><trkpt lat="44.7129833" lon="9.380155"><ele>319.0</ele><time>2026-04-08T09:26:31.109Z</time></trkpt><trkpt lat="44.71288" lon="9.38013"><ele>319.0</ele><time>2026-04-08T09:26:32.11Z</time></trkpt><trkpt lat="44.7127883" lon="9.3801183"><ele>319.5</ele><time>2026-04-08T09:26:33.11Z</time></trkpt><trkpt lat="44.7126967" lon="9.380105"><ele>320.0</ele><time>2026-04-08T09:26:34.11Z</time></trkpt><trkpt lat="44.71261" lon="9.380095"><ele>320.5</ele><time>2026-04-08T09:26:35.11Z</time></trkpt><trkpt lat="44.7125283" lon="9.3800817"><ele>321.0</ele><time>2026-04-08T09:26:36.11Z</time></trkpt><trkpt lat="44.7124467" lon="9.3800717"><ele>321.5</ele><time>2026-04-08T09:26:37.11Z</time></trkpt><trkpt lat="44.7123567" lon="9.3800633"><ele>322.0</ele><time>2026-04-08T09:26:38.11Z</time></trkpt><trkpt lat="44.7122517" lon="9.38006"><ele>322.0</ele><time>2026-04-08T09:26:39.11Z</time></trkpt><trkpt lat="44.712145" lon="9.3800467"><ele>322.0</ele><time>2026-04-08T09:26:40.11Z</time></trkpt><trkpt lat="44.7120367" lon="9.3800283"><ele>322.0</ele><time>2026-04-08T09:26:41.109Z</time></trkpt><trkpt lat="44.71193" lon="9.380015"><ele>322.0</ele><time>2026-04-08T09:26:42.11Z</time></trkpt><trkpt lat="44.7118267" lon="9.3799983"><ele>322.0</ele><time>2026-04-08T09:26:43.109Z</time></trkpt><trkpt lat="44.71173" lon="9.3799767"><ele>321.0</ele><time>2026-04-08T09:26:44.11Z</time></trkpt><trkpt lat="44.711635" lon="9.37994"><ele>320.0</ele><time>2026-04-08T09:26:45.109Z</time></trkpt><trkpt lat="44.7115383" lon="9.3798633"><ele>319.0</ele><time>2026-04-08T09:26:46.11Z</time></trkpt><trkpt lat="44.7114333" lon="9.379755"><ele>318.0</ele><time>2026-04-08T09:26:47.109Z</time></trkpt><trkpt lat="44.7113417" lon="9.3795917"><ele>316.3333333333333</ele><time>2026-04-08T09:26:48.11Z</time></trkpt><trkpt lat="44.7112483" lon="9.379385"><ele>314.66666666666663</ele><time>2026-04-08T09:26:49.11Z</time></trkpt><trkpt lat="44.71115" lon="9.3791567"><ele>313.0</ele><time>2026-04-08T09:26:50.11Z</time></trkpt><trkpt lat="44.7110367" lon="9.3789167"><ele>314.0</ele><time>2026-04-08T09:26:51.11Z</time></trkpt><trkpt lat="44.7109183" lon="9.378665"><ele>315.0</ele><time>2026-04-08T09:26:52.11Z</time></trkpt><trkpt lat="44.7108067" lon="9.3784167"><ele>316.0</ele><time>2026-04-08T09:26:53.11Z</time></trkpt><trkpt lat="44.7107067" lon="9.37818"><ele>318.66666666666663</ele><time>2026-04-08T09:26:54.11Z</time></trkpt><trkpt lat="44.7106117" lon="9.377965"><ele>321.3333333333333</ele><time>2026-04-08T09:26:55.11Z</time></trkpt><trkpt lat="44.71051" lon="9.3777717"><ele>324.0</ele><time>2026-04-08T09:26:56.11Z</time></trkpt><trkpt lat="44.710415" lon="9.3776"><ele>324.0</ele><time>2026-04-08T09:26:57.11Z</time></trkpt><trkpt lat="44.7102817" lon="9.3774833"><ele>324.0</ele><time>2026-04-08T09:26:58.109Z</time></trkpt><trkpt lat="44.7101283" lon="9.377415"><ele>324.0</ele><time>2026-04-08T09:26:59.11Z</time></trkpt><trkpt lat="44.7099617" lon="9.3774067"><ele>326.3333333333333</ele><time>2026-04-08T09:27:00.109Z</time></trkpt><trkpt lat="44.7097967" lon="9.377465"><ele>328.66666666666663</ele><time>2026-04-08T09:27:01.11Z</time></trkpt><trkpt lat="44.7096267" lon="9.3776267"><ele>331.0</ele><time>2026-04-08T09:27:02.11Z</time></trkpt><trkpt lat="44.7094567" lon="9.377765"><ele>332.66666666666663</ele><time>2026-04-08T09:27:03.11Z</time></trkpt><trkpt lat="44.7092817" lon="9.3778783"><ele>334.3333333333333</ele><time>2026-04-08T09:27:04.11Z</time></trkpt><trkpt lat="44.7091117" lon="9.37795"><ele>336.0</ele><time>2026-04-08T09:27:05.11Z</time></trkpt><trkpt lat="44.708945" lon="9.3779817"><ele>336.0</ele><time>2026-04-08T09:27:06.11Z</time></trkpt><trkpt lat="44.7087667" lon="9.3779733"><ele>336.0</ele><time>2026-04-08T09:27:07.11Z</time></trkpt><trkpt lat="44.70856" lon="9.37792"><ele>336.0</ele><time>2026-04-08T09:27:08.11Z</time></trkpt><trkpt lat="44.708375" lon="9.37785"><ele>335.6666666666667</ele><time>2026-04-08T09:27:09.109Z</time></trkpt><trkpt lat="44.7082333" lon="9.3777267"><ele>335.33333333333337</ele><time>2026-04-08T09:27:10.11Z</time></trkpt><trkpt lat="44.7081283" lon="9.3775683"><ele>335.0</ele><time>2026-04-08T09:27:11.11Z</time></trkpt><trkpt lat="44.70806" lon="9.3773783"><ele>335.0</ele><time>2026-04-08T09:27:12.11Z</time></trkpt><trkpt lat="44.7080067" lon="9.37719"><ele>335.0</ele><time>2026-04-08T09:27:13.109Z</time></trkpt><trkpt lat="44.707945" lon="9.3770233"><ele>335.0</ele><time>2026-04-08T09:27:14.109Z</time></trkpt><trkpt lat="44.7078617" lon="9.376895"><ele>335.0</ele><time>2026-04-08T09:27:15.11Z</time></trkpt><trkpt lat="44.707735" lon="9.3768267"><ele>338.33333333333337</ele><time>2026-04-08T09:27:16.11Z</time></trkpt><trkpt lat="44.7075683" lon="9.37681"><ele>341.6666666666667</ele><time>2026-04-08T09:27:17.11Z</time></trkpt><trkpt lat="44.707395" lon="9.3768183"><ele>345.0</ele><time>2026-04-08T09:27:18.11Z</time></trkpt><trkpt lat="44.70723" lon="9.376845"><ele>345.0</ele><time>2026-04-08T09:27:19.109Z</time></trkpt><trkpt lat="44.707085" lon="9.3769017"><ele>345.0</ele><time>2026-04-08T09:27:20.11Z</time></trkpt><trkpt lat="44.70697" lon="9.3770083"><ele>345.0</ele><time>2026-04-08T09:27:21.11Z</time></trkpt><trkpt lat="44.70688" lon="9.3771433"><ele>345.0</ele><time>2026-04-08T09:27:22.11Z</time></trkpt><trkpt lat="44.706795" lon="9.3772533"><ele>345.8</ele><time>2026-04-08T09:27:23.11Z</time></trkpt><trkpt lat="44.7067067" lon="9.3773067"><ele>346.6</ele><time>2026-04-08T09:27:24.11Z</time></trkpt><trkpt lat="44.7066133" lon="9.3773183"><ele>347.4</ele><time>2026-04-08T09:27:25.11Z</time></trkpt><trkpt lat="44.706525" lon="9.377295"><ele>348.2</ele><time>2026-04-08T09:27:26.11Z</time></trkpt><trkpt lat="44.706435" lon="9.3772333"><ele>349.0</ele><time>2026-04-08T09:27:27.11Z</time></trkpt><trkpt lat="44.706325" lon="9.3771517"><ele>349.0</ele><time>2026-04-08T09:27:28.11Z</time></trkpt><trkpt lat="44.7061983" lon="9.37703"><ele>349.0</ele><time>2026-04-08T09:27:29.11Z</time></trkpt><trkpt lat="44.7060517" lon="9.3768683"><ele>349.0</ele><time>2026-04-08T09:27:30.11Z</time></trkpt><trkpt lat="44.7059067" lon="9.37668"><ele>348.0</ele><time>2026-04-08T09:27:31.11Z</time></trkpt><trkpt lat="44.70578" lon="9.3764567"><ele>347.0</ele><time>2026-04-08T09:27:32.11Z</time></trkpt><trkpt lat="44.705675" lon="9.3762067"><ele>346.0</ele><time>2026-04-08T09:27:33.11Z</time></trkpt><trkpt lat="44.7055867" lon="9.375965"><ele>348.3333333333333</ele><time>2026-04-08T09:27:34.11Z</time></trkpt><trkpt lat="44.7055233" lon="9.3757383"><ele>350.6666666666667</ele><time>2026-04-08T09:27:35.11Z</time></trkpt><trkpt lat="44.7055117" lon="9.3755183"><ele>353.0</ele><time>2026-04-08T09:27:36.11Z</time></trkpt><trkpt lat="44.70555" lon="9.3753"><ele>354.33333333333337</ele><time>2026-04-08T09:27:37.109Z</time></trkpt><trkpt lat="44.7056133" lon="9.375075"><ele>355.6666666666667</ele><time>2026-04-08T09:27:38.11Z</time></trkpt><trkpt lat="44.705675" lon="9.374855"><ele>357.0</ele><time>2026-04-08T09:27:39.11Z</time></trkpt><trkpt lat="44.70573" lon="9.374665"><ele>358.0</ele><time>2026-04-08T09:27:40.11Z</time></trkpt><trkpt lat="44.70577" lon="9.3744833"><ele>359.0</ele><time>2026-04-08T09:27:41.11Z</time></trkpt><trkpt lat="44.7058" lon="9.3743117"><ele>360.0</ele><time>2026-04-08T09:27:42.11Z</time></trkpt><trkpt lat="44.70581" lon="9.37414"><ele>361.0</ele><time>2026-04-08T09:27:43.109Z</time></trkpt><trkpt lat="44.7058083" lon="9.3739733"><ele>365.5</ele><time>2026-04-08T09:27:44.11Z</time></trkpt><trkpt lat="44.70577" lon="9.3738083"><ele>370.0</ele><time>2026-04-08T09:27:45.11Z</time></trkpt><trkpt lat="44.70569" lon="9.3736517"><ele>374.5</ele><time>2026-04-08T09:27:46.109Z</time></trkpt><trkpt lat="44.70559" lon="9.3735217"><ele>379.0</ele><time>2026-04-08T09:27:47.11Z</time></trkpt><trkpt lat="44.7054983" lon="9.37339"><ele>379.0</ele><time>2026-04-08T09:27:48.11Z</time></trkpt><trkpt lat="44.7054083" lon="9.3732667"><ele>379.0</ele><time>2026-04-08T09:27:49.109Z</time></trkpt><trkpt lat="44.7053217" lon="9.37315"><ele>379.0</ele><time>2026-04-08T09:27:50.11Z</time></trkpt><trkpt lat="44.7052117" lon="9.3730683"><ele>379.0</ele><time>2026-04-08T09:27:51.11Z</time></trkpt><trkpt lat="44.7050933" lon="9.373025"><ele>382.25</ele><time>2026-04-08T09:27:52.11Z</time></trkpt><trkpt lat="44.70497" lon="9.3729933"><ele>385.5</ele><time>2026-04-08T09:27:53.11Z</time></trkpt><trkpt lat="44.7048483" lon="9.37294"><ele>388.75</ele><time>2026-04-08T09:27:54.11Z</time></trkpt><trkpt lat="44.70473" lon="9.3728733"><ele>392.0</ele><time>2026-04-08T09:27:55.11Z</time></trkpt><trkpt lat="44.7046117" lon="9.3728017"><ele>392.0</ele><time>2026-04-08T09:27:56.11Z</time></trkpt><trkpt lat="44.70449" lon="9.372735"><ele>392.0</ele><time>2026-04-08T09:27:57.109Z</time></trkpt><trkpt lat="44.7043633" lon="9.37276"><ele>392.0</ele><time>2026-04-08T09:27:58.109Z</time></trkpt><trkpt lat="44.7042417" lon="9.3727833"><ele>392.0</ele><time>2026-04-08T09:27:59.109Z</time></trkpt><trkpt lat="44.70412" lon="9.37278"><ele>390.5</ele><time>2026-04-08T09:28:00.109Z</time></trkpt><trkpt lat="44.7040017" lon="9.3727467"><ele>389.0</ele><time>2026-04-08T09:28:01.109Z</time></trkpt><trkpt lat="44.7038817" lon="9.3726867"><ele>387.5</ele><time>2026-04-08T09:28:02.11Z</time></trkpt><trkpt lat="44.703765" lon="9.3725933"><ele>386.0</ele><time>2026-04-08T09:28:03.109Z</time></trkpt><trkpt lat="44.7036567" lon="9.372475"><ele>386.5</ele><time>2026-04-08T09:28:04.11Z</time></trkpt><trkpt lat="44.7035583" lon="9.37233"><ele>387.0</ele><time>2026-04-08T09:28:05.11Z</time></trkpt><trkpt lat="44.7034717" lon="9.372175"><ele>387.5</ele><time>2026-04-08T09:28:06.11Z</time></trkpt><trkpt lat="44.7033883" lon="9.3720067"><ele>388.0</ele><time>2026-04-08T09:28:07.11Z</time></trkpt><trkpt lat="44.70331" lon="9.3718433"><ele>388.0</ele><time>2026-04-08T09:28:08.11Z</time></trkpt><trkpt lat="44.7032183" lon="9.3716983"><ele>388.0</ele><time>2026-04-08T09:28:09.11Z</time></trkpt><trkpt lat="44.7031133" lon="9.3715783"><ele>388.0</ele><time>2026-04-08T09:28:10.11Z</time></trkpt><trkpt lat="44.702975" lon="9.3715"><ele>388.0</ele><time>2026-04-08T09:28:11.109Z</time></trkpt><trkpt lat="44.7028083" lon="9.37142"><ele>392.0</ele><time>2026-04-08T09:28:12.11Z</time></trkpt><trkpt lat="44.7026067" lon="9.3713433"><ele>396.0</ele><time>2026-04-08T09:28:13.109Z</time></trkpt><trkpt lat="44.7024083" lon="9.371265"><ele>400.0</ele><time>2026-04-08T09:28:14.11Z</time></trkpt><trkpt lat="44.7022217" lon="9.371195"><ele>400.0</ele><time>2026-04-08T09:28:15.11Z</time></trkpt><trkpt lat="44.7020583" lon="9.3711217"><ele>400.0</ele><time>2026-04-08T09:28:16.11Z</time></trkpt><trkpt lat="44.701915" lon="9.37103"><ele>400.0</ele><time>2026-04-08T09:28:17.11Z</time></trkpt><trkpt lat="44.70181" lon="9.37088"><ele>397.0</ele><time>2026-04-08T09:28:18.11Z</time></trkpt><trkpt lat="44.701735" lon="9.3707283"><ele>394.0</ele><time>2026-04-08T09:28:19.11Z</time></trkpt><trkpt lat="44.7017233" lon="9.3705317"><ele>391.0</ele><time>2026-04-08T09:28:20.11Z</time></trkpt><trkpt lat="44.70177" lon="9.3703183"><ele>388.0</ele><time>2026-04-08T09:28:21.11Z</time></trkpt><trkpt lat="44.7018283" lon="9.3701217"><ele>388.0</ele><time>2026-04-08T09:28:22.11Z</time></trkpt><trkpt lat="44.7018667" lon="9.3699483"><ele>388.0</ele><time>2026-04-08T09:28:23.11Z</time></trkpt><trkpt lat="44.7018683" lon="9.3697833"><ele>388.0</ele><time>2026-04-08T09:28:24.11Z</time></trkpt><trkpt lat="44.7018133" lon="9.3696267"><ele>388.0</ele><time>2026-04-08T09:28:25.11Z</time></trkpt><trkpt lat="44.7017633" lon="9.369465"><ele>392.75</ele><time>2026-04-08T09:28:26.11Z</time></trkpt><trkpt lat="44.7017017" lon="9.3693133"><ele>397.5</ele><time>2026-04-08T09:28:27.109Z</time></trkpt><trkpt lat="44.7016683" lon="9.3691433"><ele>402.25</ele><time>2026-04-08T09:28:28.11Z</time></trkpt><trkpt lat="44.7016133" lon="9.3689783"><ele>407.0</ele><time>2026-04-08T09:28:29.11Z</time></trkpt><trkpt lat="44.701515" lon="9.368795"><ele>414.3333333333333</ele><time>2026-04-08T09:28:30.11Z</time></trkpt><trkpt lat="44.7014017" lon="9.3685917"><ele>421.66666666666663</ele><time>2026-04-08T09:28:31.109Z</time></trkpt><trkpt lat="44.7013033" lon="9.3683667"><ele>429.0</ele><time>2026-04-08T09:28:32.109Z</time></trkpt><trkpt lat="44.7012067" lon="9.3681367"><ele>424.33333333333337</ele><time>2026-04-08T09:28:33.11Z</time></trkpt><trkpt lat="44.7010867" lon="9.367915"><ele>419.6666666666667</ele><time>2026-04-08T09:28:34.11Z</time></trkpt><trkpt lat="44.7009433" lon="9.36771"><ele>415.0</ele><time>2026-04-08T09:28:35.11Z</time></trkpt><trkpt lat="44.700785" lon="9.367535"><ele>415.0</ele><time>2026-04-08T09:28:36.11Z</time></trkpt><trkpt lat="44.7006367" lon="9.3673817"><ele>415.0</ele><time>2026-04-08T09:28:37.109Z</time></trkpt><trkpt lat="44.7005217" lon="9.3672267"><ele>415.0</ele><time>2026-04-08T09:28:38.11Z</time></trkpt><trkpt lat="44.700445" lon="9.36705"><ele>420.0</ele><time>2026-04-08T09:28:39.109Z</time></trkpt><trkpt lat="44.70043" lon="9.3668533"><ele>425.0</ele><time>2026-04-08T09:28:40.109Z</time></trkpt><trkpt lat="44.7004483" lon="9.3666783"><ele>430.0</ele><time>2026-04-08T09:28:41.11Z</time></trkpt><trkpt lat="44.7004617" lon="9.3665167"><ele>435.0</ele><time>2026-04-08T09:28:42.109Z</time></trkpt><trkpt lat="44.7004333" lon="9.3663617"><ele>436.5</ele><time>2026-04-08T09:28:43.11Z</time></trkpt><trkpt lat="44.7003633" lon="9.36623"><ele>438.0</ele><time>2026-04-08T09:28:44.11Z</time></trkpt><trkpt lat="44.7002617" lon="9.36612"><ele>439.5</ele><time>2026-04-08T09:28:45.11Z</time></trkpt><trkpt lat="44.700095" lon="9.366085"><ele>441.0</ele><time>2026-04-08T09:28:46.109Z</time></trkpt><trkpt lat="44.6998983" lon="9.3661167"><ele>441.0</ele><time>2026-04-08T09:28:47.109Z</time></trkpt><trkpt lat="44.6996967" lon="9.36619"><ele>441.0</ele><time>2026-04-08T09:28:48.109Z</time></trkpt><trkpt lat="44.6995117" lon="9.366255"><ele>441.0</ele><time>2026-04-08T09:28:49.11Z</time></trkpt><trkpt lat="44.69936" lon="9.3662833"><ele>436.5</ele><time>2026-04-08T09:28:50.11Z</time></trkpt><trkpt lat="44.6992167" lon="9.3662417"><ele>432.0</ele><time>2026-04-08T09:28:51.109Z</time></trkpt><trkpt lat="44.6990817" lon="9.366165"><ele>427.5</ele><time>2026-04-08T09:28:52.11Z</time></trkpt><trkpt lat="44.6989583" lon="9.36608"><ele>423.0</ele><time>2026-04-08T09:28:53.11Z</time></trkpt><trkpt lat="44.6988683" lon="9.3659883"><ele>423.0</ele><time>2026-04-08T09:28:54.109Z</time></trkpt><trkpt lat="44.6988167" lon="9.3658583"><ele>423.0</ele><time>2026-04-08T09:28:55.11Z</time></trkpt><trkpt lat="44.6988067" lon="9.3656583"><ele>423.0</ele><time>2026-04-08T09:28:56.11Z</time></trkpt><trkpt lat="44.6987683" lon="9.36544"><ele>423.0</ele><time>2026-04-08T09:28:57.11Z</time></trkpt><trkpt lat="44.6987033" lon="9.3652233"><ele>421.5</ele><time>2026-04-08T09:28:58.11Z</time></trkpt><trkpt lat="44.6986117" lon="9.3650517"><ele>420.0</ele><time>2026-04-08T09:28:59.109Z</time></trkpt><trkpt lat="44.6984967" lon="9.36492"><ele>418.5</ele><time>2026-04-08T09:29:00.11Z</time></trkpt><trkpt lat="44.6983667" lon="9.3648317"><ele>417.0</ele><time>2026-04-08T09:29:01.11Z</time></trkpt><trkpt lat="44.6982167" lon="9.3647683"><ele>432.0</ele><time>2026-04-08T09:29:02.11Z</time></trkpt><trkpt lat="44.6980783" lon="9.3646683"><ele>447.0</ele><time>2026-04-08T09:29:03.109Z</time></trkpt><trkpt lat="44.6979583" lon="9.3645117"><ele>462.0</ele><time>2026-04-08T09:29:04.109Z</time></trkpt><trkpt lat="44.697865" lon="9.3643217"><ele>462.0</ele><time>2026-04-08T09:29:05.109Z</time></trkpt><trkpt lat="44.6977683" lon="9.36416"><ele>462.0</ele><time>2026-04-08T09:29:06.109Z</time></trkpt><trkpt lat="44.697655" lon="9.36406"><ele>462.0</ele><time>2026-04-08T09:29:07.109Z</time></trkpt><trkpt lat="44.6975133" lon="9.364005"><ele>462.0</ele><time>2026-04-08T09:29:08.108Z</time></trkpt><trkpt lat="44.6973183" lon="9.3639783"><ele>456.0</ele><time>2026-04-08T09:29:09.109Z</time></trkpt><trkpt lat="44.6971033" lon="9.363975"><ele>450.0</ele><time>2026-04-08T09:29:10.109Z</time></trkpt><trkpt lat="44.6968867" lon="9.3639933"><ele>444.0</ele><time>2026-04-08T09:29:11.108Z</time></trkpt><trkpt lat="44.6966617" lon="9.364005"><ele>444.0</ele><time>2026-04-08T09:29:12.109Z</time></trkpt><trkpt lat="44.6964233" lon="9.3639967"><ele>444.0</ele><time>2026-04-08T09:29:13.109Z</time></trkpt><trkpt lat="44.6961967" lon="9.3639683"><ele>442.0</ele><time>2026-04-08T09:29:14.109Z</time></trkpt><trkpt lat="44.6959983" lon="9.3639083"><ele>440.0</ele><time>2026-04-08T09:29:15.109Z</time></trkpt><trkpt lat="44.6957983" lon="9.3638617"><ele>438.0</ele><time>2026-04-08T09:29:16.109Z</time></trkpt><trkpt lat="44.6956017" lon="9.3638183"><ele>442.0</ele><time>2026-04-08T09:29:17.109Z</time></trkpt><trkpt lat="44.6953667" lon="9.3638317"><ele>446.0</ele><time>2026-04-08T09:29:18.109Z</time></trkpt><trkpt lat="44.6951067" lon="9.36388"><ele>446.0</ele><time>2026-04-08T09:29:19.109Z</time></trkpt><trkpt lat="44.6948567" lon="9.3639233"><ele>446.0</ele><time>2026-04-08T09:29:20.108Z</time></trkpt><trkpt lat="44.6946517" lon="9.363965"><ele>446.0</ele><time>2026-04-08T09:29:21.109Z</time></trkpt><trkpt lat="44.6944983" lon="9.36399"><ele>446.0</ele><time>2026-04-08T09:29:22.108Z</time></trkpt><trkpt lat="44.6943833" lon="9.364"><ele>446.0</ele><time>2026-04-08T09:29:23.109Z</time></trkpt><trkpt lat="44.6943133" lon="9.3639733"><ele>446.0</ele><time>2026-04-08T09:29:24.109Z</time></trkpt><trkpt lat="44.6942483" lon="9.363945"><ele>446.0</ele><time>2026-04-08T09:29:25.108Z</time></trkpt><trkpt lat="44.6942" lon="9.363815"><ele>441.0</ele><time>2026-04-08T09:29:27.109Z</time></trkpt><trkpt lat="44.69426" lon="9.3637067"><ele>436.0</ele><time>2026-04-08T09:29:28.108Z</time></trkpt><trkpt lat="44.6943767" lon="9.363565"><ele>431.0</ele><time>2026-04-08T09:29:29.108Z</time></trkpt><trkpt lat="44.6944133" lon="9.3634067"><ele>426.0</ele><time>2026-04-08T09:29:30.109Z</time></trkpt><trkpt lat="44.6944333" lon="9.3632233"><ele>437.66666666666663</ele><time>2026-04-08T09:29:31.109Z</time></trkpt><trkpt lat="44.69446" lon="9.3630233"><ele>449.3333333333333</ele><time>2026-04-08T09:29:32.108Z</time></trkpt><trkpt lat="44.6945333" lon="9.3628267"><ele>461.0</ele><time>2026-04-08T09:29:33.109Z</time></trkpt><trkpt lat="44.69463" lon="9.3626233"><ele>461.0</ele><time>2026-04-08T09:29:34.109Z</time></trkpt><trkpt lat="44.694755" lon="9.3624317"><ele>461.0</ele><time>2026-04-08T09:29:35.108Z</time></trkpt><trkpt lat="44.6948983" lon="9.3622767"><ele>461.0</ele><time>2026-04-08T09:29:36.108Z</time></trkpt><trkpt lat="44.6950433" lon="9.3621617"><ele>457.0</ele><time>2026-04-08T09:29:37.109Z</time></trkpt><trkpt lat="44.6951717" lon="9.3620617"><ele>453.0</ele><time>2026-04-08T09:29:38.109Z</time></trkpt><trkpt lat="44.6952733" lon="9.36195"><ele>449.0</ele><time>2026-04-08T09:29:39.108Z</time></trkpt><trkpt lat="44.6953467" lon="9.3618033"><ele>445.0</ele><time>2026-04-08T09:29:40.109Z</time></trkpt><trkpt lat="44.6953933" lon="9.3616267"><ele>456.0</ele><time>2026-04-08T09:29:41.109Z</time></trkpt><trkpt lat="44.69538" lon="9.3614"><ele>467.0</ele><time>2026-04-08T09:29:42.109Z</time></trkpt><trkpt lat="44.69536" lon="9.3611467"><ele>478.0</ele><time>2026-04-08T09:29:43.108Z</time></trkpt><trkpt lat="44.6953717" lon="9.3608717"><ele>478.0</ele><time>2026-04-08T09:29:44.108Z</time></trkpt><trkpt lat="44.6954133" lon="9.3605817"><ele>478.0</ele><time>2026-04-08T09:29:45.108Z</time></trkpt><trkpt lat="44.695475" lon="9.3602867"><ele>478.0</ele><time>2026-04-08T09:29:46.109Z</time></trkpt><trkpt lat="44.6955367" lon="9.3600233"><ele>478.6666666666667</ele><time>2026-04-08T09:29:47.109Z</time></trkpt><trkpt lat="44.6955767" lon="9.35978"><ele>479.33333333333337</ele><time>2026-04-08T09:29:48.109Z</time></trkpt><trkpt lat="44.6955917" lon="9.3595533"><ele>480.0</ele><time>2026-04-08T09:29:49.109Z</time></trkpt><trkpt lat="44.6955583" lon="9.3593317"><ele>480.5</ele><time>2026-04-08T09:29:50.108Z</time></trkpt><trkpt lat="44.695475" lon="9.359165"><ele>481.0</ele><time>2026-04-08T09:29:51.108Z</time></trkpt><trkpt lat="44.695335" lon="9.3590917"><ele>481.5</ele><time>2026-04-08T09:29:52.109Z</time></trkpt><trkpt lat="44.6951867" lon="9.359045"><ele>482.0</ele><time>2026-04-08T09:29:53.109Z</time></trkpt><trkpt lat="44.695" lon="9.3590767"><ele>479.0</ele><time>2026-04-08T09:29:54.109Z</time></trkpt><trkpt lat="44.6948133" lon="9.3591533"><ele>476.0</ele><time>2026-04-08T09:29:55.109Z</time></trkpt><trkpt lat="44.694645" lon="9.3592267"><ele>473.0</ele><time>2026-04-08T09:29:56.109Z</time></trkpt><trkpt lat="44.6945183" lon="9.3592283"><ele>471.0</ele><time>2026-04-08T09:29:57.109Z</time></trkpt><trkpt lat="44.6943917" lon="9.35919"><ele>469.0</ele><time>2026-04-08T09:29:58.109Z</time></trkpt><trkpt lat="44.6942683" lon="9.35908"><ele>467.0</ele><time>2026-04-08T09:29:59.108Z</time></trkpt><trkpt lat="44.6941467" lon="9.3588517"><ele>467.0</ele><time>2026-04-08T09:30:00.109Z</time></trkpt><trkpt lat="44.69404" lon="9.3586533"><ele>467.0</ele><time>2026-04-08T09:30:01.108Z</time></trkpt><trkpt lat="44.69396" lon="9.3584767"><ele>467.0</ele><time>2026-04-08T09:30:02.109Z</time></trkpt><trkpt lat="44.693915" lon="9.35831"><ele>467.0</ele><time>2026-04-08T09:30:03.109Z</time></trkpt><trkpt lat="44.6939283" lon="9.35814"><ele>467.0</ele><time>2026-04-08T09:30:04.109Z</time></trkpt><trkpt lat="44.6940033" lon="9.3579583"><ele>467.0</ele><time>2026-04-08T09:30:05.109Z</time></trkpt><trkpt lat="44.69414" lon="9.357785"><ele>473.3333333333333</ele><time>2026-04-08T09:30:06.109Z</time></trkpt><trkpt lat="44.694305" lon="9.357635"><ele>479.66666666666663</ele><time>2026-04-08T09:30:07.108Z</time></trkpt><trkpt lat="44.694445" lon="9.3575017"><ele>486.0</ele><time>2026-04-08T09:30:08.109Z</time></trkpt><trkpt lat="44.694575" lon="9.3573333"><ele>481.66666666666663</ele><time>2026-04-08T09:30:09.109Z</time></trkpt><trkpt lat="44.6946817" lon="9.3571083"><ele>477.3333333333333</ele><time>2026-04-08T09:30:10.109Z</time></trkpt><trkpt lat="44.6947683" lon="9.35684"><ele>473.0</ele><time>2026-04-08T09:30:11.109Z</time></trkpt><trkpt lat="44.6948333" lon="9.3565567"><ele>472.0</ele><time>2026-04-08T09:30:12.109Z</time></trkpt><trkpt lat="44.69489" lon="9.35631"><ele>471.0</ele><time>2026-04-08T09:30:13.109Z</time></trkpt><trkpt lat="44.6949183" lon="9.356095"><ele>470.0</ele><time>2026-04-08T09:30:14.109Z</time></trkpt><trkpt lat="44.6949217" lon="9.3558833"><ele>470.0</ele><time>2026-04-08T09:30:15.109Z</time></trkpt><trkpt lat="44.6948683" lon="9.3556967"><ele>470.0</ele><time>2026-04-08T09:30:16.109Z</time></trkpt><trkpt lat="44.69483" lon="9.3555217"><ele>470.0</ele><time>2026-04-08T09:30:17.109Z</time></trkpt><trkpt lat="44.6948117" lon="9.3553483"><ele>470.0</ele><time>2026-04-08T09:30:18.109Z</time></trkpt><trkpt lat="44.6948267" lon="9.3551517"><ele>469.0</ele><time>2026-04-08T09:30:19.109Z</time></trkpt><trkpt lat="44.6948567" lon="9.3549233"><ele>468.0</ele><time>2026-04-08T09:30:20.108Z</time></trkpt><trkpt lat="44.6948767" lon="9.3547067"><ele>467.0</ele><time>2026-04-08T09:30:21.109Z</time></trkpt><trkpt lat="44.69487" lon="9.354485"><ele>470.66666666666663</ele><time>2026-04-08T09:30:22.109Z</time></trkpt><trkpt lat="44.6947967" lon="9.3542633"><ele>474.33333333333337</ele><time>2026-04-08T09:30:23.109Z</time></trkpt><trkpt lat="44.6947433" lon="9.3540467"><ele>478.0</ele><time>2026-04-08T09:30:24.109Z</time></trkpt><trkpt lat="44.69472" lon="9.3538333"><ele>475.0</ele><time>2026-04-08T09:30:25.108Z</time></trkpt><trkpt lat="44.694715" lon="9.3536683"><ele>471.99999999999994</ele><time>2026-04-08T09:30:26.109Z</time></trkpt><trkpt lat="44.69469" lon="9.35353"><ele>468.99999999999994</ele><time>2026-04-08T09:30:27.109Z</time></trkpt><trkpt lat="44.6946433" lon="9.3534133"><ele>466.0</ele><time>2026-04-08T09:30:28.108Z</time></trkpt><trkpt lat="44.6945333" lon="9.35335"><ele>463.0</ele><time>2026-04-08T09:30:29.108Z</time></trkpt><trkpt lat="44.6942833" lon="9.3534117"><ele>463.0</ele><time>2026-04-08T09:30:30.109Z</time></trkpt><trkpt lat="44.6941517" lon="9.3534217"><ele>463.0</ele><time>2026-04-08T09:30:31.109Z</time></trkpt><trkpt lat="44.69401" lon="9.3534083"><ele>463.0</ele><time>2026-04-08T09:30:32.109Z</time></trkpt><trkpt lat="44.693885" lon="9.3533433"><ele>463.0</ele><time>2026-04-08T09:30:33.109Z</time></trkpt><trkpt lat="44.6937417" lon="9.3532883"><ele>452.0</ele><time>2026-04-08T09:30:34.109Z</time></trkpt><trkpt lat="44.6935883" lon="9.3532683"><ele>441.0</ele><time>2026-04-08T09:30:35.108Z</time></trkpt><trkpt lat="44.69345" lon="9.3532517"><ele>430.0</ele><time>2026-04-08T09:30:36.108Z</time></trkpt><trkpt lat="44.69333" lon="9.3531917"><ele>419.0</ele><time>2026-04-08T09:30:37.109Z</time></trkpt><trkpt lat="44.69325" lon="9.353085"><ele>425.0</ele><time>2026-04-08T09:30:38.109Z</time></trkpt><trkpt lat="44.6932033" lon="9.3529517"><ele>431.0</ele><time>2026-04-08T09:30:39.109Z</time></trkpt><trkpt lat="44.69321" lon="9.35279"><ele>437.0</ele><time>2026-04-08T09:30:40.109Z</time></trkpt><trkpt lat="44.693235" lon="9.3525533"><ele>443.0</ele><time>2026-04-08T09:30:41.109Z</time></trkpt><trkpt lat="44.6931967" lon="9.3523"><ele>451.0</ele><time>2026-04-08T09:30:42.109Z</time></trkpt><trkpt lat="44.693105" lon="9.3520483"><ele>459.0</ele><time>2026-04-08T09:30:43.109Z</time></trkpt><trkpt lat="44.692985" lon="9.351815"><ele>467.0</ele><time>2026-04-08T09:30:44.108Z</time></trkpt><trkpt lat="44.692885" lon="9.3515767"><ele>472.3333333333333</ele><time>2026-04-08T09:30:45.108Z</time></trkpt><trkpt lat="44.6928183" lon="9.3513267"><ele>477.66666666666663</ele><time>2026-04-08T09:30:46.108Z</time></trkpt><trkpt lat="44.6927183" lon="9.3510767"><ele>483.0</ele><time>2026-04-08T09:30:47.109Z</time></trkpt><trkpt lat="44.6925683" lon="9.3508567"><ele>478.0</ele><time>2026-04-08T09:30:48.109Z</time></trkpt><trkpt lat="44.692425" lon="9.3506333"><ele>473.0</ele><time>2026-04-08T09:30:49.109Z</time></trkpt><trkpt lat="44.6923017" lon="9.3503933"><ele>468.0</ele><time>2026-04-08T09:30:50.108Z</time></trkpt><trkpt lat="44.69218" lon="9.3501683"><ele>468.0</ele><time>2026-04-08T09:30:51.109Z</time></trkpt><trkpt lat="44.6920667" lon="9.3499883"><ele>468.0</ele><time>2026-04-08T09:30:52.109Z</time></trkpt><trkpt lat="44.6919633" lon="9.3498283"><ele>468.0</ele><time>2026-04-08T09:30:53.109Z</time></trkpt><trkpt lat="44.69193" lon="9.349625"><ele>458.75</ele><time>2026-04-08T09:30:54.109Z</time></trkpt><trkpt lat="44.6918467" lon="9.3494733"><ele>449.5</ele><time>2026-04-08T09:30:55.109Z</time></trkpt><trkpt lat="44.6917283" lon="9.3493583"><ele>440.25</ele><time>2026-04-08T09:30:56.108Z</time></trkpt><trkpt lat="44.691615" lon="9.349245"><ele>431.0</ele><time>2026-04-08T09:30:57.109Z</time></trkpt><trkpt lat="44.69154" lon="9.3490967"><ele>431.0</ele><time>2026-04-08T09:30:58.109Z</time></trkpt><trkpt lat="44.69151" lon="9.3489367"><ele>431.0</ele><time>2026-04-08T09:30:59.109Z</time></trkpt><trkpt lat="44.691545" lon="9.348775"><ele>431.0</ele><time>2026-04-08T09:31:00.109Z</time></trkpt><trkpt lat="44.6916183" lon="9.3485883"><ele>431.0</ele><time>2026-04-08T09:31:01.109Z</time></trkpt><trkpt lat="44.6916983" lon="9.3483767"><ele>432.0</ele><time>2026-04-08T09:31:02.109Z</time></trkpt><trkpt lat="44.69175" lon="9.34817"><ele>433.0</ele><time>2026-04-08T09:31:03.109Z</time></trkpt><trkpt lat="44.6917633" lon="9.3479867"><ele>434.0</ele><time>2026-04-08T09:31:04.109Z</time></trkpt><trkpt lat="44.69173" lon="9.347835"><ele>435.0</ele><time>2026-04-08T09:31:05.109Z</time></trkpt><trkpt lat="44.6916483" lon="9.3477067"><ele>436.75</ele><time>2026-04-08T09:31:06.109Z</time></trkpt><trkpt lat="44.6915367" lon="9.3475717"><ele>438.5</ele><time>2026-04-08T09:31:07.109Z</time></trkpt><trkpt lat="44.691455" lon="9.3473933"><ele>440.25</ele><time>2026-04-08T09:31:08.109Z</time></trkpt><trkpt lat="44.6914133" lon="9.34721"><ele>442.0</ele><time>2026-04-08T09:31:09.109Z</time></trkpt><trkpt lat="44.691435" lon="9.3470217"><ele>442.75</ele><time>2026-04-08T09:31:10.109Z</time></trkpt><trkpt lat="44.6914833" lon="9.346855"><ele>443.5</ele><time>2026-04-08T09:31:11.109Z</time></trkpt><trkpt lat="44.69152" lon="9.3466983"><ele>444.25</ele><time>2026-04-08T09:31:12.109Z</time></trkpt><trkpt lat="44.6915083" lon="9.3465283"><ele>445.0</ele><time>2026-04-08T09:31:13.109Z</time></trkpt><trkpt lat="44.6914317" lon="9.3463733"><ele>447.25</ele><time>2026-04-08T09:31:14.108Z</time></trkpt><trkpt lat="44.69132" lon="9.3462317"><ele>449.5</ele><time>2026-04-08T09:31:15.109Z</time></trkpt><trkpt lat="44.6912133" lon="9.3460817"><ele>451.75</ele><time>2026-04-08T09:31:16.109Z</time></trkpt><trkpt lat="44.691145" lon="9.3459033"><ele>454.0</ele><time>2026-04-08T09:31:17.109Z</time></trkpt><trkpt lat="44.69111" lon="9.3456867"><ele>451.0</ele><time>2026-04-08T09:31:18.109Z</time></trkpt><trkpt lat="44.691115" lon="9.345455"><ele>448.0</ele><time>2026-04-08T09:31:19.108Z</time></trkpt><trkpt lat="44.6911283" lon="9.3452333"><ele>445.0</ele><time>2026-04-08T09:31:20.109Z</time></trkpt><trkpt lat="44.6911633" lon="9.3450233"><ele>445.0</ele><time>2026-04-08T09:31:21.109Z</time></trkpt><trkpt lat="44.6912283" lon="9.3448283"><ele>445.0</ele><time>2026-04-08T09:31:22.109Z</time></trkpt><trkpt lat="44.6913383" lon="9.3446983"><ele>445.0</ele><time>2026-04-08T09:31:23.109Z</time></trkpt><trkpt lat="44.6915" lon="9.34459"><ele>429.0</ele><time>2026-04-08T09:31:24.109Z</time></trkpt><trkpt lat="44.6916867" lon="9.3444267"><ele>413.0</ele><time>2026-04-08T09:31:25.109Z</time></trkpt><trkpt lat="44.6918967" lon="9.3442317"><ele>410.0</ele><time>2026-04-08T09:31:26.109Z</time></trkpt><trkpt lat="44.692115" lon="9.3440367"><ele>407.0</ele><time>2026-04-08T09:31:27.109Z</time></trkpt><trkpt lat="44.69232" lon="9.3438383"><ele>407.0</ele><time>2026-04-08T09:31:28.109Z</time></trkpt><trkpt lat="44.6924867" lon="9.34363"><ele>407.0</ele><time>2026-04-08T09:31:29.109Z</time></trkpt><trkpt lat="44.6926217" lon="9.3434283"><ele>407.0</ele><time>2026-04-08T09:31:30.109Z</time></trkpt><trkpt lat="44.69274" lon="9.34324"><ele>412.66666666666663</ele><time>2026-04-08T09:31:31.108Z</time></trkpt><trkpt lat="44.692825" lon="9.343005"><ele>418.33333333333337</ele><time>2026-04-08T09:31:32.108Z</time></trkpt><trkpt lat="44.69292" lon="9.342755"><ele>424.0</ele><time>2026-04-08T09:31:33.108Z</time></trkpt><trkpt lat="44.69304" lon="9.3425117"><ele>424.0</ele><time>2026-04-08T09:31:34.108Z</time></trkpt><trkpt lat="44.693165" lon="9.3422983"><ele>424.0</ele><time>2026-04-08T09:31:35.109Z</time></trkpt><trkpt lat="44.693275" lon="9.3421233"><ele>424.0</ele><time>2026-04-08T09:31:36.109Z</time></trkpt><trkpt lat="44.6933683" lon="9.341975"><ele>421.0</ele><time>2026-04-08T09:31:37.109Z</time></trkpt><trkpt lat="44.6934317" lon="9.3418183"><ele>418.0</ele><time>2026-04-08T09:31:38.108Z</time></trkpt><trkpt lat="44.6934517" lon="9.3416317"><ele>415.0</ele><time>2026-04-08T09:31:39.109Z</time></trkpt><trkpt lat="44.6934483" lon="9.34146"><ele>412.0</ele><time>2026-04-08T09:31:40.109Z</time></trkpt><trkpt lat="44.693405" lon="9.3413083"><ele>422.0</ele><time>2026-04-08T09:31:41.109Z</time></trkpt><trkpt lat="44.6933283" lon="9.341185"><ele>432.0</ele><time>2026-04-08T09:31:42.109Z</time></trkpt><trkpt lat="44.693205" lon="9.34108"><ele>442.0</ele><time>2026-04-08T09:31:43.109Z</time></trkpt><trkpt lat="44.6930067" lon="9.3410567"><ele>442.0</ele><time>2026-04-08T09:31:44.109Z</time></trkpt><trkpt lat="44.6928067" lon="9.3410817"><ele>442.0</ele><time>2026-04-08T09:31:45.109Z</time></trkpt><trkpt lat="44.6926067" lon="9.3411467"><ele>442.0</ele><time>2026-04-08T09:31:46.108Z</time></trkpt><trkpt lat="44.6924367" lon="9.3413717"><ele>432.33333333333337</ele><time>2026-04-08T09:31:47.108Z</time></trkpt><trkpt lat="44.6922917" lon="9.3415917"><ele>422.66666666666663</ele><time>2026-04-08T09:31:48.109Z</time></trkpt><trkpt lat="44.6921667" lon="9.3418"><ele>413.0</ele><time>2026-04-08T09:31:49.109Z</time></trkpt><trkpt lat="44.692055" lon="9.3419667"><ele>413.0</ele><time>2026-04-08T09:31:50.109Z</time></trkpt><trkpt lat="44.691925" lon="9.3421"><ele>413.0</ele><time>2026-04-08T09:31:51.109Z</time></trkpt><trkpt lat="44.6917917" lon="9.34219"><ele>413.0</ele><time>2026-04-08T09:31:52.109Z</time></trkpt><trkpt lat="44.6916583" lon="9.3422333"><ele>413.0</ele><time>2026-04-08T09:31:53.108Z</time></trkpt><trkpt lat="44.6915333" lon="9.3422217"><ele>413.79999999999995</ele><time>2026-04-08T09:31:54.109Z</time></trkpt><trkpt lat="44.6914333" lon="9.3421633"><ele>414.6</ele><time>2026-04-08T09:31:55.109Z</time></trkpt><trkpt lat="44.6913733" lon="9.34207"><ele>415.4</ele><time>2026-04-08T09:31:56.108Z</time></trkpt><trkpt lat="44.6913533" lon="9.3419367"><ele>416.20000000000005</ele><time>2026-04-08T09:31:57.109Z</time></trkpt><trkpt lat="44.6913583" lon="9.3417617"><ele>417.0</ele><time>2026-04-08T09:31:58.108Z</time></trkpt><trkpt lat="44.6914033" lon="9.34151"><ele>418.66666666666663</ele><time>2026-04-08T09:31:59.109Z</time></trkpt><trkpt lat="44.6913717" lon="9.341265"><ele>420.3333333333333</ele><time>2026-04-08T09:32:00.109Z</time></trkpt><trkpt lat="44.69136" lon="9.3410417"><ele>422.0</ele><time>2026-04-08T09:32:01.109Z</time></trkpt><trkpt lat="44.69137" lon="9.3408017"><ele>422.0</ele><time>2026-04-08T09:32:02.109Z</time></trkpt><trkpt lat="44.691415" lon="9.3405767"><ele>422.0</ele><time>2026-04-08T09:32:03.109Z</time></trkpt><trkpt lat="44.6914717" lon="9.34035"><ele>422.0</ele><time>2026-04-08T09:32:04.109Z</time></trkpt><trkpt lat="44.6915117" lon="9.3401367"><ele>422.25</ele><time>2026-04-08T09:32:05.109Z</time></trkpt><trkpt lat="44.6915233" lon="9.3399433"><ele>422.5</ele><time>2026-04-08T09:32:06.109Z</time></trkpt><trkpt lat="44.6914917" lon="9.3397633"><ele>422.75</ele><time>2026-04-08T09:32:07.109Z</time></trkpt><trkpt lat="44.691445" lon="9.3396133"><ele>423.0</ele><time>2026-04-08T09:32:08.109Z</time></trkpt><trkpt lat="44.6914133" lon="9.33948"><ele>422.5</ele><time>2026-04-08T09:32:09.109Z</time></trkpt><trkpt lat="44.691415" lon="9.3393467"><ele>422.0</ele><time>2026-04-08T09:32:10.108Z</time></trkpt><trkpt lat="44.6914517" lon="9.3391983"><ele>421.5</ele><time>2026-04-08T09:32:11.109Z</time></trkpt><trkpt lat="44.6915367" lon="9.3390267"><ele>421.0</ele><time>2026-04-08T09:32:12.109Z</time></trkpt><trkpt lat="44.6916417" lon="9.33884"><ele>420.75</ele><time>2026-04-08T09:32:13.109Z</time></trkpt><trkpt lat="44.6917083" lon="9.3386633"><ele>420.5</ele><time>2026-04-08T09:32:14.108Z</time></trkpt><trkpt lat="44.6917433" lon="9.3384767"><ele>420.25</ele><time>2026-04-08T09:32:15.109Z</time></trkpt><trkpt lat="44.6917383" lon="9.3382917"><ele>420.0</ele><time>2026-04-08T09:32:16.109Z</time></trkpt><trkpt lat="44.6916667" lon="9.3380983"><ele>423.0</ele><time>2026-04-08T09:32:17.108Z</time></trkpt><trkpt lat="44.6915633" lon="9.3379567"><ele>426.0</ele><time>2026-04-08T09:32:18.108Z</time></trkpt><trkpt lat="44.691395" lon="9.3378683"><ele>429.0</ele><time>2026-04-08T09:32:19.108Z</time></trkpt><trkpt lat="44.6912133" lon="9.33783"><ele>426.0</ele><time>2026-04-08T09:32:20.108Z</time></trkpt><trkpt lat="44.6910467" lon="9.337785"><ele>423.0</ele><time>2026-04-08T09:32:21.109Z</time></trkpt><trkpt lat="44.6908867" lon="9.3376933"><ele>420.0</ele><time>2026-04-08T09:32:22.109Z</time></trkpt><trkpt lat="44.6907367" lon="9.337565"><ele>420.0</ele><time>2026-04-08T09:32:23.109Z</time></trkpt><trkpt lat="44.690605" lon="9.3374167"><ele>420.0</ele><time>2026-04-08T09:32:24.109Z</time></trkpt><trkpt lat="44.6905133" lon="9.33726"><ele>420.0</ele><time>2026-04-08T09:32:25.109Z</time></trkpt><trkpt lat="44.69047" lon="9.33709"><ele>420.0</ele><time>2026-04-08T09:32:26.109Z</time></trkpt><trkpt lat="44.6904783" lon="9.3368783"><ele>421.0</ele><time>2026-04-08T09:32:27.109Z</time></trkpt><trkpt lat="44.6904967" lon="9.336615"><ele>422.0</ele><time>2026-04-08T09:32:28.109Z</time></trkpt><trkpt lat="44.690515" lon="9.33629"><ele>423.0</ele><time>2026-04-08T09:32:29.109Z</time></trkpt><trkpt lat="44.6905283" lon="9.33595"><ele>422.66666666666663</ele><time>2026-04-08T09:32:30.109Z</time></trkpt><trkpt lat="44.6905317" lon="9.3356367"><ele>422.3333333333333</ele><time>2026-04-08T09:32:31.109Z</time></trkpt><trkpt lat="44.6905183" lon="9.3353583"><ele>422.0</ele><time>2026-04-08T09:32:32.108Z</time></trkpt><trkpt lat="44.6904733" lon="9.3350917"><ele>422.0</ele><time>2026-04-08T09:32:33.109Z</time></trkpt><trkpt lat="44.69039" lon="9.3348467"><ele>422.0</ele><time>2026-04-08T09:32:34.109Z</time></trkpt><trkpt lat="44.6902883" lon="9.3346317"><ele>422.0</ele><time>2026-04-08T09:32:35.108Z</time></trkpt><trkpt lat="44.6902067" lon="9.3344333"><ele>413.66666666666663</ele><time>2026-04-08T09:32:36.109Z</time></trkpt><trkpt lat="44.690165" lon="9.334225"><ele>405.33333333333337</ele><time>2026-04-08T09:32:37.109Z</time></trkpt><trkpt lat="44.6901583" lon="9.333985"><ele>397.0</ele><time>2026-04-08T09:32:38.108Z</time></trkpt><trkpt lat="44.6901417" lon="9.3337267"><ele>396.5</ele><time>2026-04-08T09:32:39.108Z</time></trkpt><trkpt lat="44.6901133" lon="9.333485"><ele>396.0</ele><time>2026-04-08T09:32:40.108Z</time></trkpt><trkpt lat="44.6901017" lon="9.3332817"><ele>395.5</ele><time>2026-04-08T09:32:41.108Z</time></trkpt><trkpt lat="44.69012" lon="9.333115"><ele>395.0</ele><time>2026-04-08T09:32:42.109Z</time></trkpt><trkpt lat="44.690195" lon="9.3329583"><ele>395.66666666666663</ele><time>2026-04-08T09:32:43.108Z</time></trkpt><trkpt lat="44.690305" lon="9.33283"><ele>396.33333333333337</ele><time>2026-04-08T09:32:44.108Z</time></trkpt><trkpt lat="44.69046" lon="9.3327467"><ele>397.0</ele><time>2026-04-08T09:32:45.11Z</time></trkpt><trkpt lat="44.6906167" lon="9.3327217"><ele>397.0</ele><time>2026-04-08T09:32:46.11Z</time></trkpt><trkpt lat="44.6907617" lon="9.3327117"><ele>397.0</ele><time>2026-04-08T09:32:47.11Z</time></trkpt><trkpt lat="44.6908833" lon="9.3326933"><ele>397.0</ele><time>2026-04-08T09:32:48.11Z</time></trkpt><trkpt lat="44.690985" lon="9.3326317"><ele>397.0</ele><time>2026-04-08T09:32:49.11Z</time></trkpt><trkpt lat="44.691065" lon="9.33255"><ele>397.0</ele><time>2026-04-08T09:32:50.11Z</time></trkpt><trkpt lat="44.691075" lon="9.3324433"><ele>397.0</ele><time>2026-04-08T09:32:51.11Z</time></trkpt><trkpt lat="44.690995" lon="9.33231"><ele>397.0</ele><time>2026-04-08T09:32:52.11Z</time></trkpt><trkpt lat="44.690855" lon="9.3322417"><ele>397.0</ele><time>2026-04-08T09:32:53.11Z</time></trkpt><trkpt lat="44.6907267" lon="9.33217"><ele>399.33333333333337</ele><time>2026-04-08T09:32:54.109Z</time></trkpt><trkpt lat="44.6906067" lon="9.3320633"><ele>401.66666666666663</ele><time>2026-04-08T09:32:55.109Z</time></trkpt><trkpt lat="44.6904867" lon="9.3318983"><ele>404.0</ele><time>2026-04-08T09:32:56.11Z</time></trkpt><trkpt lat="44.6903733" lon="9.3317267"><ele>404.0</ele><time>2026-04-08T09:32:57.109Z</time></trkpt><trkpt lat="44.6902817" lon="9.3315433"><ele>404.0</ele><time>2026-04-08T09:32:58.11Z</time></trkpt><trkpt lat="44.690215" lon="9.3313333"><ele>404.0</ele><time>2026-04-08T09:32:59.11Z</time></trkpt><trkpt lat="44.6901833" lon="9.3310917"><ele>395.0</ele><time>2026-04-08T09:33:00.109Z</time></trkpt><trkpt lat="44.6901783" lon="9.3308233"><ele>386.0</ele><time>2026-04-08T09:33:01.109Z</time></trkpt><trkpt lat="44.690195" lon="9.330545"><ele>377.0</ele><time>2026-04-08T09:33:02.11Z</time></trkpt><trkpt lat="44.69021" lon="9.3302883"><ele>377.0</ele><time>2026-04-08T09:33:03.11Z</time></trkpt><trkpt lat="44.6902083" lon="9.33007"><ele>377.0</ele><time>2026-04-08T09:33:04.11Z</time></trkpt><trkpt lat="44.6901933" lon="9.3298933"><ele>377.0</ele><time>2026-04-08T09:33:05.11Z</time></trkpt><trkpt lat="44.6901383" lon="9.329735"><ele>377.0</ele><time>2026-04-08T09:33:06.11Z</time></trkpt><trkpt lat="44.6900233" lon="9.3295983"><ele>376.33333333333337</ele><time>2026-04-08T09:33:07.11Z</time></trkpt><trkpt lat="44.6898617" lon="9.3294717"><ele>375.6666666666667</ele><time>2026-04-08T09:33:08.11Z</time></trkpt><trkpt lat="44.689675" lon="9.3293583"><ele>375.0</ele><time>2026-04-08T09:33:09.109Z</time></trkpt><trkpt lat="44.6895117" lon="9.32925"><ele>373.2</ele><time>2026-04-08T09:33:10.11Z</time></trkpt><trkpt lat="44.6893767" lon="9.3291583"><ele>371.4</ele><time>2026-04-08T09:33:11.11Z</time></trkpt><trkpt lat="44.6892633" lon="9.3290883"><ele>369.6</ele><time>2026-04-08T09:33:12.11Z</time></trkpt><trkpt lat="44.6891817" lon="9.3290433"><ele>367.8</ele><time>2026-04-08T09:33:13.11Z</time></trkpt><trkpt lat="44.6891133" lon="9.329"><ele>366.0</ele><time>2026-04-08T09:33:14.11Z</time></trkpt><trkpt lat="44.6890483" lon="9.3289583"><ele>366.0</ele><time>2026-04-08T09:33:15.109Z</time></trkpt><trkpt lat="44.6889867" lon="9.32892"><ele>366.0</ele><time>2026-04-08T09:33:16.11Z</time></trkpt><trkpt lat="44.6889367" lon="9.32886"><ele>366.0</ele><time>2026-04-08T09:33:17.109Z</time></trkpt><trkpt lat="44.6888917" lon="9.3287867"><ele>366.0</ele><time>2026-04-08T09:33:18.11Z</time></trkpt><trkpt lat="44.6889033" lon="9.3286283"><ele>366.0</ele><time>2026-04-08T09:33:19.11Z</time></trkpt><trkpt lat="44.6889233" lon="9.328435"><ele>368.3333333333333</ele><time>2026-04-08T09:33:20.11Z</time></trkpt><trkpt lat="44.6889683" lon="9.3281917"><ele>370.66666666666663</ele><time>2026-04-08T09:33:21.11Z</time></trkpt><trkpt lat="44.68902" lon="9.3279083"><ele>373.0</ele><time>2026-04-08T09:33:22.11Z</time></trkpt><trkpt lat="44.68907" lon="9.327575"><ele>375.5</ele><time>2026-04-08T09:33:23.11Z</time></trkpt><trkpt lat="44.6890967" lon="9.327245"><ele>378.0</ele><time>2026-04-08T09:33:24.11Z</time></trkpt><trkpt lat="44.6891183" lon="9.326945"><ele>380.33333333333337</ele><time>2026-04-08T09:33:25.11Z</time></trkpt><trkpt lat="44.6891517" lon="9.3266767"><ele>382.6666666666667</ele><time>2026-04-08T09:33:26.11Z</time></trkpt><trkpt lat="44.6892033" lon="9.3264233"><ele>385.0</ele><time>2026-04-08T09:33:27.11Z</time></trkpt><trkpt lat="44.6892467" lon="9.3262017"><ele>386.33333333333337</ele><time>2026-04-08T09:33:28.11Z</time></trkpt><trkpt lat="44.68928" lon="9.3259767"><ele>387.66666666666663</ele><time>2026-04-08T09:33:29.109Z</time></trkpt><trkpt lat="44.6892967" lon="9.3257533"><ele>389.0</ele><time>2026-04-08T09:33:30.11Z</time></trkpt><trkpt lat="44.6893067" lon="9.3255233"><ele>390.0</ele><time>2026-04-08T09:33:31.11Z</time></trkpt><trkpt lat="44.6893083" lon="9.325295"><ele>391.0</ele><time>2026-04-08T09:33:32.109Z</time></trkpt><trkpt lat="44.689305" lon="9.3250933"><ele>392.0</ele><time>2026-04-08T09:33:33.11Z</time></trkpt><trkpt lat="44.6893017" lon="9.32489"><ele>392.5</ele><time>2026-04-08T09:33:34.109Z</time></trkpt><trkpt lat="44.6892983" lon="9.3246867"><ele>393.0</ele><time>2026-04-08T09:33:35.11Z</time></trkpt><trkpt lat="44.6892933" lon="9.3244733"><ele>393.5</ele><time>2026-04-08T09:33:36.11Z</time></trkpt><trkpt lat="44.6892883" lon="9.3242683"><ele>394.0</ele><time>2026-04-08T09:33:37.11Z</time></trkpt><trkpt lat="44.68928" lon="9.3240717"><ele>393.0</ele><time>2026-04-08T09:33:38.11Z</time></trkpt><trkpt lat="44.689255" lon="9.3238683"><ele>392.0</ele><time>2026-04-08T09:33:39.11Z</time></trkpt><trkpt lat="44.6891867" lon="9.323655"><ele>391.0</ele><time>2026-04-08T09:33:40.11Z</time></trkpt><trkpt lat="44.689085" lon="9.3234467"><ele>391.0</ele><time>2026-04-08T09:33:41.109Z</time></trkpt><trkpt lat="44.6889717" lon="9.32327"><ele>391.0</ele><time>2026-04-08T09:33:42.11Z</time></trkpt><trkpt lat="44.6888367" lon="9.323135"><ele>391.0</ele><time>2026-04-08T09:33:43.11Z</time></trkpt><trkpt lat="44.6886717" lon="9.3230483"><ele>394.25</ele><time>2026-04-08T09:33:44.11Z</time></trkpt><trkpt lat="44.6885017" lon="9.3229783"><ele>397.5</ele><time>2026-04-08T09:33:45.109Z</time></trkpt><trkpt lat="44.6883683" lon="9.3228933"><ele>400.75</ele><time>2026-04-08T09:33:46.11Z</time></trkpt><trkpt lat="44.68827" lon="9.322785"><ele>404.0</ele><time>2026-04-08T09:33:47.109Z</time></trkpt><trkpt lat="44.6882" lon="9.32264"><ele>404.0</ele><time>2026-04-08T09:33:48.11Z</time></trkpt><trkpt lat="44.6881567" lon="9.3224667"><ele>404.0</ele><time>2026-04-08T09:33:49.109Z</time></trkpt><trkpt lat="44.6881433" lon="9.3222633"><ele>404.0</ele><time>2026-04-08T09:33:50.11Z</time></trkpt><trkpt lat="44.6881417" lon="9.3220467"><ele>404.0</ele><time>2026-04-08T09:33:51.11Z</time></trkpt><trkpt lat="44.6880983" lon="9.3218483"><ele>404.0</ele><time>2026-04-08T09:33:52.109Z</time></trkpt><trkpt lat="44.68804" lon="9.3216433"><ele>404.0</ele><time>2026-04-08T09:33:53.11Z</time></trkpt><trkpt lat="44.688025" lon="9.32141"><ele>404.0</ele><time>2026-04-08T09:33:54.11Z</time></trkpt><trkpt lat="44.688025" lon="9.321135"><ele>402.0</ele><time>2026-04-08T09:33:55.109Z</time></trkpt><trkpt lat="44.68804" lon="9.320805"><ele>400.0</ele><time>2026-04-08T09:33:56.11Z</time></trkpt><trkpt lat="44.6880533" lon="9.3204683"><ele>398.0</ele><time>2026-04-08T09:33:57.11Z</time></trkpt><trkpt lat="44.6880617" lon="9.3201567"><ele>396.0</ele><time>2026-04-08T09:33:58.11Z</time></trkpt><trkpt lat="44.6880683" lon="9.3199083"><ele>394.0</ele><time>2026-04-08T09:33:59.109Z</time></trkpt><trkpt lat="44.688065" lon="9.319705"><ele>392.5</ele><time>2026-04-08T09:34:00.109Z</time></trkpt><trkpt lat="44.6880383" lon="9.3195267"><ele>391.0</ele><time>2026-04-08T09:34:01.11Z</time></trkpt><trkpt lat="44.68798" lon="9.3193717"><ele>389.5</ele><time>2026-04-08T09:34:02.109Z</time></trkpt><trkpt lat="44.687905" lon="9.319255"><ele>388.0</ele><time>2026-04-08T09:34:03.11Z</time></trkpt><trkpt lat="44.6878133" lon="9.3191767"><ele>395.75</ele><time>2026-04-08T09:34:04.11Z</time></trkpt><trkpt lat="44.687695" lon="9.3191617"><ele>403.5</ele><time>2026-04-08T09:34:05.11Z</time></trkpt><trkpt lat="44.6875733" lon="9.319225"><ele>411.25</ele><time>2026-04-08T09:34:06.11Z</time></trkpt><trkpt lat="44.6874533" lon="9.3193483"><ele>419.0</ele><time>2026-04-08T09:34:07.11Z</time></trkpt><trkpt lat="44.68734" lon="9.3194117"><ele>419.0</ele><time>2026-04-08T09:34:08.11Z</time></trkpt><trkpt lat="44.6872267" lon="9.3194167"><ele>419.0</ele><time>2026-04-08T09:34:09.109Z</time></trkpt><trkpt lat="44.6871217" lon="9.3193433"><ele>419.0</ele><time>2026-04-08T09:34:10.11Z</time></trkpt><trkpt lat="44.6870267" lon="9.3192017"><ele>419.0</ele><time>2026-04-08T09:34:11.11Z</time></trkpt><trkpt lat="44.6869467" lon="9.318995"><ele>428.3333333333333</ele><time>2026-04-08T09:34:12.11Z</time></trkpt><trkpt lat="44.6868833" lon="9.3187717"><ele>437.66666666666663</ele><time>2026-04-08T09:34:13.11Z</time></trkpt><trkpt lat="44.686865" lon="9.3185417"><ele>447.0</ele><time>2026-04-08T09:34:14.11Z</time></trkpt><trkpt lat="44.6869017" lon="9.3183083"><ele>434.66666666666663</ele><time>2026-04-08T09:34:15.11Z</time></trkpt><trkpt lat="44.6869583" lon="9.3180567"><ele>422.3333333333333</ele><time>2026-04-08T09:34:16.109Z</time></trkpt><trkpt lat="44.68705" lon="9.3178467"><ele>410.0</ele><time>2026-04-08T09:34:17.11Z</time></trkpt><trkpt lat="44.6871533" lon="9.31767"><ele>410.0</ele><time>2026-04-08T09:34:18.11Z</time></trkpt><trkpt lat="44.6872217" lon="9.3174917"><ele>410.0</ele><time>2026-04-08T09:34:19.11Z</time></trkpt><trkpt lat="44.6872633" lon="9.3173067"><ele>410.0</ele><time>2026-04-08T09:34:20.11Z</time></trkpt><trkpt lat="44.6872633" lon="9.3171133"><ele>410.0</ele><time>2026-04-08T09:34:21.11Z</time></trkpt><trkpt lat="44.687265" lon="9.3169"><ele>414.0</ele><time>2026-04-08T09:34:22.11Z</time></trkpt><trkpt lat="44.6872917" lon="9.3166533"><ele>418.0</ele><time>2026-04-08T09:34:23.109Z</time></trkpt><trkpt lat="44.6873333" lon="9.3163767"><ele>422.0</ele><time>2026-04-08T09:34:24.11Z</time></trkpt><trkpt lat="44.6873817" lon="9.3160833"><ele>425.3333333333333</ele><time>2026-04-08T09:34:25.11Z</time></trkpt><trkpt lat="44.687395" lon="9.3158283"><ele>428.66666666666663</ele><time>2026-04-08T09:34:26.109Z</time></trkpt><trkpt lat="44.6873783" lon="9.315605"><ele>432.0</ele><time>2026-04-08T09:34:27.109Z</time></trkpt><trkpt lat="44.6873733" lon="9.3153967"><ele>436.33333333333337</ele><time>2026-04-08T09:34:28.11Z</time></trkpt><trkpt lat="44.6874133" lon="9.3152067"><ele>440.6666666666667</ele><time>2026-04-08T09:34:29.11Z</time></trkpt><trkpt lat="44.6874917" lon="9.3150283"><ele>445.0</ele><time>2026-04-08T09:34:30.11Z</time></trkpt><trkpt lat="44.6875783" lon="9.3148233"><ele>448.33333333333337</ele><time>2026-04-08T09:34:31.109Z</time></trkpt><trkpt lat="44.6876567" lon="9.3145867"><ele>451.66666666666663</ele><time>2026-04-08T09:34:32.109Z</time></trkpt><trkpt lat="44.6877067" lon="9.314325"><ele>455.0</ele><time>2026-04-08T09:34:33.11Z</time></trkpt><trkpt lat="44.687725" lon="9.3140517"><ele>451.75</ele><time>2026-04-08T09:34:34.11Z</time></trkpt><trkpt lat="44.6877067" lon="9.31383"><ele>448.5</ele><time>2026-04-08T09:34:35.11Z</time></trkpt><trkpt lat="44.6876417" lon="9.3136467"><ele>445.25</ele><time>2026-04-08T09:34:36.11Z</time></trkpt><trkpt lat="44.6875317" lon="9.313515"><ele>442.0</ele><time>2026-04-08T09:34:37.109Z</time></trkpt><trkpt lat="44.6874" lon="9.3134383"><ele>442.0</ele><time>2026-04-08T09:34:38.11Z</time></trkpt><trkpt lat="44.687275" lon="9.313345"><ele>442.0</ele><time>2026-04-08T09:34:39.11Z</time></trkpt><trkpt lat="44.6871767" lon="9.3131683"><ele>442.0</ele><time>2026-04-08T09:34:40.11Z</time></trkpt><trkpt lat="44.6870917" lon="9.3129267"><ele>434.0</ele><time>2026-04-08T09:34:41.109Z</time></trkpt><trkpt lat="44.687005" lon="9.312635"><ele>426.0</ele><time>2026-04-08T09:34:42.11Z</time></trkpt><trkpt lat="44.6869083" lon="9.3123467"><ele>436.0</ele><time>2026-04-08T09:34:43.11Z</time></trkpt><trkpt lat="44.68681" lon="9.31209"><ele>446.0</ele><time>2026-04-08T09:34:44.11Z</time></trkpt><trkpt lat="44.6867017" lon="9.3118767"><ele>456.0</ele><time>2026-04-08T09:34:45.109Z</time></trkpt><trkpt lat="44.6865667" lon="9.3117083"><ele>456.0</ele><time>2026-04-08T09:34:46.11Z</time></trkpt><trkpt lat="44.6864283" lon="9.3115833"><ele>456.0</ele><time>2026-04-08T09:34:47.11Z</time></trkpt><trkpt lat="44.6863083" lon="9.3114667"><ele>456.0</ele><time>2026-04-08T09:34:48.109Z</time></trkpt><trkpt lat="44.6862167" lon="9.3113167"><ele>453.33333333333337</ele><time>2026-04-08T09:34:49.11Z</time></trkpt><trkpt lat="44.6861767" lon="9.3111183"><ele>450.6666666666667</ele><time>2026-04-08T09:34:50.11Z</time></trkpt><trkpt lat="44.68617" lon="9.3108967"><ele>448.0</ele><time>2026-04-08T09:34:51.109Z</time></trkpt><trkpt lat="44.68621" lon="9.3106567"><ele>455.33333333333337</ele><time>2026-04-08T09:34:52.11Z</time></trkpt><trkpt lat="44.6862717" lon="9.3104483"><ele>462.66666666666663</ele><time>2026-04-08T09:34:53.11Z</time></trkpt><trkpt lat="44.68637" lon="9.310275"><ele>470.0</ele><time>2026-04-08T09:34:54.11Z</time></trkpt><trkpt lat="44.68647" lon="9.3101267"><ele>470.0</ele><time>2026-04-08T09:34:55.11Z</time></trkpt><trkpt lat="44.6866017" lon="9.310015"><ele>470.0</ele><time>2026-04-08T09:34:56.11Z</time></trkpt><trkpt lat="44.6867533" lon="9.3098917"><ele>470.0</ele><time>2026-04-08T09:34:57.11Z</time></trkpt><trkpt lat="44.68686" lon="9.3097333"><ele>469.5</ele><time>2026-04-08T09:34:58.11Z</time></trkpt><trkpt lat="44.6869233" lon="9.3095383"><ele>469.0</ele><time>2026-04-08T09:34:59.11Z</time></trkpt><trkpt lat="44.68691" lon="9.3093283"><ele>468.5</ele><time>2026-04-08T09:35:00.11Z</time></trkpt><trkpt lat="44.6868467" lon="9.3091533"><ele>468.0</ele><time>2026-04-08T09:35:01.109Z</time></trkpt><trkpt lat="44.6867317" lon="9.3090017"><ele>456.66666666666663</ele><time>2026-04-08T09:35:02.11Z</time></trkpt><trkpt lat="44.6865567" lon="9.3089017"><ele>445.3333333333333</ele><time>2026-04-08T09:35:03.109Z</time></trkpt><trkpt lat="44.6863717" lon="9.30883"><ele>434.0</ele><time>2026-04-08T09:35:04.11Z</time></trkpt><trkpt lat="44.68619" lon="9.3087783"><ele>440.0</ele><time>2026-04-08T09:35:05.109Z</time></trkpt><trkpt lat="44.685995" lon="9.3087717"><ele>446.0</ele><time>2026-04-08T09:35:06.109Z</time></trkpt><trkpt lat="44.685775" lon="9.3087983"><ele>452.0</ele><time>2026-04-08T09:35:07.11Z</time></trkpt><trkpt lat="44.6855467" lon="9.3087983"><ele>452.0</ele><time>2026-04-08T09:35:08.109Z</time></trkpt><trkpt lat="44.6853217" lon="9.3087867"><ele>452.0</ele><time>2026-04-08T09:35:09.109Z</time></trkpt><trkpt lat="44.68511" lon="9.30881"><ele>452.0</ele><time>2026-04-08T09:35:10.109Z</time></trkpt><trkpt lat="44.6849067" lon="9.3088617"><ele>464.66666666666663</ele><time>2026-04-08T09:35:11.11Z</time></trkpt><trkpt lat="44.6847283" lon="9.3089417"><ele>477.33333333333337</ele><time>2026-04-08T09:35:12.11Z</time></trkpt><trkpt lat="44.6845733" lon="9.3090417"><ele>490.0</ele><time>2026-04-08T09:35:13.11Z</time></trkpt><trkpt lat="44.6844083" lon="9.3090767"><ele>490.25</ele><time>2026-04-08T09:35:14.11Z</time></trkpt><trkpt lat="44.6842467" lon="9.3090833"><ele>490.5</ele><time>2026-04-08T09:35:15.11Z</time></trkpt><trkpt lat="44.6841" lon="9.3090617"><ele>490.75</ele><time>2026-04-08T09:35:16.11Z</time></trkpt><trkpt lat="44.683975" lon="9.309"><ele>491.0</ele><time>2026-04-08T09:35:17.109Z</time></trkpt><trkpt lat="44.68387" lon="9.3088767"><ele>490.5</ele><time>2026-04-08T09:35:18.11Z</time></trkpt><trkpt lat="44.68378" lon="9.30873"><ele>490.0</ele><time>2026-04-08T09:35:19.11Z</time></trkpt><trkpt lat="44.6836767" lon="9.30859"><ele>489.5</ele><time>2026-04-08T09:35:20.11Z</time></trkpt><trkpt lat="44.6835467" lon="9.3084767"><ele>489.0</ele><time>2026-04-08T09:35:21.11Z</time></trkpt><trkpt lat="44.6834267" lon="9.30839"><ele>489.0</ele><time>2026-04-08T09:35:22.11Z</time></trkpt><trkpt lat="44.6833317" lon="9.3083017"><ele>489.0</ele><time>2026-04-08T09:35:23.11Z</time></trkpt><trkpt lat="44.68328" lon="9.3081883"><ele>489.0</ele><time>2026-04-08T09:35:24.11Z</time></trkpt><trkpt lat="44.683285" lon="9.3080533"><ele>489.0</ele><time>2026-04-08T09:35:25.11Z</time></trkpt><trkpt lat="44.6833367" lon="9.3078917"><ele>489.0</ele><time>2026-04-08T09:35:26.11Z</time></trkpt><trkpt lat="44.68343" lon="9.3077033"><ele>486.33333333333337</ele><time>2026-04-08T09:35:27.11Z</time></trkpt><trkpt lat="44.6835417" lon="9.30746"><ele>483.6666666666667</ele><time>2026-04-08T09:35:28.11Z</time></trkpt><trkpt lat="44.6836267" lon="9.3071817"><ele>481.0</ele><time>2026-04-08T09:35:29.11Z</time></trkpt><trkpt lat="44.6836967" lon="9.3069367"><ele>481.0</ele><time>2026-04-08T09:35:30.109Z</time></trkpt><trkpt lat="44.6837283" lon="9.3067067"><ele>481.0</ele><time>2026-04-08T09:35:31.11Z</time></trkpt><trkpt lat="44.6837267" lon="9.3064733"><ele>481.0</ele><time>2026-04-08T09:35:32.11Z</time></trkpt><trkpt lat="44.6836833" lon="9.3062417"><ele>477.5</ele><time>2026-04-08T09:35:33.11Z</time></trkpt><trkpt lat="44.683645" lon="9.3060433"><ele>474.0</ele><time>2026-04-08T09:35:34.11Z</time></trkpt><trkpt lat="44.6836133" lon="9.3058733"><ele>470.5</ele><time>2026-04-08T09:35:35.11Z</time></trkpt><trkpt lat="44.68353" lon="9.3057333"><ele>467.0</ele><time>2026-04-08T09:35:36.109Z</time></trkpt><trkpt lat="44.6833783" lon="9.3056733"><ele>472.5</ele><time>2026-04-08T09:35:37.109Z</time></trkpt><trkpt lat="44.6832533" lon="9.3055733"><ele>478.0</ele><time>2026-04-08T09:35:38.109Z</time></trkpt><trkpt lat="44.6831617" lon="9.3054567"><ele>483.5</ele><time>2026-04-08T09:35:39.11Z</time></trkpt><trkpt lat="44.6831033" lon="9.3053167"><ele>489.0</ele><time>2026-04-08T09:35:40.109Z</time></trkpt><trkpt lat="44.683075" lon="9.305135"><ele>489.0</ele><time>2026-04-08T09:35:41.11Z</time></trkpt><trkpt lat="44.683035" lon="9.304945"><ele>489.0</ele><time>2026-04-08T09:35:42.11Z</time></trkpt><trkpt lat="44.6829633" lon="9.3047267"><ele>489.0</ele><time>2026-04-08T09:35:43.11Z</time></trkpt><trkpt lat="44.6828733" lon="9.3044883"><ele>489.66666666666663</ele><time>2026-04-08T09:35:44.11Z</time></trkpt><trkpt lat="44.6827867" lon="9.30427"><ele>490.3333333333333</ele><time>2026-04-08T09:35:45.11Z</time></trkpt><trkpt lat="44.6826967" lon="9.304075"><ele>491.0</ele><time>2026-04-08T09:35:46.11Z</time></trkpt><trkpt lat="44.6826017" lon="9.30392"><ele>488.25</ele><time>2026-04-08T09:35:47.11Z</time></trkpt><trkpt lat="44.68249" lon="9.3038033"><ele>485.5</ele><time>2026-04-08T09:35:48.11Z</time></trkpt><trkpt lat="44.6823583" lon="9.3037317"><ele>482.75</ele><time>2026-04-08T09:35:49.11Z</time></trkpt><trkpt lat="44.6822" lon="9.3037383"><ele>480.0</ele><time>2026-04-08T09:35:50.11Z</time></trkpt><trkpt lat="44.68197" lon="9.3038617"><ele>488.66666666666663</ele><time>2026-04-08T09:35:51.11Z</time></trkpt><trkpt lat="44.6817767" lon="9.30394"><ele>497.3333333333333</ele><time>2026-04-08T09:35:52.11Z</time></trkpt><trkpt lat="44.6815883" lon="9.3040233"><ele>506.0</ele><time>2026-04-08T09:35:53.11Z</time></trkpt><trkpt lat="44.6814333" lon="9.3040633"><ele>506.0</ele><time>2026-04-08T09:35:54.11Z</time></trkpt><trkpt lat="44.681285" lon="9.3040933"><ele>506.0</ele><time>2026-04-08T09:35:55.11Z</time></trkpt><trkpt lat="44.68114" lon="9.3040933"><ele>506.0</ele><time>2026-04-08T09:35:56.109Z</time></trkpt><trkpt lat="44.6810133" lon="9.3040417"><ele>506.0</ele><time>2026-04-08T09:35:57.11Z</time></trkpt><trkpt lat="44.6808517" lon="9.3039817"><ele>504.3333333333333</ele><time>2026-04-08T09:35:58.11Z</time></trkpt><trkpt lat="44.6806917" lon="9.3038467"><ele>502.66666666666663</ele><time>2026-04-08T09:35:59.109Z</time></trkpt><trkpt lat="44.6805267" lon="9.3036683"><ele>501.0</ele><time>2026-04-08T09:36:00.11Z</time></trkpt><trkpt lat="44.6803717" lon="9.303495"><ele>506.66666666666663</ele><time>2026-04-08T09:36:01.11Z</time></trkpt><trkpt lat="44.6802267" lon="9.3033483"><ele>512.3333333333333</ele><time>2026-04-08T09:36:02.11Z</time></trkpt><trkpt lat="44.6800883" lon="9.3032617"><ele>518.0</ele><time>2026-04-08T09:36:03.109Z</time></trkpt><trkpt lat="44.6799383" lon="9.3032367"><ele>518.0</ele><time>2026-04-08T09:36:04.11Z</time></trkpt><trkpt lat="44.67978" lon="9.3033133"><ele>518.0</ele><time>2026-04-08T09:36:05.11Z</time></trkpt><trkpt lat="44.6796133" lon="9.3034733"><ele>518.0</ele><time>2026-04-08T09:36:06.11Z</time></trkpt><trkpt lat="44.6794417" lon="9.30361"><ele>514.6666666666666</ele><time>2026-04-08T09:36:07.11Z</time></trkpt><trkpt lat="44.6792517" lon="9.3037067"><ele>511.33333333333337</ele><time>2026-04-08T09:36:08.11Z</time></trkpt><trkpt lat="44.6790417" lon="9.3037717"><ele>508.0</ele><time>2026-04-08T09:36:09.11Z</time></trkpt><trkpt lat="44.6788467" lon="9.3038167"><ele>508.0</ele><time>2026-04-08T09:36:10.11Z</time></trkpt><trkpt lat="44.6786633" lon="9.3038783"><ele>508.0</ele><time>2026-04-08T09:36:11.109Z</time></trkpt><trkpt lat="44.6785" lon="9.3039767"><ele>508.0</ele><time>2026-04-08T09:36:12.11Z</time></trkpt><trkpt lat="44.6783617" lon="9.3041217"><ele>511.0</ele><time>2026-04-08T09:36:13.11Z</time></trkpt><trkpt lat="44.6782683" lon="9.3043067"><ele>514.0</ele><time>2026-04-08T09:36:14.11Z</time></trkpt><trkpt lat="44.67819" lon="9.304485"><ele>517.0</ele><time>2026-04-08T09:36:15.109Z</time></trkpt><trkpt lat="44.6780933" lon="9.304625"><ele>520.0</ele><time>2026-04-08T09:36:16.11Z</time></trkpt><trkpt lat="44.6779817" lon="9.3047217"><ele>522.75</ele><time>2026-04-08T09:36:17.11Z</time></trkpt><trkpt lat="44.6778533" lon="9.3047933"><ele>525.5</ele><time>2026-04-08T09:36:18.11Z</time></trkpt><trkpt lat="44.67774" lon="9.3049017"><ele>528.25</ele><time>2026-04-08T09:36:19.11Z</time></trkpt><trkpt lat="44.6776417" lon="9.30503"><ele>531.0</ele><time>2026-04-08T09:36:20.11Z</time></trkpt><trkpt lat="44.67752" lon="9.3051167"><ele>531.0</ele><time>2026-04-08T09:36:21.11Z</time></trkpt><trkpt lat="44.677365" lon="9.305175"><ele>531.0</ele><time>2026-04-08T09:36:22.109Z</time></trkpt><trkpt lat="44.677175" lon="9.305215"><ele>531.0</ele><time>2026-04-08T09:36:23.11Z</time></trkpt><trkpt lat="44.6769483" lon="9.3052517"><ele>530.5</ele><time>2026-04-08T09:36:24.11Z</time></trkpt><trkpt lat="44.6767017" lon="9.30529"><ele>530.0</ele><time>2026-04-08T09:36:25.11Z</time></trkpt><trkpt lat="44.6764633" lon="9.3053233"><ele>530.0</ele><time>2026-04-08T09:36:26.11Z</time></trkpt><trkpt lat="44.676245" lon="9.3053617"><ele>530.0</ele><time>2026-04-08T09:36:27.11Z</time></trkpt><trkpt lat="44.6760483" lon="9.3054267"><ele>530.0</ele><time>2026-04-08T09:36:28.11Z</time></trkpt><trkpt lat="44.6758917" lon="9.3055817"><ele>532.6666666666666</ele><time>2026-04-08T09:36:29.109Z</time></trkpt><trkpt lat="44.6757583" lon="9.3057833"><ele>535.3333333333334</ele><time>2026-04-08T09:36:30.11Z</time></trkpt><trkpt lat="44.67566" lon="9.305985"><ele>538.0</ele><time>2026-04-08T09:36:31.11Z</time></trkpt><trkpt lat="44.6755917" lon="9.3061783"><ele>538.0</ele><time>2026-04-08T09:36:32.11Z</time></trkpt><trkpt lat="44.6755567" lon="9.30636"><ele>538.0</ele><time>2026-04-08T09:36:33.109Z</time></trkpt><trkpt lat="44.6755583" lon="9.306535"><ele>538.0</ele><time>2026-04-08T09:36:34.11Z</time></trkpt><trkpt lat="44.6755667" lon="9.3066833"><ele>538.0</ele><time>2026-04-08T09:36:35.11Z</time></trkpt><trkpt lat="44.6755667" lon="9.3067983"><ele>538.0</ele><time>2026-04-08T09:36:36.109Z</time></trkpt><trkpt lat="44.6755583" lon="9.3069"><ele>536.1666666666667</ele><time>2026-04-08T09:36:37.11Z</time></trkpt><trkpt lat="44.6755333" lon="9.3069883"><ele>534.3333333333334</ele><time>2026-04-08T09:36:38.11Z</time></trkpt><trkpt lat="44.6754833" lon="9.307075"><ele>532.5</ele><time>2026-04-08T09:36:39.109Z</time></trkpt><trkpt lat="44.67541" lon="9.307125"><ele>530.6666666666666</ele><time>2026-04-08T09:36:40.11Z</time></trkpt><trkpt lat="44.675335" lon="9.3071933"><ele>528.8333333333333</ele><time>2026-04-08T09:36:41.11Z</time></trkpt><trkpt lat="44.6752683" lon="9.307275"><ele>527.0</ele><time>2026-04-08T09:36:42.11Z</time></trkpt><trkpt lat="44.6752283" lon="9.3073867"><ele>527.0</ele><time>2026-04-08T09:36:43.11Z</time></trkpt><trkpt lat="44.6752" lon="9.3075133"><ele>527.0</ele><time>2026-04-08T09:36:44.11Z</time></trkpt><trkpt lat="44.6751967" lon="9.3076483"><ele>527.0</ele><time>2026-04-08T09:36:45.109Z</time></trkpt><trkpt lat="44.675225" lon="9.3078117"><ele>527.0</ele><time>2026-04-08T09:36:46.109Z</time></trkpt><trkpt lat="44.6752783" lon="9.3080167"><ele>535.75</ele><time>2026-04-08T09:36:47.11Z</time></trkpt><trkpt lat="44.6753367" lon="9.3082433"><ele>544.5</ele><time>2026-04-08T09:36:48.11Z</time></trkpt><trkpt lat="44.6753933" lon="9.3084433"><ele>553.25</ele><time>2026-04-08T09:36:49.11Z</time></trkpt><trkpt lat="44.6754283" lon="9.3086033"><ele>562.0</ele><time>2026-04-08T09:36:50.11Z</time></trkpt><trkpt lat="44.6754217" lon="9.3087467"><ele>562.0</ele><time>2026-04-08T09:36:51.11Z</time></trkpt><trkpt lat="44.6753767" lon="9.30888"><ele>562.0</ele><time>2026-04-08T09:36:52.109Z</time></trkpt><trkpt lat="44.6752767" lon="9.3089917"><ele>562.0</ele><time>2026-04-08T09:36:53.11Z</time></trkpt><trkpt lat="44.67513" lon="9.3091167"><ele>562.0</ele><time>2026-04-08T09:36:54.11Z</time></trkpt><trkpt lat="44.675005" lon="9.309205"><ele>558.75</ele><time>2026-04-08T09:36:55.11Z</time></trkpt><trkpt lat="44.674895" lon="9.3092417"><ele>555.5</ele><time>2026-04-08T09:36:56.11Z</time></trkpt><trkpt lat="44.6747867" lon="9.3092233"><ele>552.25</ele><time>2026-04-08T09:36:57.11Z</time></trkpt><trkpt lat="44.6746783" lon="9.309125"><ele>549.0</ele><time>2026-04-08T09:36:58.11Z</time></trkpt><trkpt lat="44.6745633" lon="9.3090367"><ele>549.0</ele><time>2026-04-08T09:36:59.109Z</time></trkpt><trkpt lat="44.6744433" lon="9.30898"><ele>549.0</ele><time>2026-04-08T09:37:00.11Z</time></trkpt><trkpt lat="44.6743017" lon="9.30899"><ele>549.0</ele><time>2026-04-08T09:37:01.11Z</time></trkpt><trkpt lat="44.674135" lon="9.3089883"><ele>549.0</ele><time>2026-04-08T09:37:02.109Z</time></trkpt><trkpt lat="44.67397" lon="9.3089367"><ele>543.0</ele><time>2026-04-08T09:37:03.11Z</time></trkpt><trkpt lat="44.67381" lon="9.3088217"><ele>537.0</ele><time>2026-04-08T09:37:04.11Z</time></trkpt><trkpt lat="44.67367" lon="9.3086733"><ele>531.0</ele><time>2026-04-08T09:37:05.11Z</time></trkpt><trkpt lat="44.6735317" lon="9.3085483"><ele>531.0</ele><time>2026-04-08T09:37:06.11Z</time></trkpt><trkpt lat="44.6733983" lon="9.3084767"><ele>531.0</ele><time>2026-04-08T09:37:07.11Z</time></trkpt><trkpt lat="44.6732583" lon="9.3084567"><ele>531.0</ele><time>2026-04-08T09:37:08.11Z</time></trkpt><trkpt lat="44.673125" lon="9.3085067"><ele>531.0</ele><time>2026-04-08T09:37:09.11Z</time></trkpt><trkpt lat="44.672995" lon="9.3086283"><ele>531.0</ele><time>2026-04-08T09:37:10.11Z</time></trkpt><trkpt lat="44.6728867" lon="9.30883"><ele>531.0</ele><time>2026-04-08T09:37:11.109Z</time></trkpt><trkpt lat="44.67277" lon="9.3090467"><ele>531.0</ele><time>2026-04-08T09:37:12.11Z</time></trkpt><trkpt lat="44.6726233" lon="9.3092217"><ele>534.3333333333334</ele><time>2026-04-08T09:37:13.11Z</time></trkpt><trkpt lat="44.6724567" lon="9.309375"><ele>537.6666666666667</ele><time>2026-04-08T09:37:14.109Z</time></trkpt><trkpt lat="44.6722883" lon="9.3095083"><ele>541.0</ele><time>2026-04-08T09:37:15.11Z</time></trkpt><trkpt lat="44.672135" lon="9.3096017"><ele>541.0</ele><time>2026-04-08T09:37:16.11Z</time></trkpt><trkpt lat="44.6719633" lon="9.3096367"><ele>541.0</ele><time>2026-04-08T09:37:17.11Z</time></trkpt><trkpt lat="44.671775" lon="9.3096117"><ele>541.0</ele><time>2026-04-08T09:37:18.11Z</time></trkpt><trkpt lat="44.6716067" lon="9.30962"><ele>537.0</ele><time>2026-04-08T09:37:19.109Z</time></trkpt><trkpt lat="44.6714567" lon="9.3096017"><ele>533.0</ele><time>2026-04-08T09:37:20.11Z</time></trkpt><trkpt lat="44.6713217" lon="9.3095183"><ele>529.0</ele><time>2026-04-08T09:37:21.11Z</time></trkpt><trkpt lat="44.671175" lon="9.3094017"><ele>529.75</ele><time>2026-04-08T09:37:22.109Z</time></trkpt><trkpt lat="44.67104" lon="9.3093367"><ele>530.5</ele><time>2026-04-08T09:37:23.109Z</time></trkpt><trkpt lat="44.6709183" lon="9.3093267"><ele>531.25</ele><time>2026-04-08T09:37:24.11Z</time></trkpt><trkpt lat="44.670775" lon="9.3093967"><ele>532.0</ele><time>2026-04-08T09:37:25.11Z</time></trkpt><trkpt lat="44.670605" lon="9.309485"><ele>532.0</ele><time>2026-04-08T09:37:26.11Z</time></trkpt><trkpt lat="44.67042" lon="9.309495"><ele>532.0</ele><time>2026-04-08T09:37:27.109Z</time></trkpt><trkpt lat="44.670245" lon="9.309465"><ele>532.0</ele><time>2026-04-08T09:37:28.109Z</time></trkpt><trkpt lat="44.6700917" lon="9.3093983"><ele>530.25</ele><time>2026-04-08T09:37:29.11Z</time></trkpt><trkpt lat="44.6699467" lon="9.3093833"><ele>528.5</ele><time>2026-04-08T09:37:30.11Z</time></trkpt><trkpt lat="44.6697967" lon="9.309395"><ele>526.75</ele><time>2026-04-08T09:37:31.109Z</time></trkpt><trkpt lat="44.6696683" lon="9.3094767"><ele>525.0</ele><time>2026-04-08T09:37:32.11Z</time></trkpt><trkpt lat="44.66955" lon="9.3095883"><ele>521.0</ele><time>2026-04-08T09:37:33.11Z</time></trkpt><trkpt lat="44.6694467" lon="9.3097583"><ele>517.0</ele><time>2026-04-08T09:37:34.11Z</time></trkpt><trkpt lat="44.6693833" lon="9.3099233"><ele>513.0</ele><time>2026-04-08T09:37:35.109Z</time></trkpt><trkpt lat="44.6693917" lon="9.3101583"><ele>513.0</ele><time>2026-04-08T09:37:36.11Z</time></trkpt><trkpt lat="44.6693783" lon="9.3103817"><ele>513.0</ele><time>2026-04-08T09:37:37.109Z</time></trkpt><trkpt lat="44.6694383" lon="9.3106317"><ele>513.0</ele><time>2026-04-08T09:37:38.11Z</time></trkpt><trkpt lat="44.6693867" lon="9.3107567"><ele>519.5</ele><time>2026-04-08T09:37:39.11Z</time></trkpt><trkpt lat="44.6692633" lon="9.31082"><ele>526.0</ele><time>2026-04-08T09:37:40.11Z</time></trkpt><trkpt lat="44.6691383" lon="9.3108933"><ele>532.5</ele><time>2026-04-08T09:37:41.11Z</time></trkpt><trkpt lat="44.6690333" lon="9.31101"><ele>539.0</ele><time>2026-04-08T09:37:42.109Z</time></trkpt><trkpt lat="44.6689383" lon="9.31119"><ele>547.3333333333333</ele><time>2026-04-08T09:37:43.11Z</time></trkpt><trkpt lat="44.6688967" lon="9.31144"><ele>555.6666666666666</ele><time>2026-04-08T09:37:44.11Z</time></trkpt><trkpt lat="44.6688583" lon="9.3116767"><ele>564.0</ele><time>2026-04-08T09:37:45.109Z</time></trkpt><trkpt lat="44.6687933" lon="9.3118733"><ele>564.0</ele><time>2026-04-08T09:37:46.11Z</time></trkpt><trkpt lat="44.66868" lon="9.312035"><ele>564.0</ele><time>2026-04-08T09:37:47.11Z</time></trkpt><trkpt lat="44.6685167" lon="9.3121217"><ele>564.0</ele><time>2026-04-08T09:37:48.11Z</time></trkpt><trkpt lat="44.6683317" lon="9.312125"><ele>557.3333333333334</ele><time>2026-04-08T09:37:49.11Z</time></trkpt><trkpt lat="44.668155" lon="9.3120533"><ele>550.6666666666667</ele><time>2026-04-08T09:37:50.11Z</time></trkpt><trkpt lat="44.6680133" lon="9.31194"><ele>544.0</ele><time>2026-04-08T09:37:51.11Z</time></trkpt><trkpt lat="44.6678917" lon="9.3118533"><ele>540.5</ele><time>2026-04-08T09:37:52.11Z</time></trkpt><trkpt lat="44.66777" lon="9.3118267"><ele>537.0</ele><time>2026-04-08T09:37:53.11Z</time></trkpt><trkpt lat="44.6676617" lon="9.311895"><ele>533.5</ele><time>2026-04-08T09:37:54.109Z</time></trkpt><trkpt lat="44.667565" lon="9.3120833"><ele>530.0</ele><time>2026-04-08T09:37:55.109Z</time></trkpt><trkpt lat="44.6674667" lon="9.312305"><ele>539.3333333333333</ele><time>2026-04-08T09:37:56.11Z</time></trkpt><trkpt lat="44.6673767" lon="9.3125167"><ele>548.6666666666666</ele><time>2026-04-08T09:37:57.11Z</time></trkpt><trkpt lat="44.667275" lon="9.3126933"><ele>558.0</ele><time>2026-04-08T09:37:58.11Z</time></trkpt><trkpt lat="44.6671517" lon="9.3128167"><ele>558.0</ele><time>2026-04-08T09:37:59.11Z</time></trkpt><trkpt lat="44.66698" lon="9.3129017"><ele>558.0</ele><time>2026-04-08T09:38:00.109Z</time></trkpt><trkpt lat="44.6667817" lon="9.3129683"><ele>558.0</ele><time>2026-04-08T09:38:01.11Z</time></trkpt><trkpt lat="44.6665883" lon="9.3130267"><ele>558.0</ele><time>2026-04-08T09:38:02.11Z</time></trkpt><trkpt lat="44.6664233" lon="9.3130683"><ele>558.0</ele><time>2026-04-08T09:38:03.11Z</time></trkpt><trkpt lat="44.6662783" lon="9.3130783"><ele>558.0</ele><time>2026-04-08T09:38:04.11Z</time></trkpt><trkpt lat="44.6661683" lon="9.3130167"><ele>558.0</ele><time>2026-04-08T09:38:05.11Z</time></trkpt><trkpt lat="44.6660917" lon="9.312885"><ele>558.0</ele><time>2026-04-08T09:38:06.11Z</time></trkpt><trkpt lat="44.665995" lon="9.3127333"><ele>558.0</ele><time>2026-04-08T09:38:07.11Z</time></trkpt><trkpt lat="44.6658583" lon="9.3126217"><ele>558.0</ele><time>2026-04-08T09:38:08.11Z</time></trkpt><trkpt lat="44.66572" lon="9.3125133"><ele>558.0</ele><time>2026-04-08T09:38:09.11Z</time></trkpt><trkpt lat="44.6656017" lon="9.31237"><ele>558.0</ele><time>2026-04-08T09:38:10.109Z</time></trkpt><trkpt lat="44.66551" lon="9.31219"><ele>558.0</ele><time>2026-04-08T09:38:11.11Z</time></trkpt><trkpt lat="44.6654317" lon="9.3119783"><ele>559.6666666666666</ele><time>2026-04-08T09:38:12.109Z</time></trkpt><trkpt lat="44.6653333" lon="9.3117667"><ele>561.3333333333333</ele><time>2026-04-08T09:38:13.109Z</time></trkpt><trkpt lat="44.6652083" lon="9.3115567"><ele>563.0</ele><time>2026-04-08T09:38:14.109Z</time></trkpt><trkpt lat="44.66507" lon="9.3113683"><ele>557.6666666666666</ele><time>2026-04-08T09:38:15.11Z</time></trkpt><trkpt lat="44.6649183" lon="9.3112367"><ele>552.3333333333334</ele><time>2026-04-08T09:38:16.11Z</time></trkpt><trkpt lat="44.6647567" lon="9.3111633"><ele>547.0</ele><time>2026-04-08T09:38:17.11Z</time></trkpt><trkpt lat="44.6645867" lon="9.3111233"><ele>545.0</ele><time>2026-04-08T09:38:18.11Z</time></trkpt><trkpt lat="44.6644033" lon="9.31114"><ele>543.0</ele><time>2026-04-08T09:38:19.11Z</time></trkpt><trkpt lat="44.664225" lon="9.3111817"><ele>541.0</ele><time>2026-04-08T09:38:20.11Z</time></trkpt><trkpt lat="44.6640517" lon="9.3112517"><ele>541.0</ele><time>2026-04-08T09:38:21.11Z</time></trkpt><trkpt lat="44.66388" lon="9.3113767"><ele>541.0</ele><time>2026-04-08T09:38:22.11Z</time></trkpt><trkpt lat="44.6637" lon="9.31154"><ele>541.0</ele><time>2026-04-08T09:38:23.11Z</time></trkpt><trkpt lat="44.663495" lon="9.3117333"><ele>541.0</ele><time>2026-04-08T09:38:24.11Z</time></trkpt><trkpt lat="44.6632583" lon="9.3119483"><ele>541.0</ele><time>2026-04-08T09:38:25.11Z</time></trkpt><trkpt lat="44.6630417" lon="9.3121467"><ele>540.6666666666667</ele><time>2026-04-08T09:38:26.11Z</time></trkpt><trkpt lat="44.6628617" lon="9.3123167"><ele>540.3333333333334</ele><time>2026-04-08T09:38:27.109Z</time></trkpt><trkpt lat="44.662705" lon="9.31248"><ele>540.0</ele><time>2026-04-08T09:38:28.11Z</time></trkpt><trkpt lat="44.66258" lon="9.3126467"><ele>540.0</ele><time>2026-04-08T09:38:29.11Z</time></trkpt><trkpt lat="44.662495" lon="9.3128383"><ele>540.0</ele><time>2026-04-08T09:38:30.11Z</time></trkpt><trkpt lat="44.6624183" lon="9.3130233"><ele>540.0</ele><time>2026-04-08T09:38:31.109Z</time></trkpt><trkpt lat="44.6623217" lon="9.31319"><ele>545.25</ele><time>2026-04-08T09:38:32.11Z</time></trkpt><trkpt lat="44.6621983" lon="9.3133183"><ele>550.5</ele><time>2026-04-08T09:38:33.109Z</time></trkpt><trkpt lat="44.662075" lon="9.3133967"><ele>555.75</ele><time>2026-04-08T09:38:34.11Z</time></trkpt><trkpt lat="44.66195" lon="9.31342"><ele>561.0</ele><time>2026-04-08T09:38:35.11Z</time></trkpt><trkpt lat="44.66185" lon="9.313365"><ele>561.0</ele><time>2026-04-08T09:38:36.11Z</time></trkpt><trkpt lat="44.661765" lon="9.3132383"><ele>561.0</ele><time>2026-04-08T09:38:37.11Z</time></trkpt><trkpt lat="44.6616883" lon="9.3130283"><ele>561.0</ele><time>2026-04-08T09:38:38.11Z</time></trkpt><trkpt lat="44.6616033" lon="9.3127683"><ele>553.5</ele><time>2026-04-08T09:38:39.11Z</time></trkpt><trkpt lat="44.6614983" lon="9.3124733"><ele>546.0</ele><time>2026-04-08T09:38:40.11Z</time></trkpt><trkpt lat="44.661395" lon="9.3121583"><ele>541.5</ele><time>2026-04-08T09:38:41.11Z</time></trkpt><trkpt lat="44.6612983" lon="9.3118383"><ele>537.0</ele><time>2026-04-08T09:38:42.11Z</time></trkpt><trkpt lat="44.661215" lon="9.3115317"><ele>535.6666666666666</ele><time>2026-04-08T09:38:43.11Z</time></trkpt><trkpt lat="44.66116" lon="9.3112233"><ele>534.3333333333333</ele><time>2026-04-08T09:38:44.11Z</time></trkpt><trkpt lat="44.661115" lon="9.3109317"><ele>533.0</ele><time>2026-04-08T09:38:45.11Z</time></trkpt><trkpt lat="44.6610717" lon="9.310645"><ele>533.3333333333333</ele><time>2026-04-08T09:38:46.11Z</time></trkpt><trkpt lat="44.661015" lon="9.3104"><ele>533.6666666666666</ele><time>2026-04-08T09:38:47.11Z</time></trkpt><trkpt lat="44.6609567" lon="9.3102017"><ele>534.0</ele><time>2026-04-08T09:38:48.11Z</time></trkpt><trkpt lat="44.6608867" lon="9.3100333"><ele>534.0</ele><time>2026-04-08T09:38:49.11Z</time></trkpt><trkpt lat="44.6608033" lon="9.309925"><ele>534.0</ele><time>2026-04-08T09:38:50.11Z</time></trkpt><trkpt lat="44.6606983" lon="9.3098667"><ele>534.0</ele><time>2026-04-08T09:38:51.11Z</time></trkpt><trkpt lat="44.66059" lon="9.30988"><ele>534.0</ele><time>2026-04-08T09:38:52.11Z</time></trkpt><trkpt lat="44.660485" lon="9.310035"><ele>534.0</ele><time>2026-04-08T09:38:53.11Z</time></trkpt><trkpt lat="44.660415" lon="9.31022"><ele>534.0</ele><time>2026-04-08T09:38:54.11Z</time></trkpt><trkpt lat="44.6603067" lon="9.310385"><ele>534.0</ele><time>2026-04-08T09:38:55.11Z</time></trkpt><trkpt lat="44.6602067" lon="9.3105467"><ele>534.0</ele><time>2026-04-08T09:38:56.11Z</time></trkpt><trkpt lat="44.6600667" lon="9.310675"><ele>534.0</ele><time>2026-04-08T09:38:57.11Z</time></trkpt><trkpt lat="44.6599133" lon="9.3108367"><ele>534.0</ele><time>2026-04-08T09:38:58.11Z</time></trkpt><trkpt lat="44.6597433" lon="9.3110433"><ele>534.0</ele><time>2026-04-08T09:38:59.11Z</time></trkpt><trkpt lat="44.659565" lon="9.31125"><ele>534.0</ele><time>2026-04-08T09:39:00.11Z</time></trkpt><trkpt lat="44.6593583" lon="9.3114467"><ele>534.0</ele><time>2026-04-08T09:39:01.11Z</time></trkpt><trkpt lat="44.6591333" lon="9.3116033"><ele>534.0</ele><time>2026-04-08T09:39:02.109Z</time></trkpt><trkpt lat="44.6589033" lon="9.3117533"><ele>534.0</ele><time>2026-04-08T09:39:03.11Z</time></trkpt><trkpt lat="44.6586717" lon="9.3119067"><ele>534.0</ele><time>2026-04-08T09:39:04.11Z</time></trkpt><trkpt lat="44.658435" lon="9.31208"><ele>535.0</ele><time>2026-04-08T09:39:05.11Z</time></trkpt><trkpt lat="44.6582317" lon="9.31223"><ele>536.0</ele><time>2026-04-08T09:39:06.11Z</time></trkpt><trkpt lat="44.6580417" lon="9.31237"><ele>537.0</ele><time>2026-04-08T09:39:07.11Z</time></trkpt><trkpt lat="44.657865" lon="9.31249"><ele>533.0</ele><time>2026-04-08T09:39:08.11Z</time></trkpt><trkpt lat="44.6576783" lon="9.31259"><ele>529.0</ele><time>2026-04-08T09:39:09.11Z</time></trkpt><trkpt lat="44.6574967" lon="9.312665"><ele>525.0</ele><time>2026-04-08T09:39:10.109Z</time></trkpt><trkpt lat="44.65732" lon="9.312745"><ele>525.0</ele><time>2026-04-08T09:39:11.11Z</time></trkpt><trkpt lat="44.657155" lon="9.3128233"><ele>525.0</ele><time>2026-04-08T09:39:12.11Z</time></trkpt><trkpt lat="44.65701" lon="9.3128967"><ele>525.0</ele><time>2026-04-08T09:39:13.11Z</time></trkpt><trkpt lat="44.6568783" lon="9.3129267"><ele>526.0</ele><time>2026-04-08T09:39:14.11Z</time></trkpt><trkpt lat="44.6567483" lon="9.3128833"><ele>527.0</ele><time>2026-04-08T09:39:15.109Z</time></trkpt><trkpt lat="44.65662" lon="9.31275"><ele>528.0</ele><time>2026-04-08T09:39:16.11Z</time></trkpt><trkpt lat="44.6564833" lon="9.31256"><ele>528.0</ele><time>2026-04-08T09:39:17.109Z</time></trkpt><trkpt lat="44.6563583" lon="9.3123867"><ele>528.0</ele><time>2026-04-08T09:39:18.11Z</time></trkpt><trkpt lat="44.6562433" lon="9.312245"><ele>528.0</ele><time>2026-04-08T09:39:19.109Z</time></trkpt><trkpt lat="44.6561183" lon="9.3121717"><ele>528.0</ele><time>2026-04-08T09:39:20.11Z</time></trkpt><trkpt lat="44.6559817" lon="9.3121883"><ele>528.0</ele><time>2026-04-08T09:39:21.11Z</time></trkpt><trkpt lat="44.6558517" lon="9.312275"><ele>528.0</ele><time>2026-04-08T09:39:22.11Z</time></trkpt><trkpt lat="44.6557183" lon="9.3123633"><ele>528.0</ele><time>2026-04-08T09:39:23.11Z</time></trkpt><trkpt lat="44.6555683" lon="9.3124417"><ele>528.0</ele><time>2026-04-08T09:39:24.109Z</time></trkpt><trkpt lat="44.6554033" lon="9.3124717"><ele>528.0</ele><time>2026-04-08T09:39:25.109Z</time></trkpt><trkpt lat="44.6552417" lon="9.3124383"><ele>528.0</ele><time>2026-04-08T09:39:26.109Z</time></trkpt><trkpt lat="44.6550717" lon="9.3123683"><ele>527.5</ele><time>2026-04-08T09:39:27.109Z</time></trkpt><trkpt lat="44.6549233" lon="9.3122767"><ele>527.0</ele><time>2026-04-08T09:39:28.11Z</time></trkpt><trkpt lat="44.6547917" lon="9.3122167"><ele>526.5</ele><time>2026-04-08T09:39:29.11Z</time></trkpt><trkpt lat="44.654665" lon="9.31219"><ele>526.0</ele><time>2026-04-08T09:39:30.11Z</time></trkpt><trkpt lat="44.6545417" lon="9.3122217"><ele>522.3333333333334</ele><time>2026-04-08T09:39:31.109Z</time></trkpt><trkpt lat="44.654415" lon="9.31235"><ele>518.6666666666666</ele><time>2026-04-08T09:39:32.11Z</time></trkpt><trkpt lat="44.654305" lon="9.3125317"><ele>515.0</ele><time>2026-04-08T09:39:33.11Z</time></trkpt><trkpt lat="44.6541867" lon="9.3128233"><ele>515.0</ele><time>2026-04-08T09:39:34.11Z</time></trkpt><trkpt lat="44.65408" lon="9.3130167"><ele>515.0</ele><time>2026-04-08T09:39:35.109Z</time></trkpt><trkpt lat="44.65397" lon="9.313165"><ele>515.0</ele><time>2026-04-08T09:39:36.11Z</time></trkpt><trkpt lat="44.653885" lon="9.3133233"><ele>514.75</ele><time>2026-04-08T09:39:37.11Z</time></trkpt><trkpt lat="44.65385" lon="9.31348"><ele>514.5</ele><time>2026-04-08T09:39:38.109Z</time></trkpt><trkpt lat="44.6538483" lon="9.3136367"><ele>514.25</ele><time>2026-04-08T09:39:39.11Z</time></trkpt><trkpt lat="44.65387" lon="9.3138033"><ele>514.0</ele><time>2026-04-08T09:39:40.11Z</time></trkpt><trkpt lat="44.6540883" lon="9.3140067"><ele>514.0</ele><time>2026-04-08T09:39:41.11Z</time></trkpt><trkpt lat="44.6542367" lon="9.3142"><ele>514.0</ele><time>2026-04-08T09:39:42.11Z</time></trkpt><trkpt lat="44.6543383" lon="9.3143883"><ele>514.0</ele><time>2026-04-08T09:39:43.11Z</time></trkpt><trkpt lat="44.6543833" lon="9.3145667"><ele>514.5</ele><time>2026-04-08T09:39:44.11Z</time></trkpt><trkpt lat="44.6543817" lon="9.3147517"><ele>515.0</ele><time>2026-04-08T09:39:45.11Z</time></trkpt><trkpt lat="44.6543067" lon="9.3149"><ele>515.5</ele><time>2026-04-08T09:39:46.11Z</time></trkpt><trkpt lat="44.6541883" lon="9.3150067"><ele>516.0</ele><time>2026-04-08T09:39:47.11Z</time></trkpt><trkpt lat="44.65402" lon="9.3150567"><ele>516.0</ele><time>2026-04-08T09:39:48.109Z</time></trkpt><trkpt lat="44.65385" lon="9.3151033"><ele>516.0</ele><time>2026-04-08T09:39:49.11Z</time></trkpt><trkpt lat="44.6536967" lon="9.3151517"><ele>516.0</ele><time>2026-04-08T09:39:50.11Z</time></trkpt><trkpt lat="44.6535767" lon="9.3152217"><ele>515.0</ele><time>2026-04-08T09:39:51.11Z</time></trkpt><trkpt lat="44.6534717" lon="9.31535"><ele>514.0</ele><time>2026-04-08T09:39:52.109Z</time></trkpt><trkpt lat="44.6533917" lon="9.31552"><ele>513.0</ele><time>2026-04-08T09:39:53.11Z</time></trkpt><trkpt lat="44.6533083" lon="9.315675"><ele>512.0</ele><time>2026-04-08T09:39:54.11Z</time></trkpt><trkpt lat="44.653195" lon="9.3157967"><ele>512.0</ele><time>2026-04-08T09:39:55.11Z</time></trkpt><trkpt lat="44.6530533" lon="9.3158533"><ele>512.0</ele><time>2026-04-08T09:39:56.11Z</time></trkpt><trkpt lat="44.652905" lon="9.3158667"><ele>512.0</ele><time>2026-04-08T09:39:57.11Z</time></trkpt><trkpt lat="44.65276" lon="9.3158917"><ele>512.0</ele><time>2026-04-08T09:39:58.11Z</time></trkpt><trkpt lat="44.6526283" lon="9.3159667"><ele>512.3333333333333</ele><time>2026-04-08T09:39:59.11Z</time></trkpt><trkpt lat="44.6525067" lon="9.3161033"><ele>512.6666666666666</ele><time>2026-04-08T09:40:00.11Z</time></trkpt><trkpt lat="44.6524067" lon="9.316265"><ele>513.0</ele><time>2026-04-08T09:40:01.11Z</time></trkpt><trkpt lat="44.6523033" lon="9.3164083"><ele>513.0</ele><time>2026-04-08T09:40:02.109Z</time></trkpt><trkpt lat="44.6521633" lon="9.3165133"><ele>513.0</ele><time>2026-04-08T09:40:03.11Z</time></trkpt><trkpt lat="44.6520283" lon="9.316585"><ele>513.0</ele><time>2026-04-08T09:40:04.11Z</time></trkpt><trkpt lat="44.6518983" lon="9.3166817"><ele>506.75</ele><time>2026-04-08T09:40:05.109Z</time></trkpt><trkpt lat="44.6517933" lon="9.316825"><ele>500.5</ele><time>2026-04-08T09:40:06.109Z</time></trkpt><trkpt lat="44.6517117" lon="9.3169833"><ele>494.25</ele><time>2026-04-08T09:40:07.109Z</time></trkpt><trkpt lat="44.6516167" lon="9.317095"><ele>488.0</ele><time>2026-04-08T09:40:08.108Z</time></trkpt><trkpt lat="44.6515067" lon="9.3171717"><ele>490.25</ele><time>2026-04-08T09:40:09.109Z</time></trkpt><trkpt lat="44.6514117" lon="9.3172517"><ele>492.5</ele><time>2026-04-08T09:40:10.109Z</time></trkpt><trkpt lat="44.6513383" lon="9.3173967"><ele>494.75</ele><time>2026-04-08T09:40:11.109Z</time></trkpt><trkpt lat="44.651305" lon="9.3176067"><ele>497.0</ele><time>2026-04-08T09:40:12.109Z</time></trkpt><trkpt lat="44.651295" lon="9.3178683"><ele>502.0</ele><time>2026-04-08T09:40:13.109Z</time></trkpt><trkpt lat="44.6512467" lon="9.318095"><ele>507.0</ele><time>2026-04-08T09:40:14.109Z</time></trkpt><trkpt lat="44.6511983" lon="9.318325"><ele>512.0</ele><time>2026-04-08T09:40:15.109Z</time></trkpt><trkpt lat="44.6511783" lon="9.3185917"><ele>512.0</ele><time>2026-04-08T09:40:16.109Z</time></trkpt><trkpt lat="44.65119" lon="9.3189017"><ele>512.0</ele><time>2026-04-08T09:40:17.109Z</time></trkpt><trkpt lat="44.6512083" lon="9.3192067"><ele>512.0</ele><time>2026-04-08T09:40:18.108Z</time></trkpt><trkpt lat="44.65124" lon="9.3194783"><ele>512.0</ele><time>2026-04-08T09:40:19.109Z</time></trkpt><trkpt lat="44.651285" lon="9.31972"><ele>512.0</ele><time>2026-04-08T09:40:20.108Z</time></trkpt><trkpt lat="44.6513267" lon="9.319915"><ele>512.0</ele><time>2026-04-08T09:40:21.108Z</time></trkpt><trkpt lat="44.6513317" lon="9.32009"><ele>512.0</ele><time>2026-04-08T09:40:22.108Z</time></trkpt><trkpt lat="44.651295" lon="9.3202383"><ele>508.6</ele><time>2026-04-08T09:40:23.109Z</time></trkpt><trkpt lat="44.6512417" lon="9.3203533"><ele>505.20000000000005</ele><time>2026-04-08T09:40:24.109Z</time></trkpt><trkpt lat="44.6512083" lon="9.3204767"><ele>501.8</ele><time>2026-04-08T09:40:25.108Z</time></trkpt><trkpt lat="44.651215" lon="9.3206083"><ele>498.4</ele><time>2026-04-08T09:40:26.109Z</time></trkpt><trkpt lat="44.6512683" lon="9.320725"><ele>495.0</ele><time>2026-04-08T09:40:27.108Z</time></trkpt><trkpt lat="44.6513583" lon="9.3208267"><ele>490.75</ele><time>2026-04-08T09:40:28.109Z</time></trkpt><trkpt lat="44.651465" lon="9.320925"><ele>486.5</ele><time>2026-04-08T09:40:29.109Z</time></trkpt><trkpt lat="44.6515317" lon="9.321055"><ele>482.25</ele><time>2026-04-08T09:40:30.108Z</time></trkpt><trkpt lat="44.651575" lon="9.321195"><ele>478.0</ele><time>2026-04-08T09:40:31.108Z</time></trkpt><trkpt lat="44.65159" lon="9.321355"><ele>478.0</ele><time>2026-04-08T09:40:32.109Z</time></trkpt><trkpt lat="44.6515333" lon="9.32153"><ele>477.99999999999994</ele><time>2026-04-08T09:40:33.109Z</time></trkpt><trkpt lat="44.6514767" lon="9.3216567"><ele>477.99999999999994</ele><time>2026-04-08T09:40:34.109Z</time></trkpt><trkpt lat="44.6514183" lon="9.321765"><ele>478.0</ele><time>2026-04-08T09:40:35.109Z</time></trkpt><trkpt lat="44.6513617" lon="9.32183"><ele>478.0</ele><time>2026-04-08T09:40:36.109Z</time></trkpt><trkpt lat="44.6512817" lon="9.321845"><ele>476.5</ele><time>2026-04-08T09:40:37.109Z</time></trkpt><trkpt lat="44.65105" lon="9.3216633"><ele>475.0</ele><time>2026-04-08T09:40:39.109Z</time></trkpt><trkpt lat="44.6508783" lon="9.3215683"><ele>475.0</ele><time>2026-04-08T09:40:40.109Z</time></trkpt><trkpt lat="44.650715" lon="9.32149"><ele>475.0</ele><time>2026-04-08T09:40:41.109Z</time></trkpt><trkpt lat="44.6505383" lon="9.3213083"><ele>475.0</ele><time>2026-04-08T09:40:42.109Z</time></trkpt><trkpt lat="44.6504133" lon="9.3211667"><ele>473.5</ele><time>2026-04-08T09:40:43.108Z</time></trkpt><trkpt lat="44.6503283" lon="9.3210417"><ele>472.0</ele><time>2026-04-08T09:40:44.109Z</time></trkpt><trkpt lat="44.6502733" lon="9.3208683"><ele>470.5</ele><time>2026-04-08T09:40:45.108Z</time></trkpt><trkpt lat="44.6502283" lon="9.32071"><ele>469.0</ele><time>2026-04-08T09:40:46.109Z</time></trkpt><trkpt lat="44.6501733" lon="9.3205717"><ele>467.0</ele><time>2026-04-08T09:40:47.109Z</time></trkpt><trkpt lat="44.6501183" lon="9.3204583"><ele>465.0</ele><time>2026-04-08T09:40:48.108Z</time></trkpt><trkpt lat="44.6500333" lon="9.32038"><ele>463.0</ele><time>2026-04-08T09:40:49.109Z</time></trkpt><trkpt lat="44.649875" lon="9.320435"><ele>461.0</ele><time>2026-04-08T09:40:50.109Z</time></trkpt><trkpt lat="44.6496767" lon="9.3205683"><ele>461.0</ele><time>2026-04-08T09:40:51.108Z</time></trkpt><trkpt lat="44.64951" lon="9.3206983"><ele>461.0</ele><time>2026-04-08T09:40:52.109Z</time></trkpt><trkpt lat="44.649375" lon="9.320845"><ele>461.0</ele><time>2026-04-08T09:40:53.109Z</time></trkpt><trkpt lat="44.6492433" lon="9.32104"><ele>461.66666666666663</ele><time>2026-04-08T09:40:54.109Z</time></trkpt><trkpt lat="44.64912" lon="9.3212633"><ele>462.33333333333337</ele><time>2026-04-08T09:40:55.109Z</time></trkpt><trkpt lat="44.6489917" lon="9.3215117"><ele>463.0</ele><time>2026-04-08T09:40:56.109Z</time></trkpt><trkpt lat="44.6488583" lon="9.3217767"><ele>463.0</ele><time>2026-04-08T09:40:57.109Z</time></trkpt><trkpt lat="44.64873" lon="9.3220717"><ele>463.0</ele><time>2026-04-08T09:40:58.108Z</time></trkpt><trkpt lat="44.64861" lon="9.3224067"><ele>454.0</ele><time>2026-04-08T09:40:59.109Z</time></trkpt><trkpt lat="44.6484967" lon="9.3227567"><ele>445.0</ele><time>2026-04-08T09:41:00.108Z</time></trkpt><trkpt lat="44.6483933" lon="9.3231167"><ele>445.0</ele><time>2026-04-08T09:41:01.109Z</time></trkpt><trkpt lat="44.6482883" lon="9.3234817"><ele>445.0</ele><time>2026-04-08T09:41:02.109Z</time></trkpt><trkpt lat="44.6481817" lon="9.323845"><ele>449.5</ele><time>2026-04-08T09:41:03.109Z</time></trkpt><trkpt lat="44.6480833" lon="9.32421"><ele>454.0</ele><time>2026-04-08T09:41:04.108Z</time></trkpt><trkpt lat="44.6479783" lon="9.3245783"><ele>454.5</ele><time>2026-04-08T09:41:05.109Z</time></trkpt><trkpt lat="44.6478717" lon="9.3249483"><ele>455.0</ele><time>2026-04-08T09:41:06.109Z</time></trkpt><trkpt lat="44.6477683" lon="9.325305"><ele>452.0</ele><time>2026-04-08T09:41:07.109Z</time></trkpt><trkpt lat="44.6476667" lon="9.3256383"><ele>449.0</ele><time>2026-04-08T09:41:08.109Z</time></trkpt><trkpt lat="44.6475633" lon="9.32595"><ele>449.0</ele><time>2026-04-08T09:41:09.109Z</time></trkpt><trkpt lat="44.6474467" lon="9.3262467"><ele>449.0</ele><time>2026-04-08T09:41:10.109Z</time></trkpt><trkpt lat="44.647315" lon="9.326515"><ele>449.0</ele><time>2026-04-08T09:41:11.109Z</time></trkpt><trkpt lat="44.6471617" lon="9.326765"><ele>449.0</ele><time>2026-04-08T09:41:12.109Z</time></trkpt><trkpt lat="44.646995" lon="9.32699"><ele>450.5</ele><time>2026-04-08T09:41:13.108Z</time></trkpt><trkpt lat="44.6468067" lon="9.3272033"><ele>452.0</ele><time>2026-04-08T09:41:14.109Z</time></trkpt><trkpt lat="44.646605" lon="9.3273983"><ele>452.0</ele><time>2026-04-08T09:41:15.109Z</time></trkpt><trkpt lat="44.64638" lon="9.3275783"><ele>452.0</ele><time>2026-04-08T09:41:16.109Z</time></trkpt><trkpt lat="44.646135" lon="9.3277567"><ele>452.5</ele><time>2026-04-08T09:41:17.108Z</time></trkpt><trkpt lat="44.6458767" lon="9.32795"><ele>453.0</ele><time>2026-04-08T09:41:18.109Z</time></trkpt><trkpt lat="44.6456033" lon="9.3281467"><ele>453.0</ele><time>2026-04-08T09:41:19.109Z</time></trkpt><trkpt lat="44.6453317" lon="9.3283283"><ele>453.0</ele><time>2026-04-08T09:41:20.109Z</time></trkpt><trkpt lat="44.6450433" lon="9.32848"><ele>460.0</ele><time>2026-04-08T09:41:21.109Z</time></trkpt><trkpt lat="44.6447367" lon="9.3286067"><ele>467.0</ele><time>2026-04-08T09:41:22.109Z</time></trkpt><trkpt lat="44.6444133" lon="9.3287033"><ele>468.0</ele><time>2026-04-08T09:41:23.109Z</time></trkpt><trkpt lat="44.644085" lon="9.328785"><ele>469.0</ele><time>2026-04-08T09:41:24.108Z</time></trkpt><trkpt lat="44.64375" lon="9.32886"><ele>464.0</ele><time>2026-04-08T09:41:25.109Z</time></trkpt><trkpt lat="44.643415" lon="9.3289383"><ele>459.0</ele><time>2026-04-08T09:41:26.109Z</time></trkpt><trkpt lat="44.6430767" lon="9.3290217"><ele>460.0</ele><time>2026-04-08T09:41:27.109Z</time></trkpt><trkpt lat="44.6427333" lon="9.3291083"><ele>461.0</ele><time>2026-04-08T09:41:28.109Z</time></trkpt><trkpt lat="44.6423917" lon="9.3291917"><ele>461.0</ele><time>2026-04-08T09:41:29.109Z</time></trkpt><trkpt lat="44.6420417" lon="9.3292767"><ele>461.0</ele><time>2026-04-08T09:41:30.108Z</time></trkpt><trkpt lat="44.6416933" lon="9.329365"><ele>462.5</ele><time>2026-04-08T09:41:31.109Z</time></trkpt><trkpt lat="44.641345" lon="9.32945"><ele>464.0</ele><time>2026-04-08T09:41:32.109Z</time></trkpt><trkpt lat="44.64099" lon="9.3295433"><ele>466.0</ele><time>2026-04-08T09:41:33.109Z</time></trkpt><trkpt lat="44.6406467" lon="9.3296383"><ele>468.0</ele><time>2026-04-08T09:41:34.109Z</time></trkpt><trkpt lat="44.6403233" lon="9.3297283"><ele>463.5</ele><time>2026-04-08T09:41:35.108Z</time></trkpt><trkpt lat="44.6400233" lon="9.3298167"><ele>459.0</ele><time>2026-04-08T09:41:36.109Z</time></trkpt><trkpt lat="44.6397433" lon="9.329895"><ele>459.0</ele><time>2026-04-08T09:41:37.109Z</time></trkpt><trkpt lat="44.6394717" lon="9.3299683"><ele>459.0</ele><time>2026-04-08T09:41:38.108Z</time></trkpt><trkpt lat="44.63921" lon="9.3300167"><ele>460.0</ele><time>2026-04-08T09:41:39.109Z</time></trkpt><trkpt lat="44.638945" lon="9.3300267"><ele>461.0</ele><time>2026-04-08T09:41:40.109Z</time></trkpt><trkpt lat="44.63868" lon="9.329995"><ele>467.0</ele><time>2026-04-08T09:41:41.108Z</time></trkpt><trkpt lat="44.6384117" lon="9.3299167"><ele>473.0</ele><time>2026-04-08T09:41:42.109Z</time></trkpt><trkpt lat="44.6381483" lon="9.3297683"><ele>470.5</ele><time>2026-04-08T09:41:43.109Z</time></trkpt><trkpt lat="44.6378833" lon="9.3295783"><ele>468.0</ele><time>2026-04-08T09:41:44.108Z</time></trkpt><trkpt lat="44.637605" lon="9.3293833"><ele>468.0</ele><time>2026-04-08T09:41:45.109Z</time></trkpt><trkpt lat="44.6373317" lon="9.32918"><ele>468.0</ele><time>2026-04-08T09:41:46.109Z</time></trkpt><trkpt lat="44.6370617" lon="9.328975"><ele>465.5</ele><time>2026-04-08T09:41:47.109Z</time></trkpt><trkpt lat="44.6367883" lon="9.3287883"><ele>463.0</ele><time>2026-04-08T09:41:48.109Z</time></trkpt><trkpt lat="44.636515" lon="9.3286333"><ele>463.0</ele><time>2026-04-08T09:41:49.109Z</time></trkpt><trkpt lat="44.6362317" lon="9.3285317"><ele>463.0</ele><time>2026-04-08T09:41:50.109Z</time></trkpt><trkpt lat="44.6359333" lon="9.3284917"><ele>465.0</ele><time>2026-04-08T09:41:51.109Z</time></trkpt><trkpt lat="44.63564" lon="9.32851"><ele>467.0</ele><time>2026-04-08T09:41:52.109Z</time></trkpt><trkpt lat="44.6353483" lon="9.3286083"><ele>466.0</ele><time>2026-04-08T09:41:53.109Z</time></trkpt><trkpt lat="44.6350867" lon="9.32878"><ele>465.0</ele><time>2026-04-08T09:41:54.108Z</time></trkpt><trkpt lat="44.6348467" lon="9.3289383"><ele>467.0</ele><time>2026-04-08T09:41:55.109Z</time></trkpt><trkpt lat="44.6346217" lon="9.3290967"><ele>469.0</ele><time>2026-04-08T09:41:56.109Z</time></trkpt><trkpt lat="44.6344133" lon="9.32923"><ele>469.0</ele><time>2026-04-08T09:41:57.109Z</time></trkpt><trkpt lat="44.6342183" lon="9.32936"><ele>469.0</ele><time>2026-04-08T09:41:58.109Z</time></trkpt><trkpt lat="44.6340267" lon="9.329495"><ele>469.0</ele><time>2026-04-08T09:41:59.109Z</time></trkpt><trkpt lat="44.6338333" lon="9.3296333"><ele>470.0</ele><time>2026-04-08T09:42:00.108Z</time></trkpt><trkpt lat="44.63364" lon="9.3297783"><ele>471.0</ele><time>2026-04-08T09:42:01.108Z</time></trkpt><trkpt lat="44.6334367" lon="9.3299217"><ele>472.0</ele><time>2026-04-08T09:42:02.108Z</time></trkpt><trkpt lat="44.6332317" lon="9.3300683"><ele>472.0</ele><time>2026-04-08T09:42:03.109Z</time></trkpt><trkpt lat="44.6330183" lon="9.3301917"><ele>472.0</ele><time>2026-04-08T09:42:04.109Z</time></trkpt><trkpt lat="44.6328133" lon="9.330335"><ele>474.0</ele><time>2026-04-08T09:42:05.109Z</time></trkpt><trkpt lat="44.6326167" lon="9.3305167"><ele>476.0</ele><time>2026-04-08T09:42:06.109Z</time></trkpt><trkpt lat="44.6324167" lon="9.3307033"><ele>476.0</ele><time>2026-04-08T09:42:07.108Z</time></trkpt><trkpt lat="44.6322033" lon="9.3309017"><ele>476.0</ele><time>2026-04-08T09:42:08.108Z</time></trkpt><trkpt lat="44.632005" lon="9.3311167"><ele>478.0</ele><time>2026-04-08T09:42:09.109Z</time></trkpt><trkpt lat="44.6318033" lon="9.3313267"><ele>480.0</ele><time>2026-04-08T09:42:10.108Z</time></trkpt><trkpt lat="44.6316033" lon="9.331545"><ele>480.0</ele><time>2026-04-08T09:42:11.109Z</time></trkpt><trkpt lat="44.631395" lon="9.331755"><ele>480.0</ele><time>2026-04-08T09:42:12.108Z</time></trkpt><trkpt lat="44.6311767" lon="9.3319483"><ele>482.5</ele><time>2026-04-08T09:42:13.109Z</time></trkpt><trkpt lat="44.6309467" lon="9.3321183"><ele>485.0</ele><time>2026-04-08T09:42:14.109Z</time></trkpt><trkpt lat="44.630715" lon="9.332285"><ele>485.0</ele><time>2026-04-08T09:42:15.109Z</time></trkpt><trkpt lat="44.6304867" lon="9.3324683"><ele>485.0</ele><time>2026-04-08T09:42:16.109Z</time></trkpt><trkpt lat="44.6302467" lon="9.3326283"><ele>478.0</ele><time>2026-04-08T09:42:17.109Z</time></trkpt><trkpt lat="44.6299933" lon="9.33279"><ele>471.0</ele><time>2026-04-08T09:42:18.109Z</time></trkpt><trkpt lat="44.6297417" lon="9.3329383"><ele>471.0</ele><time>2026-04-08T09:42:19.108Z</time></trkpt><trkpt lat="44.6294767" lon="9.3330517"><ele>471.0</ele><time>2026-04-08T09:42:20.108Z</time></trkpt><trkpt lat="44.6291917" lon="9.333085"><ele>475.5</ele><time>2026-04-08T09:42:21.109Z</time></trkpt><trkpt lat="44.6289133" lon="9.333115"><ele>480.0</ele><time>2026-04-08T09:42:22.109Z</time></trkpt><trkpt lat="44.6286283" lon="9.33312"><ele>480.5</ele><time>2026-04-08T09:42:23.109Z</time></trkpt><trkpt lat="44.6283483" lon="9.333105"><ele>481.0</ele><time>2026-04-08T09:42:24.109Z</time></trkpt><trkpt lat="44.628065" lon="9.3330817"><ele>477.0</ele><time>2026-04-08T09:42:25.109Z</time></trkpt><trkpt lat="44.627785" lon="9.3330517"><ele>473.0</ele><time>2026-04-08T09:42:26.109Z</time></trkpt><trkpt lat="44.6275067" lon="9.333025"><ele>473.0</ele><time>2026-04-08T09:42:27.108Z</time></trkpt><trkpt lat="44.6272267" lon="9.333"><ele>473.0</ele><time>2026-04-08T09:42:28.109Z</time></trkpt><trkpt lat="44.62695" lon="9.3329483"><ele>476.0</ele><time>2026-04-08T09:42:29.108Z</time></trkpt><trkpt lat="44.626675" lon="9.3328883"><ele>479.0</ele><time>2026-04-08T09:42:30.109Z</time></trkpt><trkpt lat="44.6264067" lon="9.3327967"><ele>476.5</ele><time>2026-04-08T09:42:31.109Z</time></trkpt><trkpt lat="44.6261433" lon="9.332695"><ele>474.0</ele><time>2026-04-08T09:42:32.109Z</time></trkpt><trkpt lat="44.6258833" lon="9.332575"><ele>474.0</ele><time>2026-04-08T09:42:33.109Z</time></trkpt><trkpt lat="44.6256233" lon="9.3324467"><ele>474.0</ele><time>2026-04-08T09:42:34.108Z</time></trkpt><trkpt lat="44.6253667" lon="9.3323067"><ele>477.0</ele><time>2026-04-08T09:42:35.109Z</time></trkpt><trkpt lat="44.6251033" lon="9.3321633"><ele>480.0</ele><time>2026-04-08T09:42:36.108Z</time></trkpt><trkpt lat="44.624575" lon="9.3318517"><ele>481.0</ele><time>2026-04-08T09:42:38.109Z</time></trkpt><trkpt lat="44.6243017" lon="9.331705"><ele>482.0</ele><time>2026-04-08T09:42:39.108Z</time></trkpt><trkpt lat="44.6240317" lon="9.3315467"><ele>480.5</ele><time>2026-04-08T09:42:40.109Z</time></trkpt><trkpt lat="44.6237583" lon="9.3313833"><ele>479.0</ele><time>2026-04-08T09:42:41.109Z</time></trkpt><trkpt lat="44.6234817" lon="9.331225"><ele>478.5</ele><time>2026-04-08T09:42:42.109Z</time></trkpt><trkpt lat="44.6232033" lon="9.3310833"><ele>478.0</ele><time>2026-04-08T09:42:43.109Z</time></trkpt><trkpt lat="44.62294" lon="9.330885"><ele>478.5</ele><time>2026-04-08T09:42:44.109Z</time></trkpt><trkpt lat="44.622665" lon="9.3306833"><ele>479.0</ele><time>2026-04-08T09:42:45.109Z</time></trkpt><trkpt lat="44.6224017" lon="9.3304417"><ele>480.5</ele><time>2026-04-08T09:42:46.109Z</time></trkpt><trkpt lat="44.622145" lon="9.330185"><ele>482.0</ele><time>2026-04-08T09:42:47.109Z</time></trkpt><trkpt lat="44.6219283" lon="9.329865"><ele>484.0</ele><time>2026-04-08T09:42:48.108Z</time></trkpt><trkpt lat="44.62172" lon="9.32953"><ele>486.0</ele><time>2026-04-08T09:42:49.109Z</time></trkpt><trkpt lat="44.6215183" lon="9.3291867"><ele>488.0</ele><time>2026-04-08T09:42:50.108Z</time></trkpt><trkpt lat="44.621345" lon="9.32882"><ele>490.0</ele><time>2026-04-08T09:42:51.109Z</time></trkpt><trkpt lat="44.62119" lon="9.3284317"><ele>486.5</ele><time>2026-04-08T09:42:52.109Z</time></trkpt><trkpt lat="44.6210367" lon="9.3280417"><ele>483.0</ele><time>2026-04-08T09:42:53.109Z</time></trkpt><trkpt lat="44.6208817" lon="9.3276583"><ele>483.0</ele><time>2026-04-08T09:42:54.109Z</time></trkpt><trkpt lat="44.6207133" lon="9.3272983"><ele>483.0</ele><time>2026-04-08T09:42:55.109Z</time></trkpt><trkpt lat="44.6205417" lon="9.3269583"><ele>483.5</ele><time>2026-04-08T09:42:56.109Z</time></trkpt><trkpt lat="44.6203783" lon="9.3266183"><ele>484.0</ele><time>2026-04-08T09:42:57.109Z</time></trkpt><trkpt lat="44.620195" lon="9.3263017"><ele>486.0</ele><time>2026-04-08T09:42:58.108Z</time></trkpt><trkpt lat="44.619995" lon="9.3260017"><ele>488.0</ele><time>2026-04-08T09:42:59.109Z</time></trkpt><trkpt lat="44.6197867" lon="9.3256983"><ele>488.0</ele><time>2026-04-08T09:43:00.109Z</time></trkpt><trkpt lat="44.6195667" lon="9.3253917"><ele>488.0</ele><time>2026-04-08T09:43:01.108Z</time></trkpt><trkpt lat="44.6193367" lon="9.3250783"><ele>490.0</ele><time>2026-04-08T09:43:02.108Z</time></trkpt><trkpt lat="44.6191083" lon="9.3247567"><ele>492.0</ele><time>2026-04-08T09:43:03.109Z</time></trkpt><trkpt lat="44.61889" lon="9.32444"><ele>495.5</ele><time>2026-04-08T09:43:04.109Z</time></trkpt><trkpt lat="44.6186633" lon="9.3241517"><ele>499.0</ele><time>2026-04-08T09:43:05.109Z</time></trkpt><trkpt lat="44.6184517" lon="9.3238583"><ele>499.0</ele><time>2026-04-08T09:43:06.109Z</time></trkpt><trkpt lat="44.6182467" lon="9.3235767"><ele>499.0</ele><time>2026-04-08T09:43:07.109Z</time></trkpt><trkpt lat="44.618045" lon="9.3232967"><ele>501.0</ele><time>2026-04-08T09:43:08.109Z</time></trkpt><trkpt lat="44.6178483" lon="9.3230183"><ele>503.0</ele><time>2026-04-08T09:43:09.109Z</time></trkpt><trkpt lat="44.6176517" lon="9.3227667"><ele>496.5</ele><time>2026-04-08T09:43:10.109Z</time></trkpt><trkpt lat="44.6174733" lon="9.3225167"><ele>490.0</ele><time>2026-04-08T09:43:11.109Z</time></trkpt><trkpt lat="44.61729" lon="9.3222867"><ele>490.0</ele><time>2026-04-08T09:43:12.109Z</time></trkpt><trkpt lat="44.6171067" lon="9.3220633"><ele>490.0</ele><time>2026-04-08T09:43:13.109Z</time></trkpt><trkpt lat="44.6169017" lon="9.32189"><ele>496.0</ele><time>2026-04-08T09:43:14.109Z</time></trkpt><trkpt lat="44.6166817" lon="9.3217667"><ele>502.0</ele><time>2026-04-08T09:43:15.109Z</time></trkpt><trkpt lat="44.616445" lon="9.321695"><ele>502.0</ele><time>2026-04-08T09:43:16.109Z</time></trkpt><trkpt lat="44.6162" lon="9.321665"><ele>502.0</ele><time>2026-04-08T09:43:17.109Z</time></trkpt><trkpt lat="44.615945" lon="9.3216633"><ele>505.5</ele><time>2026-04-08T09:43:18.108Z</time></trkpt><trkpt lat="44.61568" lon="9.3216867"><ele>509.0</ele><time>2026-04-08T09:43:19.109Z</time></trkpt><trkpt lat="44.6154317" lon="9.321685"><ele>509.66666666666663</ele><time>2026-04-08T09:43:20.109Z</time></trkpt><trkpt lat="44.6152167" lon="9.3216467"><ele>510.33333333333337</ele><time>2026-04-08T09:43:21.108Z</time></trkpt><trkpt lat="44.6150383" lon="9.3215567"><ele>511.0</ele><time>2026-04-08T09:43:22.109Z</time></trkpt><trkpt lat="44.614895" lon="9.3214167"><ele>508.0</ele><time>2026-04-08T09:43:23.109Z</time></trkpt><trkpt lat="44.6147533" lon="9.321345"><ele>505.0</ele><time>2026-04-08T09:43:24.109Z</time></trkpt><trkpt lat="44.614605" lon="9.3212817"><ele>502.0</ele><time>2026-04-08T09:43:25.109Z</time></trkpt><trkpt lat="44.614425" lon="9.3212717"><ele>502.0</ele><time>2026-04-08T09:43:26.109Z</time></trkpt><trkpt lat="44.6142033" lon="9.3213133"><ele>502.0</ele><time>2026-04-08T09:43:27.108Z</time></trkpt><trkpt lat="44.6139733" lon="9.3213633"><ele>509.5</ele><time>2026-04-08T09:43:28.109Z</time></trkpt><trkpt lat="44.61375" lon="9.3214233"><ele>517.0</ele><time>2026-04-08T09:43:29.109Z</time></trkpt><trkpt lat="44.6135317" lon="9.3214883"><ele>517.0</ele><time>2026-04-08T09:43:30.109Z</time></trkpt><trkpt lat="44.6133533" lon="9.3215417"><ele>517.0</ele><time>2026-04-08T09:43:31.109Z</time></trkpt><trkpt lat="44.6131933" lon="9.3215783"><ele>517.0</ele><time>2026-04-08T09:43:32.108Z</time></trkpt><trkpt lat="44.6130633" lon="9.3215733"><ele>517.0</ele><time>2026-04-08T09:43:33.109Z</time></trkpt><trkpt lat="44.6129733" lon="9.3214967"><ele>517.0</ele><time>2026-04-08T09:43:34.109Z</time></trkpt><trkpt lat="44.6129033" lon="9.32134"><ele>517.0</ele><time>2026-04-08T09:43:35.109Z</time></trkpt><trkpt lat="44.6128783" lon="9.3211017"><ele>517.0</ele><time>2026-04-08T09:43:36.109Z</time></trkpt><trkpt lat="44.6128317" lon="9.320875"><ele>519.0</ele><time>2026-04-08T09:43:37.109Z</time></trkpt><trkpt lat="44.612765" lon="9.3206717"><ele>521.0</ele><time>2026-04-08T09:43:38.109Z</time></trkpt><trkpt lat="44.6126617" lon="9.3204717"><ele>523.0</ele><time>2026-04-08T09:43:39.108Z</time></trkpt><trkpt lat="44.612505" lon="9.32028"><ele>517.0</ele><time>2026-04-08T09:43:40.108Z</time></trkpt><trkpt lat="44.6123117" lon="9.32013"><ele>511.0</ele><time>2026-04-08T09:43:41.109Z</time></trkpt><trkpt lat="44.6121417" lon="9.31999"><ele>505.0</ele><time>2026-04-08T09:43:42.109Z</time></trkpt><trkpt lat="44.6120083" lon="9.3198633"><ele>505.0</ele><time>2026-04-08T09:43:43.109Z</time></trkpt><trkpt lat="44.6119133" lon="9.3197317"><ele>505.0</ele><time>2026-04-08T09:43:44.109Z</time></trkpt><trkpt lat="44.6118617" lon="9.3195633"><ele>505.0</ele><time>2026-04-08T09:43:45.109Z</time></trkpt><trkpt lat="44.6118467" lon="9.3193683"><ele>505.0</ele><time>2026-04-08T09:43:46.109Z</time></trkpt><trkpt lat="44.6118417" lon="9.3191783"><ele>505.0</ele><time>2026-04-08T09:43:47.11Z</time></trkpt><trkpt lat="44.6118233" lon="9.3189933"><ele>505.0</ele><time>2026-04-08T09:43:48.11Z</time></trkpt><trkpt lat="44.6117533" lon="9.3188233"><ele>505.0</ele><time>2026-04-08T09:43:49.109Z</time></trkpt><trkpt lat="44.611615" lon="9.3186783"><ele>505.0</ele><time>2026-04-08T09:43:50.11Z</time></trkpt><trkpt lat="44.6114683" lon="9.3185167"><ele>504.6666666666667</ele><time>2026-04-08T09:43:51.109Z</time></trkpt><trkpt lat="44.6113217" lon="9.3183667"><ele>504.33333333333337</ele><time>2026-04-08T09:43:52.11Z</time></trkpt><trkpt lat="44.6111683" lon="9.3182517"><ele>504.0</ele><time>2026-04-08T09:43:53.11Z</time></trkpt><trkpt lat="44.6110333" lon="9.3181633"><ele>504.0</ele><time>2026-04-08T09:43:54.11Z</time></trkpt><trkpt lat="44.6109217" lon="9.318085"><ele>504.0</ele><time>2026-04-08T09:43:55.109Z</time></trkpt><trkpt lat="44.6108317" lon="9.3180083"><ele>504.0</ele><time>2026-04-08T09:43:56.11Z</time></trkpt><trkpt lat="44.6107683" lon="9.3179083"><ele>504.0</ele><time>2026-04-08T09:43:57.109Z</time></trkpt><trkpt lat="44.610735" lon="9.3177867"><ele>504.0</ele><time>2026-04-08T09:43:58.109Z</time></trkpt><trkpt lat="44.6107317" lon="9.3176383"><ele>506.0</ele><time>2026-04-08T09:43:59.11Z</time></trkpt><trkpt lat="44.6107383" lon="9.31747"><ele>508.0</ele><time>2026-04-08T09:44:00.109Z</time></trkpt><trkpt lat="44.6107367" lon="9.3172983"><ele>510.0</ele><time>2026-04-08T09:44:01.11Z</time></trkpt><trkpt lat="44.6107267" lon="9.3171233"><ele>512.0</ele><time>2026-04-08T09:44:02.11Z</time></trkpt><trkpt lat="44.61072" lon="9.3169433"><ele>513.25</ele><time>2026-04-08T09:44:03.109Z</time></trkpt><trkpt lat="44.6107283" lon="9.316765"><ele>514.5</ele><time>2026-04-08T09:44:04.109Z</time></trkpt><trkpt lat="44.6107533" lon="9.3165633"><ele>515.75</ele><time>2026-04-08T09:44:05.11Z</time></trkpt><trkpt lat="44.61079" lon="9.3163567"><ele>517.0</ele><time>2026-04-08T09:44:06.11Z</time></trkpt><trkpt lat="44.6108083" lon="9.3161167"><ele>517.5</ele><time>2026-04-08T09:44:07.11Z</time></trkpt><trkpt lat="44.6107783" lon="9.3158167"><ele>518.0</ele><time>2026-04-08T09:44:08.11Z</time></trkpt><trkpt lat="44.61071" lon="9.315485"><ele>518.5</ele><time>2026-04-08T09:44:09.11Z</time></trkpt><trkpt lat="44.6106333" lon="9.3151617"><ele>519.0</ele><time>2026-04-08T09:44:10.11Z</time></trkpt><trkpt lat="44.610545" lon="9.314835"><ele>521.6666666666666</ele><time>2026-04-08T09:44:11.109Z</time></trkpt><trkpt lat="44.61048" lon="9.31453"><ele>524.3333333333333</ele><time>2026-04-08T09:44:12.11Z</time></trkpt><trkpt lat="44.6104617" lon="9.3142267"><ele>527.0</ele><time>2026-04-08T09:44:13.11Z</time></trkpt><trkpt lat="44.6104567" lon="9.3138967"><ele>527.0</ele><time>2026-04-08T09:44:14.11Z</time></trkpt><trkpt lat="44.6104383" lon="9.3135617"><ele>527.0</ele><time>2026-04-08T09:44:15.11Z</time></trkpt><trkpt lat="44.6104117" lon="9.3132217"><ele>529.3333333333333</ele><time>2026-04-08T09:44:16.11Z</time></trkpt><trkpt lat="44.6103567" lon="9.312915"><ele>531.6666666666666</ele><time>2026-04-08T09:44:17.109Z</time></trkpt><trkpt lat="44.6102783" lon="9.31264"><ele>534.0</ele><time>2026-04-08T09:44:18.11Z</time></trkpt><trkpt lat="44.6102017" lon="9.3123933"><ele>526.3333333333334</ele><time>2026-04-08T09:44:19.11Z</time></trkpt><trkpt lat="44.6101233" lon="9.3121617"><ele>518.6666666666667</ele><time>2026-04-08T09:44:20.11Z</time></trkpt><trkpt lat="44.6100767" lon="9.3119617"><ele>511.0</ele><time>2026-04-08T09:44:21.11Z</time></trkpt><trkpt lat="44.6100683" lon="9.3117717"><ele>511.0</ele><time>2026-04-08T09:44:22.109Z</time></trkpt><trkpt lat="44.610095" lon="9.3115733"><ele>511.0</ele><time>2026-04-08T09:44:23.11Z</time></trkpt><trkpt lat="44.6101617" lon="9.3113783"><ele>511.0</ele><time>2026-04-08T09:44:24.11Z</time></trkpt><trkpt lat="44.610265" lon="9.31118"><ele>512.3333333333334</ele><time>2026-04-08T09:44:25.11Z</time></trkpt><trkpt lat="44.6103967" lon="9.31096"><ele>513.6666666666666</ele><time>2026-04-08T09:44:26.109Z</time></trkpt><trkpt lat="44.6105483" lon="9.3107333"><ele>515.0</ele><time>2026-04-08T09:44:27.11Z</time></trkpt><trkpt lat="44.6107167" lon="9.3105183"><ele>515.0</ele><time>2026-04-08T09:44:28.11Z</time></trkpt><trkpt lat="44.6108617" lon="9.3103083"><ele>515.0</ele><time>2026-04-08T09:44:29.11Z</time></trkpt><trkpt lat="44.6109817" lon="9.31013"><ele>515.0</ele><time>2026-04-08T09:44:30.11Z</time></trkpt><trkpt lat="44.6110933" lon="9.3099433"><ele>514.6666666666666</ele><time>2026-04-08T09:44:31.11Z</time></trkpt><trkpt lat="44.611145" lon="9.3097067"><ele>514.3333333333334</ele><time>2026-04-08T09:44:32.11Z</time></trkpt><trkpt lat="44.6111867" lon="9.30947"><ele>514.0</ele><time>2026-04-08T09:44:33.109Z</time></trkpt><trkpt lat="44.6112167" lon="9.3092417"><ele>514.0</ele><time>2026-04-08T09:44:34.109Z</time></trkpt><trkpt lat="44.611255" lon="9.30905"><ele>514.0</ele><time>2026-04-08T09:44:35.11Z</time></trkpt><trkpt lat="44.61127" lon="9.3088683"><ele>514.0</ele><time>2026-04-08T09:44:36.11Z</time></trkpt><trkpt lat="44.6112333" lon="9.3086933"><ele>514.0</ele><time>2026-04-08T09:44:37.11Z</time></trkpt><trkpt lat="44.6111017" lon="9.3084983"><ele>514.0</ele><time>2026-04-08T09:44:38.11Z</time></trkpt><trkpt lat="44.6109867" lon="9.308295"><ele>514.0</ele><time>2026-04-08T09:44:39.11Z</time></trkpt><trkpt lat="44.610845" lon="9.3080883"><ele>514.0</ele><time>2026-04-08T09:44:40.11Z</time></trkpt><trkpt lat="44.6107217" lon="9.3079017"><ele>517.0</ele><time>2026-04-08T09:44:41.11Z</time></trkpt><trkpt lat="44.6106267" lon="9.307715"><ele>520.0</ele><time>2026-04-08T09:44:42.11Z</time></trkpt><trkpt lat="44.61058" lon="9.30752"><ele>523.0</ele><time>2026-04-08T09:44:43.11Z</time></trkpt><trkpt lat="44.6105683" lon="9.3073233"><ele>526.0</ele><time>2026-04-08T09:44:44.11Z</time></trkpt><trkpt lat="44.6105483" lon="9.3071367"><ele>529.0</ele><time>2026-04-08T09:44:45.11Z</time></trkpt><trkpt lat="44.6105" lon="9.3069583"><ele>532.0</ele><time>2026-04-08T09:44:46.109Z</time></trkpt><trkpt lat="44.6104133" lon="9.3067967"><ele>535.0</ele><time>2026-04-08T09:44:47.11Z</time></trkpt><trkpt lat="44.61026" lon="9.306685"><ele>535.0</ele><time>2026-04-08T09:44:48.11Z</time></trkpt><trkpt lat="44.6101067" lon="9.3065933"><ele>535.0</ele><time>2026-04-08T09:44:49.11Z</time></trkpt><trkpt lat="44.6099233" lon="9.3065583"><ele>535.0</ele><time>2026-04-08T09:44:50.11Z</time></trkpt><trkpt lat="44.6096967" lon="9.30658"><ele>532.5</ele><time>2026-04-08T09:44:51.11Z</time></trkpt><trkpt lat="44.609405" lon="9.3066933"><ele>530.0</ele><time>2026-04-08T09:44:52.11Z</time></trkpt><trkpt lat="44.6091417" lon="9.3067983"><ele>530.0</ele><time>2026-04-08T09:44:53.109Z</time></trkpt><trkpt lat="44.6089117" lon="9.3068967"><ele>530.0</ele><time>2026-04-08T09:44:54.11Z</time></trkpt><trkpt lat="44.6087283" lon="9.3069667"><ele>530.0</ele><time>2026-04-08T09:44:55.11Z</time></trkpt><trkpt lat="44.6085517" lon="9.3070083"><ele>529.3333333333333</ele><time>2026-04-08T09:44:56.109Z</time></trkpt><trkpt lat="44.60836" lon="9.3070167"><ele>528.6666666666666</ele><time>2026-04-08T09:44:57.11Z</time></trkpt><trkpt lat="44.60816" lon="9.307005"><ele>528.0</ele><time>2026-04-08T09:44:58.109Z</time></trkpt><trkpt lat="44.6079583" lon="9.3069983"><ele>527.3333333333334</ele><time>2026-04-08T09:44:59.11Z</time></trkpt><trkpt lat="44.6077667" lon="9.306995"><ele>526.6666666666667</ele><time>2026-04-08T09:45:00.11Z</time></trkpt><trkpt lat="44.6075933" lon="9.306985"><ele>526.0</ele><time>2026-04-08T09:45:01.11Z</time></trkpt><trkpt lat="44.60743" lon="9.30694"><ele>526.0</ele><time>2026-04-08T09:45:02.109Z</time></trkpt><trkpt lat="44.607265" lon="9.306855"><ele>526.0</ele><time>2026-04-08T09:45:03.11Z</time></trkpt><trkpt lat="44.6071183" lon="9.30671"><ele>526.0</ele><time>2026-04-08T09:45:04.11Z</time></trkpt><trkpt lat="44.60698" lon="9.3065483"><ele>526.3333333333334</ele><time>2026-04-08T09:45:05.11Z</time></trkpt><trkpt lat="44.606875" lon="9.306355"><ele>526.6666666666666</ele><time>2026-04-08T09:45:06.11Z</time></trkpt><trkpt lat="44.6068033" lon="9.3061133"><ele>527.0</ele><time>2026-04-08T09:45:07.11Z</time></trkpt><trkpt lat="44.606745" lon="9.3058367"><ele>527.0</ele><time>2026-04-08T09:45:08.11Z</time></trkpt><trkpt lat="44.6067083" lon="9.3055367"><ele>527.0</ele><time>2026-04-08T09:45:09.109Z</time></trkpt><trkpt lat="44.6066817" lon="9.305265"><ele>527.0</ele><time>2026-04-08T09:45:10.11Z</time></trkpt><trkpt lat="44.6066683" lon="9.30501"><ele>527.0</ele><time>2026-04-08T09:45:11.11Z</time></trkpt><trkpt lat="44.60666" lon="9.304795"><ele>527.0</ele><time>2026-04-08T09:45:12.11Z</time></trkpt><trkpt lat="44.6066883" lon="9.3046033"><ele>527.0</ele><time>2026-04-08T09:45:13.11Z</time></trkpt><trkpt lat="44.606765" lon="9.3044383"><ele>527.0</ele><time>2026-04-08T09:45:14.11Z</time></trkpt><trkpt lat="44.6068683" lon="9.3043067"><ele>529.0</ele><time>2026-04-08T09:45:15.11Z</time></trkpt><trkpt lat="44.6069967" lon="9.3042317"><ele>531.0</ele><time>2026-04-08T09:45:16.11Z</time></trkpt><trkpt lat="44.6071867" lon="9.3042233"><ele>533.0</ele><time>2026-04-08T09:45:17.11Z</time></trkpt><trkpt lat="44.607385" lon="9.304165"><ele>533.0</ele><time>2026-04-08T09:45:18.109Z</time></trkpt><trkpt lat="44.6075917" lon="9.30404"><ele>533.0</ele><time>2026-04-08T09:45:19.11Z</time></trkpt><trkpt lat="44.6077933" lon="9.3038717"><ele>533.5</ele><time>2026-04-08T09:45:20.11Z</time></trkpt><trkpt lat="44.6079733" lon="9.3036667"><ele>534.0</ele><time>2026-04-08T09:45:21.11Z</time></trkpt><trkpt lat="44.6081433" lon="9.3034583"><ele>534.0</ele><time>2026-04-08T09:45:22.11Z</time></trkpt><trkpt lat="44.6082733" lon="9.3032217"><ele>534.0</ele><time>2026-04-08T09:45:23.11Z</time></trkpt><trkpt lat="44.6083817" lon="9.3029917"><ele>534.0</ele><time>2026-04-08T09:45:24.11Z</time></trkpt><trkpt lat="44.6084633" lon="9.3027733"><ele>533.3333333333334</ele><time>2026-04-08T09:45:25.11Z</time></trkpt><trkpt lat="44.60851" lon="9.30255"><ele>532.6666666666667</ele><time>2026-04-08T09:45:26.11Z</time></trkpt><trkpt lat="44.6085267" lon="9.3023133"><ele>532.0</ele><time>2026-04-08T09:45:27.11Z</time></trkpt><trkpt lat="44.6085133" lon="9.3020483"><ele>532.5</ele><time>2026-04-08T09:45:28.109Z</time></trkpt><trkpt lat="44.608435" lon="9.3017017"><ele>533.0</ele><time>2026-04-08T09:45:29.109Z</time></trkpt><trkpt lat="44.6083967" lon="9.301365"><ele>533.0</ele><time>2026-04-08T09:45:30.11Z</time></trkpt><trkpt lat="44.60837" lon="9.3010217"><ele>533.0</ele><time>2026-04-08T09:45:31.11Z</time></trkpt><trkpt lat="44.60836" lon="9.3006633"><ele>537.0</ele><time>2026-04-08T09:45:32.11Z</time></trkpt><trkpt lat="44.6083483" lon="9.300295"><ele>541.0</ele><time>2026-04-08T09:45:33.11Z</time></trkpt><trkpt lat="44.6083233" lon="9.2999183"><ele>544.0</ele><time>2026-04-08T09:45:34.11Z</time></trkpt><trkpt lat="44.6082583" lon="9.2995433"><ele>547.0</ele><time>2026-04-08T09:45:35.11Z</time></trkpt><trkpt lat="44.6082067" lon="9.2991867"><ele>549.0</ele><time>2026-04-08T09:45:36.11Z</time></trkpt><trkpt lat="44.60815" lon="9.2988633"><ele>551.0</ele><time>2026-04-08T09:45:37.109Z</time></trkpt><trkpt lat="44.6081083" lon="9.2985767"><ele>553.0</ele><time>2026-04-08T09:45:38.11Z</time></trkpt><trkpt lat="44.6080633" lon="9.2983283"><ele>553.0</ele><time>2026-04-08T09:45:39.11Z</time></trkpt><trkpt lat="44.6079967" lon="9.2981133"><ele>553.0</ele><time>2026-04-08T09:45:40.109Z</time></trkpt><trkpt lat="44.6078717" lon="9.2979617"><ele>553.0</ele><time>2026-04-08T09:45:41.11Z</time></trkpt><trkpt lat="44.60772" lon="9.29786"><ele>546.6666666666667</ele><time>2026-04-08T09:45:42.11Z</time></trkpt><trkpt lat="44.607565" lon="9.2977583"><ele>540.3333333333334</ele><time>2026-04-08T09:45:43.11Z</time></trkpt><trkpt lat="44.6074183" lon="9.29763"><ele>534.0</ele><time>2026-04-08T09:45:44.11Z</time></trkpt><trkpt lat="44.6072917" lon="9.2974683"><ele>534.0</ele><time>2026-04-08T09:45:45.11Z</time></trkpt><trkpt lat="44.6071683" lon="9.29728"><ele>534.0</ele><time>2026-04-08T09:45:46.11Z</time></trkpt><trkpt lat="44.60706" lon="9.2970833"><ele>534.0</ele><time>2026-04-08T09:45:47.11Z</time></trkpt><trkpt lat="44.6069483" lon="9.2968983"><ele>532.6666666666666</ele><time>2026-04-08T09:45:48.109Z</time></trkpt><trkpt lat="44.6068617" lon="9.2967067"><ele>531.3333333333333</ele><time>2026-04-08T09:45:49.11Z</time></trkpt><trkpt lat="44.6068083" lon="9.2964983"><ele>530.0</ele><time>2026-04-08T09:45:50.11Z</time></trkpt><trkpt lat="44.606765" lon="9.29628"><ele>530.0</ele><time>2026-04-08T09:45:51.11Z</time></trkpt><trkpt lat="44.6066967" lon="9.2960667"><ele>530.0</ele><time>2026-04-08T09:45:52.11Z</time></trkpt><trkpt lat="44.606595" lon="9.2958567"><ele>530.0</ele><time>2026-04-08T09:45:53.11Z</time></trkpt><trkpt lat="44.6064867" lon="9.2956317"><ele>529.6666666666666</ele><time>2026-04-08T09:45:54.109Z</time></trkpt><trkpt lat="44.6063783" lon="9.2954"><ele>529.3333333333334</ele><time>2026-04-08T09:45:55.11Z</time></trkpt><trkpt lat="44.6062683" lon="9.2951667"><ele>529.0</ele><time>2026-04-08T09:45:56.11Z</time></trkpt><trkpt lat="44.6061567" lon="9.2949367"><ele>527.3333333333334</ele><time>2026-04-08T09:45:57.11Z</time></trkpt><trkpt lat="44.6060433" lon="9.2947067"><ele>525.6666666666666</ele><time>2026-04-08T09:45:58.11Z</time></trkpt><trkpt lat="44.6059333" lon="9.2944783"><ele>524.0</ele><time>2026-04-08T09:45:59.11Z</time></trkpt><trkpt lat="44.6058333" lon="9.2942517"><ele>524.0</ele><time>2026-04-08T09:46:00.11Z</time></trkpt><trkpt lat="44.6057317" lon="9.2940417"><ele>524.0</ele><time>2026-04-08T09:46:01.11Z</time></trkpt><trkpt lat="44.605635" lon="9.29384"><ele>524.0</ele><time>2026-04-08T09:46:02.11Z</time></trkpt><trkpt lat="44.6055417" lon="9.2936533"><ele>524.0</ele><time>2026-04-08T09:46:03.11Z</time></trkpt><trkpt lat="44.6054583" lon="9.293475"><ele>524.0</ele><time>2026-04-08T09:46:04.11Z</time></trkpt><trkpt lat="44.6053783" lon="9.293305"><ele>524.0</ele><time>2026-04-08T09:46:05.11Z</time></trkpt><trkpt lat="44.6053033" lon="9.293145"><ele>524.0</ele><time>2026-04-08T09:46:06.109Z</time></trkpt><trkpt lat="44.6052233" lon="9.292995"><ele>524.25</ele><time>2026-04-08T09:46:07.11Z</time></trkpt><trkpt lat="44.6051517" lon="9.292865"><ele>524.5</ele><time>2026-04-08T09:46:08.11Z</time></trkpt><trkpt lat="44.6050917" lon="9.29274"><ele>524.75</ele><time>2026-04-08T09:46:09.11Z</time></trkpt><trkpt lat="44.6050333" lon="9.2926083"><ele>525.0</ele><time>2026-04-08T09:46:10.11Z</time></trkpt><trkpt lat="44.60497" lon="9.2924683"><ele>525.0</ele><time>2026-04-08T09:46:11.11Z</time></trkpt><trkpt lat="44.6049067" lon="9.2923283"><ele>525.0</ele><time>2026-04-08T09:46:12.11Z</time></trkpt><trkpt lat="44.6048333" lon="9.2921867"><ele>525.0</ele><time>2026-04-08T09:46:13.11Z</time></trkpt><trkpt lat="44.604755" lon="9.2920583"><ele>525.0</ele><time>2026-04-08T09:46:14.11Z</time></trkpt><trkpt lat="44.6046583" lon="9.291945"><ele>525.0</ele><time>2026-04-08T09:46:15.11Z</time></trkpt><trkpt lat="44.6045567" lon="9.2918583"><ele>525.0</ele><time>2026-04-08T09:46:16.11Z</time></trkpt><trkpt lat="44.60448" lon="9.2918"><ele>525.0</ele><time>2026-04-08T09:46:17.109Z</time></trkpt><trkpt lat="44.6043667" lon="9.2917933"><ele>525.0</ele><time>2026-04-08T09:46:19.11Z</time></trkpt><trkpt lat="44.6044617" lon="9.2918633"><ele>525.0</ele><time>2026-04-08T09:50:29.11Z</time></trkpt><trkpt lat="44.604565" lon="9.2919183"><ele>525.0</ele><time>2026-04-08T09:51:05.11Z</time></trkpt><trkpt lat="44.6046233" lon="9.29197"><ele>525.0</ele><time>2026-04-08T09:51:06.11Z</time></trkpt><trkpt lat="44.6046933" lon="9.2920483"><ele>525.0</ele><time>2026-04-08T09:51:07.11Z</time></trkpt><trkpt lat="44.6047683" lon="9.292145"><ele>525.0</ele><time>2026-04-08T09:51:08.11Z</time></trkpt><trkpt lat="44.6048433" lon="9.2922517"><ele>525.0</ele><time>2026-04-08T09:51:09.11Z</time></trkpt><trkpt lat="44.604915" lon="9.292375"><ele>525.0</ele><time>2026-04-08T09:51:10.11Z</time></trkpt><trkpt lat="44.6049867" lon="9.2925083"><ele>525.0</ele><time>2026-04-08T09:51:11.11Z</time></trkpt><trkpt lat="44.60506" lon="9.2926517"><ele>525.0</ele><time>2026-04-08T09:51:12.11Z</time></trkpt><trkpt lat="44.6051383" lon="9.2927983"><ele>525.0</ele><time>2026-04-08T09:51:13.109Z</time></trkpt><trkpt lat="44.6052133" lon="9.29296"><ele>524.6666666666666</ele><time>2026-04-08T09:51:14.11Z</time></trkpt><trkpt lat="44.605305" lon="9.2931283"><ele>524.3333333333333</ele><time>2026-04-08T09:51:15.109Z</time></trkpt><trkpt lat="44.6053983" lon="9.293315"><ele>524.0</ele><time>2026-04-08T09:51:16.11Z</time></trkpt><trkpt lat="44.6055083" lon="9.2935183"><ele>524.0</ele><time>2026-04-08T09:51:17.11Z</time></trkpt><trkpt lat="44.6056183" lon="9.293755"><ele>524.0</ele><time>2026-04-08T09:51:18.11Z</time></trkpt><trkpt lat="44.6057333" lon="9.2939817"><ele>524.0</ele><time>2026-04-08T09:51:19.11Z</time></trkpt><trkpt lat="44.6058383" lon="9.2941967"><ele>524.0</ele><time>2026-04-08T09:51:20.109Z</time></trkpt><trkpt lat="44.60593" lon="9.29439"><ele>524.0</ele><time>2026-04-08T09:51:21.11Z</time></trkpt><trkpt lat="44.6060117" lon="9.29458"><ele>524.0</ele><time>2026-04-08T09:51:22.11Z</time></trkpt><trkpt lat="44.606095" lon="9.2947467"><ele>525.6666666666666</ele><time>2026-04-08T09:51:23.109Z</time></trkpt><trkpt lat="44.6061817" lon="9.2949067"><ele>527.3333333333334</ele><time>2026-04-08T09:51:24.11Z</time></trkpt><trkpt lat="44.6062667" lon="9.2950783"><ele>529.0</ele><time>2026-04-08T09:51:25.11Z</time></trkpt><trkpt lat="44.60636" lon="9.2952617"><ele>529.0</ele><time>2026-04-08T09:51:26.11Z</time></trkpt><trkpt lat="44.606455" lon="9.295455"><ele>529.0</ele><time>2026-04-08T09:51:27.11Z</time></trkpt><trkpt lat="44.606555" lon="9.29565"><ele>529.0</ele><time>2026-04-08T09:51:28.11Z</time></trkpt><trkpt lat="44.60665" lon="9.295855"><ele>529.3333333333334</ele><time>2026-04-08T09:51:29.109Z</time></trkpt><trkpt lat="44.6067433" lon="9.29606"><ele>529.6666666666666</ele><time>2026-04-08T09:51:30.11Z</time></trkpt><trkpt lat="44.606815" lon="9.296285"><ele>530.0</ele><time>2026-04-08T09:51:31.109Z</time></trkpt><trkpt lat="44.6068617" lon="9.29652"><ele>528.6666666666666</ele><time>2026-04-08T09:51:32.11Z</time></trkpt><trkpt lat="44.6069167" lon="9.2967383"><ele>527.3333333333334</ele><time>2026-04-08T09:51:33.11Z</time></trkpt><trkpt lat="44.606995" lon="9.2969383"><ele>526.0</ele><time>2026-04-08T09:51:34.109Z</time></trkpt><trkpt lat="44.60707" lon="9.2971317"><ele>528.0</ele><time>2026-04-08T09:51:35.11Z</time></trkpt><trkpt lat="44.6071467" lon="9.2973017"><ele>530.0</ele><time>2026-04-08T09:51:36.11Z</time></trkpt><trkpt lat="44.6072183" lon="9.2974533"><ele>532.0</ele><time>2026-04-08T09:51:37.11Z</time></trkpt><trkpt lat="44.6072933" lon="9.2975983"><ele>534.0</ele><time>2026-04-08T09:51:38.11Z</time></trkpt><trkpt lat="44.6073733" lon="9.2977383"><ele>534.0</ele><time>2026-04-08T09:51:39.11Z</time></trkpt><trkpt lat="44.6074783" lon="9.29787"><ele>534.0</ele><time>2026-04-08T09:51:40.11Z</time></trkpt><trkpt lat="44.6076033" lon="9.2979867"><ele>534.0</ele><time>2026-04-08T09:51:41.11Z</time></trkpt><trkpt lat="44.60773" lon="9.298085"><ele>534.0</ele><time>2026-04-08T09:51:42.11Z</time></trkpt><trkpt lat="44.6078633" lon="9.2981667"><ele>540.3333333333334</ele><time>2026-04-08T09:51:43.109Z</time></trkpt><trkpt lat="44.6079733" lon="9.298295"><ele>546.6666666666667</ele><time>2026-04-08T09:51:44.11Z</time></trkpt><trkpt lat="44.60808" lon="9.2984633"><ele>553.0</ele><time>2026-04-08T09:51:45.11Z</time></trkpt><trkpt lat="44.608175" lon="9.2986633"><ele>553.0</ele><time>2026-04-08T09:51:46.11Z</time></trkpt><trkpt lat="44.6082567" lon="9.2989017"><ele>553.0</ele><time>2026-04-08T09:51:47.11Z</time></trkpt><trkpt lat="44.60829" lon="9.2992067"><ele>553.0</ele><time>2026-04-08T09:51:48.11Z</time></trkpt><trkpt lat="44.608295" lon="9.2995583"><ele>547.0</ele><time>2026-04-08T09:51:49.109Z</time></trkpt><trkpt lat="44.6083217" lon="9.2998817"><ele>541.0</ele><time>2026-04-08T09:51:50.11Z</time></trkpt><trkpt lat="44.6083383" lon="9.3001883"><ele>541.0</ele><time>2026-04-08T09:51:51.11Z</time></trkpt><trkpt lat="44.6083433" lon="9.3004683"><ele>541.0</ele><time>2026-04-08T09:51:52.11Z</time></trkpt><trkpt lat="44.6083367" lon="9.3007833"><ele>541.0</ele><time>2026-04-08T09:51:53.11Z</time></trkpt><trkpt lat="44.608345" lon="9.3010967"><ele>535.5</ele><time>2026-04-08T09:51:54.11Z</time></trkpt><trkpt lat="44.6083717" lon="9.301425"><ele>530.0</ele><time>2026-04-08T09:51:55.11Z</time></trkpt><trkpt lat="44.6084067" lon="9.3017517"><ele>530.0</ele><time>2026-04-08T09:51:56.109Z</time></trkpt><trkpt lat="44.6084417" lon="9.3020467"><ele>530.0</ele><time>2026-04-08T09:51:57.11Z</time></trkpt><trkpt lat="44.6084667" lon="9.3023083"><ele>530.0</ele><time>2026-04-08T09:51:58.11Z</time></trkpt><trkpt lat="44.6084783" lon="9.3025217"><ele>530.5</ele><time>2026-04-08T09:51:59.11Z</time></trkpt><trkpt lat="44.6084667" lon="9.3027117"><ele>531.0</ele><time>2026-04-08T09:52:00.11Z</time></trkpt><trkpt lat="44.6084383" lon="9.3029017"><ele>531.5</ele><time>2026-04-08T09:52:01.11Z</time></trkpt><trkpt lat="44.608365" lon="9.3031217"><ele>532.0</ele><time>2026-04-08T09:52:02.11Z</time></trkpt><trkpt lat="44.6082567" lon="9.3033517"><ele>532.3333333333334</ele><time>2026-04-08T09:52:03.11Z</time></trkpt><trkpt lat="44.608125" lon="9.30357"><ele>532.6666666666666</ele><time>2026-04-08T09:52:04.11Z</time></trkpt><trkpt lat="44.607965" lon="9.303775"><ele>533.0</ele><time>2026-04-08T09:52:05.11Z</time></trkpt><trkpt lat="44.607785" lon="9.3039567"><ele>533.0</ele><time>2026-04-08T09:52:06.11Z</time></trkpt><trkpt lat="44.6076117" lon="9.3041233"><ele>533.0</ele><time>2026-04-08T09:52:07.11Z</time></trkpt><trkpt lat="44.6074383" lon="9.30426"><ele>533.0</ele><time>2026-04-08T09:52:08.11Z</time></trkpt><trkpt lat="44.6072717" lon="9.304335"><ele>533.0</ele><time>2026-04-08T09:52:09.11Z</time></trkpt><trkpt lat="44.607095" lon="9.3043767"><ele>533.0</ele><time>2026-04-08T09:52:10.11Z</time></trkpt><trkpt lat="44.6069333" lon="9.30443"><ele>533.0</ele><time>2026-04-08T09:52:11.11Z</time></trkpt><trkpt lat="44.606785" lon="9.3045"><ele>531.0</ele><time>2026-04-08T09:52:12.11Z</time></trkpt><trkpt lat="44.6066417" lon="9.3045867"><ele>529.0</ele><time>2026-04-08T09:52:13.11Z</time></trkpt><trkpt lat="44.606515" lon="9.3046867"><ele>527.0</ele><time>2026-04-08T09:52:14.11Z</time></trkpt><trkpt lat="44.606425" lon="9.3048533"><ele>527.0</ele><time>2026-04-08T09:52:15.11Z</time></trkpt><trkpt lat="44.6063533" lon="9.3050683"><ele>527.0</ele><time>2026-04-08T09:52:16.109Z</time></trkpt><trkpt lat="44.6065567" lon="9.30554"><ele>527.0</ele><time>2026-04-08T09:52:17.11Z</time></trkpt><trkpt lat="44.6066967" lon="9.305905"><ele>527.0</ele><time>2026-04-08T09:52:18.11Z</time></trkpt><trkpt lat="44.6068" lon="9.3062167"><ele>526.6666666666666</ele><time>2026-04-08T09:52:19.11Z</time></trkpt><trkpt lat="44.60689" lon="9.30649"><ele>526.3333333333334</ele><time>2026-04-08T09:52:20.11Z</time></trkpt><trkpt lat="44.60702" lon="9.30673"><ele>526.0</ele><time>2026-04-08T09:52:21.109Z</time></trkpt><trkpt lat="44.6071783" lon="9.306915"><ele>526.0</ele><time>2026-04-08T09:52:22.11Z</time></trkpt><trkpt lat="44.6073617" lon="9.307035"><ele>526.0</ele><time>2026-04-08T09:52:23.11Z</time></trkpt><trkpt lat="44.6075783" lon="9.3070783"><ele>526.0</ele><time>2026-04-08T09:52:24.11Z</time></trkpt><trkpt lat="44.6078117" lon="9.307065"><ele>526.6666666666667</ele><time>2026-04-08T09:52:25.11Z</time></trkpt><trkpt lat="44.60802" lon="9.307085"><ele>527.3333333333334</ele><time>2026-04-08T09:52:26.109Z</time></trkpt><trkpt lat="44.60822" lon="9.30712"><ele>528.0</ele><time>2026-04-08T09:52:27.109Z</time></trkpt><trkpt lat="44.6084183" lon="9.3071467"><ele>528.0</ele><time>2026-04-08T09:52:28.11Z</time></trkpt><trkpt lat="44.6086217" lon="9.3071283"><ele>528.0</ele><time>2026-04-08T09:52:29.11Z</time></trkpt><trkpt lat="44.6088317" lon="9.30708"><ele>528.0</ele><time>2026-04-08T09:52:30.109Z</time></trkpt><trkpt lat="44.609045" lon="9.30699"><ele>529.0</ele><time>2026-04-08T09:52:31.109Z</time></trkpt><trkpt lat="44.609275" lon="9.306905"><ele>530.0</ele><time>2026-04-08T09:52:32.11Z</time></trkpt><trkpt lat="44.60951" lon="9.3068417"><ele>531.6666666666666</ele><time>2026-04-08T09:52:33.11Z</time></trkpt><trkpt lat="44.6097317" lon="9.30679"><ele>533.3333333333334</ele><time>2026-04-08T09:52:34.11Z</time></trkpt><trkpt lat="44.609945" lon="9.3067817"><ele>535.0</ele><time>2026-04-08T09:52:35.11Z</time></trkpt><trkpt lat="44.610155" lon="9.3067483"><ele>539.6666666666667</ele><time>2026-04-08T09:52:36.11Z</time></trkpt><trkpt lat="44.6103617" lon="9.30672"><ele>544.3333333333334</ele><time>2026-04-08T09:52:37.11Z</time></trkpt><trkpt lat="44.6105383" lon="9.30682"><ele>549.0</ele><time>2026-04-08T09:52:38.109Z</time></trkpt><trkpt lat="44.6106517" lon="9.306945"><ele>549.0</ele><time>2026-04-08T09:52:39.11Z</time></trkpt><trkpt lat="44.6107067" lon="9.3071167"><ele>549.0</ele><time>2026-04-08T09:52:40.11Z</time></trkpt><trkpt lat="44.6107583" lon="9.3072867"><ele>549.0</ele><time>2026-04-08T09:52:41.11Z</time></trkpt><trkpt lat="44.6108033" lon="9.3074833"><ele>549.0</ele><time>2026-04-08T09:52:42.11Z</time></trkpt><trkpt lat="44.6108533" lon="9.3076883"><ele>540.3333333333334</ele><time>2026-04-08T09:52:43.11Z</time></trkpt><trkpt lat="44.61092" lon="9.3079033"><ele>531.6666666666667</ele><time>2026-04-08T09:52:44.11Z</time></trkpt><trkpt lat="44.6110167" lon="9.3081383"><ele>523.0</ele><time>2026-04-08T09:52:45.11Z</time></trkpt><trkpt lat="44.6110883" lon="9.3083817"><ele>525.6666666666667</ele><time>2026-04-08T09:52:46.11Z</time></trkpt><trkpt lat="44.61115" lon="9.3085833"><ele>528.3333333333334</ele><time>2026-04-08T09:52:47.11Z</time></trkpt><trkpt lat="44.61119" lon="9.3088033"><ele>531.0</ele><time>2026-04-08T09:52:48.11Z</time></trkpt><trkpt lat="44.6112083" lon="9.3090183"><ele>535.6666666666666</ele><time>2026-04-08T09:52:49.11Z</time></trkpt><trkpt lat="44.6111917" lon="9.3092733"><ele>540.3333333333333</ele><time>2026-04-08T09:52:50.109Z</time></trkpt><trkpt lat="44.6111533" lon="9.3095517"><ele>545.0</ele><time>2026-04-08T09:52:51.11Z</time></trkpt><trkpt lat="44.6111067" lon="9.309805"><ele>535.0</ele><time>2026-04-08T09:52:52.11Z</time></trkpt><trkpt lat="44.6110283" lon="9.3100817"><ele>525.0</ele><time>2026-04-08T09:52:53.11Z</time></trkpt><trkpt lat="44.6109233" lon="9.3103383"><ele>515.0</ele><time>2026-04-08T09:52:54.11Z</time></trkpt><trkpt lat="44.6107683" lon="9.31057"><ele>520.3333333333333</ele><time>2026-04-08T09:52:55.11Z</time></trkpt><trkpt lat="44.6106167" lon="9.3107933"><ele>525.6666666666666</ele><time>2026-04-08T09:52:56.11Z</time></trkpt><trkpt lat="44.6104783" lon="9.3110017"><ele>531.0</ele><time>2026-04-08T09:52:57.11Z</time></trkpt><trkpt lat="44.6103517" lon="9.31119"><ele>524.3333333333334</ele><time>2026-04-08T09:52:58.11Z</time></trkpt><trkpt lat="44.6102383" lon="9.3113783"><ele>517.6666666666667</ele><time>2026-04-08T09:52:59.109Z</time></trkpt><trkpt lat="44.6101467" lon="9.3115667"><ele>511.0</ele><time>2026-04-08T09:53:00.11Z</time></trkpt><trkpt lat="44.6100667" lon="9.3117317"><ele>511.0</ele><time>2026-04-08T09:53:01.11Z</time></trkpt><trkpt lat="44.6100367" lon="9.3119383"><ele>511.0</ele><time>2026-04-08T09:53:02.11Z</time></trkpt><trkpt lat="44.61004" lon="9.31215"><ele>511.0</ele><time>2026-04-08T09:53:03.11Z</time></trkpt><trkpt lat="44.6100917" lon="9.312395"><ele>510.5</ele><time>2026-04-08T09:53:04.11Z</time></trkpt><trkpt lat="44.6101867" lon="9.31269"><ele>510.0</ele><time>2026-04-08T09:53:05.11Z</time></trkpt><trkpt lat="44.6102983" lon="9.3130333"><ele>518.5</ele><time>2026-04-08T09:53:06.11Z</time></trkpt><trkpt lat="44.6103633" lon="9.3133783"><ele>527.0</ele><time>2026-04-08T09:53:07.11Z</time></trkpt><trkpt lat="44.6104033" lon="9.3137267"><ele>527.0</ele><time>2026-04-08T09:53:08.11Z</time></trkpt><trkpt lat="44.61042" lon="9.314065"><ele>527.0</ele><time>2026-04-08T09:53:09.11Z</time></trkpt><trkpt lat="44.6104367" lon="9.3143667"><ele>527.0</ele><time>2026-04-08T09:53:10.109Z</time></trkpt><trkpt lat="44.610475" lon="9.3146733"><ele>527.0</ele><time>2026-04-08T09:53:11.109Z</time></trkpt><trkpt lat="44.6105467" lon="9.3149917"><ele>523.0</ele><time>2026-04-08T09:53:12.11Z</time></trkpt><trkpt lat="44.6106333" lon="9.3152967"><ele>519.0</ele><time>2026-04-08T09:53:13.109Z</time></trkpt><trkpt lat="44.61071" lon="9.3155917"><ele>518.6666666666666</ele><time>2026-04-08T09:53:14.109Z</time></trkpt><trkpt lat="44.6107767" lon="9.315875"><ele>518.3333333333333</ele><time>2026-04-08T09:53:15.11Z</time></trkpt><trkpt lat="44.6108117" lon="9.3161283"><ele>518.0</ele><time>2026-04-08T09:53:16.11Z</time></trkpt><trkpt lat="44.6108033" lon="9.316355"><ele>517.75</ele><time>2026-04-08T09:53:17.109Z</time></trkpt><trkpt lat="44.6107883" lon="9.3165617"><ele>517.5</ele><time>2026-04-08T09:53:18.11Z</time></trkpt><trkpt lat="44.6107417" lon="9.3167467"><ele>517.25</ele><time>2026-04-08T09:53:19.11Z</time></trkpt><trkpt lat="44.6107183" lon="9.3169367"><ele>517.0</ele><time>2026-04-08T09:53:20.11Z</time></trkpt><trkpt lat="44.6107317" lon="9.3171467"><ele>515.75</ele><time>2026-04-08T09:53:21.11Z</time></trkpt><trkpt lat="44.6107383" lon="9.3173567"><ele>514.5</ele><time>2026-04-08T09:53:22.11Z</time></trkpt><trkpt lat="44.61074" lon="9.3175617"><ele>513.25</ele><time>2026-04-08T09:53:23.11Z</time></trkpt><trkpt lat="44.61075" lon="9.3177467"><ele>512.0</ele><time>2026-04-08T09:53:24.109Z</time></trkpt><trkpt lat="44.610765" lon="9.3179167"><ele>510.0</ele><time>2026-04-08T09:53:25.11Z</time></trkpt><trkpt lat="44.610795" lon="9.3180683"><ele>508.0</ele><time>2026-04-08T09:53:26.11Z</time></trkpt><trkpt lat="44.6108883" lon="9.3181917"><ele>506.0</ele><time>2026-04-08T09:53:27.11Z</time></trkpt><trkpt lat="44.6110167" lon="9.3183033"><ele>504.0</ele><time>2026-04-08T09:53:28.11Z</time></trkpt><trkpt lat="44.6111717" lon="9.318435"><ele>513.6666666666666</ele><time>2026-04-08T09:53:29.11Z</time></trkpt><trkpt lat="44.61136" lon="9.318585"><ele>523.3333333333333</ele><time>2026-04-08T09:53:30.11Z</time></trkpt><trkpt lat="44.61151" lon="9.318735"><ele>533.0</ele><time>2026-04-08T09:53:31.11Z</time></trkpt><trkpt lat="44.6116317" lon="9.3188667"><ele>526.0</ele><time>2026-04-08T09:53:32.11Z</time></trkpt><trkpt lat="44.6117233" lon="9.3190033"><ele>519.0</ele><time>2026-04-08T09:53:33.11Z</time></trkpt><trkpt lat="44.6118233" lon="9.3191067"><ele>512.0</ele><time>2026-04-08T09:53:34.11Z</time></trkpt><trkpt lat="44.611845" lon="9.31931"><ele>505.0</ele><time>2026-04-08T09:53:35.11Z</time></trkpt><trkpt lat="44.6118533" lon="9.3195017"><ele>505.0</ele><time>2026-04-08T09:53:36.11Z</time></trkpt><trkpt lat="44.61187" lon="9.3196817"><ele>505.0</ele><time>2026-04-08T09:53:37.109Z</time></trkpt><trkpt lat="44.6119033" lon="9.319865"><ele>505.0</ele><time>2026-04-08T09:53:38.11Z</time></trkpt><trkpt lat="44.6119983" lon="9.3200267"><ele>505.0</ele><time>2026-04-08T09:53:39.11Z</time></trkpt><trkpt lat="44.6121517" lon="9.3201683"><ele>505.0</ele><time>2026-04-08T09:53:40.11Z</time></trkpt><trkpt lat="44.6123517" lon="9.3203133"><ele>505.0</ele><time>2026-04-08T09:53:41.11Z</time></trkpt><trkpt lat="44.6125533" lon="9.320455"><ele>504.0</ele><time>2026-04-08T09:53:42.11Z</time></trkpt><trkpt lat="44.6126967" lon="9.3206217"><ele>503.0</ele><time>2026-04-08T09:53:43.11Z</time></trkpt><trkpt lat="44.6128183" lon="9.3207933"><ele>502.0</ele><time>2026-04-08T09:53:44.11Z</time></trkpt><trkpt lat="44.6129133" lon="9.3209817"><ele>502.0</ele><time>2026-04-08T09:53:45.109Z</time></trkpt><trkpt lat="44.6129667" lon="9.3212017"><ele>502.0</ele><time>2026-04-08T09:53:46.11Z</time></trkpt><trkpt lat="44.6130083" lon="9.32139"><ele>502.0</ele><time>2026-04-08T09:53:47.11Z</time></trkpt><trkpt lat="44.6130583" lon="9.321535"><ele>502.0</ele><time>2026-04-08T09:53:48.11Z</time></trkpt><trkpt lat="44.6131217" lon="9.3216533"><ele>507.0</ele><time>2026-04-08T09:53:49.11Z</time></trkpt><trkpt lat="44.6132117" lon="9.3217317"><ele>512.0</ele><time>2026-04-08T09:53:50.11Z</time></trkpt><trkpt lat="44.61348" lon="9.3216617"><ele>517.0</ele><time>2026-04-08T09:53:51.11Z</time></trkpt><trkpt lat="44.6136917" lon="9.321615"><ele>519.0</ele><time>2026-04-08T09:53:52.11Z</time></trkpt><trkpt lat="44.6139383" lon="9.321525"><ele>521.0</ele><time>2026-04-08T09:53:53.11Z</time></trkpt><trkpt lat="44.614165" lon="9.3214717"><ele>521.0</ele><time>2026-04-08T09:53:54.109Z</time></trkpt><trkpt lat="44.6143833" lon="9.3214183"><ele>521.0</ele><time>2026-04-08T09:53:55.109Z</time></trkpt><trkpt lat="44.614575" lon="9.3214017"><ele>521.0</ele><time>2026-04-08T09:53:56.11Z</time></trkpt><trkpt lat="44.6147467" lon="9.3214283"><ele>517.6666666666666</ele><time>2026-04-08T09:53:57.109Z</time></trkpt><trkpt lat="44.6149083" lon="9.3214817"><ele>514.3333333333334</ele><time>2026-04-08T09:53:58.11Z</time></trkpt><trkpt lat="44.6150733" lon="9.3216417"><ele>511.0</ele><time>2026-04-08T09:53:59.11Z</time></trkpt><trkpt lat="44.6152433" lon="9.32178"><ele>510.33333333333337</ele><time>2026-04-08T09:54:00.11Z</time></trkpt><trkpt lat="44.6154483" lon="9.3218667"><ele>509.66666666666663</ele><time>2026-04-08T09:54:01.11Z</time></trkpt><trkpt lat="44.61567" lon="9.3219133"><ele>509.0</ele><time>2026-04-08T09:54:02.11Z</time></trkpt><trkpt lat="44.61591" lon="9.3218967"><ele>509.0</ele><time>2026-04-08T09:54:03.109Z</time></trkpt><trkpt lat="44.6161317" lon="9.3218833"><ele>509.0</ele><time>2026-04-08T09:54:04.11Z</time></trkpt><trkpt lat="44.6163433" lon="9.3218317"><ele>509.0</ele><time>2026-04-08T09:54:05.11Z</time></trkpt><trkpt lat="44.61654" lon="9.3218083"><ele>506.66666666666663</ele><time>2026-04-08T09:54:06.11Z</time></trkpt><trkpt lat="44.6167267" lon="9.3218417"><ele>504.33333333333337</ele><time>2026-04-08T09:54:07.11Z</time></trkpt><trkpt lat="44.6169183" lon="9.3219083"><ele>502.0</ele><time>2026-04-08T09:54:08.109Z</time></trkpt><trkpt lat="44.6171217" lon="9.3219733"><ele>496.0</ele><time>2026-04-08T09:54:09.11Z</time></trkpt><trkpt lat="44.6173233" lon="9.3220883"><ele>490.0</ele><time>2026-04-08T09:54:10.11Z</time></trkpt><trkpt lat="44.6174883" lon="9.32232"><ele>490.0</ele><time>2026-04-08T09:54:11.109Z</time></trkpt><trkpt lat="44.6176483" lon="9.3226167"><ele>490.0</ele><time>2026-04-08T09:54:12.109Z</time></trkpt><trkpt lat="44.61781" lon="9.3229383"><ele>494.5</ele><time>2026-04-08T09:54:13.11Z</time></trkpt><trkpt lat="44.6180067" lon="9.32323"><ele>499.0</ele><time>2026-04-08T09:54:14.11Z</time></trkpt><trkpt lat="44.6182317" lon="9.3235367"><ele>499.0</ele><time>2026-04-08T09:54:15.11Z</time></trkpt><trkpt lat="44.6184683" lon="9.3238533"><ele>499.0</ele><time>2026-04-08T09:54:16.11Z</time></trkpt><trkpt lat="44.6187183" lon="9.324175"><ele>501.5</ele><time>2026-04-08T09:54:17.11Z</time></trkpt><trkpt lat="44.6189817" lon="9.3244967"><ele>504.0</ele><time>2026-04-08T09:54:18.11Z</time></trkpt><trkpt lat="44.6192267" lon="9.3248533"><ele>498.0</ele><time>2026-04-08T09:54:19.11Z</time></trkpt><trkpt lat="44.6194817" lon="9.3251917"><ele>492.0</ele><time>2026-04-08T09:54:20.11Z</time></trkpt><trkpt lat="44.6197167" lon="9.325515"><ele>490.0</ele><time>2026-04-08T09:54:21.109Z</time></trkpt><trkpt lat="44.6199433" lon="9.325815"><ele>488.0</ele><time>2026-04-08T09:54:22.11Z</time></trkpt><trkpt lat="44.6201483" lon="9.3261233"><ele>486.0</ele><time>2026-04-08T09:54:23.11Z</time></trkpt><trkpt lat="44.62036" lon="9.3264133"><ele>484.0</ele><time>2026-04-08T09:54:24.109Z</time></trkpt><trkpt lat="44.6205383" lon="9.326755"><ele>484.0</ele><time>2026-04-08T09:54:25.11Z</time></trkpt><trkpt lat="44.6207083" lon="9.327115"><ele>484.0</ele><time>2026-04-08T09:54:26.11Z</time></trkpt><trkpt lat="44.6208783" lon="9.327495"><ele>483.5</ele><time>2026-04-08T09:54:27.11Z</time></trkpt><trkpt lat="44.6210433" lon="9.3279"><ele>483.0</ele><time>2026-04-08T09:54:28.11Z</time></trkpt><trkpt lat="44.6211983" lon="9.3283033"><ele>484.5</ele><time>2026-04-08T09:54:29.11Z</time></trkpt><trkpt lat="44.6213483" lon="9.328685"><ele>486.0</ele><time>2026-04-08T09:54:30.11Z</time></trkpt><trkpt lat="44.6215083" lon="9.3290367"><ele>486.0</ele><time>2026-04-08T09:54:31.11Z</time></trkpt><trkpt lat="44.621685" lon="9.3293717"><ele>486.0</ele><time>2026-04-08T09:54:32.11Z</time></trkpt><trkpt lat="44.6218617" lon="9.3296867"><ele>484.5</ele><time>2026-04-08T09:54:33.11Z</time></trkpt><trkpt lat="44.6220683" lon="9.329965"><ele>483.0</ele><time>2026-04-08T09:54:34.109Z</time></trkpt><trkpt lat="44.6222733" lon="9.3302317"><ele>483.0</ele><time>2026-04-08T09:54:35.11Z</time></trkpt><trkpt lat="44.6225017" lon="9.3304817"><ele>483.0</ele><time>2026-04-08T09:54:36.11Z</time></trkpt><trkpt lat="44.6227583" lon="9.3307033"><ele>480.5</ele><time>2026-04-08T09:54:37.109Z</time></trkpt><trkpt lat="44.6230317" lon="9.3309083"><ele>478.0</ele><time>2026-04-08T09:54:38.109Z</time></trkpt><trkpt lat="44.6233183" lon="9.3310933"><ele>478.0</ele><time>2026-04-08T09:54:39.11Z</time></trkpt><trkpt lat="44.62362" lon="9.331265"><ele>478.0</ele><time>2026-04-08T09:54:40.11Z</time></trkpt><trkpt lat="44.6239317" lon="9.3314383"><ele>479.0</ele><time>2026-04-08T09:54:41.11Z</time></trkpt><trkpt lat="44.6242683" lon="9.3316067"><ele>480.0</ele><time>2026-04-08T09:54:42.11Z</time></trkpt><trkpt lat="44.6246017" lon="9.33182"><ele>480.0</ele><time>2026-04-08T09:54:43.11Z</time></trkpt><trkpt lat="44.62495" lon="9.3319767"><ele>480.0</ele><time>2026-04-08T09:54:44.11Z</time></trkpt><trkpt lat="44.6252683" lon="9.33218"><ele>477.0</ele><time>2026-04-08T09:54:45.11Z</time></trkpt><trkpt lat="44.6255733" lon="9.33238"><ele>474.0</ele><time>2026-04-08T09:54:46.109Z</time></trkpt><trkpt lat="44.6258867" lon="9.3325233"><ele>476.5</ele><time>2026-04-08T09:54:47.109Z</time></trkpt><trkpt lat="44.6261883" lon="9.33267"><ele>479.0</ele><time>2026-04-08T09:54:48.11Z</time></trkpt><trkpt lat="44.626495" lon="9.3327833"><ele>479.0</ele><time>2026-04-08T09:54:49.11Z</time></trkpt><trkpt lat="44.6268" lon="9.3328683"><ele>479.0</ele><time>2026-04-08T09:54:50.11Z</time></trkpt><trkpt lat="44.6271" lon="9.332935"><ele>477.0</ele><time>2026-04-08T09:54:51.11Z</time></trkpt><trkpt lat="44.627405" lon="9.3330033"><ele>475.0</ele><time>2026-04-08T09:54:52.109Z</time></trkpt><trkpt lat="44.6277167" lon="9.3330683"><ele>478.0</ele><time>2026-04-08T09:54:53.11Z</time></trkpt><trkpt lat="44.6280333" lon="9.333105"><ele>481.0</ele><time>2026-04-08T09:54:54.11Z</time></trkpt><trkpt lat="44.6283517" lon="9.33313"><ele>480.5</ele><time>2026-04-08T09:54:55.11Z</time></trkpt><trkpt lat="44.62866" lon="9.33316"><ele>480.0</ele><time>2026-04-08T09:54:56.11Z</time></trkpt><trkpt lat="44.6289667" lon="9.3331733"><ele>480.0</ele><time>2026-04-08T09:54:57.11Z</time></trkpt><trkpt lat="44.6292683" lon="9.3331767"><ele>480.0</ele><time>2026-04-08T09:54:58.11Z</time></trkpt><trkpt lat="44.6295683" lon="9.33314"><ele>481.5</ele><time>2026-04-08T09:54:59.11Z</time></trkpt><trkpt lat="44.6298583" lon="9.33306"><ele>483.0</ele><time>2026-04-08T09:55:00.11Z</time></trkpt><trkpt lat="44.6301483" lon="9.3329367"><ele>484.0</ele><time>2026-04-08T09:55:01.11Z</time></trkpt><trkpt lat="44.6304333" lon="9.3327633"><ele>485.0</ele><time>2026-04-08T09:55:02.109Z</time></trkpt><trkpt lat="44.6307217" lon="9.33255"><ele>485.0</ele><time>2026-04-08T09:55:03.11Z</time></trkpt><trkpt lat="44.63101" lon="9.332325"><ele>485.0</ele><time>2026-04-08T09:55:04.11Z</time></trkpt><trkpt lat="44.631305" lon="9.3320883"><ele>482.5</ele><time>2026-04-08T09:55:05.11Z</time></trkpt><trkpt lat="44.6315967" lon="9.3318283"><ele>480.0</ele><time>2026-04-08T09:55:06.11Z</time></trkpt><trkpt lat="44.6318817" lon="9.3315467"><ele>478.0</ele><time>2026-04-08T09:55:07.11Z</time></trkpt><trkpt lat="44.6321533" lon="9.331245"><ele>476.0</ele><time>2026-04-08T09:55:08.11Z</time></trkpt><trkpt lat="44.6324317" lon="9.3309717"><ele>476.0</ele><time>2026-04-08T09:55:09.11Z</time></trkpt><trkpt lat="44.6327067" lon="9.3307017"><ele>476.0</ele><time>2026-04-08T09:55:10.109Z</time></trkpt><trkpt lat="44.6329683" lon="9.33041"><ele>474.0</ele><time>2026-04-08T09:55:11.11Z</time></trkpt><trkpt lat="44.6332517" lon="9.3301633"><ele>472.0</ele><time>2026-04-08T09:55:12.11Z</time></trkpt><trkpt lat="44.6335583" lon="9.3299633"><ele>470.5</ele><time>2026-04-08T09:55:13.11Z</time></trkpt><trkpt lat="44.6338567" lon="9.32974"><ele>469.0</ele><time>2026-04-08T09:55:14.11Z</time></trkpt><trkpt lat="44.6341667" lon="9.329525"><ele>473.0</ele><time>2026-04-08T09:55:15.11Z</time></trkpt><trkpt lat="44.634475" lon="9.3293117"><ele>477.0</ele><time>2026-04-08T09:55:16.11Z</time></trkpt><trkpt lat="44.6347667" lon="9.32911"><ele>477.0</ele><time>2026-04-08T09:55:17.11Z</time></trkpt><trkpt lat="44.6350383" lon="9.3289133"><ele>477.0</ele><time>2026-04-08T09:55:18.11Z</time></trkpt><trkpt lat="44.63531" lon="9.3287433"><ele>472.0</ele><time>2026-04-08T09:55:19.11Z</time></trkpt><trkpt lat="44.6355567" lon="9.3285617"><ele>467.0</ele><time>2026-04-08T09:55:20.11Z</time></trkpt><trkpt lat="44.6358233" lon="9.3284817"><ele>467.0</ele><time>2026-04-08T09:55:21.11Z</time></trkpt><trkpt lat="44.6360867" lon="9.32843"><ele>467.0</ele><time>2026-04-08T09:55:22.11Z</time></trkpt><trkpt lat="44.6363617" lon="9.3284533"><ele>465.0</ele><time>2026-04-08T09:55:23.11Z</time></trkpt><trkpt lat="44.636635" lon="9.3285383"><ele>463.0</ele><time>2026-04-08T09:55:24.109Z</time></trkpt><trkpt lat="44.6369117" lon="9.3287067"><ele>465.5</ele><time>2026-04-08T09:55:25.11Z</time></trkpt><trkpt lat="44.6371917" lon="9.3289067"><ele>468.0</ele><time>2026-04-08T09:55:26.11Z</time></trkpt><trkpt lat="44.6374633" lon="9.329135"><ele>468.0</ele><time>2026-04-08T09:55:27.11Z</time></trkpt><trkpt lat="44.6377467" lon="9.3293417"><ele>468.0</ele><time>2026-04-08T09:55:28.11Z</time></trkpt><trkpt lat="44.6380133" lon="9.3295583"><ele>470.5</ele><time>2026-04-08T09:55:29.11Z</time></trkpt><trkpt lat="44.63828" lon="9.3297417"><ele>473.0</ele><time>2026-04-08T09:55:30.11Z</time></trkpt><trkpt lat="44.6385467" lon="9.3299"><ele>467.0</ele><time>2026-04-08T09:55:31.11Z</time></trkpt><trkpt lat="44.638815" lon="9.3300067"><ele>461.0</ele><time>2026-04-08T09:55:32.11Z</time></trkpt><trkpt lat="44.639095" lon="9.33006"><ele>461.0</ele><time>2026-04-08T09:55:33.11Z</time></trkpt><trkpt lat="44.6393933" lon="9.3300567"><ele>461.0</ele><time>2026-04-08T09:55:34.11Z</time></trkpt><trkpt lat="44.6397" lon="9.3299733"><ele>460.0</ele><time>2026-04-08T09:55:35.109Z</time></trkpt><trkpt lat="44.640015" lon="9.3298817"><ele>459.0</ele><time>2026-04-08T09:55:36.109Z</time></trkpt><trkpt lat="44.6403367" lon="9.3297917"><ele>463.5</ele><time>2026-04-08T09:55:37.11Z</time></trkpt><trkpt lat="44.6406733" lon="9.3297"><ele>468.0</ele><time>2026-04-08T09:55:38.11Z</time></trkpt><trkpt lat="44.641005" lon="9.3296083"><ele>466.0</ele><time>2026-04-08T09:55:39.109Z</time></trkpt><trkpt lat="44.6413417" lon="9.3295333"><ele>464.0</ele><time>2026-04-08T09:55:40.109Z</time></trkpt><trkpt lat="44.641675" lon="9.32944"><ele>462.5</ele><time>2026-04-08T09:55:41.11Z</time></trkpt><trkpt lat="44.6420117" lon="9.3293483"><ele>461.0</ele><time>2026-04-08T09:55:42.109Z</time></trkpt><trkpt lat="44.64235" lon="9.3292583"><ele>461.0</ele><time>2026-04-08T09:55:43.11Z</time></trkpt><trkpt lat="44.6426833" lon="9.3291533"><ele>461.0</ele><time>2026-04-08T09:55:44.11Z</time></trkpt><trkpt lat="44.6430217" lon="9.3290583"><ele>460.0</ele><time>2026-04-08T09:55:45.109Z</time></trkpt><trkpt lat="44.6433633" lon="9.3289833"><ele>459.0</ele><time>2026-04-08T09:55:46.109Z</time></trkpt><trkpt lat="44.6437017" lon="9.328885"><ele>464.0</ele><time>2026-04-08T09:55:47.11Z</time></trkpt><trkpt lat="44.6440317" lon="9.3288033"><ele>469.0</ele><time>2026-04-08T09:55:48.11Z</time></trkpt><trkpt lat="44.6443467" lon="9.3287017"><ele>468.0</ele><time>2026-04-08T09:55:49.11Z</time></trkpt><trkpt lat="44.6446483" lon="9.32862"><ele>467.0</ele><time>2026-04-08T09:55:50.11Z</time></trkpt><trkpt lat="44.6449417" lon="9.3285333"><ele>467.0</ele><time>2026-04-08T09:55:51.11Z</time></trkpt><trkpt lat="44.6452283" lon="9.3284367"><ele>467.0</ele><time>2026-04-08T09:55:52.11Z</time></trkpt><trkpt lat="44.645495" lon="9.3282733"><ele>468.0</ele><time>2026-04-08T09:55:53.11Z</time></trkpt><trkpt lat="44.6457617" lon="9.32811"><ele>469.0</ele><time>2026-04-08T09:55:54.109Z</time></trkpt><trkpt lat="44.6460267" lon="9.3279383"><ele>460.5</ele><time>2026-04-08T09:55:55.11Z</time></trkpt><trkpt lat="44.64629" lon="9.32776"><ele>452.0</ele><time>2026-04-08T09:55:56.11Z</time></trkpt><trkpt lat="44.64654" lon="9.32755"><ele>452.0</ele><time>2026-04-08T09:55:57.109Z</time></trkpt><trkpt lat="44.646785" lon="9.3273283"><ele>452.0</ele><time>2026-04-08T09:55:58.11Z</time></trkpt><trkpt lat="44.647015" lon="9.3270867"><ele>450.5</ele><time>2026-04-08T09:55:59.11Z</time></trkpt><trkpt lat="44.64723" lon="9.3268317"><ele>449.0</ele><time>2026-04-08T09:56:00.11Z</time></trkpt><trkpt lat="44.6474183" lon="9.3265417"><ele>449.0</ele><time>2026-04-08T09:56:01.11Z</time></trkpt><trkpt lat="44.6475733" lon="9.3262117"><ele>449.0</ele><time>2026-04-08T09:56:02.109Z</time></trkpt><trkpt lat="44.6477033" lon="9.3258583"><ele>452.0</ele><time>2026-04-08T09:56:03.11Z</time></trkpt><trkpt lat="44.6478167" lon="9.3254917"><ele>455.0</ele><time>2026-04-08T09:56:04.11Z</time></trkpt><trkpt lat="44.6479217" lon="9.325115"><ele>455.0</ele><time>2026-04-08T09:56:05.11Z</time></trkpt><trkpt lat="44.648025" lon="9.324735"><ele>455.0</ele><time>2026-04-08T09:56:06.11Z</time></trkpt><trkpt lat="44.6481417" lon="9.3243633"><ele>454.5</ele><time>2026-04-08T09:56:07.11Z</time></trkpt><trkpt lat="44.6482533" lon="9.3239767"><ele>454.0</ele><time>2026-04-08T09:56:08.109Z</time></trkpt><trkpt lat="44.6483583" lon="9.3235867"><ele>449.5</ele><time>2026-04-08T09:56:09.11Z</time></trkpt><trkpt lat="44.6484667" lon="9.3232"><ele>445.0</ele><time>2026-04-08T09:56:10.11Z</time></trkpt><trkpt lat="44.64859" lon="9.3228167"><ele>454.0</ele><time>2026-04-08T09:56:11.11Z</time></trkpt><trkpt lat="44.648715" lon="9.3224417"><ele>463.0</ele><time>2026-04-08T09:56:12.11Z</time></trkpt><trkpt lat="44.6488233" lon="9.3220583"><ele>463.0</ele><time>2026-04-08T09:56:13.11Z</time></trkpt><trkpt lat="44.6489717" lon="9.3217183"><ele>463.0</ele><time>2026-04-08T09:56:14.11Z</time></trkpt><trkpt lat="44.6491083" lon="9.3214017"><ele>462.33333333333337</ele><time>2026-04-08T09:56:15.109Z</time></trkpt><trkpt lat="44.649225" lon="9.321125"><ele>461.66666666666663</ele><time>2026-04-08T09:56:16.11Z</time></trkpt><trkpt lat="44.649345" lon="9.3209117"><ele>461.0</ele><time>2026-04-08T09:56:17.11Z</time></trkpt><trkpt lat="44.6494867" lon="9.32076"><ele>461.0</ele><time>2026-04-08T09:56:18.11Z</time></trkpt><trkpt lat="44.6496583" lon="9.3206583"><ele>461.0</ele><time>2026-04-08T09:56:19.11Z</time></trkpt><trkpt lat="44.6498183" lon="9.3205417"><ele>461.0</ele><time>2026-04-08T09:56:20.109Z</time></trkpt><trkpt lat="44.649955" lon="9.320455"><ele>462.6</ele><time>2026-04-08T09:56:21.11Z</time></trkpt><trkpt lat="44.6500717" lon="9.3204217"><ele>464.20000000000005</ele><time>2026-04-08T09:56:22.11Z</time></trkpt><trkpt lat="44.650175" lon="9.3204417"><ele>465.79999999999995</ele><time>2026-04-08T09:56:23.109Z</time></trkpt><trkpt lat="44.6502533" lon="9.3205167"><ele>467.4</ele><time>2026-04-08T09:56:24.11Z</time></trkpt><trkpt lat="44.65031" lon="9.3206217"><ele>469.0</ele><time>2026-04-08T09:56:25.109Z</time></trkpt><trkpt lat="44.6503533" lon="9.3207617"><ele>469.0</ele><time>2026-04-08T09:56:26.11Z</time></trkpt><trkpt lat="44.65042" lon="9.3209217"><ele>469.0</ele><time>2026-04-08T09:56:27.11Z</time></trkpt><trkpt lat="44.6505183" lon="9.3210717"><ele>469.0</ele><time>2026-04-08T09:56:28.11Z</time></trkpt><trkpt lat="44.6506283" lon="9.3212167"><ele>469.0</ele><time>2026-04-08T09:56:29.11Z</time></trkpt><trkpt lat="44.6507467" lon="9.321325"><ele>469.0</ele><time>2026-04-08T09:56:30.109Z</time></trkpt><trkpt lat="44.6508617" lon="9.3213883"><ele>469.0</ele><time>2026-04-08T09:56:31.11Z</time></trkpt><trkpt lat="44.650955" lon="9.3214817"><ele>469.0</ele><time>2026-04-08T09:56:32.11Z</time></trkpt><trkpt lat="44.6510383" lon="9.3216017"><ele>469.0</ele><time>2026-04-08T09:56:33.11Z</time></trkpt><trkpt lat="44.651125" lon="9.3216983"><ele>470.79999999999995</ele><time>2026-04-08T09:56:34.109Z</time></trkpt><trkpt lat="44.651205" lon="9.3217733"><ele>472.59999999999997</ele><time>2026-04-08T09:56:35.11Z</time></trkpt><trkpt lat="44.6512983" lon="9.32182"><ele>474.4</ele><time>2026-04-08T09:56:36.11Z</time></trkpt><trkpt lat="44.6513867" lon="9.321845"><ele>476.2</ele><time>2026-04-08T09:56:37.11Z</time></trkpt><trkpt lat="44.6514617" lon="9.3217917"><ele>478.0</ele><time>2026-04-08T09:56:38.11Z</time></trkpt><trkpt lat="44.6515567" lon="9.3217167"><ele>478.0</ele><time>2026-04-08T09:56:39.11Z</time></trkpt><trkpt lat="44.6516367" lon="9.321585"><ele>478.0</ele><time>2026-04-08T09:56:40.11Z</time></trkpt><trkpt lat="44.6516933" lon="9.3214233"><ele>478.0</ele><time>2026-04-08T09:56:41.11Z</time></trkpt><trkpt lat="44.651685" lon="9.3211617"><ele>478.0</ele><time>2026-04-08T09:56:42.11Z</time></trkpt><trkpt lat="44.6516417" lon="9.320925"><ele>478.0</ele><time>2026-04-08T09:56:43.11Z</time></trkpt><trkpt lat="44.6514217" lon="9.32073"><ele>478.0</ele><time>2026-04-08T09:56:44.11Z</time></trkpt><trkpt lat="44.6513133" lon="9.3206233"><ele>478.0</ele><time>2026-04-08T09:56:45.11Z</time></trkpt><trkpt lat="44.6512783" lon="9.32047"><ele>481.4</ele><time>2026-04-08T09:56:46.11Z</time></trkpt><trkpt lat="44.6512983" lon="9.3203483"><ele>484.79999999999995</ele><time>2026-04-08T09:56:47.11Z</time></trkpt><trkpt lat="44.6513467" lon="9.3202367"><ele>488.2</ele><time>2026-04-08T09:56:48.11Z</time></trkpt><trkpt lat="44.6513917" lon="9.3201117"><ele>491.6</ele><time>2026-04-08T09:56:49.11Z</time></trkpt><trkpt lat="44.6514183" lon="9.3199783"><ele>495.0</ele><time>2026-04-08T09:56:50.11Z</time></trkpt><trkpt lat="44.6514083" lon="9.3198083"><ele>500.66666666666663</ele><time>2026-04-08T09:56:51.109Z</time></trkpt><trkpt lat="44.651345" lon="9.31958"><ele>506.3333333333333</ele><time>2026-04-08T09:56:52.109Z</time></trkpt><trkpt lat="44.6513117" lon="9.3193167"><ele>512.0</ele><time>2026-04-08T09:56:53.11Z</time></trkpt><trkpt lat="44.6512683" lon="9.31903"><ele>512.0</ele><time>2026-04-08T09:56:54.11Z</time></trkpt><trkpt lat="44.65124" lon="9.3187283"><ele>512.0</ele><time>2026-04-08T09:56:55.109Z</time></trkpt><trkpt lat="44.6512383" lon="9.3184667"><ele>512.0</ele><time>2026-04-08T09:56:56.11Z</time></trkpt><trkpt lat="44.651225" lon="9.318225"><ele>507.0</ele><time>2026-04-08T09:56:57.109Z</time></trkpt><trkpt lat="44.6513" lon="9.3180183"><ele>502.0</ele><time>2026-04-08T09:56:58.11Z</time></trkpt><trkpt lat="44.651355" lon="9.3178133"><ele>497.0</ele><time>2026-04-08T09:56:59.109Z</time></trkpt><trkpt lat="44.6513867" lon="9.31761"><ele>497.0</ele><time>2026-04-08T09:57:00.11Z</time></trkpt><trkpt lat="44.6514317" lon="9.31744"><ele>497.0</ele><time>2026-04-08T09:57:01.11Z</time></trkpt><trkpt lat="44.6515" lon="9.3172867"><ele>497.0</ele><time>2026-04-08T09:57:02.11Z</time></trkpt><trkpt lat="44.6515883" lon="9.3171633"><ele>497.0</ele><time>2026-04-08T09:57:03.11Z</time></trkpt><trkpt lat="44.651685" lon="9.3170633"><ele>494.75</ele><time>2026-04-08T09:57:04.11Z</time></trkpt><trkpt lat="44.6517683" lon="9.3169333"><ele>492.5</ele><time>2026-04-08T09:57:05.109Z</time></trkpt><trkpt lat="44.6518383" lon="9.31679"><ele>490.25</ele><time>2026-04-08T09:57:06.11Z</time></trkpt><trkpt lat="44.6519083" lon="9.3166617"><ele>488.0</ele><time>2026-04-08T09:57:07.11Z</time></trkpt><trkpt lat="44.6520167" lon="9.3165617"><ele>490.0</ele><time>2026-04-08T09:57:08.109Z</time></trkpt><trkpt lat="44.6521433" lon="9.3164717"><ele>492.0</ele><time>2026-04-08T09:57:09.11Z</time></trkpt><trkpt lat="44.6522983" lon="9.3163767"><ele>494.0</ele><time>2026-04-08T09:57:10.11Z</time></trkpt><trkpt lat="44.6524033" lon="9.31625"><ele>496.0</ele><time>2026-04-08T09:57:11.11Z</time></trkpt><trkpt lat="44.6524933" lon="9.3161083"><ele>496.0</ele><time>2026-04-08T09:57:12.109Z</time></trkpt><trkpt lat="44.6525967" lon="9.3159917"><ele>496.0</ele><time>2026-04-08T09:57:13.11Z</time></trkpt><trkpt lat="44.6527317" lon="9.315895"><ele>496.0</ele><time>2026-04-08T09:57:14.11Z</time></trkpt><trkpt lat="44.652905" lon="9.3158483"><ele>501.33333333333337</ele><time>2026-04-08T09:57:15.11Z</time></trkpt><trkpt lat="44.6530867" lon="9.3158067"><ele>506.66666666666663</ele><time>2026-04-08T09:57:16.11Z</time></trkpt><trkpt lat="44.6532633" lon="9.31577"><ele>512.0</ele><time>2026-04-08T09:57:17.109Z</time></trkpt><trkpt lat="44.653415" lon="9.31568"><ele>513.0</ele><time>2026-04-08T09:57:18.109Z</time></trkpt><trkpt lat="44.653525" lon="9.3155217"><ele>514.0</ele><time>2026-04-08T09:57:19.11Z</time></trkpt><trkpt lat="44.65362" lon="9.3153667"><ele>515.0</ele><time>2026-04-08T09:57:20.11Z</time></trkpt><trkpt lat="44.653725" lon="9.31524"><ele>516.0</ele><time>2026-04-08T09:57:21.11Z</time></trkpt><trkpt lat="44.65387" lon="9.3151517"><ele>516.0</ele><time>2026-04-08T09:57:22.11Z</time></trkpt><trkpt lat="44.654025" lon="9.3150617"><ele>516.0</ele><time>2026-04-08T09:57:23.11Z</time></trkpt><trkpt lat="44.65418" lon="9.3150017"><ele>516.0</ele><time>2026-04-08T09:57:24.11Z</time></trkpt><trkpt lat="44.654315" lon="9.3148967"><ele>516.0</ele><time>2026-04-08T09:57:25.11Z</time></trkpt><trkpt lat="44.6544067" lon="9.3147883"><ele>516.0</ele><time>2026-04-08T09:57:26.11Z</time></trkpt><trkpt lat="44.65445" lon="9.314645"><ele>516.0</ele><time>2026-04-08T09:57:27.11Z</time></trkpt><trkpt lat="44.6544567" lon="9.314475"><ele>516.0</ele><time>2026-04-08T09:57:28.11Z</time></trkpt><trkpt lat="44.6544167" lon="9.3142683"><ele>515.3333333333334</ele><time>2026-04-08T09:57:29.11Z</time></trkpt><trkpt lat="44.6543633" lon="9.3140467"><ele>514.6666666666667</ele><time>2026-04-08T09:57:30.109Z</time></trkpt><trkpt lat="44.6542167" lon="9.3138467"><ele>514.0</ele><time>2026-04-08T09:57:31.11Z</time></trkpt><trkpt lat="44.6540783" lon="9.313675"><ele>515.5</ele><time>2026-04-08T09:57:32.11Z</time></trkpt><trkpt lat="44.6539983" lon="9.3135217"><ele>517.0</ele><time>2026-04-08T09:57:33.11Z</time></trkpt><trkpt lat="44.6539833" lon="9.3133717"><ele>518.5</ele><time>2026-04-08T09:57:34.11Z</time></trkpt><trkpt lat="44.6540317" lon="9.3132283"><ele>520.0</ele><time>2026-04-08T09:57:35.11Z</time></trkpt><trkpt lat="44.6541283" lon="9.3131083"><ele>518.3333333333334</ele><time>2026-04-08T09:57:36.11Z</time></trkpt><trkpt lat="44.6542367" lon="9.3129617"><ele>516.6666666666666</ele><time>2026-04-08T09:57:37.11Z</time></trkpt><trkpt lat="44.6543317" lon="9.3127867"><ele>515.0</ele><time>2026-04-08T09:57:38.11Z</time></trkpt><trkpt lat="44.6544283" lon="9.31259"><ele>513.25</ele><time>2026-04-08T09:57:39.11Z</time></trkpt><trkpt lat="44.6545467" lon="9.3124117"><ele>511.5</ele><time>2026-04-08T09:57:40.11Z</time></trkpt><trkpt lat="44.65467" lon="9.312285"><ele>509.75</ele><time>2026-04-08T09:57:41.11Z</time></trkpt><trkpt lat="44.6547817" lon="9.3122283"><ele>508.0</ele><time>2026-04-08T09:57:42.11Z</time></trkpt><trkpt lat="44.6548883" lon="9.31225"><ele>514.0</ele><time>2026-04-08T09:57:43.11Z</time></trkpt><trkpt lat="44.65502" lon="9.3123333"><ele>520.0</ele><time>2026-04-08T09:57:44.11Z</time></trkpt><trkpt lat="44.6551783" lon="9.3124267"><ele>526.0</ele><time>2026-04-08T09:57:45.11Z</time></trkpt><trkpt lat="44.655365" lon="9.31249"><ele>526.6666666666667</ele><time>2026-04-08T09:57:46.11Z</time></trkpt><trkpt lat="44.6555483" lon="9.3125067"><ele>527.3333333333334</ele><time>2026-04-08T09:57:47.11Z</time></trkpt><trkpt lat="44.65572" lon="9.3124783"><ele>528.0</ele><time>2026-04-08T09:57:48.11Z</time></trkpt><trkpt lat="44.655875" lon="9.3123983"><ele>528.0</ele><time>2026-04-08T09:57:49.109Z</time></trkpt><trkpt lat="44.6560067" lon="9.3122983"><ele>528.0</ele><time>2026-04-08T09:57:50.11Z</time></trkpt><trkpt lat="44.65612" lon="9.3122483"><ele>528.0</ele><time>2026-04-08T09:57:51.11Z</time></trkpt><trkpt lat="44.6562317" lon="9.3122383"><ele>528.0</ele><time>2026-04-08T09:57:52.11Z</time></trkpt><trkpt lat="44.6563483" lon="9.3123183"><ele>528.0</ele><time>2026-04-08T09:57:53.109Z</time></trkpt><trkpt lat="44.65647" lon="9.3124967"><ele>528.0</ele><time>2026-04-08T09:57:54.109Z</time></trkpt><trkpt lat="44.656595" lon="9.3126733"><ele>528.0</ele><time>2026-04-08T09:57:55.11Z</time></trkpt><trkpt lat="44.6567167" lon="9.31283"><ele>528.0</ele><time>2026-04-08T09:57:56.11Z</time></trkpt><trkpt lat="44.6568583" lon="9.3129283"><ele>528.0</ele><time>2026-04-08T09:57:57.11Z</time></trkpt><trkpt lat="44.6569967" lon="9.3129783"><ele>528.0</ele><time>2026-04-08T09:57:58.11Z</time></trkpt><trkpt lat="44.6571417" lon="9.3129767"><ele>528.0</ele><time>2026-04-08T09:57:59.109Z</time></trkpt><trkpt lat="44.65736" lon="9.31286"><ele>526.5</ele><time>2026-04-08T09:58:00.11Z</time></trkpt><trkpt lat="44.6576183" lon="9.312715"><ele>525.0</ele><time>2026-04-08T09:58:01.11Z</time></trkpt><trkpt lat="44.6578967" lon="9.3125467"><ele>520.5</ele><time>2026-04-08T09:58:02.11Z</time></trkpt><trkpt lat="44.6581817" lon="9.3123533"><ele>516.0</ele><time>2026-04-08T09:58:03.11Z</time></trkpt><trkpt lat="44.6584633" lon="9.312155"><ele>525.0</ele><time>2026-04-08T09:58:04.109Z</time></trkpt><trkpt lat="44.658735" lon="9.3119733"><ele>534.0</ele><time>2026-04-08T09:58:05.11Z</time></trkpt><trkpt lat="44.6589833" lon="9.311805"><ele>534.0</ele><time>2026-04-08T09:58:06.11Z</time></trkpt><trkpt lat="44.6592217" lon="9.3116617"><ele>534.0</ele><time>2026-04-08T09:58:07.109Z</time></trkpt><trkpt lat="44.6594567" lon="9.3115533"><ele>534.0</ele><time>2026-04-08T09:58:08.11Z</time></trkpt><trkpt lat="44.6596683" lon="9.3113967"><ele>534.0</ele><time>2026-04-08T09:58:09.11Z</time></trkpt><trkpt lat="44.6598567" lon="9.311215"><ele>534.0</ele><time>2026-04-08T09:58:10.11Z</time></trkpt><trkpt lat="44.6600183" lon="9.3110333"><ele>534.0</ele><time>2026-04-08T09:58:11.109Z</time></trkpt><trkpt lat="44.6601767" lon="9.3108967"><ele>534.0</ele><time>2026-04-08T09:58:12.11Z</time></trkpt><trkpt lat="44.6603233" lon="9.310775"><ele>534.0</ele><time>2026-04-08T09:58:13.11Z</time></trkpt><trkpt lat="44.6604483" lon="9.3106533"><ele>534.0</ele><time>2026-04-08T09:58:14.11Z</time></trkpt><trkpt lat="44.6605417" lon="9.3105067"><ele>534.0</ele><time>2026-04-08T09:58:15.109Z</time></trkpt><trkpt lat="44.6605917" lon="9.31034"><ele>534.0</ele><time>2026-04-08T09:58:16.11Z</time></trkpt><trkpt lat="44.660645" lon="9.3101933"><ele>534.0</ele><time>2026-04-08T09:58:17.11Z</time></trkpt><trkpt lat="44.6607117" lon="9.3100683"><ele>534.0</ele><time>2026-04-08T09:58:18.11Z</time></trkpt><trkpt lat="44.6608" lon="9.3100117"><ele>534.0</ele><time>2026-04-08T09:58:19.11Z</time></trkpt><trkpt lat="44.6609" lon="9.3100767"><ele>534.0</ele><time>2026-04-08T09:58:20.11Z</time></trkpt><trkpt lat="44.66099" lon="9.3101983"><ele>534.0</ele><time>2026-04-08T09:58:21.11Z</time></trkpt><trkpt lat="44.6610733" lon="9.3103783"><ele>533.6666666666666</ele><time>2026-04-08T09:58:22.11Z</time></trkpt><trkpt lat="44.661115" lon="9.3106183"><ele>533.3333333333333</ele><time>2026-04-08T09:58:23.11Z</time></trkpt><trkpt lat="44.6611567" lon="9.3109067"><ele>533.0</ele><time>2026-04-08T09:58:24.11Z</time></trkpt><trkpt lat="44.661195" lon="9.3112267"><ele>535.0</ele><time>2026-04-08T09:58:25.109Z</time></trkpt><trkpt lat="44.66126" lon="9.3115633"><ele>537.0</ele><time>2026-04-08T09:58:26.11Z</time></trkpt><trkpt lat="44.66136" lon="9.311895"><ele>537.0</ele><time>2026-04-08T09:58:27.11Z</time></trkpt><trkpt lat="44.661475" lon="9.3122367"><ele>537.0</ele><time>2026-04-08T09:58:28.11Z</time></trkpt><trkpt lat="44.6615867" lon="9.3125517"><ele>540.0</ele><time>2026-04-08T09:58:29.11Z</time></trkpt><trkpt lat="44.661675" lon="9.3128217"><ele>543.0</ele><time>2026-04-08T09:58:30.11Z</time></trkpt><trkpt lat="44.6617383" lon="9.3130317"><ele>546.0</ele><time>2026-04-08T09:58:31.11Z</time></trkpt><trkpt lat="44.6617967" lon="9.3131983"><ele>549.75</ele><time>2026-04-08T09:58:32.11Z</time></trkpt><trkpt lat="44.6618567" lon="9.313345"><ele>553.5</ele><time>2026-04-08T09:58:33.109Z</time></trkpt><trkpt lat="44.661955" lon="9.3134283"><ele>557.25</ele><time>2026-04-08T09:58:34.109Z</time></trkpt><trkpt lat="44.6620483" lon="9.3134833"><ele>561.0</ele><time>2026-04-08T09:58:35.11Z</time></trkpt><trkpt lat="44.6621767" lon="9.3134683"><ele>561.0</ele><time>2026-04-08T09:58:36.109Z</time></trkpt><trkpt lat="44.6623033" lon="9.3133567"><ele>561.0</ele><time>2026-04-08T09:58:37.11Z</time></trkpt><trkpt lat="44.6624267" lon="9.313205"><ele>561.0</ele><time>2026-04-08T09:58:38.109Z</time></trkpt><trkpt lat="44.6625117" lon="9.313005"><ele>564.0</ele><time>2026-04-08T09:58:39.109Z</time></trkpt><trkpt lat="44.6626033" lon="9.3128267"><ele>567.0</ele><time>2026-04-08T09:58:40.109Z</time></trkpt><trkpt lat="44.6627067" lon="9.3126417"><ele>570.0</ele><time>2026-04-08T09:58:41.109Z</time></trkpt><trkpt lat="44.6628383" lon="9.3124783"><ele>570.0</ele><time>2026-04-08T09:58:42.11Z</time></trkpt><trkpt lat="44.66301" lon="9.3123017"><ele>570.0</ele><time>2026-04-08T09:58:43.11Z</time></trkpt><trkpt lat="44.6632083" lon="9.3121333"><ele>570.0</ele><time>2026-04-08T09:58:44.11Z</time></trkpt><trkpt lat="44.6634217" lon="9.31199"><ele>570.0</ele><time>2026-04-08T09:58:45.109Z</time></trkpt><trkpt lat="44.663625" lon="9.311835"><ele>570.0</ele><time>2026-04-08T09:58:46.11Z</time></trkpt><trkpt lat="44.6637867" lon="9.311675"><ele>570.0</ele><time>2026-04-08T09:58:47.109Z</time></trkpt><trkpt lat="44.663925" lon="9.3115133"><ele>560.3333333333334</ele><time>2026-04-08T09:58:48.109Z</time></trkpt><trkpt lat="44.6640583" lon="9.3113783"><ele>550.6666666666667</ele><time>2026-04-08T09:58:49.11Z</time></trkpt><trkpt lat="44.6642183" lon="9.3112917"><ele>541.0</ele><time>2026-04-08T09:58:50.11Z</time></trkpt><trkpt lat="44.6643817" lon="9.3112467"><ele>543.0</ele><time>2026-04-08T09:58:51.11Z</time></trkpt><trkpt lat="44.6645383" lon="9.3112183"><ele>545.0</ele><time>2026-04-08T09:58:52.109Z</time></trkpt><trkpt lat="44.6646883" lon="9.3111883"><ele>547.0</ele><time>2026-04-08T09:58:53.109Z</time></trkpt><trkpt lat="44.6648367" lon="9.3112167"><ele>547.0</ele><time>2026-04-08T09:58:54.109Z</time></trkpt><trkpt lat="44.6649767" lon="9.311295"><ele>547.0</ele><time>2026-04-08T09:58:55.109Z</time></trkpt><trkpt lat="44.665115" lon="9.3114217"><ele>547.0</ele><time>2026-04-08T09:58:56.109Z</time></trkpt><trkpt lat="44.6652467" lon="9.3115767"><ele>544.3333333333334</ele><time>2026-04-08T09:58:57.109Z</time></trkpt><trkpt lat="44.6653617" lon="9.3117583"><ele>541.6666666666666</ele><time>2026-04-08T09:58:58.109Z</time></trkpt><trkpt lat="44.6654467" lon="9.3119517"><ele>539.0</ele><time>2026-04-08T09:58:59.108Z</time></trkpt><trkpt lat="44.6655167" lon="9.3121417"><ele>545.3333333333333</ele><time>2026-04-08T09:59:00.108Z</time></trkpt><trkpt lat="44.6655983" lon="9.3123233"><ele>551.6666666666666</ele><time>2026-04-08T09:59:01.109Z</time></trkpt><trkpt lat="44.6657033" lon="9.3124717"><ele>558.0</ele><time>2026-04-08T09:59:02.109Z</time></trkpt><trkpt lat="44.6658483" lon="9.3125717"><ele>558.0</ele><time>2026-04-08T09:59:03.109Z</time></trkpt><trkpt lat="44.665975" lon="9.3126833"><ele>558.0</ele><time>2026-04-08T09:59:04.108Z</time></trkpt><trkpt lat="44.666075" lon="9.3128117"><ele>558.0</ele><time>2026-04-08T09:59:05.109Z</time></trkpt><trkpt lat="44.6661467" lon="9.31293"><ele>558.0</ele><time>2026-04-08T09:59:06.108Z</time></trkpt><trkpt lat="44.66621" lon="9.3130417"><ele>561.25</ele><time>2026-04-08T09:59:07.109Z</time></trkpt><trkpt lat="44.6662933" lon="9.31312"><ele>564.5</ele><time>2026-04-08T09:59:08.109Z</time></trkpt><trkpt lat="44.6664117" lon="9.31314"><ele>567.75</ele><time>2026-04-08T09:59:09.109Z</time></trkpt><trkpt lat="44.6665717" lon="9.3131033"><ele>571.0</ele><time>2026-04-08T09:59:10.109Z</time></trkpt><trkpt lat="44.6668333" lon="9.312945"><ele>566.6666666666667</ele><time>2026-04-08T09:59:11.109Z</time></trkpt><trkpt lat="44.6670183" lon="9.3128733"><ele>562.3333333333334</ele><time>2026-04-08T09:59:12.109Z</time></trkpt><trkpt lat="44.6671783" lon="9.3127433"><ele>558.0</ele><time>2026-04-08T09:59:13.109Z</time></trkpt><trkpt lat="44.6673167" lon="9.31258"><ele>558.0</ele><time>2026-04-08T09:59:14.109Z</time></trkpt><trkpt lat="44.6674267" lon="9.3123783"><ele>558.0</ele><time>2026-04-08T09:59:15.109Z</time></trkpt><trkpt lat="44.66753" lon="9.3121483"><ele>558.0</ele><time>2026-04-08T09:59:16.109Z</time></trkpt><trkpt lat="44.6676267" lon="9.3119467"><ele>554.5</ele><time>2026-04-08T09:59:17.109Z</time></trkpt><trkpt lat="44.6677117" lon="9.3117983"><ele>551.0</ele><time>2026-04-08T09:59:18.109Z</time></trkpt><trkpt lat="44.667805" lon="9.3117167"><ele>547.5</ele><time>2026-04-08T09:59:19.108Z</time></trkpt><trkpt lat="44.667915" lon="9.311725"><ele>544.0</ele><time>2026-04-08T09:59:20.108Z</time></trkpt><trkpt lat="44.6680317" lon="9.3118367"><ele>544.0</ele><time>2026-04-08T09:59:21.109Z</time></trkpt><trkpt lat="44.66816" lon="9.3119433"><ele>544.0</ele><time>2026-04-08T09:59:22.108Z</time></trkpt><trkpt lat="44.6683183" lon="9.31203"><ele>544.0</ele><time>2026-04-08T09:59:23.109Z</time></trkpt><trkpt lat="44.668495" lon="9.3120483"><ele>550.6666666666667</ele><time>2026-04-08T09:59:24.109Z</time></trkpt><trkpt lat="44.66866" lon="9.3120283"><ele>557.3333333333334</ele><time>2026-04-08T09:59:25.109Z</time></trkpt><trkpt lat="44.6688067" lon="9.3119783"><ele>564.0</ele><time>2026-04-08T09:59:26.109Z</time></trkpt><trkpt lat="44.6689283" lon="9.31189"><ele>564.0</ele><time>2026-04-08T09:59:27.109Z</time></trkpt><trkpt lat="44.6690083" lon="9.3116967"><ele>564.0</ele><time>2026-04-08T09:59:28.108Z</time></trkpt><trkpt lat="44.6690517" lon="9.311465"><ele>564.0</ele><time>2026-04-08T09:59:29.109Z</time></trkpt><trkpt lat="44.6690833" lon="9.3112133"><ele>555.6666666666666</ele><time>2026-04-08T09:59:30.109Z</time></trkpt><trkpt lat="44.6691383" lon="9.31099"><ele>547.3333333333333</ele><time>2026-04-08T09:59:31.109Z</time></trkpt><trkpt lat="44.66924" lon="9.31082"><ele>539.0</ele><time>2026-04-08T09:59:32.109Z</time></trkpt><trkpt lat="44.6693567" lon="9.3107483"><ele>542.75</ele><time>2026-04-08T09:59:33.109Z</time></trkpt><trkpt lat="44.6695033" lon="9.3107367"><ele>546.5</ele><time>2026-04-08T09:59:34.109Z</time></trkpt><trkpt lat="44.6696267" lon="9.3106667"><ele>550.25</ele><time>2026-04-08T09:59:35.109Z</time></trkpt><trkpt lat="44.6697183" lon="9.3105533"><ele>554.0</ele><time>2026-04-08T09:59:36.109Z</time></trkpt><trkpt lat="44.669695" lon="9.31035"><ele>554.0</ele><time>2026-04-08T09:59:37.108Z</time></trkpt><trkpt lat="44.6696683" lon="9.310115"><ele>554.0</ele><time>2026-04-08T09:59:38.109Z</time></trkpt><trkpt lat="44.669655" lon="9.3099067"><ele>554.0</ele><time>2026-04-08T09:59:39.109Z</time></trkpt><trkpt lat="44.6696783" lon="9.3097183"><ele>546.75</ele><time>2026-04-08T09:59:40.109Z</time></trkpt><trkpt lat="44.6697483" lon="9.3095433"><ele>539.5</ele><time>2026-04-08T09:59:41.109Z</time></trkpt><trkpt lat="44.66986" lon="9.3094133"><ele>532.25</ele><time>2026-04-08T09:59:42.109Z</time></trkpt><trkpt lat="44.669985" lon="9.3093583"><ele>525.0</ele><time>2026-04-08T09:59:43.109Z</time></trkpt><trkpt lat="44.6701333" lon="9.30943"><ele>527.3333333333334</ele><time>2026-04-08T09:59:44.108Z</time></trkpt><trkpt lat="44.670315" lon="9.30954"><ele>529.6666666666667</ele><time>2026-04-08T09:59:45.109Z</time></trkpt><trkpt lat="44.6705017" lon="9.3095733"><ele>532.0</ele><time>2026-04-08T09:59:46.109Z</time></trkpt><trkpt lat="44.6706917" lon="9.3095417"><ele>532.0</ele><time>2026-04-08T09:59:47.108Z</time></trkpt><trkpt lat="44.6708633" lon="9.3094833"><ele>532.0</ele><time>2026-04-08T09:59:48.109Z</time></trkpt><trkpt lat="44.6710067" lon="9.30944"><ele>532.0</ele><time>2026-04-08T09:59:49.108Z</time></trkpt><trkpt lat="44.6711367" lon="9.3094533"><ele>531.0</ele><time>2026-04-08T09:59:50.108Z</time></trkpt><trkpt lat="44.6712683" lon="9.3095367"><ele>530.0</ele><time>2026-04-08T09:59:51.109Z</time></trkpt><trkpt lat="44.67142" lon="9.3096383"><ele>529.0</ele><time>2026-04-08T09:59:52.108Z</time></trkpt><trkpt lat="44.6715883" lon="9.3096933"><ele>529.0</ele><time>2026-04-08T09:59:53.109Z</time></trkpt><trkpt lat="44.6717717" lon="9.3097"><ele>529.0</ele><time>2026-04-08T09:59:54.109Z</time></trkpt><trkpt lat="44.6719517" lon="9.3097067"><ele>529.0</ele><time>2026-04-08T09:59:55.109Z</time></trkpt><trkpt lat="44.6721283" lon="9.3096633"><ele>533.0</ele><time>2026-04-08T09:59:56.109Z</time></trkpt><trkpt lat="44.6723183" lon="9.3095517"><ele>537.0</ele><time>2026-04-08T09:59:57.108Z</time></trkpt><trkpt lat="44.6725" lon="9.309445"><ele>541.0</ele><time>2026-04-08T09:59:58.109Z</time></trkpt><trkpt lat="44.6726633" lon="9.30933"><ele>537.6666666666667</ele><time>2026-04-08T09:59:59.109Z</time></trkpt><trkpt lat="44.6728017" lon="9.3091717"><ele>534.3333333333334</ele><time>2026-04-08T10:00:00.109Z</time></trkpt><trkpt lat="44.6729167" lon="9.3089817"><ele>531.0</ele><time>2026-04-08T10:00:01.109Z</time></trkpt><trkpt lat="44.6730183" lon="9.3087967"><ele>531.0</ele><time>2026-04-08T10:00:02.109Z</time></trkpt><trkpt lat="44.673115" lon="9.3086417"><ele>531.0</ele><time>2026-04-08T10:00:03.109Z</time></trkpt><trkpt lat="44.6732217" lon="9.3085433"><ele>531.0</ele><time>2026-04-08T10:00:04.109Z</time></trkpt><trkpt lat="44.673335" lon="9.3084933"><ele>531.0</ele><time>2026-04-08T10:00:05.109Z</time></trkpt><trkpt lat="44.6734767" lon="9.3085433"><ele>529.6666666666666</ele><time>2026-04-08T10:00:06.108Z</time></trkpt><trkpt lat="44.6736333" lon="9.3086817"><ele>528.3333333333333</ele><time>2026-04-08T10:00:07.109Z</time></trkpt><trkpt lat="44.6737817" lon="9.308835"><ele>527.0</ele><time>2026-04-08T10:00:08.108Z</time></trkpt><trkpt lat="44.67393" lon="9.3089683"><ele>537.0</ele><time>2026-04-08T10:00:09.109Z</time></trkpt><trkpt lat="44.6740933" lon="9.30904"><ele>547.0</ele><time>2026-04-08T10:00:10.108Z</time></trkpt><trkpt lat="44.674265" lon="9.3090183"><ele>557.0</ele><time>2026-04-08T10:00:11.109Z</time></trkpt><trkpt lat="44.6744067" lon="9.309005"><ele>555.0</ele><time>2026-04-08T10:00:12.109Z</time></trkpt><trkpt lat="44.6745433" lon="9.309055"><ele>553.0</ele><time>2026-04-08T10:00:13.109Z</time></trkpt><trkpt lat="44.6746667" lon="9.3091333"><ele>551.0</ele><time>2026-04-08T10:00:14.109Z</time></trkpt><trkpt lat="44.674775" lon="9.309215"><ele>549.0</ele><time>2026-04-08T10:00:15.109Z</time></trkpt><trkpt lat="44.6748833" lon="9.3092667"><ele>549.0</ele><time>2026-04-08T10:00:16.109Z</time></trkpt><trkpt lat="44.674995" lon="9.3092483"><ele>549.0</ele><time>2026-04-08T10:00:17.108Z</time></trkpt><trkpt lat="44.6751183" lon="9.3091717"><ele>549.0</ele><time>2026-04-08T10:00:18.108Z</time></trkpt><trkpt lat="44.6752383" lon="9.3090717"><ele>549.0</ele><time>2026-04-08T10:00:19.109Z</time></trkpt><trkpt lat="44.675355" lon="9.308965"><ele>551.6</ele><time>2026-04-08T10:00:20.108Z</time></trkpt><trkpt lat="44.6754483" lon="9.30886"><ele>554.2</ele><time>2026-04-08T10:00:21.109Z</time></trkpt><trkpt lat="44.6755217" lon="9.3087567"><ele>556.8000000000001</ele><time>2026-04-08T10:00:22.109Z</time></trkpt><trkpt lat="44.675565" lon="9.308635"><ele>559.4</ele><time>2026-04-08T10:00:23.109Z</time></trkpt><trkpt lat="44.6755733" lon="9.30848"><ele>562.0</ele><time>2026-04-08T10:00:24.109Z</time></trkpt><trkpt lat="44.6754767" lon="9.3082383"><ele>561.3333333333334</ele><time>2026-04-08T10:00:25.108Z</time></trkpt><trkpt lat="44.6753" lon="9.30797"><ele>560.6666666666666</ele><time>2026-04-08T10:00:26.109Z</time></trkpt><trkpt lat="44.675245" lon="9.3077317"><ele>560.0</ele><time>2026-04-08T10:00:27.109Z</time></trkpt><trkpt lat="44.6752267" lon="9.3075117"><ele>558.0</ele><time>2026-04-08T10:00:28.108Z</time></trkpt><trkpt lat="44.6752467" lon="9.30731"><ele>556.0</ele><time>2026-04-08T10:00:29.109Z</time></trkpt><trkpt lat="44.6753283" lon="9.3071333"><ele>554.0</ele><time>2026-04-08T10:00:30.109Z</time></trkpt><trkpt lat="44.6754217" lon="9.307"><ele>552.0</ele><time>2026-04-08T10:00:31.109Z</time></trkpt><trkpt lat="44.6755167" lon="9.3069"><ele>552.0</ele><time>2026-04-08T10:00:32.109Z</time></trkpt><trkpt lat="44.6755867" lon="9.306775"><ele>552.0</ele><time>2026-04-08T10:00:33.108Z</time></trkpt><trkpt lat="44.6756233" lon="9.30663"><ele>552.0</ele><time>2026-04-08T10:00:34.109Z</time></trkpt><trkpt lat="44.6756367" lon="9.3064067"><ele>552.0</ele><time>2026-04-08T10:00:35.108Z</time></trkpt><trkpt lat="44.67568" lon="9.3061717"><ele>547.3333333333334</ele><time>2026-04-08T10:00:36.108Z</time></trkpt><trkpt lat="44.6757567" lon="9.3059333"><ele>542.6666666666667</ele><time>2026-04-08T10:00:37.109Z</time></trkpt><trkpt lat="44.6758633" lon="9.30572"><ele>538.0</ele><time>2026-04-08T10:00:38.108Z</time></trkpt><trkpt lat="44.6760033" lon="9.30553"><ele>535.3333333333334</ele><time>2026-04-08T10:00:39.109Z</time></trkpt><trkpt lat="44.6761667" lon="9.305375"><ele>532.6666666666666</ele><time>2026-04-08T10:00:40.109Z</time></trkpt><trkpt lat="44.6763633" lon="9.3052717"><ele>530.0</ele><time>2026-04-08T10:00:41.109Z</time></trkpt><trkpt lat="44.676615" lon="9.3052233"><ele>530.0</ele><time>2026-04-08T10:00:42.108Z</time></trkpt><trkpt lat="44.6768833" lon="9.3051767"><ele>530.0</ele><time>2026-04-08T10:00:43.108Z</time></trkpt><trkpt lat="44.677125" lon="9.3051367"><ele>530.3333333333333</ele><time>2026-04-08T10:00:44.108Z</time></trkpt><trkpt lat="44.677315" lon="9.305105"><ele>530.6666666666666</ele><time>2026-04-08T10:00:45.109Z</time></trkpt><trkpt lat="44.67746" lon="9.3050767"><ele>531.0</ele><time>2026-04-08T10:00:46.109Z</time></trkpt><trkpt lat="44.677575" lon="9.305015"><ele>531.0</ele><time>2026-04-08T10:00:47.109Z</time></trkpt><trkpt lat="44.677675" lon="9.3049483"><ele>531.0</ele><time>2026-04-08T10:00:48.109Z</time></trkpt><trkpt lat="44.677775" lon="9.3048383"><ele>531.0</ele><time>2026-04-08T10:00:49.109Z</time></trkpt><trkpt lat="44.6778817" lon="9.3047867"><ele>531.0</ele><time>2026-04-08T10:00:50.109Z</time></trkpt><trkpt lat="44.6780067" lon="9.3047367"><ele>528.25</ele><time>2026-04-08T10:00:51.109Z</time></trkpt><trkpt lat="44.67813" lon="9.30469"><ele>525.5</ele><time>2026-04-08T10:00:52.109Z</time></trkpt><trkpt lat="44.6782433" lon="9.3046217"><ele>522.75</ele><time>2026-04-08T10:00:53.108Z</time></trkpt><trkpt lat="44.6783383" lon="9.304495"><ele>520.0</ele><time>2026-04-08T10:00:54.109Z</time></trkpt><trkpt lat="44.6784267" lon="9.3043333"><ele>520.0</ele><time>2026-04-08T10:00:55.108Z</time></trkpt><trkpt lat="44.678555" lon="9.3041667"><ele>520.0</ele><time>2026-04-08T10:00:56.109Z</time></trkpt><trkpt lat="44.678715" lon="9.3040317"><ele>520.0</ele><time>2026-04-08T10:00:57.108Z</time></trkpt><trkpt lat="44.6788967" lon="9.303935"><ele>519.3333333333334</ele><time>2026-04-08T10:00:58.109Z</time></trkpt><trkpt lat="44.6791183" lon="9.3039117"><ele>518.6666666666666</ele><time>2026-04-08T10:00:59.109Z</time></trkpt><trkpt lat="44.6793317" lon="9.3038533"><ele>518.0</ele><time>2026-04-08T10:01:00.109Z</time></trkpt><trkpt lat="44.679525" lon="9.3037717"><ele>518.0</ele><time>2026-04-08T10:01:01.108Z</time></trkpt><trkpt lat="44.6796967" lon="9.3036417"><ele>518.0</ele><time>2026-04-08T10:01:02.109Z</time></trkpt><trkpt lat="44.6798417" lon="9.30351"><ele>518.0</ele><time>2026-04-08T10:01:03.108Z</time></trkpt><trkpt lat="44.67997" lon="9.303415"><ele>518.0</ele><time>2026-04-08T10:01:04.109Z</time></trkpt><trkpt lat="44.6800933" lon="9.303355"><ele>518.0</ele><time>2026-04-08T10:01:05.109Z</time></trkpt><trkpt lat="44.6802183" lon="9.3033367"><ele>518.0</ele><time>2026-04-08T10:01:06.109Z</time></trkpt><trkpt lat="44.6803567" lon="9.303375"><ele>518.0</ele><time>2026-04-08T10:01:07.108Z</time></trkpt><trkpt lat="44.6805067" lon="9.3035083"><ele>520.5</ele><time>2026-04-08T10:01:08.109Z</time></trkpt><trkpt lat="44.6806483" lon="9.3037933"><ele>523.0</ele><time>2026-04-08T10:01:09.109Z</time></trkpt><trkpt lat="44.68082" lon="9.3039833"><ele>523.0</ele><time>2026-04-08T10:01:10.109Z</time></trkpt><trkpt lat="44.6809917" lon="9.3041117"><ele>523.0</ele><time>2026-04-08T10:01:11.109Z</time></trkpt><trkpt lat="44.6811517" lon="9.3041767"><ele>523.0</ele><time>2026-04-08T10:01:12.109Z</time></trkpt><trkpt lat="44.681285" lon="9.304165"><ele>518.75</ele><time>2026-04-08T10:01:13.108Z</time></trkpt><trkpt lat="44.6814033" lon="9.304135"><ele>514.5</ele><time>2026-04-08T10:01:14.109Z</time></trkpt><trkpt lat="44.6815267" lon="9.3041067"><ele>510.25</ele><time>2026-04-08T10:01:15.109Z</time></trkpt><trkpt lat="44.681655" lon="9.304085"><ele>506.0</ele><time>2026-04-08T10:01:16.108Z</time></trkpt><trkpt lat="44.6817867" lon="9.3040633"><ele>504.3333333333333</ele><time>2026-04-08T10:01:17.109Z</time></trkpt><trkpt lat="44.6819367" lon="9.3040333"><ele>502.66666666666663</ele><time>2026-04-08T10:01:18.109Z</time></trkpt><trkpt lat="44.6821" lon="9.3040067"><ele>501.0</ele><time>2026-04-08T10:01:19.109Z</time></trkpt><trkpt lat="44.6822567" lon="9.3039683"><ele>501.0</ele><time>2026-04-08T10:01:20.109Z</time></trkpt><trkpt lat="44.682405" lon="9.3039583"><ele>501.0</ele><time>2026-04-08T10:01:21.109Z</time></trkpt><trkpt lat="44.682535" lon="9.3039867"><ele>501.0</ele><time>2026-04-08T10:01:22.109Z</time></trkpt><trkpt lat="44.68266" lon="9.3040583"><ele>501.0</ele><time>2026-04-08T10:01:23.109Z</time></trkpt><trkpt lat="44.68279" lon="9.3041833"><ele>497.66666666666663</ele><time>2026-04-08T10:01:24.109Z</time></trkpt><trkpt lat="44.682905" lon="9.3044017"><ele>494.3333333333333</ele><time>2026-04-08T10:01:25.109Z</time></trkpt><trkpt lat="44.6830017" lon="9.3046567"><ele>491.0</ele><time>2026-04-08T10:01:26.109Z</time></trkpt><trkpt lat="44.68305" lon="9.3049083"><ele>490.5</ele><time>2026-04-08T10:01:27.109Z</time></trkpt><trkpt lat="44.6830683" lon="9.3051283"><ele>490.0</ele><time>2026-04-08T10:01:28.109Z</time></trkpt><trkpt lat="44.6830683" lon="9.3053267"><ele>489.5</ele><time>2026-04-08T10:01:29.109Z</time></trkpt><trkpt lat="44.6830917" lon="9.3055167"><ele>489.0</ele><time>2026-04-08T10:01:30.109Z</time></trkpt><trkpt lat="44.6831683" lon="9.305705"><ele>492.0</ele><time>2026-04-08T10:01:31.109Z</time></trkpt><trkpt lat="44.683285" lon="9.30586"><ele>495.0</ele><time>2026-04-08T10:01:32.108Z</time></trkpt><trkpt lat="44.683425" lon="9.305945"><ele>498.0</ele><time>2026-04-08T10:01:33.109Z</time></trkpt><trkpt lat="44.6835583" lon="9.3060583"><ele>492.33333333333337</ele><time>2026-04-08T10:01:34.109Z</time></trkpt><trkpt lat="44.6836683" lon="9.3062083"><ele>486.6666666666667</ele><time>2026-04-08T10:01:35.108Z</time></trkpt><trkpt lat="44.6837383" lon="9.306405"><ele>481.0</ele><time>2026-04-08T10:01:36.109Z</time></trkpt><trkpt lat="44.6837633" lon="9.3066083"><ele>481.0</ele><time>2026-04-08T10:01:37.108Z</time></trkpt><trkpt lat="44.6837433" lon="9.306835"><ele>481.0</ele><time>2026-04-08T10:01:38.109Z</time></trkpt><trkpt lat="44.6837083" lon="9.3070883"><ele>481.0</ele><time>2026-04-08T10:01:39.109Z</time></trkpt><trkpt lat="44.683645" lon="9.3073533"><ele>487.0</ele><time>2026-04-08T10:01:40.109Z</time></trkpt><trkpt lat="44.6835667" lon="9.3075933"><ele>493.0</ele><time>2026-04-08T10:01:41.109Z</time></trkpt><trkpt lat="44.683435" lon="9.3077767"><ele>499.0</ele><time>2026-04-08T10:01:42.108Z</time></trkpt><trkpt lat="44.683325" lon="9.3079167"><ele>499.0</ele><time>2026-04-08T10:01:43.109Z</time></trkpt><trkpt lat="44.6832533" lon="9.3080467"><ele>499.0</ele><time>2026-04-08T10:01:44.108Z</time></trkpt><trkpt lat="44.683225" lon="9.30818"><ele>499.0</ele><time>2026-04-08T10:01:45.109Z</time></trkpt><trkpt lat="44.68324" lon="9.3083183"><ele>499.0</ele><time>2026-04-08T10:01:46.109Z</time></trkpt><trkpt lat="44.6833183" lon="9.308435"><ele>499.0</ele><time>2026-04-08T10:01:47.109Z</time></trkpt><trkpt lat="44.6834467" lon="9.3085267"><ele>497.0</ele><time>2026-04-08T10:01:48.108Z</time></trkpt><trkpt lat="44.6835583" lon="9.3086533"><ele>495.0</ele><time>2026-04-08T10:01:49.109Z</time></trkpt><trkpt lat="44.6836617" lon="9.3088033"><ele>493.0</ele><time>2026-04-08T10:01:50.108Z</time></trkpt><trkpt lat="44.68375" lon="9.3089517"><ele>491.0</ele><time>2026-04-08T10:01:51.109Z</time></trkpt><trkpt lat="44.6838417" lon="9.3090783"><ele>491.0</ele><time>2026-04-08T10:01:52.109Z</time></trkpt><trkpt lat="44.6839433" lon="9.3091883"><ele>491.0</ele><time>2026-04-08T10:01:53.109Z</time></trkpt><trkpt lat="44.684075" lon="9.3092733"><ele>491.0</ele><time>2026-04-08T10:01:54.109Z</time></trkpt><trkpt lat="44.6842017" lon="9.3093433"><ele>491.0</ele><time>2026-04-08T10:01:55.109Z</time></trkpt><trkpt lat="44.6844333" lon="9.3092817"><ele>490.66666666666663</ele><time>2026-04-08T10:01:56.109Z</time></trkpt><trkpt lat="44.6845933" lon="9.30922"><ele>490.33333333333337</ele><time>2026-04-08T10:01:57.109Z</time></trkpt><trkpt lat="44.6848067" lon="9.3091233"><ele>490.0</ele><time>2026-04-08T10:01:58.109Z</time></trkpt><trkpt lat="44.6850033" lon="9.3090617"><ele>490.0</ele><time>2026-04-08T10:01:59.109Z</time></trkpt><trkpt lat="44.68522" lon="9.3090067"><ele>490.0</ele><time>2026-04-08T10:02:00.109Z</time></trkpt><trkpt lat="44.6854467" lon="9.3090017"><ele>490.0</ele><time>2026-04-08T10:02:01.108Z</time></trkpt><trkpt lat="44.6856617" lon="9.3089683"><ele>490.33333333333337</ele><time>2026-04-08T10:02:02.109Z</time></trkpt><trkpt lat="44.6858583" lon="9.3089533"><ele>490.66666666666663</ele><time>2026-04-08T10:02:03.109Z</time></trkpt><trkpt lat="44.6860417" lon="9.30895"><ele>491.0</ele><time>2026-04-08T10:02:04.109Z</time></trkpt><trkpt lat="44.6862333" lon="9.3089617"><ele>483.3333333333333</ele><time>2026-04-08T10:02:05.109Z</time></trkpt><trkpt lat="44.6864183" lon="9.309025"><ele>475.66666666666663</ele><time>2026-04-08T10:02:06.109Z</time></trkpt><trkpt lat="44.686595" lon="9.309075"><ele>468.0</ele><time>2026-04-08T10:02:07.109Z</time></trkpt><trkpt lat="44.6867383" lon="9.3091417"><ele>468.0</ele><time>2026-04-08T10:02:08.109Z</time></trkpt><trkpt lat="44.686855" lon="9.3092733"><ele>468.0</ele><time>2026-04-08T10:02:09.109Z</time></trkpt><trkpt lat="44.6869383" lon="9.309445"><ele>468.0</ele><time>2026-04-08T10:02:10.108Z</time></trkpt><trkpt lat="44.6869633" lon="9.3096383"><ele>468.0</ele><time>2026-04-08T10:02:11.109Z</time></trkpt><trkpt lat="44.6869367" lon="9.309835"><ele>468.66666666666663</ele><time>2026-04-08T10:02:12.108Z</time></trkpt><trkpt lat="44.6868433" lon="9.3100367"><ele>469.3333333333333</ele><time>2026-04-08T10:02:13.109Z</time></trkpt><trkpt lat="44.6867067" lon="9.31019"><ele>470.0</ele><time>2026-04-08T10:02:14.108Z</time></trkpt><trkpt lat="44.6865383" lon="9.3102633"><ele>470.0</ele><time>2026-04-08T10:02:15.109Z</time></trkpt><trkpt lat="44.6863983" lon="9.3103517"><ele>470.0</ele><time>2026-04-08T10:02:16.109Z</time></trkpt><trkpt lat="44.6862733" lon="9.31056"><ele>470.0</ele><time>2026-04-08T10:02:17.108Z</time></trkpt><trkpt lat="44.6861817" lon="9.3108"><ele>465.3333333333333</ele><time>2026-04-08T10:02:18.109Z</time></trkpt><trkpt lat="44.6861317" lon="9.3110317"><ele>460.66666666666663</ele><time>2026-04-08T10:02:19.109Z</time></trkpt><trkpt lat="44.6861167" lon="9.3112717"><ele>456.0</ele><time>2026-04-08T10:02:20.108Z</time></trkpt><trkpt lat="44.68615" lon="9.3114967"><ele>456.0</ele><time>2026-04-08T10:02:21.109Z</time></trkpt><trkpt lat="44.68626" lon="9.3116783"><ele>456.0</ele><time>2026-04-08T10:02:22.108Z</time></trkpt><trkpt lat="44.6864533" lon="9.3117667"><ele>456.0</ele><time>2026-04-08T10:02:23.108Z</time></trkpt><trkpt lat="44.6865967" lon="9.3119383"><ele>456.0</ele><time>2026-04-08T10:02:24.109Z</time></trkpt><trkpt lat="44.686725" lon="9.3121517"><ele>456.0</ele><time>2026-04-08T10:02:25.108Z</time></trkpt><trkpt lat="44.68686" lon="9.3123867"><ele>456.0</ele><time>2026-04-08T10:02:26.108Z</time></trkpt><trkpt lat="44.6869617" lon="9.3126483"><ele>451.33333333333337</ele><time>2026-04-08T10:02:27.109Z</time></trkpt><trkpt lat="44.6870517" lon="9.3129067"><ele>446.6666666666667</ele><time>2026-04-08T10:02:28.109Z</time></trkpt><trkpt lat="44.687115" lon="9.3131367"><ele>442.0</ele><time>2026-04-08T10:02:29.109Z</time></trkpt><trkpt lat="44.6871783" lon="9.3133283"><ele>442.0</ele><time>2026-04-08T10:02:30.109Z</time></trkpt><trkpt lat="44.6872617" lon="9.3134883"><ele>442.0</ele><time>2026-04-08T10:02:31.109Z</time></trkpt><trkpt lat="44.6873933" lon="9.31359"><ele>442.0</ele><time>2026-04-08T10:02:32.109Z</time></trkpt><trkpt lat="44.687515" lon="9.3136933"><ele>442.0</ele><time>2026-04-08T10:02:33.108Z</time></trkpt><trkpt lat="44.6876117" lon="9.3138267"><ele>446.33333333333337</ele><time>2026-04-08T10:02:34.109Z</time></trkpt><trkpt lat="44.6876617" lon="9.3140083"><ele>450.66666666666663</ele><time>2026-04-08T10:02:35.109Z</time></trkpt><trkpt lat="44.6876683" lon="9.3142233"><ele>455.0</ele><time>2026-04-08T10:02:36.109Z</time></trkpt><trkpt lat="44.6876383" lon="9.31445"><ele>455.0</ele><time>2026-04-08T10:02:37.108Z</time></trkpt><trkpt lat="44.687585" lon="9.3146767"><ele>455.0</ele><time>2026-04-08T10:02:38.109Z</time></trkpt><trkpt lat="44.6875083" lon="9.314885"><ele>455.0</ele><time>2026-04-08T10:02:39.109Z</time></trkpt><trkpt lat="44.6874167" lon="9.31506"><ele>452.5</ele><time>2026-04-08T10:02:40.108Z</time></trkpt><trkpt lat="44.6873383" lon="9.315215"><ele>450.0</ele><time>2026-04-08T10:02:41.109Z</time></trkpt><trkpt lat="44.6873067" lon="9.315385"><ele>447.5</ele><time>2026-04-08T10:02:42.109Z</time></trkpt><trkpt lat="44.6873217" lon="9.3155883"><ele>445.0</ele><time>2026-04-08T10:02:43.108Z</time></trkpt><trkpt lat="44.687345" lon="9.31581"><ele>440.6666666666667</ele><time>2026-04-08T10:02:44.109Z</time></trkpt><trkpt lat="44.687335" lon="9.3160583"><ele>436.33333333333337</ele><time>2026-04-08T10:02:45.109Z</time></trkpt><trkpt lat="44.6873067" lon="9.316355"><ele>432.0</ele><time>2026-04-08T10:02:46.109Z</time></trkpt><trkpt lat="44.68725" lon="9.31663"><ele>429.5</ele><time>2026-04-08T10:02:47.109Z</time></trkpt><trkpt lat="44.6872083" lon="9.3168583"><ele>427.0</ele><time>2026-04-08T10:02:48.109Z</time></trkpt><trkpt lat="44.6872" lon="9.3170517"><ele>424.5</ele><time>2026-04-08T10:02:49.109Z</time></trkpt><trkpt lat="44.687215" lon="9.3172283"><ele>422.0</ele><time>2026-04-08T10:02:50.109Z</time></trkpt><trkpt lat="44.687215" lon="9.3174"><ele>419.0</ele><time>2026-04-08T10:02:51.109Z</time></trkpt><trkpt lat="44.68719" lon="9.3175667"><ele>416.0</ele><time>2026-04-08T10:02:52.109Z</time></trkpt><trkpt lat="44.6871083" lon="9.3177267"><ele>413.0</ele><time>2026-04-08T10:02:53.109Z</time></trkpt><trkpt lat="44.6870017" lon="9.3179167"><ele>410.0</ele><time>2026-04-08T10:02:54.108Z</time></trkpt><trkpt lat="44.6869167" lon="9.3181383"><ele>422.3333333333333</ele><time>2026-04-08T10:02:55.109Z</time></trkpt><trkpt lat="44.6868567" lon="9.3183767"><ele>434.66666666666663</ele><time>2026-04-08T10:02:56.108Z</time></trkpt><trkpt lat="44.68683" lon="9.318615"><ele>447.0</ele><time>2026-04-08T10:02:57.109Z</time></trkpt><trkpt lat="44.6868583" lon="9.3188667"><ele>447.33333333333337</ele><time>2026-04-08T10:02:58.109Z</time></trkpt><trkpt lat="44.6869167" lon="9.3191083"><ele>447.6666666666667</ele><time>2026-04-08T10:02:59.109Z</time></trkpt><trkpt lat="44.68699" lon="9.3193083"><ele>448.0</ele><time>2026-04-08T10:03:00.109Z</time></trkpt><trkpt lat="44.6870667" lon="9.3194733"><ele>440.75</ele><time>2026-04-08T10:03:01.109Z</time></trkpt><trkpt lat="44.6872017" lon="9.3195833"><ele>433.5</ele><time>2026-04-08T10:03:02.108Z</time></trkpt><trkpt lat="44.6873083" lon="9.3196467"><ele>426.25</ele><time>2026-04-08T10:03:03.109Z</time></trkpt><trkpt lat="44.68744" lon="9.3196383"><ele>419.0</ele><time>2026-04-08T10:03:04.109Z</time></trkpt><trkpt lat="44.6876233" lon="9.3194483"><ele>419.0</ele><time>2026-04-08T10:03:05.109Z</time></trkpt><trkpt lat="44.68775" lon="9.3194183"><ele>419.0</ele><time>2026-04-08T10:03:06.109Z</time></trkpt><trkpt lat="44.68787" lon="9.3194417"><ele>419.0</ele><time>2026-04-08T10:03:07.109Z</time></trkpt><trkpt lat="44.687985" lon="9.319495"><ele>419.0</ele><time>2026-04-08T10:03:08.109Z</time></trkpt><trkpt lat="44.6880783" lon="9.3196083"><ele>410.66666666666663</ele><time>2026-04-08T10:03:09.109Z</time></trkpt><trkpt lat="44.6881183" lon="9.3197883"><ele>402.33333333333337</ele><time>2026-04-08T10:03:10.109Z</time></trkpt><trkpt lat="44.688125" lon="9.32004"><ele>394.0</ele><time>2026-04-08T10:03:11.109Z</time></trkpt><trkpt lat="44.6881017" lon="9.32037"><ele>397.0</ele><time>2026-04-08T10:03:12.108Z</time></trkpt><trkpt lat="44.6880617" lon="9.3207233"><ele>400.0</ele><time>2026-04-08T10:03:13.109Z</time></trkpt><trkpt lat="44.6880467" lon="9.321055"><ele>400.0</ele><time>2026-04-08T10:03:14.108Z</time></trkpt><trkpt lat="44.688045" lon="9.3213533"><ele>400.0</ele><time>2026-04-08T10:03:15.109Z</time></trkpt><trkpt lat="44.6880683" lon="9.321625"><ele>400.0</ele><time>2026-04-08T10:03:16.109Z</time></trkpt><trkpt lat="44.6881233" lon="9.321865"><ele>401.33333333333337</ele><time>2026-04-08T10:03:17.109Z</time></trkpt><trkpt lat="44.6881717" lon="9.3220783"><ele>402.66666666666663</ele><time>2026-04-08T10:03:18.109Z</time></trkpt><trkpt lat="44.6882267" lon="9.3222833"><ele>404.0</ele><time>2026-04-08T10:03:19.109Z</time></trkpt><trkpt lat="44.6882217" lon="9.3225017"><ele>404.0</ele><time>2026-04-08T10:03:20.109Z</time></trkpt><trkpt lat="44.68824" lon="9.3227017"><ele>404.0</ele><time>2026-04-08T10:03:21.108Z</time></trkpt><trkpt lat="44.6882917" lon="9.3228783"><ele>404.0</ele><time>2026-04-08T10:03:22.109Z</time></trkpt><trkpt lat="44.688405" lon="9.32302"><ele>404.0</ele><time>2026-04-08T10:03:23.109Z</time></trkpt><trkpt lat="44.6885567" lon="9.3231017"><ele>400.75</ele><time>2026-04-08T10:03:24.109Z</time></trkpt><trkpt lat="44.68871" lon="9.3231667"><ele>397.5</ele><time>2026-04-08T10:03:25.108Z</time></trkpt><trkpt lat="44.6888433" lon="9.3232517"><ele>394.25</ele><time>2026-04-08T10:03:26.109Z</time></trkpt><trkpt lat="44.68896" lon="9.3233667"><ele>391.0</ele><time>2026-04-08T10:03:27.109Z</time></trkpt><trkpt lat="44.68907" lon="9.3235283"><ele>391.0</ele><time>2026-04-08T10:03:28.108Z</time></trkpt><trkpt lat="44.6891683" lon="9.3236967"><ele>391.0</ele><time>2026-04-08T10:03:29.109Z</time></trkpt><trkpt lat="44.68924" lon="9.3238833"><ele>391.0</ele><time>2026-04-08T10:03:30.109Z</time></trkpt><trkpt lat="44.6892733" lon="9.3240617"><ele>391.0</ele><time>2026-04-08T10:03:31.109Z</time></trkpt><trkpt lat="44.68929" lon="9.3242083"><ele>391.20000000000005</ele><time>2026-04-08T10:03:32.109Z</time></trkpt><trkpt lat="44.6892883" lon="9.32432"><ele>391.40000000000003</ele><time>2026-04-08T10:03:33.109Z</time></trkpt><trkpt lat="44.6892883" lon="9.3244217"><ele>391.6</ele><time>2026-04-08T10:03:34.109Z</time></trkpt><trkpt lat="44.68927" lon="9.3245433"><ele>391.8</ele><time>2026-04-08T10:03:36.109Z</time></trkpt><trkpt lat="44.6893183" lon="9.3246967"><ele>392.0</ele><time>2026-04-08T10:04:51.11Z</time></trkpt><trkpt lat="44.689325" lon="9.3249083"><ele>392.0</ele><time>2026-04-08T10:04:52.109Z</time></trkpt><trkpt lat="44.6893367" lon="9.325115"><ele>392.0</ele><time>2026-04-08T10:04:53.11Z</time></trkpt><trkpt lat="44.6893483" lon="9.325335"><ele>392.0</ele><time>2026-04-08T10:04:54.11Z</time></trkpt><trkpt lat="44.689325" lon="9.325575"><ele>391.25</ele><time>2026-04-08T10:04:55.11Z</time></trkpt><trkpt lat="44.6893067" lon="9.3258017"><ele>390.5</ele><time>2026-04-08T10:04:56.11Z</time></trkpt><trkpt lat="44.6892833" lon="9.3260067"><ele>389.75</ele><time>2026-04-08T10:04:57.11Z</time></trkpt><trkpt lat="44.6892517" lon="9.326195"><ele>389.0</ele><time>2026-04-08T10:04:58.11Z</time></trkpt><trkpt lat="44.6892183" lon="9.3263717"><ele>388.0</ele><time>2026-04-08T10:04:59.11Z</time></trkpt><trkpt lat="44.6891867" lon="9.3265417"><ele>387.0</ele><time>2026-04-08T10:05:00.11Z</time></trkpt><trkpt lat="44.68915" lon="9.326715"><ele>386.0</ele><time>2026-04-08T10:05:01.109Z</time></trkpt><trkpt lat="44.689135" lon="9.326895"><ele>385.0</ele><time>2026-04-08T10:05:02.109Z</time></trkpt><trkpt lat="44.6891283" lon="9.3270767"><ele>383.6</ele><time>2026-04-08T10:05:03.11Z</time></trkpt><trkpt lat="44.6891167" lon="9.3272467"><ele>382.2</ele><time>2026-04-08T10:05:04.11Z</time></trkpt><trkpt lat="44.6891" lon="9.327395"><ele>380.79999999999995</ele><time>2026-04-08T10:05:05.11Z</time></trkpt><trkpt lat="44.6890817" lon="9.3275317"><ele>379.4</ele><time>2026-04-08T10:05:06.11Z</time></trkpt><trkpt lat="44.6890633" lon="9.3276633"><ele>378.0</ele><time>2026-04-08T10:05:07.11Z</time></trkpt><trkpt lat="44.6890433" lon="9.3278033"><ele>378.0</ele><time>2026-04-08T10:05:08.11Z</time></trkpt><trkpt lat="44.68902" lon="9.3279533"><ele>378.0</ele><time>2026-04-08T10:05:09.11Z</time></trkpt><trkpt lat="44.6889917" lon="9.3281067"><ele>378.0</ele><time>2026-04-08T10:05:10.11Z</time></trkpt><trkpt lat="44.6889567" lon="9.3282483"><ele>378.0</ele><time>2026-04-08T10:05:11.11Z</time></trkpt><trkpt lat="44.6889233" lon="9.3283767"><ele>378.0</ele><time>2026-04-08T10:05:12.11Z</time></trkpt><trkpt lat="44.6889" lon="9.3285"><ele>377.1666666666667</ele><time>2026-04-08T10:05:13.109Z</time></trkpt><trkpt lat="44.6888833" lon="9.3286117"><ele>376.3333333333333</ele><time>2026-04-08T10:05:14.11Z</time></trkpt><trkpt lat="44.6888733" lon="9.3287067"><ele>375.5</ele><time>2026-04-08T10:05:15.11Z</time></trkpt><trkpt lat="44.6888817" lon="9.3288067"><ele>374.66666666666663</ele><time>2026-04-08T10:05:16.11Z</time></trkpt><trkpt lat="44.6889217" lon="9.3288867"><ele>373.8333333333333</ele><time>2026-04-08T10:05:17.11Z</time></trkpt><trkpt lat="44.6889633" lon="9.3289717"><ele>373.0</ele><time>2026-04-08T10:05:18.11Z</time></trkpt><trkpt lat="44.68903" lon="9.3290567"><ele>373.66666666666663</ele><time>2026-04-08T10:05:19.11Z</time></trkpt><trkpt lat="44.6891583" lon="9.3291367"><ele>374.3333333333333</ele><time>2026-04-08T10:05:20.11Z</time></trkpt><trkpt lat="44.6893317" lon="9.3292183"><ele>375.0</ele><time>2026-04-08T10:05:21.11Z</time></trkpt><trkpt lat="44.6894883" lon="9.3293117"><ele>375.0</ele><time>2026-04-08T10:05:22.11Z</time></trkpt><trkpt lat="44.6896417" lon="9.3294017"><ele>375.0</ele><time>2026-04-08T10:05:23.11Z</time></trkpt><trkpt lat="44.6897933" lon="9.3294917"><ele>375.0</ele><time>2026-04-08T10:05:24.11Z</time></trkpt><trkpt lat="44.6899383" lon="9.32957"><ele>375.0</ele><time>2026-04-08T10:05:25.11Z</time></trkpt><trkpt lat="44.690065" lon="9.329655"><ele>375.0</ele><time>2026-04-08T10:05:26.109Z</time></trkpt><trkpt lat="44.6901733" lon="9.3297583"><ele>375.0</ele><time>2026-04-08T10:05:27.11Z</time></trkpt><trkpt lat="44.6902267" lon="9.3299317"><ele>375.0</ele><time>2026-04-08T10:05:28.11Z</time></trkpt><trkpt lat="44.690235" lon="9.3301483"><ele>375.0</ele><time>2026-04-08T10:05:29.11Z</time></trkpt><trkpt lat="44.6902133" lon="9.3304"><ele>375.0</ele><time>2026-04-08T10:05:30.11Z</time></trkpt><trkpt lat="44.6901767" lon="9.3306633"><ele>375.0</ele><time>2026-04-08T10:05:31.11Z</time></trkpt><trkpt lat="44.6901533" lon="9.3309133"><ele>375.0</ele><time>2026-04-08T10:05:32.11Z</time></trkpt><trkpt lat="44.6901683" lon="9.3311633"><ele>375.0</ele><time>2026-04-08T10:05:33.11Z</time></trkpt><trkpt lat="44.6902117" lon="9.3314017"><ele>375.0</ele><time>2026-04-08T10:05:34.11Z</time></trkpt><trkpt lat="44.6902733" lon="9.3316283"><ele>384.66666666666663</ele><time>2026-04-08T10:05:35.11Z</time></trkpt><trkpt lat="44.6903717" lon="9.331845"><ele>394.3333333333333</ele><time>2026-04-08T10:05:36.11Z</time></trkpt><trkpt lat="44.6904833" lon="9.33203"><ele>404.0</ele><time>2026-04-08T10:05:37.109Z</time></trkpt><trkpt lat="44.690605" lon="9.3321633"><ele>402.25</ele><time>2026-04-08T10:05:38.109Z</time></trkpt><trkpt lat="44.69074" lon="9.3322483"><ele>400.5</ele><time>2026-04-08T10:05:39.11Z</time></trkpt><trkpt lat="44.69086" lon="9.332305"><ele>398.75</ele><time>2026-04-08T10:05:40.11Z</time></trkpt><trkpt lat="44.6909317" lon="9.3323767"><ele>397.0</ele><time>2026-04-08T10:05:41.11Z</time></trkpt><trkpt lat="44.6909933" lon="9.33247"><ele>397.0</ele><time>2026-04-08T10:05:42.11Z</time></trkpt><trkpt lat="44.6909817" lon="9.3325983"><ele>397.0</ele><time>2026-04-08T10:05:43.11Z</time></trkpt><trkpt lat="44.6909433" lon="9.3327083"><ele>397.0</ele><time>2026-04-08T10:05:44.11Z</time></trkpt><trkpt lat="44.69088" lon="9.3327967"><ele>397.0</ele><time>2026-04-08T10:05:45.11Z</time></trkpt><trkpt lat="44.6906883" lon="9.3327783"><ele>397.0</ele><time>2026-04-08T10:05:46.11Z</time></trkpt><trkpt lat="44.6905283" lon="9.3328083"><ele>397.0</ele><time>2026-04-08T10:05:47.11Z</time></trkpt><trkpt lat="44.6903783" lon="9.3328733"><ele>397.0</ele><time>2026-04-08T10:05:48.11Z</time></trkpt><trkpt lat="44.6902433" lon="9.33296"><ele>396.5</ele><time>2026-04-08T10:05:49.11Z</time></trkpt><trkpt lat="44.6901283" lon="9.3330617"><ele>396.0</ele><time>2026-04-08T10:05:50.11Z</time></trkpt><trkpt lat="44.6900517" lon="9.3332067"><ele>395.5</ele><time>2026-04-08T10:05:51.11Z</time></trkpt><trkpt lat="44.6900533" lon="9.3334467"><ele>395.0</ele><time>2026-04-08T10:05:52.11Z</time></trkpt><trkpt lat="44.6900733" lon="9.3337433"><ele>395.66666666666663</ele><time>2026-04-08T10:05:53.11Z</time></trkpt><trkpt lat="44.6900867" lon="9.3340267"><ele>396.33333333333337</ele><time>2026-04-08T10:05:54.109Z</time></trkpt><trkpt lat="44.6901183" lon="9.3342967"><ele>397.0</ele><time>2026-04-08T10:05:55.11Z</time></trkpt><trkpt lat="44.69019" lon="9.3345583"><ele>405.33333333333337</ele><time>2026-04-08T10:05:56.11Z</time></trkpt><trkpt lat="44.6902983" lon="9.3347967"><ele>413.66666666666663</ele><time>2026-04-08T10:05:57.11Z</time></trkpt><trkpt lat="44.69041" lon="9.335025"><ele>422.0</ele><time>2026-04-08T10:05:58.11Z</time></trkpt><trkpt lat="44.6905" lon="9.3352667"><ele>422.0</ele><time>2026-04-08T10:05:59.11Z</time></trkpt><trkpt lat="44.69055" lon="9.3355417"><ele>422.0</ele><time>2026-04-08T10:06:00.11Z</time></trkpt><trkpt lat="44.690575" lon="9.3358567"><ele>422.0</ele><time>2026-04-08T10:06:01.11Z</time></trkpt><trkpt lat="44.6905817" lon="9.3362083"><ele>422.3333333333333</ele><time>2026-04-08T10:06:02.11Z</time></trkpt><trkpt lat="44.6905767" lon="9.3365217"><ele>422.66666666666663</ele><time>2026-04-08T10:06:03.11Z</time></trkpt><trkpt lat="44.6905517" lon="9.3367883"><ele>423.0</ele><time>2026-04-08T10:06:04.11Z</time></trkpt><trkpt lat="44.6905367" lon="9.3370083"><ele>422.0</ele><time>2026-04-08T10:06:05.11Z</time></trkpt><trkpt lat="44.6905583" lon="9.33722"><ele>421.0</ele><time>2026-04-08T10:06:06.11Z</time></trkpt><trkpt lat="44.6906283" lon="9.33744"><ele>420.0</ele><time>2026-04-08T10:06:07.11Z</time></trkpt><trkpt lat="44.6907533" lon="9.3376317"><ele>420.0</ele><time>2026-04-08T10:06:08.11Z</time></trkpt><trkpt lat="44.6908933" lon="9.3377717"><ele>420.0</ele><time>2026-04-08T10:06:09.109Z</time></trkpt><trkpt lat="44.69106" lon="9.337885"><ele>420.0</ele><time>2026-04-08T10:06:10.11Z</time></trkpt><trkpt lat="44.69125" lon="9.3379567"><ele>420.0</ele><time>2026-04-08T10:06:11.11Z</time></trkpt><trkpt lat="44.6914383" lon="9.3379967"><ele>420.0</ele><time>2026-04-08T10:06:12.11Z</time></trkpt><trkpt lat="44.69159" lon="9.338075"><ele>420.0</ele><time>2026-04-08T10:06:13.109Z</time></trkpt><trkpt lat="44.6917167" lon="9.338195"><ele>420.0</ele><time>2026-04-08T10:06:14.11Z</time></trkpt><trkpt lat="44.6917983" lon="9.33835"><ele>420.0</ele><time>2026-04-08T10:06:15.109Z</time></trkpt><trkpt lat="44.6918083" lon="9.3385317"><ele>420.0</ele><time>2026-04-08T10:06:16.109Z</time></trkpt><trkpt lat="44.6917683" lon="9.338715"><ele>420.0</ele><time>2026-04-08T10:06:17.11Z</time></trkpt><trkpt lat="44.6916467" lon="9.33891"><ele>420.25</ele><time>2026-04-08T10:06:18.11Z</time></trkpt><trkpt lat="44.691535" lon="9.339085"><ele>420.5</ele><time>2026-04-08T10:06:19.11Z</time></trkpt><trkpt lat="44.69146" lon="9.3392617"><ele>420.75</ele><time>2026-04-08T10:06:20.11Z</time></trkpt><trkpt lat="44.6914117" lon="9.339435"><ele>421.0</ele><time>2026-04-08T10:06:21.11Z</time></trkpt><trkpt lat="44.69142" lon="9.339605"><ele>421.5</ele><time>2026-04-08T10:06:22.109Z</time></trkpt><trkpt lat="44.6914867" lon="9.33978"><ele>422.0</ele><time>2026-04-08T10:06:23.109Z</time></trkpt><trkpt lat="44.6915333" lon="9.3399667"><ele>422.5</ele><time>2026-04-08T10:06:24.11Z</time></trkpt><trkpt lat="44.6915283" lon="9.3401817"><ele>423.0</ele><time>2026-04-08T10:06:25.11Z</time></trkpt><trkpt lat="44.69147" lon="9.3404267"><ele>422.66666666666663</ele><time>2026-04-08T10:06:26.11Z</time></trkpt><trkpt lat="44.6914167" lon="9.340685"><ele>422.3333333333333</ele><time>2026-04-08T10:06:27.11Z</time></trkpt><trkpt lat="44.6913933" lon="9.3409433"><ele>422.0</ele><time>2026-04-08T10:06:28.11Z</time></trkpt><trkpt lat="44.691415" lon="9.3412017"><ele>420.3333333333333</ele><time>2026-04-08T10:06:29.11Z</time></trkpt><trkpt lat="44.6914533" lon="9.3414533"><ele>418.66666666666663</ele><time>2026-04-08T10:06:30.11Z</time></trkpt><trkpt lat="44.6914683" lon="9.3416817"><ele>417.0</ele><time>2026-04-08T10:06:31.11Z</time></trkpt><trkpt lat="44.6914433" lon="9.34188"><ele>417.0</ele><time>2026-04-08T10:06:32.11Z</time></trkpt><trkpt lat="44.6914233" lon="9.342055"><ele>417.0</ele><time>2026-04-08T10:06:33.11Z</time></trkpt><trkpt lat="44.6914317" lon="9.342215"><ele>417.0</ele><time>2026-04-08T10:06:34.11Z</time></trkpt><trkpt lat="44.6915033" lon="9.3423517"><ele>417.0</ele><time>2026-04-08T10:06:35.11Z</time></trkpt><trkpt lat="44.6916117" lon="9.3424317"><ele>415.66666666666663</ele><time>2026-04-08T10:06:36.109Z</time></trkpt><trkpt lat="44.6917567" lon="9.342445"><ele>414.3333333333333</ele><time>2026-04-08T10:06:37.11Z</time></trkpt><trkpt lat="44.691935" lon="9.3423467"><ele>413.0</ele><time>2026-04-08T10:06:38.109Z</time></trkpt><trkpt lat="44.6921133" lon="9.3421783"><ele>413.0</ele><time>2026-04-08T10:06:39.11Z</time></trkpt><trkpt lat="44.6922667" lon="9.341985"><ele>413.0</ele><time>2026-04-08T10:06:40.109Z</time></trkpt><trkpt lat="44.6923883" lon="9.3417483"><ele>413.0</ele><time>2026-04-08T10:06:41.11Z</time></trkpt><trkpt lat="44.692505" lon="9.3415283"><ele>421.66666666666663</ele><time>2026-04-08T10:06:42.11Z</time></trkpt><trkpt lat="44.69262" lon="9.3413483"><ele>430.33333333333337</ele><time>2026-04-08T10:06:43.11Z</time></trkpt><trkpt lat="44.6927483" lon="9.341225"><ele>439.0</ele><time>2026-04-08T10:06:44.11Z</time></trkpt><trkpt lat="44.6928833" lon="9.3411517"><ele>439.75</ele><time>2026-04-08T10:06:45.109Z</time></trkpt><trkpt lat="44.6930433" lon="9.341145"><ele>440.5</ele><time>2026-04-08T10:06:46.11Z</time></trkpt><trkpt lat="44.6931833" lon="9.3411617"><ele>441.25</ele><time>2026-04-08T10:06:47.11Z</time></trkpt><trkpt lat="44.6933017" lon="9.3412417"><ele>442.0</ele><time>2026-04-08T10:06:48.11Z</time></trkpt><trkpt lat="44.6933817" lon="9.3413967"><ele>434.5</ele><time>2026-04-08T10:06:49.11Z</time></trkpt><trkpt lat="44.69341" lon="9.3415917"><ele>427.0</ele><time>2026-04-08T10:06:50.109Z</time></trkpt><trkpt lat="44.6933917" lon="9.3417867"><ele>419.5</ele><time>2026-04-08T10:06:51.109Z</time></trkpt><trkpt lat="44.693335" lon="9.3419717"><ele>412.0</ele><time>2026-04-08T10:06:52.11Z</time></trkpt><trkpt lat="44.6932333" lon="9.3421467"><ele>416.0</ele><time>2026-04-08T10:06:53.11Z</time></trkpt><trkpt lat="44.6931117" lon="9.3423383"><ele>420.0</ele><time>2026-04-08T10:06:54.11Z</time></trkpt><trkpt lat="44.6929567" lon="9.3425867"><ele>424.0</ele><time>2026-04-08T10:06:55.11Z</time></trkpt><trkpt lat="44.69284" lon="9.3428417"><ele>418.33333333333337</ele><time>2026-04-08T10:06:56.11Z</time></trkpt><trkpt lat="44.6927533" lon="9.3431217"><ele>412.66666666666663</ele><time>2026-04-08T10:06:57.109Z</time></trkpt><trkpt lat="44.692655" lon="9.3433817"><ele>407.0</ele><time>2026-04-08T10:06:58.11Z</time></trkpt><trkpt lat="44.6925283" lon="9.3436217"><ele>407.0</ele><time>2026-04-08T10:06:59.11Z</time></trkpt><trkpt lat="44.6923767" lon="9.3438433"><ele>407.0</ele><time>2026-04-08T10:07:00.11Z</time></trkpt><trkpt lat="44.69221" lon="9.3440433"><ele>407.0</ele><time>2026-04-08T10:07:01.109Z</time></trkpt><trkpt lat="44.692015" lon="9.3442133"><ele>409.0</ele><time>2026-04-08T10:07:02.11Z</time></trkpt><trkpt lat="44.6918317" lon="9.3443617"><ele>411.0</ele><time>2026-04-08T10:07:03.109Z</time></trkpt><trkpt lat="44.6916633" lon="9.3445183"><ele>413.0</ele><time>2026-04-08T10:07:04.11Z</time></trkpt><trkpt lat="44.6915083" lon="9.3446417"><ele>408.25</ele><time>2026-04-08T10:07:05.109Z</time></trkpt><trkpt lat="44.6913667" lon="9.3447233"><ele>403.5</ele><time>2026-04-08T10:07:06.11Z</time></trkpt><trkpt lat="44.6912433" lon="9.3448083"><ele>398.75</ele><time>2026-04-08T10:07:07.11Z</time></trkpt><trkpt lat="44.6911417" lon="9.34493"><ele>394.0</ele><time>2026-04-08T10:07:08.11Z</time></trkpt><trkpt lat="44.6910583" lon="9.345095"><ele>394.0</ele><time>2026-04-08T10:07:09.11Z</time></trkpt><trkpt lat="44.6910483" lon="9.345375"><ele>394.0</ele><time>2026-04-08T10:07:10.11Z</time></trkpt><trkpt lat="44.6910583" lon="9.34564"><ele>394.0</ele><time>2026-04-08T10:07:11.11Z</time></trkpt><trkpt lat="44.6910967" lon="9.3458733"><ele>411.0</ele><time>2026-04-08T10:07:12.11Z</time></trkpt><trkpt lat="44.6911567" lon="9.3460783"><ele>428.0</ele><time>2026-04-08T10:07:13.11Z</time></trkpt><trkpt lat="44.6912617" lon="9.346255"><ele>445.0</ele><time>2026-04-08T10:07:14.11Z</time></trkpt><trkpt lat="44.6913883" lon="9.34638"><ele>445.0</ele><time>2026-04-08T10:07:15.11Z</time></trkpt><trkpt lat="44.6914767" lon="9.3465117"><ele>445.0</ele><time>2026-04-08T10:07:16.11Z</time></trkpt><trkpt lat="44.69153" lon="9.346655"><ele>445.0</ele><time>2026-04-08T10:07:17.11Z</time></trkpt><trkpt lat="44.6915483" lon="9.3468033"><ele>445.0</ele><time>2026-04-08T10:07:18.11Z</time></trkpt><trkpt lat="44.691475" lon="9.34699"><ele>445.0</ele><time>2026-04-08T10:07:19.11Z</time></trkpt><trkpt lat="44.6914367" lon="9.34718"><ele>445.0</ele><time>2026-04-08T10:07:20.11Z</time></trkpt><trkpt lat="44.6914417" lon="9.3473817"><ele>445.0</ele><time>2026-04-08T10:07:21.11Z</time></trkpt><trkpt lat="44.691495" lon="9.3475817"><ele>445.0</ele><time>2026-04-08T10:07:22.11Z</time></trkpt><trkpt lat="44.6915783" lon="9.3477367"><ele>444.4</ele><time>2026-04-08T10:07:23.11Z</time></trkpt><trkpt lat="44.6916567" lon="9.34785"><ele>443.8</ele><time>2026-04-08T10:07:24.11Z</time></trkpt><trkpt lat="44.6917083" lon="9.34797"><ele>443.20000000000005</ele><time>2026-04-08T10:07:25.11Z</time></trkpt><trkpt lat="44.6917383" lon="9.348105"><ele>442.6</ele><time>2026-04-08T10:07:26.11Z</time></trkpt><trkpt lat="44.6917517" lon="9.3482633"><ele>442.0</ele><time>2026-04-08T10:07:27.11Z</time></trkpt><trkpt lat="44.6917533" lon="9.34842"><ele>440.25</ele><time>2026-04-08T10:07:28.109Z</time></trkpt><trkpt lat="44.6917" lon="9.3485967"><ele>438.5</ele><time>2026-04-08T10:07:29.11Z</time></trkpt><trkpt lat="44.691605" lon="9.3487833"><ele>436.75</ele><time>2026-04-08T10:07:30.11Z</time></trkpt><trkpt lat="44.69155" lon="9.3489617"><ele>435.0</ele><time>2026-04-08T10:07:31.11Z</time></trkpt><trkpt lat="44.6915567" lon="9.3491467"><ele>434.0</ele><time>2026-04-08T10:07:32.11Z</time></trkpt><trkpt lat="44.6916183" lon="9.3493317"><ele>433.0</ele><time>2026-04-08T10:07:33.11Z</time></trkpt><trkpt lat="44.6917267" lon="9.3494683"><ele>432.0</ele><time>2026-04-08T10:07:34.109Z</time></trkpt><trkpt lat="44.6918517" lon="9.34956"><ele>431.0</ele><time>2026-04-08T10:07:35.11Z</time></trkpt><trkpt lat="44.6919417" lon="9.34971"><ele>443.3333333333333</ele><time>2026-04-08T10:07:36.109Z</time></trkpt><trkpt lat="44.692025" lon="9.34988"><ele>455.66666666666663</ele><time>2026-04-08T10:07:37.11Z</time></trkpt><trkpt lat="44.6921317" lon="9.3500517"><ele>468.0</ele><time>2026-04-08T10:07:38.11Z</time></trkpt><trkpt lat="44.6922467" lon="9.3502267"><ele>468.0</ele><time>2026-04-08T10:07:39.11Z</time></trkpt><trkpt lat="44.6923483" lon="9.3504167"><ele>468.0</ele><time>2026-04-08T10:07:40.11Z</time></trkpt><trkpt lat="44.69246" lon="9.3506183"><ele>468.0</ele><time>2026-04-08T10:07:41.11Z</time></trkpt><trkpt lat="44.6926017" lon="9.3508033"><ele>467.66666666666663</ele><time>2026-04-08T10:07:42.109Z</time></trkpt><trkpt lat="44.6927417" lon="9.3509783"><ele>467.3333333333333</ele><time>2026-04-08T10:07:43.109Z</time></trkpt><trkpt lat="44.6928567" lon="9.3511683"><ele>467.0</ele><time>2026-04-08T10:07:44.11Z</time></trkpt><trkpt lat="44.692945" lon="9.3514017"><ele>467.0</ele><time>2026-04-08T10:07:45.11Z</time></trkpt><trkpt lat="44.6930267" lon="9.3516633"><ele>467.0</ele><time>2026-04-08T10:07:46.109Z</time></trkpt><trkpt lat="44.6931267" lon="9.351895"><ele>467.0</ele><time>2026-04-08T10:07:47.11Z</time></trkpt><trkpt lat="44.6932183" lon="9.3521067"><ele>459.0</ele><time>2026-04-08T10:07:48.109Z</time></trkpt><trkpt lat="44.69327" lon="9.3523283"><ele>451.0</ele><time>2026-04-08T10:07:49.109Z</time></trkpt><trkpt lat="44.693285" lon="9.3525417"><ele>443.0</ele><time>2026-04-08T10:07:50.109Z</time></trkpt><trkpt lat="44.6932583" lon="9.3527483"><ele>443.0</ele><time>2026-04-08T10:07:51.11Z</time></trkpt><trkpt lat="44.693245" lon="9.35294"><ele>443.0</ele><time>2026-04-08T10:07:52.11Z</time></trkpt><trkpt lat="44.6932583" lon="9.353125"><ele>443.0</ele><time>2026-04-08T10:07:53.11Z</time></trkpt><trkpt lat="44.6933433" lon="9.3532483"><ele>443.0</ele><time>2026-04-08T10:07:54.11Z</time></trkpt><trkpt lat="44.6934767" lon="9.3533133"><ele>448.0</ele><time>2026-04-08T10:07:55.11Z</time></trkpt><trkpt lat="44.6936367" lon="9.3533"><ele>453.0</ele><time>2026-04-08T10:07:56.11Z</time></trkpt><trkpt lat="44.6937617" lon="9.3533433"><ele>458.0</ele><time>2026-04-08T10:07:57.11Z</time></trkpt><trkpt lat="44.693865" lon="9.35342"><ele>463.0</ele><time>2026-04-08T10:07:58.11Z</time></trkpt><trkpt lat="44.6939567" lon="9.3534883"><ele>463.0</ele><time>2026-04-08T10:07:59.11Z</time></trkpt><trkpt lat="44.6940567" lon="9.3535133"><ele>463.0</ele><time>2026-04-08T10:08:00.11Z</time></trkpt><trkpt lat="44.6941833" lon="9.3534933"><ele>463.0</ele><time>2026-04-08T10:08:01.11Z</time></trkpt><trkpt lat="44.6943133" lon="9.35347"><ele>463.0</ele><time>2026-04-08T10:08:02.109Z</time></trkpt><trkpt lat="44.6944333" lon="9.3534617"><ele>466.75</ele><time>2026-04-08T10:08:03.11Z</time></trkpt><trkpt lat="44.694555" lon="9.35351"><ele>470.5</ele><time>2026-04-08T10:08:04.11Z</time></trkpt><trkpt lat="44.6946533" lon="9.3536083"><ele>474.25</ele><time>2026-04-08T10:08:05.109Z</time></trkpt><trkpt lat="44.6947133" lon="9.3537483"><ele>478.0</ele><time>2026-04-08T10:08:06.11Z</time></trkpt><trkpt lat="44.694745" lon="9.3539183"><ele>478.0</ele><time>2026-04-08T10:08:07.109Z</time></trkpt><trkpt lat="44.694785" lon="9.3541233"><ele>478.0</ele><time>2026-04-08T10:08:08.11Z</time></trkpt><trkpt lat="44.6948483" lon="9.3543167"><ele>478.0</ele><time>2026-04-08T10:08:09.11Z</time></trkpt><trkpt lat="44.6948833" lon="9.3545233"><ele>474.33333333333337</ele><time>2026-04-08T10:08:10.11Z</time></trkpt><trkpt lat="44.6949033" lon="9.35473"><ele>470.66666666666663</ele><time>2026-04-08T10:08:11.11Z</time></trkpt><trkpt lat="44.6949" lon="9.3549617"><ele>467.0</ele><time>2026-04-08T10:08:12.11Z</time></trkpt><trkpt lat="44.6948" lon="9.355235"><ele>467.0</ele><time>2026-04-08T10:08:13.11Z</time></trkpt><trkpt lat="44.694755" lon="9.355465"><ele>467.0</ele><time>2026-04-08T10:08:14.11Z</time></trkpt><trkpt lat="44.6947417" lon="9.355665"><ele>467.0</ele><time>2026-04-08T10:08:15.11Z</time></trkpt><trkpt lat="44.694775" lon="9.355845"><ele>467.0</ele><time>2026-04-08T10:08:16.11Z</time></trkpt><trkpt lat="44.6948283" lon="9.3560167"><ele>468.0</ele><time>2026-04-08T10:08:17.11Z</time></trkpt><trkpt lat="44.6948667" lon="9.3561983"><ele>469.0</ele><time>2026-04-08T10:08:18.11Z</time></trkpt><trkpt lat="44.6948833" lon="9.3564033"><ele>470.0</ele><time>2026-04-08T10:08:19.11Z</time></trkpt><trkpt lat="44.6948717" lon="9.3566567"><ele>471.0</ele><time>2026-04-08T10:08:20.11Z</time></trkpt><trkpt lat="44.694775" lon="9.35694"><ele>472.0</ele><time>2026-04-08T10:08:21.11Z</time></trkpt><trkpt lat="44.6946983" lon="9.3572"><ele>473.0</ele><time>2026-04-08T10:08:22.11Z</time></trkpt><trkpt lat="44.69459" lon="9.3574167"><ele>477.3333333333333</ele><time>2026-04-08T10:08:23.109Z</time></trkpt><trkpt lat="44.6944567" lon="9.3575867"><ele>481.66666666666663</ele><time>2026-04-08T10:08:24.11Z</time></trkpt><trkpt lat="44.6942967" lon="9.3577083"><ele>486.0</ele><time>2026-04-08T10:08:25.11Z</time></trkpt><trkpt lat="44.6941433" lon="9.3578317"><ele>479.66666666666663</ele><time>2026-04-08T10:08:26.11Z</time></trkpt><trkpt lat="44.694015" lon="9.3579833"><ele>473.3333333333333</ele><time>2026-04-08T10:08:27.11Z</time></trkpt><trkpt lat="44.6939233" lon="9.35816"><ele>467.0</ele><time>2026-04-08T10:08:28.11Z</time></trkpt><trkpt lat="44.6938583" lon="9.35834"><ele>467.0</ele><time>2026-04-08T10:08:29.11Z</time></trkpt><trkpt lat="44.69383" lon="9.35854"><ele>467.0</ele><time>2026-04-08T10:08:30.11Z</time></trkpt><trkpt lat="44.693835" lon="9.3587483"><ele>467.0</ele><time>2026-04-08T10:08:31.11Z</time></trkpt><trkpt lat="44.6939183" lon="9.3589833"><ele>462.3333333333333</ele><time>2026-04-08T10:08:32.11Z</time></trkpt><trkpt lat="44.694085" lon="9.3591767"><ele>457.66666666666663</ele><time>2026-04-08T10:08:33.11Z</time></trkpt><trkpt lat="44.69422" lon="9.3593233"><ele>453.0</ele><time>2026-04-08T10:08:34.11Z</time></trkpt><trkpt lat="44.6943667" lon="9.35942"><ele>459.66666666666663</ele><time>2026-04-08T10:08:35.11Z</time></trkpt><trkpt lat="44.6945133" lon="9.359475"><ele>466.3333333333333</ele><time>2026-04-08T10:08:36.11Z</time></trkpt><trkpt lat="44.6946917" lon="9.3594633"><ele>473.0</ele><time>2026-04-08T10:08:37.109Z</time></trkpt><trkpt lat="44.69488" lon="9.3594183"><ele>473.0</ele><time>2026-04-08T10:08:38.11Z</time></trkpt><trkpt lat="44.695055" lon="9.35938"><ele>473.0</ele><time>2026-04-08T10:08:39.11Z</time></trkpt><trkpt lat="44.6952217" lon="9.359375"><ele>473.0</ele><time>2026-04-08T10:08:40.11Z</time></trkpt><trkpt lat="44.6954017" lon="9.35936"><ele>475.3333333333333</ele><time>2026-04-08T10:08:41.11Z</time></trkpt><trkpt lat="44.6955017" lon="9.3594867"><ele>477.66666666666663</ele><time>2026-04-08T10:08:42.11Z</time></trkpt><trkpt lat="44.6955367" lon="9.3596967"><ele>480.0</ele><time>2026-04-08T10:08:43.11Z</time></trkpt><trkpt lat="44.6955" lon="9.35995"><ele>480.0</ele><time>2026-04-08T10:08:44.11Z</time></trkpt><trkpt lat="44.6954317" lon="9.36024"><ele>480.0</ele><time>2026-04-08T10:08:45.11Z</time></trkpt><trkpt lat="44.6953583" lon="9.3605317"><ele>480.0</ele><time>2026-04-08T10:08:46.11Z</time></trkpt><trkpt lat="44.695305" lon="9.360785"><ele>479.5</ele><time>2026-04-08T10:08:47.11Z</time></trkpt><trkpt lat="44.6952583" lon="9.3610083"><ele>479.0</ele><time>2026-04-08T10:08:48.11Z</time></trkpt><trkpt lat="44.6952317" lon="9.361215"><ele>478.5</ele><time>2026-04-08T10:08:49.11Z</time></trkpt><trkpt lat="44.69522" lon="9.3614"><ele>478.0</ele><time>2026-04-08T10:08:50.11Z</time></trkpt><trkpt lat="44.6952483" lon="9.3615383"><ele>479.00000000000006</ele><time>2026-04-08T10:08:51.11Z</time></trkpt><trkpt lat="44.695265" lon="9.361665"><ele>480.0</ele><time>2026-04-08T10:08:52.11Z</time></trkpt><trkpt lat="44.6952733" lon="9.3617733"><ele>481.0</ele><time>2026-04-08T10:08:53.11Z</time></trkpt><trkpt lat="44.6952783" lon="9.3618767"><ele>482.0</ele><time>2026-04-08T10:08:54.11Z</time></trkpt><trkpt lat="44.6952933" lon="9.3619767"><ele>483.00000000000006</ele><time>2026-04-08T10:08:55.11Z</time></trkpt><trkpt lat="44.6952667" lon="9.3620583"><ele>484.0</ele><time>2026-04-08T10:08:56.109Z</time></trkpt><trkpt lat="44.6951633" lon="9.3621783"><ele>480.1666666666667</ele><time>2026-04-08T10:08:58.11Z</time></trkpt><trkpt lat="44.695095" lon="9.3622233"><ele>476.33333333333337</ele><time>2026-04-08T10:08:59.11Z</time></trkpt><trkpt lat="44.6950167" lon="9.3622583"><ele>472.5</ele><time>2026-04-08T10:09:00.11Z</time></trkpt><trkpt lat="44.69494" lon="9.362305"><ele>468.66666666666663</ele><time>2026-04-08T10:09:01.11Z</time></trkpt><trkpt lat="44.6948733" lon="9.36236"><ele>464.8333333333333</ele><time>2026-04-08T10:09:02.11Z</time></trkpt><trkpt lat="44.69482" lon="9.36243"><ele>461.0</ele><time>2026-04-08T10:09:03.11Z</time></trkpt><trkpt lat="44.6947733" lon="9.3625067"><ele>460.99999999999994</ele><time>2026-04-08T10:09:04.11Z</time></trkpt><trkpt lat="44.694725" lon="9.3625917"><ele>461.0</ele><time>2026-04-08T10:09:05.11Z</time></trkpt><trkpt lat="44.69468" lon="9.36268"><ele>461.0</ele><time>2026-04-08T10:09:06.109Z</time></trkpt><trkpt lat="44.6946383" lon="9.3627683"><ele>461.0</ele><time>2026-04-08T10:09:07.11Z</time></trkpt><trkpt lat="44.6946" lon="9.362865"><ele>460.99999999999994</ele><time>2026-04-08T10:09:08.11Z</time></trkpt><trkpt lat="44.69457" lon="9.362975"><ele>461.0</ele><time>2026-04-08T10:09:09.11Z</time></trkpt><trkpt lat="44.6945583" lon="9.36308"><ele>462.49999999999994</ele><time>2026-04-08T10:09:10.11Z</time></trkpt><trkpt lat="44.6945633" lon="9.3631783"><ele>464.0</ele><time>2026-04-08T10:09:11.11Z</time></trkpt><trkpt lat="44.694575" lon="9.3632717"><ele>465.5</ele><time>2026-04-08T10:09:12.11Z</time></trkpt><trkpt lat="44.6945933" lon="9.36342"><ele>467.0</ele><time>2026-04-08T10:09:14.11Z</time></trkpt><trkpt lat="44.6945533" lon="9.3635417"><ele>468.49999999999994</ele><time>2026-04-08T10:09:16.109Z</time></trkpt><trkpt lat="44.6944617" lon="9.3636267"><ele>470.0</ele><time>2026-04-08T10:09:18.11Z</time></trkpt><trkpt lat="44.6944017" lon="9.3636583"><ele>464.0</ele><time>2026-04-08T10:09:19.11Z</time></trkpt><trkpt lat="44.6943017" lon="9.36373"><ele>458.0</ele><time>2026-04-08T10:09:21.11Z</time></trkpt><trkpt lat="44.6942383" lon="9.363835"><ele>452.0</ele><time>2026-04-08T10:09:23.11Z</time></trkpt><trkpt lat="44.6942317" lon="9.3639567"><ele>446.0</ele><time>2026-04-08T10:09:25.11Z</time></trkpt><trkpt lat="44.6942883" lon="9.364055"><ele>440.0</ele><time>2026-04-08T10:09:27.11Z</time></trkpt><trkpt lat="44.69439" lon="9.364095"><ele>442.0</ele><time>2026-04-08T10:09:29.11Z</time></trkpt><trkpt lat="44.69447" lon="9.364095"><ele>444.0</ele><time>2026-04-08T10:09:30.11Z</time></trkpt><trkpt lat="44.694695" lon="9.364035"><ele>446.0</ele><time>2026-04-08T10:09:31.11Z</time></trkpt><trkpt lat="44.6948983" lon="9.36401"><ele>446.0</ele><time>2026-04-08T10:09:32.11Z</time></trkpt><trkpt lat="44.6951133" lon="9.3639817"><ele>446.0</ele><time>2026-04-08T10:09:33.109Z</time></trkpt><trkpt lat="44.6953217" lon="9.3639533"><ele>446.0</ele><time>2026-04-08T10:09:34.11Z</time></trkpt><trkpt lat="44.6955217" lon="9.3639367"><ele>445.3333333333333</ele><time>2026-04-08T10:09:35.11Z</time></trkpt><trkpt lat="44.69572" lon="9.36395"><ele>444.66666666666663</ele><time>2026-04-08T10:09:36.11Z</time></trkpt><trkpt lat="44.6959117" lon="9.3640067"><ele>444.0</ele><time>2026-04-08T10:09:37.11Z</time></trkpt><trkpt lat="44.69611" lon="9.364055"><ele>444.0</ele><time>2026-04-08T10:09:38.11Z</time></trkpt><trkpt lat="44.696305" lon="9.364105"><ele>444.0</ele><time>2026-04-08T10:09:39.11Z</time></trkpt><trkpt lat="44.6965017" lon="9.3641117"><ele>444.0</ele><time>2026-04-08T10:09:40.11Z</time></trkpt><trkpt lat="44.69669" lon="9.364105"><ele>444.0</ele><time>2026-04-08T10:09:41.11Z</time></trkpt><trkpt lat="44.6968667" lon="9.3640733"><ele>444.0</ele><time>2026-04-08T10:09:42.11Z</time></trkpt><trkpt lat="44.6970467" lon="9.36404"><ele>444.0</ele><time>2026-04-08T10:09:43.109Z</time></trkpt><trkpt lat="44.6972433" lon="9.3640267"><ele>441.0</ele><time>2026-04-08T10:09:44.11Z</time></trkpt><trkpt lat="44.6974367" lon="9.3640267"><ele>438.0</ele><time>2026-04-08T10:09:45.11Z</time></trkpt><trkpt lat="44.697605" lon="9.3640433"><ele>435.0</ele><time>2026-04-08T10:09:46.11Z</time></trkpt><trkpt lat="44.6977533" lon="9.3641"><ele>441.75</ele><time>2026-04-08T10:09:47.11Z</time></trkpt><trkpt lat="44.6978917" lon="9.3641617"><ele>448.5</ele><time>2026-04-08T10:09:48.11Z</time></trkpt><trkpt lat="44.69799" lon="9.3643033"><ele>455.25</ele><time>2026-04-08T10:09:49.11Z</time></trkpt><trkpt lat="44.6980633" lon="9.3644867"><ele>462.0</ele><time>2026-04-08T10:09:50.11Z</time></trkpt><trkpt lat="44.69817" lon="9.36462"><ele>461.75</ele><time>2026-04-08T10:09:51.11Z</time></trkpt><trkpt lat="44.69829" lon="9.3647183"><ele>461.5</ele><time>2026-04-08T10:09:52.11Z</time></trkpt><trkpt lat="44.6984333" lon="9.3647667"><ele>461.25</ele><time>2026-04-08T10:09:53.11Z</time></trkpt><trkpt lat="44.698555" lon="9.36484"><ele>461.0</ele><time>2026-04-08T10:09:54.109Z</time></trkpt><trkpt lat="44.6986533" lon="9.36496"><ele>461.0</ele><time>2026-04-08T10:09:55.109Z</time></trkpt><trkpt lat="44.6987467" lon="9.3651367"><ele>461.0</ele><time>2026-04-08T10:09:56.11Z</time></trkpt><trkpt lat="44.698815" lon="9.3653317"><ele>461.0</ele><time>2026-04-08T10:09:57.11Z</time></trkpt><trkpt lat="44.6988467" lon="9.3655367"><ele>451.5</ele><time>2026-04-08T10:09:58.11Z</time></trkpt><trkpt lat="44.6988517" lon="9.36572"><ele>442.0</ele><time>2026-04-08T10:09:59.11Z</time></trkpt><trkpt lat="44.698865" lon="9.3658817"><ele>432.5</ele><time>2026-04-08T10:10:00.109Z</time></trkpt><trkpt lat="44.6989233" lon="9.3660517"><ele>423.0</ele><time>2026-04-08T10:10:01.11Z</time></trkpt><trkpt lat="44.69905" lon="9.3661617"><ele>423.0</ele><time>2026-04-08T10:10:02.11Z</time></trkpt><trkpt lat="44.6991783" lon="9.3662783"><ele>423.0</ele><time>2026-04-08T10:10:03.109Z</time></trkpt><trkpt lat="44.6993117" lon="9.3663683"><ele>423.0</ele><time>2026-04-08T10:10:04.11Z</time></trkpt><trkpt lat="44.6994667" lon="9.3664117"><ele>429.0</ele><time>2026-04-08T10:10:05.11Z</time></trkpt><trkpt lat="44.699645" lon="9.3663867"><ele>435.0</ele><time>2026-04-08T10:10:06.11Z</time></trkpt><trkpt lat="44.6998317" lon="9.366325"><ele>441.0</ele><time>2026-04-08T10:10:07.109Z</time></trkpt><trkpt lat="44.7000083" lon="9.3662633"><ele>441.0</ele><time>2026-04-08T10:10:08.11Z</time></trkpt><trkpt lat="44.7001667" lon="9.3662333"><ele>441.0</ele><time>2026-04-08T10:10:09.11Z</time></trkpt><trkpt lat="44.7003" lon="9.366245"><ele>441.0</ele><time>2026-04-08T10:10:10.11Z</time></trkpt><trkpt lat="44.70043" lon="9.3662983"><ele>441.0</ele><time>2026-04-08T10:10:11.109Z</time></trkpt><trkpt lat="44.7005367" lon="9.3664033"><ele>439.5</ele><time>2026-04-08T10:10:12.11Z</time></trkpt><trkpt lat="44.700545" lon="9.3665933"><ele>438.0</ele><time>2026-04-08T10:10:13.11Z</time></trkpt><trkpt lat="44.7005" lon="9.3667983"><ele>436.5</ele><time>2026-04-08T10:10:14.11Z</time></trkpt><trkpt lat="44.7005083" lon="9.36699"><ele>435.0</ele><time>2026-04-08T10:10:15.11Z</time></trkpt><trkpt lat="44.70054" lon="9.367195"><ele>428.33333333333337</ele><time>2026-04-08T10:10:16.11Z</time></trkpt><trkpt lat="44.70061" lon="9.367405"><ele>421.6666666666667</ele><time>2026-04-08T10:10:17.11Z</time></trkpt><trkpt lat="44.7007367" lon="9.36757"><ele>415.0</ele><time>2026-04-08T10:10:18.109Z</time></trkpt><trkpt lat="44.7008917" lon="9.36773"><ele>415.0</ele><time>2026-04-08T10:10:19.11Z</time></trkpt><trkpt lat="44.7010467" lon="9.3679033"><ele>415.0</ele><time>2026-04-08T10:10:20.11Z</time></trkpt><trkpt lat="44.701175" lon="9.3681133"><ele>415.0</ele><time>2026-04-08T10:10:21.11Z</time></trkpt><trkpt lat="44.7012617" lon="9.3683633"><ele>412.33333333333337</ele><time>2026-04-08T10:10:22.11Z</time></trkpt><trkpt lat="44.7013533" lon="9.36859"><ele>409.66666666666663</ele><time>2026-04-08T10:10:23.11Z</time></trkpt><trkpt lat="44.7014583" lon="9.3687733"><ele>407.0</ele><time>2026-04-08T10:10:24.11Z</time></trkpt><trkpt lat="44.7015617" lon="9.36893"><ele>407.0</ele><time>2026-04-08T10:10:25.11Z</time></trkpt><trkpt lat="44.7016283" lon="9.36912"><ele>407.0</ele><time>2026-04-08T10:10:26.109Z</time></trkpt><trkpt lat="44.70167" lon="9.3693517"><ele>407.0</ele><time>2026-04-08T10:10:27.11Z</time></trkpt><trkpt lat="44.70173" lon="9.3695783"><ele>402.25</ele><time>2026-04-08T10:10:28.109Z</time></trkpt><trkpt lat="44.7018" lon="9.3697783"><ele>397.5</ele><time>2026-04-08T10:10:29.109Z</time></trkpt><trkpt lat="44.7018567" lon="9.3699467"><ele>392.75</ele><time>2026-04-08T10:10:30.11Z</time></trkpt><trkpt lat="44.7018617" lon="9.37011"><ele>388.0</ele><time>2026-04-08T10:10:31.11Z</time></trkpt><trkpt lat="44.701815" lon="9.3702783"><ele>388.0</ele><time>2026-04-08T10:10:32.11Z</time></trkpt><trkpt lat="44.7017683" lon="9.3704483"><ele>388.0</ele><time>2026-04-08T10:10:33.11Z</time></trkpt><trkpt lat="44.7017367" lon="9.37064"><ele>388.0</ele><time>2026-04-08T10:10:34.11Z</time></trkpt><trkpt lat="44.7017317" lon="9.3708317"><ele>388.0</ele><time>2026-04-08T10:10:35.109Z</time></trkpt><trkpt lat="44.70182" lon="9.3710267"><ele>392.0</ele><time>2026-04-08T10:10:36.11Z</time></trkpt><trkpt lat="44.7019767" lon="9.3711817"><ele>396.0</ele><time>2026-04-08T10:10:37.11Z</time></trkpt><trkpt lat="44.7021983" lon="9.3712867"><ele>400.0</ele><time>2026-04-08T10:10:38.109Z</time></trkpt><trkpt lat="44.7024467" lon="9.3713617"><ele>394.0</ele><time>2026-04-08T10:10:39.11Z</time></trkpt><trkpt lat="44.702685" lon="9.3714267"><ele>388.0</ele><time>2026-04-08T10:10:40.11Z</time></trkpt><trkpt lat="44.7028867" lon="9.371505"><ele>388.0</ele><time>2026-04-08T10:10:41.11Z</time></trkpt><trkpt lat="44.7030733" lon="9.371585"><ele>388.0</ele><time>2026-04-08T10:10:42.11Z</time></trkpt><trkpt lat="44.7032283" lon="9.3717267"><ele>388.0</ele><time>2026-04-08T10:10:43.11Z</time></trkpt><trkpt lat="44.70337" lon="9.3719183"><ele>388.0</ele><time>2026-04-08T10:10:44.11Z</time></trkpt><trkpt lat="44.7034933" lon="9.3721417"><ele>388.0</ele><time>2026-04-08T10:10:45.11Z</time></trkpt><trkpt lat="44.7036083" lon="9.3723533"><ele>388.0</ele><time>2026-04-08T10:10:46.109Z</time></trkpt><trkpt lat="44.703735" lon="9.3725383"><ele>387.33333333333337</ele><time>2026-04-08T10:10:47.11Z</time></trkpt><trkpt lat="44.7038733" lon="9.37268"><ele>386.66666666666663</ele><time>2026-04-08T10:10:48.11Z</time></trkpt><trkpt lat="44.7040133" lon="9.37279"><ele>386.0</ele><time>2026-04-08T10:10:49.11Z</time></trkpt><trkpt lat="44.7041533" lon="9.3728533"><ele>386.0</ele><time>2026-04-08T10:10:50.109Z</time></trkpt><trkpt lat="44.7043033" lon="9.3728583"><ele>386.0</ele><time>2026-04-08T10:10:51.11Z</time></trkpt><trkpt lat="44.7044783" lon="9.3728433"><ele>386.0</ele><time>2026-04-08T10:10:52.11Z</time></trkpt><trkpt lat="44.70466" lon="9.372865"><ele>388.0</ele><time>2026-04-08T10:10:53.11Z</time></trkpt><trkpt lat="44.7048333" lon="9.3729433"><ele>390.0</ele><time>2026-04-08T10:10:54.11Z</time></trkpt><trkpt lat="44.7049983" lon="9.3730033"><ele>392.0</ele><time>2026-04-08T10:10:55.11Z</time></trkpt><trkpt lat="44.7051483" lon="9.3730583"><ele>387.66666666666663</ele><time>2026-04-08T10:10:56.109Z</time></trkpt><trkpt lat="44.70528" lon="9.3731483"><ele>383.3333333333333</ele><time>2026-04-08T10:10:57.11Z</time></trkpt><trkpt lat="44.70541" lon="9.3732983"><ele>379.0</ele><time>2026-04-08T10:10:58.11Z</time></trkpt><trkpt lat="44.7055317" lon="9.3734717"><ele>379.0</ele><time>2026-04-08T10:10:59.11Z</time></trkpt><trkpt lat="44.70565" lon="9.3736583"><ele>379.0</ele><time>2026-04-08T10:11:00.11Z</time></trkpt><trkpt lat="44.7057517" lon="9.373845"><ele>379.0</ele><time>2026-04-08T10:11:01.11Z</time></trkpt><trkpt lat="44.7058133" lon="9.374055"><ele>373.0</ele><time>2026-04-08T10:11:02.11Z</time></trkpt><trkpt lat="44.7058183" lon="9.3742967"><ele>367.0</ele><time>2026-04-08T10:11:03.11Z</time></trkpt><trkpt lat="44.705755" lon="9.3745533"><ele>361.0</ele><time>2026-04-08T10:11:04.11Z</time></trkpt><trkpt lat="44.70568" lon="9.3748167"><ele>359.66666666666663</ele><time>2026-04-08T10:11:05.11Z</time></trkpt><trkpt lat="44.7056067" lon="9.37507"><ele>358.3333333333333</ele><time>2026-04-08T10:11:06.11Z</time></trkpt><trkpt lat="44.7055433" lon="9.3753183"><ele>357.0</ele><time>2026-04-08T10:11:07.11Z</time></trkpt><trkpt lat="44.705515" lon="9.375555"><ele>355.6666666666667</ele><time>2026-04-08T10:11:08.11Z</time></trkpt><trkpt lat="44.7055217" lon="9.3757833"><ele>354.33333333333337</ele><time>2026-04-08T10:11:09.11Z</time></trkpt><trkpt lat="44.705575" lon="9.3759933"><ele>353.0</ele><time>2026-04-08T10:11:10.11Z</time></trkpt><trkpt lat="44.705645" lon="9.376205"><ele>350.6666666666667</ele><time>2026-04-08T10:11:11.11Z</time></trkpt><trkpt lat="44.7057267" lon="9.37641"><ele>348.3333333333333</ele><time>2026-04-08T10:11:12.11Z</time></trkpt><trkpt lat="44.7058133" lon="9.3765883"><ele>346.0</ele><time>2026-04-08T10:11:13.109Z</time></trkpt><trkpt lat="44.7059167" lon="9.3767333"><ele>346.0</ele><time>2026-04-08T10:11:14.11Z</time></trkpt><trkpt lat="44.7060217" lon="9.3768517"><ele>346.0</ele><time>2026-04-08T10:11:15.11Z</time></trkpt><trkpt lat="44.7061133" lon="9.3769483"><ele>346.0</ele><time>2026-04-08T10:11:16.11Z</time></trkpt><trkpt lat="44.70619" lon="9.37703"><ele>346.0</ele><time>2026-04-08T10:11:17.109Z</time></trkpt><trkpt lat="44.70625" lon="9.3770967"><ele>346.0</ele><time>2026-04-08T10:11:18.109Z</time></trkpt><trkpt lat="44.70634" lon="9.3771867"><ele>344.6</ele><time>2026-04-08T10:11:20.11Z</time></trkpt><trkpt lat="44.7064217" lon="9.3772467"><ele>343.20000000000005</ele><time>2026-04-08T10:11:22.11Z</time></trkpt><trkpt lat="44.706545" lon="9.37733"><ele>341.79999999999995</ele><time>2026-04-08T10:11:24.109Z</time></trkpt><trkpt lat="44.70663" lon="9.3773567"><ele>340.4</ele><time>2026-04-08T10:11:25.11Z</time></trkpt><trkpt lat="44.70673" lon="9.377325"><ele>339.0</ele><time>2026-04-08T10:11:26.109Z</time></trkpt><trkpt lat="44.7068333" lon="9.377235"><ele>340.5</ele><time>2026-04-08T10:11:27.109Z</time></trkpt><trkpt lat="44.7069333" lon="9.377115"><ele>342.0</ele><time>2026-04-08T10:11:28.109Z</time></trkpt><trkpt lat="44.7070383" lon="9.3769917"><ele>343.5</ele><time>2026-04-08T10:11:29.11Z</time></trkpt><trkpt lat="44.7071583" lon="9.376905"><ele>345.0</ele><time>2026-04-08T10:11:30.109Z</time></trkpt><trkpt lat="44.707295" lon="9.3768633"><ele>345.0</ele><time>2026-04-08T10:11:31.109Z</time></trkpt><trkpt lat="44.7074383" lon="9.37685"><ele>345.0</ele><time>2026-04-08T10:11:32.11Z</time></trkpt><trkpt lat="44.70758" lon="9.3768367"><ele>345.0</ele><time>2026-04-08T10:11:33.11Z</time></trkpt><trkpt lat="44.70771" lon="9.3768417"><ele>345.0</ele><time>2026-04-08T10:11:34.109Z</time></trkpt><trkpt lat="44.7078283" lon="9.3768767"><ele>342.5</ele><time>2026-04-08T10:11:35.11Z</time></trkpt><trkpt lat="44.707945" lon="9.3769467"><ele>340.0</ele><time>2026-04-08T10:11:36.11Z</time></trkpt><trkpt lat="44.7080183" lon="9.3770933"><ele>337.5</ele><time>2026-04-08T10:11:37.109Z</time></trkpt><trkpt lat="44.708065" lon="9.3772867"><ele>335.0</ele><time>2026-04-08T10:11:38.11Z</time></trkpt><trkpt lat="44.7081133" lon="9.3774833"><ele>335.0</ele><time>2026-04-08T10:11:39.11Z</time></trkpt><trkpt lat="44.7081833" lon="9.377665"><ele>335.0</ele><time>2026-04-08T10:11:40.11Z</time></trkpt><trkpt lat="44.7082883" lon="9.3778267"><ele>335.0</ele><time>2026-04-08T10:11:41.11Z</time></trkpt><trkpt lat="44.708455" lon="9.3779417"><ele>330.0</ele><time>2026-04-08T10:11:42.11Z</time></trkpt><trkpt lat="44.70863" lon="9.37805"><ele>325.0</ele><time>2026-04-08T10:11:43.11Z</time></trkpt><trkpt lat="44.7088133" lon="9.37811"><ele>320.0</ele><time>2026-04-08T10:11:44.109Z</time></trkpt><trkpt lat="44.7089917" lon="9.3781383"><ele>320.0</ele><time>2026-04-08T10:11:45.11Z</time></trkpt><trkpt lat="44.7091767" lon="9.378115"><ele>320.0</ele><time>2026-04-08T10:11:46.11Z</time></trkpt><trkpt lat="44.70938" lon="9.3780317"><ele>320.0</ele><time>2026-04-08T10:11:47.11Z</time></trkpt><trkpt lat="44.709575" lon="9.3779233"><ele>325.5</ele><time>2026-04-08T10:11:48.11Z</time></trkpt><trkpt lat="44.7098967" lon="9.37766"><ele>331.0</ele><time>2026-04-08T10:11:50.11Z</time></trkpt><trkpt lat="44.7100467" lon="9.3775517"><ele>331.0</ele><time>2026-04-08T10:11:51.11Z</time></trkpt><trkpt lat="44.710205" lon="9.3775133"><ele>331.0</ele><time>2026-04-08T10:11:52.11Z</time></trkpt><trkpt lat="44.7103667" lon="9.37756"><ele>331.0</ele><time>2026-04-08T10:11:53.11Z</time></trkpt><trkpt lat="44.7105167" lon="9.3776683"><ele>328.66666666666663</ele><time>2026-04-08T10:11:54.11Z</time></trkpt><trkpt lat="44.7106333" lon="9.3778517"><ele>326.3333333333333</ele><time>2026-04-08T10:11:55.11Z</time></trkpt><trkpt lat="44.710735" lon="9.3780783"><ele>324.0</ele><time>2026-04-08T10:11:56.11Z</time></trkpt><trkpt lat="44.710845" lon="9.3783267"><ele>321.3333333333333</ele><time>2026-04-08T10:11:57.109Z</time></trkpt><trkpt lat="44.7109583" lon="9.378575"><ele>318.66666666666663</ele><time>2026-04-08T10:11:58.11Z</time></trkpt><trkpt lat="44.7110733" lon="9.3788133"><ele>316.0</ele><time>2026-04-08T10:11:59.11Z</time></trkpt><trkpt lat="44.711185" lon="9.37903"><ele>315.0</ele><time>2026-04-08T10:12:00.11Z</time></trkpt><trkpt lat="44.7112833" lon="9.3792283"><ele>314.0</ele><time>2026-04-08T10:12:01.11Z</time></trkpt><trkpt lat="44.7113733" lon="9.37941"><ele>313.0</ele><time>2026-04-08T10:12:02.11Z</time></trkpt><trkpt lat="44.7114583" lon="9.3795767"><ele>314.25</ele><time>2026-04-08T10:12:03.11Z</time></trkpt><trkpt lat="44.711545" lon="9.3797233"><ele>315.5</ele><time>2026-04-08T10:12:04.11Z</time></trkpt><trkpt lat="44.7116283" lon="9.3798517"><ele>316.75</ele><time>2026-04-08T10:12:05.11Z</time></trkpt><trkpt lat="44.71173" lon="9.3799417"><ele>318.0</ele><time>2026-04-08T10:12:06.11Z</time></trkpt><trkpt lat="44.7118417" lon="9.3800033"><ele>319.0</ele><time>2026-04-08T10:12:07.109Z</time></trkpt><trkpt lat="44.7119667" lon="9.380035"><ele>320.0</ele><time>2026-04-08T10:12:08.11Z</time></trkpt><trkpt lat="44.7120967" lon="9.3800417"><ele>321.0</ele><time>2026-04-08T10:12:09.11Z</time></trkpt><trkpt lat="44.7122283" lon="9.3800517"><ele>322.0</ele><time>2026-04-08T10:12:10.11Z</time></trkpt><trkpt lat="44.712365" lon="9.3800583"><ele>322.0</ele><time>2026-04-08T10:12:11.109Z</time></trkpt><trkpt lat="44.7124933" lon="9.3800733"><ele>322.0</ele><time>2026-04-08T10:12:12.11Z</time></trkpt><trkpt lat="44.71262" lon="9.380095"><ele>322.0</ele><time>2026-04-08T10:12:13.11Z</time></trkpt><trkpt lat="44.7127467" lon="9.38012"><ele>322.0</ele><time>2026-04-08T10:12:14.11Z</time></trkpt><trkpt lat="44.7128667" lon="9.3801633"><ele>321.25</ele><time>2026-04-08T10:12:15.11Z</time></trkpt><trkpt lat="44.7129783" lon="9.3801717"><ele>320.5</ele><time>2026-04-08T10:12:16.11Z</time></trkpt><trkpt lat="44.713085" lon="9.380255"><ele>319.75</ele><time>2026-04-08T10:12:17.11Z</time></trkpt><trkpt lat="44.7131967" lon="9.3803333"><ele>319.0</ele><time>2026-04-08T10:12:18.11Z</time></trkpt><trkpt lat="44.713295" lon="9.3804233"><ele>320.0</ele><time>2026-04-08T10:12:19.11Z</time></trkpt><trkpt lat="44.7133917" lon="9.3805183"><ele>321.0</ele><time>2026-04-08T10:12:20.11Z</time></trkpt><trkpt lat="44.7134783" lon="9.3806233"><ele>322.0</ele><time>2026-04-08T10:12:21.109Z</time></trkpt><trkpt lat="44.713555" lon="9.3807367"><ele>323.0</ele><time>2026-04-08T10:12:22.11Z</time></trkpt><trkpt lat="44.7136283" lon="9.3808517"><ele>320.75</ele><time>2026-04-08T10:12:23.11Z</time></trkpt><trkpt lat="44.7136967" lon="9.3809767"><ele>318.5</ele><time>2026-04-08T10:12:24.11Z</time></trkpt><trkpt lat="44.7137617" lon="9.3811117"><ele>316.25</ele><time>2026-04-08T10:12:25.11Z</time></trkpt><trkpt lat="44.7138183" lon="9.3812633"><ele>314.0</ele><time>2026-04-08T10:12:26.11Z</time></trkpt><trkpt lat="44.7138467" lon="9.3814517"><ele>314.0</ele><time>2026-04-08T10:12:27.109Z</time></trkpt><trkpt lat="44.71387" lon="9.38166"><ele>314.0</ele><time>2026-04-08T10:12:28.11Z</time></trkpt><trkpt lat="44.7138767" lon="9.381895"><ele>314.0</ele><time>2026-04-08T10:12:29.11Z</time></trkpt><trkpt lat="44.713895" lon="9.3821333"><ele>315.0</ele><time>2026-04-08T10:12:30.109Z</time></trkpt><trkpt lat="44.71393" lon="9.3823833"><ele>316.0</ele><time>2026-04-08T10:12:31.11Z</time></trkpt><trkpt lat="44.7140017" lon="9.3826267"><ele>317.0</ele><time>2026-04-08T10:12:32.11Z</time></trkpt><trkpt lat="44.7141333" lon="9.3828483"><ele>315.33333333333337</ele><time>2026-04-08T10:12:33.11Z</time></trkpt><trkpt lat="44.7142667" lon="9.38305"><ele>313.6666666666667</ele><time>2026-04-08T10:12:34.109Z</time></trkpt><trkpt lat="44.714385" lon="9.3832417"><ele>312.0</ele><time>2026-04-08T10:12:35.11Z</time></trkpt><trkpt lat="44.7144617" lon="9.38345"><ele>312.0</ele><time>2026-04-08T10:12:36.11Z</time></trkpt><trkpt lat="44.7144817" lon="9.383685"><ele>312.0</ele><time>2026-04-08T10:12:37.11Z</time></trkpt><trkpt lat="44.7144617" lon="9.3839467"><ele>312.0</ele><time>2026-04-08T10:12:38.11Z</time></trkpt><trkpt lat="44.7144183" lon="9.3842517"><ele>310.6666666666667</ele><time>2026-04-08T10:12:39.11Z</time></trkpt><trkpt lat="44.71439" lon="9.38457"><ele>309.33333333333337</ele><time>2026-04-08T10:12:40.11Z</time></trkpt><trkpt lat="44.714385" lon="9.3848817"><ele>308.0</ele><time>2026-04-08T10:12:41.109Z</time></trkpt><trkpt lat="44.71442" lon="9.3851867"><ele>308.0</ele><time>2026-04-08T10:12:42.11Z</time></trkpt><trkpt lat="44.714485" lon="9.385495"><ele>308.0</ele><time>2026-04-08T10:12:43.11Z</time></trkpt><trkpt lat="44.7146033" lon="9.3858183"><ele>311.5</ele><time>2026-04-08T10:12:44.11Z</time></trkpt><trkpt lat="44.71476" lon="9.3861467"><ele>315.0</ele><time>2026-04-08T10:12:45.109Z</time></trkpt><trkpt lat="44.7149117" lon="9.3864717"><ele>320.5</ele><time>2026-04-08T10:12:46.11Z</time></trkpt><trkpt lat="44.7150417" lon="9.38678"><ele>326.0</ele><time>2026-04-08T10:12:47.11Z</time></trkpt><trkpt lat="44.7151617" lon="9.3870667"><ele>321.0</ele><time>2026-04-08T10:12:48.11Z</time></trkpt><trkpt lat="44.7152533" lon="9.3873417"><ele>316.0</ele><time>2026-04-08T10:12:49.11Z</time></trkpt><trkpt lat="44.7153533" lon="9.38761"><ele>311.0</ele><time>2026-04-08T10:12:50.11Z</time></trkpt><trkpt lat="44.715485" lon="9.3878533"><ele>315.33333333333337</ele><time>2026-04-08T10:12:51.11Z</time></trkpt><trkpt lat="44.7156433" lon="9.3880583"><ele>319.6666666666667</ele><time>2026-04-08T10:12:52.11Z</time></trkpt><trkpt lat="44.7157567" lon="9.3883"><ele>324.0</ele><time>2026-04-08T10:12:53.11Z</time></trkpt><trkpt lat="44.7158667" lon="9.3885533"><ele>324.0</ele><time>2026-04-08T10:12:54.11Z</time></trkpt><trkpt lat="44.7159567" lon="9.3888117"><ele>324.0</ele><time>2026-04-08T10:12:55.11Z</time></trkpt><trkpt lat="44.716065" lon="9.3890483"><ele>324.0</ele><time>2026-04-08T10:12:56.11Z</time></trkpt><trkpt lat="44.7161933" lon="9.38926"><ele>320.0</ele><time>2026-04-08T10:12:57.109Z</time></trkpt><trkpt lat="44.7163433" lon="9.3894433"><ele>316.0</ele><time>2026-04-08T10:12:58.11Z</time></trkpt><trkpt lat="44.7165283" lon="9.3896117"><ele>312.0</ele><time>2026-04-08T10:12:59.11Z</time></trkpt><trkpt lat="44.7167433" lon="9.389775"><ele>322.0</ele><time>2026-04-08T10:13:00.11Z</time></trkpt><trkpt lat="44.7169783" lon="9.3899217"><ele>332.0</ele><time>2026-04-08T10:13:01.11Z</time></trkpt><trkpt lat="44.7171983" lon="9.390055"><ele>332.0</ele><time>2026-04-08T10:13:02.11Z</time></trkpt><trkpt lat="44.7174083" lon="9.3901617"><ele>332.0</ele><time>2026-04-08T10:13:03.11Z</time></trkpt><trkpt lat="44.7176233" lon="9.3902267"><ele>332.0</ele><time>2026-04-08T10:13:04.11Z</time></trkpt><trkpt lat="44.71786" lon="9.3902483"><ele>328.5</ele><time>2026-04-08T10:13:05.11Z</time></trkpt><trkpt lat="44.7181033" lon="9.390275"><ele>325.0</ele><time>2026-04-08T10:13:06.11Z</time></trkpt><trkpt lat="44.7183333" lon="9.390315"><ele>325.0</ele><time>2026-04-08T10:13:07.109Z</time></trkpt><trkpt lat="44.71855" lon="9.3903183"><ele>325.0</ele><time>2026-04-08T10:13:08.11Z</time></trkpt><trkpt lat="44.718745" lon="9.3903"><ele>325.0</ele><time>2026-04-08T10:13:09.11Z</time></trkpt><trkpt lat="44.718935" lon="9.3902383"><ele>324.3333333333333</ele><time>2026-04-08T10:13:10.109Z</time></trkpt><trkpt lat="44.71912" lon="9.390135"><ele>323.6666666666667</ele><time>2026-04-08T10:13:11.11Z</time></trkpt><trkpt lat="44.7193067" lon="9.3900417"><ele>323.0</ele><time>2026-04-08T10:13:12.11Z</time></trkpt><trkpt lat="44.71951" lon="9.3900317"><ele>321.6666666666667</ele><time>2026-04-08T10:13:13.11Z</time></trkpt><trkpt lat="44.7197067" lon="9.390065"><ele>320.3333333333333</ele><time>2026-04-08T10:13:14.11Z</time></trkpt><trkpt lat="44.7198767" lon="9.3901283"><ele>319.0</ele><time>2026-04-08T10:13:15.11Z</time></trkpt><trkpt lat="44.7200333" lon="9.3902017"><ele>319.0</ele><time>2026-04-08T10:13:16.109Z</time></trkpt><trkpt lat="44.7201567" lon="9.3903217"><ele>319.0</ele><time>2026-04-08T10:13:17.11Z</time></trkpt><trkpt lat="44.7202333" lon="9.3905217"><ele>319.0</ele><time>2026-04-08T10:13:18.11Z</time></trkpt><trkpt lat="44.7202783" lon="9.3907883"><ele>314.0</ele><time>2026-04-08T10:13:19.11Z</time></trkpt><trkpt lat="44.7202767" lon="9.3911367"><ele>309.0</ele><time>2026-04-08T10:13:20.11Z</time></trkpt><trkpt lat="44.7202883" lon="9.39148"><ele>309.0</ele><time>2026-04-08T10:13:21.109Z</time></trkpt><trkpt lat="44.7203167" lon="9.3917917"><ele>309.0</ele><time>2026-04-08T10:13:22.11Z</time></trkpt><trkpt lat="44.7203683" lon="9.3920917"><ele>309.0</ele><time>2026-04-08T10:13:23.11Z</time></trkpt><trkpt lat="44.7204383" lon="9.392375"><ele>313.3333333333333</ele><time>2026-04-08T10:13:24.109Z</time></trkpt><trkpt lat="44.72053" lon="9.3926333"><ele>317.66666666666663</ele><time>2026-04-08T10:13:25.109Z</time></trkpt><trkpt lat="44.7206433" lon="9.39284"><ele>322.0</ele><time>2026-04-08T10:13:26.11Z</time></trkpt><trkpt lat="44.7207633" lon="9.3930117"><ele>323.25</ele><time>2026-04-08T10:13:27.109Z</time></trkpt><trkpt lat="44.7208283" lon="9.3931833"><ele>324.5</ele><time>2026-04-08T10:13:28.11Z</time></trkpt><trkpt lat="44.720855" lon="9.3933733"><ele>325.75</ele><time>2026-04-08T10:13:29.11Z</time></trkpt><trkpt lat="44.72082" lon="9.3935867"><ele>327.0</ele><time>2026-04-08T10:13:30.11Z</time></trkpt><trkpt lat="44.7207233" lon="9.3938067"><ele>326.3333333333333</ele><time>2026-04-08T10:13:31.11Z</time></trkpt><trkpt lat="44.72062" lon="9.3940167"><ele>325.66666666666663</ele><time>2026-04-08T10:13:32.109Z</time></trkpt><trkpt lat="44.72053" lon="9.3942567"><ele>325.0</ele><time>2026-04-08T10:13:33.11Z</time></trkpt><trkpt lat="44.7204583" lon="9.3945017"><ele>331.0</ele><time>2026-04-08T10:13:34.109Z</time></trkpt><trkpt lat="44.7204433" lon="9.3947083"><ele>337.0</ele><time>2026-04-08T10:13:35.11Z</time></trkpt><trkpt lat="44.7204533" lon="9.3948967"><ele>343.0</ele><time>2026-04-08T10:13:36.11Z</time></trkpt><trkpt lat="44.720495" lon="9.3950633"><ele>349.0</ele><time>2026-04-08T10:13:37.11Z</time></trkpt><trkpt lat="44.7205417" lon="9.3952117"><ele>349.0</ele><time>2026-04-08T10:13:38.109Z</time></trkpt><trkpt lat="44.7206467" lon="9.3952667"><ele>349.0</ele><time>2026-04-08T10:13:39.11Z</time></trkpt><trkpt lat="44.7207833" lon="9.3952333"><ele>349.0</ele><time>2026-04-08T10:13:40.11Z</time></trkpt><trkpt lat="44.72101" lon="9.3949167"><ele>345.0</ele><time>2026-04-08T10:13:41.11Z</time></trkpt><trkpt lat="44.7211633" lon="9.3947367"><ele>341.0</ele><time>2026-04-08T10:13:42.11Z</time></trkpt><trkpt lat="44.721285" lon="9.39457"><ele>337.0</ele><time>2026-04-08T10:13:43.11Z</time></trkpt><trkpt lat="44.7213883" lon="9.3943283"><ele>337.0</ele><time>2026-04-08T10:13:44.11Z</time></trkpt><trkpt lat="44.7214333" lon="9.3941067"><ele>337.0</ele><time>2026-04-08T10:13:45.11Z</time></trkpt><trkpt lat="44.7215083" lon="9.3939633"><ele>337.0</ele><time>2026-04-08T10:13:46.11Z</time></trkpt><trkpt lat="44.7216133" lon="9.39386"><ele>337.0</ele><time>2026-04-08T10:13:47.109Z</time></trkpt><trkpt lat="44.7217417" lon="9.3938567"><ele>338.0</ele><time>2026-04-08T10:13:48.11Z</time></trkpt><trkpt lat="44.7219117" lon="9.394005"><ele>339.0</ele><time>2026-04-08T10:13:49.11Z</time></trkpt><trkpt lat="44.7220383" lon="9.39416"><ele>340.0</ele><time>2026-04-08T10:13:50.11Z</time></trkpt><trkpt lat="44.7221617" lon="9.3943317"><ele>340.0</ele><time>2026-04-08T10:13:51.11Z</time></trkpt><trkpt lat="44.7222633" lon="9.3944983"><ele>340.0</ele><time>2026-04-08T10:13:52.11Z</time></trkpt><trkpt lat="44.7223667" lon="9.3946083"><ele>340.0</ele><time>2026-04-08T10:13:53.11Z</time></trkpt><trkpt lat="44.7224917" lon="9.39463"><ele>340.0</ele><time>2026-04-08T10:13:54.11Z</time></trkpt><trkpt lat="44.722595" lon="9.3945533"><ele>340.0</ele><time>2026-04-08T10:13:55.11Z</time></trkpt><trkpt lat="44.722665" lon="9.39442"><ele>340.0</ele><time>2026-04-08T10:13:56.11Z</time></trkpt><trkpt lat="44.7227467" lon="9.3942833"><ele>340.0</ele><time>2026-04-08T10:13:57.11Z</time></trkpt><trkpt lat="44.7228633" lon="9.39415"><ele>340.0</ele><time>2026-04-08T10:13:58.11Z</time></trkpt><trkpt lat="44.723025" lon="9.3940417"><ele>332.0</ele><time>2026-04-08T10:13:59.11Z</time></trkpt><trkpt lat="44.7232267" lon="9.3939483"><ele>324.0</ele><time>2026-04-08T10:14:00.11Z</time></trkpt><trkpt lat="44.7234333" lon="9.3938333"><ele>316.0</ele><time>2026-04-08T10:14:01.11Z</time></trkpt><trkpt lat="44.7236167" lon="9.3937283"><ele>332.66666666666663</ele><time>2026-04-08T10:14:02.11Z</time></trkpt><trkpt lat="44.7237883" lon="9.3936283"><ele>349.3333333333333</ele><time>2026-04-08T10:14:03.11Z</time></trkpt><trkpt lat="44.7239417" lon="9.3934433"><ele>366.0</ele><time>2026-04-08T10:14:04.11Z</time></trkpt><trkpt lat="44.7240833" lon="9.3931733"><ele>372.5</ele><time>2026-04-08T10:14:05.11Z</time></trkpt><trkpt lat="44.7242467" lon="9.3929167"><ele>379.0</ele><time>2026-04-08T10:14:06.109Z</time></trkpt><trkpt lat="44.7244" lon="9.3926483"><ele>379.0</ele><time>2026-04-08T10:14:07.11Z</time></trkpt><trkpt lat="44.72454" lon="9.392385"><ele>379.0</ele><time>2026-04-08T10:14:08.11Z</time></trkpt><trkpt lat="44.7246467" lon="9.39208"><ele>370.5</ele><time>2026-04-08T10:14:09.11Z</time></trkpt><trkpt lat="44.7247267" lon="9.3917483"><ele>362.0</ele><time>2026-04-08T10:14:10.11Z</time></trkpt><trkpt lat="44.7247983" lon="9.3914267"><ele>357.33333333333337</ele><time>2026-04-08T10:14:11.11Z</time></trkpt><trkpt lat="44.7248633" lon="9.3911367"><ele>352.6666666666667</ele><time>2026-04-08T10:14:12.11Z</time></trkpt><trkpt lat="44.7249183" lon="9.39089"><ele>348.0</ele><time>2026-04-08T10:14:13.109Z</time></trkpt><trkpt lat="44.7249433" lon="9.3906683"><ele>350.75</ele><time>2026-04-08T10:14:14.11Z</time></trkpt><trkpt lat="44.724935" lon="9.3904717"><ele>353.5</ele><time>2026-04-08T10:14:15.11Z</time></trkpt><trkpt lat="44.7248717" lon="9.39028"><ele>356.25</ele><time>2026-04-08T10:14:16.11Z</time></trkpt><trkpt lat="44.72483" lon="9.3900817"><ele>359.0</ele><time>2026-04-08T10:14:17.11Z</time></trkpt><trkpt lat="44.7248183" lon="9.38984"><ele>358.33333333333337</ele><time>2026-04-08T10:14:18.109Z</time></trkpt><trkpt lat="44.7248617" lon="9.3895767"><ele>357.6666666666667</ele><time>2026-04-08T10:14:19.11Z</time></trkpt><trkpt lat="44.7249383" lon="9.3893283"><ele>357.0</ele><time>2026-04-08T10:14:20.11Z</time></trkpt><trkpt lat="44.7250383" lon="9.389125"><ele>357.0</ele><time>2026-04-08T10:14:21.11Z</time></trkpt><trkpt lat="44.7251733" lon="9.3889683"><ele>357.0</ele><time>2026-04-08T10:14:22.11Z</time></trkpt><trkpt lat="44.7253483" lon="9.3888233"><ele>357.0</ele><time>2026-04-08T10:14:23.11Z</time></trkpt><trkpt lat="44.7255433" lon="9.3886567"><ele>363.0</ele><time>2026-04-08T10:14:24.11Z</time></trkpt><trkpt lat="44.72574" lon="9.3884533"><ele>369.0</ele><time>2026-04-08T10:14:25.11Z</time></trkpt><trkpt lat="44.725925" lon="9.38821"><ele>382.0</ele><time>2026-04-08T10:14:26.11Z</time></trkpt><trkpt lat="44.7260867" lon="9.3879267"><ele>395.0</ele><time>2026-04-08T10:14:27.109Z</time></trkpt><trkpt lat="44.7262267" lon="9.38764"><ele>395.0</ele><time>2026-04-08T10:14:28.109Z</time></trkpt><trkpt lat="44.72634" lon="9.3873633"><ele>395.0</ele><time>2026-04-08T10:14:29.11Z</time></trkpt><trkpt lat="44.7264183" lon="9.38708"><ele>395.0</ele><time>2026-04-08T10:14:30.11Z</time></trkpt><trkpt lat="44.7264667" lon="9.3867917"><ele>388.66666666666663</ele><time>2026-04-08T10:14:31.11Z</time></trkpt><trkpt lat="44.726485" lon="9.3864983"><ele>382.3333333333333</ele><time>2026-04-08T10:14:32.109Z</time></trkpt><trkpt lat="44.7264317" lon="9.386185"><ele>376.0</ele><time>2026-04-08T10:14:33.109Z</time></trkpt><trkpt lat="44.7263333" lon="9.3859133"><ele>371.25</ele><time>2026-04-08T10:14:34.109Z</time></trkpt><trkpt lat="44.7262733" lon="9.3856967"><ele>366.5</ele><time>2026-04-08T10:14:35.11Z</time></trkpt><trkpt lat="44.726215" lon="9.38553"><ele>361.75</ele><time>2026-04-08T10:14:36.11Z</time></trkpt><trkpt lat="44.7262017" lon="9.385415"><ele>357.0</ele><time>2026-04-08T10:14:37.11Z</time></trkpt><trkpt lat="44.7262133" lon="9.3853067"><ele>357.0</ele><time>2026-04-08T10:14:38.109Z</time></trkpt><trkpt lat="44.72631" lon="9.3852883"><ele>357.0</ele><time>2026-04-08T10:14:39.11Z</time></trkpt><trkpt lat="44.7264467" lon="9.385335"><ele>357.0</ele><time>2026-04-08T10:14:40.11Z</time></trkpt><trkpt lat="44.7265983" lon="9.3854233"><ele>357.0</ele><time>2026-04-08T10:14:41.11Z</time></trkpt><trkpt lat="44.7267533" lon="9.3855583"><ele>349.0</ele><time>2026-04-08T10:14:42.11Z</time></trkpt><trkpt lat="44.72692" lon="9.385715"><ele>341.0</ele><time>2026-04-08T10:14:43.11Z</time></trkpt><trkpt lat="44.7271167" lon="9.385895"><ele>333.0</ele><time>2026-04-08T10:14:44.109Z</time></trkpt><trkpt lat="44.72733" lon="9.3860667"><ele>333.0</ele><time>2026-04-08T10:14:45.11Z</time></trkpt><trkpt lat="44.727545" lon="9.3862367"><ele>333.0</ele><time>2026-04-08T10:14:46.11Z</time></trkpt><trkpt lat="44.7277733" lon="9.38638"><ele>346.5</ele><time>2026-04-08T10:14:47.11Z</time></trkpt><trkpt lat="44.728015" lon="9.3864883"><ele>360.0</ele><time>2026-04-08T10:14:48.11Z</time></trkpt><trkpt lat="44.7282417" lon="9.3865683"><ele>360.0</ele><time>2026-04-08T10:14:49.11Z</time></trkpt><trkpt lat="44.72845" lon="9.3866333"><ele>360.0</ele><time>2026-04-08T10:14:50.11Z</time></trkpt><trkpt lat="44.7286067" lon="9.3866917"><ele>360.0</ele><time>2026-04-08T10:14:51.11Z</time></trkpt><trkpt lat="44.7286967" lon="9.3867733"><ele>363.75</ele><time>2026-04-08T10:14:52.11Z</time></trkpt><trkpt lat="44.7287867" lon="9.3868733"><ele>367.5</ele><time>2026-04-08T10:14:53.11Z</time></trkpt><trkpt lat="44.7288567" lon="9.3869967"><ele>371.25</ele><time>2026-04-08T10:14:54.11Z</time></trkpt><trkpt lat="44.7289067" lon="9.3871617"><ele>375.0</ele><time>2026-04-08T10:14:55.11Z</time></trkpt><trkpt lat="44.7290217" lon="9.38724"><ele>375.0</ele><time>2026-04-08T10:14:56.11Z</time></trkpt><trkpt lat="44.7291567" lon="9.3873133"><ele>375.0</ele><time>2026-04-08T10:14:57.11Z</time></trkpt><trkpt lat="44.7293133" lon="9.3873367"><ele>375.0</ele><time>2026-04-08T10:14:58.109Z</time></trkpt><trkpt lat="44.72948" lon="9.3873533"><ele>362.0</ele><time>2026-04-08T10:14:59.109Z</time></trkpt><trkpt lat="44.729625" lon="9.3874383"><ele>349.0</ele><time>2026-04-08T10:15:00.11Z</time></trkpt><trkpt lat="44.72976" lon="9.3875833"><ele>336.0</ele><time>2026-04-08T10:15:01.109Z</time></trkpt><trkpt lat="44.7299" lon="9.3876967"><ele>336.0</ele><time>2026-04-08T10:15:02.11Z</time></trkpt><trkpt lat="44.730055" lon="9.38781"><ele>336.0</ele><time>2026-04-08T10:15:03.11Z</time></trkpt><trkpt lat="44.7302183" lon="9.387925"><ele>336.0</ele><time>2026-04-08T10:15:04.11Z</time></trkpt><trkpt lat="44.7303967" lon="9.3880083"><ele>344.0</ele><time>2026-04-08T10:15:05.11Z</time></trkpt><trkpt lat="44.7305683" lon="9.38805"><ele>352.0</ele><time>2026-04-08T10:15:06.11Z</time></trkpt><trkpt lat="44.7307233" lon="9.3881067"><ele>360.0</ele><time>2026-04-08T10:15:07.11Z</time></trkpt><trkpt lat="44.7308583" lon="9.3881967"><ele>360.0</ele><time>2026-04-08T10:15:08.11Z</time></trkpt><trkpt lat="44.7309567" lon="9.388315"><ele>360.0</ele><time>2026-04-08T10:15:09.11Z</time></trkpt><trkpt lat="44.7310567" lon="9.388425"><ele>360.0</ele><time>2026-04-08T10:15:10.11Z</time></trkpt><trkpt lat="44.7311633" lon="9.388515"><ele>360.0</ele><time>2026-04-08T10:15:11.11Z</time></trkpt><trkpt lat="44.7313133" lon="9.3885467"><ele>353.6666666666667</ele><time>2026-04-08T10:15:12.11Z</time></trkpt><trkpt lat="44.73153" lon="9.3885183"><ele>347.33333333333337</ele><time>2026-04-08T10:15:13.11Z</time></trkpt><trkpt lat="44.7317433" lon="9.3885383"><ele>341.0</ele><time>2026-04-08T10:15:14.11Z</time></trkpt><trkpt lat="44.7319283" lon="9.38859"><ele>333.33333333333337</ele><time>2026-04-08T10:15:15.109Z</time></trkpt><trkpt lat="44.7320833" lon="9.3886733"><ele>325.6666666666667</ele><time>2026-04-08T10:15:16.11Z</time></trkpt><trkpt lat="44.732225" lon="9.388785"><ele>318.0</ele><time>2026-04-08T10:15:17.11Z</time></trkpt><trkpt lat="44.7323717" lon="9.3889"><ele>328.0</ele><time>2026-04-08T10:15:18.11Z</time></trkpt><trkpt lat="44.7325233" lon="9.3889967"><ele>338.0</ele><time>2026-04-08T10:15:19.11Z</time></trkpt><trkpt lat="44.7327117" lon="9.3890633"><ele>348.0</ele><time>2026-04-08T10:15:20.109Z</time></trkpt><trkpt lat="44.7329467" lon="9.3891"><ele>348.0</ele><time>2026-04-08T10:15:21.11Z</time></trkpt><trkpt lat="44.7332233" lon="9.3891117"><ele>348.0</ele><time>2026-04-08T10:15:22.11Z</time></trkpt><trkpt lat="44.7334533" lon="9.3891383"><ele>346.5</ele><time>2026-04-08T10:15:23.11Z</time></trkpt><trkpt lat="44.73371" lon="9.3891283"><ele>345.0</ele><time>2026-04-08T10:15:24.11Z</time></trkpt><trkpt lat="44.7339583" lon="9.3891083"><ele>345.0</ele><time>2026-04-08T10:15:25.11Z</time></trkpt><trkpt lat="44.7341867" lon="9.3891283"><ele>345.0</ele><time>2026-04-08T10:15:26.11Z</time></trkpt><trkpt lat="44.7343967" lon="9.3891933"><ele>345.0</ele><time>2026-04-08T10:15:27.11Z</time></trkpt><trkpt lat="44.73461" lon="9.3893083"><ele>337.5</ele><time>2026-04-08T10:15:28.11Z</time></trkpt><trkpt lat="44.7348333" lon="9.3894533"><ele>330.0</ele><time>2026-04-08T10:15:29.11Z</time></trkpt><trkpt lat="44.73507" lon="9.389575"><ele>325.0</ele><time>2026-04-08T10:15:30.11Z</time></trkpt><trkpt lat="44.7353233" lon="9.3896583"><ele>320.0</ele><time>2026-04-08T10:15:31.109Z</time></trkpt><trkpt lat="44.735595" lon="9.38971"><ele>340.0</ele><time>2026-04-08T10:15:32.11Z</time></trkpt><trkpt lat="44.7358833" lon="9.3897167"><ele>360.0</ele><time>2026-04-08T10:15:33.11Z</time></trkpt><trkpt lat="44.7361633" lon="9.3897083"><ele>362.0</ele><time>2026-04-08T10:15:34.109Z</time></trkpt><trkpt lat="44.7364317" lon="9.389685"><ele>364.0</ele><time>2026-04-08T10:15:35.11Z</time></trkpt><trkpt lat="44.7366867" lon="9.3896533"><ele>348.5</ele><time>2026-04-08T10:15:36.11Z</time></trkpt><trkpt lat="44.7369317" lon="9.3895933"><ele>333.0</ele><time>2026-04-08T10:15:37.11Z</time></trkpt><trkpt lat="44.7371667" lon="9.38951"><ele>333.0</ele><time>2026-04-08T10:15:38.11Z</time></trkpt><trkpt lat="44.7373867" lon="9.38934"><ele>333.0</ele><time>2026-04-08T10:15:39.11Z</time></trkpt><trkpt lat="44.7375933" lon="9.3891833"><ele>333.3333333333333</ele><time>2026-04-08T10:15:40.11Z</time></trkpt><trkpt lat="44.7377717" lon="9.389015"><ele>333.66666666666663</ele><time>2026-04-08T10:15:41.109Z</time></trkpt><trkpt lat="44.737925" lon="9.3888733"><ele>334.0</ele><time>2026-04-08T10:15:42.11Z</time></trkpt><trkpt lat="44.7380533" lon="9.388745"><ele>332.0</ele><time>2026-04-08T10:15:43.11Z</time></trkpt><trkpt lat="44.7381633" lon="9.3886283"><ele>330.0</ele><time>2026-04-08T10:15:44.109Z</time></trkpt><trkpt lat="44.7382633" lon="9.3885067"><ele>328.0</ele><time>2026-04-08T10:15:45.109Z</time></trkpt><trkpt lat="44.73835" lon="9.3884017"><ele>326.0</ele><time>2026-04-08T10:15:46.11Z</time></trkpt><trkpt lat="44.7384233" lon="9.3882833"><ele>326.0</ele><time>2026-04-08T10:15:47.11Z</time></trkpt><trkpt lat="44.7384917" lon="9.388185"><ele>326.0</ele><time>2026-04-08T10:15:48.11Z</time></trkpt><trkpt lat="44.7385567" lon="9.3880933"><ele>326.0</ele><time>2026-04-08T10:15:49.11Z</time></trkpt><trkpt lat="44.7386117" lon="9.3880083"><ele>326.0</ele><time>2026-04-08T10:15:50.11Z</time></trkpt><trkpt lat="44.7386617" lon="9.38793"><ele>326.0</ele><time>2026-04-08T10:15:51.11Z</time></trkpt><trkpt lat="44.7387317" lon="9.387805"><ele>326.33333333333337</ele><time>2026-04-08T10:15:53.11Z</time></trkpt><trkpt lat="44.738775" lon="9.3877183"><ele>326.6666666666667</ele><time>2026-04-08T10:15:55.11Z</time></trkpt><trkpt lat="44.7387933" lon="9.38761"><ele>327.0</ele><time>2026-04-08T10:16:03.11Z</time></trkpt><trkpt lat="44.73885" lon="9.3875617"><ele>327.3333333333333</ele><time>2026-04-08T10:16:05.11Z</time></trkpt><trkpt lat="44.73895" lon="9.3874933"><ele>327.66666666666663</ele><time>2026-04-08T10:16:07.11Z</time></trkpt><trkpt lat="44.7390133" lon="9.3874567"><ele>328.0</ele><time>2026-04-08T10:16:08.11Z</time></trkpt><trkpt lat="44.7390833" lon="9.3874117"><ele>328.0</ele><time>2026-04-08T10:16:09.11Z</time></trkpt><trkpt lat="44.739155" lon="9.3873633"><ele>328.0</ele><time>2026-04-08T10:16:10.109Z</time></trkpt><trkpt lat="44.7392267" lon="9.3873083"><ele>328.0</ele><time>2026-04-08T10:16:11.109Z</time></trkpt><trkpt lat="44.7393183" lon="9.3872767"><ele>328.0</ele><time>2026-04-08T10:16:12.11Z</time></trkpt><trkpt lat="44.7394067" lon="9.38724"><ele>328.0</ele><time>2026-04-08T10:16:13.11Z</time></trkpt><trkpt lat="44.7395083" lon="9.387205"><ele>325.0</ele><time>2026-04-08T10:16:14.109Z</time></trkpt><trkpt lat="44.7396217" lon="9.3871883"><ele>322.0</ele><time>2026-04-08T10:16:15.11Z</time></trkpt><trkpt lat="44.7397483" lon="9.38718"><ele>319.0</ele><time>2026-04-08T10:16:16.11Z</time></trkpt><trkpt lat="44.7398933" lon="9.3871867"><ele>316.0</ele><time>2026-04-08T10:16:17.11Z</time></trkpt><trkpt lat="44.7400333" lon="9.3872117"><ele>316.0</ele><time>2026-04-08T10:16:18.11Z</time></trkpt><trkpt lat="44.7401733" lon="9.3872533"><ele>316.0</ele><time>2026-04-08T10:16:19.11Z</time></trkpt><trkpt lat="44.7403117" lon="9.3873067"><ele>316.0</ele><time>2026-04-08T10:16:20.11Z</time></trkpt><trkpt lat="44.740455" lon="9.38737"><ele>316.0</ele><time>2026-04-08T10:16:21.11Z</time></trkpt><trkpt lat="44.7405917" lon="9.3874433"><ele>329.3333333333333</ele><time>2026-04-08T10:16:22.11Z</time></trkpt><trkpt lat="44.7407617" lon="9.3875283"><ele>342.6666666666667</ele><time>2026-04-08T10:16:23.109Z</time></trkpt><trkpt lat="44.7409167" lon="9.3876133"><ele>356.0</ele><time>2026-04-08T10:16:24.11Z</time></trkpt><trkpt lat="44.7410717" lon="9.38772"><ele>357.6666666666667</ele><time>2026-04-08T10:16:25.11Z</time></trkpt><trkpt lat="44.741215" lon="9.38783"><ele>359.3333333333333</ele><time>2026-04-08T10:16:26.11Z</time></trkpt><trkpt lat="44.7413583" lon="9.387935"><ele>361.0</ele><time>2026-04-08T10:16:27.109Z</time></trkpt><trkpt lat="44.7414967" lon="9.3880417"><ele>368.3333333333333</ele><time>2026-04-08T10:16:28.109Z</time></trkpt><trkpt lat="44.7416417" lon="9.38815"><ele>375.6666666666667</ele><time>2026-04-08T10:16:29.11Z</time></trkpt><trkpt lat="44.7417983" lon="9.388235"><ele>383.0</ele><time>2026-04-08T10:16:30.11Z</time></trkpt><trkpt lat="44.741945" lon="9.3883233"><ele>333.0</ele><time>2026-04-08T10:16:31.11Z</time></trkpt><trkpt lat="44.7425767" lon="9.3887167"><ele>333.0</ele><time>2026-04-08T10:16:35.109Z</time></trkpt><trkpt lat="44.7427017" lon="9.388735"><ele>333.0</ele><time>2026-04-08T10:16:36.11Z</time></trkpt><trkpt lat="44.74285" lon="9.3887967"><ele>333.0</ele><time>2026-04-08T10:16:37.11Z</time></trkpt><trkpt lat="44.7430033" lon="9.3888867"><ele>333.0</ele><time>2026-04-08T10:16:38.11Z</time></trkpt><trkpt lat="44.74318" lon="9.3889833"><ele>331.5</ele><time>2026-04-08T10:16:39.11Z</time></trkpt><trkpt lat="44.7434033" lon="9.3890483"><ele>330.0</ele><time>2026-04-08T10:16:40.11Z</time></trkpt><trkpt lat="44.7436633" lon="9.3890733"><ele>330.0</ele><time>2026-04-08T10:16:41.11Z</time></trkpt><trkpt lat="44.7439483" lon="9.3890617"><ele>330.0</ele><time>2026-04-08T10:16:42.11Z</time></trkpt><trkpt lat="44.7442083" lon="9.3890683"><ele>322.0</ele><time>2026-04-08T10:16:43.109Z</time></trkpt><trkpt lat="44.7444483" lon="9.3891083"><ele>314.0</ele><time>2026-04-08T10:16:44.11Z</time></trkpt><trkpt lat="44.7446833" lon="9.389195"><ele>314.0</ele><time>2026-04-08T10:16:45.11Z</time></trkpt><trkpt lat="44.744915" lon="9.3893117"><ele>314.0</ele><time>2026-04-08T10:16:46.11Z</time></trkpt><trkpt lat="44.74515" lon="9.3894517"><ele>318.0</ele><time>2026-04-08T10:16:47.11Z</time></trkpt><trkpt lat="44.7453867" lon="9.3896217"><ele>322.0</ele><time>2026-04-08T10:16:48.11Z</time></trkpt><trkpt lat="44.7456233" lon="9.3898033"><ele>322.0</ele><time>2026-04-08T10:16:49.109Z</time></trkpt><trkpt lat="44.745875" lon="9.3899617"><ele>322.0</ele><time>2026-04-08T10:16:50.109Z</time></trkpt><trkpt lat="44.7461433" lon="9.3900817"><ele>314.0</ele><time>2026-04-08T10:16:51.11Z</time></trkpt><trkpt lat="44.7464133" lon="9.3901517"><ele>306.0</ele><time>2026-04-08T10:16:52.11Z</time></trkpt><trkpt lat="44.74668" lon="9.39019"><ele>315.0</ele><time>2026-04-08T10:16:53.11Z</time></trkpt><trkpt lat="44.7469633" lon="9.3901333"><ele>324.0</ele><time>2026-04-08T10:16:54.11Z</time></trkpt><trkpt lat="44.7472417" lon="9.3900017"><ele>324.0</ele><time>2026-04-08T10:16:55.11Z</time></trkpt><trkpt lat="44.747495" lon="9.3898367"><ele>324.0</ele><time>2026-04-08T10:16:56.11Z</time></trkpt><trkpt lat="44.7477183" lon="9.3896167"><ele>330.5</ele><time>2026-04-08T10:16:57.11Z</time></trkpt><trkpt lat="44.747925" lon="9.3893583"><ele>337.0</ele><time>2026-04-08T10:16:58.109Z</time></trkpt><trkpt lat="44.74811" lon="9.3890717"><ele>322.0</ele><time>2026-04-08T10:16:59.11Z</time></trkpt><trkpt lat="44.74827" lon="9.388745"><ele>307.0</ele><time>2026-04-08T10:17:00.11Z</time></trkpt><trkpt lat="44.748425" lon="9.388395"><ele>327.0</ele><time>2026-04-08T10:17:01.11Z</time></trkpt><trkpt lat="44.7485833" lon="9.388025"><ele>347.0</ele><time>2026-04-08T10:17:02.11Z</time></trkpt><trkpt lat="44.7487283" lon="9.3876333"><ele>347.0</ele><time>2026-04-08T10:17:03.11Z</time></trkpt><trkpt lat="44.7488467" lon="9.3872083"><ele>347.0</ele><time>2026-04-08T10:17:04.11Z</time></trkpt><trkpt lat="44.74893" lon="9.3867633"><ele>332.0</ele><time>2026-04-08T10:17:05.109Z</time></trkpt><trkpt lat="44.748995" lon="9.3863133"><ele>317.0</ele><time>2026-04-08T10:17:06.11Z</time></trkpt><trkpt lat="44.7490067" lon="9.38585"><ele>313.0</ele><time>2026-04-08T10:17:07.11Z</time></trkpt><trkpt lat="44.749005" lon="9.3853867"><ele>309.0</ele><time>2026-04-08T10:17:08.11Z</time></trkpt><trkpt lat="44.7489967" lon="9.384925"><ele>310.5</ele><time>2026-04-08T10:17:09.11Z</time></trkpt><trkpt lat="44.7489967" lon="9.3844633"><ele>312.0</ele><time>2026-04-08T10:17:10.109Z</time></trkpt><trkpt lat="44.7490017" lon="9.3840083"><ele>309.5</ele><time>2026-04-08T10:17:11.11Z</time></trkpt><trkpt lat="44.748995" lon="9.3835517"><ele>307.0</ele><time>2026-04-08T10:17:12.109Z</time></trkpt><trkpt lat="44.7489183" lon="9.3831217"><ele>306.5</ele><time>2026-04-08T10:17:13.11Z</time></trkpt><trkpt lat="44.74888" lon="9.3826967"><ele>306.0</ele><time>2026-04-08T10:17:14.109Z</time></trkpt><trkpt lat="44.7488333" lon="9.3823117"><ele>302.5</ele><time>2026-04-08T10:17:15.11Z</time></trkpt><trkpt lat="44.74876" lon="9.3819767"><ele>299.0</ele><time>2026-04-08T10:17:16.11Z</time></trkpt><trkpt lat="44.748735" lon="9.38162"><ele>292.0</ele><time>2026-04-08T10:17:17.11Z</time></trkpt><trkpt lat="44.748815" lon="9.3812533"><ele>285.0</ele><time>2026-04-08T10:17:18.109Z</time></trkpt><trkpt lat="44.7489233" lon="9.3809133"><ele>285.0</ele><time>2026-04-08T10:17:19.109Z</time></trkpt><trkpt lat="44.7490567" lon="9.380595"><ele>285.0</ele><time>2026-04-08T10:17:20.11Z</time></trkpt><trkpt lat="44.7492317" lon="9.3803017"><ele>277.5</ele><time>2026-04-08T10:17:21.11Z</time></trkpt><trkpt lat="44.7494417" lon="9.3800467"><ele>270.0</ele><time>2026-04-08T10:17:22.11Z</time></trkpt><trkpt lat="44.749695" lon="9.379865"><ele>270.0</ele><time>2026-04-08T10:17:23.11Z</time></trkpt><trkpt lat="44.7499533" lon="9.3797167"><ele>270.0</ele><time>2026-04-08T10:17:24.11Z</time></trkpt><trkpt lat="44.7502417" lon="9.3796583"><ele>268.5</ele><time>2026-04-08T10:17:25.11Z</time></trkpt><trkpt lat="44.7505517" lon="9.3796683"><ele>267.0</ele><time>2026-04-08T10:17:26.109Z</time></trkpt><trkpt lat="44.75086" lon="9.3796967"><ele>266.0</ele><time>2026-04-08T10:17:27.11Z</time></trkpt><trkpt lat="44.75117" lon="9.3797267"><ele>265.0</ele><time>2026-04-08T10:17:28.109Z</time></trkpt><trkpt lat="44.7514867" lon="9.3797533"><ele>265.0</ele><time>2026-04-08T10:17:29.11Z</time></trkpt><trkpt lat="44.7518017" lon="9.3797783"><ele>265.0</ele><time>2026-04-08T10:17:30.109Z</time></trkpt><trkpt lat="44.7521183" lon="9.379805"><ele>264.5</ele><time>2026-04-08T10:17:31.109Z</time></trkpt><trkpt lat="44.752435" lon="9.37983"><ele>264.0</ele><time>2026-04-08T10:17:32.11Z</time></trkpt><trkpt lat="44.7527533" lon="9.379825"><ele>264.0</ele><time>2026-04-08T10:17:33.11Z</time></trkpt><trkpt lat="44.7530633" lon="9.3798433"><ele>264.0</ele><time>2026-04-08T10:17:34.11Z</time></trkpt><trkpt lat="44.75336" lon="9.3798683"><ele>267.5</ele><time>2026-04-08T10:17:35.109Z</time></trkpt><trkpt lat="44.753645" lon="9.379975"><ele>271.0</ele><time>2026-04-08T10:17:36.11Z</time></trkpt><trkpt lat="44.7539167" lon="9.380005"><ele>271.0</ele><time>2026-04-08T10:17:37.11Z</time></trkpt><trkpt lat="44.7541733" lon="9.3801583"><ele>271.0</ele><time>2026-04-08T10:17:38.11Z</time></trkpt><trkpt lat="44.7544317" lon="9.3803067"><ele>271.0</ele><time>2026-04-08T10:17:39.11Z</time></trkpt><trkpt lat="44.7546667" lon="9.3805083"><ele>271.0</ele><time>2026-04-08T10:17:40.11Z</time></trkpt><trkpt lat="44.7549" lon="9.3807267"><ele>271.0</ele><time>2026-04-08T10:17:41.11Z</time></trkpt><trkpt lat="44.755135" lon="9.38095"><ele>271.0</ele><time>2026-04-08T10:17:42.109Z</time></trkpt><trkpt lat="44.7553683" lon="9.3811683"><ele>270.5</ele><time>2026-04-08T10:17:43.11Z</time></trkpt><trkpt lat="44.7555983" lon="9.3813817"><ele>270.0</ele><time>2026-04-08T10:17:44.11Z</time></trkpt><trkpt lat="44.7558233" lon="9.3815633"><ele>270.0</ele><time>2026-04-08T10:17:45.11Z</time></trkpt><trkpt lat="44.7560267" lon="9.38176"><ele>270.0</ele><time>2026-04-08T10:17:46.11Z</time></trkpt><trkpt lat="44.7562317" lon="9.3819367"><ele>270.5</ele><time>2026-04-08T10:17:47.11Z</time></trkpt><trkpt lat="44.7564567" lon="9.382065"><ele>271.0</ele><time>2026-04-08T10:17:48.11Z</time></trkpt><trkpt lat="44.7566817" lon="9.3821517"><ele>270.0</ele><time>2026-04-08T10:17:49.109Z</time></trkpt><trkpt lat="44.75691" lon="9.3821767"><ele>269.0</ele><time>2026-04-08T10:17:50.11Z</time></trkpt><trkpt lat="44.7571583" lon="9.3821483"><ele>269.0</ele><time>2026-04-08T10:17:51.11Z</time></trkpt><trkpt lat="44.75741" lon="9.3820867"><ele>269.0</ele><time>2026-04-08T10:17:52.11Z</time></trkpt><trkpt lat="44.7576583" lon="9.38203"><ele>268.0</ele><time>2026-04-08T10:17:53.109Z</time></trkpt><trkpt lat="44.7579" lon="9.3819817"><ele>267.0</ele><time>2026-04-08T10:17:54.109Z</time></trkpt><trkpt lat="44.7581433" lon="9.3819317"><ele>267.0</ele><time>2026-04-08T10:17:55.109Z</time></trkpt><trkpt lat="44.7583783" lon="9.3818867"><ele>267.0</ele><time>2026-04-08T10:17:56.11Z</time></trkpt><trkpt lat="44.7586133" lon="9.3818567"><ele>266.5</ele><time>2026-04-08T10:17:57.11Z</time></trkpt><trkpt lat="44.7588433" lon="9.3818117"><ele>266.0</ele><time>2026-04-08T10:17:58.11Z</time></trkpt><trkpt lat="44.7590717" lon="9.3817783"><ele>266.0</ele><time>2026-04-08T10:17:59.11Z</time></trkpt><trkpt lat="44.7592967" lon="9.381735"><ele>266.0</ele><time>2026-04-08T10:18:00.11Z</time></trkpt><trkpt lat="44.7595117" lon="9.3816917"><ele>266.0</ele><time>2026-04-08T10:18:01.11Z</time></trkpt><trkpt lat="44.7597233" lon="9.3816833"><ele>266.0</ele><time>2026-04-08T10:18:02.11Z</time></trkpt><trkpt lat="44.75993" lon="9.3816983"><ele>266.0</ele><time>2026-04-08T10:18:03.109Z</time></trkpt><trkpt lat="44.7601383" lon="9.381735"><ele>266.0</ele><time>2026-04-08T10:18:04.109Z</time></trkpt><trkpt lat="44.760545" lon="9.3818867"><ele>266.6666666666667</ele><time>2026-04-08T10:18:06.11Z</time></trkpt><trkpt lat="44.760735" lon="9.3820233"><ele>267.3333333333333</ele><time>2026-04-08T10:18:07.11Z</time></trkpt><trkpt lat="44.760935" lon="9.3821583"><ele>268.0</ele><time>2026-04-08T10:18:08.109Z</time></trkpt><trkpt lat="44.761135" lon="9.3823017"><ele>266.3333333333333</ele><time>2026-04-08T10:18:09.11Z</time></trkpt><trkpt lat="44.7613317" lon="9.3824417"><ele>264.6666666666667</ele><time>2026-04-08T10:18:10.11Z</time></trkpt><trkpt lat="44.7615417" lon="9.3825567"><ele>263.0</ele><time>2026-04-08T10:18:11.109Z</time></trkpt><trkpt lat="44.76174" lon="9.3827167"><ele>264.5</ele><time>2026-04-08T10:18:12.109Z</time></trkpt><trkpt lat="44.7619683" lon="9.382835"><ele>266.0</ele><time>2026-04-08T10:18:13.11Z</time></trkpt><trkpt lat="44.7621933" lon="9.3829833"><ele>264.5</ele><time>2026-04-08T10:18:14.109Z</time></trkpt><trkpt lat="44.7624133" lon="9.383165"><ele>263.0</ele><time>2026-04-08T10:18:15.11Z</time></trkpt><trkpt lat="44.762625" lon="9.3833583"><ele>269.5</ele><time>2026-04-08T10:18:16.11Z</time></trkpt><trkpt lat="44.7628183" lon="9.383575"><ele>276.0</ele><time>2026-04-08T10:18:17.11Z</time></trkpt><trkpt lat="44.7629917" lon="9.3838"><ele>273.3333333333333</ele><time>2026-04-08T10:18:18.11Z</time></trkpt><trkpt lat="44.7631533" lon="9.3840017"><ele>270.66666666666663</ele><time>2026-04-08T10:18:19.109Z</time></trkpt><trkpt lat="44.763295" lon="9.3841983"><ele>268.0</ele><time>2026-04-08T10:18:20.11Z</time></trkpt><trkpt lat="44.763405" lon="9.384405"><ele>268.0</ele><time>2026-04-08T10:18:21.108Z</time></trkpt><trkpt lat="44.7634983" lon="9.3846067"><ele>268.0</ele><time>2026-04-08T10:18:22.109Z</time></trkpt><trkpt lat="44.7635867" lon="9.3847917"><ele>268.0</ele><time>2026-04-08T10:18:23.109Z</time></trkpt><trkpt lat="44.763665" lon="9.3849583"><ele>267.6</ele><time>2026-04-08T10:18:24.108Z</time></trkpt><trkpt lat="44.763735" lon="9.3851"><ele>267.20000000000005</ele><time>2026-04-08T10:18:25.109Z</time></trkpt><trkpt lat="44.7637983" lon="9.3852183"><ele>266.8</ele><time>2026-04-08T10:18:26.109Z</time></trkpt><trkpt lat="44.7638467" lon="9.3853333"><ele>266.40000000000003</ele><time>2026-04-08T10:18:27.109Z</time></trkpt><trkpt lat="44.7638883" lon="9.3854433"><ele>266.0</ele><time>2026-04-08T10:18:28.109Z</time></trkpt><trkpt lat="44.7639317" lon="9.3855367"><ele>266.0</ele><time>2026-04-08T10:18:29.109Z</time></trkpt><trkpt lat="44.7639733" lon="9.38562"><ele>266.0</ele><time>2026-04-08T10:18:30.108Z</time></trkpt><trkpt lat="44.764015" lon="9.3857017"><ele>266.0</ele><time>2026-04-08T10:18:31.109Z</time></trkpt><trkpt lat="44.7640533" lon="9.385785"><ele>266.0</ele><time>2026-04-08T10:18:32.108Z</time></trkpt><trkpt lat="44.764095" lon="9.3858667"><ele>266.0</ele><time>2026-04-08T10:18:33.108Z</time></trkpt><trkpt lat="44.76414" lon="9.3859433"><ele>266.0</ele><time>2026-04-08T10:18:34.108Z</time></trkpt><trkpt lat="44.76418" lon="9.3860217"><ele>266.0</ele><time>2026-04-08T10:18:35.108Z</time></trkpt><trkpt lat="44.76423" lon="9.386085"><ele>266.0</ele><time>2026-04-08T10:18:36.109Z</time></trkpt><trkpt lat="44.76429" lon="9.3861283"><ele>266.0</ele><time>2026-04-08T10:18:37.109Z</time></trkpt><trkpt lat="44.7643667" lon="9.386145"><ele>266.0</ele><time>2026-04-08T10:18:38.109Z</time></trkpt><trkpt lat="44.76445" lon="9.386155"><ele>266.0</ele><time>2026-04-08T10:18:39.109Z</time></trkpt><trkpt lat="44.7645283" lon="9.3861767"><ele>266.0</ele><time>2026-04-08T10:18:40.109Z</time></trkpt><trkpt lat="44.7646067" lon="9.3862067"><ele>266.0</ele><time>2026-04-08T10:18:41.108Z</time></trkpt><trkpt lat="44.7646933" lon="9.3862267"><ele>267.0</ele><time>2026-04-08T10:18:42.109Z</time></trkpt><trkpt lat="44.7648083" lon="9.3862633"><ele>268.0</ele><time>2026-04-08T10:18:43.109Z</time></trkpt><trkpt lat="44.7649583" lon="9.3863217"><ele>269.0</ele><time>2026-04-08T10:18:44.109Z</time></trkpt><trkpt lat="44.7651383" lon="9.386385"><ele>269.33333333333337</ele><time>2026-04-08T10:18:45.108Z</time></trkpt><trkpt lat="44.7653583" lon="9.3864183"><ele>269.6666666666667</ele><time>2026-04-08T10:18:46.108Z</time></trkpt><trkpt lat="44.7655333" lon="9.386465"><ele>270.0</ele><time>2026-04-08T10:18:47.109Z</time></trkpt><trkpt lat="44.7656933" lon="9.3865183"><ele>270.0</ele><time>2026-04-08T10:18:48.109Z</time></trkpt><trkpt lat="44.7658233" lon="9.386565"><ele>270.0</ele><time>2026-04-08T10:18:49.109Z</time></trkpt><trkpt lat="44.7659283" lon="9.3866017"><ele>270.0</ele><time>2026-04-08T10:18:50.108Z</time></trkpt><trkpt lat="44.7659967" lon="9.3866317"><ele>270.0</ele><time>2026-04-08T10:18:51.109Z</time></trkpt><trkpt lat="44.7661067" lon="9.386655"><ele>270.0</ele><time>2026-04-08T10:18:53.109Z</time></trkpt><trkpt lat="44.7661933" lon="9.3865733"><ele>272.4</ele><time>2026-04-08T10:18:55.109Z</time></trkpt><trkpt lat="44.7662317" lon="9.3864883"><ele>274.8</ele><time>2026-04-08T10:18:56.109Z</time></trkpt><trkpt lat="44.7662417" lon="9.386355"><ele>277.2</ele><time>2026-04-08T10:18:57.108Z</time></trkpt><trkpt lat="44.766245" lon="9.3862217"><ele>279.6</ele><time>2026-04-08T10:18:58.109Z</time></trkpt><trkpt lat="44.76626" lon="9.3860633"><ele>282.0</ele><time>2026-04-08T10:18:59.109Z</time></trkpt><trkpt lat="44.7662767" lon="9.3858933"><ele>282.3333333333333</ele><time>2026-04-08T10:19:00.109Z</time></trkpt><trkpt lat="44.76631" lon="9.3856883"><ele>282.66666666666663</ele><time>2026-04-08T10:19:01.109Z</time></trkpt><trkpt lat="44.7663633" lon="9.385465"><ele>283.0</ele><time>2026-04-08T10:19:02.109Z</time></trkpt><trkpt lat="44.7664" lon="9.3852417"><ele>283.0</ele><time>2026-04-08T10:19:03.109Z</time></trkpt><trkpt lat="44.7664533" lon="9.38499"><ele>283.0</ele><time>2026-04-08T10:19:04.109Z</time></trkpt><trkpt lat="44.7665067" lon="9.384745"><ele>283.0</ele><time>2026-04-08T10:19:05.109Z</time></trkpt><trkpt lat="44.7665467" lon="9.3844717"><ele>283.0</ele><time>2026-04-08T10:19:06.108Z</time></trkpt><trkpt lat="44.766575" lon="9.384235"><ele>283.0</ele><time>2026-04-08T10:19:07.108Z</time></trkpt><trkpt lat="44.7666067" lon="9.3840417"><ele>283.0</ele><time>2026-04-08T10:19:08.109Z</time></trkpt><trkpt lat="44.7666383" lon="9.3839017"><ele>283.0</ele><time>2026-04-08T10:19:09.109Z</time></trkpt><trkpt lat="44.76671" lon="9.38375"><ele>282.75</ele><time>2026-04-08T10:19:10.109Z</time></trkpt><trkpt lat="44.7668083" lon="9.3836233"><ele>282.5</ele><time>2026-04-08T10:19:11.109Z</time></trkpt><trkpt lat="44.7669067" lon="9.3835017"><ele>282.25</ele><time>2026-04-08T10:19:12.109Z</time></trkpt><trkpt lat="44.7669817" lon="9.3833967"><ele>282.0</ele><time>2026-04-08T10:19:13.109Z</time></trkpt><trkpt lat="44.76706" lon="9.3833083"><ele>284.0</ele><time>2026-04-08T10:19:14.109Z</time></trkpt><trkpt lat="44.76713" lon="9.3832233"><ele>286.0</ele><time>2026-04-08T10:19:15.109Z</time></trkpt><trkpt lat="44.7671917" lon="9.3831617"><ele>288.0</ele><time>2026-04-08T10:19:16.108Z</time></trkpt><trkpt lat="44.7672483" lon="9.38311"><ele>290.0</ele><time>2026-04-08T10:19:17.109Z</time></trkpt><trkpt lat="44.76731" lon="9.383055"><ele>292.0</ele><time>2026-04-08T10:19:18.109Z</time></trkpt><trkpt lat="44.767385" lon="9.3829883"><ele>294.0</ele><time>2026-04-08T10:19:19.109Z</time></trkpt><trkpt lat="44.767485" lon="9.3828983"><ele>295.0</ele><time>2026-04-08T10:19:20.109Z</time></trkpt><trkpt lat="44.767605" lon="9.3827933"><ele>296.0</ele><time>2026-04-08T10:19:21.109Z</time></trkpt><trkpt lat="44.76772" lon="9.38269"><ele>297.0</ele><time>2026-04-08T10:19:22.108Z</time></trkpt><trkpt lat="44.7678117" lon="9.3825917"><ele>298.0</ele><time>2026-04-08T10:19:23.109Z</time></trkpt><trkpt lat="44.767885" lon="9.382525"><ele>299.8</ele><time>2026-04-08T10:19:24.109Z</time></trkpt><trkpt lat="44.76795" lon="9.3824517"><ele>301.6</ele><time>2026-04-08T10:19:25.109Z</time></trkpt><trkpt lat="44.768015" lon="9.3823633"><ele>303.4</ele><time>2026-04-08T10:19:26.109Z</time></trkpt><trkpt lat="44.768085" lon="9.38224"><ele>305.2</ele><time>2026-04-08T10:19:27.109Z</time></trkpt><trkpt lat="44.76818" lon="9.382075"><ele>307.0</ele><time>2026-04-08T10:19:28.108Z</time></trkpt><trkpt lat="44.768275" lon="9.381905"><ele>307.4</ele><time>2026-04-08T10:19:29.109Z</time></trkpt><trkpt lat="44.7683533" lon="9.38177"><ele>307.79999999999995</ele><time>2026-04-08T10:19:30.109Z</time></trkpt><trkpt lat="44.7683983" lon="9.381685"><ele>308.2</ele><time>2026-04-08T10:19:31.108Z</time></trkpt><trkpt lat="44.7684633" lon="9.3815833"><ele>308.59999999999997</ele><time>2026-04-08T10:19:33.109Z</time></trkpt><trkpt lat="44.7685267" lon="9.3815433"><ele>309.0</ele><time>2026-04-08T10:19:36.109Z</time></trkpt><trkpt lat="44.7685717" lon="9.3817017"><ele>308.75</ele><time>2026-04-08T10:19:38.109Z</time></trkpt><trkpt lat="44.76859" lon="9.38184"><ele>308.5</ele><time>2026-04-08T10:19:39.109Z</time></trkpt><trkpt lat="44.7686333" lon="9.382025"><ele>308.25</ele><time>2026-04-08T10:19:40.109Z</time></trkpt><trkpt lat="44.7687017" lon="9.3822367"><ele>308.0</ele><time>2026-04-08T10:19:41.109Z</time></trkpt><trkpt lat="44.7687983" lon="9.382455"><ele>308.0</ele><time>2026-04-08T10:19:42.109Z</time></trkpt><trkpt lat="44.7689117" lon="9.382675"><ele>308.0</ele><time>2026-04-08T10:19:43.109Z</time></trkpt><trkpt lat="44.7690483" lon="9.3829083"><ele>308.0</ele><time>2026-04-08T10:19:44.109Z</time></trkpt><trkpt lat="44.7691533" lon="9.3831317"><ele>308.0</ele><time>2026-04-08T10:19:45.109Z</time></trkpt><trkpt lat="44.769245" lon="9.38333"><ele>308.0</ele><time>2026-04-08T10:19:46.108Z</time></trkpt><trkpt lat="44.7693317" lon="9.3835117"><ele>308.0</ele><time>2026-04-08T10:19:47.109Z</time></trkpt><trkpt lat="44.769425" lon="9.383685"><ele>305.0</ele><time>2026-04-08T10:19:48.109Z</time></trkpt><trkpt lat="44.7695183" lon="9.38387"><ele>302.0</ele><time>2026-04-08T10:19:49.109Z</time></trkpt><trkpt lat="44.7696167" lon="9.3840683"><ele>299.0</ele><time>2026-04-08T10:19:50.109Z</time></trkpt><trkpt lat="44.7697217" lon="9.3842767"><ele>299.0</ele><time>2026-04-08T10:19:51.109Z</time></trkpt><trkpt lat="44.7698317" lon="9.3844833"><ele>299.0</ele><time>2026-04-08T10:19:52.108Z</time></trkpt><trkpt lat="44.7699333" lon="9.3846817"><ele>299.0</ele><time>2026-04-08T10:19:53.109Z</time></trkpt><trkpt lat="44.77002" lon="9.384865"><ele>296.5</ele><time>2026-04-08T10:19:54.109Z</time></trkpt><trkpt lat="44.7700983" lon="9.385025"><ele>294.0</ele><time>2026-04-08T10:19:55.109Z</time></trkpt><trkpt lat="44.77015" lon="9.3851767"><ele>291.5</ele><time>2026-04-08T10:19:56.109Z</time></trkpt><trkpt lat="44.7701667" lon="9.3853433"><ele>289.0</ele><time>2026-04-08T10:19:57.108Z</time></trkpt><trkpt lat="44.7701633" lon="9.3854933"><ele>288.16666666666663</ele><time>2026-04-08T10:19:58.109Z</time></trkpt><trkpt lat="44.7701433" lon="9.3856267"><ele>287.3333333333333</ele><time>2026-04-08T10:19:59.109Z</time></trkpt><trkpt lat="44.7701133" lon="9.3857317"><ele>286.5</ele><time>2026-04-08T10:20:00.109Z</time></trkpt><trkpt lat="44.77009" lon="9.38582"><ele>285.6666666666667</ele><time>2026-04-08T10:20:01.109Z</time></trkpt><trkpt lat="44.770045" lon="9.385955"><ele>284.83333333333337</ele><time>2026-04-08T10:20:03.108Z</time></trkpt><trkpt lat="44.7700883" lon="9.3860517"><ele>284.0</ele><time>2026-04-08T10:20:11.109Z</time></trkpt><trkpt lat="44.7702317" lon="9.3860833"><ele>284.0</ele><time>2026-04-08T10:20:12.109Z</time></trkpt><trkpt lat="44.77038" lon="9.386105"><ele>284.0</ele><time>2026-04-08T10:20:13.109Z</time></trkpt><trkpt lat="44.7705317" lon="9.3861433"><ele>284.0</ele><time>2026-04-08T10:20:14.109Z</time></trkpt><trkpt lat="44.7706933" lon="9.3861817"><ele>284.0</ele><time>2026-04-08T10:20:15.109Z</time></trkpt><trkpt lat="44.77085" lon="9.3862233"><ele>284.0</ele><time>2026-04-08T10:20:16.108Z</time></trkpt><trkpt lat="44.771015" lon="9.3862633"><ele>284.0</ele><time>2026-04-08T10:20:17.109Z</time></trkpt><trkpt lat="44.771175" lon="9.3862983"><ele>282.33333333333337</ele><time>2026-04-08T10:20:18.109Z</time></trkpt><trkpt lat="44.771335" lon="9.3863333"><ele>280.6666666666667</ele><time>2026-04-08T10:20:19.109Z</time></trkpt><trkpt lat="44.771505" lon="9.3863583"><ele>279.0</ele><time>2026-04-08T10:20:20.108Z</time></trkpt><trkpt lat="44.77168" lon="9.3863717"><ele>277.0</ele><time>2026-04-08T10:20:21.108Z</time></trkpt><trkpt lat="44.7718317" lon="9.38641"><ele>275.0</ele><time>2026-04-08T10:20:22.109Z</time></trkpt><trkpt lat="44.77198" lon="9.3864467"><ele>273.0</ele><time>2026-04-08T10:20:23.109Z</time></trkpt><trkpt lat="44.77213" lon="9.3864783"><ele>272.3333333333333</ele><time>2026-04-08T10:20:24.108Z</time></trkpt><trkpt lat="44.772285" lon="9.386515"><ele>271.66666666666663</ele><time>2026-04-08T10:20:25.109Z</time></trkpt><trkpt lat="44.772435" lon="9.38655"><ele>271.0</ele><time>2026-04-08T10:20:26.109Z</time></trkpt><trkpt lat="44.7725867" lon="9.38658"><ele>269.66666666666663</ele><time>2026-04-08T10:20:27.108Z</time></trkpt><trkpt lat="44.77274" lon="9.38661"><ele>268.3333333333333</ele><time>2026-04-08T10:20:28.109Z</time></trkpt><trkpt lat="44.772895" lon="9.3866433"><ele>267.0</ele><time>2026-04-08T10:20:29.108Z</time></trkpt><trkpt lat="44.7730617" lon="9.38668"><ele>267.0</ele><time>2026-04-08T10:20:30.109Z</time></trkpt><trkpt lat="44.77324" lon="9.3867217"><ele>267.0</ele><time>2026-04-08T10:20:31.109Z</time></trkpt><trkpt lat="44.7734433" lon="9.3867767"><ele>267.0</ele><time>2026-04-08T10:20:32.109Z</time></trkpt><trkpt lat="44.7736733" lon="9.3868083"><ele>265.0</ele><time>2026-04-08T10:20:33.109Z</time></trkpt><trkpt lat="44.773905" lon="9.3868283"><ele>263.0</ele><time>2026-04-08T10:20:34.109Z</time></trkpt><trkpt lat="44.7741233" lon="9.38684"><ele>263.0</ele><time>2026-04-08T10:20:35.109Z</time></trkpt><trkpt lat="44.77433" lon="9.386855"><ele>263.0</ele><time>2026-04-08T10:20:36.109Z</time></trkpt><trkpt lat="44.774525" lon="9.3869067"><ele>263.0</ele><time>2026-04-08T10:20:37.109Z</time></trkpt><trkpt lat="44.7747117" lon="9.3870217"><ele>264.6666666666667</ele><time>2026-04-08T10:20:38.109Z</time></trkpt><trkpt lat="44.7748917" lon="9.38718"><ele>266.3333333333333</ele><time>2026-04-08T10:20:39.109Z</time></trkpt><trkpt lat="44.7750317" lon="9.3873733"><ele>268.0</ele><time>2026-04-08T10:20:40.109Z</time></trkpt><trkpt lat="44.775125" lon="9.38762"><ele>270.66666666666663</ele><time>2026-04-08T10:20:41.109Z</time></trkpt><trkpt lat="44.7752133" lon="9.387875"><ele>273.3333333333333</ele><time>2026-04-08T10:20:42.108Z</time></trkpt><trkpt lat="44.7752817" lon="9.38813"><ele>276.0</ele><time>2026-04-08T10:20:43.108Z</time></trkpt><trkpt lat="44.7753433" lon="9.3883633"><ele>276.0</ele><time>2026-04-08T10:20:44.108Z</time></trkpt><trkpt lat="44.77539" lon="9.38857"><ele>276.0</ele><time>2026-04-08T10:20:45.109Z</time></trkpt><trkpt lat="44.7754317" lon="9.3887633"><ele>276.0</ele><time>2026-04-08T10:20:46.108Z</time></trkpt><trkpt lat="44.775485" lon="9.3889417"><ele>276.0</ele><time>2026-04-08T10:20:47.109Z</time></trkpt><trkpt lat="44.7755617" lon="9.3891217"><ele>273.6666666666667</ele><time>2026-04-08T10:20:48.109Z</time></trkpt><trkpt lat="44.7756767" lon="9.3893033"><ele>271.33333333333337</ele><time>2026-04-08T10:20:49.109Z</time></trkpt><trkpt lat="44.77581" lon="9.3895067"><ele>269.0</ele><time>2026-04-08T10:20:50.108Z</time></trkpt><trkpt lat="44.77594" lon="9.3897017"><ele>269.33333333333337</ele><time>2026-04-08T10:20:51.109Z</time></trkpt><trkpt lat="44.7760767" lon="9.3898733"><ele>269.6666666666667</ele><time>2026-04-08T10:20:52.109Z</time></trkpt><trkpt lat="44.776215" lon="9.3900017"><ele>270.0</ele><time>2026-04-08T10:20:53.108Z</time></trkpt><trkpt lat="44.7763533" lon="9.39008"><ele>270.0</ele><time>2026-04-08T10:20:54.109Z</time></trkpt><trkpt lat="44.776475" lon="9.3901417"><ele>270.0</ele><time>2026-04-08T10:20:55.109Z</time></trkpt><trkpt lat="44.7765717" lon="9.3902167"><ele>270.0</ele><time>2026-04-08T10:20:56.108Z</time></trkpt><trkpt lat="44.77662" lon="9.3903267"><ele>270.0</ele><time>2026-04-08T10:20:57.109Z</time></trkpt><trkpt lat="44.7766233" lon="9.3904317"><ele>270.0</ele><time>2026-04-08T10:20:58.108Z</time></trkpt><trkpt lat="44.7766083" lon="9.3905533"><ele>271.5</ele><time>2026-04-08T10:21:00.109Z</time></trkpt><trkpt lat="44.776645" lon="9.390685"><ele>273.0</ele><time>2026-04-08T10:21:05.108Z</time></trkpt><trkpt lat="44.7767667" lon="9.3908083"><ele>274.5</ele><time>2026-04-08T10:21:06.109Z</time></trkpt><trkpt lat="44.77689" lon="9.3909583"><ele>276.0</ele><time>2026-04-08T10:21:07.109Z</time></trkpt><trkpt lat="44.7770383" lon="9.3911283"><ele>276.0</ele><time>2026-04-08T10:21:08.109Z</time></trkpt><trkpt lat="44.777235" lon="9.3913233"><ele>276.0</ele><time>2026-04-08T10:21:09.109Z</time></trkpt><trkpt lat="44.7774633" lon="9.3915533"><ele>278.0</ele><time>2026-04-08T10:21:10.109Z</time></trkpt><trkpt lat="44.777735" lon="9.3918283"><ele>280.0</ele><time>2026-04-08T10:21:11.109Z</time></trkpt><trkpt lat="44.7780083" lon="9.3921617"><ele>267.5</ele><time>2026-04-08T10:21:12.108Z</time></trkpt><trkpt lat="44.7782667" lon="9.3925317"><ele>255.0</ele><time>2026-04-08T10:21:13.109Z</time></trkpt><trkpt lat="44.7785167" lon="9.3929367"><ele>254.0</ele><time>2026-04-08T10:21:14.109Z</time></trkpt><trkpt lat="44.7787417" lon="9.3933817"><ele>253.0</ele><time>2026-04-08T10:21:15.109Z</time></trkpt><trkpt lat="44.778955" lon="9.3938583"><ele>253.0</ele><time>2026-04-08T10:21:16.108Z</time></trkpt><trkpt lat="44.7791467" lon="9.3943633"><ele>253.0</ele><time>2026-04-08T10:21:17.108Z</time></trkpt><trkpt lat="44.779305" lon="9.3948667"><ele>264.0</ele><time>2026-04-08T10:21:18.109Z</time></trkpt><trkpt lat="44.77943" lon="9.3953533"><ele>275.0</ele><time>2026-04-08T10:21:19.109Z</time></trkpt><trkpt lat="44.77953" lon="9.3958133"><ele>275.0</ele><time>2026-04-08T10:21:20.108Z</time></trkpt><trkpt lat="44.7796067" lon="9.3962567"><ele>275.0</ele><time>2026-04-08T10:21:21.109Z</time></trkpt><trkpt lat="44.7796683" lon="9.3966867"><ele>271.0</ele><time>2026-04-08T10:21:22.109Z</time></trkpt><trkpt lat="44.7797167" lon="9.3971167"><ele>267.0</ele><time>2026-04-08T10:21:23.108Z</time></trkpt><trkpt lat="44.7797517" lon="9.397535"><ele>264.0</ele><time>2026-04-08T10:21:24.109Z</time></trkpt><trkpt lat="44.7797767" lon="9.39796"><ele>261.0</ele><time>2026-04-08T10:21:25.109Z</time></trkpt><trkpt lat="44.7797983" lon="9.398385"><ele>260.5</ele><time>2026-04-08T10:21:26.109Z</time></trkpt><trkpt lat="44.77983" lon="9.39881"><ele>260.0</ele><time>2026-04-08T10:21:27.109Z</time></trkpt><trkpt lat="44.77989" lon="9.399225"><ele>258.5</ele><time>2026-04-08T10:21:28.109Z</time></trkpt><trkpt lat="44.7799633" lon="9.3996117"><ele>257.0</ele><time>2026-04-08T10:21:29.109Z</time></trkpt><trkpt lat="44.7800617" lon="9.3999717"><ele>256.0</ele><time>2026-04-08T10:21:30.109Z</time></trkpt><trkpt lat="44.7801767" lon="9.4003117"><ele>255.0</ele><time>2026-04-08T10:21:31.108Z</time></trkpt><trkpt lat="44.78031" lon="9.4006317"><ele>255.0</ele><time>2026-04-08T10:21:32.109Z</time></trkpt><trkpt lat="44.78046" lon="9.4009417"><ele>255.0</ele><time>2026-04-08T10:21:33.109Z</time></trkpt><trkpt lat="44.7806367" lon="9.401245"><ele>254.0</ele><time>2026-04-08T10:21:34.109Z</time></trkpt><trkpt lat="44.7808433" lon="9.4015533"><ele>253.0</ele><time>2026-04-08T10:21:35.109Z</time></trkpt><trkpt lat="44.7810567" lon="9.4018733"><ele>250.0</ele><time>2026-04-08T10:21:36.109Z</time></trkpt><trkpt lat="44.7812783" lon="9.4022017"><ele>247.0</ele><time>2026-04-08T10:21:37.109Z</time></trkpt><trkpt lat="44.7815033" lon="9.4025417"><ele>247.0</ele><time>2026-04-08T10:21:38.109Z</time></trkpt><trkpt lat="44.78173" lon="9.402885"><ele>247.0</ele><time>2026-04-08T10:21:39.109Z</time></trkpt><trkpt lat="44.7819667" lon="9.40323"><ele>245.5</ele><time>2026-04-08T10:21:40.109Z</time></trkpt><trkpt lat="44.782205" lon="9.4035767"><ele>244.0</ele><time>2026-04-08T10:21:41.109Z</time></trkpt><trkpt lat="44.78245" lon="9.4039283"><ele>242.5</ele><time>2026-04-08T10:21:42.109Z</time></trkpt><trkpt lat="44.782695" lon="9.4042833"><ele>241.0</ele><time>2026-04-08T10:21:43.109Z</time></trkpt><trkpt lat="44.7829433" lon="9.4046383"><ele>241.0</ele><time>2026-04-08T10:21:44.108Z</time></trkpt><trkpt lat="44.7831983" lon="9.404995"><ele>241.0</ele><time>2026-04-08T10:21:45.109Z</time></trkpt><trkpt lat="44.7834483" lon="9.4053533"><ele>242.5</ele><time>2026-04-08T10:21:46.109Z</time></trkpt><trkpt lat="44.7836967" lon="9.4057167"><ele>244.0</ele><time>2026-04-08T10:21:47.109Z</time></trkpt><trkpt lat="44.7839567" lon="9.406075"><ele>245.0</ele><time>2026-04-08T10:21:48.109Z</time></trkpt><trkpt lat="44.7842133" lon="9.4064317"><ele>246.0</ele><time>2026-04-08T10:21:49.109Z</time></trkpt><trkpt lat="44.7844733" lon="9.4067933"><ele>246.0</ele><time>2026-04-08T10:21:50.109Z</time></trkpt><trkpt lat="44.7847267" lon="9.4071567"><ele>246.0</ele><time>2026-04-08T10:21:51.109Z</time></trkpt><trkpt lat="44.78498" lon="9.407515"><ele>246.0</ele><time>2026-04-08T10:21:52.109Z</time></trkpt><trkpt lat="44.78523" lon="9.4078617"><ele>246.0</ele><time>2026-04-08T10:21:53.109Z</time></trkpt><trkpt lat="44.7854867" lon="9.4082017"><ele>246.0</ele><time>2026-04-08T10:21:54.108Z</time></trkpt><trkpt lat="44.7857383" lon="9.4085333"><ele>246.0</ele><time>2026-04-08T10:21:55.109Z</time></trkpt><trkpt lat="44.78599" lon="9.4088633"><ele>246.0</ele><time>2026-04-08T10:21:56.109Z</time></trkpt><trkpt lat="44.78624" lon="9.409195"><ele>246.0</ele><time>2026-04-08T10:21:57.109Z</time></trkpt><trkpt lat="44.7864917" lon="9.409525"><ele>247.0</ele><time>2026-04-08T10:21:58.109Z</time></trkpt><trkpt lat="44.78674" lon="9.4098583"><ele>248.0</ele><time>2026-04-08T10:21:59.109Z</time></trkpt><trkpt lat="44.78699" lon="9.4101933"><ele>244.0</ele><time>2026-04-08T10:22:00.109Z</time></trkpt><trkpt lat="44.7872367" lon="9.4105183"><ele>240.0</ele><time>2026-04-08T10:22:01.109Z</time></trkpt><trkpt lat="44.7874767" lon="9.4108333"><ele>239.0</ele><time>2026-04-08T10:22:02.109Z</time></trkpt><trkpt lat="44.7877183" lon="9.4111433"><ele>238.0</ele><time>2026-04-08T10:22:03.109Z</time></trkpt><trkpt lat="44.7879567" lon="9.4114533"><ele>238.0</ele><time>2026-04-08T10:22:04.109Z</time></trkpt><trkpt lat="44.7881933" lon="9.4117667"><ele>238.0</ele><time>2026-04-08T10:22:05.109Z</time></trkpt><trkpt lat="44.78843" lon="9.4120683"><ele>237.5</ele><time>2026-04-08T10:22:06.109Z</time></trkpt><trkpt lat="44.7886617" lon="9.4123683"><ele>237.0</ele><time>2026-04-08T10:22:07.109Z</time></trkpt><trkpt lat="44.7888883" lon="9.4126667"><ele>237.0</ele><time>2026-04-08T10:22:08.109Z</time></trkpt><trkpt lat="44.7891117" lon="9.4129617"><ele>237.0</ele><time>2026-04-08T10:22:09.109Z</time></trkpt><trkpt lat="44.789325" lon="9.413265"><ele>236.5</ele><time>2026-04-08T10:22:10.109Z</time></trkpt><trkpt lat="44.789545" lon="9.4135517"><ele>236.0</ele><time>2026-04-08T10:22:11.109Z</time></trkpt><trkpt lat="44.78977" lon="9.4138333"><ele>237.5</ele><time>2026-04-08T10:22:12.108Z</time></trkpt><trkpt lat="44.7899883" lon="9.41412"><ele>239.0</ele><time>2026-04-08T10:22:13.109Z</time></trkpt><trkpt lat="44.7901983" lon="9.41442"><ele>249.0</ele><time>2026-04-08T10:22:14.108Z</time></trkpt><trkpt lat="44.79041" lon="9.4147233"><ele>259.0</ele><time>2026-04-08T10:22:15.108Z</time></trkpt><trkpt lat="44.7906633" lon="9.4149533"><ele>259.0</ele><time>2026-04-08T10:22:16.108Z</time></trkpt><trkpt lat="44.7908717" lon="9.4152567"><ele>259.0</ele><time>2026-04-08T10:22:17.109Z</time></trkpt><trkpt lat="44.7910683" lon="9.415565"><ele>293.0</ele><time>2026-04-08T10:22:18.108Z</time></trkpt><trkpt lat="44.7912917" lon="9.4158367"><ele>327.0</ele><time>2026-04-08T10:22:19.109Z</time></trkpt><trkpt lat="44.7915233" lon="9.4161017"><ele>342.0</ele><time>2026-04-08T10:22:20.108Z</time></trkpt><trkpt lat="44.7917417" lon="9.416405"><ele>357.0</ele><time>2026-04-08T10:22:21.108Z</time></trkpt><trkpt lat="44.791955" lon="9.41668"><ele>247.0</ele><time>2026-04-08T10:22:22.109Z</time></trkpt><trkpt lat="44.7956767" lon="9.4218617"><ele>250.5</ele><time>2026-04-08T10:22:44.109Z</time></trkpt><trkpt lat="44.7958917" lon="9.4221733"><ele>254.0</ele><time>2026-04-08T10:22:45.109Z</time></trkpt><trkpt lat="44.7961617" lon="9.4224517"><ele>247.0</ele><time>2026-04-08T10:22:46.109Z</time></trkpt><trkpt lat="44.7964583" lon="9.4226883"><ele>240.0</ele><time>2026-04-08T10:22:47.109Z</time></trkpt><trkpt lat="44.7967783" lon="9.4228867"><ele>241.0</ele><time>2026-04-08T10:22:48.109Z</time></trkpt><trkpt lat="44.797135" lon="9.423105"><ele>242.0</ele><time>2026-04-08T10:22:49.109Z</time></trkpt><trkpt lat="44.7974917" lon="9.4232133"><ele>241.5</ele><time>2026-04-08T10:22:50.109Z</time></trkpt><trkpt lat="44.7978583" lon="9.4232817"><ele>241.0</ele><time>2026-04-08T10:22:51.109Z</time></trkpt><trkpt lat="44.798225" lon="9.4233333"><ele>238.5</ele><time>2026-04-08T10:22:52.109Z</time></trkpt><trkpt lat="44.7985967" lon="9.4233733"><ele>236.0</ele><time>2026-04-08T10:22:53.109Z</time></trkpt><trkpt lat="44.7989717" lon="9.42341"><ele>236.0</ele><time>2026-04-08T10:22:54.109Z</time></trkpt><trkpt lat="44.79933" lon="9.42347"><ele>236.0</ele><time>2026-04-08T10:22:55.108Z</time></trkpt><trkpt lat="44.7996783" lon="9.423585"><ele>235.0</ele><time>2026-04-08T10:22:56.109Z</time></trkpt><trkpt lat="44.80001" lon="9.423775"><ele>234.0</ele><time>2026-04-08T10:22:57.108Z</time></trkpt><trkpt lat="44.8003417" lon="9.4239667"><ele>231.5</ele><time>2026-04-08T10:22:58.109Z</time></trkpt><trkpt lat="44.8006733" lon="9.4241867"><ele>229.0</ele><time>2026-04-08T10:22:59.109Z</time></trkpt><trkpt lat="44.8010067" lon="9.4244117"><ele>228.0</ele><time>2026-04-08T10:23:00.109Z</time></trkpt><trkpt lat="44.8013267" lon="9.42463"><ele>227.0</ele><time>2026-04-08T10:23:01.109Z</time></trkpt><trkpt lat="44.8016217" lon="9.424835"><ele>229.0</ele><time>2026-04-08T10:23:02.109Z</time></trkpt><trkpt lat="44.8019133" lon="9.42502"><ele>231.0</ele><time>2026-04-08T10:23:03.109Z</time></trkpt><trkpt lat="44.8021867" lon="9.42523"><ele>231.0</ele><time>2026-04-08T10:23:04.109Z</time></trkpt><trkpt lat="44.8024633" lon="9.42542"><ele>231.0</ele><time>2026-04-08T10:23:05.109Z</time></trkpt><trkpt lat="44.8027233" lon="9.425635"><ele>229.0</ele><time>2026-04-08T10:23:06.109Z</time></trkpt><trkpt lat="44.8029817" lon="9.42584"><ele>227.0</ele><time>2026-04-08T10:23:07.109Z</time></trkpt><trkpt lat="44.8032383" lon="9.4260533"><ele>227.0</ele><time>2026-04-08T10:23:08.109Z</time></trkpt><trkpt lat="44.80349" lon="9.426295"><ele>227.0</ele><time>2026-04-08T10:23:09.109Z</time></trkpt><trkpt lat="44.80373" lon="9.4265817"><ele>226.5</ele><time>2026-04-08T10:23:10.108Z</time></trkpt><trkpt lat="44.8039717" lon="9.4268917"><ele>226.0</ele><time>2026-04-08T10:23:11.109Z</time></trkpt><trkpt lat="44.8042183" lon="9.427225"><ele>227.0</ele><time>2026-04-08T10:23:12.109Z</time></trkpt><trkpt lat="44.8044717" lon="9.4275617"><ele>228.0</ele><time>2026-04-08T10:23:13.109Z</time></trkpt><trkpt lat="44.80473" lon="9.427905"><ele>227.0</ele><time>2026-04-08T10:23:14.109Z</time></trkpt><trkpt lat="44.8049783" lon="9.42827"><ele>226.0</ele><time>2026-04-08T10:23:15.109Z</time></trkpt><trkpt lat="44.8052483" lon="9.4286033"><ele>226.0</ele><time>2026-04-08T10:23:16.108Z</time></trkpt><trkpt lat="44.8054867" lon="9.4289633"><ele>226.0</ele><time>2026-04-08T10:23:17.109Z</time></trkpt><trkpt lat="44.80573" lon="9.4292967"><ele>226.0</ele><time>2026-04-08T10:23:18.109Z</time></trkpt><trkpt lat="44.805975" lon="9.4296017"><ele>226.0</ele><time>2026-04-08T10:23:19.109Z</time></trkpt><trkpt lat="44.80619" lon="9.42993"><ele>227.5</ele><time>2026-04-08T10:23:20.108Z</time></trkpt><trkpt lat="44.8063967" lon="9.430265"><ele>229.0</ele><time>2026-04-08T10:23:21.109Z</time></trkpt><trkpt lat="44.8065883" lon="9.4306183"><ele>229.0</ele><time>2026-04-08T10:23:22.108Z</time></trkpt><trkpt lat="44.8067883" lon="9.430955"><ele>229.0</ele><time>2026-04-08T10:23:23.109Z</time></trkpt><trkpt lat="44.8069483" lon="9.43133"><ele>231.5</ele><time>2026-04-08T10:23:24.109Z</time></trkpt><trkpt lat="44.8071167" lon="9.4316967"><ele>234.0</ele><time>2026-04-08T10:23:25.109Z</time></trkpt><trkpt lat="44.807275" lon="9.4320717"><ele>229.5</ele><time>2026-04-08T10:23:26.109Z</time></trkpt><trkpt lat="44.80742" lon="9.43245"><ele>225.0</ele><time>2026-04-08T10:23:27.109Z</time></trkpt><trkpt lat="44.8075717" lon="9.4328267"><ele>222.5</ele><time>2026-04-08T10:23:28.109Z</time></trkpt><trkpt lat="44.807705" lon="9.4332133"><ele>220.0</ele><time>2026-04-08T10:23:29.109Z</time></trkpt><trkpt lat="44.8078533" lon="9.433595"><ele>220.5</ele><time>2026-04-08T10:23:30.109Z</time></trkpt><trkpt lat="44.807985" lon="9.4339867"><ele>221.0</ele><time>2026-04-08T10:23:31.109Z</time></trkpt><trkpt lat="44.8081267" lon="9.434375"><ele>219.5</ele><time>2026-04-08T10:23:32.109Z</time></trkpt><trkpt lat="44.8082567" lon="9.4347683"><ele>218.0</ele><time>2026-04-08T10:23:33.108Z</time></trkpt><trkpt lat="44.80839" lon="9.435155"><ele>217.5</ele><time>2026-04-08T10:23:34.108Z</time></trkpt><trkpt lat="44.8085267" lon="9.4355333"><ele>217.0</ele><time>2026-04-08T10:23:35.108Z</time></trkpt><trkpt lat="44.80865" lon="9.4359183"><ele>217.0</ele><time>2026-04-08T10:23:36.109Z</time></trkpt><trkpt lat="44.8087817" lon="9.43629"><ele>217.0</ele><time>2026-04-08T10:23:37.109Z</time></trkpt><trkpt lat="44.8089133" lon="9.4366483"><ele>219.5</ele><time>2026-04-08T10:23:38.109Z</time></trkpt><trkpt lat="44.8090517" lon="9.436995"><ele>222.0</ele><time>2026-04-08T10:23:39.109Z</time></trkpt><trkpt lat="44.809215" lon="9.4373267"><ele>222.0</ele><time>2026-04-08T10:23:40.109Z</time></trkpt><trkpt lat="44.80938" lon="9.43767"><ele>222.0</ele><time>2026-04-08T10:23:41.108Z</time></trkpt><trkpt lat="44.809585" lon="9.4379867"><ele>225.5</ele><time>2026-04-08T10:23:42.109Z</time></trkpt><trkpt lat="44.809795" lon="9.43831"><ele>229.0</ele><time>2026-04-08T10:23:43.109Z</time></trkpt><trkpt lat="44.8100067" lon="9.4386367"><ele>225.0</ele><time>2026-04-08T10:23:44.108Z</time></trkpt><trkpt lat="44.8102167" lon="9.4389533"><ele>221.0</ele><time>2026-04-08T10:23:45.109Z</time></trkpt><trkpt lat="44.8104083" lon="9.4392583"><ele>221.0</ele><time>2026-04-08T10:23:46.109Z</time></trkpt><trkpt lat="44.810575" lon="9.439555"><ele>221.0</ele><time>2026-04-08T10:23:47.108Z</time></trkpt><trkpt lat="44.81071" lon="9.4398617"><ele>223.0</ele><time>2026-04-08T10:23:48.109Z</time></trkpt><trkpt lat="44.8108317" lon="9.44016"><ele>225.0</ele><time>2026-04-08T10:23:49.109Z</time></trkpt><trkpt lat="44.8109367" lon="9.440475"><ele>221.0</ele><time>2026-04-08T10:23:50.109Z</time></trkpt><trkpt lat="44.8110183" lon="9.4408083"><ele>217.0</ele><time>2026-04-08T10:23:51.109Z</time></trkpt><trkpt lat="44.811075" lon="9.441165"><ele>218.0</ele><time>2026-04-08T10:23:52.109Z</time></trkpt><trkpt lat="44.8111183" lon="9.4415383"><ele>219.0</ele><time>2026-04-08T10:23:53.109Z</time></trkpt><trkpt lat="44.8111633" lon="9.4419333"><ele>220.0</ele><time>2026-04-08T10:23:54.109Z</time></trkpt><trkpt lat="44.811215" lon="9.4423483"><ele>221.0</ele><time>2026-04-08T10:23:55.109Z</time></trkpt><trkpt lat="44.811275" lon="9.4427817"><ele>221.0</ele><time>2026-04-08T10:23:56.109Z</time></trkpt><trkpt lat="44.8113383" lon="9.4432283"><ele>221.0</ele><time>2026-04-08T10:23:57.109Z</time></trkpt><trkpt lat="44.8114217" lon="9.443685"><ele>221.5</ele><time>2026-04-08T10:23:58.108Z</time></trkpt><trkpt lat="44.8114767" lon="9.4441517"><ele>222.0</ele><time>2026-04-08T10:23:59.109Z</time></trkpt><trkpt lat="44.8115367" lon="9.4446183"><ele>222.0</ele><time>2026-04-08T10:24:00.108Z</time></trkpt><trkpt lat="44.8115883" lon="9.4450767"><ele>222.0</ele><time>2026-04-08T10:24:01.109Z</time></trkpt><trkpt lat="44.8116267" lon="9.4455117"><ele>221.5</ele><time>2026-04-08T10:24:02.109Z</time></trkpt><trkpt lat="44.8116733" lon="9.4459183"><ele>221.0</ele><time>2026-04-08T10:24:03.108Z</time></trkpt><trkpt lat="44.8117233" lon="9.446295"><ele>221.0</ele><time>2026-04-08T10:24:04.109Z</time></trkpt><trkpt lat="44.8117617" lon="9.4466517"><ele>221.0</ele><time>2026-04-08T10:24:05.109Z</time></trkpt><trkpt lat="44.8117917" lon="9.446985"><ele>218.33333333333334</ele><time>2026-04-08T10:24:06.108Z</time></trkpt><trkpt lat="44.8118267" lon="9.4472983"><ele>215.66666666666669</ele><time>2026-04-08T10:24:07.109Z</time></trkpt><trkpt lat="44.811865" lon="9.4475967"><ele>213.0</ele><time>2026-04-08T10:24:08.109Z</time></trkpt><trkpt lat="44.811905" lon="9.4478833"><ele>213.33333333333331</ele><time>2026-04-08T10:24:09.11Z</time></trkpt><trkpt lat="44.8119433" lon="9.44816"><ele>213.66666666666666</ele><time>2026-04-08T10:24:10.11Z</time></trkpt><trkpt lat="44.8119733" lon="9.44843"><ele>214.0</ele><time>2026-04-08T10:24:11.11Z</time></trkpt><trkpt lat="44.812" lon="9.4486917"><ele>214.33333333333331</ele><time>2026-04-08T10:24:12.11Z</time></trkpt><trkpt lat="44.812025" lon="9.448945"><ele>214.66666666666669</ele><time>2026-04-08T10:24:13.11Z</time></trkpt><trkpt lat="44.8120533" lon="9.4491933"><ele>215.0</ele><time>2026-04-08T10:24:14.11Z</time></trkpt><trkpt lat="44.8120883" lon="9.44943"><ele>216.33333333333334</ele><time>2026-04-08T10:24:15.109Z</time></trkpt><trkpt lat="44.81212" lon="9.4496633"><ele>217.66666666666669</ele><time>2026-04-08T10:24:16.11Z</time></trkpt><trkpt lat="44.81215" lon="9.4498933"><ele>219.0</ele><time>2026-04-08T10:24:17.11Z</time></trkpt><trkpt lat="44.81218" lon="9.450105"><ele>219.0</ele><time>2026-04-08T10:24:18.11Z</time></trkpt><trkpt lat="44.8122033" lon="9.4503033"><ele>219.0</ele><time>2026-04-08T10:24:19.11Z</time></trkpt><trkpt lat="44.8122233" lon="9.4504833"><ele>219.0</ele><time>2026-04-08T10:24:20.109Z</time></trkpt><trkpt lat="44.8122433" lon="9.45065"><ele>219.0</ele><time>2026-04-08T10:24:21.11Z</time></trkpt><trkpt lat="44.81226" lon="9.4508183"><ele>219.0</ele><time>2026-04-08T10:24:22.11Z</time></trkpt><trkpt lat="44.8122733" lon="9.4509917"><ele>219.0</ele><time>2026-04-08T10:24:23.109Z</time></trkpt><trkpt lat="44.81229" lon="9.4511633"><ele>219.0</ele><time>2026-04-08T10:24:24.109Z</time></trkpt><trkpt lat="44.812305" lon="9.4513317"><ele>219.0</ele><time>2026-04-08T10:24:25.109Z</time></trkpt><trkpt lat="44.8122983" lon="9.4514883"><ele>219.6</ele><time>2026-04-08T10:24:26.11Z</time></trkpt><trkpt lat="44.8122633" lon="9.451625"><ele>220.2</ele><time>2026-04-08T10:24:27.11Z</time></trkpt><trkpt lat="44.81221" lon="9.4517267"><ele>220.79999999999998</ele><time>2026-04-08T10:24:28.11Z</time></trkpt><trkpt lat="44.8120883" lon="9.4517883"><ele>221.39999999999998</ele><time>2026-04-08T10:24:30.11Z</time></trkpt><trkpt lat="44.81201" lon="9.4518133"><ele>222.0</ele><time>2026-04-08T10:24:31.11Z</time></trkpt><trkpt lat="44.8118417" lon="9.4518517"><ele>224.0</ele><time>2026-04-08T10:24:32.11Z</time></trkpt><trkpt lat="44.8117283" lon="9.451875"><ele>226.0</ele><time>2026-04-08T10:24:33.11Z</time></trkpt><trkpt lat="44.8116233" lon="9.4519333"><ele>228.0</ele><time>2026-04-08T10:24:34.11Z</time></trkpt><trkpt lat="44.8115467" lon="9.4520217"><ele>230.0</ele><time>2026-04-08T10:24:35.11Z</time></trkpt><trkpt lat="44.8114967" lon="9.4521417"><ele>232.0</ele><time>2026-04-08T10:24:36.11Z</time></trkpt><trkpt lat="44.8114817" lon="9.452275"><ele>233.25</ele><time>2026-04-08T10:24:37.11Z</time></trkpt><trkpt lat="44.811535" lon="9.452425"><ele>234.5</ele><time>2026-04-08T10:24:38.11Z</time></trkpt><trkpt lat="44.8116433" lon="9.45255"><ele>235.75</ele><time>2026-04-08T10:24:39.11Z</time></trkpt><trkpt lat="44.81179" lon="9.4526617"><ele>237.0</ele><time>2026-04-08T10:24:40.11Z</time></trkpt><trkpt lat="44.8119267" lon="9.4527783"><ele>234.75</ele><time>2026-04-08T10:24:41.109Z</time></trkpt><trkpt lat="44.81206" lon="9.4528917"><ele>232.5</ele><time>2026-04-08T10:24:42.11Z</time></trkpt><trkpt lat="44.8121683" lon="9.45302"><ele>230.25</ele><time>2026-04-08T10:24:43.11Z</time></trkpt><trkpt lat="44.8122617" lon="9.4531817"><ele>228.0</ele><time>2026-04-08T10:24:44.11Z</time></trkpt><trkpt lat="44.8123533" lon="9.4533983"><ele>228.0</ele><time>2026-04-08T10:24:45.11Z</time></trkpt><trkpt lat="44.8124333" lon="9.453665"><ele>228.0</ele><time>2026-04-08T10:24:46.11Z</time></trkpt><trkpt lat="44.812505" lon="9.4539217"><ele>228.0</ele><time>2026-04-08T10:24:47.11Z</time></trkpt><trkpt lat="44.8125617" lon="9.45413"><ele>228.0</ele><time>2026-04-08T10:24:48.109Z</time></trkpt><trkpt lat="44.812625" lon="9.4542983"><ele>228.0</ele><time>2026-04-08T10:24:49.11Z</time></trkpt><trkpt lat="44.8127167" lon="9.4544433"><ele>228.0</ele><time>2026-04-08T10:24:50.11Z</time></trkpt><trkpt lat="44.8128467" lon="9.454595"><ele>228.0</ele><time>2026-04-08T10:24:51.109Z</time></trkpt><trkpt lat="44.813015" lon="9.4547817"><ele>228.0</ele><time>2026-04-08T10:24:52.11Z</time></trkpt><trkpt lat="44.8131917" lon="9.4549917"><ele>228.0</ele><time>2026-04-08T10:24:53.11Z</time></trkpt><trkpt lat="44.8133567" lon="9.4552033"><ele>225.33333333333331</ele><time>2026-04-08T10:24:54.11Z</time></trkpt><trkpt lat="44.813495" lon="9.4553917"><ele>222.66666666666666</ele><time>2026-04-08T10:24:55.109Z</time></trkpt><trkpt lat="44.8136067" lon="9.45557"><ele>220.0</ele><time>2026-04-08T10:24:56.11Z</time></trkpt><trkpt lat="44.8136833" lon="9.4557717"><ele>220.0</ele><time>2026-04-08T10:24:57.11Z</time></trkpt><trkpt lat="44.8137383" lon="9.4560117"><ele>220.0</ele><time>2026-04-08T10:24:58.11Z</time></trkpt><trkpt lat="44.8137917" lon="9.4562483"><ele>220.0</ele><time>2026-04-08T10:24:59.11Z</time></trkpt><trkpt lat="44.813865" lon="9.456475"><ele>222.0</ele><time>2026-04-08T10:25:00.11Z</time></trkpt><trkpt lat="44.813975" lon="9.45669"><ele>224.0</ele><time>2026-04-08T10:25:01.11Z</time></trkpt><trkpt lat="44.8140767" lon="9.4569183"><ele>226.0</ele><time>2026-04-08T10:25:02.11Z</time></trkpt><trkpt lat="44.8141717" lon="9.4571267"><ele>226.0</ele><time>2026-04-08T10:25:03.109Z</time></trkpt><trkpt lat="44.814255" lon="9.457315"><ele>226.0</ele><time>2026-04-08T10:25:04.109Z</time></trkpt><trkpt lat="44.814365" lon="9.457465"><ele>226.0</ele><time>2026-04-08T10:25:05.109Z</time></trkpt><trkpt lat="44.814505" lon="9.457575"><ele>226.0</ele><time>2026-04-08T10:25:06.11Z</time></trkpt><trkpt lat="44.814655" lon="9.4576483"><ele>226.00000000000003</ele><time>2026-04-08T10:25:07.109Z</time></trkpt><trkpt lat="44.8147767" lon="9.4577033"><ele>226.00000000000003</ele><time>2026-04-08T10:25:08.11Z</time></trkpt><trkpt lat="44.8148517" lon="9.4577367"><ele>226.0</ele><time>2026-04-08T10:25:09.11Z</time></trkpt><trkpt lat="44.8149183" lon="9.4577717"><ele>226.0</ele><time>2026-04-08T10:25:10.11Z</time></trkpt><trkpt lat="44.814975" lon="9.457855"><ele>224.66666666666666</ele><time>2026-04-08T10:25:11.11Z</time></trkpt><trkpt lat="44.8150367" lon="9.45803"><ele>223.33333333333331</ele><time>2026-04-08T10:25:12.11Z</time></trkpt><trkpt lat="44.8151283" lon="9.4582567"><ele>222.0</ele><time>2026-04-08T10:25:13.11Z</time></trkpt><trkpt lat="44.8152167" lon="9.4585283"><ele>222.5</ele><time>2026-04-08T10:25:14.109Z</time></trkpt><trkpt lat="44.8153" lon="9.458835"><ele>223.0</ele><time>2026-04-08T10:25:15.11Z</time></trkpt><trkpt lat="44.8153667" lon="9.45917"><ele>223.0</ele><time>2026-04-08T10:25:16.109Z</time></trkpt><trkpt lat="44.8154067" lon="9.45953"><ele>223.0</ele><time>2026-04-08T10:25:17.11Z</time></trkpt><trkpt lat="44.815445" lon="9.4599"><ele>222.5</ele><time>2026-04-08T10:25:18.11Z</time></trkpt><trkpt lat="44.8154783" lon="9.460275"><ele>222.0</ele><time>2026-04-08T10:25:19.11Z</time></trkpt><trkpt lat="44.8155233" lon="9.4606567"><ele>223.0</ele><time>2026-04-08T10:25:20.109Z</time></trkpt><trkpt lat="44.8155683" lon="9.461045"><ele>224.0</ele><time>2026-04-08T10:25:21.11Z</time></trkpt><trkpt lat="44.8156183" lon="9.4614383"><ele>225.0</ele><time>2026-04-08T10:25:22.11Z</time></trkpt><trkpt lat="44.815675" lon="9.461835"><ele>226.0</ele><time>2026-04-08T10:25:23.11Z</time></trkpt><trkpt lat="44.8157417" lon="9.4622283"><ele>227.5</ele><time>2026-04-08T10:25:24.109Z</time></trkpt><trkpt lat="44.8158117" lon="9.462625"><ele>229.0</ele><time>2026-04-08T10:25:25.11Z</time></trkpt><trkpt lat="44.8158717" lon="9.4630267"><ele>229.5</ele><time>2026-04-08T10:25:26.11Z</time></trkpt><trkpt lat="44.8159233" lon="9.4634333"><ele>230.0</ele><time>2026-04-08T10:25:27.11Z</time></trkpt><trkpt lat="44.8159717" lon="9.463845"><ele>221.5</ele><time>2026-04-08T10:25:28.109Z</time></trkpt><trkpt lat="44.8160017" lon="9.4642617"><ele>213.0</ele><time>2026-04-08T10:25:29.109Z</time></trkpt><trkpt lat="44.8160317" lon="9.4646633"><ele>213.0</ele><time>2026-04-08T10:25:30.11Z</time></trkpt><trkpt lat="44.8160817" lon="9.46505"><ele>213.0</ele><time>2026-04-08T10:25:31.109Z</time></trkpt><trkpt lat="44.8161533" lon="9.46543"><ele>216.0</ele><time>2026-04-08T10:25:32.11Z</time></trkpt><trkpt lat="44.8162667" lon="9.46579"><ele>219.0</ele><time>2026-04-08T10:25:33.11Z</time></trkpt><trkpt lat="44.8163983" lon="9.466135"><ele>223.5</ele><time>2026-04-08T10:25:34.11Z</time></trkpt><trkpt lat="44.81654" lon="9.46647"><ele>228.0</ele><time>2026-04-08T10:25:35.11Z</time></trkpt><trkpt lat="44.8166767" lon="9.4668"><ele>222.5</ele><time>2026-04-08T10:25:36.109Z</time></trkpt><trkpt lat="44.8167933" lon="9.4671483"><ele>217.0</ele><time>2026-04-08T10:25:37.11Z</time></trkpt><trkpt lat="44.816905" lon="9.4675"><ele>217.0</ele><time>2026-04-08T10:25:38.11Z</time></trkpt><trkpt lat="44.8169933" lon="9.4678717"><ele>217.0</ele><time>2026-04-08T10:25:39.11Z</time></trkpt><trkpt lat="44.817075" lon="9.468255"><ele>217.5</ele><time>2026-04-08T10:25:40.11Z</time></trkpt><trkpt lat="44.8171517" lon="9.4686433"><ele>218.0</ele><time>2026-04-08T10:25:41.11Z</time></trkpt><trkpt lat="44.8172333" lon="9.469035"><ele>219.0</ele><time>2026-04-08T10:25:42.11Z</time></trkpt><trkpt lat="44.8173117" lon="9.4694217"><ele>220.0</ele><time>2026-04-08T10:25:43.11Z</time></trkpt><trkpt lat="44.8173817" lon="9.4697883"><ele>225.0</ele><time>2026-04-08T10:25:44.109Z</time></trkpt><trkpt lat="44.8174483" lon="9.4701317"><ele>230.0</ele><time>2026-04-08T10:25:45.11Z</time></trkpt><trkpt lat="44.817515" lon="9.4704583"><ele>232.0</ele><time>2026-04-08T10:25:46.109Z</time></trkpt><trkpt lat="44.81756" lon="9.4707783"><ele>234.0</ele><time>2026-04-08T10:25:47.11Z</time></trkpt><trkpt lat="44.817565" lon="9.4711067"><ele>232.5</ele><time>2026-04-08T10:25:48.11Z</time></trkpt><trkpt lat="44.8175183" lon="9.4714333"><ele>231.0</ele><time>2026-04-08T10:25:49.109Z</time></trkpt><trkpt lat="44.8174183" lon="9.4717433"><ele>231.0</ele><time>2026-04-08T10:25:50.109Z</time></trkpt><trkpt lat="44.817275" lon="9.47201"><ele>231.0</ele><time>2026-04-08T10:25:51.11Z</time></trkpt><trkpt lat="44.81712" lon="9.472225"><ele>232.33333333333331</ele><time>2026-04-08T10:25:52.11Z</time></trkpt><trkpt lat="44.8169767" lon="9.4723983"><ele>233.66666666666666</ele><time>2026-04-08T10:25:53.11Z</time></trkpt><trkpt lat="44.816835" lon="9.4725083"><ele>235.0</ele><time>2026-04-08T10:25:54.11Z</time></trkpt><trkpt lat="44.8166917" lon="9.4725733"><ele>235.0</ele><time>2026-04-08T10:25:55.11Z</time></trkpt><trkpt lat="44.8165717" lon="9.4726283"><ele>235.0</ele><time>2026-04-08T10:25:56.11Z</time></trkpt><trkpt lat="44.8164817" lon="9.4727133"><ele>235.0</ele><time>2026-04-08T10:25:57.109Z</time></trkpt><trkpt lat="44.8164317" lon="9.472845"><ele>235.0</ele><time>2026-04-08T10:25:58.11Z</time></trkpt><trkpt lat="44.8164117" lon="9.4730133"><ele>232.66666666666666</ele><time>2026-04-08T10:25:59.11Z</time></trkpt><trkpt lat="44.8164617" lon="9.4731833"><ele>230.33333333333331</ele><time>2026-04-08T10:26:00.109Z</time></trkpt><trkpt lat="44.8165433" lon="9.4733783"><ele>228.0</ele><time>2026-04-08T10:26:01.109Z</time></trkpt><trkpt lat="44.81658" lon="9.4736183"><ele>228.0</ele><time>2026-04-08T10:26:02.11Z</time></trkpt><trkpt lat="44.8165867" lon="9.4739183"><ele>228.0</ele><time>2026-04-08T10:26:03.11Z</time></trkpt><trkpt lat="44.8165883" lon="9.4742567"><ele>226.5</ele><time>2026-04-08T10:26:04.11Z</time></trkpt><trkpt lat="44.816585" lon="9.4746383"><ele>225.0</ele><time>2026-04-08T10:26:05.11Z</time></trkpt><trkpt lat="44.81658" lon="9.4750483"><ele>223.0</ele><time>2026-04-08T10:26:06.11Z</time></trkpt><trkpt lat="44.8165783" lon="9.4754783"><ele>221.0</ele><time>2026-04-08T10:26:07.109Z</time></trkpt><trkpt lat="44.81658" lon="9.475925"><ele>218.5</ele><time>2026-04-08T10:26:08.11Z</time></trkpt><trkpt lat="44.81658" lon="9.4763883"><ele>216.0</ele><time>2026-04-08T10:26:09.11Z</time></trkpt><trkpt lat="44.8165783" lon="9.4768583"><ele>213.5</ele><time>2026-04-08T10:26:10.109Z</time></trkpt><trkpt lat="44.81658" lon="9.477345"><ele>211.0</ele><time>2026-04-08T10:26:11.109Z</time></trkpt><trkpt lat="44.8165833" lon="9.4778383"><ele>210.5</ele><time>2026-04-08T10:26:12.11Z</time></trkpt><trkpt lat="44.8165867" lon="9.47834"><ele>210.0</ele><time>2026-04-08T10:26:13.109Z</time></trkpt><trkpt lat="44.8165933" lon="9.4788417"><ele>209.5</ele><time>2026-04-08T10:26:14.109Z</time></trkpt><trkpt lat="44.81661" lon="9.47935"><ele>209.0</ele><time>2026-04-08T10:26:15.11Z</time></trkpt><trkpt lat="44.8166483" lon="9.47986"><ele>208.0</ele><time>2026-04-08T10:26:16.109Z</time></trkpt><trkpt lat="44.8167183" lon="9.4803617"><ele>207.0</ele><time>2026-04-08T10:26:17.11Z</time></trkpt><trkpt lat="44.8168183" lon="9.48085"><ele>205.5</ele><time>2026-04-08T10:26:18.11Z</time></trkpt><trkpt lat="44.8169517" lon="9.4813317"><ele>204.0</ele><time>2026-04-08T10:26:19.109Z</time></trkpt><trkpt lat="44.8171117" lon="9.4818017"><ele>209.5</ele><time>2026-04-08T10:26:20.109Z</time></trkpt><trkpt lat="44.8172817" lon="9.48227"><ele>215.0</ele><time>2026-04-08T10:26:21.11Z</time></trkpt><trkpt lat="44.81746" lon="9.482735"><ele>216.5</ele><time>2026-04-08T10:26:22.11Z</time></trkpt><trkpt lat="44.817635" lon="9.4832167"><ele>218.0</ele><time>2026-04-08T10:26:23.11Z</time></trkpt><trkpt lat="44.8178133" lon="9.4836983"><ele>217.5</ele><time>2026-04-08T10:26:24.11Z</time></trkpt><trkpt lat="44.8179917" lon="9.4841833"><ele>217.0</ele><time>2026-04-08T10:26:25.11Z</time></trkpt><trkpt lat="44.818175" lon="9.4846783"><ele>217.0</ele><time>2026-04-08T10:26:26.11Z</time></trkpt><trkpt lat="44.8183567" lon="9.4851667"><ele>217.0</ele><time>2026-04-08T10:26:27.11Z</time></trkpt><trkpt lat="44.8185367" lon="9.485655"><ele>208.0</ele><time>2026-04-08T10:26:28.109Z</time></trkpt><trkpt lat="44.81872" lon="9.4859917"><ele>199.0</ele><time>2026-04-08T10:26:29.11Z</time></trkpt><trkpt lat="44.8188367" lon="9.4863467"><ele>198.5</ele><time>2026-04-08T10:26:30.11Z</time></trkpt><trkpt lat="44.8187033" lon="9.4867667"><ele>198.0</ele><time>2026-04-08T10:26:31.109Z</time></trkpt><trkpt lat="44.8187433" lon="9.4872333"><ele>197.0</ele><time>2026-04-08T10:26:32.11Z</time></trkpt><trkpt lat="44.8187617" lon="9.4877017"><ele>196.0</ele><time>2026-04-08T10:26:33.11Z</time></trkpt><trkpt lat="44.818775" lon="9.4881583"><ele>195.5</ele><time>2026-04-08T10:26:34.11Z</time></trkpt><trkpt lat="44.818795" lon="9.4885933"><ele>195.0</ele><time>2026-04-08T10:26:35.109Z</time></trkpt><trkpt lat="44.8188067" lon="9.4890183"><ele>195.0</ele><time>2026-04-08T10:26:36.11Z</time></trkpt><trkpt lat="44.818815" lon="9.48944"><ele>195.0</ele><time>2026-04-08T10:26:37.11Z</time></trkpt><trkpt lat="44.818825" lon="9.4898617"><ele>195.0</ele><time>2026-04-08T10:26:38.11Z</time></trkpt><trkpt lat="44.8188333" lon="9.490285"><ele>195.0</ele><time>2026-04-08T10:26:39.11Z</time></trkpt><trkpt lat="44.81884" lon="9.4907117"><ele>195.0</ele><time>2026-04-08T10:26:40.11Z</time></trkpt><trkpt lat="44.81885" lon="9.4911367"><ele>195.0</ele><time>2026-04-08T10:26:41.11Z</time></trkpt><trkpt lat="44.8188583" lon="9.4915583"><ele>194.5</ele><time>2026-04-08T10:26:42.109Z</time></trkpt><trkpt lat="44.81887" lon="9.491975"><ele>194.0</ele><time>2026-04-08T10:26:43.11Z</time></trkpt><trkpt lat="44.81889" lon="9.49239"><ele>194.0</ele><time>2026-04-08T10:26:44.11Z</time></trkpt><trkpt lat="44.8189217" lon="9.4928033"><ele>194.0</ele><time>2026-04-08T10:26:45.11Z</time></trkpt><trkpt lat="44.818975" lon="9.49321"><ele>194.0</ele><time>2026-04-08T10:26:46.11Z</time></trkpt><trkpt lat="44.8190433" lon="9.49361"><ele>194.0</ele><time>2026-04-08T10:26:47.109Z</time></trkpt><trkpt lat="44.819125" lon="9.4940083"><ele>196.0</ele><time>2026-04-08T10:26:48.11Z</time></trkpt><trkpt lat="44.81922" lon="9.4944017"><ele>198.0</ele><time>2026-04-08T10:26:49.11Z</time></trkpt><trkpt lat="44.8193217" lon="9.4947883"><ele>195.5</ele><time>2026-04-08T10:26:50.109Z</time></trkpt><trkpt lat="44.8194317" lon="9.4951667"><ele>193.0</ele><time>2026-04-08T10:26:51.11Z</time></trkpt><trkpt lat="44.8195417" lon="9.4955433"><ele>193.0</ele><time>2026-04-08T10:26:52.109Z</time></trkpt><trkpt lat="44.8196517" lon="9.4959167"><ele>193.0</ele><time>2026-04-08T10:26:53.11Z</time></trkpt><trkpt lat="44.8197567" lon="9.4962883"><ele>195.5</ele><time>2026-04-08T10:26:54.11Z</time></trkpt><trkpt lat="44.819875" lon="9.4966533"><ele>198.0</ele><time>2026-04-08T10:26:55.11Z</time></trkpt><trkpt lat="44.82" lon="9.4970117"><ele>201.0</ele><time>2026-04-08T10:26:56.11Z</time></trkpt><trkpt lat="44.8201267" lon="9.4973667"><ele>204.0</ele><time>2026-04-08T10:26:57.11Z</time></trkpt><trkpt lat="44.820245" lon="9.4977217"><ele>198.0</ele><time>2026-04-08T10:26:58.11Z</time></trkpt><trkpt lat="44.82036" lon="9.4980783"><ele>192.0</ele><time>2026-04-08T10:26:59.11Z</time></trkpt><trkpt lat="44.82047" lon="9.4984417"><ele>192.5</ele><time>2026-04-08T10:27:00.11Z</time></trkpt><trkpt lat="44.8205717" lon="9.4988067"><ele>193.0</ele><time>2026-04-08T10:27:01.109Z</time></trkpt><trkpt lat="44.820665" lon="9.4991733"><ele>193.0</ele><time>2026-04-08T10:27:02.11Z</time></trkpt><trkpt lat="44.820755" lon="9.4995383"><ele>193.0</ele><time>2026-04-08T10:27:03.11Z</time></trkpt><trkpt lat="44.8208517" lon="9.4998983"><ele>193.0</ele><time>2026-04-08T10:27:04.11Z</time></trkpt><trkpt lat="44.8209633" lon="9.5002483"><ele>193.0</ele><time>2026-04-08T10:27:05.109Z</time></trkpt><trkpt lat="44.82109" lon="9.5005867"><ele>191.0</ele><time>2026-04-08T10:27:06.109Z</time></trkpt><trkpt lat="44.8212333" lon="9.500915"><ele>189.0</ele><time>2026-04-08T10:27:07.109Z</time></trkpt><trkpt lat="44.8213983" lon="9.5012317"><ele>190.5</ele><time>2026-04-08T10:27:08.11Z</time></trkpt><trkpt lat="44.821575" lon="9.5015383"><ele>192.0</ele><time>2026-04-08T10:27:09.11Z</time></trkpt><trkpt lat="44.82177" lon="9.501825"><ele>189.5</ele><time>2026-04-08T10:27:10.11Z</time></trkpt><trkpt lat="44.8219783" lon="9.502095"><ele>187.0</ele><time>2026-04-08T10:27:11.109Z</time></trkpt><trkpt lat="44.8222033" lon="9.5023483"><ele>187.0</ele><time>2026-04-08T10:27:12.11Z</time></trkpt><trkpt lat="44.8224317" lon="9.5025967"><ele>187.0</ele><time>2026-04-08T10:27:13.11Z</time></trkpt><trkpt lat="44.8226633" lon="9.5028483"><ele>188.0</ele><time>2026-04-08T10:27:14.11Z</time></trkpt><trkpt lat="44.8228983" lon="9.50311"><ele>189.0</ele><time>2026-04-08T10:27:15.109Z</time></trkpt><trkpt lat="44.8231317" lon="9.5033883"><ele>189.0</ele><time>2026-04-08T10:27:16.11Z</time></trkpt><trkpt lat="44.8233633" lon="9.5036817"><ele>189.0</ele><time>2026-04-08T10:27:17.11Z</time></trkpt><trkpt lat="44.8235883" lon="9.5039883"><ele>189.0</ele><time>2026-04-08T10:27:18.11Z</time></trkpt><trkpt lat="44.8238033" lon="9.5043167"><ele>189.0</ele><time>2026-04-08T10:27:19.11Z</time></trkpt><trkpt lat="44.8240083" lon="9.50467"><ele>189.0</ele><time>2026-04-08T10:27:20.11Z</time></trkpt><trkpt lat="44.824205" lon="9.5050417"><ele>189.0</ele><time>2026-04-08T10:27:21.109Z</time></trkpt><trkpt lat="44.82439" lon="9.5054317"><ele>188.5</ele><time>2026-04-08T10:27:22.11Z</time></trkpt><trkpt lat="44.82458" lon="9.50582"><ele>188.0</ele><time>2026-04-08T10:27:23.11Z</time></trkpt><trkpt lat="44.8247717" lon="9.5062083"><ele>188.5</ele><time>2026-04-08T10:27:24.11Z</time></trkpt><trkpt lat="44.8249483" lon="9.5066083"><ele>189.0</ele><time>2026-04-08T10:27:25.11Z</time></trkpt><trkpt lat="44.825145" lon="9.5069983"><ele>188.5</ele><time>2026-04-08T10:27:26.11Z</time></trkpt><trkpt lat="44.825325" lon="9.5074033"><ele>188.0</ele><time>2026-04-08T10:27:27.109Z</time></trkpt><trkpt lat="44.8255217" lon="9.50779"><ele>190.5</ele><time>2026-04-08T10:27:28.11Z</time></trkpt><trkpt lat="44.8257183" lon="9.5081483"><ele>193.0</ele><time>2026-04-08T10:27:29.11Z</time></trkpt><trkpt lat="44.8258583" lon="9.5085367"><ele>190.0</ele><time>2026-04-08T10:27:30.11Z</time></trkpt><trkpt lat="44.8260333" lon="9.50888"><ele>187.0</ele><time>2026-04-08T10:27:31.11Z</time></trkpt><trkpt lat="44.8262083" lon="9.50923"><ele>187.5</ele><time>2026-04-08T10:27:32.11Z</time></trkpt><trkpt lat="44.826375" lon="9.5095933"><ele>188.0</ele><time>2026-04-08T10:27:33.11Z</time></trkpt><trkpt lat="44.8265433" lon="9.50996"><ele>188.0</ele><time>2026-04-08T10:27:34.11Z</time></trkpt><trkpt lat="44.8267367" lon="9.5102983"><ele>188.0</ele><time>2026-04-08T10:27:35.109Z</time></trkpt><trkpt lat="44.8269217" lon="9.5106433"><ele>188.5</ele><time>2026-04-08T10:27:36.11Z</time></trkpt><trkpt lat="44.8271167" lon="9.5109683"><ele>189.0</ele><time>2026-04-08T10:27:37.11Z</time></trkpt><trkpt lat="44.827305" lon="9.511295"><ele>188.0</ele><time>2026-04-08T10:27:38.109Z</time></trkpt><trkpt lat="44.8274867" lon="9.51163"><ele>187.0</ele><time>2026-04-08T10:27:39.11Z</time></trkpt><trkpt lat="44.8276783" lon="9.5119433"><ele>189.0</ele><time>2026-04-08T10:27:40.11Z</time></trkpt><trkpt lat="44.8278283" lon="9.5122933"><ele>191.0</ele><time>2026-04-08T10:27:41.11Z</time></trkpt><trkpt lat="44.82797" lon="9.5126433"><ele>196.5</ele><time>2026-04-08T10:27:42.11Z</time></trkpt><trkpt lat="44.8281033" lon="9.5129967"><ele>202.0</ele><time>2026-04-08T10:27:43.11Z</time></trkpt><trkpt lat="44.8282283" lon="9.51335"><ele>202.0</ele><time>2026-04-08T10:27:44.11Z</time></trkpt><trkpt lat="44.828385" lon="9.513675"><ele>202.0</ele><time>2026-04-08T10:27:45.11Z</time></trkpt><trkpt lat="44.828565" lon="9.5139683"><ele>198.5</ele><time>2026-04-08T10:27:46.11Z</time></trkpt><trkpt lat="44.8287767" lon="9.51422"><ele>195.0</ele><time>2026-04-08T10:27:47.11Z</time></trkpt><trkpt lat="44.8289917" lon="9.5144517"><ele>194.5</ele><time>2026-04-08T10:27:48.11Z</time></trkpt><trkpt lat="44.8292167" lon="9.5146667"><ele>194.0</ele><time>2026-04-08T10:27:49.11Z</time></trkpt><trkpt lat="44.8294383" lon="9.5148717"><ele>194.0</ele><time>2026-04-08T10:27:50.11Z</time></trkpt><trkpt lat="44.829845" lon="9.5152383"><ele>195.0</ele><time>2026-04-08T10:27:52.11Z</time></trkpt><trkpt lat="44.8300033" lon="9.5154133"><ele>196.0</ele><time>2026-04-08T10:27:53.11Z</time></trkpt><trkpt lat="44.8301367" lon="9.5155667"><ele>197.0</ele><time>2026-04-08T10:27:54.11Z</time></trkpt><trkpt lat="44.8302383" lon="9.515715"><ele>197.00000000000003</ele><time>2026-04-08T10:27:55.11Z</time></trkpt><trkpt lat="44.83032" lon="9.5158183"><ele>197.0</ele><time>2026-04-08T10:27:56.11Z</time></trkpt><trkpt lat="44.8303583" lon="9.51592"><ele>197.0</ele><time>2026-04-08T10:27:57.11Z</time></trkpt><trkpt lat="44.8303667" lon="9.5160317"><ele>197.0</ele><time>2026-04-08T10:27:58.11Z</time></trkpt><trkpt lat="44.8303817" lon="9.51614"><ele>197.00000000000003</ele><time>2026-04-08T10:27:59.11Z</time></trkpt><trkpt lat="44.83042" lon="9.5162333"><ele>197.0</ele><time>2026-04-08T10:28:00.11Z</time></trkpt><trkpt lat="44.8304733" lon="9.5162983"><ele>198.6</ele><time>2026-04-08T10:28:01.11Z</time></trkpt><trkpt lat="44.83055" lon="9.5163133"><ele>200.2</ele><time>2026-04-08T10:28:02.11Z</time></trkpt><trkpt lat="44.8306267" lon="9.5163433"><ele>201.8</ele><time>2026-04-08T10:28:03.11Z</time></trkpt><trkpt lat="44.8307117" lon="9.5164417"><ele>203.4</ele><time>2026-04-08T10:28:04.11Z</time></trkpt><trkpt lat="44.8307867" lon="9.5166033"><ele>205.0</ele><time>2026-04-08T10:28:05.11Z</time></trkpt><trkpt lat="44.83084" lon="9.5168333"><ele>205.33333333333331</ele><time>2026-04-08T10:28:06.11Z</time></trkpt><trkpt lat="44.8308633" lon="9.5170933"><ele>205.66666666666669</ele><time>2026-04-08T10:28:07.11Z</time></trkpt><trkpt lat="44.8308317" lon="9.5173583"><ele>206.0</ele><time>2026-04-08T10:28:08.109Z</time></trkpt><trkpt lat="44.83075" lon="9.5176283"><ele>206.0</ele><time>2026-04-08T10:28:09.11Z</time></trkpt><trkpt lat="44.83066" lon="9.5178783"><ele>206.0</ele><time>2026-04-08T10:28:10.11Z</time></trkpt><trkpt lat="44.8305767" lon="9.5181117"><ele>206.0</ele><time>2026-04-08T10:28:11.11Z</time></trkpt><trkpt lat="44.8305267" lon="9.5183383"><ele>204.66666666666669</ele><time>2026-04-08T10:28:12.11Z</time></trkpt><trkpt lat="44.8305167" lon="9.5185667"><ele>203.33333333333331</ele><time>2026-04-08T10:28:13.11Z</time></trkpt><trkpt lat="44.8305583" lon="9.518805"><ele>202.0</ele><time>2026-04-08T10:28:14.109Z</time></trkpt><trkpt lat="44.8307067" lon="9.5190217"><ele>202.0</ele><time>2026-04-08T10:28:15.109Z</time></trkpt><trkpt lat="44.8308783" lon="9.51925"><ele>202.0</ele><time>2026-04-08T10:28:16.11Z</time></trkpt><trkpt lat="44.83105" lon="9.5194817"><ele>203.0</ele><time>2026-04-08T10:28:17.109Z</time></trkpt><trkpt lat="44.831205" lon="9.5196967"><ele>204.0</ele><time>2026-04-08T10:28:18.11Z</time></trkpt><trkpt lat="44.8313483" lon="9.51989"><ele>205.0</ele><time>2026-04-08T10:28:19.11Z</time></trkpt><trkpt lat="44.831505" lon="9.520045"><ele>205.0</ele><time>2026-04-08T10:28:20.11Z</time></trkpt><trkpt lat="44.8316717" lon="9.52017"><ele>205.0</ele><time>2026-04-08T10:28:21.11Z</time></trkpt><trkpt lat="44.8318533" lon="9.520255"><ele>205.0</ele><time>2026-04-08T10:28:22.11Z</time></trkpt><trkpt lat="44.8320583" lon="9.5201933"><ele>206.33333333333331</ele><time>2026-04-08T10:28:23.11Z</time></trkpt><trkpt lat="44.8322383" lon="9.520075"><ele>207.66666666666669</ele><time>2026-04-08T10:28:24.109Z</time></trkpt><trkpt lat="44.8323983" lon="9.5199767"><ele>209.0</ele><time>2026-04-08T10:28:25.11Z</time></trkpt><trkpt lat="44.8325567" lon="9.519885"><ele>210.0</ele><time>2026-04-08T10:28:26.11Z</time></trkpt><trkpt lat="44.8327183" lon="9.5198033"><ele>211.0</ele><time>2026-04-08T10:28:27.11Z</time></trkpt><trkpt lat="44.8328633" lon="9.519735"><ele>212.0</ele><time>2026-04-08T10:28:28.11Z</time></trkpt><trkpt lat="44.832995" lon="9.5196733"><ele>212.0</ele><time>2026-04-08T10:28:29.109Z</time></trkpt><trkpt lat="44.8331167" lon="9.5196317"><ele>212.0</ele><time>2026-04-08T10:28:30.11Z</time></trkpt><trkpt lat="44.8332333" lon="9.5196183"><ele>212.0</ele><time>2026-04-08T10:28:31.11Z</time></trkpt><trkpt lat="44.833355" lon="9.51964"><ele>212.0</ele><time>2026-04-08T10:28:32.109Z</time></trkpt><trkpt lat="44.833465" lon="9.5196633"><ele>210.75</ele><time>2026-04-08T10:28:33.109Z</time></trkpt><trkpt lat="44.8335783" lon="9.51971"><ele>209.5</ele><time>2026-04-08T10:28:34.11Z</time></trkpt><trkpt lat="44.8336867" lon="9.51977"><ele>208.25</ele><time>2026-04-08T10:28:35.109Z</time></trkpt><trkpt lat="44.83379" lon="9.5198433"><ele>207.0</ele><time>2026-04-08T10:28:36.109Z</time></trkpt><trkpt lat="44.833895" lon="9.519925"><ele>207.0</ele><time>2026-04-08T10:28:37.11Z</time></trkpt><trkpt lat="44.8340017" lon="9.5200133"><ele>207.0</ele><time>2026-04-08T10:28:38.11Z</time></trkpt><trkpt lat="44.8341033" lon="9.5201017"><ele>207.0</ele><time>2026-04-08T10:28:39.109Z</time></trkpt><trkpt lat="44.8341967" lon="9.5201967"><ele>207.0</ele><time>2026-04-08T10:28:40.11Z</time></trkpt><trkpt lat="44.834285" lon="9.5202783"><ele>208.0</ele><time>2026-04-08T10:28:41.11Z</time></trkpt><trkpt lat="44.8343717" lon="9.5203467"><ele>209.0</ele><time>2026-04-08T10:28:42.11Z</time></trkpt><trkpt lat="44.83446" lon="9.5203933"><ele>210.0</ele><time>2026-04-08T10:28:43.109Z</time></trkpt><trkpt lat="44.834555" lon="9.5203717"><ele>211.0</ele><time>2026-04-08T10:28:44.11Z</time></trkpt><trkpt lat="44.8346483" lon="9.5203133"><ele>212.0</ele><time>2026-04-08T10:28:45.11Z</time></trkpt><trkpt lat="44.83474" lon="9.520235"><ele>212.0</ele><time>2026-04-08T10:28:46.11Z</time></trkpt><trkpt lat="44.834835" lon="9.5201333"><ele>212.0</ele><time>2026-04-08T10:28:47.11Z</time></trkpt><trkpt lat="44.8349367" lon="9.520045"><ele>212.0</ele><time>2026-04-08T10:28:48.109Z</time></trkpt><trkpt lat="44.835045" lon="9.5199883"><ele>212.0</ele><time>2026-04-08T10:28:49.11Z</time></trkpt><trkpt lat="44.8351667" lon="9.5199667"><ele>210.0</ele><time>2026-04-08T10:28:50.11Z</time></trkpt><trkpt lat="44.8352933" lon="9.5199817"><ele>208.0</ele><time>2026-04-08T10:28:51.109Z</time></trkpt><trkpt lat="44.8354233" lon="9.5200133"><ele>206.0</ele><time>2026-04-08T10:28:52.11Z</time></trkpt><trkpt lat="44.8355383" lon="9.5200817"><ele>204.0</ele><time>2026-04-08T10:28:53.11Z</time></trkpt><trkpt lat="44.8356433" lon="9.5201667"><ele>204.0</ele><time>2026-04-08T10:28:54.11Z</time></trkpt><trkpt lat="44.8357633" lon="9.5202533"><ele>204.0</ele><time>2026-04-08T10:28:55.109Z</time></trkpt><trkpt lat="44.83588" lon="9.5203283"><ele>204.0</ele><time>2026-04-08T10:28:56.11Z</time></trkpt><trkpt lat="44.835985" lon="9.5203833"><ele>204.0</ele><time>2026-04-08T10:28:57.11Z</time></trkpt><trkpt lat="44.8361067" lon="9.520465"><ele>205.33333333333331</ele><time>2026-04-08T10:28:58.11Z</time></trkpt><trkpt lat="44.8362183" lon="9.5205767"><ele>206.66666666666666</ele><time>2026-04-08T10:28:59.11Z</time></trkpt><trkpt lat="44.836335" lon="9.5207133"><ele>208.0</ele><time>2026-04-08T10:29:00.11Z</time></trkpt><trkpt lat="44.83647" lon="9.5208917"><ele>208.0</ele><time>2026-04-08T10:29:01.11Z</time></trkpt><trkpt lat="44.8366217" lon="9.52109"><ele>208.0</ele><time>2026-04-08T10:29:02.109Z</time></trkpt><trkpt lat="44.8367533" lon="9.5213"><ele>208.0</ele><time>2026-04-08T10:29:03.11Z</time></trkpt><trkpt lat="44.8368867" lon="9.5214983"><ele>206.33333333333331</ele><time>2026-04-08T10:29:04.11Z</time></trkpt><trkpt lat="44.8370333" lon="9.5217"><ele>204.66666666666669</ele><time>2026-04-08T10:29:05.11Z</time></trkpt><trkpt lat="44.837225" lon="9.5218667"><ele>203.0</ele><time>2026-04-08T10:29:06.11Z</time></trkpt><trkpt lat="44.8373933" lon="9.52205"><ele>203.0</ele><time>2026-04-08T10:29:07.11Z</time></trkpt><trkpt lat="44.83755" lon="9.5222267"><ele>203.0</ele><time>2026-04-08T10:29:08.11Z</time></trkpt><trkpt lat="44.837705" lon="9.5223883"><ele>203.0</ele><time>2026-04-08T10:29:09.11Z</time></trkpt><trkpt lat="44.837865" lon="9.5225417"><ele>203.0</ele><time>2026-04-08T10:29:10.11Z</time></trkpt><trkpt lat="44.838025" lon="9.5226817"><ele>203.0</ele><time>2026-04-08T10:29:11.11Z</time></trkpt><trkpt lat="44.83817" lon="9.52283"><ele>203.0</ele><time>2026-04-08T10:29:12.109Z</time></trkpt><trkpt lat="44.8382883" lon="9.523005"><ele>200.66666666666669</ele><time>2026-04-08T10:29:13.11Z</time></trkpt><trkpt lat="44.83841" lon="9.52316"><ele>198.33333333333331</ele><time>2026-04-08T10:29:14.11Z</time></trkpt><trkpt lat="44.8385183" lon="9.5233283"><ele>196.0</ele><time>2026-04-08T10:29:15.11Z</time></trkpt><trkpt lat="44.8386317" lon="9.5234783"><ele>196.0</ele><time>2026-04-08T10:29:16.11Z</time></trkpt><trkpt lat="44.83871" lon="9.5236633"><ele>196.0</ele><time>2026-04-08T10:29:17.11Z</time></trkpt><trkpt lat="44.838795" lon="9.5238283"><ele>196.0</ele><time>2026-04-08T10:29:18.109Z</time></trkpt><trkpt lat="44.83887" lon="9.5240017"><ele>196.0</ele><time>2026-04-08T10:29:19.11Z</time></trkpt><trkpt lat="44.8389283" lon="9.5241767"><ele>199.0</ele><time>2026-04-08T10:29:20.11Z</time></trkpt><trkpt lat="44.83896" lon="9.524355"><ele>202.0</ele><time>2026-04-08T10:29:21.11Z</time></trkpt><trkpt lat="44.838985" lon="9.5245483"><ele>205.0</ele><time>2026-04-08T10:29:22.109Z</time></trkpt><trkpt lat="44.839025" lon="9.5247517"><ele>208.0</ele><time>2026-04-08T10:29:23.11Z</time></trkpt><trkpt lat="44.83909" lon="9.524975"><ele>210.0</ele><time>2026-04-08T10:29:24.11Z</time></trkpt><trkpt lat="44.8391967" lon="9.5252317"><ele>212.0</ele><time>2026-04-08T10:29:25.11Z</time></trkpt><trkpt lat="44.839315" lon="9.52552"><ele>214.0</ele><time>2026-04-08T10:29:26.11Z</time></trkpt><trkpt lat="44.8394367" lon="9.5258083"><ele>210.0</ele><time>2026-04-08T10:29:27.109Z</time></trkpt><trkpt lat="44.839555" lon="9.5261033"><ele>206.0</ele><time>2026-04-08T10:29:28.11Z</time></trkpt><trkpt lat="44.8396733" lon="9.52641"><ele>206.0</ele><time>2026-04-08T10:29:29.11Z</time></trkpt><trkpt lat="44.8398" lon="9.5267433"><ele>206.0</ele><time>2026-04-08T10:29:30.11Z</time></trkpt><trkpt lat="44.8399283" lon="9.52711"><ele>202.0</ele><time>2026-04-08T10:29:31.11Z</time></trkpt><trkpt lat="44.84006" lon="9.5274867"><ele>198.0</ele><time>2026-04-08T10:29:32.11Z</time></trkpt><trkpt lat="44.8401983" lon="9.5278633"><ele>200.5</ele><time>2026-04-08T10:29:33.109Z</time></trkpt><trkpt lat="44.8403383" lon="9.5282217"><ele>203.0</ele><time>2026-04-08T10:29:34.11Z</time></trkpt><trkpt lat="44.840505" lon="9.52857"><ele>205.5</ele><time>2026-04-08T10:29:35.11Z</time></trkpt><trkpt lat="44.8407" lon="9.5289033"><ele>208.0</ele><time>2026-04-08T10:29:36.109Z</time></trkpt><trkpt lat="44.8409033" lon="9.52923"><ele>205.0</ele><time>2026-04-08T10:29:37.11Z</time></trkpt><trkpt lat="44.8411017" lon="9.52957"><ele>202.0</ele><time>2026-04-08T10:29:38.11Z</time></trkpt><trkpt lat="44.8412817" lon="9.5299217"><ele>202.0</ele><time>2026-04-08T10:29:39.11Z</time></trkpt><trkpt lat="44.8414333" lon="9.53028"><ele>202.0</ele><time>2026-04-08T10:29:40.11Z</time></trkpt><trkpt lat="44.8415567" lon="9.53061"><ele>206.5</ele><time>2026-04-08T10:29:41.109Z</time></trkpt><trkpt lat="44.8416917" lon="9.5309"><ele>211.0</ele><time>2026-04-08T10:29:42.109Z</time></trkpt><trkpt lat="44.8418417" lon="9.5311667"><ele>209.5</ele><time>2026-04-08T10:29:43.11Z</time></trkpt><trkpt lat="44.84203" lon="9.5314033"><ele>208.0</ele><time>2026-04-08T10:29:44.11Z</time></trkpt><trkpt lat="44.8422383" lon="9.531585"><ele>208.0</ele><time>2026-04-08T10:29:45.11Z</time></trkpt><trkpt lat="44.8424417" lon="9.53172"><ele>208.0</ele><time>2026-04-08T10:29:46.11Z</time></trkpt><trkpt lat="44.8426117" lon="9.5318367"><ele>208.0</ele><time>2026-04-08T10:29:47.109Z</time></trkpt><trkpt lat="44.8427433" lon="9.53198"><ele>201.33333333333331</ele><time>2026-04-08T10:29:48.11Z</time></trkpt><trkpt lat="44.842845" lon="9.532185"><ele>194.66666666666666</ele><time>2026-04-08T10:29:49.109Z</time></trkpt><trkpt lat="44.8429233" lon="9.5324517"><ele>188.0</ele><time>2026-04-08T10:29:50.109Z</time></trkpt><trkpt lat="44.8429967" lon="9.53279"><ele>192.5</ele><time>2026-04-08T10:29:51.109Z</time></trkpt><trkpt lat="44.8430767" lon="9.5331617"><ele>197.0</ele><time>2026-04-08T10:29:52.11Z</time></trkpt><trkpt lat="44.84315" lon="9.5335717"><ele>199.0</ele><time>2026-04-08T10:29:53.11Z</time></trkpt><trkpt lat="44.843205" lon="9.533995"><ele>201.0</ele><time>2026-04-08T10:29:54.11Z</time></trkpt><trkpt lat="44.8432483" lon="9.5343983"><ele>203.5</ele><time>2026-04-08T10:29:55.109Z</time></trkpt><trkpt lat="44.8432967" lon="9.53476"><ele>206.0</ele><time>2026-04-08T10:29:56.11Z</time></trkpt><trkpt lat="44.8433217" lon="9.5350767"><ele>206.0</ele><time>2026-04-08T10:29:57.11Z</time></trkpt><trkpt lat="44.8433467" lon="9.53534"><ele>206.0</ele><time>2026-04-08T10:29:58.11Z</time></trkpt><trkpt lat="44.8434" lon="9.5355733"><ele>206.0</ele><time>2026-04-08T10:29:59.109Z</time></trkpt><trkpt lat="44.8434767" lon="9.5357867"><ele>203.33333333333334</ele><time>2026-04-08T10:30:00.11Z</time></trkpt><trkpt lat="44.8436083" lon="9.53596"><ele>200.66666666666669</ele><time>2026-04-08T10:30:01.11Z</time></trkpt><trkpt lat="44.8437733" lon="9.5360733"><ele>198.0</ele><time>2026-04-08T10:30:02.11Z</time></trkpt><trkpt lat="44.8439867" lon="9.5360967"><ele>198.0</ele><time>2026-04-08T10:30:03.11Z</time></trkpt><trkpt lat="44.8442067" lon="9.5360567"><ele>198.0</ele><time>2026-04-08T10:30:04.11Z</time></trkpt><trkpt lat="44.84438" lon="9.53609"><ele>198.0</ele><time>2026-04-08T10:30:05.11Z</time></trkpt><trkpt lat="44.8445333" lon="9.536205"><ele>197.66666666666669</ele><time>2026-04-08T10:30:06.109Z</time></trkpt><trkpt lat="44.844655" lon="9.5363833"><ele>197.33333333333334</ele><time>2026-04-08T10:30:07.109Z</time></trkpt><trkpt lat="44.8447883" lon="9.5365567"><ele>197.0</ele><time>2026-04-08T10:30:08.11Z</time></trkpt><trkpt lat="44.8449433" lon="9.536705"><ele>195.33333333333334</ele><time>2026-04-08T10:30:09.11Z</time></trkpt><trkpt lat="44.845145" lon="9.5368083"><ele>193.66666666666669</ele><time>2026-04-08T10:30:10.11Z</time></trkpt><trkpt lat="44.845335" lon="9.536935"><ele>192.0</ele><time>2026-04-08T10:30:11.109Z</time></trkpt><trkpt lat="44.8455033" lon="9.5371067"><ele>192.0</ele><time>2026-04-08T10:30:12.11Z</time></trkpt><trkpt lat="44.845645" lon="9.5373333"><ele>192.0</ele><time>2026-04-08T10:30:13.11Z</time></trkpt><trkpt lat="44.845755" lon="9.5375883"><ele>192.0</ele><time>2026-04-08T10:30:14.11Z</time></trkpt><trkpt lat="44.8458683" lon="9.5378183"><ele>190.66666666666666</ele><time>2026-04-08T10:30:15.11Z</time></trkpt><trkpt lat="44.845995" lon="9.5380167"><ele>189.33333333333331</ele><time>2026-04-08T10:30:16.11Z</time></trkpt><trkpt lat="44.8461683" lon="9.5381917"><ele>188.0</ele><time>2026-04-08T10:30:17.11Z</time></trkpt><trkpt lat="44.8464017" lon="9.5383333"><ele>188.0</ele><time>2026-04-08T10:30:18.11Z</time></trkpt><trkpt lat="44.8466467" lon="9.53848"><ele>188.0</ele><time>2026-04-08T10:30:19.11Z</time></trkpt><trkpt lat="44.8468683" lon="9.5386567"><ele>188.5</ele><time>2026-04-08T10:30:20.109Z</time></trkpt><trkpt lat="44.847075" lon="9.53889"><ele>189.0</ele><time>2026-04-08T10:30:21.11Z</time></trkpt><trkpt lat="44.8472717" lon="9.5391667"><ele>189.0</ele><time>2026-04-08T10:30:22.11Z</time></trkpt><trkpt lat="44.8474733" lon="9.539465"><ele>189.0</ele><time>2026-04-08T10:30:23.109Z</time></trkpt><trkpt lat="44.84767" lon="9.539765"><ele>187.0</ele><time>2026-04-08T10:30:24.109Z</time></trkpt><trkpt lat="44.8478517" lon="9.54004"><ele>185.0</ele><time>2026-04-08T10:30:25.109Z</time></trkpt><trkpt lat="44.848015" lon="9.540275"><ele>186.66666666666666</ele><time>2026-04-08T10:30:26.109Z</time></trkpt><trkpt lat="44.8481817" lon="9.5404617"><ele>188.33333333333334</ele><time>2026-04-08T10:30:27.11Z</time></trkpt><trkpt lat="44.8483733" lon="9.5405933"><ele>190.0</ele><time>2026-04-08T10:30:28.109Z</time></trkpt><trkpt lat="44.8485983" lon="9.54068"><ele>191.5</ele><time>2026-04-08T10:30:29.11Z</time></trkpt><trkpt lat="44.84885" lon="9.5407017"><ele>193.0</ele><time>2026-04-08T10:30:30.11Z</time></trkpt><trkpt lat="44.8490917" lon="9.5407117"><ele>191.5</ele><time>2026-04-08T10:30:31.11Z</time></trkpt><trkpt lat="44.8493317" lon="9.540715"><ele>190.0</ele><time>2026-04-08T10:30:32.11Z</time></trkpt><trkpt lat="44.8495667" lon="9.5407333"><ele>190.0</ele><time>2026-04-08T10:30:33.11Z</time></trkpt><trkpt lat="44.8497933" lon="9.540765"><ele>190.0</ele><time>2026-04-08T10:30:34.11Z</time></trkpt><trkpt lat="44.8500117" lon="9.5407867"><ele>190.0</ele><time>2026-04-08T10:30:35.11Z</time></trkpt><trkpt lat="44.85021" lon="9.5407983"><ele>190.66666666666669</ele><time>2026-04-08T10:30:36.11Z</time></trkpt><trkpt lat="44.8503833" lon="9.540815"><ele>191.33333333333334</ele><time>2026-04-08T10:30:37.11Z</time></trkpt><trkpt lat="44.8505417" lon="9.5408317"><ele>192.0</ele><time>2026-04-08T10:30:38.11Z</time></trkpt><trkpt lat="44.8506917" lon="9.5408433"><ele>192.0</ele><time>2026-04-08T10:30:39.11Z</time></trkpt><trkpt lat="44.8508267" lon="9.5408567"><ele>192.0</ele><time>2026-04-08T10:30:40.109Z</time></trkpt><trkpt lat="44.8509567" lon="9.5408733"><ele>192.0</ele><time>2026-04-08T10:30:41.11Z</time></trkpt><trkpt lat="44.8510883" lon="9.5408983"><ele>192.0</ele><time>2026-04-08T10:30:42.11Z</time></trkpt><trkpt lat="44.8512233" lon="9.5409367"><ele>191.33333333333334</ele><time>2026-04-08T10:30:43.11Z</time></trkpt><trkpt lat="44.85138" lon="9.541"><ele>190.66666666666669</ele><time>2026-04-08T10:30:44.11Z</time></trkpt><trkpt lat="44.85157" lon="9.5410917"><ele>190.0</ele><time>2026-04-08T10:30:45.11Z</time></trkpt><trkpt lat="44.85178" lon="9.5412467"><ele>191.5</ele><time>2026-04-08T10:30:46.11Z</time></trkpt><trkpt lat="44.8519967" lon="9.5413917"><ele>193.0</ele><time>2026-04-08T10:30:47.11Z</time></trkpt><trkpt lat="44.8522367" lon="9.541535"><ele>193.0</ele><time>2026-04-08T10:30:48.11Z</time></trkpt><trkpt lat="44.8524833" lon="9.5416983"><ele>193.0</ele><time>2026-04-08T10:30:49.11Z</time></trkpt><trkpt lat="44.8527333" lon="9.5418783"><ele>192.0</ele><time>2026-04-08T10:30:50.11Z</time></trkpt><trkpt lat="44.852965" lon="9.5420567"><ele>191.0</ele><time>2026-04-08T10:30:51.109Z</time></trkpt><trkpt lat="44.85318" lon="9.5422267"><ele>191.0</ele><time>2026-04-08T10:30:52.109Z</time></trkpt><trkpt lat="44.8533783" lon="9.5424067"><ele>191.0</ele><time>2026-04-08T10:30:53.109Z</time></trkpt><trkpt lat="44.8535467" lon="9.5425933"><ele>187.33333333333331</ele><time>2026-04-08T10:30:54.11Z</time></trkpt><trkpt lat="44.8536567" lon="9.5428183"><ele>183.66666666666666</ele><time>2026-04-08T10:30:55.11Z</time></trkpt><trkpt lat="44.853735" lon="9.543065"><ele>180.0</ele><time>2026-04-08T10:30:56.11Z</time></trkpt><trkpt lat="44.853795" lon="9.543335"><ele>180.0</ele><time>2026-04-08T10:30:57.109Z</time></trkpt><trkpt lat="44.8538483" lon="9.5436367"><ele>180.0</ele><time>2026-04-08T10:30:58.11Z</time></trkpt><trkpt lat="44.8538917" lon="9.5439567"><ele>181.0</ele><time>2026-04-08T10:30:59.11Z</time></trkpt><trkpt lat="44.85395" lon="9.5442683"><ele>182.0</ele><time>2026-04-08T10:31:00.11Z</time></trkpt><trkpt lat="44.8540017" lon="9.5445833"><ele>185.5</ele><time>2026-04-08T10:31:01.11Z</time></trkpt><trkpt lat="44.854135" lon="9.5448867"><ele>189.0</ele><time>2026-04-08T10:31:02.11Z</time></trkpt><trkpt lat="44.85429" lon="9.5452067"><ele>186.0</ele><time>2026-04-08T10:31:03.109Z</time></trkpt><trkpt lat="44.8544683" lon="9.54552"><ele>183.0</ele><time>2026-04-08T10:31:04.11Z</time></trkpt><trkpt lat="44.854665" lon="9.5458217"><ele>183.0</ele><time>2026-04-08T10:31:05.11Z</time></trkpt><trkpt lat="44.8548667" lon="9.5461033"><ele>183.0</ele><time>2026-04-08T10:31:06.109Z</time></trkpt><trkpt lat="44.8550717" lon="9.5463767"><ele>183.0</ele><time>2026-04-08T10:31:07.109Z</time></trkpt><trkpt lat="44.85529" lon="9.54665"><ele>183.0</ele><time>2026-04-08T10:31:08.11Z</time></trkpt><trkpt lat="44.8555117" lon="9.5469167"><ele>186.0</ele><time>2026-04-08T10:31:09.11Z</time></trkpt><trkpt lat="44.8557183" lon="9.5471683"><ele>189.0</ele><time>2026-04-08T10:31:10.11Z</time></trkpt><trkpt lat="44.8559067" lon="9.5474067"><ele>184.0</ele><time>2026-04-08T10:31:11.11Z</time></trkpt><trkpt lat="44.8560933" lon="9.5476183"><ele>179.0</ele><time>2026-04-08T10:31:12.11Z</time></trkpt><trkpt lat="44.85631" lon="9.5477783"><ele>183.5</ele><time>2026-04-08T10:31:13.11Z</time></trkpt><trkpt lat="44.8565417" lon="9.5479083"><ele>188.0</ele><time>2026-04-08T10:31:14.11Z</time></trkpt><trkpt lat="44.856785" lon="9.5480333"><ele>186.5</ele><time>2026-04-08T10:31:15.11Z</time></trkpt><trkpt lat="44.8570533" lon="9.5481683"><ele>185.0</ele><time>2026-04-08T10:31:16.11Z</time></trkpt><trkpt lat="44.857335" lon="9.5482917"><ele>185.0</ele><time>2026-04-08T10:31:17.109Z</time></trkpt><trkpt lat="44.8575983" lon="9.54842"><ele>185.0</ele><time>2026-04-08T10:31:18.11Z</time></trkpt><trkpt lat="44.8578533" lon="9.548535"><ele>180.5</ele><time>2026-04-08T10:31:19.11Z</time></trkpt><trkpt lat="44.8580883" lon="9.548685"><ele>176.0</ele><time>2026-04-08T10:31:20.11Z</time></trkpt><trkpt lat="44.8583067" lon="9.5488833"><ele>174.0</ele><time>2026-04-08T10:31:21.11Z</time></trkpt><trkpt lat="44.8585133" lon="9.54912"><ele>172.0</ele><time>2026-04-08T10:31:22.11Z</time></trkpt><trkpt lat="44.8587383" lon="9.5493367"><ele>186.5</ele><time>2026-04-08T10:31:23.11Z</time></trkpt><trkpt lat="44.8589633" lon="9.5495517"><ele>201.0</ele><time>2026-04-08T10:31:24.11Z</time></trkpt><trkpt lat="44.8591883" lon="9.549785"><ele>187.5</ele><time>2026-04-08T10:31:25.11Z</time></trkpt><trkpt lat="44.85941" lon="9.5500267"><ele>174.0</ele><time>2026-04-08T10:31:26.11Z</time></trkpt><trkpt lat="44.8596367" lon="9.55026"><ele>184.0</ele><time>2026-04-08T10:31:27.109Z</time></trkpt><trkpt lat="44.8598533" lon="9.550515"><ele>194.0</ele><time>2026-04-08T10:31:28.11Z</time></trkpt><trkpt lat="44.860065" lon="9.550785"><ele>190.5</ele><time>2026-04-08T10:31:29.11Z</time></trkpt><trkpt lat="44.8602767" lon="9.5510583"><ele>187.0</ele><time>2026-04-08T10:31:30.11Z</time></trkpt><trkpt lat="44.8604967" lon="9.5513233"><ele>187.0</ele><time>2026-04-08T10:31:31.11Z</time></trkpt><trkpt lat="44.860715" lon="9.5515717"><ele>187.0</ele><time>2026-04-08T10:31:32.11Z</time></trkpt><trkpt lat="44.8609233" lon="9.551805"><ele>186.0</ele><time>2026-04-08T10:31:33.109Z</time></trkpt><trkpt lat="44.8611167" lon="9.55203"><ele>185.0</ele><time>2026-04-08T10:31:34.11Z</time></trkpt><trkpt lat="44.8612967" lon="9.552275"><ele>185.0</ele><time>2026-04-08T10:31:35.11Z</time></trkpt><trkpt lat="44.861445" lon="9.55257"><ele>185.0</ele><time>2026-04-08T10:31:36.11Z</time></trkpt><trkpt lat="44.861585" lon="9.5528817"><ele>182.5</ele><time>2026-04-08T10:31:37.11Z</time></trkpt><trkpt lat="44.8617267" lon="9.5531617"><ele>180.0</ele><time>2026-04-08T10:31:38.11Z</time></trkpt><trkpt lat="44.8618833" lon="9.5534033"><ele>180.0</ele><time>2026-04-08T10:31:39.11Z</time></trkpt><trkpt lat="44.8620867" lon="9.5535917"><ele>180.0</ele><time>2026-04-08T10:31:40.109Z</time></trkpt><trkpt lat="44.8622983" lon="9.55375"><ele>180.0</ele><time>2026-04-08T10:31:41.11Z</time></trkpt><trkpt lat="44.8624867" lon="9.5539383"><ele>180.0</ele><time>2026-04-08T10:31:42.109Z</time></trkpt><trkpt lat="44.862685" lon="9.554145"><ele>180.0</ele><time>2026-04-08T10:31:43.109Z</time></trkpt><trkpt lat="44.8628333" lon="9.55442"><ele>180.0</ele><time>2026-04-08T10:31:44.11Z</time></trkpt><trkpt lat="44.86297" lon="9.55471"><ele>184.0</ele><time>2026-04-08T10:31:45.11Z</time></trkpt><trkpt lat="44.8631117" lon="9.5549717"><ele>188.0</ele><time>2026-04-08T10:31:46.11Z</time></trkpt><trkpt lat="44.8632967" lon="9.5551667"><ele>188.0</ele><time>2026-04-08T10:31:47.11Z</time></trkpt><trkpt lat="44.8634967" lon="9.5553083"><ele>188.0</ele><time>2026-04-08T10:31:48.11Z</time></trkpt><trkpt lat="44.8637467" lon="9.5553517"><ele>188.0</ele><time>2026-04-08T10:31:49.11Z</time></trkpt><trkpt lat="44.8640367" lon="9.5552433"><ele>188.0</ele><time>2026-04-08T10:31:50.11Z</time></trkpt><trkpt lat="44.8643267" lon="9.5551333"><ele>190.5</ele><time>2026-04-08T10:31:51.11Z</time></trkpt><trkpt lat="44.8646133" lon="9.5550317"><ele>193.0</ele><time>2026-04-08T10:31:52.11Z</time></trkpt><trkpt lat="44.86491" lon="9.55494"><ele>194.0</ele><time>2026-04-08T10:31:53.109Z</time></trkpt><trkpt lat="44.8651883" lon="9.554855"><ele>195.0</ele><time>2026-04-08T10:31:54.11Z</time></trkpt><trkpt lat="44.8654467" lon="9.55478"><ele>195.0</ele><time>2026-04-08T10:31:55.11Z</time></trkpt><trkpt lat="44.8656917" lon="9.5547167"><ele>195.0</ele><time>2026-04-08T10:31:56.11Z</time></trkpt><trkpt lat="44.8659217" lon="9.5547"><ele>190.5</ele><time>2026-04-08T10:31:57.11Z</time></trkpt><trkpt lat="44.86614" lon="9.5547467"><ele>186.0</ele><time>2026-04-08T10:31:58.11Z</time></trkpt><trkpt lat="44.8663533" lon="9.5548683"><ele>186.0</ele><time>2026-04-08T10:31:59.109Z</time></trkpt><trkpt lat="44.8665383" lon="9.55509"><ele>186.0</ele><time>2026-04-08T10:32:00.11Z</time></trkpt><trkpt lat="44.8666933" lon="9.5553667"><ele>186.0</ele><time>2026-04-08T10:32:01.11Z</time></trkpt><trkpt lat="44.8668617" lon="9.5556133"><ele>186.0</ele><time>2026-04-08T10:32:02.11Z</time></trkpt><trkpt lat="44.8670433" lon="9.5558283"><ele>186.0</ele><time>2026-04-08T10:32:03.11Z</time></trkpt><trkpt lat="44.8672433" lon="9.5560067"><ele>186.0</ele><time>2026-04-08T10:32:04.11Z</time></trkpt><trkpt lat="44.86746" lon="9.5561367"><ele>187.0</ele><time>2026-04-08T10:32:05.109Z</time></trkpt><trkpt lat="44.8676933" lon="9.55621"><ele>188.0</ele><time>2026-04-08T10:32:06.11Z</time></trkpt><trkpt lat="44.8679033" lon="9.55628"><ele>188.0</ele><time>2026-04-08T10:32:07.11Z</time></trkpt><trkpt lat="44.8681033" lon="9.5563983"><ele>188.0</ele><time>2026-04-08T10:32:08.11Z</time></trkpt><trkpt lat="44.86828" lon="9.5565767"><ele>188.0</ele><time>2026-04-08T10:32:09.11Z</time></trkpt><trkpt lat="44.86843" lon="9.5568183"><ele>186.5</ele><time>2026-04-08T10:32:10.109Z</time></trkpt><trkpt lat="44.868555" lon="9.5570933"><ele>185.0</ele><time>2026-04-08T10:32:11.11Z</time></trkpt><trkpt lat="44.868675" lon="9.55736"><ele>185.0</ele><time>2026-04-08T10:32:12.11Z</time></trkpt><trkpt lat="44.868815" lon="9.5575917"><ele>185.0</ele><time>2026-04-08T10:32:13.11Z</time></trkpt><trkpt lat="44.86899" lon="9.5577767"><ele>185.0</ele><time>2026-04-08T10:32:14.11Z</time></trkpt><trkpt lat="44.8691967" lon="9.5579217"><ele>190.5</ele><time>2026-04-08T10:32:15.109Z</time></trkpt><trkpt lat="44.8694383" lon="9.5580033"><ele>196.0</ele><time>2026-04-08T10:32:16.11Z</time></trkpt><trkpt lat="44.8696967" lon="9.55804"><ele>196.0</ele><time>2026-04-08T10:32:17.109Z</time></trkpt><trkpt lat="44.8699633" lon="9.55804"><ele>196.0</ele><time>2026-04-08T10:32:18.11Z</time></trkpt><trkpt lat="44.8702683" lon="9.5579083"><ele>191.0</ele><time>2026-04-08T10:32:19.11Z</time></trkpt><trkpt lat="44.870555" lon="9.557805"><ele>186.0</ele><time>2026-04-08T10:32:20.109Z</time></trkpt><trkpt lat="44.8708067" lon="9.5577217"><ele>182.0</ele><time>2026-04-08T10:32:21.11Z</time></trkpt><trkpt lat="44.8710467" lon="9.5576533"><ele>178.0</ele><time>2026-04-08T10:32:22.11Z</time></trkpt><trkpt lat="44.871255" lon="9.5576667"><ele>178.0</ele><time>2026-04-08T10:32:23.11Z</time></trkpt><trkpt lat="44.8714517" lon="9.557735"><ele>178.0</ele><time>2026-04-08T10:32:24.11Z</time></trkpt><trkpt lat="44.8716367" lon="9.5578767"><ele>178.0</ele><time>2026-04-08T10:32:25.109Z</time></trkpt><trkpt lat="44.8718033" lon="9.5580683"><ele>176.0</ele><time>2026-04-08T10:32:26.11Z</time></trkpt><trkpt lat="44.8719383" lon="9.5583267"><ele>174.0</ele><time>2026-04-08T10:32:27.11Z</time></trkpt><trkpt lat="44.872045" lon="9.55863"><ele>176.0</ele><time>2026-04-08T10:32:28.109Z</time></trkpt><trkpt lat="44.8721517" lon="9.5589283"><ele>178.0</ele><time>2026-04-08T10:32:29.11Z</time></trkpt><trkpt lat="44.8722767" lon="9.559205"><ele>178.0</ele><time>2026-04-08T10:32:30.109Z</time></trkpt><trkpt lat="44.8724433" lon="9.5594583"><ele>178.0</ele><time>2026-04-08T10:32:31.11Z</time></trkpt><trkpt lat="44.8726617" lon="9.5596683"><ele>179.5</ele><time>2026-04-08T10:32:32.11Z</time></trkpt><trkpt lat="44.87294" lon="9.5598417"><ele>181.0</ele><time>2026-04-08T10:32:33.11Z</time></trkpt><trkpt lat="44.87322" lon="9.560045"><ele>180.0</ele><time>2026-04-08T10:32:34.11Z</time></trkpt><trkpt lat="44.8735383" lon="9.560235"><ele>179.0</ele><time>2026-04-08T10:32:35.109Z</time></trkpt><trkpt lat="44.8738417" lon="9.5604283"><ele>179.0</ele><time>2026-04-08T10:32:36.11Z</time></trkpt><trkpt lat="44.87411" lon="9.5606217"><ele>179.0</ele><time>2026-04-08T10:32:37.11Z</time></trkpt><trkpt lat="44.8743483" lon="9.5608017"><ele>178.33333333333331</ele><time>2026-04-08T10:32:38.109Z</time></trkpt><trkpt lat="44.8745667" lon="9.5609517"><ele>177.66666666666666</ele><time>2026-04-08T10:32:39.109Z</time></trkpt><trkpt lat="44.874745" lon="9.5610567"><ele>177.0</ele><time>2026-04-08T10:32:40.11Z</time></trkpt><trkpt lat="44.8749533" lon="9.5611"><ele>176.5</ele><time>2026-04-08T10:32:41.11Z</time></trkpt><trkpt lat="44.87518" lon="9.56107"><ele>176.0</ele><time>2026-04-08T10:32:42.11Z</time></trkpt><trkpt lat="44.8754333" lon="9.5610083"><ele>176.0</ele><time>2026-04-08T10:32:43.109Z</time></trkpt><trkpt lat="44.875695" lon="9.5609483"><ele>176.0</ele><time>2026-04-08T10:32:44.11Z</time></trkpt><trkpt lat="44.8759517" lon="9.560935"><ele>175.5</ele><time>2026-04-08T10:32:45.11Z</time></trkpt><trkpt lat="44.8762133" lon="9.56098"><ele>175.0</ele><time>2026-04-08T10:32:46.11Z</time></trkpt><trkpt lat="44.8764717" lon="9.56109"><ele>175.0</ele><time>2026-04-08T10:32:47.11Z</time></trkpt><trkpt lat="44.87672" lon="9.561255"><ele>175.0</ele><time>2026-04-08T10:32:48.11Z</time></trkpt><trkpt lat="44.8769433" lon="9.5614517"><ele>175.0</ele><time>2026-04-08T10:32:49.109Z</time></trkpt><trkpt lat="44.8771483" lon="9.56165"><ele>175.0</ele><time>2026-04-08T10:32:50.11Z</time></trkpt><trkpt lat="44.87734" lon="9.5618367"><ele>175.0</ele><time>2026-04-08T10:32:51.11Z</time></trkpt><trkpt lat="44.8775267" lon="9.5620217"><ele>175.0</ele><time>2026-04-08T10:32:52.11Z</time></trkpt><trkpt lat="44.8777083" lon="9.562205"><ele>174.66666666666669</ele><time>2026-04-08T10:32:53.11Z</time></trkpt><trkpt lat="44.8778833" lon="9.5623933"><ele>174.33333333333334</ele><time>2026-04-08T10:32:54.109Z</time></trkpt><trkpt lat="44.878055" lon="9.5625767"><ele>174.0</ele><time>2026-04-08T10:32:55.109Z</time></trkpt><trkpt lat="44.8782267" lon="9.5627633"><ele>177.5</ele><time>2026-04-08T10:32:56.11Z</time></trkpt><trkpt lat="44.8784017" lon="9.56296"><ele>181.0</ele><time>2026-04-08T10:32:57.11Z</time></trkpt><trkpt lat="44.878595" lon="9.5631867"><ele>181.0</ele><time>2026-04-08T10:32:58.11Z</time></trkpt><trkpt lat="44.8788083" lon="9.5634617"><ele>181.0</ele><time>2026-04-08T10:32:59.11Z</time></trkpt><trkpt lat="44.879035" lon="9.5637667"><ele>170.0</ele><time>2026-04-08T10:33:00.109Z</time></trkpt><trkpt lat="44.8792817" lon="9.56409"><ele>159.0</ele><time>2026-04-08T10:33:01.11Z</time></trkpt><trkpt lat="44.879525" lon="9.5644333"><ele>166.5</ele><time>2026-04-08T10:33:02.109Z</time></trkpt><trkpt lat="44.879775" lon="9.5647883"><ele>174.0</ele><time>2026-04-08T10:33:03.11Z</time></trkpt><trkpt lat="44.8800317" lon="9.5651517"><ele>171.5</ele><time>2026-04-08T10:33:04.109Z</time></trkpt><trkpt lat="44.8803" lon="9.5655117"><ele>169.0</ele><time>2026-04-08T10:33:05.109Z</time></trkpt><trkpt lat="44.8805667" lon="9.5658683"><ele>169.0</ele><time>2026-04-08T10:33:06.11Z</time></trkpt><trkpt lat="44.8808267" lon="9.5662067"><ele>169.0</ele><time>2026-04-08T10:33:07.109Z</time></trkpt><trkpt lat="44.8810533" lon="9.5665267"><ele>169.0</ele><time>2026-04-08T10:33:08.11Z</time></trkpt><trkpt lat="44.8812717" lon="9.5668233"><ele>169.0</ele><time>2026-04-08T10:33:09.11Z</time></trkpt><trkpt lat="44.8814867" lon="9.5671183"><ele>167.5</ele><time>2026-04-08T10:33:10.109Z</time></trkpt><trkpt lat="44.88169" lon="9.567435"><ele>166.0</ele><time>2026-04-08T10:33:11.109Z</time></trkpt><trkpt lat="44.8818667" lon="9.567795"><ele>166.5</ele><time>2026-04-08T10:33:12.11Z</time></trkpt><trkpt lat="44.8820133" lon="9.568195"><ele>167.0</ele><time>2026-04-08T10:33:13.11Z</time></trkpt><trkpt lat="44.8821583" lon="9.5686033"><ele>169.0</ele><time>2026-04-08T10:33:14.11Z</time></trkpt><trkpt lat="44.8822983" lon="9.569025"><ele>171.0</ele><time>2026-04-08T10:33:15.11Z</time></trkpt><trkpt lat="44.8824517" lon="9.5694483"><ele>167.0</ele><time>2026-04-08T10:33:16.11Z</time></trkpt><trkpt lat="44.8826" lon="9.56989"><ele>163.0</ele><time>2026-04-08T10:33:17.11Z</time></trkpt><trkpt lat="44.882745" lon="9.5703367"><ele>164.0</ele><time>2026-04-08T10:33:18.11Z</time></trkpt><trkpt lat="44.8828933" lon="9.5707783"><ele>165.0</ele><time>2026-04-08T10:33:19.11Z</time></trkpt><trkpt lat="44.8830383" lon="9.5712083"><ele>167.0</ele><time>2026-04-08T10:33:20.109Z</time></trkpt><trkpt lat="44.8831767" lon="9.5716083"><ele>169.0</ele><time>2026-04-08T10:33:21.11Z</time></trkpt><trkpt lat="44.8833083" lon="9.5719817"><ele>167.0</ele><time>2026-04-08T10:33:22.109Z</time></trkpt><trkpt lat="44.88343" lon="9.572335"><ele>165.0</ele><time>2026-04-08T10:33:23.11Z</time></trkpt><trkpt lat="44.8835417" lon="9.57266"><ele>166.5</ele><time>2026-04-08T10:33:24.11Z</time></trkpt><trkpt lat="44.8836467" lon="9.5729633"><ele>168.0</ele><time>2026-04-08T10:33:25.11Z</time></trkpt><trkpt lat="44.883745" lon="9.57325"><ele>168.0</ele><time>2026-04-08T10:33:26.11Z</time></trkpt><trkpt lat="44.88383" lon="9.5735317"><ele>168.0</ele><time>2026-04-08T10:33:27.11Z</time></trkpt><trkpt lat="44.8838917" lon="9.5738367"><ele>168.0</ele><time>2026-04-08T10:33:28.11Z</time></trkpt><trkpt lat="44.8838917" lon="9.5741633"><ele>168.0</ele><time>2026-04-08T10:33:29.11Z</time></trkpt><trkpt lat="44.88385" lon="9.5745117"><ele>168.0</ele><time>2026-04-08T10:33:30.109Z</time></trkpt><trkpt lat="44.883815" lon="9.5748583"><ele>167.66666666666666</ele><time>2026-04-08T10:33:31.11Z</time></trkpt><trkpt lat="44.883805" lon="9.575175"><ele>167.33333333333331</ele><time>2026-04-08T10:33:32.11Z</time></trkpt><trkpt lat="44.8838267" lon="9.57546"><ele>167.0</ele><time>2026-04-08T10:33:33.11Z</time></trkpt><trkpt lat="44.8838917" lon="9.5757117"><ele>166.33333333333331</ele><time>2026-04-08T10:33:34.11Z</time></trkpt><trkpt lat="44.8840167" lon="9.5759233"><ele>165.66666666666666</ele><time>2026-04-08T10:33:35.11Z</time></trkpt><trkpt lat="44.8841767" lon="9.5760917"><ele>165.0</ele><time>2026-04-08T10:33:36.11Z</time></trkpt><trkpt lat="44.8843367" lon="9.57622"><ele>165.0</ele><time>2026-04-08T10:33:37.11Z</time></trkpt><trkpt lat="44.88448" lon="9.5763517"><ele>165.0</ele><time>2026-04-08T10:33:38.11Z</time></trkpt><trkpt lat="44.884605" lon="9.5765067"><ele>165.0</ele><time>2026-04-08T10:33:39.11Z</time></trkpt><trkpt lat="44.884685" lon="9.5767233"><ele>165.0</ele><time>2026-04-08T10:33:40.11Z</time></trkpt><trkpt lat="44.8847183" lon="9.577005"><ele>165.0</ele><time>2026-04-08T10:33:41.11Z</time></trkpt><trkpt lat="44.8847483" lon="9.5773233"><ele>165.0</ele><time>2026-04-08T10:33:42.109Z</time></trkpt><trkpt lat="44.8847367" lon="9.5777533"><ele>171.0</ele><time>2026-04-08T10:33:43.11Z</time></trkpt><trkpt lat="44.8847667" lon="9.5781567"><ele>177.0</ele><time>2026-04-08T10:33:44.11Z</time></trkpt><trkpt lat="44.8848267" lon="9.57857"><ele>178.0</ele><time>2026-04-08T10:33:45.11Z</time></trkpt><trkpt lat="44.88489" lon="9.5789817"><ele>179.0</ele><time>2026-04-08T10:33:46.11Z</time></trkpt><trkpt lat="44.8849583" lon="9.5793833"><ele>181.0</ele><time>2026-04-08T10:33:47.109Z</time></trkpt><trkpt lat="44.8850383" lon="9.5797583"><ele>183.0</ele><time>2026-04-08T10:33:48.11Z</time></trkpt><trkpt lat="44.885135" lon="9.5801217"><ele>177.5</ele><time>2026-04-08T10:33:49.11Z</time></trkpt><trkpt lat="44.8852533" lon="9.5804433"><ele>172.0</ele><time>2026-04-08T10:33:50.109Z</time></trkpt><trkpt lat="44.8853517" lon="9.5807533"><ele>172.0</ele><time>2026-04-08T10:33:51.11Z</time></trkpt><trkpt lat="44.88542" lon="9.5810633"><ele>172.0</ele><time>2026-04-08T10:33:52.11Z</time></trkpt><trkpt lat="44.8854617" lon="9.58139"><ele>173.0</ele><time>2026-04-08T10:33:53.11Z</time></trkpt><trkpt lat="44.8855033" lon="9.5817083"><ele>174.0</ele><time>2026-04-08T10:33:54.11Z</time></trkpt><trkpt lat="44.885585" lon="9.582015"><ele>177.0</ele><time>2026-04-08T10:33:55.11Z</time></trkpt><trkpt lat="44.8857" lon="9.5823067"><ele>180.0</ele><time>2026-04-08T10:33:56.11Z</time></trkpt><trkpt lat="44.8858283" lon="9.5825783"><ele>179.66666666666666</ele><time>2026-04-08T10:33:57.11Z</time></trkpt><trkpt lat="44.885955" lon="9.5828217"><ele>179.33333333333331</ele><time>2026-04-08T10:33:58.109Z</time></trkpt><trkpt lat="44.8860667" lon="9.5830517"><ele>179.0</ele><time>2026-04-08T10:33:59.11Z</time></trkpt><trkpt lat="44.886175" lon="9.5832467"><ele>179.0</ele><time>2026-04-08T10:34:00.11Z</time></trkpt><trkpt lat="44.8863033" lon="9.5834"><ele>179.0</ele><time>2026-04-08T10:34:01.11Z</time></trkpt><trkpt lat="44.88647" lon="9.5834667"><ele>179.0</ele><time>2026-04-08T10:34:02.11Z</time></trkpt><trkpt lat="44.8866533" lon="9.583455"><ele>179.33333333333331</ele><time>2026-04-08T10:34:03.11Z</time></trkpt><trkpt lat="44.886825" lon="9.58342"><ele>179.66666666666666</ele><time>2026-04-08T10:34:04.11Z</time></trkpt><trkpt lat="44.8869933" lon="9.5833983"><ele>180.0</ele><time>2026-04-08T10:34:05.11Z</time></trkpt><trkpt lat="44.8871533" lon="9.5834417"><ele>180.0</ele><time>2026-04-08T10:34:06.11Z</time></trkpt><trkpt lat="44.8872917" lon="9.583535"><ele>180.0</ele><time>2026-04-08T10:34:07.109Z</time></trkpt><trkpt lat="44.8874033" lon="9.5836517"><ele>180.0</ele><time>2026-04-08T10:34:08.11Z</time></trkpt><trkpt lat="44.8874867" lon="9.5837733"><ele>180.0</ele><time>2026-04-08T10:34:09.109Z</time></trkpt><trkpt lat="44.88756" lon="9.5838917"><ele>181.0</ele><time>2026-04-08T10:34:10.11Z</time></trkpt><trkpt lat="44.8876367" lon="9.584"><ele>182.0</ele><time>2026-04-08T10:34:11.11Z</time></trkpt><trkpt lat="44.88773" lon="9.5841"><ele>183.0</ele><time>2026-04-08T10:34:12.11Z</time></trkpt><trkpt lat="44.8878617" lon="9.58417"><ele>184.0</ele><time>2026-04-08T10:34:13.11Z</time></trkpt><trkpt lat="44.8880467" lon="9.5841783"><ele>184.0</ele><time>2026-04-08T10:34:14.109Z</time></trkpt><trkpt lat="44.888255" lon="9.5841617"><ele>184.0</ele><time>2026-04-08T10:34:15.11Z</time></trkpt><trkpt lat="44.8884517" lon="9.5841833"><ele>184.0</ele><time>2026-04-08T10:34:16.11Z</time></trkpt><trkpt lat="44.8886467" lon="9.584255"><ele>183.0</ele><time>2026-04-08T10:34:17.11Z</time></trkpt><trkpt lat="44.88884" lon="9.5843433"><ele>182.0</ele><time>2026-04-08T10:34:18.11Z</time></trkpt><trkpt lat="44.8890083" lon="9.5845733"><ele>181.0</ele><time>2026-04-08T10:34:19.11Z</time></trkpt><trkpt lat="44.8891733" lon="9.584845"><ele>181.0</ele><time>2026-04-08T10:34:20.109Z</time></trkpt><trkpt lat="44.889335" lon="9.5851067"><ele>181.0</ele><time>2026-04-08T10:34:21.11Z</time></trkpt><trkpt lat="44.8895017" lon="9.585315"><ele>184.33333333333334</ele><time>2026-04-08T10:34:22.11Z</time></trkpt><trkpt lat="44.889665" lon="9.5854767"><ele>187.66666666666666</ele><time>2026-04-08T10:34:23.11Z</time></trkpt><trkpt lat="44.88984" lon="9.5855933"><ele>191.0</ele><time>2026-04-08T10:34:24.109Z</time></trkpt><trkpt lat="44.8901" lon="9.58555"><ele>191.0</ele><time>2026-04-08T10:34:25.11Z</time></trkpt><trkpt lat="44.8903333" lon="9.5855117"><ele>191.0</ele><time>2026-04-08T10:34:26.11Z</time></trkpt><trkpt lat="44.8905967" lon="9.58548"><ele>191.0</ele><time>2026-04-08T10:34:27.11Z</time></trkpt><trkpt lat="44.8909183" lon="9.5854333"><ele>191.0</ele><time>2026-04-08T10:34:28.11Z</time></trkpt><trkpt lat="44.8912367" lon="9.585415"><ele>191.5</ele><time>2026-04-08T10:34:29.11Z</time></trkpt><trkpt lat="44.8915683" lon="9.58539"><ele>192.0</ele><time>2026-04-08T10:34:30.11Z</time></trkpt><trkpt lat="44.8919033" lon="9.5853933"><ele>192.0</ele><time>2026-04-08T10:34:31.11Z</time></trkpt><trkpt lat="44.8922333" lon="9.5853817"><ele>192.0</ele><time>2026-04-08T10:34:32.11Z</time></trkpt><trkpt lat="44.892565" lon="9.5853667"><ele>190.0</ele><time>2026-04-08T10:34:33.11Z</time></trkpt><trkpt lat="44.8928933" lon="9.5853483"><ele>188.0</ele><time>2026-04-08T10:34:34.109Z</time></trkpt><trkpt lat="44.8932217" lon="9.5853333"><ele>185.5</ele><time>2026-04-08T10:34:35.11Z</time></trkpt><trkpt lat="44.8935617" lon="9.5853367"><ele>183.0</ele><time>2026-04-08T10:34:36.109Z</time></trkpt><trkpt lat="44.8939067" lon="9.585315"><ele>183.0</ele><time>2026-04-08T10:34:37.11Z</time></trkpt><trkpt lat="44.8942367" lon="9.5853083"><ele>183.0</ele><time>2026-04-08T10:34:38.11Z</time></trkpt><trkpt lat="44.89456" lon="9.5852817"><ele>183.0</ele><time>2026-04-08T10:34:39.11Z</time></trkpt><trkpt lat="44.8948667" lon="9.5852667"><ele>183.0</ele><time>2026-04-08T10:34:40.11Z</time></trkpt><trkpt lat="44.8951667" lon="9.58527"><ele>181.5</ele><time>2026-04-08T10:34:41.11Z</time></trkpt><trkpt lat="44.8954383" lon="9.5851967"><ele>180.0</ele><time>2026-04-08T10:34:42.109Z</time></trkpt><trkpt lat="44.89569" lon="9.5851633"><ele>180.0</ele><time>2026-04-08T10:34:43.11Z</time></trkpt><trkpt lat="44.8959167" lon="9.585125"><ele>180.0</ele><time>2026-04-08T10:34:44.11Z</time></trkpt><trkpt lat="44.8961533" lon="9.585175"><ele>176.5</ele><time>2026-04-08T10:34:45.109Z</time></trkpt><trkpt lat="44.8964033" lon="9.5852417"><ele>173.0</ele><time>2026-04-08T10:34:46.11Z</time></trkpt><trkpt lat="44.89665" lon="9.5853467"><ele>176.0</ele><time>2026-04-08T10:34:47.109Z</time></trkpt><trkpt lat="44.8968917" lon="9.5854667"><ele>179.0</ele><time>2026-04-08T10:34:48.11Z</time></trkpt><trkpt lat="44.8971133" lon="9.585605"><ele>179.0</ele><time>2026-04-08T10:34:49.11Z</time></trkpt><trkpt lat="44.89732" lon="9.5857367"><ele>179.0</ele><time>2026-04-08T10:34:50.11Z</time></trkpt><trkpt lat="44.8975167" lon="9.58585"><ele>179.0</ele><time>2026-04-08T10:34:51.11Z</time></trkpt><trkpt lat="44.8977117" lon="9.5859283"><ele>177.33333333333331</ele><time>2026-04-08T10:34:52.11Z</time></trkpt><trkpt lat="44.8979117" lon="9.5859633"><ele>175.66666666666666</ele><time>2026-04-08T10:34:53.11Z</time></trkpt><trkpt lat="44.8981183" lon="9.5859233"><ele>174.0</ele><time>2026-04-08T10:34:54.11Z</time></trkpt><trkpt lat="44.89831" lon="9.5858183"><ele>172.33333333333334</ele><time>2026-04-08T10:34:55.11Z</time></trkpt><trkpt lat="44.8985067" lon="9.5857517"><ele>170.66666666666669</ele><time>2026-04-08T10:34:56.11Z</time></trkpt><trkpt lat="44.89872" lon="9.5857117"><ele>169.0</ele><time>2026-04-08T10:34:57.11Z</time></trkpt><trkpt lat="44.89895" lon="9.5857083"><ele>169.0</ele><time>2026-04-08T10:34:58.11Z</time></trkpt><trkpt lat="44.8992083" lon="9.5857533"><ele>169.0</ele><time>2026-04-08T10:34:59.11Z</time></trkpt><trkpt lat="44.8995033" lon="9.5858417"><ele>166.0</ele><time>2026-04-08T10:35:00.109Z</time></trkpt><trkpt lat="44.8997983" lon="9.5859867"><ele>163.0</ele><time>2026-04-08T10:35:01.11Z</time></trkpt><trkpt lat="44.9000817" lon="9.5860833"><ele>164.5</ele><time>2026-04-08T10:35:02.11Z</time></trkpt><trkpt lat="44.9003567" lon="9.5861483"><ele>166.0</ele><time>2026-04-08T10:35:03.11Z</time></trkpt><trkpt lat="44.9006017" lon="9.5862767"><ele>166.0</ele><time>2026-04-08T10:35:04.11Z</time></trkpt><trkpt lat="44.90085" lon="9.58641"><ele>166.0</ele><time>2026-04-08T10:35:05.109Z</time></trkpt><trkpt lat="44.9010917" lon="9.586565"><ele>162.5</ele><time>2026-04-08T10:35:06.11Z</time></trkpt><trkpt lat="44.90132" lon="9.5867467"><ele>159.0</ele><time>2026-04-08T10:35:07.11Z</time></trkpt><trkpt lat="44.9015417" lon="9.586935"><ele>159.0</ele><time>2026-04-08T10:35:08.109Z</time></trkpt><trkpt lat="44.901745" lon="9.587105"><ele>159.0</ele><time>2026-04-08T10:35:09.109Z</time></trkpt><trkpt lat="44.9019267" lon="9.5872567"><ele>159.0</ele><time>2026-04-08T10:35:10.11Z</time></trkpt><trkpt lat="44.9020883" lon="9.5873817"><ele>159.0</ele><time>2026-04-08T10:35:11.11Z</time></trkpt><trkpt lat="44.9022217" lon="9.5874933"><ele>159.0</ele><time>2026-04-08T10:35:12.11Z</time></trkpt><trkpt lat="44.90233" lon="9.5875667"><ele>159.0</ele><time>2026-04-08T10:35:13.11Z</time></trkpt><trkpt lat="44.9024017" lon="9.587615"><ele>159.0</ele><time>2026-04-08T10:35:14.11Z</time></trkpt><trkpt lat="44.9024583" lon="9.58766"><ele>159.0</ele><time>2026-04-08T10:35:15.11Z</time></trkpt><trkpt lat="44.90255" lon="9.5876117"><ele>159.0</ele><time>2026-04-08T10:35:17.11Z</time></trkpt><trkpt lat="44.9025467" lon="9.5875067"><ele>159.0</ele><time>2026-04-08T10:35:18.109Z</time></trkpt><trkpt lat="44.9024933" lon="9.5873733"><ele>159.0</ele><time>2026-04-08T10:35:19.11Z</time></trkpt><trkpt lat="44.9024117" lon="9.5872333"><ele>159.0</ele><time>2026-04-08T10:35:20.11Z</time></trkpt><trkpt lat="44.902285" lon="9.5870717"><ele>154.5</ele><time>2026-04-08T10:35:21.109Z</time></trkpt><trkpt lat="44.9020483" lon="9.5868917"><ele>150.0</ele><time>2026-04-08T10:35:22.109Z</time></trkpt><trkpt lat="44.9018217" lon="9.5866883"><ele>147.5</ele><time>2026-04-08T10:35:23.108Z</time></trkpt><trkpt lat="44.901575" lon="9.586435"><ele>145.0</ele><time>2026-04-08T10:35:24.109Z</time></trkpt><trkpt lat="44.9013633" lon="9.5861583"><ele>145.0</ele><time>2026-04-08T10:35:25.109Z</time></trkpt><trkpt lat="44.9011717" lon="9.5858383"><ele>145.0</ele><time>2026-04-08T10:35:26.109Z</time></trkpt><trkpt lat="44.9009883" lon="9.5855117"><ele>146.5</ele><time>2026-04-08T10:35:27.109Z</time></trkpt><trkpt lat="44.900805" lon="9.5851817"><ele>148.0</ele><time>2026-04-08T10:35:28.109Z</time></trkpt><trkpt lat="44.90064" lon="9.5848583"><ele>148.0</ele><time>2026-04-08T10:35:29.109Z</time></trkpt><trkpt lat="44.9005017" lon="9.5845433"><ele>148.0</ele><time>2026-04-08T10:35:30.109Z</time></trkpt><trkpt lat="44.9003867" lon="9.584225"><ele>147.0</ele><time>2026-04-08T10:35:31.109Z</time></trkpt><trkpt lat="44.900295" lon="9.583915"><ele>146.0</ele><time>2026-04-08T10:35:32.109Z</time></trkpt><trkpt lat="44.9002333" lon="9.5835983"><ele>144.0</ele><time>2026-04-08T10:35:33.108Z</time></trkpt><trkpt lat="44.900205" lon="9.5832767"><ele>142.0</ele><time>2026-04-08T10:35:34.108Z</time></trkpt><trkpt lat="44.9002217" lon="9.5829233"><ele>138.5</ele><time>2026-04-08T10:35:35.109Z</time></trkpt><trkpt lat="44.9002583" lon="9.5825417"><ele>135.0</ele><time>2026-04-08T10:35:36.108Z</time></trkpt><trkpt lat="44.9003033" lon="9.58214"><ele>135.0</ele><time>2026-04-08T10:35:37.108Z</time></trkpt><trkpt lat="44.9003467" lon="9.5817383"><ele>135.0</ele><time>2026-04-08T10:35:38.109Z</time></trkpt><trkpt lat="44.900385" lon="9.581375"><ele>137.66666666666666</ele><time>2026-04-08T10:35:39.109Z</time></trkpt><trkpt lat="44.9004167" lon="9.581075"><ele>140.33333333333331</ele><time>2026-04-08T10:35:40.109Z</time></trkpt><trkpt lat="44.900435" lon="9.5808367"><ele>143.0</ele><time>2026-04-08T10:35:41.109Z</time></trkpt><trkpt lat="44.90045" lon="9.580645"><ele>143.0</ele><time>2026-04-08T10:35:42.109Z</time></trkpt><trkpt lat="44.900455" lon="9.5804683"><ele>143.0</ele><time>2026-04-08T10:35:43.109Z</time></trkpt><trkpt lat="44.9003933" lon="9.5803133"><ele>143.0</ele><time>2026-04-08T10:35:44.109Z</time></trkpt><trkpt lat="44.9002833" lon="9.5801917"><ele>143.0</ele><time>2026-04-08T10:35:45.108Z</time></trkpt><trkpt lat="44.9001367" lon="9.5800883"><ele>149.0</ele><time>2026-04-08T10:35:46.108Z</time></trkpt><trkpt lat="44.8999383" lon="9.5800083"><ele>155.0</ele><time>2026-04-08T10:35:47.109Z</time></trkpt><trkpt lat="44.899665" lon="9.579915"><ele>155.0</ele><time>2026-04-08T10:35:48.109Z</time></trkpt><trkpt lat="44.89939" lon="9.579765"><ele>155.0</ele><time>2026-04-08T10:35:49.109Z</time></trkpt><trkpt lat="44.8991267" lon="9.5795967"><ele>158.0</ele><time>2026-04-08T10:35:50.109Z</time></trkpt><trkpt lat="44.89888" lon="9.5794133"><ele>161.0</ele><time>2026-04-08T10:35:51.108Z</time></trkpt><trkpt lat="44.8986533" lon="9.5792333"><ele>161.0</ele><time>2026-04-08T10:35:52.109Z</time></trkpt><trkpt lat="44.8984383" lon="9.5790483"><ele>161.0</ele><time>2026-04-08T10:35:53.108Z</time></trkpt><trkpt lat="44.8982383" lon="9.5788233"><ele>162.0</ele><time>2026-04-08T10:35:54.109Z</time></trkpt><trkpt lat="44.8980383" lon="9.578575"><ele>163.0</ele><time>2026-04-08T10:35:55.109Z</time></trkpt><trkpt lat="44.8978433" lon="9.578315"><ele>163.0</ele><time>2026-04-08T10:35:56.109Z</time></trkpt><trkpt lat="44.8976617" lon="9.57806"><ele>163.0</ele><time>2026-04-08T10:35:57.109Z</time></trkpt><trkpt lat="44.8975117" lon="9.5778283"><ele>163.75</ele><time>2026-04-08T10:35:58.109Z</time></trkpt><trkpt lat="44.897385" lon="9.5776317"><ele>164.5</ele><time>2026-04-08T10:35:59.109Z</time></trkpt><trkpt lat="44.8972967" lon="9.5774883"><ele>165.25</ele><time>2026-04-08T10:36:00.109Z</time></trkpt><trkpt lat="44.8972433" lon="9.5774033"><ele>166.0</ele><time>2026-04-08T10:36:01.109Z</time></trkpt><trkpt lat="44.89721" lon="9.577325"><ele>166.0</ele><time>2026-04-08T10:36:02.109Z</time></trkpt><trkpt lat="44.8972883" lon="9.577235"><ele>166.0</ele><time>2026-04-08T10:36:04.109Z</time></trkpt><trkpt lat="44.897395" lon="9.57728"><ele>166.0</ele><time>2026-04-08T10:36:05.109Z</time></trkpt><trkpt lat="44.8975333" lon="9.577355"><ele>166.0</ele><time>2026-04-08T10:36:06.109Z</time></trkpt><trkpt lat="44.8977" lon="9.5774533"><ele>165.0</ele><time>2026-04-08T10:36:07.109Z</time></trkpt><trkpt lat="44.897875" lon="9.5775767"><ele>164.0</ele><time>2026-04-08T10:36:08.108Z</time></trkpt><trkpt lat="44.89805" lon="9.5777417"><ele>163.0</ele><time>2026-04-08T10:36:09.109Z</time></trkpt><trkpt lat="44.8982217" lon="9.5779483"><ele>163.0</ele><time>2026-04-08T10:36:10.109Z</time></trkpt><trkpt lat="44.8984133" lon="9.5781583"><ele>163.0</ele><time>2026-04-08T10:36:11.109Z</time></trkpt><trkpt lat="44.8986167" lon="9.578335"><ele>166.0</ele><time>2026-04-08T10:36:12.109Z</time></trkpt><trkpt lat="44.8988533" lon="9.5784683"><ele>169.0</ele><time>2026-04-08T10:36:13.109Z</time></trkpt><trkpt lat="44.8990867" lon="9.5785883"><ele>168.0</ele><time>2026-04-08T10:36:14.108Z</time></trkpt><trkpt lat="44.8993" lon="9.5786917"><ele>167.0</ele><time>2026-04-08T10:36:15.109Z</time></trkpt><trkpt lat="44.8995" lon="9.57878"><ele>166.0</ele><time>2026-04-08T10:36:16.109Z</time></trkpt><trkpt lat="44.8996967" lon="9.5787967"><ele>166.0</ele><time>2026-04-08T10:36:17.109Z</time></trkpt><trkpt lat="44.89988" lon="9.578795"><ele>166.0</ele><time>2026-04-08T10:36:18.108Z</time></trkpt><trkpt lat="44.9000583" lon="9.5788267"><ele>166.0</ele><time>2026-04-08T10:36:19.109Z</time></trkpt><trkpt lat="44.9002417" lon="9.5789117"><ele>166.5</ele><time>2026-04-08T10:36:20.109Z</time></trkpt><trkpt lat="44.9005467" lon="9.5790917"><ele>167.0</ele><time>2026-04-08T10:36:22.109Z</time></trkpt><trkpt lat="44.900685" lon="9.5791167"><ele>167.0</ele><time>2026-04-08T10:36:23.108Z</time></trkpt><trkpt lat="44.9008367" lon="9.5790933"><ele>167.0</ele><time>2026-04-08T10:36:24.109Z</time></trkpt><trkpt lat="44.9009967" lon="9.5789767"><ele>167.0</ele><time>2026-04-08T10:36:25.109Z</time></trkpt><trkpt lat="44.9011433" lon="9.5787683"><ele>169.0</ele><time>2026-04-08T10:36:26.109Z</time></trkpt><trkpt lat="44.901315" lon="9.578575"><ele>171.0</ele><time>2026-04-08T10:36:27.108Z</time></trkpt><trkpt lat="44.901515" lon="9.5784167"><ele>173.0</ele><time>2026-04-08T10:36:28.108Z</time></trkpt><trkpt lat="44.9017233" lon="9.578315"><ele>172.66666666666666</ele><time>2026-04-08T10:36:29.109Z</time></trkpt><trkpt lat="44.9019317" lon="9.578285"><ele>172.33333333333334</ele><time>2026-04-08T10:36:30.109Z</time></trkpt><trkpt lat="44.9021433" lon="9.5783067"><ele>172.0</ele><time>2026-04-08T10:36:31.109Z</time></trkpt><trkpt lat="44.90237" lon="9.578355"><ele>172.5</ele><time>2026-04-08T10:36:32.109Z</time></trkpt><trkpt lat="44.9026067" lon="9.578435"><ele>173.0</ele><time>2026-04-08T10:36:33.109Z</time></trkpt><trkpt lat="44.902845" lon="9.5785383"><ele>173.0</ele><time>2026-04-08T10:36:34.108Z</time></trkpt><trkpt lat="44.9030867" lon="9.5786517"><ele>173.0</ele><time>2026-04-08T10:36:35.109Z</time></trkpt><trkpt lat="44.903325" lon="9.5787817"><ele>173.5</ele><time>2026-04-08T10:36:36.108Z</time></trkpt><trkpt lat="44.9035617" lon="9.5789233"><ele>174.0</ele><time>2026-04-08T10:36:37.108Z</time></trkpt><trkpt lat="44.9038017" lon="9.5790567"><ele>174.0</ele><time>2026-04-08T10:36:38.109Z</time></trkpt><trkpt lat="44.9040283" lon="9.5792233"><ele>174.0</ele><time>2026-04-08T10:36:39.109Z</time></trkpt><trkpt lat="44.90424" lon="9.579395"><ele>172.5</ele><time>2026-04-08T10:36:40.109Z</time></trkpt><trkpt lat="44.904455" lon="9.5795383"><ele>171.0</ele><time>2026-04-08T10:36:41.109Z</time></trkpt><trkpt lat="44.9046667" lon="9.5796667"><ele>171.0</ele><time>2026-04-08T10:36:42.109Z</time></trkpt><trkpt lat="44.9048883" lon="9.5797683"><ele>171.0</ele><time>2026-04-08T10:36:43.109Z</time></trkpt><trkpt lat="44.90513" lon="9.5798383"><ele>173.0</ele><time>2026-04-08T10:36:44.108Z</time></trkpt><trkpt lat="44.9053767" lon="9.5799167"><ele>175.0</ele><time>2026-04-08T10:36:45.109Z</time></trkpt><trkpt lat="44.905625" lon="9.5800033"><ele>175.0</ele><time>2026-04-08T10:36:46.109Z</time></trkpt><trkpt lat="44.9058867" lon="9.5800933"><ele>175.0</ele><time>2026-04-08T10:36:47.109Z</time></trkpt><trkpt lat="44.9061333" lon="9.58017"><ele>178.0</ele><time>2026-04-08T10:36:48.109Z</time></trkpt><trkpt lat="44.90636" lon="9.580245"><ele>181.0</ele><time>2026-04-08T10:36:49.109Z</time></trkpt><trkpt lat="44.9065733" lon="9.580325"><ele>180.66666666666669</ele><time>2026-04-08T10:36:50.109Z</time></trkpt><trkpt lat="44.9067833" lon="9.5804083"><ele>180.33333333333334</ele><time>2026-04-08T10:36:51.109Z</time></trkpt><trkpt lat="44.9069783" lon="9.5804917"><ele>180.0</ele><time>2026-04-08T10:36:52.109Z</time></trkpt><trkpt lat="44.9071567" lon="9.580585"><ele>180.0</ele><time>2026-04-08T10:36:53.108Z</time></trkpt><trkpt lat="44.9073333" lon="9.5806517"><ele>180.0</ele><time>2026-04-08T10:36:54.109Z</time></trkpt><trkpt lat="44.90751" lon="9.5806883"><ele>180.0</ele><time>2026-04-08T10:36:55.109Z</time></trkpt><trkpt lat="44.907675" lon="9.58075"><ele>182.0</ele><time>2026-04-08T10:36:56.109Z</time></trkpt><trkpt lat="44.907845" lon="9.5808633"><ele>184.0</ele><time>2026-04-08T10:36:57.108Z</time></trkpt><trkpt lat="44.90801" lon="9.5810167"><ele>186.0</ele><time>2026-04-08T10:36:58.109Z</time></trkpt><trkpt lat="44.90816" lon="9.5811783"><ele>185.33333333333334</ele><time>2026-04-08T10:36:59.108Z</time></trkpt><trkpt lat="44.9082883" lon="9.581345"><ele>184.66666666666669</ele><time>2026-04-08T10:37:00.109Z</time></trkpt><trkpt lat="44.9083883" lon="9.5815267"><ele>184.0</ele><time>2026-04-08T10:37:01.109Z</time></trkpt><trkpt lat="44.9084667" lon="9.5817367"><ele>184.0</ele><time>2026-04-08T10:37:02.109Z</time></trkpt><trkpt lat="44.9085383" lon="9.5819683"><ele>184.0</ele><time>2026-04-08T10:37:03.109Z</time></trkpt><trkpt lat="44.9086133" lon="9.5822083"><ele>184.0</ele><time>2026-04-08T10:37:04.109Z</time></trkpt><trkpt lat="44.9086917" lon="9.5824467"><ele>184.0</ele><time>2026-04-08T10:37:05.109Z</time></trkpt><trkpt lat="44.908765" lon="9.582675"><ele>184.0</ele><time>2026-04-08T10:37:06.109Z</time></trkpt><trkpt lat="44.9088267" lon="9.58289"><ele>184.0</ele><time>2026-04-08T10:37:07.109Z</time></trkpt><trkpt lat="44.9088883" lon="9.583065"><ele>182.5</ele><time>2026-04-08T10:37:08.109Z</time></trkpt><trkpt lat="44.90896" lon="9.583215"><ele>181.0</ele><time>2026-04-08T10:37:09.109Z</time></trkpt><trkpt lat="44.9090767" lon="9.583335"><ele>179.5</ele><time>2026-04-08T10:37:10.108Z</time></trkpt><trkpt lat="44.909225" lon="9.5834367"><ele>178.0</ele><time>2026-04-08T10:37:11.109Z</time></trkpt><trkpt lat="44.9094167" lon="9.58352"><ele>176.0</ele><time>2026-04-08T10:37:12.109Z</time></trkpt><trkpt lat="44.9096417" lon="9.5835933"><ele>174.0</ele><time>2026-04-08T10:37:13.109Z</time></trkpt><trkpt lat="44.9099267" lon="9.583635"><ele>171.5</ele><time>2026-04-08T10:37:14.109Z</time></trkpt><trkpt lat="44.9102167" lon="9.5836567"><ele>169.0</ele><time>2026-04-08T10:37:15.109Z</time></trkpt><trkpt lat="44.91049" lon="9.5836633"><ele>169.0</ele><time>2026-04-08T10:37:16.109Z</time></trkpt><trkpt lat="44.9107233" lon="9.5836733"><ele>169.0</ele><time>2026-04-08T10:37:17.108Z</time></trkpt><trkpt lat="44.9109383" lon="9.5836833"><ele>169.0</ele><time>2026-04-08T10:37:18.109Z</time></trkpt><trkpt lat="44.91113" lon="9.5837267"><ele>167.33333333333334</ele><time>2026-04-08T10:37:19.109Z</time></trkpt><trkpt lat="44.9113167" lon="9.5837767"><ele>165.66666666666666</ele><time>2026-04-08T10:37:20.109Z</time></trkpt><trkpt lat="44.9114883" lon="9.5838317"><ele>164.0</ele><time>2026-04-08T10:37:21.109Z</time></trkpt><trkpt lat="44.9116433" lon="9.58392"><ele>163.33333333333331</ele><time>2026-04-08T10:37:22.109Z</time></trkpt><trkpt lat="44.911785" lon="9.5840467"><ele>162.66666666666666</ele><time>2026-04-08T10:37:23.109Z</time></trkpt><trkpt lat="44.911945" lon="9.58414"><ele>162.0</ele><time>2026-04-08T10:37:24.109Z</time></trkpt><trkpt lat="44.91213" lon="9.5841833"><ele>162.0</ele><time>2026-04-08T10:37:25.108Z</time></trkpt><trkpt lat="44.9123233" lon="9.58417"><ele>162.0</ele><time>2026-04-08T10:37:26.109Z</time></trkpt><trkpt lat="44.9125133" lon="9.5841183"><ele>162.0</ele><time>2026-04-08T10:37:27.109Z</time></trkpt><trkpt lat="44.912685" lon="9.5840383"><ele>158.66666666666666</ele><time>2026-04-08T10:37:28.109Z</time></trkpt><trkpt lat="44.9128333" lon="9.5839433"><ele>155.33333333333331</ele><time>2026-04-08T10:37:29.109Z</time></trkpt><trkpt lat="44.9129667" lon="9.58383"><ele>152.0</ele><time>2026-04-08T10:37:30.108Z</time></trkpt><trkpt lat="44.913095" lon="9.58371"><ele>154.0</ele><time>2026-04-08T10:37:31.108Z</time></trkpt><trkpt lat="44.9132267" lon="9.5836033"><ele>156.0</ele><time>2026-04-08T10:37:32.109Z</time></trkpt><trkpt lat="44.913375" lon="9.583515"><ele>158.0</ele><time>2026-04-08T10:37:33.108Z</time></trkpt><trkpt lat="44.9135183" lon="9.5834367"><ele>158.0</ele><time>2026-04-08T10:37:34.109Z</time></trkpt><trkpt lat="44.9136583" lon="9.583365"><ele>158.0</ele><time>2026-04-08T10:37:35.109Z</time></trkpt><trkpt lat="44.9137967" lon="9.58333"><ele>158.0</ele><time>2026-04-08T10:37:36.109Z</time></trkpt><trkpt lat="44.9139417" lon="9.5833583"><ele>158.0</ele><time>2026-04-08T10:37:37.109Z</time></trkpt><trkpt lat="44.9140883" lon="9.5834633"><ele>158.0</ele><time>2026-04-08T10:37:38.109Z</time></trkpt><trkpt lat="44.914235" lon="9.5835717"><ele>158.0</ele><time>2026-04-08T10:37:39.108Z</time></trkpt><trkpt lat="44.9143967" lon="9.5836383"><ele>158.0</ele><time>2026-04-08T10:37:40.109Z</time></trkpt><trkpt lat="44.9145733" lon="9.5836567"><ele>155.5</ele><time>2026-04-08T10:37:41.109Z</time></trkpt><trkpt lat="44.914775" lon="9.583605"><ele>153.0</ele><time>2026-04-08T10:37:42.109Z</time></trkpt><trkpt lat="44.915015" lon="9.5835183"><ele>149.5</ele><time>2026-04-08T10:37:43.109Z</time></trkpt><trkpt lat="44.91529" lon="9.5834167"><ele>146.0</ele><time>2026-04-08T10:37:44.109Z</time></trkpt><trkpt lat="44.9155867" lon="9.5832933"><ele>146.0</ele><time>2026-04-08T10:37:45.109Z</time></trkpt><trkpt lat="44.915875" lon="9.58316"><ele>146.0</ele><time>2026-04-08T10:37:46.108Z</time></trkpt><trkpt lat="44.916135" lon="9.58302"><ele>144.0</ele><time>2026-04-08T10:37:47.109Z</time></trkpt><trkpt lat="44.9163617" lon="9.58286"><ele>142.0</ele><time>2026-04-08T10:37:48.109Z</time></trkpt><trkpt lat="44.9165583" lon="9.5826933"><ele>145.0</ele><time>2026-04-08T10:37:49.109Z</time></trkpt><trkpt lat="44.9167317" lon="9.582555"><ele>148.0</ele><time>2026-04-08T10:37:50.109Z</time></trkpt><trkpt lat="44.9169017" lon="9.582475"><ele>151.0</ele><time>2026-04-08T10:37:51.109Z</time></trkpt><trkpt lat="44.9170833" lon="9.5824617"><ele>151.0</ele><time>2026-04-08T10:37:52.108Z</time></trkpt><trkpt lat="44.9172933" lon="9.582495"><ele>151.0</ele><time>2026-04-08T10:37:53.109Z</time></trkpt><trkpt lat="44.9175333" lon="9.582565"><ele>152.0</ele><time>2026-04-08T10:37:54.109Z</time></trkpt><trkpt lat="44.9177933" lon="9.5826567"><ele>153.0</ele><time>2026-04-08T10:37:55.109Z</time></trkpt><trkpt lat="44.918065" lon="9.5827733"><ele>153.0</ele><time>2026-04-08T10:37:56.108Z</time></trkpt><trkpt lat="44.918345" lon="9.5829033"><ele>153.0</ele><time>2026-04-08T10:37:57.109Z</time></trkpt><trkpt lat="44.9186367" lon="9.5830367"><ele>153.0</ele><time>2026-04-08T10:37:58.109Z</time></trkpt><trkpt lat="44.9189183" lon="9.583145"><ele>153.0</ele><time>2026-04-08T10:37:59.109Z</time></trkpt><trkpt lat="44.919185" lon="9.5832367"><ele>152.0</ele><time>2026-04-08T10:38:00.109Z</time></trkpt><trkpt lat="44.9194483" lon="9.58331"><ele>151.0</ele><time>2026-04-08T10:38:01.109Z</time></trkpt><trkpt lat="44.9197167" lon="9.583345"><ele>151.0</ele><time>2026-04-08T10:38:02.109Z</time></trkpt><trkpt lat="44.9200067" lon="9.583295"><ele>151.0</ele><time>2026-04-08T10:38:03.109Z</time></trkpt><trkpt lat="44.920325" lon="9.5831617"><ele>150.0</ele><time>2026-04-08T10:38:04.109Z</time></trkpt><trkpt lat="44.920665" lon="9.5830367"><ele>149.0</ele><time>2026-04-08T10:38:05.109Z</time></trkpt><trkpt lat="44.921005" lon="9.582935"><ele>151.0</ele><time>2026-04-08T10:38:06.109Z</time></trkpt><trkpt lat="44.9213267" lon="9.58284"><ele>153.0</ele><time>2026-04-08T10:38:07.108Z</time></trkpt><trkpt lat="44.9216333" lon="9.582745"><ele>154.0</ele><time>2026-04-08T10:38:08.109Z</time></trkpt><trkpt lat="44.9219067" lon="9.58267"><ele>155.0</ele><time>2026-04-08T10:38:09.109Z</time></trkpt><trkpt lat="44.92217" lon="9.582625"><ele>155.0</ele><time>2026-04-08T10:38:10.109Z</time></trkpt><trkpt lat="44.9224333" lon="9.582635"><ele>155.0</ele><time>2026-04-08T10:38:11.108Z</time></trkpt><trkpt lat="44.9227017" lon="9.5826783"><ele>154.5</ele><time>2026-04-08T10:38:12.108Z</time></trkpt><trkpt lat="44.92297" lon="9.58275"><ele>154.0</ele><time>2026-04-08T10:38:13.109Z</time></trkpt><trkpt lat="44.9232333" lon="9.5828283"><ele>150.5</ele><time>2026-04-08T10:38:14.109Z</time></trkpt><trkpt lat="44.923495" lon="9.5828933"><ele>147.0</ele><time>2026-04-08T10:38:15.108Z</time></trkpt><trkpt lat="44.9237633" lon="9.5830017"><ele>147.0</ele><time>2026-04-08T10:38:16.109Z</time></trkpt><trkpt lat="44.9240167" lon="9.5831333"><ele>147.0</ele><time>2026-04-08T10:38:17.109Z</time></trkpt><trkpt lat="44.9242483" lon="9.58328"><ele>144.0</ele><time>2026-04-08T10:38:18.108Z</time></trkpt><trkpt lat="44.92447" lon="9.5834267"><ele>141.0</ele><time>2026-04-08T10:38:19.109Z</time></trkpt><trkpt lat="44.9246917" lon="9.5835733"><ele>139.5</ele><time>2026-04-08T10:38:20.109Z</time></trkpt><trkpt lat="44.9249183" lon="9.5837117"><ele>138.0</ele><time>2026-04-08T10:38:21.109Z</time></trkpt><trkpt lat="44.9251467" lon="9.5838517"><ele>137.5</ele><time>2026-04-08T10:38:22.108Z</time></trkpt><trkpt lat="44.9253767" lon="9.5840083"><ele>137.0</ele><time>2026-04-08T10:38:23.109Z</time></trkpt><trkpt lat="44.925615" lon="9.5841567"><ele>137.0</ele><time>2026-04-08T10:38:24.109Z</time></trkpt><trkpt lat="44.9258583" lon="9.58431"><ele>137.0</ele><time>2026-04-08T10:38:25.109Z</time></trkpt><trkpt lat="44.9261017" lon="9.5844633"><ele>135.5</ele><time>2026-04-08T10:38:26.109Z</time></trkpt><trkpt lat="44.9263483" lon="9.5846167"><ele>134.0</ele><time>2026-04-08T10:38:27.109Z</time></trkpt><trkpt lat="44.926595" lon="9.5847717"><ele>134.0</ele><time>2026-04-08T10:38:28.109Z</time></trkpt><trkpt lat="44.9268367" lon="9.5849317"><ele>134.0</ele><time>2026-04-08T10:38:29.109Z</time></trkpt><trkpt lat="44.9270883" lon="9.5850833"><ele>134.0</ele><time>2026-04-08T10:38:30.109Z</time></trkpt><trkpt lat="44.9273367" lon="9.5852283"><ele>134.0</ele><time>2026-04-08T10:38:31.109Z</time></trkpt><trkpt lat="44.927585" lon="9.5853733"><ele>134.5</ele><time>2026-04-08T10:38:32.109Z</time></trkpt><trkpt lat="44.92783" lon="9.58553"><ele>135.0</ele><time>2026-04-08T10:38:33.109Z</time></trkpt><trkpt lat="44.9280767" lon="9.5856917"><ele>135.0</ele><time>2026-04-08T10:38:34.109Z</time></trkpt><trkpt lat="44.9283267" lon="9.5858483"><ele>135.0</ele><time>2026-04-08T10:38:35.109Z</time></trkpt><trkpt lat="44.92858" lon="9.5860017"><ele>135.0</ele><time>2026-04-08T10:38:36.108Z</time></trkpt><trkpt lat="44.92883" lon="9.58616"><ele>135.0</ele><time>2026-04-08T10:38:37.109Z</time></trkpt><trkpt lat="44.9290883" lon="9.58632"><ele>135.0</ele><time>2026-04-08T10:38:38.109Z</time></trkpt><trkpt lat="44.92936" lon="9.5864833"><ele>135.0</ele><time>2026-04-08T10:38:39.109Z</time></trkpt><trkpt lat="44.929645" lon="9.5866567"><ele>135.0</ele><time>2026-04-08T10:38:40.109Z</time></trkpt><trkpt lat="44.9299383" lon="9.58684"><ele>135.0</ele><time>2026-04-08T10:38:41.109Z</time></trkpt><trkpt lat="44.9302383" lon="9.5870233"><ele>136.5</ele><time>2026-04-08T10:38:42.109Z</time></trkpt><trkpt lat="44.9305333" lon="9.5872083"><ele>138.0</ele><time>2026-04-08T10:38:43.109Z</time></trkpt><trkpt lat="44.9308183" lon="9.587385"><ele>143.0</ele><time>2026-04-08T10:38:44.108Z</time></trkpt><trkpt lat="44.9311" lon="9.5875567"><ele>148.0</ele><time>2026-04-08T10:38:45.108Z</time></trkpt><trkpt lat="44.9313783" lon="9.5877383"><ele>146.0</ele><time>2026-04-08T10:38:46.109Z</time></trkpt><trkpt lat="44.9316683" lon="9.5879167"><ele>144.0</ele><time>2026-04-08T10:38:47.108Z</time></trkpt><trkpt lat="44.931965" lon="9.5881"><ele>144.0</ele><time>2026-04-08T10:38:48.109Z</time></trkpt><trkpt lat="44.9322617" lon="9.5882933"><ele>144.0</ele><time>2026-04-08T10:38:49.108Z</time></trkpt><trkpt lat="44.932555" lon="9.5885"><ele>141.0</ele><time>2026-04-08T10:38:50.109Z</time></trkpt><trkpt lat="44.9328567" lon="9.5887"><ele>138.0</ele><time>2026-04-08T10:38:51.109Z</time></trkpt><trkpt lat="44.9331567" lon="9.5889017"><ele>143.5</ele><time>2026-04-08T10:38:52.109Z</time></trkpt><trkpt lat="44.9334683" lon="9.5890783"><ele>149.0</ele><time>2026-04-08T10:38:53.108Z</time></trkpt><trkpt lat="44.9337833" lon="9.5892617"><ele>149.0</ele><time>2026-04-08T10:38:54.108Z</time></trkpt><trkpt lat="44.9340983" lon="9.589445"><ele>149.0</ele><time>2026-04-08T10:38:55.109Z</time></trkpt><trkpt lat="44.9344067" lon="9.5896333"><ele>143.0</ele><time>2026-04-08T10:38:56.109Z</time></trkpt><trkpt lat="44.9347167" lon="9.5898183"><ele>137.0</ele><time>2026-04-08T10:38:57.109Z</time></trkpt><trkpt lat="44.935025" lon="9.5900133"><ele>135.0</ele><time>2026-04-08T10:38:58.109Z</time></trkpt><trkpt lat="44.935335" lon="9.5902083"><ele>133.0</ele><time>2026-04-08T10:38:59.109Z</time></trkpt><trkpt lat="44.9356467" lon="9.5904067"><ele>137.5</ele><time>2026-04-08T10:39:00.109Z</time></trkpt><trkpt lat="44.935945" lon="9.590595"><ele>142.0</ele><time>2026-04-08T10:39:01.109Z</time></trkpt><trkpt lat="44.9362233" lon="9.5907683"><ele>142.0</ele><time>2026-04-08T10:39:02.109Z</time></trkpt><trkpt lat="44.9364767" lon="9.5909167"><ele>142.0</ele><time>2026-04-08T10:39:03.109Z</time></trkpt><trkpt lat="44.936725" lon="9.5910167"><ele>141.5</ele><time>2026-04-08T10:39:04.109Z</time></trkpt><trkpt lat="44.9369917" lon="9.59106"><ele>141.0</ele><time>2026-04-08T10:39:05.109Z</time></trkpt><trkpt lat="44.9372883" lon="9.5910167"><ele>135.0</ele><time>2026-04-08T10:39:06.109Z</time></trkpt><trkpt lat="44.9375933" lon="9.5909683"><ele>129.0</ele><time>2026-04-08T10:39:07.109Z</time></trkpt><trkpt lat="44.9379067" lon="9.5909267"><ele>129.0</ele><time>2026-04-08T10:39:08.109Z</time></trkpt><trkpt lat="44.9382317" lon="9.5908883"><ele>129.0</ele><time>2026-04-08T10:39:09.109Z</time></trkpt><trkpt lat="44.938565" lon="9.590855"><ele>127.0</ele><time>2026-04-08T10:39:10.109Z</time></trkpt><trkpt lat="44.938905" lon="9.5908167"><ele>125.0</ele><time>2026-04-08T10:39:11.109Z</time></trkpt><trkpt lat="44.93925" lon="9.5907717"><ele>125.0</ele><time>2026-04-08T10:39:12.109Z</time></trkpt><trkpt lat="44.9395983" lon="9.5907217"><ele>125.0</ele><time>2026-04-08T10:39:13.109Z</time></trkpt><trkpt lat="44.9399383" lon="9.5906767"><ele>125.0</ele><time>2026-04-08T10:39:14.109Z</time></trkpt><trkpt lat="44.9402583" lon="9.590635"><ele>125.0</ele><time>2026-04-08T10:39:15.108Z</time></trkpt><trkpt lat="44.9405667" lon="9.5905967"><ele>125.0</ele><time>2026-04-08T10:39:16.109Z</time></trkpt><trkpt lat="44.9408683" lon="9.5905433"><ele>125.0</ele><time>2026-04-08T10:39:17.108Z</time></trkpt><trkpt lat="44.9411617" lon="9.5904683"><ele>123.0</ele><time>2026-04-08T10:39:18.109Z</time></trkpt><trkpt lat="44.9414583" lon="9.59035"><ele>121.0</ele><time>2026-04-08T10:39:19.109Z</time></trkpt><trkpt lat="44.9417583" lon="9.5901967"><ele>125.5</ele><time>2026-04-08T10:39:20.109Z</time></trkpt><trkpt lat="44.9420567" lon="9.5900533"><ele>130.0</ele><time>2026-04-08T10:39:21.109Z</time></trkpt><trkpt lat="44.942355" lon="9.5899033"><ele>127.5</ele><time>2026-04-08T10:39:22.109Z</time></trkpt><trkpt lat="44.94265" lon="9.58976"><ele>125.0</ele><time>2026-04-08T10:39:23.109Z</time></trkpt><trkpt lat="44.94294" lon="9.5896217"><ele>131.0</ele><time>2026-04-08T10:39:24.109Z</time></trkpt><trkpt lat="44.9432183" lon="9.5894767"><ele>137.0</ele><time>2026-04-08T10:39:25.109Z</time></trkpt><trkpt lat="44.9434883" lon="9.58937"><ele>137.0</ele><time>2026-04-08T10:39:26.109Z</time></trkpt><trkpt lat="44.94377" lon="9.5892967"><ele>137.0</ele><time>2026-04-08T10:39:27.109Z</time></trkpt><trkpt lat="44.9440533" lon="9.5892433"><ele>136.0</ele><time>2026-04-08T10:39:28.109Z</time></trkpt><trkpt lat="44.9443417" lon="9.589205"><ele>135.0</ele><time>2026-04-08T10:39:29.109Z</time></trkpt><trkpt lat="44.9446367" lon="9.5891767"><ele>135.0</ele><time>2026-04-08T10:39:30.109Z</time></trkpt><trkpt lat="44.94494" lon="9.5891583"><ele>135.0</ele><time>2026-04-08T10:39:31.109Z</time></trkpt><trkpt lat="44.94524" lon="9.5891433"><ele>135.0</ele><time>2026-04-08T10:39:32.109Z</time></trkpt><trkpt lat="44.9455233" lon="9.5891283"><ele>135.0</ele><time>2026-04-08T10:39:33.109Z</time></trkpt><trkpt lat="44.945795" lon="9.5891117"><ele>134.5</ele><time>2026-04-08T10:39:34.109Z</time></trkpt><trkpt lat="44.9460683" lon="9.5891083"><ele>134.0</ele><time>2026-04-08T10:39:35.109Z</time></trkpt><trkpt lat="44.9463367" lon="9.589125"><ele>134.0</ele><time>2026-04-08T10:39:36.109Z</time></trkpt><trkpt lat="44.9466033" lon="9.5891933"><ele>134.0</ele><time>2026-04-08T10:39:37.108Z</time></trkpt><trkpt lat="44.9468667" lon="9.58929"><ele>133.0</ele><time>2026-04-08T10:39:38.109Z</time></trkpt><trkpt lat="44.947125" lon="9.5894083"><ele>132.0</ele><time>2026-04-08T10:39:39.109Z</time></trkpt><trkpt lat="44.947385" lon="9.5895267"><ele>130.5</ele><time>2026-04-08T10:39:40.109Z</time></trkpt><trkpt lat="44.9476467" lon="9.589655"><ele>129.0</ele><time>2026-04-08T10:39:41.108Z</time></trkpt><trkpt lat="44.9479" lon="9.5897767"><ele>129.0</ele><time>2026-04-08T10:39:42.109Z</time></trkpt><trkpt lat="44.948145" lon="9.5898733"><ele>129.0</ele><time>2026-04-08T10:39:43.108Z</time></trkpt><trkpt lat="44.948365" lon="9.5899733"><ele>130.33333333333334</ele><time>2026-04-08T10:39:44.109Z</time></trkpt><trkpt lat="44.9485717" lon="9.5900617"><ele>131.66666666666669</ele><time>2026-04-08T10:39:45.109Z</time></trkpt><trkpt lat="44.9487717" lon="9.5901217"><ele>133.0</ele><time>2026-04-08T10:39:46.109Z</time></trkpt><trkpt lat="44.9489633" lon="9.5901317"><ele>133.0</ele><time>2026-04-08T10:39:47.109Z</time></trkpt><trkpt lat="44.9491517" lon="9.590105"><ele>133.0</ele><time>2026-04-08T10:39:48.109Z</time></trkpt><trkpt lat="44.9493317" lon="9.59003"><ele>133.0</ele><time>2026-04-08T10:39:49.109Z</time></trkpt><trkpt lat="44.9495033" lon="9.58991"><ele>133.33333333333334</ele><time>2026-04-08T10:39:50.109Z</time></trkpt><trkpt lat="44.9496733" lon="9.5897817"><ele>133.66666666666666</ele><time>2026-04-08T10:39:51.109Z</time></trkpt><trkpt lat="44.949855" lon="9.5896433"><ele>134.0</ele><time>2026-04-08T10:39:52.109Z</time></trkpt><trkpt lat="44.9500383" lon="9.5894983"><ele>133.0</ele><time>2026-04-08T10:39:53.109Z</time></trkpt><trkpt lat="44.9502283" lon="9.5893517"><ele>132.0</ele><time>2026-04-08T10:39:54.109Z</time></trkpt><trkpt lat="44.9504217" lon="9.5892033"><ele>131.0</ele><time>2026-04-08T10:39:55.109Z</time></trkpt><trkpt lat="44.9506217" lon="9.58904"><ele>131.0</ele><time>2026-04-08T10:39:56.108Z</time></trkpt><trkpt lat="44.9508217" lon="9.588875"><ele>131.0</ele><time>2026-04-08T10:39:57.109Z</time></trkpt><trkpt lat="44.951015" lon="9.5886733"><ele>132.0</ele><time>2026-04-08T10:39:58.108Z</time></trkpt><trkpt lat="44.9512033" lon="9.5884433"><ele>133.0</ele><time>2026-04-08T10:39:59.109Z</time></trkpt><trkpt lat="44.9513967" lon="9.5882133"><ele>133.0</ele><time>2026-04-08T10:40:00.109Z</time></trkpt><trkpt lat="44.9516033" lon="9.5879917"><ele>133.0</ele><time>2026-04-08T10:40:01.109Z</time></trkpt><trkpt lat="44.9518283" lon="9.587775"><ele>133.5</ele><time>2026-04-08T10:40:02.109Z</time></trkpt><trkpt lat="44.952025" lon="9.5875433"><ele>134.0</ele><time>2026-04-08T10:40:03.109Z</time></trkpt><trkpt lat="44.9522717" lon="9.587395"><ele>134.0</ele><time>2026-04-08T10:40:04.109Z</time></trkpt><trkpt lat="44.95251" lon="9.5872317"><ele>134.0</ele><time>2026-04-08T10:40:05.109Z</time></trkpt><trkpt lat="44.9527433" lon="9.5870933"><ele>133.5</ele><time>2026-04-08T10:40:06.108Z</time></trkpt><trkpt lat="44.9529717" lon="9.5870067"><ele>133.0</ele><time>2026-04-08T10:40:07.109Z</time></trkpt><trkpt lat="44.9532033" lon="9.5869783"><ele>131.5</ele><time>2026-04-08T10:40:08.109Z</time></trkpt><trkpt lat="44.9534417" lon="9.5870133"><ele>130.0</ele><time>2026-04-08T10:40:09.109Z</time></trkpt><trkpt lat="44.953685" lon="9.5871"><ele>130.0</ele><time>2026-04-08T10:40:10.109Z</time></trkpt><trkpt lat="44.95393" lon="9.5872117"><ele>130.0</ele><time>2026-04-08T10:40:11.109Z</time></trkpt><trkpt lat="44.954185" lon="9.5873317"><ele>130.0</ele><time>2026-04-08T10:40:12.109Z</time></trkpt><trkpt lat="44.95446" lon="9.5874533"><ele>130.0</ele><time>2026-04-08T10:40:13.11Z</time></trkpt><trkpt lat="44.9547267" lon="9.58757"><ele>130.0</ele><time>2026-04-08T10:40:14.109Z</time></trkpt><trkpt lat="44.9549867" lon="9.5876533"><ele>130.0</ele><time>2026-04-08T10:40:15.11Z</time></trkpt><trkpt lat="44.95524" lon="9.5877017"><ele>129.0</ele><time>2026-04-08T10:40:16.11Z</time></trkpt><trkpt lat="44.9555" lon="9.5877317"><ele>128.0</ele><time>2026-04-08T10:40:17.11Z</time></trkpt><trkpt lat="44.9557683" lon="9.587705"><ele>128.0</ele><time>2026-04-08T10:40:18.11Z</time></trkpt><trkpt lat="44.95606" lon="9.5876333"><ele>128.0</ele><time>2026-04-08T10:40:19.109Z</time></trkpt><trkpt lat="44.9563483" lon="9.5875633"><ele>128.0</ele><time>2026-04-08T10:40:20.11Z</time></trkpt><trkpt lat="44.956625" lon="9.587525"><ele>128.0</ele><time>2026-04-08T10:40:21.11Z</time></trkpt><trkpt lat="44.9569017" lon="9.587535"><ele>127.0</ele><time>2026-04-08T10:40:22.109Z</time></trkpt><trkpt lat="44.9571817" lon="9.5875883"><ele>126.0</ele><time>2026-04-08T10:40:23.109Z</time></trkpt><trkpt lat="44.9574683" lon="9.58765"><ele>126.0</ele><time>2026-04-08T10:40:24.11Z</time></trkpt><trkpt lat="44.95775" lon="9.587705"><ele>126.0</ele><time>2026-04-08T10:40:25.11Z</time></trkpt><trkpt lat="44.958015" lon="9.5877433"><ele>126.0</ele><time>2026-04-08T10:40:26.11Z</time></trkpt><trkpt lat="44.9582633" lon="9.5877317"><ele>126.0</ele><time>2026-04-08T10:40:27.11Z</time></trkpt><trkpt lat="44.958505" lon="9.5876617"><ele>125.0</ele><time>2026-04-08T10:40:28.11Z</time></trkpt><trkpt lat="44.9587383" lon="9.5875567"><ele>124.0</ele><time>2026-04-08T10:40:29.11Z</time></trkpt><trkpt lat="44.9589733" lon="9.587455"><ele>123.5</ele><time>2026-04-08T10:40:30.11Z</time></trkpt><trkpt lat="44.9592217" lon="9.5873567"><ele>123.0</ele><time>2026-04-08T10:40:31.109Z</time></trkpt><trkpt lat="44.95948" lon="9.5872617"><ele>123.0</ele><time>2026-04-08T10:40:32.11Z</time></trkpt><trkpt lat="44.9597517" lon="9.5871583"><ele>123.0</ele><time>2026-04-08T10:40:33.109Z</time></trkpt><trkpt lat="44.9600183" lon="9.5870767"><ele>122.0</ele><time>2026-04-08T10:40:34.11Z</time></trkpt><trkpt lat="44.9602733" lon="9.587"><ele>121.0</ele><time>2026-04-08T10:40:35.11Z</time></trkpt><trkpt lat="44.9605217" lon="9.5869383"><ele>121.0</ele><time>2026-04-08T10:40:36.11Z</time></trkpt><trkpt lat="44.9607583" lon="9.5868733"><ele>121.0</ele><time>2026-04-08T10:40:37.109Z</time></trkpt><trkpt lat="44.960995" lon="9.5868083"><ele>121.5</ele><time>2026-04-08T10:40:38.11Z</time></trkpt><trkpt lat="44.9612217" lon="9.58671"><ele>122.0</ele><time>2026-04-08T10:40:39.11Z</time></trkpt><trkpt lat="44.96145" lon="9.5866467"><ele>122.0</ele><time>2026-04-08T10:40:40.11Z</time></trkpt><trkpt lat="44.9616717" lon="9.58657"><ele>122.0</ele><time>2026-04-08T10:40:41.11Z</time></trkpt><trkpt lat="44.9618867" lon="9.5864967"><ele>122.0</ele><time>2026-04-08T10:40:42.11Z</time></trkpt><trkpt lat="44.9620933" lon="9.5864217"><ele>121.33333333333333</ele><time>2026-04-08T10:40:43.11Z</time></trkpt><trkpt lat="44.9622883" lon="9.586355"><ele>120.66666666666666</ele><time>2026-04-08T10:40:44.109Z</time></trkpt><trkpt lat="44.9624833" lon="9.5862933"><ele>120.0</ele><time>2026-04-08T10:40:45.11Z</time></trkpt><trkpt lat="44.9626767" lon="9.5862333"><ele>119.33333333333334</ele><time>2026-04-08T10:40:46.11Z</time></trkpt><trkpt lat="44.962865" lon="9.586175"><ele>118.66666666666667</ele><time>2026-04-08T10:40:47.11Z</time></trkpt><trkpt lat="44.9630433" lon="9.58612"><ele>118.0</ele><time>2026-04-08T10:40:48.109Z</time></trkpt><trkpt lat="44.9632117" lon="9.5860717"><ele>118.0</ele><time>2026-04-08T10:40:49.11Z</time></trkpt><trkpt lat="44.9633633" lon="9.5860333"><ele>118.0</ele><time>2026-04-08T10:40:50.11Z</time></trkpt><trkpt lat="44.9635067" lon="9.5859933"><ele>118.0</ele><time>2026-04-08T10:40:51.11Z</time></trkpt><trkpt lat="44.963635" lon="9.5859567"><ele>118.0</ele><time>2026-04-08T10:40:52.11Z</time></trkpt><trkpt lat="44.9637567" lon="9.585925"><ele>117.4</ele><time>2026-04-08T10:40:53.11Z</time></trkpt><trkpt lat="44.963875" lon="9.5858983"><ele>116.80000000000001</ele><time>2026-04-08T10:40:54.109Z</time></trkpt><trkpt lat="44.9639833" lon="9.5858733"><ele>116.2</ele><time>2026-04-08T10:40:55.11Z</time></trkpt><trkpt lat="44.964085" lon="9.5858483"><ele>115.6</ele><time>2026-04-08T10:40:56.109Z</time></trkpt><trkpt lat="44.9641767" lon="9.5858183"><ele>115.0</ele><time>2026-04-08T10:40:57.11Z</time></trkpt><trkpt lat="44.9642583" lon="9.5857917"><ele>114.50000000000001</ele><time>2026-04-08T10:40:58.11Z</time></trkpt><trkpt lat="44.964335" lon="9.585785"><ele>114.0</ele><time>2026-04-08T10:40:59.11Z</time></trkpt><trkpt lat="44.9644033" lon="9.5857933"><ele>113.5</ele><time>2026-04-08T10:41:00.11Z</time></trkpt><trkpt lat="44.9644617" lon="9.5858383"><ele>113.0</ele><time>2026-04-08T10:41:01.11Z</time></trkpt><trkpt lat="44.964505" lon="9.58593"><ele>112.50000000000001</ele><time>2026-04-08T10:41:02.109Z</time></trkpt><trkpt lat="44.96452" lon="9.5861167"><ele>112.0</ele><time>2026-04-08T10:41:03.11Z</time></trkpt><trkpt lat="44.9645067" lon="9.58637"><ele>112.0</ele><time>2026-04-08T10:41:04.11Z</time></trkpt><trkpt lat="44.9644783" lon="9.586675"><ele>112.0</ele><time>2026-04-08T10:41:05.11Z</time></trkpt><trkpt lat="44.9644433" lon="9.5870083"><ele>110.0</ele><time>2026-04-08T10:41:06.11Z</time></trkpt><trkpt lat="44.96441" lon="9.58737"><ele>108.0</ele><time>2026-04-08T10:41:07.109Z</time></trkpt><trkpt lat="44.9643783" lon="9.5877583"><ele>107.0</ele><time>2026-04-08T10:41:08.11Z</time></trkpt><trkpt lat="44.964355" lon="9.588155"><ele>106.0</ele><time>2026-04-08T10:41:09.11Z</time></trkpt><trkpt lat="44.9643417" lon="9.58857"><ele>105.0</ele><time>2026-04-08T10:41:10.11Z</time></trkpt><trkpt lat="44.9643183" lon="9.5889967"><ele>104.0</ele><time>2026-04-08T10:41:11.109Z</time></trkpt><trkpt lat="44.964295" lon="9.5894267"><ele>103.0</ele><time>2026-04-08T10:41:12.11Z</time></trkpt><trkpt lat="44.964265" lon="9.5898567"><ele>102.0</ele><time>2026-04-08T10:41:13.11Z</time></trkpt><trkpt lat="44.9642367" lon="9.5902867"><ele>102.0</ele><time>2026-04-08T10:41:14.109Z</time></trkpt><trkpt lat="44.9642" lon="9.5907233"><ele>102.0</ele><time>2026-04-08T10:41:15.109Z</time></trkpt><trkpt lat="44.964175" lon="9.5911617"><ele>101.5</ele><time>2026-04-08T10:41:16.109Z</time></trkpt><trkpt lat="44.964145" lon="9.5916017"><ele>101.0</ele><time>2026-04-08T10:41:17.11Z</time></trkpt><trkpt lat="44.96412" lon="9.5920433"><ele>101.0</ele><time>2026-04-08T10:41:18.11Z</time></trkpt><trkpt lat="44.96409" lon="9.592485"><ele>101.0</ele><time>2026-04-08T10:41:19.109Z</time></trkpt><trkpt lat="44.96406" lon="9.59293"><ele>101.0</ele><time>2026-04-08T10:41:20.11Z</time></trkpt><trkpt lat="44.96403" lon="9.5933717"><ele>101.0</ele><time>2026-04-08T10:41:21.11Z</time></trkpt><trkpt lat="44.9640017" lon="9.5938167"><ele>100.5</ele><time>2026-04-08T10:41:22.11Z</time></trkpt><trkpt lat="44.9639667" lon="9.59426"><ele>100.0</ele><time>2026-04-08T10:41:23.109Z</time></trkpt><trkpt lat="44.9639383" lon="9.594705"><ele>100.0</ele><time>2026-04-08T10:41:24.11Z</time></trkpt><trkpt lat="44.96391" lon="9.5951483"><ele>100.0</ele><time>2026-04-08T10:41:25.11Z</time></trkpt><trkpt lat="44.9638783" lon="9.595595"><ele>100.0</ele><time>2026-04-08T10:41:26.11Z</time></trkpt><trkpt lat="44.9638517" lon="9.5960417"><ele>100.0</ele><time>2026-04-08T10:41:27.11Z</time></trkpt><trkpt lat="44.9638233" lon="9.5964867"><ele>100.5</ele><time>2026-04-08T10:41:28.11Z</time></trkpt><trkpt lat="44.9637933" lon="9.59693"><ele>101.0</ele><time>2026-04-08T10:41:29.11Z</time></trkpt><trkpt lat="44.96376" lon="9.59737"><ele>101.0</ele><time>2026-04-08T10:41:30.109Z</time></trkpt><trkpt lat="44.9637267" lon="9.5978083"><ele>101.0</ele><time>2026-04-08T10:41:31.11Z</time></trkpt><trkpt lat="44.9636917" lon="9.598245"><ele>103.0</ele><time>2026-04-08T10:41:32.11Z</time></trkpt><trkpt lat="44.9636583" lon="9.5986783"><ele>105.0</ele><time>2026-04-08T10:41:33.109Z</time></trkpt><trkpt lat="44.963625" lon="9.5991133"><ele>104.5</ele><time>2026-04-08T10:41:34.109Z</time></trkpt><trkpt lat="44.9635917" lon="9.599545"><ele>104.0</ele><time>2026-04-08T10:41:35.11Z</time></trkpt><trkpt lat="44.9635733" lon="9.5999767"><ele>104.0</ele><time>2026-04-08T10:41:36.11Z</time></trkpt><trkpt lat="44.96354" lon="9.6004017"><ele>104.0</ele><time>2026-04-08T10:41:37.11Z</time></trkpt><trkpt lat="44.9635333" lon="9.600815"><ele>103.5</ele><time>2026-04-08T10:41:38.11Z</time></trkpt><trkpt lat="44.9635333" lon="9.6012167"><ele>103.0</ele><time>2026-04-08T10:41:39.11Z</time></trkpt><trkpt lat="44.963555" lon="9.60161"><ele>103.0</ele><time>2026-04-08T10:41:40.109Z</time></trkpt><trkpt lat="44.9636" lon="9.601985"><ele>103.0</ele><time>2026-04-08T10:41:41.11Z</time></trkpt><trkpt lat="44.9636767" lon="9.6023467"><ele>104.0</ele><time>2026-04-08T10:41:42.11Z</time></trkpt><trkpt lat="44.9638067" lon="9.6026733"><ele>105.0</ele><time>2026-04-08T10:41:43.109Z</time></trkpt><trkpt lat="44.96398" lon="9.60297"><ele>105.0</ele><time>2026-04-08T10:41:44.109Z</time></trkpt><trkpt lat="44.9641867" lon="9.6032333"><ele>105.0</ele><time>2026-04-08T10:41:45.11Z</time></trkpt><trkpt lat="44.9644283" lon="9.6034417"><ele>105.0</ele><time>2026-04-08T10:41:46.11Z</time></trkpt><trkpt lat="44.9647" lon="9.6035933"><ele>105.0</ele><time>2026-04-08T10:41:47.109Z</time></trkpt><trkpt lat="44.9649883" lon="9.603695"><ele>105.0</ele><time>2026-04-08T10:41:48.109Z</time></trkpt><trkpt lat="44.9652883" lon="9.60375"><ele>105.0</ele><time>2026-04-08T10:41:49.11Z</time></trkpt><trkpt lat="44.9655967" lon="9.6037583"><ele>104.5</ele><time>2026-04-08T10:41:50.11Z</time></trkpt><trkpt lat="44.96591" lon="9.6037417"><ele>104.0</ele><time>2026-04-08T10:41:51.11Z</time></trkpt><trkpt lat="44.9662233" lon="9.603695"><ele>104.5</ele><time>2026-04-08T10:41:52.11Z</time></trkpt><trkpt lat="44.966545" lon="9.6036383"><ele>105.0</ele><time>2026-04-08T10:41:53.11Z</time></trkpt><trkpt lat="44.9668583" lon="9.603595"><ele>105.0</ele><time>2026-04-08T10:41:54.11Z</time></trkpt><trkpt lat="44.96717" lon="9.603575"><ele>105.0</ele><time>2026-04-08T10:41:55.109Z</time></trkpt><trkpt lat="44.9674733" lon="9.6035967"><ele>104.5</ele><time>2026-04-08T10:41:56.109Z</time></trkpt><trkpt lat="44.9677617" lon="9.6036533"><ele>104.0</ele><time>2026-04-08T10:41:57.11Z</time></trkpt><trkpt lat="44.96804" lon="9.60379"><ele>104.0</ele><time>2026-04-08T10:41:58.11Z</time></trkpt><trkpt lat="44.9682883" lon="9.603915"><ele>104.0</ele><time>2026-04-08T10:41:59.11Z</time></trkpt><trkpt lat="44.9685133" lon="9.6039983"><ele>104.66666666666666</ele><time>2026-04-08T10:42:00.11Z</time></trkpt><trkpt lat="44.9687067" lon="9.6040983"><ele>105.33333333333334</ele><time>2026-04-08T10:42:01.11Z</time></trkpt><trkpt lat="44.9688867" lon="9.6042117"><ele>106.0</ele><time>2026-04-08T10:42:02.109Z</time></trkpt><trkpt lat="44.969045" lon="9.6043267"><ele>106.0</ele><time>2026-04-08T10:42:03.11Z</time></trkpt><trkpt lat="44.9691833" lon="9.6044433"><ele>106.0</ele><time>2026-04-08T10:42:04.11Z</time></trkpt><trkpt lat="44.9693067" lon="9.6045567"><ele>106.0</ele><time>2026-04-08T10:42:05.11Z</time></trkpt><trkpt lat="44.9694183" lon="9.60467"><ele>106.0</ele><time>2026-04-08T10:42:06.109Z</time></trkpt><trkpt lat="44.9695217" lon="9.60478"><ele>105.5</ele><time>2026-04-08T10:42:07.11Z</time></trkpt><trkpt lat="44.9696233" lon="9.6048933"><ele>105.0</ele><time>2026-04-08T10:42:08.11Z</time></trkpt><trkpt lat="44.96972" lon="9.6050133"><ele>104.5</ele><time>2026-04-08T10:42:09.11Z</time></trkpt><trkpt lat="44.969815" lon="9.6051333"><ele>104.0</ele><time>2026-04-08T10:42:10.109Z</time></trkpt><trkpt lat="44.9698967" lon="9.605255"><ele>103.6</ele><time>2026-04-08T10:42:11.11Z</time></trkpt><trkpt lat="44.96996" lon="9.6053617"><ele>103.2</ele><time>2026-04-08T10:42:12.11Z</time></trkpt><trkpt lat="44.970005" lon="9.60545"><ele>102.8</ele><time>2026-04-08T10:42:13.11Z</time></trkpt><trkpt lat="44.9700717" lon="9.6055783"><ele>102.39999999999999</ele><time>2026-04-08T10:42:15.11Z</time></trkpt><trkpt lat="44.9701233" lon="9.6056883"><ele>102.0</ele><time>2026-04-08T10:42:17.11Z</time></trkpt><trkpt lat="44.9701683" lon="9.6057767"><ele>101.8</ele><time>2026-04-08T10:42:19.11Z</time></trkpt><trkpt lat="44.9702183" lon="9.6058583"><ele>101.6</ele><time>2026-04-08T10:42:22.11Z</time></trkpt><trkpt lat="44.9703333" lon="9.60587"><ele>101.39999999999999</ele><time>2026-04-08T10:42:29.11Z</time></trkpt><trkpt lat="44.9703983" lon="9.6058183"><ele>101.19999999999999</ele><time>2026-04-08T10:42:30.11Z</time></trkpt><trkpt lat="44.9705117" lon="9.6057017"><ele>101.0</ele><time>2026-04-08T10:42:31.11Z</time></trkpt><trkpt lat="44.9706617" lon="9.60559"><ele>101.0</ele><time>2026-04-08T10:42:32.11Z</time></trkpt><trkpt lat="44.9708367" lon="9.605505"><ele>101.0</ele><time>2026-04-08T10:42:33.11Z</time></trkpt><trkpt lat="44.97105" lon="9.6054467"><ele>101.0</ele><time>2026-04-08T10:42:34.109Z</time></trkpt><trkpt lat="44.9712733" lon="9.6054567"><ele>101.5</ele><time>2026-04-08T10:42:35.11Z</time></trkpt><trkpt lat="44.9715" lon="9.6054817"><ele>102.0</ele><time>2026-04-08T10:42:36.11Z</time></trkpt><trkpt lat="44.97174" lon="9.605515"><ele>100.5</ele><time>2026-04-08T10:42:37.11Z</time></trkpt><trkpt lat="44.972005" lon="9.60556"><ele>99.0</ele><time>2026-04-08T10:42:38.11Z</time></trkpt><trkpt lat="44.9722717" lon="9.605605"><ele>99.5</ele><time>2026-04-08T10:42:39.11Z</time></trkpt><trkpt lat="44.9725317" lon="9.6056483"><ele>100.0</ele><time>2026-04-08T10:42:40.11Z</time></trkpt><trkpt lat="44.972785" lon="9.6056733"><ele>100.0</ele><time>2026-04-08T10:42:41.11Z</time></trkpt><trkpt lat="44.9730433" lon="9.6056817"><ele>100.0</ele><time>2026-04-08T10:42:42.109Z</time></trkpt><trkpt lat="44.9733117" lon="9.60568"><ele>100.5</ele><time>2026-04-08T10:42:43.11Z</time></trkpt><trkpt lat="44.9735933" lon="9.6056867"><ele>101.0</ele><time>2026-04-08T10:42:44.11Z</time></trkpt><trkpt lat="44.97388" lon="9.6057017"><ele>101.0</ele><time>2026-04-08T10:42:45.109Z</time></trkpt><trkpt lat="44.9741817" lon="9.6057167"><ele>101.0</ele><time>2026-04-08T10:42:46.11Z</time></trkpt><trkpt lat="44.9744933" lon="9.605725"><ele>101.0</ele><time>2026-04-08T10:42:47.11Z</time></trkpt><trkpt lat="44.9748067" lon="9.6057467"><ele>101.0</ele><time>2026-04-08T10:42:48.109Z</time></trkpt><trkpt lat="44.9751167" lon="9.6058067"><ele>99.0</ele><time>2026-04-08T10:42:49.11Z</time></trkpt><trkpt lat="44.975425" lon="9.6058967"><ele>97.0</ele><time>2026-04-08T10:42:50.11Z</time></trkpt><trkpt lat="44.9757317" lon="9.6059917"><ele>97.5</ele><time>2026-04-08T10:42:51.109Z</time></trkpt><trkpt lat="44.9760467" lon="9.6060667"><ele>98.0</ele><time>2026-04-08T10:42:52.11Z</time></trkpt><trkpt lat="44.97636" lon="9.6061367"><ele>98.0</ele><time>2026-04-08T10:42:53.11Z</time></trkpt><trkpt lat="44.9766733" lon="9.6062033"><ele>98.0</ele><time>2026-04-08T10:42:54.11Z</time></trkpt><trkpt lat="44.9769817" lon="9.60627"><ele>98.0</ele><time>2026-04-08T10:42:55.109Z</time></trkpt><trkpt lat="44.977285" lon="9.60634"><ele>98.0</ele><time>2026-04-08T10:42:56.11Z</time></trkpt><trkpt lat="44.977585" lon="9.606405"><ele>98.5</ele><time>2026-04-08T10:42:57.11Z</time></trkpt><trkpt lat="44.9778783" lon="9.60647"><ele>99.0</ele><time>2026-04-08T10:42:58.11Z</time></trkpt><trkpt lat="44.9781717" lon="9.6065367"><ele>97.0</ele><time>2026-04-08T10:42:59.11Z</time></trkpt><trkpt lat="44.9784633" lon="9.6066067"><ele>95.0</ele><time>2026-04-08T10:43:00.109Z</time></trkpt><trkpt lat="44.9787567" lon="9.6066817"><ele>95.0</ele><time>2026-04-08T10:43:01.11Z</time></trkpt><trkpt lat="44.979045" lon="9.6067533"><ele>95.0</ele><time>2026-04-08T10:43:02.11Z</time></trkpt><trkpt lat="44.9793333" lon="9.6068167"><ele>96.0</ele><time>2026-04-08T10:43:03.11Z</time></trkpt><trkpt lat="44.9796233" lon="9.60688"><ele>97.0</ele><time>2026-04-08T10:43:04.11Z</time></trkpt><trkpt lat="44.97991" lon="9.60694"><ele>96.5</ele><time>2026-04-08T10:43:05.11Z</time></trkpt><trkpt lat="44.9802033" lon="9.6069883"><ele>96.0</ele><time>2026-04-08T10:43:06.11Z</time></trkpt><trkpt lat="44.9805017" lon="9.6070183"><ele>95.0</ele><time>2026-04-08T10:43:07.11Z</time></trkpt><trkpt lat="44.9808" lon="9.6070233"><ele>94.0</ele><time>2026-04-08T10:43:08.11Z</time></trkpt><trkpt lat="44.981095" lon="9.60702"><ele>94.0</ele><time>2026-04-08T10:43:09.109Z</time></trkpt><trkpt lat="44.9813867" lon="9.6070133"><ele>94.0</ele><time>2026-04-08T10:43:10.11Z</time></trkpt><trkpt lat="44.9816817" lon="9.60701"><ele>94.5</ele><time>2026-04-08T10:43:11.11Z</time></trkpt><trkpt lat="44.9819833" lon="9.6070067"><ele>95.0</ele><time>2026-04-08T10:43:12.109Z</time></trkpt><trkpt lat="44.9822917" lon="9.607"><ele>95.0</ele><time>2026-04-08T10:43:13.11Z</time></trkpt><trkpt lat="44.9826" lon="9.6069917"><ele>95.0</ele><time>2026-04-08T10:43:14.11Z</time></trkpt><trkpt lat="44.9829117" lon="9.6069833"><ele>95.0</ele><time>2026-04-08T10:43:15.11Z</time></trkpt><trkpt lat="44.9832267" lon="9.6069767"><ele>95.0</ele><time>2026-04-08T10:43:16.11Z</time></trkpt><trkpt lat="44.9835467" lon="9.606965"><ele>95.0</ele><time>2026-04-08T10:43:17.11Z</time></trkpt><trkpt lat="44.9838667" lon="9.6069583"><ele>95.0</ele><time>2026-04-08T10:43:18.11Z</time></trkpt><trkpt lat="44.984185" lon="9.6069417"><ele>94.5</ele><time>2026-04-08T10:43:19.11Z</time></trkpt><trkpt lat="44.9844983" lon="9.60693"><ele>94.0</ele><time>2026-04-08T10:43:20.109Z</time></trkpt><trkpt lat="44.9848167" lon="9.606945"><ele>93.5</ele><time>2026-04-08T10:43:21.11Z</time></trkpt><trkpt lat="44.98513" lon="9.6069783"><ele>93.0</ele><time>2026-04-08T10:43:22.11Z</time></trkpt><trkpt lat="44.9854417" lon="9.6070333"><ele>93.0</ele><time>2026-04-08T10:43:23.109Z</time></trkpt><trkpt lat="44.9857517" lon="9.60711"><ele>93.0</ele><time>2026-04-08T10:43:24.109Z</time></trkpt><trkpt lat="44.9860633" lon="9.60721"><ele>93.5</ele><time>2026-04-08T10:43:25.11Z</time></trkpt><trkpt lat="44.98637" lon="9.6073367"><ele>94.0</ele><time>2026-04-08T10:43:26.11Z</time></trkpt><trkpt lat="44.9866717" lon="9.6074817"><ele>93.5</ele><time>2026-04-08T10:43:27.11Z</time></trkpt><trkpt lat="44.9869733" lon="9.6076467"><ele>93.0</ele><time>2026-04-08T10:43:28.11Z</time></trkpt><trkpt lat="44.98728" lon="9.6078083"><ele>93.5</ele><time>2026-04-08T10:43:29.11Z</time></trkpt><trkpt lat="44.9875683" lon="9.6080083"><ele>94.0</ele><time>2026-04-08T10:43:30.11Z</time></trkpt><trkpt lat="44.9878483" lon="9.6082383"><ele>94.0</ele><time>2026-04-08T10:43:31.11Z</time></trkpt><trkpt lat="44.9881417" lon="9.6084517"><ele>94.0</ele><time>2026-04-08T10:43:32.109Z</time></trkpt><trkpt lat="44.988415" lon="9.6087167"><ele>92.5</ele><time>2026-04-08T10:43:33.11Z</time></trkpt><trkpt lat="44.988695" lon="9.6089783"><ele>91.0</ele><time>2026-04-08T10:43:34.11Z</time></trkpt><trkpt lat="44.9889817" lon="9.6092317"><ele>91.0</ele><time>2026-04-08T10:43:35.11Z</time></trkpt><trkpt lat="44.989265" lon="9.6095033"><ele>91.0</ele><time>2026-04-08T10:43:36.11Z</time></trkpt><trkpt lat="44.9895533" lon="9.6097717"><ele>91.0</ele><time>2026-04-08T10:43:37.11Z</time></trkpt><trkpt lat="44.9898417" lon="9.6100367"><ele>91.0</ele><time>2026-04-08T10:43:38.11Z</time></trkpt><trkpt lat="44.99013" lon="9.6102983"><ele>91.5</ele><time>2026-04-08T10:43:39.11Z</time></trkpt><trkpt lat="44.9904217" lon="9.6105633"><ele>92.0</ele><time>2026-04-08T10:43:40.11Z</time></trkpt><trkpt lat="44.9907033" lon="9.6108367"><ele>91.5</ele><time>2026-04-08T10:43:41.11Z</time></trkpt><trkpt lat="44.99099" lon="9.6111083"><ele>91.0</ele><time>2026-04-08T10:43:42.11Z</time></trkpt><trkpt lat="44.99128" lon="9.6113517"><ele>90.5</ele><time>2026-04-08T10:43:43.11Z</time></trkpt><trkpt lat="44.9915633" lon="9.6115983"><ele>90.0</ele><time>2026-04-08T10:43:44.109Z</time></trkpt><trkpt lat="44.9918433" lon="9.6118433"><ele>90.0</ele><time>2026-04-08T10:43:45.109Z</time></trkpt><trkpt lat="44.992115" lon="9.6120917"><ele>90.0</ele><time>2026-04-08T10:43:46.11Z</time></trkpt><trkpt lat="44.992395" lon="9.612335"><ele>90.5</ele><time>2026-04-08T10:43:47.11Z</time></trkpt><trkpt lat="44.992675" lon="9.6125767"><ele>91.0</ele><time>2026-04-08T10:43:48.11Z</time></trkpt><trkpt lat="44.99296" lon="9.6128083"><ele>91.5</ele><time>2026-04-08T10:43:49.11Z</time></trkpt><trkpt lat="44.993235" lon="9.61306"><ele>92.0</ele><time>2026-04-08T10:43:50.11Z</time></trkpt><trkpt lat="44.9935183" lon="9.6133067"><ele>91.0</ele><time>2026-04-08T10:43:51.109Z</time></trkpt><trkpt lat="44.9937983" lon="9.6135583"><ele>90.0</ele><time>2026-04-08T10:43:52.11Z</time></trkpt><trkpt lat="44.9940683" lon="9.613825"><ele>88.5</ele><time>2026-04-08T10:43:53.11Z</time></trkpt><trkpt lat="44.994335" lon="9.6141017"><ele>87.0</ele><time>2026-04-08T10:43:54.11Z</time></trkpt><trkpt lat="44.9945983" lon="9.6143733"><ele>86.5</ele><time>2026-04-08T10:43:55.11Z</time></trkpt><trkpt lat="44.9948617" lon="9.6146483"><ele>86.0</ele><time>2026-04-08T10:43:56.11Z</time></trkpt><trkpt lat="44.9951217" lon="9.6149217"><ele>87.0</ele><time>2026-04-08T10:43:57.109Z</time></trkpt><trkpt lat="44.995385" lon="9.615195"><ele>88.0</ele><time>2026-04-08T10:43:58.11Z</time></trkpt><trkpt lat="44.99565" lon="9.61546"><ele>88.5</ele><time>2026-04-08T10:43:59.109Z</time></trkpt><trkpt lat="44.9959067" lon="9.6157433"><ele>89.0</ele><time>2026-04-08T10:44:00.109Z</time></trkpt><trkpt lat="44.9961867" lon="9.61599"><ele>89.0</ele><time>2026-04-08T10:44:01.11Z</time></trkpt><trkpt lat="44.9964217" lon="9.6163033"><ele>89.0</ele><time>2026-04-08T10:44:02.11Z</time></trkpt><trkpt lat="44.9966833" lon="9.616565"><ele>88.5</ele><time>2026-04-08T10:44:03.109Z</time></trkpt><trkpt lat="44.9969517" lon="9.6168267"><ele>88.0</ele><time>2026-04-08T10:44:04.11Z</time></trkpt><trkpt lat="44.9972117" lon="9.6171033"><ele>88.0</ele><time>2026-04-08T10:44:05.11Z</time></trkpt><trkpt lat="44.997475" lon="9.6173717"><ele>88.0</ele><time>2026-04-08T10:44:06.11Z</time></trkpt><trkpt lat="44.9977283" lon="9.6176567"><ele>86.5</ele><time>2026-04-08T10:44:07.109Z</time></trkpt><trkpt lat="44.9979867" lon="9.61793"><ele>85.0</ele><time>2026-04-08T10:44:08.11Z</time></trkpt><trkpt lat="44.998245" lon="9.6182083"><ele>85.5</ele><time>2026-04-08T10:44:09.109Z</time></trkpt><trkpt lat="44.99851" lon="9.6184733"><ele>86.0</ele><time>2026-04-08T10:44:10.109Z</time></trkpt><trkpt lat="44.998765" lon="9.61876"><ele>86.0</ele><time>2026-04-08T10:44:11.11Z</time></trkpt><trkpt lat="44.9990117" lon="9.6190583"><ele>86.0</ele><time>2026-04-08T10:44:12.109Z</time></trkpt><trkpt lat="44.999255" lon="9.6193583"><ele>86.0</ele><time>2026-04-08T10:44:13.11Z</time></trkpt><trkpt lat="44.999485" lon="9.6196817"><ele>86.0</ele><time>2026-04-08T10:44:14.109Z</time></trkpt><trkpt lat="44.9996967" lon="9.6200283"><ele>86.0</ele><time>2026-04-08T10:44:15.11Z</time></trkpt><trkpt lat="44.9999217" lon="9.6203433"><ele>86.0</ele><time>2026-04-08T10:44:16.11Z</time></trkpt><trkpt lat="45.00011" lon="9.6206767"><ele>86.0</ele><time>2026-04-08T10:44:17.109Z</time></trkpt><trkpt lat="45.0002917" lon="9.6209933"><ele>86.0</ele><time>2026-04-08T10:44:18.11Z</time></trkpt><trkpt lat="45.0004733" lon="9.62129"><ele>86.0</ele><time>2026-04-08T10:44:19.11Z</time></trkpt><trkpt lat="45.000655" lon="9.6215717"><ele>86.0</ele><time>2026-04-08T10:44:20.11Z</time></trkpt><trkpt lat="45.0008233" lon="9.6218567"><ele>86.0</ele><time>2026-04-08T10:44:21.11Z</time></trkpt><trkpt lat="45.0009983" lon="9.6221283"><ele>86.0</ele><time>2026-04-08T10:44:22.11Z</time></trkpt><trkpt lat="45.001175" lon="9.6224"><ele>86.0</ele><time>2026-04-08T10:44:23.11Z</time></trkpt><trkpt lat="45.0013467" lon="9.62268"><ele>86.0</ele><time>2026-04-08T10:44:24.11Z</time></trkpt><trkpt lat="45.0015233" lon="9.622935"><ele>86.0</ele><time>2026-04-08T10:44:25.11Z</time></trkpt><trkpt lat="45.0016733" lon="9.6232017"><ele>86.0</ele><time>2026-04-08T10:44:26.11Z</time></trkpt><trkpt lat="45.0018183" lon="9.623445"><ele>85.66666666666667</ele><time>2026-04-08T10:44:27.11Z</time></trkpt><trkpt lat="45.0019567" lon="9.6236683"><ele>85.33333333333333</ele><time>2026-04-08T10:44:28.109Z</time></trkpt><trkpt lat="45.0020833" lon="9.6238817"><ele>85.0</ele><time>2026-04-08T10:44:29.109Z</time></trkpt><trkpt lat="45.0021983" lon="9.6240733"><ele>85.0</ele><time>2026-04-08T10:44:30.11Z</time></trkpt><trkpt lat="45.0022933" lon="9.6242533"><ele>85.0</ele><time>2026-04-08T10:44:31.11Z</time></trkpt><trkpt lat="45.00237" lon="9.6244117"><ele>85.0</ele><time>2026-04-08T10:44:32.11Z</time></trkpt><trkpt lat="45.00243" lon="9.6245467"><ele>85.0</ele><time>2026-04-08T10:44:33.109Z</time></trkpt><trkpt lat="45.0024583" lon="9.62469"><ele>85.2</ele><time>2026-04-08T10:44:34.11Z</time></trkpt><trkpt lat="45.0024883" lon="9.6248267"><ele>85.4</ele><time>2026-04-08T10:44:35.109Z</time></trkpt><trkpt lat="45.002545" lon="9.6249333"><ele>85.6</ele><time>2026-04-08T10:44:36.11Z</time></trkpt><trkpt lat="45.002635" lon="9.6249983"><ele>85.8</ele><time>2026-04-08T10:44:37.11Z</time></trkpt><trkpt lat="45.0027417" lon="9.625065"><ele>86.0</ele><time>2026-04-08T10:44:38.11Z</time></trkpt><trkpt lat="45.00285" lon="9.6251733"><ele>85.33333333333334</ele><time>2026-04-08T10:44:39.11Z</time></trkpt><trkpt lat="45.0029633" lon="9.6253333"><ele>84.66666666666667</ele><time>2026-04-08T10:44:40.11Z</time></trkpt><trkpt lat="45.0030917" lon="9.62554"><ele>84.0</ele><time>2026-04-08T10:44:41.109Z</time></trkpt><trkpt lat="45.0032433" lon="9.62579"><ele>85.5</ele><time>2026-04-08T10:44:42.11Z</time></trkpt><trkpt lat="45.0034117" lon="9.6260833"><ele>87.0</ele><time>2026-04-08T10:44:43.109Z</time></trkpt><trkpt lat="45.003595" lon="9.6264"><ele>87.0</ele><time>2026-04-08T10:44:44.11Z</time></trkpt><trkpt lat="45.0037983" lon="9.62672"><ele>87.0</ele><time>2026-04-08T10:44:45.11Z</time></trkpt><trkpt lat="45.0040233" lon="9.6270383"><ele>85.5</ele><time>2026-04-08T10:44:46.11Z</time></trkpt><trkpt lat="45.0042583" lon="9.6273417"><ele>84.0</ele><time>2026-04-08T10:44:47.11Z</time></trkpt><trkpt lat="45.0045" lon="9.6276183"><ele>83.0</ele><time>2026-04-08T10:44:48.109Z</time></trkpt><trkpt lat="45.0047417" lon="9.62785"><ele>82.0</ele><time>2026-04-08T10:44:49.11Z</time></trkpt><trkpt lat="45.0049817" lon="9.6280367"><ele>81.0</ele><time>2026-04-08T10:44:50.11Z</time></trkpt><trkpt lat="45.0052167" lon="9.6281867"><ele>80.0</ele><time>2026-04-08T10:44:51.11Z</time></trkpt><trkpt lat="45.0054333" lon="9.6283167"><ele>80.0</ele><time>2026-04-08T10:44:52.109Z</time></trkpt><trkpt lat="45.0056183" lon="9.62842"><ele>80.0</ele><time>2026-04-08T10:44:53.11Z</time></trkpt><trkpt lat="45.005775" lon="9.62849"><ele>80.0</ele><time>2026-04-08T10:44:54.11Z</time></trkpt><trkpt lat="45.005905" lon="9.6285933"><ele>80.5</ele><time>2026-04-08T10:44:55.109Z</time></trkpt><trkpt lat="45.00603" lon="9.6286367"><ele>81.0</ele><time>2026-04-08T10:44:56.11Z</time></trkpt><trkpt lat="45.0061333" lon="9.6287283"><ele>81.5</ele><time>2026-04-08T10:44:57.11Z</time></trkpt><trkpt lat="45.0062267" lon="9.6288083"><ele>82.0</ele><time>2026-04-08T10:44:58.11Z</time></trkpt><trkpt lat="45.00633" lon="9.628835"><ele>82.0</ele><time>2026-04-08T10:44:59.11Z</time></trkpt><trkpt lat="45.0064333" lon="9.6288567"><ele>82.0</ele><time>2026-04-08T10:45:00.109Z</time></trkpt><trkpt lat="45.0065433" lon="9.62891"><ele>82.0</ele><time>2026-04-08T10:45:01.11Z</time></trkpt><trkpt lat="45.0066517" lon="9.6289967"><ele>82.0</ele><time>2026-04-08T10:45:02.11Z</time></trkpt><trkpt lat="45.00676" lon="9.6291067"><ele>82.25</ele><time>2026-04-08T10:45:03.11Z</time></trkpt><trkpt lat="45.0068667" lon="9.6292333"><ele>82.5</ele><time>2026-04-08T10:45:04.109Z</time></trkpt><trkpt lat="45.00697" lon="9.6293767"><ele>82.75</ele><time>2026-04-08T10:45:05.11Z</time></trkpt><trkpt lat="45.0070783" lon="9.62953"><ele>83.0</ele><time>2026-04-08T10:45:06.11Z</time></trkpt><trkpt lat="45.0071883" lon="9.6296933"><ele>83.0</ele><time>2026-04-08T10:45:07.11Z</time></trkpt><trkpt lat="45.0072983" lon="9.62986"><ele>83.0</ele><time>2026-04-08T10:45:08.11Z</time></trkpt><trkpt lat="45.0074167" lon="9.6300333"><ele>83.0</ele><time>2026-04-08T10:45:09.11Z</time></trkpt><trkpt lat="45.007545" lon="9.6302067"><ele>82.33333333333334</ele><time>2026-04-08T10:45:10.11Z</time></trkpt><trkpt lat="45.0076717" lon="9.6303817"><ele>81.66666666666667</ele><time>2026-04-08T10:45:11.11Z</time></trkpt><trkpt lat="45.0077983" lon="9.63056"><ele>81.0</ele><time>2026-04-08T10:45:12.11Z</time></trkpt><trkpt lat="45.007925" lon="9.6307383"><ele>81.0</ele><time>2026-04-08T10:45:13.109Z</time></trkpt><trkpt lat="45.0080617" lon="9.6309267"><ele>81.0</ele><time>2026-04-08T10:45:14.11Z</time></trkpt><trkpt lat="45.0082117" lon="9.6311467"><ele>81.0</ele><time>2026-04-08T10:45:15.11Z</time></trkpt><trkpt lat="45.0083767" lon="9.6313817"><ele>80.5</ele><time>2026-04-08T10:45:16.11Z</time></trkpt><trkpt lat="45.008565" lon="9.6316233"><ele>80.0</ele><time>2026-04-08T10:45:17.109Z</time></trkpt><trkpt lat="45.0087733" lon="9.63189"><ele>80.5</ele><time>2026-04-08T10:45:18.109Z</time></trkpt><trkpt lat="45.0089867" lon="9.6321917"><ele>81.0</ele><time>2026-04-08T10:45:19.109Z</time></trkpt><trkpt lat="45.009205" lon="9.6325133"><ele>82.0</ele><time>2026-04-08T10:45:20.11Z</time></trkpt><trkpt lat="45.00943" lon="9.63285"><ele>83.0</ele><time>2026-04-08T10:45:21.11Z</time></trkpt><trkpt lat="45.00966" lon="9.6331833"><ele>83.0</ele><time>2026-04-08T10:45:22.11Z</time></trkpt><trkpt lat="45.0098917" lon="9.6335067"><ele>83.0</ele><time>2026-04-08T10:45:23.11Z</time></trkpt><trkpt lat="45.010115" lon="9.6338233"><ele>82.0</ele><time>2026-04-08T10:45:24.11Z</time></trkpt><trkpt lat="45.0103267" lon="9.634145"><ele>81.0</ele><time>2026-04-08T10:45:25.11Z</time></trkpt><trkpt lat="45.0105467" lon="9.634465"><ele>81.0</ele><time>2026-04-08T10:45:26.11Z</time></trkpt><trkpt lat="45.010775" lon="9.6347867"><ele>81.0</ele><time>2026-04-08T10:45:27.109Z</time></trkpt><trkpt lat="45.01101" lon="9.63511"><ele>81.5</ele><time>2026-04-08T10:45:28.109Z</time></trkpt><trkpt lat="45.01124" lon="9.6354333"><ele>82.0</ele><time>2026-04-08T10:45:29.11Z</time></trkpt><trkpt lat="45.0114533" lon="9.63573"><ele>82.0</ele><time>2026-04-08T10:45:30.109Z</time></trkpt><trkpt lat="45.0116517" lon="9.6359983"><ele>82.0</ele><time>2026-04-08T10:45:31.11Z</time></trkpt><trkpt lat="45.0118367" lon="9.6362533"><ele>81.5</ele><time>2026-04-08T10:45:32.11Z</time></trkpt><trkpt lat="45.0120167" lon="9.6365017"><ele>81.0</ele><time>2026-04-08T10:45:33.11Z</time></trkpt><trkpt lat="45.01219" lon="9.63675"><ele>81.0</ele><time>2026-04-08T10:45:34.11Z</time></trkpt><trkpt lat="45.01236" lon="9.6369933"><ele>81.0</ele><time>2026-04-08T10:45:35.11Z</time></trkpt><trkpt lat="45.01253" lon="9.6372367"><ele>81.0</ele><time>2026-04-08T10:45:36.109Z</time></trkpt><trkpt lat="45.012705" lon="9.6374817"><ele>81.0</ele><time>2026-04-08T10:45:37.11Z</time></trkpt><trkpt lat="45.0128783" lon="9.6377283"><ele>81.0</ele><time>2026-04-08T10:45:38.11Z</time></trkpt><trkpt lat="45.0130517" lon="9.637975"><ele>81.0</ele><time>2026-04-08T10:45:39.11Z</time></trkpt><trkpt lat="45.0132233" lon="9.6382167"><ele>80.0</ele><time>2026-04-08T10:45:40.109Z</time></trkpt><trkpt lat="45.01339" lon="9.63847"><ele>79.0</ele><time>2026-04-08T10:45:41.11Z</time></trkpt><trkpt lat="45.013565" lon="9.6387283"><ele>79.0</ele><time>2026-04-08T10:45:42.11Z</time></trkpt><trkpt lat="45.01374" lon="9.6389833"><ele>79.0</ele><time>2026-04-08T10:45:43.11Z</time></trkpt><trkpt lat="45.0139167" lon="9.63924"><ele>79.5</ele><time>2026-04-08T10:45:44.11Z</time></trkpt><trkpt lat="45.014095" lon="9.6394917"><ele>80.0</ele><time>2026-04-08T10:45:45.109Z</time></trkpt><trkpt lat="45.01427" lon="9.6397433"><ele>80.0</ele><time>2026-04-08T10:45:46.11Z</time></trkpt><trkpt lat="45.0144483" lon="9.64"><ele>80.0</ele><time>2026-04-08T10:45:47.11Z</time></trkpt><trkpt lat="45.0146283" lon="9.640255"><ele>79.5</ele><time>2026-04-08T10:45:48.11Z</time></trkpt><trkpt lat="45.0148117" lon="9.6405083"><ele>79.0</ele><time>2026-04-08T10:45:49.11Z</time></trkpt><trkpt lat="45.0149967" lon="9.6407583"><ele>77.5</ele><time>2026-04-08T10:45:50.109Z</time></trkpt><trkpt lat="45.0151717" lon="9.6410167"><ele>76.0</ele><time>2026-04-08T10:45:51.109Z</time></trkpt><trkpt lat="45.0153533" lon="9.64127"><ele>76.0</ele><time>2026-04-08T10:45:52.11Z</time></trkpt><trkpt lat="45.0155317" lon="9.641525"><ele>76.0</ele><time>2026-04-08T10:45:53.109Z</time></trkpt><trkpt lat="45.0157167" lon="9.6417633"><ele>76.5</ele><time>2026-04-08T10:45:54.11Z</time></trkpt><trkpt lat="45.0158883" lon="9.6420117"><ele>77.0</ele><time>2026-04-08T10:45:55.11Z</time></trkpt><trkpt lat="45.0160733" lon="9.6422283"><ele>77.0</ele><time>2026-04-08T10:45:56.11Z</time></trkpt><trkpt lat="45.01622" lon="9.6424867"><ele>77.0</ele><time>2026-04-08T10:45:57.109Z</time></trkpt><trkpt lat="45.0163783" lon="9.6427217"><ele>77.5</ele><time>2026-04-08T10:45:58.11Z</time></trkpt><trkpt lat="45.0165367" lon="9.6429517"><ele>78.0</ele><time>2026-04-08T10:45:59.109Z</time></trkpt><trkpt lat="45.016685" lon="9.6431967"><ele>77.0</ele><time>2026-04-08T10:46:00.11Z</time></trkpt><trkpt lat="45.0168467" lon="9.64343"><ele>76.0</ele><time>2026-04-08T10:46:01.11Z</time></trkpt><trkpt lat="45.017005" lon="9.643665"><ele>74.5</ele><time>2026-04-08T10:46:02.11Z</time></trkpt><trkpt lat="45.01716" lon="9.64391"><ele>73.0</ele><time>2026-04-08T10:46:03.11Z</time></trkpt><trkpt lat="45.0173267" lon="9.6441567"><ele>72.5</ele><time>2026-04-08T10:46:04.11Z</time></trkpt><trkpt lat="45.0175117" lon="9.6443717"><ele>72.0</ele><time>2026-04-08T10:46:05.11Z</time></trkpt><trkpt lat="45.0176917" lon="9.6445983"><ele>72.0</ele><time>2026-04-08T10:46:06.11Z</time></trkpt><trkpt lat="45.0178733" lon="9.64483"><ele>72.0</ele><time>2026-04-08T10:46:07.11Z</time></trkpt><trkpt lat="45.0180467" lon="9.64506"><ele>72.0</ele><time>2026-04-08T10:46:08.109Z</time></trkpt><trkpt lat="45.0182083" lon="9.64528"><ele>72.0</ele><time>2026-04-08T10:46:09.11Z</time></trkpt><trkpt lat="45.01836" lon="9.645495"><ele>72.0</ele><time>2026-04-08T10:46:10.11Z</time></trkpt><trkpt lat="45.0185117" lon="9.6457"><ele>72.66666666666667</ele><time>2026-04-08T10:46:11.11Z</time></trkpt><trkpt lat="45.0186683" lon="9.6459"><ele>73.33333333333334</ele><time>2026-04-08T10:46:12.11Z</time></trkpt><trkpt lat="45.0188183" lon="9.6461117"><ele>74.0</ele><time>2026-04-08T10:46:13.11Z</time></trkpt><trkpt lat="45.01897" lon="9.6463117"><ele>74.0</ele><time>2026-04-08T10:46:14.11Z</time></trkpt><trkpt lat="45.0191233" lon="9.6465167"><ele>74.0</ele><time>2026-04-08T10:46:15.11Z</time></trkpt><trkpt lat="45.0192717" lon="9.6467317"><ele>74.0</ele><time>2026-04-08T10:46:16.109Z</time></trkpt><trkpt lat="45.0194267" lon="9.6469433"><ele>74.33333333333334</ele><time>2026-04-08T10:46:17.109Z</time></trkpt><trkpt lat="45.0195767" lon="9.6471633"><ele>74.66666666666667</ele><time>2026-04-08T10:46:18.11Z</time></trkpt><trkpt lat="45.0197183" lon="9.6473933"><ele>75.0</ele><time>2026-04-08T10:46:19.11Z</time></trkpt><trkpt lat="45.0198767" lon="9.6476"><ele>75.33333333333333</ele><time>2026-04-08T10:46:20.11Z</time></trkpt><trkpt lat="45.0200583" lon="9.6477967"><ele>75.66666666666666</ele><time>2026-04-08T10:46:21.11Z</time></trkpt><trkpt lat="45.020175" lon="9.64802"><ele>76.0</ele><time>2026-04-08T10:46:22.11Z</time></trkpt><trkpt lat="45.020305" lon="9.6482233"><ele>76.0</ele><time>2026-04-08T10:46:23.109Z</time></trkpt><trkpt lat="45.0204417" lon="9.6484217"><ele>76.0</ele><time>2026-04-08T10:46:24.11Z</time></trkpt><trkpt lat="45.020585" lon="9.648625"><ele>76.0</ele><time>2026-04-08T10:46:25.11Z</time></trkpt><trkpt lat="45.02074" lon="9.6488383"><ele>75.0</ele><time>2026-04-08T10:46:26.11Z</time></trkpt><trkpt lat="45.0209033" lon="9.6490667"><ele>74.0</ele><time>2026-04-08T10:46:27.109Z</time></trkpt><trkpt lat="45.0210533" lon="9.6493167"><ele>74.0</ele><time>2026-04-08T10:46:28.11Z</time></trkpt><trkpt lat="45.0212083" lon="9.6495533"><ele>74.0</ele><time>2026-04-08T10:46:29.109Z</time></trkpt><trkpt lat="45.0213783" lon="9.64976"><ele>74.0</ele><time>2026-04-08T10:46:30.11Z</time></trkpt><trkpt lat="45.0215267" lon="9.649995"><ele>74.0</ele><time>2026-04-08T10:46:31.109Z</time></trkpt><trkpt lat="45.02169" lon="9.650225"><ele>73.0</ele><time>2026-04-08T10:46:32.109Z</time></trkpt><trkpt lat="45.02187" lon="9.650425"><ele>72.0</ele><time>2026-04-08T10:46:33.11Z</time></trkpt><trkpt lat="45.0220233" lon="9.6506733"><ele>72.0</ele><time>2026-04-08T10:46:34.11Z</time></trkpt><trkpt lat="45.0222017" lon="9.65089"><ele>72.0</ele><time>2026-04-08T10:46:35.11Z</time></trkpt><trkpt lat="45.02236" lon="9.6511133"><ele>72.66666666666667</ele><time>2026-04-08T10:46:36.109Z</time></trkpt><trkpt lat="45.0225117" lon="9.65133"><ele>73.33333333333334</ele><time>2026-04-08T10:46:37.11Z</time></trkpt><trkpt lat="45.02266" lon="9.651555"><ele>74.0</ele><time>2026-04-08T10:46:38.109Z</time></trkpt><trkpt lat="45.0228383" lon="9.6517233"><ele>74.0</ele><time>2026-04-08T10:46:39.11Z</time></trkpt><trkpt lat="45.022975" lon="9.65195"><ele>74.0</ele><time>2026-04-08T10:46:40.109Z</time></trkpt><trkpt lat="45.02312" lon="9.6521633"><ele>74.0</ele><time>2026-04-08T10:46:41.109Z</time></trkpt><trkpt lat="45.023265" lon="9.6523683"><ele>73.0</ele><time>2026-04-08T10:46:42.11Z</time></trkpt><trkpt lat="45.02341" lon="9.6525683"><ele>72.0</ele><time>2026-04-08T10:46:43.109Z</time></trkpt><trkpt lat="45.0235483" lon="9.652765"><ele>71.0</ele><time>2026-04-08T10:46:44.109Z</time></trkpt><trkpt lat="45.023685" lon="9.65296"><ele>71.0</ele><time>2026-04-08T10:46:45.11Z</time></trkpt><trkpt lat="45.02382" lon="9.653155"><ele>71.0</ele><time>2026-04-08T10:46:46.11Z</time></trkpt><trkpt lat="45.023955" lon="9.653345"><ele>71.0</ele><time>2026-04-08T10:46:47.109Z</time></trkpt><trkpt lat="45.0240817" lon="9.6535283"><ele>72.0</ele><time>2026-04-08T10:46:48.11Z</time></trkpt><trkpt lat="45.0242067" lon="9.65369"><ele>73.0</ele><time>2026-04-08T10:46:49.11Z</time></trkpt><trkpt lat="45.02432" lon="9.6538517"><ele>74.0</ele><time>2026-04-08T10:46:50.11Z</time></trkpt><trkpt lat="45.0244333" lon="9.654015"><ele>74.0</ele><time>2026-04-08T10:46:51.11Z</time></trkpt><trkpt lat="45.0245433" lon="9.654175"><ele>74.0</ele><time>2026-04-08T10:46:52.109Z</time></trkpt><trkpt lat="45.0246517" lon="9.6543333"><ele>74.0</ele><time>2026-04-08T10:46:53.11Z</time></trkpt><trkpt lat="45.02476" lon="9.6544983"><ele>73.60000000000001</ele><time>2026-04-08T10:46:54.11Z</time></trkpt><trkpt lat="45.0248617" lon="9.65464"><ele>73.2</ele><time>2026-04-08T10:46:55.11Z</time></trkpt><trkpt lat="45.02494" lon="9.6547633"><ele>72.80000000000001</ele><time>2026-04-08T10:46:56.11Z</time></trkpt><trkpt lat="45.0249967" lon="9.6548433"><ele>72.4</ele><time>2026-04-08T10:46:57.11Z</time></trkpt><trkpt lat="45.0250167" lon="9.65494"><ele>72.0</ele><time>2026-04-08T10:46:59.11Z</time></trkpt><trkpt lat="45.0249383" lon="9.654945"><ele>72.0</ele><time>2026-04-08T10:47:01.11Z</time></trkpt><trkpt lat="45.0248817" lon="9.6548667"><ele>72.0</ele><time>2026-04-08T10:47:03.11Z</time></trkpt><trkpt lat="45.02481" lon="9.6547567"><ele>72.0</ele><time>2026-04-08T10:47:15.109Z</time></trkpt><trkpt lat="45.0247467" lon="9.6546583"><ele>72.0</ele><time>2026-04-08T10:51:05.11Z</time></trkpt><trkpt lat="45.0247583" lon="9.654565"><ele>72.0</ele><time>2026-04-08T10:51:09.11Z</time></trkpt><trkpt lat="45.024855" lon="9.654605"><ele>72.0</ele><time>2026-04-08T10:51:12.11Z</time></trkpt><trkpt lat="45.02491" lon="9.6547083"><ele>72.0</ele><time>2026-04-08T10:51:13.11Z</time></trkpt><trkpt lat="45.0249917" lon="9.65485"><ele>72.0</ele><time>2026-04-08T10:51:14.11Z</time></trkpt><trkpt lat="45.0251067" lon="9.65502"><ele>72.0</ele><time>2026-04-08T10:51:15.11Z</time></trkpt><trkpt lat="45.025215" lon="9.655185"><ele>71.33333333333333</ele><time>2026-04-08T10:51:16.11Z</time></trkpt><trkpt lat="45.0253183" lon="9.6553483"><ele>70.66666666666666</ele><time>2026-04-08T10:51:17.109Z</time></trkpt><trkpt lat="45.0254383" lon="9.65553"><ele>70.0</ele><time>2026-04-08T10:51:18.11Z</time></trkpt><trkpt lat="45.0255733" lon="9.6557267"><ele>70.0</ele><time>2026-04-08T10:51:19.11Z</time></trkpt><trkpt lat="45.0257167" lon="9.6559283"><ele>70.0</ele><time>2026-04-08T10:51:20.11Z</time></trkpt><trkpt lat="45.0258633" lon="9.6561283"><ele>70.0</ele><time>2026-04-08T10:51:21.109Z</time></trkpt><trkpt lat="45.026005" lon="9.6563317"><ele>70.33333333333333</ele><time>2026-04-08T10:51:22.11Z</time></trkpt><trkpt lat="45.0261467" lon="9.6565317"><ele>70.66666666666667</ele><time>2026-04-08T10:51:23.109Z</time></trkpt><trkpt lat="45.0262833" lon="9.6567267"><ele>71.0</ele><time>2026-04-08T10:51:24.109Z</time></trkpt><trkpt lat="45.0264267" lon="9.65692"><ele>70.0</ele><time>2026-04-08T10:51:25.11Z</time></trkpt><trkpt lat="45.0265717" lon="9.6571167"><ele>69.0</ele><time>2026-04-08T10:51:26.11Z</time></trkpt><trkpt lat="45.026715" lon="9.6573183"><ele>68.0</ele><time>2026-04-08T10:51:27.11Z</time></trkpt><trkpt lat="45.02686" lon="9.6575133"><ele>67.66666666666667</ele><time>2026-04-08T10:51:28.11Z</time></trkpt><trkpt lat="45.0269983" lon="9.65771"><ele>67.33333333333333</ele><time>2026-04-08T10:51:29.11Z</time></trkpt><trkpt lat="45.02714" lon="9.6579117"><ele>67.0</ele><time>2026-04-08T10:51:30.109Z</time></trkpt><trkpt lat="45.027285" lon="9.658115"><ele>67.0</ele><time>2026-04-08T10:51:31.11Z</time></trkpt><trkpt lat="45.02743" lon="9.6583133"><ele>67.0</ele><time>2026-04-08T10:51:32.11Z</time></trkpt><trkpt lat="45.027565" lon="9.658515"><ele>67.0</ele><time>2026-04-08T10:51:33.11Z</time></trkpt><trkpt lat="45.027705" lon="9.6587183"><ele>67.66666666666666</ele><time>2026-04-08T10:51:34.11Z</time></trkpt><trkpt lat="45.0278483" lon="9.6589283"><ele>68.33333333333333</ele><time>2026-04-08T10:51:35.11Z</time></trkpt><trkpt lat="45.0279967" lon="9.6591367"><ele>69.0</ele><time>2026-04-08T10:51:36.11Z</time></trkpt><trkpt lat="45.0281417" lon="9.6593467"><ele>69.33333333333333</ele><time>2026-04-08T10:51:37.11Z</time></trkpt><trkpt lat="45.0282867" lon="9.659555"><ele>69.66666666666666</ele><time>2026-04-08T10:51:38.11Z</time></trkpt><trkpt lat="45.0284267" lon="9.6597633"><ele>70.0</ele><time>2026-04-08T10:51:39.11Z</time></trkpt><trkpt lat="45.0285667" lon="9.6599717"><ele>70.0</ele><time>2026-04-08T10:51:40.11Z</time></trkpt><trkpt lat="45.0287133" lon="9.660175"><ele>70.0</ele><time>2026-04-08T10:51:41.11Z</time></trkpt><trkpt lat="45.0288633" lon="9.6603783"><ele>70.0</ele><time>2026-04-08T10:51:42.11Z</time></trkpt><trkpt lat="45.029015" lon="9.6605883"><ele>70.0</ele><time>2026-04-08T10:51:43.109Z</time></trkpt><trkpt lat="45.02916" lon="9.660795"><ele>70.0</ele><time>2026-04-08T10:51:44.11Z</time></trkpt><trkpt lat="45.0293067" lon="9.6610083"><ele>70.0</ele><time>2026-04-08T10:51:45.109Z</time></trkpt><trkpt lat="45.02946" lon="9.6612233"><ele>70.0</ele><time>2026-04-08T10:51:46.11Z</time></trkpt><trkpt lat="45.0296133" lon="9.6614433"><ele>70.0</ele><time>2026-04-08T10:51:47.11Z</time></trkpt><trkpt lat="45.0297617" lon="9.6616667"><ele>70.0</ele><time>2026-04-08T10:51:48.109Z</time></trkpt><trkpt lat="45.0299117" lon="9.66189"><ele>69.66666666666666</ele><time>2026-04-08T10:51:49.11Z</time></trkpt><trkpt lat="45.0300683" lon="9.6621083"><ele>69.33333333333333</ele><time>2026-04-08T10:51:50.109Z</time></trkpt><trkpt lat="45.0302233" lon="9.662335"><ele>69.0</ele><time>2026-04-08T10:51:51.11Z</time></trkpt><trkpt lat="45.03038" lon="9.6625517"><ele>69.0</ele><time>2026-04-08T10:51:52.11Z</time></trkpt><trkpt lat="45.03053" lon="9.6627583"><ele>69.0</ele><time>2026-04-08T10:51:53.11Z</time></trkpt><trkpt lat="45.030675" lon="9.6629617"><ele>69.0</ele><time>2026-04-08T10:51:54.11Z</time></trkpt><trkpt lat="45.0308183" lon="9.6631617"><ele>69.33333333333333</ele><time>2026-04-08T10:51:55.11Z</time></trkpt><trkpt lat="45.030955" lon="9.6633633"><ele>69.66666666666666</ele><time>2026-04-08T10:51:56.11Z</time></trkpt><trkpt lat="45.0311" lon="9.6635633"><ele>70.0</ele><time>2026-04-08T10:51:57.11Z</time></trkpt><trkpt lat="45.031245" lon="9.6637717"><ele>70.33333333333333</ele><time>2026-04-08T10:51:58.11Z</time></trkpt><trkpt lat="45.0313933" lon="9.6639867"><ele>70.66666666666667</ele><time>2026-04-08T10:51:59.11Z</time></trkpt><trkpt lat="45.0315467" lon="9.664205"><ele>71.0</ele><time>2026-04-08T10:52:00.11Z</time></trkpt><trkpt lat="45.0317067" lon="9.664425"><ele>68.66666666666667</ele><time>2026-04-08T10:52:01.11Z</time></trkpt><trkpt lat="45.0318583" lon="9.66465"><ele>66.33333333333333</ele><time>2026-04-08T10:52:02.11Z</time></trkpt><trkpt lat="45.0320117" lon="9.6648717"><ele>64.0</ele><time>2026-04-08T10:52:03.109Z</time></trkpt><trkpt lat="45.0321583" lon="9.6650783"><ele>64.0</ele><time>2026-04-08T10:52:04.11Z</time></trkpt><trkpt lat="45.032295" lon="9.66527"><ele>64.0</ele><time>2026-04-08T10:52:05.109Z</time></trkpt><trkpt lat="45.0324217" lon="9.66545"><ele>64.0</ele><time>2026-04-08T10:52:06.11Z</time></trkpt><trkpt lat="45.032545" lon="9.6656267"><ele>65.33333333333333</ele><time>2026-04-08T10:52:07.109Z</time></trkpt><trkpt lat="45.0326733" lon="9.6658"><ele>66.66666666666667</ele><time>2026-04-08T10:52:08.109Z</time></trkpt><trkpt lat="45.032805" lon="9.6659683"><ele>68.0</ele><time>2026-04-08T10:52:09.11Z</time></trkpt><trkpt lat="45.0329333" lon="9.66613"><ele>68.0</ele><time>2026-04-08T10:52:10.109Z</time></trkpt><trkpt lat="45.033065" lon="9.6662933"><ele>68.0</ele><time>2026-04-08T10:52:11.11Z</time></trkpt><trkpt lat="45.0331933" lon="9.6664583"><ele>68.0</ele><time>2026-04-08T10:52:12.109Z</time></trkpt><trkpt lat="45.0333183" lon="9.6666283"><ele>67.66666666666667</ele><time>2026-04-08T10:52:13.11Z</time></trkpt><trkpt lat="45.0334433" lon="9.6667983"><ele>67.33333333333333</ele><time>2026-04-08T10:52:14.109Z</time></trkpt><trkpt lat="45.0335767" lon="9.666975"><ele>67.0</ele><time>2026-04-08T10:52:15.11Z</time></trkpt><trkpt lat="45.0337" lon="9.66715"><ele>67.66666666666666</ele><time>2026-04-08T10:52:16.11Z</time></trkpt><trkpt lat="45.0338233" lon="9.66732"><ele>68.33333333333333</ele><time>2026-04-08T10:52:17.109Z</time></trkpt><trkpt lat="45.0339417" lon="9.66748"><ele>69.0</ele><time>2026-04-08T10:52:18.11Z</time></trkpt><trkpt lat="45.0340533" lon="9.667635"><ele>68.5</ele><time>2026-04-08T10:52:19.11Z</time></trkpt><trkpt lat="45.0341667" lon="9.6677833"><ele>68.0</ele><time>2026-04-08T10:52:20.109Z</time></trkpt><trkpt lat="45.0342633" lon="9.667925"><ele>67.5</ele><time>2026-04-08T10:52:21.11Z</time></trkpt><trkpt lat="45.0343583" lon="9.66806"><ele>67.0</ele><time>2026-04-08T10:52:22.11Z</time></trkpt><trkpt lat="45.0344417" lon="9.6681783"><ele>67.0</ele><time>2026-04-08T10:52:23.109Z</time></trkpt><trkpt lat="45.0345133" lon="9.6682833"><ele>67.0</ele><time>2026-04-08T10:52:24.11Z</time></trkpt><trkpt lat="45.034585" lon="9.6683833"><ele>67.0</ele><time>2026-04-08T10:52:25.11Z</time></trkpt><trkpt lat="45.0346483" lon="9.6684833"><ele>67.0</ele><time>2026-04-08T10:52:26.11Z</time></trkpt><trkpt lat="45.0347017" lon="9.6685833"><ele>67.0</ele><time>2026-04-08T10:52:27.11Z</time></trkpt><trkpt lat="45.0347483" lon="9.6687033"><ele>67.0</ele><time>2026-04-08T10:52:28.109Z</time></trkpt><trkpt lat="45.0347783" lon="9.668825"><ele>67.0</ele><time>2026-04-08T10:52:29.109Z</time></trkpt><trkpt lat="45.03482" lon="9.6689283"><ele>67.0</ele><time>2026-04-08T10:52:30.11Z</time></trkpt><trkpt lat="45.0348767" lon="9.6690233"><ele>67.0</ele><time>2026-04-08T10:52:31.11Z</time></trkpt><trkpt lat="45.0349483" lon="9.6690967"><ele>67.0</ele><time>2026-04-08T10:52:32.11Z</time></trkpt><trkpt lat="45.035035" lon="9.6691517"><ele>67.0</ele><time>2026-04-08T10:52:33.11Z</time></trkpt><trkpt lat="45.0351167" lon="9.6692133"><ele>67.0</ele><time>2026-04-08T10:52:34.11Z</time></trkpt><trkpt lat="45.0351933" lon="9.6692833"><ele>67.0</ele><time>2026-04-08T10:52:35.11Z</time></trkpt><trkpt lat="45.035275" lon="9.6693817"><ele>67.0</ele><time>2026-04-08T10:52:36.11Z</time></trkpt><trkpt lat="45.0353767" lon="9.6695167"><ele>67.0</ele><time>2026-04-08T10:52:37.11Z</time></trkpt><trkpt lat="45.035495" lon="9.6696817"><ele>66.0</ele><time>2026-04-08T10:52:38.11Z</time></trkpt><trkpt lat="45.0356317" lon="9.6698717"><ele>65.0</ele><time>2026-04-08T10:52:39.109Z</time></trkpt><trkpt lat="45.035785" lon="9.6700683"><ele>64.0</ele><time>2026-04-08T10:52:40.11Z</time></trkpt><trkpt lat="45.0359333" lon="9.6702967"><ele>63.33333333333333</ele><time>2026-04-08T10:52:41.11Z</time></trkpt><trkpt lat="45.036075" lon="9.67052"><ele>62.66666666666667</ele><time>2026-04-08T10:52:42.109Z</time></trkpt><trkpt lat="45.036225" lon="9.670725"><ele>62.0</ele><time>2026-04-08T10:52:43.11Z</time></trkpt><trkpt lat="45.0363667" lon="9.670935"><ele>61.66666666666667</ele><time>2026-04-08T10:52:44.11Z</time></trkpt><trkpt lat="45.0364967" lon="9.6711383"><ele>61.33333333333333</ele><time>2026-04-08T10:52:45.11Z</time></trkpt><trkpt lat="45.036625" lon="9.6713383"><ele>61.0</ele><time>2026-04-08T10:52:46.109Z</time></trkpt><trkpt lat="45.0367483" lon="9.6715267"><ele>61.0</ele><time>2026-04-08T10:52:47.11Z</time></trkpt><trkpt lat="45.0368733" lon="9.671715"><ele>61.0</ele><time>2026-04-08T10:52:48.11Z</time></trkpt><trkpt lat="45.0370017" lon="9.67189"><ele>61.0</ele><time>2026-04-08T10:52:49.109Z</time></trkpt><trkpt lat="45.0371283" lon="9.6720583"><ele>61.25</ele><time>2026-04-08T10:52:50.11Z</time></trkpt><trkpt lat="45.0372433" lon="9.672215"><ele>61.5</ele><time>2026-04-08T10:52:51.11Z</time></trkpt><trkpt lat="45.037345" lon="9.67236"><ele>61.75</ele><time>2026-04-08T10:52:52.11Z</time></trkpt><trkpt lat="45.03743" lon="9.67249"><ele>62.0</ele><time>2026-04-08T10:52:53.11Z</time></trkpt><trkpt lat="45.037495" lon="9.6726167"><ele>61.833333333333336</ele><time>2026-04-08T10:52:54.11Z</time></trkpt><trkpt lat="45.0375467" lon="9.672735"><ele>61.66666666666667</ele><time>2026-04-08T10:52:55.11Z</time></trkpt><trkpt lat="45.037605" lon="9.6728133"><ele>61.5</ele><time>2026-04-08T10:52:56.11Z</time></trkpt><trkpt lat="45.037675" lon="9.6728533"><ele>61.33333333333333</ele><time>2026-04-08T10:52:57.11Z</time></trkpt><trkpt lat="45.0377517" lon="9.6728917"><ele>61.166666666666664</ele><time>2026-04-08T10:52:58.11Z</time></trkpt><trkpt lat="45.03782" lon="9.6729583"><ele>61.0</ele><time>2026-04-08T10:52:59.109Z</time></trkpt><trkpt lat="45.0378867" lon="9.673045"><ele>61.0</ele><time>2026-04-08T10:53:00.11Z</time></trkpt><trkpt lat="45.0379667" lon="9.6731583"><ele>61.0</ele><time>2026-04-08T10:53:01.11Z</time></trkpt><trkpt lat="45.038065" lon="9.6733"><ele>61.0</ele><time>2026-04-08T10:53:02.109Z</time></trkpt><trkpt lat="45.03817" lon="9.67346"><ele>61.0</ele><time>2026-04-08T10:53:03.11Z</time></trkpt><trkpt lat="45.0382667" lon="9.6736117"><ele>60.8</ele><time>2026-04-08T10:53:04.11Z</time></trkpt><trkpt lat="45.0383483" lon="9.6737483"><ele>60.599999999999994</ele><time>2026-04-08T10:53:05.11Z</time></trkpt><trkpt lat="45.0384217" lon="9.6738483"><ele>60.4</ele><time>2026-04-08T10:53:06.11Z</time></trkpt><trkpt lat="45.0384833" lon="9.6739267"><ele>60.2</ele><time>2026-04-08T10:53:07.11Z</time></trkpt><trkpt lat="45.0385317" lon="9.6739917"><ele>60.0</ele><time>2026-04-08T10:53:08.11Z</time></trkpt><trkpt lat="45.0385933" lon="9.6740733"><ele>60.0</ele><time>2026-04-08T10:53:10.11Z</time></trkpt><trkpt lat="45.0386583" lon="9.6741767"><ele>60.0</ele><time>2026-04-08T10:53:29.11Z</time></trkpt><trkpt lat="45.038715" lon="9.674265"><ele>60.0</ele><time>2026-04-08T10:53:30.11Z</time></trkpt><trkpt lat="45.0388017" lon="9.6744033"><ele>60.0</ele><time>2026-04-08T10:53:31.109Z</time></trkpt><trkpt lat="45.0389033" lon="9.6745617"><ele>60.33333333333333</ele><time>2026-04-08T10:53:32.11Z</time></trkpt><trkpt lat="45.0390167" lon="9.67472"><ele>60.666666666666664</ele><time>2026-04-08T10:53:33.11Z</time></trkpt><trkpt lat="45.0391283" lon="9.6748733"><ele>61.0</ele><time>2026-04-08T10:53:34.11Z</time></trkpt><trkpt lat="45.0392433" lon="9.67503"><ele>61.0</ele><time>2026-04-08T10:53:35.11Z</time></trkpt><trkpt lat="45.0393733" lon="9.6752017"><ele>61.0</ele><time>2026-04-08T10:53:36.11Z</time></trkpt><trkpt lat="45.0395033" lon="9.6753817"><ele>61.0</ele><time>2026-04-08T10:53:37.11Z</time></trkpt><trkpt lat="45.0396317" lon="9.67555"><ele>61.5</ele><time>2026-04-08T10:53:38.11Z</time></trkpt><trkpt lat="45.0397383" lon="9.6757033"><ele>62.0</ele><time>2026-04-08T10:53:39.11Z</time></trkpt><trkpt lat="45.03983" lon="9.6758283"><ele>62.5</ele><time>2026-04-08T10:53:40.109Z</time></trkpt><trkpt lat="45.0398933" lon="9.6759283"><ele>63.0</ele><time>2026-04-08T10:53:41.11Z</time></trkpt><trkpt lat="45.0399467" lon="9.6760067"><ele>62.599999999999994</ele><time>2026-04-08T10:53:42.109Z</time></trkpt><trkpt lat="45.04" lon="9.676065"><ele>62.199999999999996</ele><time>2026-04-08T10:53:43.109Z</time></trkpt><trkpt lat="45.0400533" lon="9.6761183"><ele>61.8</ele><time>2026-04-08T10:53:44.11Z</time></trkpt><trkpt lat="45.040155" lon="9.6762083"><ele>61.4</ele><time>2026-04-08T10:53:46.11Z</time></trkpt><trkpt lat="45.04025" lon="9.6762583"><ele>61.0</ele><time>2026-04-08T10:53:48.109Z</time></trkpt><trkpt lat="45.0403883" lon="9.676205"><ele>61.0</ele><time>2026-04-08T10:53:50.11Z</time></trkpt><trkpt lat="45.040475" lon="9.6761583"><ele>61.0</ele><time>2026-04-08T10:53:51.11Z</time></trkpt><trkpt lat="45.0405917" lon="9.6760933"><ele>61.0</ele><time>2026-04-08T10:53:52.11Z</time></trkpt><trkpt lat="45.0407867" lon="9.6758017"><ele>60.666666666666664</ele><time>2026-04-08T10:53:53.11Z</time></trkpt><trkpt lat="45.04099" lon="9.675655"><ele>60.33333333333333</ele><time>2026-04-08T10:53:54.11Z</time></trkpt><trkpt lat="45.0411333" lon="9.675435"><ele>60.0</ele><time>2026-04-08T10:53:55.11Z</time></trkpt><trkpt lat="45.0412683" lon="9.6752383"><ele>60.0</ele><time>2026-04-08T10:53:56.11Z</time></trkpt><trkpt lat="45.0413933" lon="9.6750083"><ele>60.0</ele><time>2026-04-08T10:53:57.11Z</time></trkpt><trkpt lat="45.0415" lon="9.6748533"><ele>60.0</ele><time>2026-04-08T10:53:58.11Z</time></trkpt><trkpt lat="45.0415833" lon="9.67473"><ele>59.8</ele><time>2026-04-08T10:53:59.11Z</time></trkpt><trkpt lat="45.0416467" lon="9.6746367"><ele>59.6</ele><time>2026-04-08T10:54:00.11Z</time></trkpt><trkpt lat="45.0417083" lon="9.6745133"><ele>59.400000000000006</ele><time>2026-04-08T10:54:02.11Z</time></trkpt><trkpt lat="45.041765" lon="9.6743767"><ele>59.2</ele><time>2026-04-08T10:54:04.11Z</time></trkpt><trkpt lat="45.0418033" lon="9.674295"><ele>59.0</ele><time>2026-04-08T10:54:05.11Z</time></trkpt><trkpt lat="45.041905" lon="9.674105"><ele>59.66666666666667</ele><time>2026-04-08T10:54:06.11Z</time></trkpt><trkpt lat="45.0419917" lon="9.6739167"><ele>60.33333333333333</ele><time>2026-04-08T10:54:07.11Z</time></trkpt><trkpt lat="45.0420817" lon="9.673715"><ele>61.0</ele><time>2026-04-08T10:54:08.11Z</time></trkpt><trkpt lat="45.04216" lon="9.6735317"><ele>61.25</ele><time>2026-04-08T10:54:09.11Z</time></trkpt><trkpt lat="45.04224" lon="9.673355"><ele>61.5</ele><time>2026-04-08T10:54:10.11Z</time></trkpt><trkpt lat="45.0423083" lon="9.6731933"><ele>61.75</ele><time>2026-04-08T10:54:11.11Z</time></trkpt><trkpt lat="45.0423567" lon="9.67305"><ele>62.0</ele><time>2026-04-08T10:54:12.11Z</time></trkpt><trkpt lat="45.042385" lon="9.672945"><ele>62.0</ele><time>2026-04-08T10:54:13.11Z</time></trkpt><trkpt lat="45.042435" lon="9.6728017"><ele>62.0</ele><time>2026-04-08T10:54:15.11Z</time></trkpt><trkpt lat="45.0424683" lon="9.6726517"><ele>62.0</ele><time>2026-04-08T10:54:17.11Z</time></trkpt><trkpt lat="45.04254" lon="9.6725583"><ele>62.0</ele><time>2026-04-08T10:54:19.11Z</time></trkpt><trkpt lat="45.0426517" lon="9.6726317"><ele>62.0</ele><time>2026-04-08T10:54:20.11Z</time></trkpt><trkpt lat="45.0427767" lon="9.67274"><ele>61.0</ele><time>2026-04-08T10:54:21.11Z</time></trkpt><trkpt lat="45.04293" lon="9.6728683"><ele>60.0</ele><time>2026-04-08T10:54:22.109Z</time></trkpt><trkpt lat="45.0431" lon="9.6730033"><ele>59.0</ele><time>2026-04-08T10:54:23.109Z</time></trkpt><trkpt lat="45.0432717" lon="9.6731433"><ele>59.0</ele><time>2026-04-08T10:54:24.109Z</time></trkpt><trkpt lat="45.0434417" lon="9.6732867"><ele>59.0</ele><time>2026-04-08T10:54:25.109Z</time></trkpt><trkpt lat="45.0435983" lon="9.6734267"><ele>59.0</ele><time>2026-04-08T10:54:26.109Z</time></trkpt><trkpt lat="45.0437533" lon="9.67355"><ele>59.0</ele><time>2026-04-08T10:54:27.109Z</time></trkpt><trkpt lat="45.0438917" lon="9.6736717"><ele>59.0</ele><time>2026-04-08T10:54:28.109Z</time></trkpt><trkpt lat="45.0440133" lon="9.6737817"><ele>59.0</ele><time>2026-04-08T10:54:29.109Z</time></trkpt><trkpt lat="45.044115" lon="9.67386"><ele>59.0</ele><time>2026-04-08T10:54:30.109Z</time></trkpt><trkpt lat="45.0441917" lon="9.6739217"><ele>59.333333333333336</ele><time>2026-04-08T10:54:31.109Z</time></trkpt><trkpt lat="45.0442567" lon="9.6739617"><ele>59.66666666666667</ele><time>2026-04-08T10:54:32.109Z</time></trkpt><trkpt lat="45.0443483" lon="9.674015"><ele>60.0</ele><time>2026-04-08T10:54:34.108Z</time></trkpt><trkpt lat="45.04442" lon="9.6740767"><ele>60.33333333333333</ele><time>2026-04-08T10:54:41.108Z</time></trkpt><trkpt lat="45.0445083" lon="9.6741767"><ele>60.666666666666664</ele><time>2026-04-08T10:54:43.109Z</time></trkpt><trkpt lat="45.0445633" lon="9.6742517"><ele>61.0</ele><time>2026-04-08T10:54:44.108Z</time></trkpt><trkpt lat="45.044645" lon="9.6743333"><ele>61.0</ele><time>2026-04-08T10:54:45.109Z</time></trkpt><trkpt lat="45.04473" lon="9.6744067"><ele>61.0</ele><time>2026-04-08T10:54:46.109Z</time></trkpt><trkpt lat="45.0448233" lon="9.6744933"><ele>61.0</ele><time>2026-04-08T10:54:47.109Z</time></trkpt><trkpt lat="45.044935" lon="9.6745917"><ele>61.0</ele><time>2026-04-08T10:54:48.108Z</time></trkpt><trkpt lat="45.04508" lon="9.6747233"><ele>60.33333333333333</ele><time>2026-04-08T10:54:49.108Z</time></trkpt><trkpt lat="45.0452417" lon="9.6748583"><ele>59.66666666666667</ele><time>2026-04-08T10:54:50.108Z</time></trkpt><trkpt lat="45.0454067" lon="9.6749867"><ele>59.0</ele><time>2026-04-08T10:54:51.108Z</time></trkpt><trkpt lat="45.04557" lon="9.6751083"><ele>59.0</ele><time>2026-04-08T10:54:52.109Z</time></trkpt><trkpt lat="45.045725" lon="9.6752217"><ele>59.0</ele><time>2026-04-08T10:54:53.109Z</time></trkpt><trkpt lat="45.045875" lon="9.6753333"><ele>59.0</ele><time>2026-04-08T10:54:54.108Z</time></trkpt><trkpt lat="45.04601" lon="9.675455"><ele>59.800000000000004</ele><time>2026-04-08T10:54:55.109Z</time></trkpt><trkpt lat="45.0461067" lon="9.6755383"><ele>60.60000000000001</ele><time>2026-04-08T10:54:56.109Z</time></trkpt><trkpt lat="45.0461817" lon="9.6756083"><ele>61.4</ele><time>2026-04-08T10:54:57.108Z</time></trkpt><trkpt lat="45.0462867" lon="9.67565"><ele>62.2</ele><time>2026-04-08T10:54:59.109Z</time></trkpt><trkpt lat="45.0463867" lon="9.6755383"><ele>63.0</ele><time>2026-04-08T10:55:01.109Z</time></trkpt><trkpt lat="45.0464367" lon="9.6754283"><ele>63.0</ele><time>2026-04-08T10:55:02.109Z</time></trkpt><trkpt lat="45.046495" lon="9.6753333"><ele>63.0</ele><time>2026-04-08T10:55:03.108Z</time></trkpt><trkpt lat="45.046565" lon="9.6752333"><ele>63.0</ele><time>2026-04-08T10:55:04.109Z</time></trkpt><trkpt lat="45.046635" lon="9.6751167"><ele>63.0</ele><time>2026-04-08T10:55:05.108Z</time></trkpt><trkpt lat="45.046715" lon="9.6749883"><ele>63.0</ele><time>2026-04-08T10:55:06.109Z</time></trkpt><trkpt lat="45.0467983" lon="9.6748417"><ele>62.5</ele><time>2026-04-08T10:55:07.109Z</time></trkpt><trkpt lat="45.04689" lon="9.67468"><ele>62.0</ele><time>2026-04-08T10:55:08.109Z</time></trkpt><trkpt lat="45.0469883" lon="9.67452"><ele>61.5</ele><time>2026-04-08T10:55:09.109Z</time></trkpt><trkpt lat="45.0470833" lon="9.6743783"><ele>61.0</ele><time>2026-04-08T10:55:10.108Z</time></trkpt><trkpt lat="45.0471733" lon="9.674235"><ele>60.4</ele><time>2026-04-08T10:55:11.109Z</time></trkpt><trkpt lat="45.0472567" lon="9.6741033"><ele>59.8</ele><time>2026-04-08T10:55:12.108Z</time></trkpt><trkpt lat="45.0473333" lon="9.6739883"><ele>59.199999999999996</ele><time>2026-04-08T10:55:13.109Z</time></trkpt><trkpt lat="45.04739" lon="9.6739083"><ele>58.599999999999994</ele><time>2026-04-08T10:55:14.109Z</time></trkpt><trkpt lat="45.04744" lon="9.67383"><ele>58.0</ele><time>2026-04-08T10:55:15.108Z</time></trkpt><trkpt lat="45.04749" lon="9.6737683"><ele>57.75</ele><time>2026-04-08T10:55:16.109Z</time></trkpt><trkpt lat="45.04754" lon="9.67366"><ele>57.5</ele><time>2026-04-08T10:55:18.108Z</time></trkpt><trkpt lat="45.0475267" lon="9.673515"><ele>57.25</ele><time>2026-04-08T10:55:20.109Z</time></trkpt><trkpt lat="45.0474167" lon="9.6733767"><ele>57.0</ele><time>2026-04-08T10:55:21.108Z</time></trkpt><trkpt lat="45.0473117" lon="9.67322"><ele>57.0</ele><time>2026-04-08T10:55:22.109Z</time></trkpt><trkpt lat="45.0472167" lon="9.673075"><ele>57.0</ele><time>2026-04-08T10:55:23.108Z</time></trkpt><trkpt lat="45.047125" lon="9.6729383"><ele>57.0</ele><time>2026-04-08T10:55:24.108Z</time></trkpt><trkpt lat="45.0470333" lon="9.672825"><ele>57.0</ele><time>2026-04-08T10:55:25.108Z</time></trkpt><trkpt lat="45.0469333" lon="9.67273"><ele>57.0</ele><time>2026-04-08T10:55:26.109Z</time></trkpt><trkpt lat="45.0468433" lon="9.6726533"><ele>57.0</ele><time>2026-04-08T10:55:27.109Z</time></trkpt><trkpt lat="45.0467617" lon="9.672605"><ele>57.0</ele><time>2026-04-08T10:55:28.109Z</time></trkpt><trkpt lat="45.0467" lon="9.6725567"><ele>57.0</ele><time>2026-04-08T10:55:29.109Z</time></trkpt><trkpt lat="45.04662" lon="9.6725017"><ele>57.0</ele><time>2026-04-08T10:55:31.109Z</time></trkpt><trkpt lat="45.0465633" lon="9.6725633"><ele>57.0</ele><time>2026-04-08T10:55:34.109Z</time></trkpt><trkpt lat="45.0465183" lon="9.672675"><ele>57.6</ele><time>2026-04-08T10:55:37.109Z</time></trkpt><trkpt lat="45.0464467" lon="9.6726967"><ele>58.2</ele><time>2026-04-08T10:55:39.109Z</time></trkpt><trkpt lat="45.04638" lon="9.6726783"><ele>58.8</ele><time>2026-04-08T10:55:41.108Z</time></trkpt><trkpt lat="45.046305" lon="9.6726517"><ele>59.4</ele><time>2026-04-08T10:55:44.108Z</time></trkpt><trkpt lat="45.0462267" lon="9.6727183"><ele>60.0</ele><time>2026-04-08T10:56:07.109Z</time></trkpt><trkpt lat="45.0464391" lon="9.6723868"><ele>60.0</ele><time>2026-04-08T10:56:24.896Z</time></trkpt><trkpt lat="45.0463283" lon="9.6727117"><ele>60.0</ele><time>2026-04-08T10:56:46.109Z</time></trkpt><trkpt lat="45.046465" lon="9.6728233"><ele>60.0</ele><time>2026-04-08T10:56:49.108Z</time></trkpt><trkpt lat="45.0463933" lon="9.6727267"><ele>60.0</ele><time>2026-04-08T10:57:02.109Z</time></trkpt><trkpt lat="45.0464467" lon="9.6726683"><ele>60.0</ele><time>2026-04-08T10:57:06.108Z</time></trkpt><trkpt lat="45.0464817" lon="9.6725883"><ele>60.0</ele><time>2026-04-08T10:57:10.109Z</time></trkpt><trkpt lat="45.0464" lon="9.672735"><ele>60.0</ele><time>2026-04-08T10:57:22.109Z</time></trkpt><trkpt lat="45.0465207" lon="9.6723311"><ele>60.0</ele><time>2026-04-08T11:02:48.213Z</time></trkpt><trkpt lat="45.046525" lon="9.672525"><ele>60.0</ele><time>2026-04-08T11:02:55.109Z</time></trkpt></trkseg></trk></gpx>